<?xml version="1.0" encoding="UTF-8"?>
<gpx
version="1.1"
creator="Creado mediante My Tracks en Android."
xmlns="http://www.topografix.com/GPX/1/1"
xmlns:topografix="http://www.topografix.com/GPX/Private/TopoGrafix/0/1"
xmlns:xsi="http://www.w3.org/2001/XMLSchema-instance"
xsi:schemaLocation="http://www.topografix.com/GPX/1/1 http://www.topografix.com/GPX/1/1/gpx.xsd http://www.topografix.com/GPX/Private/TopoGrafix/0/1 http://www.topografix.com/GPX/Private/TopoGrafix/0/1/topografix.xsd">
<metadata>
<name><![CDATA[Lumbier]]></name>
<desc><![CDATA[]]></desc>
</metadata>
<trk>
<name><![CDATA[Lumbier]]></name>
<desc><![CDATA[]]></desc>
<type><![CDATA[]]></type>
<extensions><topografix:color>c0c0c0</topografix:color></extensions>
<trkseg>
<trkpt lat="42.647502" lon="-1.194063">
<ele>1306</ele>
<time>2013-07-13T12:54:56.474Z</time>
</trkpt>
<trkpt lat="42.647515" lon="-1.194195">
<ele>1324</ele>
<time>2013-07-13T12:54:57.470Z</time>
</trkpt>
<trkpt lat="42.647516" lon="-1.194253">
<ele>1323</ele>
<time>2013-07-13T12:56:08.000Z</time>
</trkpt>
<trkpt lat="42.647524" lon="-1.194256">
<ele>1322</ele>
<time>2013-07-13T12:56:09.000Z</time>
</trkpt>
<trkpt lat="42.647563" lon="-1.194282">
<ele>1324</ele>
<time>2013-07-13T12:57:23.000Z</time>
</trkpt>
<trkpt lat="42.647564" lon="-1.194282">
<ele>1326</ele>
<time>2013-07-13T12:57:24.000Z</time>
</trkpt>
<trkpt lat="42.647523" lon="-1.194266">
<ele>1320</ele>
<time>2013-07-13T12:59:06.000Z</time>
</trkpt>
<trkpt lat="42.647519" lon="-1.194268">
<ele>1322</ele>
<time>2013-07-13T12:59:07.000Z</time>
</trkpt>
<trkpt lat="42.64756" lon="-1.194256">
<ele>1325</ele>
<time>2013-07-13T13:02:43.000Z</time>
</trkpt>
<trkpt lat="42.647566" lon="-1.194261">
<ele>1325</ele>
<time>2013-07-13T13:02:44.000Z</time>
</trkpt>
<trkpt lat="42.647595" lon="-1.194283">
<ele>1326</ele>
<time>2013-07-13T13:03:58.000Z</time>
</trkpt>
<trkpt lat="42.647613" lon="-1.194295">
<ele>1326</ele>
<time>2013-07-13T13:03:59.000Z</time>
</trkpt>
<trkpt lat="42.647641" lon="-1.194306">
<ele>1322</ele>
<time>2013-07-13T13:04:00.000Z</time>
</trkpt>
<trkpt lat="42.647679" lon="-1.194318">
<ele>1320</ele>
<time>2013-07-13T13:04:01.000Z</time>
</trkpt>
<trkpt lat="42.647718" lon="-1.19434">
<ele>1318</ele>
<time>2013-07-13T13:04:02.000Z</time>
</trkpt>
<trkpt lat="42.647748" lon="-1.194358">
<ele>1315</ele>
<time>2013-07-13T13:04:03.000Z</time>
</trkpt>
<trkpt lat="42.647778" lon="-1.194364">
<ele>1318</ele>
<time>2013-07-13T13:04:04.000Z</time>
</trkpt>
<trkpt lat="42.647817" lon="-1.194377">
<ele>1317</ele>
<time>2013-07-13T13:04:05.000Z</time>
</trkpt>
<trkpt lat="42.647861" lon="-1.1944">
<ele>1315</ele>
<time>2013-07-13T13:04:06.000Z</time>
</trkpt>
<trkpt lat="42.647911" lon="-1.194442">
<ele>1315</ele>
<time>2013-07-13T13:04:07.000Z</time>
</trkpt>
<trkpt lat="42.647967" lon="-1.1945">
<ele>1312</ele>
<time>2013-07-13T13:04:08.000Z</time>
</trkpt>
<trkpt lat="42.648017" lon="-1.194553">
<ele>1309</ele>
<time>2013-07-13T13:04:09.000Z</time>
</trkpt>
<trkpt lat="42.64807" lon="-1.1946">
<ele>1310</ele>
<time>2013-07-13T13:04:10.000Z</time>
</trkpt>
<trkpt lat="42.648118" lon="-1.194634">
<ele>1308</ele>
<time>2013-07-13T13:04:11.000Z</time>
</trkpt>
<trkpt lat="42.648157" lon="-1.194662">
<ele>1312</ele>
<time>2013-07-13T13:04:12.000Z</time>
</trkpt>
<trkpt lat="42.648196" lon="-1.194692">
<ele>1314</ele>
<time>2013-07-13T13:04:13.000Z</time>
</trkpt>
<trkpt lat="42.648241" lon="-1.194742">
<ele>1312</ele>
<time>2013-07-13T13:04:14.000Z</time>
</trkpt>
<trkpt lat="42.648293" lon="-1.194789">
<ele>1311</ele>
<time>2013-07-13T13:04:15.000Z</time>
</trkpt>
<trkpt lat="42.648351" lon="-1.194832">
<ele>1307</ele>
<time>2013-07-13T13:04:16.000Z</time>
</trkpt>
<trkpt lat="42.648405" lon="-1.194873">
<ele>1305</ele>
<time>2013-07-13T13:04:17.000Z</time>
</trkpt>
<trkpt lat="42.648452" lon="-1.194914">
<ele>1304</ele>
<time>2013-07-13T13:04:18.000Z</time>
</trkpt>
<trkpt lat="42.6485" lon="-1.194959">
<ele>1303</ele>
<time>2013-07-13T13:04:19.000Z</time>
</trkpt>
<trkpt lat="42.648553" lon="-1.195008">
<ele>1302</ele>
<time>2013-07-13T13:04:20.000Z</time>
</trkpt>
<trkpt lat="42.648613" lon="-1.195061">
<ele>1301</ele>
<time>2013-07-13T13:04:21.000Z</time>
</trkpt>
<trkpt lat="42.648667" lon="-1.195105">
<ele>1301</ele>
<time>2013-07-13T13:04:22.000Z</time>
</trkpt>
<trkpt lat="42.648714" lon="-1.195141">
<ele>1300</ele>
<time>2013-07-13T13:04:23.000Z</time>
</trkpt>
<trkpt lat="42.648759" lon="-1.195174">
<ele>1301</ele>
<time>2013-07-13T13:04:24.000Z</time>
</trkpt>
<trkpt lat="42.648806" lon="-1.195207">
<ele>1299</ele>
<time>2013-07-13T13:04:25.000Z</time>
</trkpt>
<trkpt lat="42.648849" lon="-1.19523">
<ele>1297</ele>
<time>2013-07-13T13:04:26.000Z</time>
</trkpt>
<trkpt lat="42.648898" lon="-1.195238">
<ele>1298</ele>
<time>2013-07-13T13:04:27.000Z</time>
</trkpt>
<trkpt lat="42.648954" lon="-1.195252">
<ele>1300</ele>
<time>2013-07-13T13:04:28.000Z</time>
</trkpt>
<trkpt lat="42.649011" lon="-1.195284">
<ele>1299</ele>
<time>2013-07-13T13:04:29.000Z</time>
</trkpt>
<trkpt lat="42.649069" lon="-1.195322">
<ele>1299</ele>
<time>2013-07-13T13:04:30.000Z</time>
</trkpt>
<trkpt lat="42.649126" lon="-1.195361">
<ele>1299</ele>
<time>2013-07-13T13:04:31.000Z</time>
</trkpt>
<trkpt lat="42.64918" lon="-1.195389">
<ele>1297</ele>
<time>2013-07-13T13:04:32.000Z</time>
</trkpt>
<trkpt lat="42.649232" lon="-1.195408">
<ele>1296</ele>
<time>2013-07-13T13:04:33.000Z</time>
</trkpt>
<trkpt lat="42.649294" lon="-1.195433">
<ele>1294</ele>
<time>2013-07-13T13:04:34.000Z</time>
</trkpt>
<trkpt lat="42.649362" lon="-1.195468">
<ele>1291</ele>
<time>2013-07-13T13:04:35.000Z</time>
</trkpt>
<trkpt lat="42.649433" lon="-1.19551">
<ele>1288</ele>
<time>2013-07-13T13:04:36.000Z</time>
</trkpt>
<trkpt lat="42.649499" lon="-1.195546">
<ele>1284</ele>
<time>2013-07-13T13:04:37.000Z</time>
</trkpt>
<trkpt lat="42.64956" lon="-1.195577">
<ele>1281</ele>
<time>2013-07-13T13:04:38.000Z</time>
</trkpt>
<trkpt lat="42.649619" lon="-1.195599">
<ele>1280</ele>
<time>2013-07-13T13:04:39.000Z</time>
</trkpt>
<trkpt lat="42.649681" lon="-1.195619">
<ele>1279</ele>
<time>2013-07-13T13:04:40.000Z</time>
</trkpt>
<trkpt lat="42.649747" lon="-1.195644">
<ele>1280</ele>
<time>2013-07-13T13:04:41.000Z</time>
</trkpt>
<trkpt lat="42.649819" lon="-1.195669">
<ele>1278</ele>
<time>2013-07-13T13:04:42.000Z</time>
</trkpt>
<trkpt lat="42.649888" lon="-1.195692">
<ele>1276</ele>
<time>2013-07-13T13:04:43.000Z</time>
</trkpt>
<trkpt lat="42.649951" lon="-1.195716">
<ele>1275</ele>
<time>2013-07-13T13:04:44.000Z</time>
</trkpt>
<trkpt lat="42.650007" lon="-1.195743">
<ele>1275</ele>
<time>2013-07-13T13:04:45.000Z</time>
</trkpt>
<trkpt lat="42.650053" lon="-1.195768">
<ele>1273</ele>
<time>2013-07-13T13:04:46.000Z</time>
</trkpt>
<trkpt lat="42.6501" lon="-1.195799">
<ele>1272</ele>
<time>2013-07-13T13:04:47.000Z</time>
</trkpt>
<trkpt lat="42.650142" lon="-1.195847">
<ele>1272</ele>
<time>2013-07-13T13:04:48.000Z</time>
</trkpt>
<trkpt lat="42.650187" lon="-1.195898">
<ele>1271</ele>
<time>2013-07-13T13:04:49.000Z</time>
</trkpt>
<trkpt lat="42.65023" lon="-1.195955">
<ele>1270</ele>
<time>2013-07-13T13:04:50.000Z</time>
</trkpt>
<trkpt lat="42.650274" lon="-1.196015">
<ele>1269</ele>
<time>2013-07-13T13:04:51.000Z</time>
</trkpt>
<trkpt lat="42.650332" lon="-1.196072">
<ele>1269</ele>
<time>2013-07-13T13:04:52.000Z</time>
</trkpt>
<trkpt lat="42.650394" lon="-1.196129">
<ele>1264</ele>
<time>2013-07-13T13:04:53.000Z</time>
</trkpt>
<trkpt lat="42.650453" lon="-1.196219">
<ele>1263</ele>
<time>2013-07-13T13:04:54.000Z</time>
</trkpt>
<trkpt lat="42.650503" lon="-1.196309">
<ele>1261</ele>
<time>2013-07-13T13:04:55.000Z</time>
</trkpt>
<trkpt lat="42.650534" lon="-1.196399">
<ele>1258</ele>
<time>2013-07-13T13:04:56.000Z</time>
</trkpt>
<trkpt lat="42.650563" lon="-1.196481">
<ele>1257</ele>
<time>2013-07-13T13:04:57.000Z</time>
</trkpt>
<trkpt lat="42.650589" lon="-1.196546">
<ele>1253</ele>
<time>2013-07-13T13:04:58.000Z</time>
</trkpt>
<trkpt lat="42.650625" lon="-1.196624">
<ele>1252</ele>
<time>2013-07-13T13:04:59.000Z</time>
</trkpt>
<trkpt lat="42.65067" lon="-1.196711">
<ele>1249</ele>
<time>2013-07-13T13:05:00.000Z</time>
</trkpt>
<trkpt lat="42.650722" lon="-1.196798">
<ele>1246</ele>
<time>2013-07-13T13:05:01.000Z</time>
</trkpt>
<trkpt lat="42.650786" lon="-1.196898">
<ele>1246</ele>
<time>2013-07-13T13:05:02.000Z</time>
</trkpt>
<trkpt lat="42.650861" lon="-1.196967">
<ele>1245</ele>
<time>2013-07-13T13:05:03.000Z</time>
</trkpt>
<trkpt lat="42.650932" lon="-1.197024">
<ele>1244</ele>
<time>2013-07-13T13:05:04.000Z</time>
</trkpt>
<trkpt lat="42.650993" lon="-1.197071">
<ele>1243</ele>
<time>2013-07-13T13:05:05.000Z</time>
</trkpt>
<trkpt lat="42.651058" lon="-1.197125">
<ele>1240</ele>
<time>2013-07-13T13:05:06.000Z</time>
</trkpt>
<trkpt lat="42.651114" lon="-1.197181">
<ele>1239</ele>
<time>2013-07-13T13:05:07.000Z</time>
</trkpt>
<trkpt lat="42.651157" lon="-1.19723">
<ele>1240</ele>
<time>2013-07-13T13:05:08.000Z</time>
</trkpt>
<trkpt lat="42.651194" lon="-1.197269">
<ele>1240</ele>
<time>2013-07-13T13:05:09.000Z</time>
</trkpt>
<trkpt lat="42.651246" lon="-1.197294">
<ele>1242</ele>
<time>2013-07-13T13:05:10.000Z</time>
</trkpt>
<trkpt lat="42.651308" lon="-1.197321">
<ele>1243</ele>
<time>2013-07-13T13:05:11.000Z</time>
</trkpt>
<trkpt lat="42.651377" lon="-1.197352">
<ele>1242</ele>
<time>2013-07-13T13:05:12.000Z</time>
</trkpt>
<trkpt lat="42.651434" lon="-1.197404">
<ele>1243</ele>
<time>2013-07-13T13:05:13.000Z</time>
</trkpt>
<trkpt lat="42.651493" lon="-1.197471">
<ele>1244</ele>
<time>2013-07-13T13:05:14.000Z</time>
</trkpt>
<trkpt lat="42.65155" lon="-1.197544">
<ele>1244</ele>
<time>2013-07-13T13:05:15.000Z</time>
</trkpt>
<trkpt lat="42.651604" lon="-1.197613">
<ele>1244</ele>
<time>2013-07-13T13:05:16.000Z</time>
</trkpt>
<trkpt lat="42.651658" lon="-1.197675">
<ele>1244</ele>
<time>2013-07-13T13:05:17.000Z</time>
</trkpt>
<trkpt lat="42.651708" lon="-1.19773">
<ele>1245</ele>
<time>2013-07-13T13:05:18.000Z</time>
</trkpt>
<trkpt lat="42.651745" lon="-1.197795">
<ele>1247</ele>
<time>2013-07-13T13:05:19.000Z</time>
</trkpt>
<trkpt lat="42.65176" lon="-1.197854">
<ele>1249</ele>
<time>2013-07-13T13:05:20.000Z</time>
</trkpt>
<trkpt lat="42.651756" lon="-1.1979">
<ele>1249</ele>
<time>2013-07-13T13:05:21.000Z</time>
</trkpt>
<trkpt lat="42.651753" lon="-1.197953">
<ele>1250</ele>
<time>2013-07-13T13:05:22.000Z</time>
</trkpt>
<trkpt lat="42.651752" lon="-1.198026">
<ele>1251</ele>
<time>2013-07-13T13:05:23.000Z</time>
</trkpt>
<trkpt lat="42.651745" lon="-1.19811">
<ele>1252</ele>
<time>2013-07-13T13:05:24.000Z</time>
</trkpt>
<trkpt lat="42.65171" lon="-1.19818">
<ele>1254</ele>
<time>2013-07-13T13:05:25.000Z</time>
</trkpt>
<trkpt lat="42.651662" lon="-1.198232">
<ele>1256</ele>
<time>2013-07-13T13:05:26.000Z</time>
</trkpt>
<trkpt lat="42.651605" lon="-1.198264">
<ele>1258</ele>
<time>2013-07-13T13:05:27.000Z</time>
</trkpt>
<trkpt lat="42.651544" lon="-1.19829">
<ele>1259</ele>
<time>2013-07-13T13:05:28.000Z</time>
</trkpt>
<trkpt lat="42.65147" lon="-1.198294">
<ele>1259</ele>
<time>2013-07-13T13:05:29.000Z</time>
</trkpt>
<trkpt lat="42.651382" lon="-1.198268">
<ele>1259</ele>
<time>2013-07-13T13:05:30.000Z</time>
</trkpt>
<trkpt lat="42.651299" lon="-1.198204">
<ele>1260</ele>
<time>2013-07-13T13:05:31.000Z</time>
</trkpt>
<trkpt lat="42.651229" lon="-1.198085">
<ele>1261</ele>
<time>2013-07-13T13:05:32.000Z</time>
</trkpt>
<trkpt lat="42.651199" lon="-1.197937">
<ele>1264</ele>
<time>2013-07-13T13:05:33.000Z</time>
</trkpt>
<trkpt lat="42.65121" lon="-1.197803">
<ele>1265</ele>
<time>2013-07-13T13:05:34.000Z</time>
</trkpt>
<trkpt lat="42.651222" lon="-1.197662">
<ele>1266</ele>
<time>2013-07-13T13:05:35.000Z</time>
</trkpt>
<trkpt lat="42.651254" lon="-1.197535">
<ele>1267</ele>
<time>2013-07-13T13:05:36.000Z</time>
</trkpt>
<trkpt lat="42.651296" lon="-1.197412">
<ele>1268</ele>
<time>2013-07-13T13:05:37.000Z</time>
</trkpt>
<trkpt lat="42.651337" lon="-1.197302">
<ele>1269</ele>
<time>2013-07-13T13:05:38.000Z</time>
</trkpt>
<trkpt lat="42.65138" lon="-1.197201">
<ele>1269</ele>
<time>2013-07-13T13:05:39.000Z</time>
</trkpt>
<trkpt lat="42.651419" lon="-1.197104">
<ele>1269</ele>
<time>2013-07-13T13:05:40.000Z</time>
</trkpt>
<trkpt lat="42.651457" lon="-1.197007">
<ele>1269</ele>
<time>2013-07-13T13:05:41.000Z</time>
</trkpt>
<trkpt lat="42.651497" lon="-1.196918">
<ele>1268</ele>
<time>2013-07-13T13:05:42.000Z</time>
</trkpt>
<trkpt lat="42.651556" lon="-1.19684">
<ele>1269</ele>
<time>2013-07-13T13:05:43.000Z</time>
</trkpt>
<trkpt lat="42.651623" lon="-1.196762">
<ele>1269</ele>
<time>2013-07-13T13:05:44.000Z</time>
</trkpt>
<trkpt lat="42.651703" lon="-1.196684">
<ele>1270</ele>
<time>2013-07-13T13:05:45.000Z</time>
</trkpt>
<trkpt lat="42.651788" lon="-1.196604">
<ele>1270</ele>
<time>2013-07-13T13:05:46.000Z</time>
</trkpt>
<trkpt lat="42.651884" lon="-1.196516">
<ele>1271</ele>
<time>2013-07-13T13:05:47.000Z</time>
</trkpt>
<trkpt lat="42.651972" lon="-1.196446">
<ele>1273</ele>
<time>2013-07-13T13:05:48.000Z</time>
</trkpt>
<trkpt lat="42.652051" lon="-1.196393">
<ele>1275</ele>
<time>2013-07-13T13:05:49.000Z</time>
</trkpt>
<trkpt lat="42.652124" lon="-1.196351">
<ele>1277</ele>
<time>2013-07-13T13:05:50.000Z</time>
</trkpt>
<trkpt lat="42.652194" lon="-1.196312">
<ele>1280</ele>
<time>2013-07-13T13:05:51.000Z</time>
</trkpt>
<trkpt lat="42.652261" lon="-1.196269">
<ele>1283</ele>
<time>2013-07-13T13:05:52.000Z</time>
</trkpt>
<trkpt lat="42.652321" lon="-1.196221">
<ele>1285</ele>
<time>2013-07-13T13:05:53.000Z</time>
</trkpt>
<trkpt lat="42.652362" lon="-1.196185">
<ele>1285</ele>
<time>2013-07-13T13:05:54.000Z</time>
</trkpt>
<trkpt lat="42.652404" lon="-1.196152">
<ele>1284</ele>
<time>2013-07-13T13:05:55.000Z</time>
</trkpt>
<trkpt lat="42.652453" lon="-1.196146">
<ele>1284</ele>
<time>2013-07-13T13:05:56.000Z</time>
</trkpt>
<trkpt lat="42.65249" lon="-1.196161">
<ele>1283</ele>
<time>2013-07-13T13:05:57.000Z</time>
</trkpt>
<trkpt lat="42.652518" lon="-1.196198">
<ele>1283</ele>
<time>2013-07-13T13:05:58.000Z</time>
</trkpt>
<trkpt lat="42.652518" lon="-1.196256">
<ele>1281</ele>
<time>2013-07-13T13:05:59.000Z</time>
</trkpt>
<trkpt lat="42.652491" lon="-1.196322">
<ele>1282</ele>
<time>2013-07-13T13:06:00.000Z</time>
</trkpt>
<trkpt lat="42.652436" lon="-1.196356">
<ele>1281</ele>
<time>2013-07-13T13:06:01.000Z</time>
</trkpt>
<trkpt lat="42.652347" lon="-1.19637">
<ele>1282</ele>
<time>2013-07-13T13:06:02.000Z</time>
</trkpt>
<trkpt lat="42.65226" lon="-1.196349">
<ele>1280</ele>
<time>2013-07-13T13:06:03.000Z</time>
</trkpt>
<trkpt lat="42.652179" lon="-1.196289">
<ele>1280</ele>
<time>2013-07-13T13:06:04.000Z</time>
</trkpt>
<trkpt lat="42.652091" lon="-1.196207">
<ele>1281</ele>
<time>2013-07-13T13:06:05.000Z</time>
</trkpt>
<trkpt lat="42.652021" lon="-1.196092">
<ele>1283</ele>
<time>2013-07-13T13:06:06.000Z</time>
</trkpt>
<trkpt lat="42.651962" lon="-1.195976">
<ele>1283</ele>
<time>2013-07-13T13:06:07.000Z</time>
</trkpt>
<trkpt lat="42.65193" lon="-1.195837">
<ele>1283</ele>
<time>2013-07-13T13:06:08.000Z</time>
</trkpt>
<trkpt lat="42.651901" lon="-1.19568">
<ele>1282</ele>
<time>2013-07-13T13:06:09.000Z</time>
</trkpt>
<trkpt lat="42.651876" lon="-1.195509">
<ele>1281</ele>
<time>2013-07-13T13:06:10.000Z</time>
</trkpt>
<trkpt lat="42.651849" lon="-1.195331">
<ele>1281</ele>
<time>2013-07-13T13:06:11.000Z</time>
</trkpt>
<trkpt lat="42.651831" lon="-1.195184">
<ele>1282</ele>
<time>2013-07-13T13:06:12.000Z</time>
</trkpt>
<trkpt lat="42.651818" lon="-1.195061">
<ele>1283</ele>
<time>2013-07-13T13:06:13.000Z</time>
</trkpt>
<trkpt lat="42.651802" lon="-1.194938">
<ele>1285</ele>
<time>2013-07-13T13:06:14.000Z</time>
</trkpt>
<trkpt lat="42.651779" lon="-1.194814">
<ele>1285</ele>
<time>2013-07-13T13:06:15.000Z</time>
</trkpt>
<trkpt lat="42.651755" lon="-1.194681">
<ele>1286</ele>
<time>2013-07-13T13:06:16.000Z</time>
</trkpt>
<trkpt lat="42.651758" lon="-1.194543">
<ele>1287</ele>
<time>2013-07-13T13:06:17.000Z</time>
</trkpt>
<trkpt lat="42.651806" lon="-1.194415">
<ele>1286</ele>
<time>2013-07-13T13:06:18.000Z</time>
</trkpt>
<trkpt lat="42.651877" lon="-1.194315">
<ele>1285</ele>
<time>2013-07-13T13:06:19.000Z</time>
</trkpt>
<trkpt lat="42.651956" lon="-1.194261">
<ele>1285</ele>
<time>2013-07-13T13:06:20.000Z</time>
</trkpt>
<trkpt lat="42.652002" lon="-1.194238">
<ele>1285</ele>
<time>2013-07-13T13:06:21.000Z</time>
</trkpt>
<trkpt lat="42.652035" lon="-1.194264">
<ele>1284</ele>
<time>2013-07-13T13:06:22.000Z</time>
</trkpt>
<trkpt lat="42.652056" lon="-1.194322">
<ele>1285</ele>
<time>2013-07-13T13:06:23.000Z</time>
</trkpt>
<trkpt lat="42.652078" lon="-1.194391">
<ele>1287</ele>
<time>2013-07-13T13:06:24.000Z</time>
</trkpt>
<trkpt lat="42.652086" lon="-1.194462">
<ele>1289</ele>
<time>2013-07-13T13:06:25.000Z</time>
</trkpt>
<trkpt lat="42.652081" lon="-1.194516">
<ele>1290</ele>
<time>2013-07-13T13:06:26.000Z</time>
</trkpt>
<trkpt lat="42.652063" lon="-1.194565">
<ele>1291</ele>
<time>2013-07-13T13:06:27.000Z</time>
</trkpt>
<trkpt lat="42.652036" lon="-1.19461">
<ele>1292</ele>
<time>2013-07-13T13:06:28.000Z</time>
</trkpt>
<trkpt lat="42.652006" lon="-1.194655">
<ele>1293</ele>
<time>2013-07-13T13:06:29.000Z</time>
</trkpt>
<trkpt lat="42.65197" lon="-1.194698">
<ele>1293</ele>
<time>2013-07-13T13:06:30.000Z</time>
</trkpt>
<trkpt lat="42.651914" lon="-1.194734">
<ele>1291</ele>
<time>2013-07-13T13:06:31.000Z</time>
</trkpt>
<trkpt lat="42.651852" lon="-1.19477">
<ele>1290</ele>
<time>2013-07-13T13:06:32.000Z</time>
</trkpt>
<trkpt lat="42.651782" lon="-1.194807">
<ele>1289</ele>
<time>2013-07-13T13:06:33.000Z</time>
</trkpt>
<trkpt lat="42.651716" lon="-1.194841">
<ele>1288</ele>
<time>2013-07-13T13:06:34.000Z</time>
</trkpt>
<trkpt lat="42.651657" lon="-1.194878">
<ele>1288</ele>
<time>2013-07-13T13:06:35.000Z</time>
</trkpt>
<trkpt lat="42.651611" lon="-1.194936">
<ele>1287</ele>
<time>2013-07-13T13:06:36.000Z</time>
</trkpt>
<trkpt lat="42.651568" lon="-1.194999">
<ele>1286</ele>
<time>2013-07-13T13:06:37.000Z</time>
</trkpt>
<trkpt lat="42.651528" lon="-1.195066">
<ele>1286</ele>
<time>2013-07-13T13:06:38.000Z</time>
</trkpt>
<trkpt lat="42.651495" lon="-1.195134">
<ele>1286</ele>
<time>2013-07-13T13:06:39.000Z</time>
</trkpt>
<trkpt lat="42.651479" lon="-1.195207">
<ele>1286</ele>
<time>2013-07-13T13:06:40.000Z</time>
</trkpt>
<trkpt lat="42.651468" lon="-1.195276">
<ele>1286</ele>
<time>2013-07-13T13:06:41.000Z</time>
</trkpt>
<trkpt lat="42.651461" lon="-1.195347">
<ele>1286</ele>
<time>2013-07-13T13:06:42.000Z</time>
</trkpt>
<trkpt lat="42.651456" lon="-1.195416">
<ele>1284</ele>
<time>2013-07-13T13:06:43.000Z</time>
</trkpt>
<trkpt lat="42.651452" lon="-1.195489">
<ele>1284</ele>
<time>2013-07-13T13:06:44.000Z</time>
</trkpt>
<trkpt lat="42.651468" lon="-1.195548">
<ele>1284</ele>
<time>2013-07-13T13:06:45.000Z</time>
</trkpt>
<trkpt lat="42.651489" lon="-1.195594">
<ele>1284</ele>
<time>2013-07-13T13:06:46.000Z</time>
</trkpt>
<trkpt lat="42.651512" lon="-1.195649">
<ele>1283</ele>
<time>2013-07-13T13:06:47.000Z</time>
</trkpt>
<trkpt lat="42.651523" lon="-1.195713">
<ele>1283</ele>
<time>2013-07-13T13:06:48.000Z</time>
</trkpt>
<trkpt lat="42.651519" lon="-1.195778">
<ele>1282</ele>
<time>2013-07-13T13:06:49.000Z</time>
</trkpt>
<trkpt lat="42.65151" lon="-1.195839">
<ele>1280</ele>
<time>2013-07-13T13:06:50.000Z</time>
</trkpt>
<trkpt lat="42.651496" lon="-1.195914">
<ele>1279</ele>
<time>2013-07-13T13:06:51.000Z</time>
</trkpt>
<trkpt lat="42.651477" lon="-1.196">
<ele>1279</ele>
<time>2013-07-13T13:06:52.000Z</time>
</trkpt>
<trkpt lat="42.651456" lon="-1.196089">
<ele>1279</ele>
<time>2013-07-13T13:06:53.000Z</time>
</trkpt>
<trkpt lat="42.651433" lon="-1.196172">
<ele>1280</ele>
<time>2013-07-13T13:06:54.000Z</time>
</trkpt>
<trkpt lat="42.651405" lon="-1.196255">
<ele>1280</ele>
<time>2013-07-13T13:06:55.000Z</time>
</trkpt>
<trkpt lat="42.651376" lon="-1.196332">
<ele>1278</ele>
<time>2013-07-13T13:06:56.000Z</time>
</trkpt>
<trkpt lat="42.651347" lon="-1.196405">
<ele>1276</ele>
<time>2013-07-13T13:06:57.000Z</time>
</trkpt>
<trkpt lat="42.651316" lon="-1.196482">
<ele>1274</ele>
<time>2013-07-13T13:06:58.000Z</time>
</trkpt>
<trkpt lat="42.651281" lon="-1.196561">
<ele>1274</ele>
<time>2013-07-13T13:06:59.000Z</time>
</trkpt>
<trkpt lat="42.651226" lon="-1.196637">
<ele>1271</ele>
<time>2013-07-13T13:07:00.000Z</time>
</trkpt>
<trkpt lat="42.65117" lon="-1.196714">
<ele>1269</ele>
<time>2013-07-13T13:07:01.000Z</time>
</trkpt>
<trkpt lat="42.651098" lon="-1.196809">
<ele>1269</ele>
<time>2013-07-13T13:07:02.000Z</time>
</trkpt>
<trkpt lat="42.651026" lon="-1.196893">
<ele>1269</ele>
<time>2013-07-13T13:07:03.000Z</time>
</trkpt>
<trkpt lat="42.650945" lon="-1.196953">
<ele>1269</ele>
<time>2013-07-13T13:07:04.000Z</time>
</trkpt>
<trkpt lat="42.650857" lon="-1.197007">
<ele>1269</ele>
<time>2013-07-13T13:07:05.000Z</time>
</trkpt>
<trkpt lat="42.650753" lon="-1.19706">
<ele>1271</ele>
<time>2013-07-13T13:07:06.000Z</time>
</trkpt>
<trkpt lat="42.650659" lon="-1.197104">
<ele>1271</ele>
<time>2013-07-13T13:07:07.000Z</time>
</trkpt>
<trkpt lat="42.650578" lon="-1.197148">
<ele>1270</ele>
<time>2013-07-13T13:07:08.000Z</time>
</trkpt>
<trkpt lat="42.650497" lon="-1.1972">
<ele>1271</ele>
<time>2013-07-13T13:07:09.000Z</time>
</trkpt>
<trkpt lat="42.650437" lon="-1.197243">
<ele>1269</ele>
<time>2013-07-13T13:07:10.000Z</time>
</trkpt>
<trkpt lat="42.650375" lon="-1.197292">
<ele>1268</ele>
<time>2013-07-13T13:07:11.000Z</time>
</trkpt>
<trkpt lat="42.650306" lon="-1.197357">
<ele>1265</ele>
<time>2013-07-13T13:07:12.000Z</time>
</trkpt>
<trkpt lat="42.650248" lon="-1.197452">
<ele>1264</ele>
<time>2013-07-13T13:07:13.000Z</time>
</trkpt>
<trkpt lat="42.650192" lon="-1.197552">
<ele>1263</ele>
<time>2013-07-13T13:07:14.000Z</time>
</trkpt>
<trkpt lat="42.650152" lon="-1.197632">
<ele>1262</ele>
<time>2013-07-13T13:07:15.000Z</time>
</trkpt>
<trkpt lat="42.650114" lon="-1.197704">
<ele>1262</ele>
<time>2013-07-13T13:07:16.000Z</time>
</trkpt>
<trkpt lat="42.650077" lon="-1.197761">
<ele>1262</ele>
<time>2013-07-13T13:07:17.000Z</time>
</trkpt>
<trkpt lat="42.650036" lon="-1.197817">
<ele>1262</ele>
<time>2013-07-13T13:07:18.000Z</time>
</trkpt>
<trkpt lat="42.649987" lon="-1.197884">
<ele>1260</ele>
<time>2013-07-13T13:07:19.000Z</time>
</trkpt>
<trkpt lat="42.649931" lon="-1.197969">
<ele>1258</ele>
<time>2013-07-13T13:07:20.000Z</time>
</trkpt>
<trkpt lat="42.649873" lon="-1.198065">
<ele>1257</ele>
<time>2013-07-13T13:07:21.000Z</time>
</trkpt>
<trkpt lat="42.649818" lon="-1.198155">
<ele>1258</ele>
<time>2013-07-13T13:07:22.000Z</time>
</trkpt>
<trkpt lat="42.649771" lon="-1.198234">
<ele>1258</ele>
<time>2013-07-13T13:07:23.000Z</time>
</trkpt>
<trkpt lat="42.649732" lon="-1.1983">
<ele>1259</ele>
<time>2013-07-13T13:07:24.000Z</time>
</trkpt>
<trkpt lat="42.649694" lon="-1.198369">
<ele>1259</ele>
<time>2013-07-13T13:07:25.000Z</time>
</trkpt>
<trkpt lat="42.649657" lon="-1.19844">
<ele>1259</ele>
<time>2013-07-13T13:07:26.000Z</time>
</trkpt>
<trkpt lat="42.649619" lon="-1.198513">
<ele>1259</ele>
<time>2013-07-13T13:07:27.000Z</time>
</trkpt>
<trkpt lat="42.649583" lon="-1.198583">
<ele>1260</ele>
<time>2013-07-13T13:07:28.000Z</time>
</trkpt>
<trkpt lat="42.649555" lon="-1.198642">
<ele>1261</ele>
<time>2013-07-13T13:07:29.000Z</time>
</trkpt>
<trkpt lat="42.649526" lon="-1.198708">
<ele>1262</ele>
<time>2013-07-13T13:07:30.000Z</time>
</trkpt>
<trkpt lat="42.6495" lon="-1.19877">
<ele>1264</ele>
<time>2013-07-13T13:07:31.000Z</time>
</trkpt>
<trkpt lat="42.649475" lon="-1.198832">
<ele>1266</ele>
<time>2013-07-13T13:07:32.000Z</time>
</trkpt>
<trkpt lat="42.64945" lon="-1.198888">
<ele>1267</ele>
<time>2013-07-13T13:07:33.000Z</time>
</trkpt>
<trkpt lat="42.649424" lon="-1.198942">
<ele>1268</ele>
<time>2013-07-13T13:07:34.000Z</time>
</trkpt>
<trkpt lat="42.649393" lon="-1.199001">
<ele>1268</ele>
<time>2013-07-13T13:07:35.000Z</time>
</trkpt>
<trkpt lat="42.649363" lon="-1.199059">
<ele>1269</ele>
<time>2013-07-13T13:07:36.000Z</time>
</trkpt>
<trkpt lat="42.64934" lon="-1.199111">
<ele>1270</ele>
<time>2013-07-13T13:07:37.000Z</time>
</trkpt>
<trkpt lat="42.649341" lon="-1.199158">
<ele>1270</ele>
<time>2013-07-13T13:07:38.000Z</time>
</trkpt>
<trkpt lat="42.649358" lon="-1.199192">
<ele>1271</ele>
<time>2013-07-13T13:07:39.000Z</time>
</trkpt>
<trkpt lat="42.64939" lon="-1.199225">
<ele>1271</ele>
<time>2013-07-13T13:07:40.000Z</time>
</trkpt>
<trkpt lat="42.649431" lon="-1.19923">
<ele>1272</ele>
<time>2013-07-13T13:07:41.000Z</time>
</trkpt>
<trkpt lat="42.649474" lon="-1.199211">
<ele>1271</ele>
<time>2013-07-13T13:07:42.000Z</time>
</trkpt>
<trkpt lat="42.649516" lon="-1.199156">
<ele>1271</ele>
<time>2013-07-13T13:07:43.000Z</time>
</trkpt>
<trkpt lat="42.649547" lon="-1.199075">
<ele>1269</ele>
<time>2013-07-13T13:07:44.000Z</time>
</trkpt>
<trkpt lat="42.649569" lon="-1.198961">
<ele>1268</ele>
<time>2013-07-13T13:07:45.000Z</time>
</trkpt>
<trkpt lat="42.64958" lon="-1.198845">
<ele>1266</ele>
<time>2013-07-13T13:07:46.000Z</time>
</trkpt>
<trkpt lat="42.649566" lon="-1.198718">
<ele>1265</ele>
<time>2013-07-13T13:07:47.000Z</time>
</trkpt>
<trkpt lat="42.649553" lon="-1.198588">
<ele>1266</ele>
<time>2013-07-13T13:07:48.000Z</time>
</trkpt>
<trkpt lat="42.649538" lon="-1.198458">
<ele>1267</ele>
<time>2013-07-13T13:07:49.000Z</time>
</trkpt>
<trkpt lat="42.649517" lon="-1.198329">
<ele>1266</ele>
<time>2013-07-13T13:07:50.000Z</time>
</trkpt>
<trkpt lat="42.649494" lon="-1.198199">
<ele>1265</ele>
<time>2013-07-13T13:07:51.000Z</time>
</trkpt>
<trkpt lat="42.649469" lon="-1.198069">
<ele>1264</ele>
<time>2013-07-13T13:07:52.000Z</time>
</trkpt>
<trkpt lat="42.649442" lon="-1.197937">
<ele>1265</ele>
<time>2013-07-13T13:07:53.000Z</time>
</trkpt>
<trkpt lat="42.64942" lon="-1.197812">
<ele>1265</ele>
<time>2013-07-13T13:07:54.000Z</time>
</trkpt>
<trkpt lat="42.649405" lon="-1.197693">
<ele>1266</ele>
<time>2013-07-13T13:07:55.000Z</time>
</trkpt>
<trkpt lat="42.649408" lon="-1.197576">
<ele>1265</ele>
<time>2013-07-13T13:07:56.000Z</time>
</trkpt>
<trkpt lat="42.649411" lon="-1.197451">
<ele>1266</ele>
<time>2013-07-13T13:07:57.000Z</time>
</trkpt>
<trkpt lat="42.649413" lon="-1.197335">
<ele>1265</ele>
<time>2013-07-13T13:07:58.000Z</time>
</trkpt>
<trkpt lat="42.649409" lon="-1.197217">
<ele>1265</ele>
<time>2013-07-13T13:07:59.000Z</time>
</trkpt>
<trkpt lat="42.649403" lon="-1.197099">
<ele>1266</ele>
<time>2013-07-13T13:08:00.000Z</time>
</trkpt>
<trkpt lat="42.649399" lon="-1.196979">
<ele>1266</ele>
<time>2013-07-13T13:08:01.000Z</time>
</trkpt>
<trkpt lat="42.649418" lon="-1.196882">
<ele>1262</ele>
<time>2013-07-13T13:08:02.000Z</time>
</trkpt>
<trkpt lat="42.64944" lon="-1.19677">
<ele>1260</ele>
<time>2013-07-13T13:08:03.000Z</time>
</trkpt>
<trkpt lat="42.649469" lon="-1.196646">
<ele>1260</ele>
<time>2013-07-13T13:08:04.000Z</time>
</trkpt>
<trkpt lat="42.649499" lon="-1.196514">
<ele>1259</ele>
<time>2013-07-13T13:08:05.000Z</time>
</trkpt>
<trkpt lat="42.649528" lon="-1.196383">
<ele>1259</ele>
<time>2013-07-13T13:08:06.000Z</time>
</trkpt>
<trkpt lat="42.649553" lon="-1.196254">
<ele>1260</ele>
<time>2013-07-13T13:08:07.000Z</time>
</trkpt>
<trkpt lat="42.649572" lon="-1.196125">
<ele>1262</ele>
<time>2013-07-13T13:08:08.000Z</time>
</trkpt>
<trkpt lat="42.649589" lon="-1.196006">
<ele>1264</ele>
<time>2013-07-13T13:08:09.000Z</time>
</trkpt>
<trkpt lat="42.649605" lon="-1.1959">
<ele>1265</ele>
<time>2013-07-13T13:08:10.000Z</time>
</trkpt>
<trkpt lat="42.649624" lon="-1.195797">
<ele>1267</ele>
<time>2013-07-13T13:08:11.000Z</time>
</trkpt>
<trkpt lat="42.649656" lon="-1.19568">
<ele>1268</ele>
<time>2013-07-13T13:08:12.000Z</time>
</trkpt>
<trkpt lat="42.649708" lon="-1.195579">
<ele>1269</ele>
<time>2013-07-13T13:08:13.000Z</time>
</trkpt>
<trkpt lat="42.649763" lon="-1.195512">
<ele>1270</ele>
<time>2013-07-13T13:08:14.000Z</time>
</trkpt>
<trkpt lat="42.649802" lon="-1.195474">
<ele>1271</ele>
<time>2013-07-13T13:08:15.000Z</time>
</trkpt>
<trkpt lat="42.649846" lon="-1.19546">
<ele>1271</ele>
<time>2013-07-13T13:08:16.000Z</time>
</trkpt>
<trkpt lat="42.649882" lon="-1.195479">
<ele>1270</ele>
<time>2013-07-13T13:08:17.000Z</time>
</trkpt>
<trkpt lat="42.649894" lon="-1.195546">
<ele>1273</ele>
<time>2013-07-13T13:08:18.000Z</time>
</trkpt>
<trkpt lat="42.649838" lon="-1.195624">
<ele>1271</ele>
<time>2013-07-13T13:08:19.000Z</time>
</trkpt>
<trkpt lat="42.649751" lon="-1.195709">
<ele>1272</ele>
<time>2013-07-13T13:08:20.000Z</time>
</trkpt>
<trkpt lat="42.649666" lon="-1.195776">
<ele>1277</ele>
<time>2013-07-13T13:08:21.000Z</time>
</trkpt>
<trkpt lat="42.649603" lon="-1.195823">
<ele>1278</ele>
<time>2013-07-13T13:08:22.000Z</time>
</trkpt>
<trkpt lat="42.649547" lon="-1.195864">
<ele>1277</ele>
<time>2013-07-13T13:08:23.000Z</time>
</trkpt>
<trkpt lat="42.649505" lon="-1.195899">
<ele>1276</ele>
<time>2013-07-13T13:08:24.000Z</time>
</trkpt>
<trkpt lat="42.64946" lon="-1.195943">
<ele>1274</ele>
<time>2013-07-13T13:08:25.000Z</time>
</trkpt>
<trkpt lat="42.649407" lon="-1.195994">
<ele>1275</ele>
<time>2013-07-13T13:08:26.000Z</time>
</trkpt>
<trkpt lat="42.649356" lon="-1.196043">
<ele>1276</ele>
<time>2013-07-13T13:08:27.000Z</time>
</trkpt>
<trkpt lat="42.649306" lon="-1.196089">
<ele>1278</ele>
<time>2013-07-13T13:08:28.000Z</time>
</trkpt>
<trkpt lat="42.649258" lon="-1.19613">
<ele>1280</ele>
<time>2013-07-13T13:08:29.000Z</time>
</trkpt>
<trkpt lat="42.649195" lon="-1.196152">
<ele>1281</ele>
<time>2013-07-13T13:08:30.000Z</time>
</trkpt>
<trkpt lat="42.649118" lon="-1.196174">
<ele>1282</ele>
<time>2013-07-13T13:08:31.000Z</time>
</trkpt>
<trkpt lat="42.649034" lon="-1.196196">
<ele>1283</ele>
<time>2013-07-13T13:08:32.000Z</time>
</trkpt>
<trkpt lat="42.648956" lon="-1.196218">
<ele>1284</ele>
<time>2013-07-13T13:08:33.000Z</time>
</trkpt>
<trkpt lat="42.648888" lon="-1.196245">
<ele>1285</ele>
<time>2013-07-13T13:08:34.000Z</time>
</trkpt>
<trkpt lat="42.648828" lon="-1.196278">
<ele>1286</ele>
<time>2013-07-13T13:08:35.000Z</time>
</trkpt>
<trkpt lat="42.648794" lon="-1.196323">
<ele>1286</ele>
<time>2013-07-13T13:08:36.000Z</time>
</trkpt>
<trkpt lat="42.64878" lon="-1.196367">
<ele>1287</ele>
<time>2013-07-13T13:08:37.000Z</time>
</trkpt>
<trkpt lat="42.648791" lon="-1.196413">
<ele>1287</ele>
<time>2013-07-13T13:08:38.000Z</time>
</trkpt>
<trkpt lat="42.648827" lon="-1.196438">
<ele>1287</ele>
<time>2013-07-13T13:08:39.000Z</time>
</trkpt>
<trkpt lat="42.648873" lon="-1.196426">
<ele>1287</ele>
<time>2013-07-13T13:08:40.000Z</time>
</trkpt>
<trkpt lat="42.648924" lon="-1.196369">
<ele>1287</ele>
<time>2013-07-13T13:08:41.000Z</time>
</trkpt>
<trkpt lat="42.648964" lon="-1.19628">
<ele>1286</ele>
<time>2013-07-13T13:08:42.000Z</time>
</trkpt>
<trkpt lat="42.649004" lon="-1.196173">
<ele>1286</ele>
<time>2013-07-13T13:08:43.000Z</time>
</trkpt>
<trkpt lat="42.649018" lon="-1.196064">
<ele>1286</ele>
<time>2013-07-13T13:08:44.000Z</time>
</trkpt>
<trkpt lat="42.649027" lon="-1.19596">
<ele>1284</ele>
<time>2013-07-13T13:08:45.000Z</time>
</trkpt>
<trkpt lat="42.649033" lon="-1.195857">
<ele>1285</ele>
<time>2013-07-13T13:08:46.000Z</time>
</trkpt>
<trkpt lat="42.649035" lon="-1.195745">
<ele>1285</ele>
<time>2013-07-13T13:08:47.000Z</time>
</trkpt>
<trkpt lat="42.649035" lon="-1.195619">
<ele>1284</ele>
<time>2013-07-13T13:08:48.000Z</time>
</trkpt>
<trkpt lat="42.649032" lon="-1.195486">
<ele>1284</ele>
<time>2013-07-13T13:08:49.000Z</time>
</trkpt>
<trkpt lat="42.649024" lon="-1.195356">
<ele>1286</ele>
<time>2013-07-13T13:08:50.000Z</time>
</trkpt>
<trkpt lat="42.64901" lon="-1.195241">
<ele>1286</ele>
<time>2013-07-13T13:08:51.000Z</time>
</trkpt>
<trkpt lat="42.648992" lon="-1.195123">
<ele>1286</ele>
<time>2013-07-13T13:08:52.000Z</time>
</trkpt>
<trkpt lat="42.648976" lon="-1.195001">
<ele>1287</ele>
<time>2013-07-13T13:08:53.000Z</time>
</trkpt>
<trkpt lat="42.648963" lon="-1.194874">
<ele>1288</ele>
<time>2013-07-13T13:08:54.000Z</time>
</trkpt>
<trkpt lat="42.648951" lon="-1.194736">
<ele>1289</ele>
<time>2013-07-13T13:08:55.000Z</time>
</trkpt>
<trkpt lat="42.648944" lon="-1.194612">
<ele>1289</ele>
<time>2013-07-13T13:08:56.000Z</time>
</trkpt>
<trkpt lat="42.648943" lon="-1.194491">
<ele>1290</ele>
<time>2013-07-13T13:08:57.000Z</time>
</trkpt>
<trkpt lat="42.648947" lon="-1.194377">
<ele>1290</ele>
<time>2013-07-13T13:08:58.000Z</time>
</trkpt>
<trkpt lat="42.648958" lon="-1.194269">
<ele>1290</ele>
<time>2013-07-13T13:08:59.000Z</time>
</trkpt>
<trkpt lat="42.648988" lon="-1.194167">
<ele>1291</ele>
<time>2013-07-13T13:09:00.000Z</time>
</trkpt>
<trkpt lat="42.649031" lon="-1.194081">
<ele>1291</ele>
<time>2013-07-13T13:09:01.000Z</time>
</trkpt>
<trkpt lat="42.649083" lon="-1.193992">
<ele>1290</ele>
<time>2013-07-13T13:09:02.000Z</time>
</trkpt>
<trkpt lat="42.649139" lon="-1.19391">
<ele>1290</ele>
<time>2013-07-13T13:09:03.000Z</time>
</trkpt>
<trkpt lat="42.649191" lon="-1.193839">
<ele>1291</ele>
<time>2013-07-13T13:09:04.000Z</time>
</trkpt>
<trkpt lat="42.64923" lon="-1.193776">
<ele>1292</ele>
<time>2013-07-13T13:09:05.000Z</time>
</trkpt>
<trkpt lat="42.649264" lon="-1.193713">
<ele>1292</ele>
<time>2013-07-13T13:09:06.000Z</time>
</trkpt>
<trkpt lat="42.6493" lon="-1.193644">
<ele>1292</ele>
<time>2013-07-13T13:09:07.000Z</time>
</trkpt>
<trkpt lat="42.649341" lon="-1.193573">
<ele>1292</ele>
<time>2013-07-13T13:09:08.000Z</time>
</trkpt>
<trkpt lat="42.649388" lon="-1.193493">
<ele>1291</ele>
<time>2013-07-13T13:09:09.000Z</time>
</trkpt>
<trkpt lat="42.649437" lon="-1.193406">
<ele>1291</ele>
<time>2013-07-13T13:09:10.000Z</time>
</trkpt>
<trkpt lat="42.649481" lon="-1.193312">
<ele>1291</ele>
<time>2013-07-13T13:09:11.000Z</time>
</trkpt>
<trkpt lat="42.649508" lon="-1.19321">
<ele>1291</ele>
<time>2013-07-13T13:09:12.000Z</time>
</trkpt>
<trkpt lat="42.649533" lon="-1.193108">
<ele>1291</ele>
<time>2013-07-13T13:09:13.000Z</time>
</trkpt>
<trkpt lat="42.649556" lon="-1.193008">
<ele>1291</ele>
<time>2013-07-13T13:09:14.000Z</time>
</trkpt>
<trkpt lat="42.649579" lon="-1.192909">
<ele>1291</ele>
<time>2013-07-13T13:09:15.000Z</time>
</trkpt>
<trkpt lat="42.649606" lon="-1.19282">
<ele>1291</ele>
<time>2013-07-13T13:09:16.000Z</time>
</trkpt>
<trkpt lat="42.649648" lon="-1.192754">
<ele>1291</ele>
<time>2013-07-13T13:09:17.000Z</time>
</trkpt>
<trkpt lat="42.649694" lon="-1.192708">
<ele>1291</ele>
<time>2013-07-13T13:09:18.000Z</time>
</trkpt>
<trkpt lat="42.649742" lon="-1.192681">
<ele>1290</ele>
<time>2013-07-13T13:09:19.000Z</time>
</trkpt>
<trkpt lat="42.649795" lon="-1.192674">
<ele>1287</ele>
<time>2013-07-13T13:09:20.000Z</time>
</trkpt>
<trkpt lat="42.649831" lon="-1.192687">
<ele>1290</ele>
<time>2013-07-13T13:09:21.000Z</time>
</trkpt>
<trkpt lat="42.649866" lon="-1.192713">
<ele>1292</ele>
<time>2013-07-13T13:09:22.000Z</time>
</trkpt>
<trkpt lat="42.649888" lon="-1.192742">
<ele>1291</ele>
<time>2013-07-13T13:09:23.000Z</time>
</trkpt>
<trkpt lat="42.649911" lon="-1.192779">
<ele>1289</ele>
<time>2013-07-13T13:09:24.000Z</time>
</trkpt>
<trkpt lat="42.649941" lon="-1.192818">
<ele>1286</ele>
<time>2013-07-13T13:09:25.000Z</time>
</trkpt>
<trkpt lat="42.649981" lon="-1.192863">
<ele>1282</ele>
<time>2013-07-13T13:09:26.000Z</time>
</trkpt>
<trkpt lat="42.650016" lon="-1.192929">
<ele>1280</ele>
<time>2013-07-13T13:09:27.000Z</time>
</trkpt>
<trkpt lat="42.650035" lon="-1.193009">
<ele>1275</ele>
<time>2013-07-13T13:09:28.000Z</time>
</trkpt>
<trkpt lat="42.650033" lon="-1.193097">
<ele>1267</ele>
<time>2013-07-13T13:09:29.000Z</time>
</trkpt>
<trkpt lat="42.65001" lon="-1.193172">
<ele>1270</ele>
<time>2013-07-13T13:09:30.000Z</time>
</trkpt>
<trkpt lat="42.649972" lon="-1.193233">
<ele>1272</ele>
<time>2013-07-13T13:09:31.000Z</time>
</trkpt>
<trkpt lat="42.649932" lon="-1.193294">
<ele>1275</ele>
<time>2013-07-13T13:09:32.000Z</time>
</trkpt>
<trkpt lat="42.649889" lon="-1.193366">
<ele>1276</ele>
<time>2013-07-13T13:09:33.000Z</time>
</trkpt>
<trkpt lat="42.649847" lon="-1.193443">
<ele>1278</ele>
<time>2013-07-13T13:09:34.000Z</time>
</trkpt>
<trkpt lat="42.649811" lon="-1.193525">
<ele>1279</ele>
<time>2013-07-13T13:09:35.000Z</time>
</trkpt>
<trkpt lat="42.649782" lon="-1.193592">
<ele>1282</ele>
<time>2013-07-13T13:09:36.000Z</time>
</trkpt>
<trkpt lat="42.649761" lon="-1.193639">
<ele>1283</ele>
<time>2013-07-13T13:09:37.000Z</time>
</trkpt>
<trkpt lat="42.649742" lon="-1.193685">
<ele>1285</ele>
<time>2013-07-13T13:09:38.000Z</time>
</trkpt>
<trkpt lat="42.649736" lon="-1.193732">
<ele>1284</ele>
<time>2013-07-13T13:09:39.000Z</time>
</trkpt>
<trkpt lat="42.649745" lon="-1.193794">
<ele>1285</ele>
<time>2013-07-13T13:09:40.000Z</time>
</trkpt>
<trkpt lat="42.649758" lon="-1.193867">
<ele>1284</ele>
<time>2013-07-13T13:09:41.000Z</time>
</trkpt>
<trkpt lat="42.649767" lon="-1.193924">
<ele>1283</ele>
<time>2013-07-13T13:09:42.000Z</time>
</trkpt>
<trkpt lat="42.649774" lon="-1.193981">
<ele>1282</ele>
<time>2013-07-13T13:09:43.000Z</time>
</trkpt>
<trkpt lat="42.649758" lon="-1.194038">
<ele>1286</ele>
<time>2013-07-13T13:09:44.000Z</time>
</trkpt>
<trkpt lat="42.649738" lon="-1.194084">
<ele>1289</ele>
<time>2013-07-13T13:09:45.000Z</time>
</trkpt>
<trkpt lat="42.649729" lon="-1.194148">
<ele>1289</ele>
<time>2013-07-13T13:09:46.000Z</time>
</trkpt>
<trkpt lat="42.649732" lon="-1.19421">
<ele>1284</ele>
<time>2013-07-13T13:09:47.000Z</time>
</trkpt>
<trkpt lat="42.649758" lon="-1.194298">
<ele>1281</ele>
<time>2013-07-13T13:09:48.000Z</time>
</trkpt>
<trkpt lat="42.649782" lon="-1.19439">
<ele>1280</ele>
<time>2013-07-13T13:09:49.000Z</time>
</trkpt>
<trkpt lat="42.649791" lon="-1.194476">
<ele>1278</ele>
<time>2013-07-13T13:09:50.000Z</time>
</trkpt>
<trkpt lat="42.649783" lon="-1.194546">
<ele>1278</ele>
<time>2013-07-13T13:09:51.000Z</time>
</trkpt>
<trkpt lat="42.649775" lon="-1.194615">
<ele>1277</ele>
<time>2013-07-13T13:09:52.000Z</time>
</trkpt>
<trkpt lat="42.649766" lon="-1.194688">
<ele>1276</ele>
<time>2013-07-13T13:09:53.000Z</time>
</trkpt>
<trkpt lat="42.649758" lon="-1.194775">
<ele>1273</ele>
<time>2013-07-13T13:09:54.000Z</time>
</trkpt>
<trkpt lat="42.649749" lon="-1.194883">
<ele>1271</ele>
<time>2013-07-13T13:09:55.000Z</time>
</trkpt>
<trkpt lat="42.649738" lon="-1.194982">
<ele>1268</ele>
<time>2013-07-13T13:09:56.000Z</time>
</trkpt>
<trkpt lat="42.649721" lon="-1.195081">
<ele>1268</ele>
<time>2013-07-13T13:09:57.000Z</time>
</trkpt>
<trkpt lat="42.649704" lon="-1.195169">
<ele>1269</ele>
<time>2013-07-13T13:09:58.000Z</time>
</trkpt>
<trkpt lat="42.649688" lon="-1.19525">
<ele>1268</ele>
<time>2013-07-13T13:09:59.000Z</time>
</trkpt>
<trkpt lat="42.649669" lon="-1.195338">
<ele>1266</ele>
<time>2013-07-13T13:10:00.000Z</time>
</trkpt>
<trkpt lat="42.649647" lon="-1.195448">
<ele>1264</ele>
<time>2013-07-13T13:10:01.000Z</time>
</trkpt>
<trkpt lat="42.649626" lon="-1.195562">
<ele>1264</ele>
<time>2013-07-13T13:10:02.000Z</time>
</trkpt>
<trkpt lat="42.649608" lon="-1.195659">
<ele>1265</ele>
<time>2013-07-13T13:10:03.000Z</time>
</trkpt>
<trkpt lat="42.649593" lon="-1.195735">
<ele>1267</ele>
<time>2013-07-13T13:10:04.000Z</time>
</trkpt>
<trkpt lat="42.649584" lon="-1.195786">
<ele>1267</ele>
<time>2013-07-13T13:10:05.000Z</time>
</trkpt>
<trkpt lat="42.64957" lon="-1.195847">
<ele>1268</ele>
<time>2013-07-13T13:10:06.000Z</time>
</trkpt>
<trkpt lat="42.649548" lon="-1.195928">
<ele>1267</ele>
<time>2013-07-13T13:10:07.000Z</time>
</trkpt>
<trkpt lat="42.649523" lon="-1.196027">
<ele>1265</ele>
<time>2013-07-13T13:10:08.000Z</time>
</trkpt>
<trkpt lat="42.649497" lon="-1.196122">
<ele>1268</ele>
<time>2013-07-13T13:10:09.000Z</time>
</trkpt>
<trkpt lat="42.649452" lon="-1.196209">
<ele>1273</ele>
<time>2013-07-13T13:10:10.000Z</time>
</trkpt>
<trkpt lat="42.649411" lon="-1.196277">
<ele>1277</ele>
<time>2013-07-13T13:10:11.000Z</time>
</trkpt>
<trkpt lat="42.649373" lon="-1.196334">
<ele>1280</ele>
<time>2013-07-13T13:10:12.000Z</time>
</trkpt>
<trkpt lat="42.649336" lon="-1.196387">
<ele>1283</ele>
<time>2013-07-13T13:10:13.000Z</time>
</trkpt>
<trkpt lat="42.649301" lon="-1.196435">
<ele>1285</ele>
<time>2013-07-13T13:10:14.000Z</time>
</trkpt>
<trkpt lat="42.649267" lon="-1.196492">
<ele>1286</ele>
<time>2013-07-13T13:10:15.000Z</time>
</trkpt>
<trkpt lat="42.649246" lon="-1.196555">
<ele>1288</ele>
<time>2013-07-13T13:10:16.000Z</time>
</trkpt>
<trkpt lat="42.649232" lon="-1.1966">
<ele>1289</ele>
<time>2013-07-13T13:10:17.000Z</time>
</trkpt>
<trkpt lat="42.64923" lon="-1.196633">
<ele>1289</ele>
<time>2013-07-13T13:10:18.000Z</time>
</trkpt>
<trkpt lat="42.649234" lon="-1.196664">
<ele>1288</ele>
<time>2013-07-13T13:10:19.000Z</time>
</trkpt>
<trkpt lat="42.649251" lon="-1.1967">
<ele>1288</ele>
<time>2013-07-13T13:10:20.000Z</time>
</trkpt>
<trkpt lat="42.649273" lon="-1.196748">
<ele>1288</ele>
<time>2013-07-13T13:10:21.000Z</time>
</trkpt>
<trkpt lat="42.649311" lon="-1.196794">
<ele>1291</ele>
<time>2013-07-13T13:10:22.000Z</time>
</trkpt>
<trkpt lat="42.649356" lon="-1.196808">
<ele>1290</ele>
<time>2013-07-13T13:10:23.000Z</time>
</trkpt>
<trkpt lat="42.649401" lon="-1.196799">
<ele>1291</ele>
<time>2013-07-13T13:10:24.000Z</time>
</trkpt>
<trkpt lat="42.649436" lon="-1.196783">
<ele>1294</ele>
<time>2013-07-13T13:10:25.000Z</time>
</trkpt>
<trkpt lat="42.649464" lon="-1.196789">
<ele>1296</ele>
<time>2013-07-13T13:10:26.000Z</time>
</trkpt>
<trkpt lat="42.649475" lon="-1.1968">
<ele>1292</ele>
<time>2013-07-13T13:10:27.000Z</time>
</trkpt>
<trkpt lat="42.649463" lon="-1.196871">
<ele>1292</ele>
<time>2013-07-13T13:10:28.000Z</time>
</trkpt>
<trkpt lat="42.649414" lon="-1.196963">
<ele>1290</ele>
<time>2013-07-13T13:10:29.000Z</time>
</trkpt>
<trkpt lat="42.649358" lon="-1.197051">
<ele>1291</ele>
<time>2013-07-13T13:10:30.000Z</time>
</trkpt>
<trkpt lat="42.649249" lon="-1.197104">
<ele>1292</ele>
<time>2013-07-13T13:10:31.000Z</time>
</trkpt>
<trkpt lat="42.649142" lon="-1.197145">
<ele>1293</ele>
<time>2013-07-13T13:10:32.000Z</time>
</trkpt>
<trkpt lat="42.649044" lon="-1.197176">
<ele>1293</ele>
<time>2013-07-13T13:10:33.000Z</time>
</trkpt>
<trkpt lat="42.64895" lon="-1.197219">
<ele>1292</ele>
<time>2013-07-13T13:10:34.000Z</time>
</trkpt>
<trkpt lat="42.648882" lon="-1.197264">
<ele>1290</ele>
<time>2013-07-13T13:10:35.000Z</time>
</trkpt>
<trkpt lat="42.648834" lon="-1.197337">
<ele>1288</ele>
<time>2013-07-13T13:10:36.000Z</time>
</trkpt>
<trkpt lat="42.648804" lon="-1.197426">
<ele>1287</ele>
<time>2013-07-13T13:10:37.000Z</time>
</trkpt>
<trkpt lat="42.648783" lon="-1.197514">
<ele>1285</ele>
<time>2013-07-13T13:10:38.000Z</time>
</trkpt>
<trkpt lat="42.64878" lon="-1.197598">
<ele>1284</ele>
<time>2013-07-13T13:10:39.000Z</time>
</trkpt>
<trkpt lat="42.648778" lon="-1.197673">
<ele>1283</ele>
<time>2013-07-13T13:10:40.000Z</time>
</trkpt>
<trkpt lat="42.648777" lon="-1.197747">
<ele>1283</ele>
<time>2013-07-13T13:10:41.000Z</time>
</trkpt>
<trkpt lat="42.648778" lon="-1.197824">
<ele>1281</ele>
<time>2013-07-13T13:10:42.000Z</time>
</trkpt>
<trkpt lat="42.648782" lon="-1.197888">
<ele>1282</ele>
<time>2013-07-13T13:10:43.000Z</time>
</trkpt>
<trkpt lat="42.648785" lon="-1.197959">
<ele>1281</ele>
<time>2013-07-13T13:10:44.000Z</time>
</trkpt>
<trkpt lat="42.648781" lon="-1.198054">
<ele>1276</ele>
<time>2013-07-13T13:10:45.000Z</time>
</trkpt>
<trkpt lat="42.648776" lon="-1.198143">
<ele>1277</ele>
<time>2013-07-13T13:10:46.000Z</time>
</trkpt>
<trkpt lat="42.648773" lon="-1.198219">
<ele>1276</ele>
<time>2013-07-13T13:10:47.000Z</time>
</trkpt>
<trkpt lat="42.648769" lon="-1.198297">
<ele>1275</ele>
<time>2013-07-13T13:10:48.000Z</time>
</trkpt>
<trkpt lat="42.648764" lon="-1.198379">
<ele>1273</ele>
<time>2013-07-13T13:10:49.000Z</time>
</trkpt>
<trkpt lat="42.648757" lon="-1.198463">
<ele>1271</ele>
<time>2013-07-13T13:10:50.000Z</time>
</trkpt>
<trkpt lat="42.648749" lon="-1.198557">
<ele>1273</ele>
<time>2013-07-13T13:10:51.000Z</time>
</trkpt>
<trkpt lat="42.648742" lon="-1.198649">
<ele>1272</ele>
<time>2013-07-13T13:10:52.000Z</time>
</trkpt>
<trkpt lat="42.648735" lon="-1.198743">
<ele>1270</ele>
<time>2013-07-13T13:10:53.000Z</time>
</trkpt>
<trkpt lat="42.64873" lon="-1.198841">
<ele>1268</ele>
<time>2013-07-13T13:10:54.000Z</time>
</trkpt>
<trkpt lat="42.648725" lon="-1.198937">
<ele>1266</ele>
<time>2013-07-13T13:10:55.000Z</time>
</trkpt>
<trkpt lat="42.648725" lon="-1.199038">
<ele>1266</ele>
<time>2013-07-13T13:10:56.000Z</time>
</trkpt>
<trkpt lat="42.648727" lon="-1.199137">
<ele>1266</ele>
<time>2013-07-13T13:10:57.000Z</time>
</trkpt>
<trkpt lat="42.64873" lon="-1.199233">
<ele>1265</ele>
<time>2013-07-13T13:10:58.000Z</time>
</trkpt>
<trkpt lat="42.648734" lon="-1.199325">
<ele>1264</ele>
<time>2013-07-13T13:10:59.000Z</time>
</trkpt>
<trkpt lat="42.64874" lon="-1.199425">
<ele>1264</ele>
<time>2013-07-13T13:11:00.000Z</time>
</trkpt>
<trkpt lat="42.648749" lon="-1.199521">
<ele>1264</ele>
<time>2013-07-13T13:11:01.000Z</time>
</trkpt>
<trkpt lat="42.64876" lon="-1.199607">
<ele>1263</ele>
<time>2013-07-13T13:11:02.000Z</time>
</trkpt>
<trkpt lat="42.648772" lon="-1.199695">
<ele>1262</ele>
<time>2013-07-13T13:11:03.000Z</time>
</trkpt>
<trkpt lat="42.64878" lon="-1.199777">
<ele>1262</ele>
<time>2013-07-13T13:11:04.000Z</time>
</trkpt>
<trkpt lat="42.648787" lon="-1.199865">
<ele>1263</ele>
<time>2013-07-13T13:11:05.000Z</time>
</trkpt>
<trkpt lat="42.648793" lon="-1.199953">
<ele>1261</ele>
<time>2013-07-13T13:11:06.000Z</time>
</trkpt>
<trkpt lat="42.648797" lon="-1.200036">
<ele>1262</ele>
<time>2013-07-13T13:11:07.000Z</time>
</trkpt>
<trkpt lat="42.648802" lon="-1.200118">
<ele>1260</ele>
<time>2013-07-13T13:11:08.000Z</time>
</trkpt>
<trkpt lat="42.648805" lon="-1.2002">
<ele>1260</ele>
<time>2013-07-13T13:11:09.000Z</time>
</trkpt>
<trkpt lat="42.648802" lon="-1.200286">
<ele>1260</ele>
<time>2013-07-13T13:11:10.000Z</time>
</trkpt>
<trkpt lat="42.648793" lon="-1.200365">
<ele>1262</ele>
<time>2013-07-13T13:11:11.000Z</time>
</trkpt>
<trkpt lat="42.648783" lon="-1.200432">
<ele>1264</ele>
<time>2013-07-13T13:11:12.000Z</time>
</trkpt>
<trkpt lat="42.648784" lon="-1.200489">
<ele>1264</ele>
<time>2013-07-13T13:11:13.000Z</time>
</trkpt>
<trkpt lat="42.648789" lon="-1.200551">
<ele>1265</ele>
<time>2013-07-13T13:11:14.000Z</time>
</trkpt>
<trkpt lat="42.648795" lon="-1.200613">
<ele>1262</ele>
<time>2013-07-13T13:11:15.000Z</time>
</trkpt>
<trkpt lat="42.648802" lon="-1.200677">
<ele>1260</ele>
<time>2013-07-13T13:11:16.000Z</time>
</trkpt>
<trkpt lat="42.648807" lon="-1.200743">
<ele>1258</ele>
<time>2013-07-13T13:11:17.000Z</time>
</trkpt>
<trkpt lat="42.64881" lon="-1.200817">
<ele>1258</ele>
<time>2013-07-13T13:11:18.000Z</time>
</trkpt>
<trkpt lat="42.648811" lon="-1.200887">
<ele>1259</ele>
<time>2013-07-13T13:11:19.000Z</time>
</trkpt>
<trkpt lat="42.648808" lon="-1.200965">
<ele>1259</ele>
<time>2013-07-13T13:11:20.000Z</time>
</trkpt>
<trkpt lat="42.648802" lon="-1.201051">
<ele>1258</ele>
<time>2013-07-13T13:11:21.000Z</time>
</trkpt>
<trkpt lat="42.648794" lon="-1.201139">
<ele>1256</ele>
<time>2013-07-13T13:11:22.000Z</time>
</trkpt>
<trkpt lat="42.648784" lon="-1.201223">
<ele>1254</ele>
<time>2013-07-13T13:11:23.000Z</time>
</trkpt>
<trkpt lat="42.648771" lon="-1.201321">
<ele>1254</ele>
<time>2013-07-13T13:11:24.000Z</time>
</trkpt>
<trkpt lat="42.64876" lon="-1.201418">
<ele>1254</ele>
<time>2013-07-13T13:11:25.000Z</time>
</trkpt>
<trkpt lat="42.64875" lon="-1.201509">
<ele>1252</ele>
<time>2013-07-13T13:11:26.000Z</time>
</trkpt>
<trkpt lat="42.648738" lon="-1.201582">
<ele>1249</ele>
<time>2013-07-13T13:11:27.000Z</time>
</trkpt>
<trkpt lat="42.648722" lon="-1.201667">
<ele>1246</ele>
<time>2013-07-13T13:11:28.000Z</time>
</trkpt>
<trkpt lat="42.648708" lon="-1.201751">
<ele>1241</ele>
<time>2013-07-13T13:11:29.000Z</time>
</trkpt>
<trkpt lat="42.648699" lon="-1.20185">
<ele>1238</ele>
<time>2013-07-13T13:11:30.000Z</time>
</trkpt>
<trkpt lat="42.648708" lon="-1.201941">
<ele>1234</ele>
<time>2013-07-13T13:11:31.000Z</time>
</trkpt>
<trkpt lat="42.648715" lon="-1.202024">
<ele>1233</ele>
<time>2013-07-13T13:11:32.000Z</time>
</trkpt>
<trkpt lat="42.648718" lon="-1.202109">
<ele>1232</ele>
<time>2013-07-13T13:11:33.000Z</time>
</trkpt>
<trkpt lat="42.648717" lon="-1.2022">
<ele>1231</ele>
<time>2013-07-13T13:11:34.000Z</time>
</trkpt>
<trkpt lat="42.648715" lon="-1.202289">
<ele>1229</ele>
<time>2013-07-13T13:11:35.000Z</time>
</trkpt>
<trkpt lat="42.648719" lon="-1.20238">
<ele>1227</ele>
<time>2013-07-13T13:11:36.000Z</time>
</trkpt>
<trkpt lat="42.648726" lon="-1.202475">
<ele>1226</ele>
<time>2013-07-13T13:11:37.000Z</time>
</trkpt>
<trkpt lat="42.648737" lon="-1.202573">
<ele>1226</ele>
<time>2013-07-13T13:11:38.000Z</time>
</trkpt>
<trkpt lat="42.648748" lon="-1.202674">
<ele>1224</ele>
<time>2013-07-13T13:11:39.000Z</time>
</trkpt>
<trkpt lat="42.648756" lon="-1.202775">
<ele>1222</ele>
<time>2013-07-13T13:11:40.000Z</time>
</trkpt>
<trkpt lat="42.648759" lon="-1.202864">
<ele>1221</ele>
<time>2013-07-13T13:11:41.000Z</time>
</trkpt>
<trkpt lat="42.648748" lon="-1.202949">
<ele>1219</ele>
<time>2013-07-13T13:11:42.000Z</time>
</trkpt>
<trkpt lat="42.648737" lon="-1.203034">
<ele>1216</ele>
<time>2013-07-13T13:11:43.000Z</time>
</trkpt>
<trkpt lat="42.648729" lon="-1.203129">
<ele>1213</ele>
<time>2013-07-13T13:11:44.000Z</time>
</trkpt>
<trkpt lat="42.648722" lon="-1.203221">
<ele>1211</ele>
<time>2013-07-13T13:11:45.000Z</time>
</trkpt>
<trkpt lat="42.648707" lon="-1.203329">
<ele>1209</ele>
<time>2013-07-13T13:11:46.000Z</time>
</trkpt>
<trkpt lat="42.648688" lon="-1.203441">
<ele>1207</ele>
<time>2013-07-13T13:11:47.000Z</time>
</trkpt>
<trkpt lat="42.648648" lon="-1.203526">
<ele>1216</ele>
<time>2013-07-13T13:11:48.000Z</time>
</trkpt>
<trkpt lat="42.648611" lon="-1.2036">
<ele>1219</ele>
<time>2013-07-13T13:11:49.000Z</time>
</trkpt>
<trkpt lat="42.648577" lon="-1.203665">
<ele>1223</ele>
<time>2013-07-13T13:11:50.000Z</time>
</trkpt>
<trkpt lat="42.648541" lon="-1.203737">
<ele>1229</ele>
<time>2013-07-13T13:11:51.000Z</time>
</trkpt>
<trkpt lat="42.648499" lon="-1.203788">
<ele>1232</ele>
<time>2013-07-13T13:11:52.000Z</time>
</trkpt>
<trkpt lat="42.648448" lon="-1.203847">
<ele>1234</ele>
<time>2013-07-13T13:11:53.000Z</time>
</trkpt>
<trkpt lat="42.648382" lon="-1.203894">
<ele>1235</ele>
<time>2013-07-13T13:11:54.000Z</time>
</trkpt>
<trkpt lat="42.648305" lon="-1.203945">
<ele>1236</ele>
<time>2013-07-13T13:11:55.000Z</time>
</trkpt>
<trkpt lat="42.648209" lon="-1.203999">
<ele>1236</ele>
<time>2013-07-13T13:11:56.000Z</time>
</trkpt>
<trkpt lat="42.648113" lon="-1.20405">
<ele>1237</ele>
<time>2013-07-13T13:11:57.000Z</time>
</trkpt>
<trkpt lat="42.648026" lon="-1.204099">
<ele>1237</ele>
<time>2013-07-13T13:11:58.000Z</time>
</trkpt>
<trkpt lat="42.647956" lon="-1.204147">
<ele>1237</ele>
<time>2013-07-13T13:11:59.000Z</time>
</trkpt>
<trkpt lat="42.647899" lon="-1.204197">
<ele>1238</ele>
<time>2013-07-13T13:12:00.000Z</time>
</trkpt>
<trkpt lat="42.647855" lon="-1.204257">
<ele>1238</ele>
<time>2013-07-13T13:12:01.000Z</time>
</trkpt>
<trkpt lat="42.647811" lon="-1.204322">
<ele>1238</ele>
<time>2013-07-13T13:12:02.000Z</time>
</trkpt>
<trkpt lat="42.647773" lon="-1.204386">
<ele>1238</ele>
<time>2013-07-13T13:12:03.000Z</time>
</trkpt>
<trkpt lat="42.647739" lon="-1.204454">
<ele>1238</ele>
<time>2013-07-13T13:12:04.000Z</time>
</trkpt>
<trkpt lat="42.647708" lon="-1.204526">
<ele>1237</ele>
<time>2013-07-13T13:12:05.000Z</time>
</trkpt>
<trkpt lat="42.647691" lon="-1.204613">
<ele>1239</ele>
<time>2013-07-13T13:12:06.000Z</time>
</trkpt>
<trkpt lat="42.647688" lon="-1.204698">
<ele>1239</ele>
<time>2013-07-13T13:12:07.000Z</time>
</trkpt>
<trkpt lat="42.647682" lon="-1.204772">
<ele>1240</ele>
<time>2013-07-13T13:12:08.000Z</time>
</trkpt>
<trkpt lat="42.647671" lon="-1.204848">
<ele>1243</ele>
<time>2013-07-13T13:12:09.000Z</time>
</trkpt>
<trkpt lat="42.647658" lon="-1.204916">
<ele>1246</ele>
<time>2013-07-13T13:12:10.000Z</time>
</trkpt>
<trkpt lat="42.647647" lon="-1.204975">
<ele>1247</ele>
<time>2013-07-13T13:12:11.000Z</time>
</trkpt>
<trkpt lat="42.64765" lon="-1.205021">
<ele>1248</ele>
<time>2013-07-13T13:12:12.000Z</time>
</trkpt>
<trkpt lat="42.647662" lon="-1.205068">
<ele>1248</ele>
<time>2013-07-13T13:12:13.000Z</time>
</trkpt>
<trkpt lat="42.647687" lon="-1.205111">
<ele>1248</ele>
<time>2013-07-13T13:12:14.000Z</time>
</trkpt>
<trkpt lat="42.647723" lon="-1.205134">
<ele>1248</ele>
<time>2013-07-13T13:12:15.000Z</time>
</trkpt>
<trkpt lat="42.647768" lon="-1.205125">
<ele>1251</ele>
<time>2013-07-13T13:12:16.000Z</time>
</trkpt>
<trkpt lat="42.64781" lon="-1.205068">
<ele>1250</ele>
<time>2013-07-13T13:12:17.000Z</time>
</trkpt>
<trkpt lat="42.64784" lon="-1.204973">
<ele>1248</ele>
<time>2013-07-13T13:12:18.000Z</time>
</trkpt>
<trkpt lat="42.647869" lon="-1.20486">
<ele>1247</ele>
<time>2013-07-13T13:12:19.000Z</time>
</trkpt>
<trkpt lat="42.64789" lon="-1.204751">
<ele>1247</ele>
<time>2013-07-13T13:12:20.000Z</time>
</trkpt>
<trkpt lat="42.64791" lon="-1.204647">
<ele>1247</ele>
<time>2013-07-13T13:12:21.000Z</time>
</trkpt>
<trkpt lat="42.647931" lon="-1.204543">
<ele>1246</ele>
<time>2013-07-13T13:12:22.000Z</time>
</trkpt>
<trkpt lat="42.647953" lon="-1.204432">
<ele>1245</ele>
<time>2013-07-13T13:12:23.000Z</time>
</trkpt>
<trkpt lat="42.647968" lon="-1.20432">
<ele>1244</ele>
<time>2013-07-13T13:12:24.000Z</time>
</trkpt>
<trkpt lat="42.647975" lon="-1.204217">
<ele>1243</ele>
<time>2013-07-13T13:12:25.000Z</time>
</trkpt>
<trkpt lat="42.647979" lon="-1.204106">
<ele>1244</ele>
<time>2013-07-13T13:12:26.000Z</time>
</trkpt>
<trkpt lat="42.647987" lon="-1.204003">
<ele>1242</ele>
<time>2013-07-13T13:12:27.000Z</time>
</trkpt>
<trkpt lat="42.648013" lon="-1.203922">
<ele>1242</ele>
<time>2013-07-13T13:12:28.000Z</time>
</trkpt>
<trkpt lat="42.648052" lon="-1.203868">
<ele>1241</ele>
<time>2013-07-13T13:12:29.000Z</time>
</trkpt>
<trkpt lat="42.648088" lon="-1.203826">
<ele>1241</ele>
<time>2013-07-13T13:12:30.000Z</time>
</trkpt>
<trkpt lat="42.648131" lon="-1.203827">
<ele>1235</ele>
<time>2013-07-13T13:12:31.000Z</time>
</trkpt>
<trkpt lat="42.648175" lon="-1.203844">
<ele>1239</ele>
<time>2013-07-13T13:12:32.000Z</time>
</trkpt>
<trkpt lat="42.648191" lon="-1.203874">
<ele>1235</ele>
<time>2013-07-13T13:12:33.000Z</time>
</trkpt>
<trkpt lat="42.648225" lon="-1.20391">
<ele>1233</ele>
<time>2013-07-13T13:12:34.000Z</time>
</trkpt>
<trkpt lat="42.648259" lon="-1.203965">
<ele>1232</ele>
<time>2013-07-13T13:12:35.000Z</time>
</trkpt>
<trkpt lat="42.64828" lon="-1.204036">
<ele>1231</ele>
<time>2013-07-13T13:12:36.000Z</time>
</trkpt>
<trkpt lat="42.648294" lon="-1.204107">
<ele>1228</ele>
<time>2013-07-13T13:12:37.000Z</time>
</trkpt>
<trkpt lat="42.648282" lon="-1.204172">
<ele>1228</ele>
<time>2013-07-13T13:12:38.000Z</time>
</trkpt>
<trkpt lat="42.648276" lon="-1.204247">
<ele>1230</ele>
<time>2013-07-13T13:12:39.000Z</time>
</trkpt>
<trkpt lat="42.648282" lon="-1.204326">
<ele>1231</ele>
<time>2013-07-13T13:12:40.000Z</time>
</trkpt>
<trkpt lat="42.648285" lon="-1.204405">
<ele>1232</ele>
<time>2013-07-13T13:12:41.000Z</time>
</trkpt>
<trkpt lat="42.648268" lon="-1.204487">
<ele>1232</ele>
<time>2013-07-13T13:12:42.000Z</time>
</trkpt>
<trkpt lat="42.648252" lon="-1.204561">
<ele>1233</ele>
<time>2013-07-13T13:12:43.000Z</time>
</trkpt>
<trkpt lat="42.648236" lon="-1.204639">
<ele>1231</ele>
<time>2013-07-13T13:12:44.000Z</time>
</trkpt>
<trkpt lat="42.648238" lon="-1.204709">
<ele>1231</ele>
<time>2013-07-13T13:12:45.000Z</time>
</trkpt>
<trkpt lat="42.648243" lon="-1.204788">
<ele>1229</ele>
<time>2013-07-13T13:12:46.000Z</time>
</trkpt>
<trkpt lat="42.648246" lon="-1.204876">
<ele>1229</ele>
<time>2013-07-13T13:12:47.000Z</time>
</trkpt>
<trkpt lat="42.648235" lon="-1.204969">
<ele>1229</ele>
<time>2013-07-13T13:12:48.000Z</time>
</trkpt>
<trkpt lat="42.648225" lon="-1.205055">
<ele>1229</ele>
<time>2013-07-13T13:12:49.000Z</time>
</trkpt>
<trkpt lat="42.64822" lon="-1.20514">
<ele>1229</ele>
<time>2013-07-13T13:12:50.000Z</time>
</trkpt>
<trkpt lat="42.64823" lon="-1.205228">
<ele>1229</ele>
<time>2013-07-13T13:12:51.000Z</time>
</trkpt>
<trkpt lat="42.648241" lon="-1.205312">
<ele>1230</ele>
<time>2013-07-13T13:12:52.000Z</time>
</trkpt>
<trkpt lat="42.648251" lon="-1.205399">
<ele>1233</ele>
<time>2013-07-13T13:12:53.000Z</time>
</trkpt>
<trkpt lat="42.648258" lon="-1.205465">
<ele>1234</ele>
<time>2013-07-13T13:12:54.000Z</time>
</trkpt>
<trkpt lat="42.648261" lon="-1.205515">
<ele>1234</ele>
<time>2013-07-13T13:12:55.000Z</time>
</trkpt>
<trkpt lat="42.648265" lon="-1.20557">
<ele>1234</ele>
<time>2013-07-13T13:12:56.000Z</time>
</trkpt>
<trkpt lat="42.648272" lon="-1.205632">
<ele>1233</ele>
<time>2013-07-13T13:12:57.000Z</time>
</trkpt>
<trkpt lat="42.648284" lon="-1.2057">
<ele>1232</ele>
<time>2013-07-13T13:12:58.000Z</time>
</trkpt>
<trkpt lat="42.64831" lon="-1.205777">
<ele>1232</ele>
<time>2013-07-13T13:12:59.000Z</time>
</trkpt>
<trkpt lat="42.64834" lon="-1.205858">
<ele>1231</ele>
<time>2013-07-13T13:13:00.000Z</time>
</trkpt>
<trkpt lat="42.648367" lon="-1.205935">
<ele>1232</ele>
<time>2013-07-13T13:13:01.000Z</time>
</trkpt>
<trkpt lat="42.648389" lon="-1.206006">
<ele>1233</ele>
<time>2013-07-13T13:13:02.000Z</time>
</trkpt>
<trkpt lat="42.648399" lon="-1.206077">
<ele>1234</ele>
<time>2013-07-13T13:13:03.000Z</time>
</trkpt>
<trkpt lat="42.648396" lon="-1.20614">
<ele>1235</ele>
<time>2013-07-13T13:13:04.000Z</time>
</trkpt>
<trkpt lat="42.648377" lon="-1.206205">
<ele>1235</ele>
<time>2013-07-13T13:13:05.000Z</time>
</trkpt>
<trkpt lat="42.648341" lon="-1.206268">
<ele>1235</ele>
<time>2013-07-13T13:13:06.000Z</time>
</trkpt>
<trkpt lat="42.648291" lon="-1.206339">
<ele>1236</ele>
<time>2013-07-13T13:13:07.000Z</time>
</trkpt>
<trkpt lat="42.648223" lon="-1.206376">
<ele>1237</ele>
<time>2013-07-13T13:13:08.000Z</time>
</trkpt>
<trkpt lat="42.64814" lon="-1.206408">
<ele>1240</ele>
<time>2013-07-13T13:13:09.000Z</time>
</trkpt>
<trkpt lat="42.648043" lon="-1.206413">
<ele>1242</ele>
<time>2013-07-13T13:13:10.000Z</time>
</trkpt>
<trkpt lat="42.647948" lon="-1.206424">
<ele>1242</ele>
<time>2013-07-13T13:13:11.000Z</time>
</trkpt>
<trkpt lat="42.647867" lon="-1.206469">
<ele>1240</ele>
<time>2013-07-13T13:13:12.000Z</time>
</trkpt>
<trkpt lat="42.647799" lon="-1.206544">
<ele>1239</ele>
<time>2013-07-13T13:13:13.000Z</time>
</trkpt>
<trkpt lat="42.647737" lon="-1.206627">
<ele>1238</ele>
<time>2013-07-13T13:13:14.000Z</time>
</trkpt>
<trkpt lat="42.647684" lon="-1.206712">
<ele>1238</ele>
<time>2013-07-13T13:13:15.000Z</time>
</trkpt>
<trkpt lat="42.647635" lon="-1.206796">
<ele>1238</ele>
<time>2013-07-13T13:13:16.000Z</time>
</trkpt>
<trkpt lat="42.647613" lon="-1.206892">
<ele>1238</ele>
<time>2013-07-13T13:13:17.000Z</time>
</trkpt>
<trkpt lat="42.647616" lon="-1.206976">
<ele>1238</ele>
<time>2013-07-13T13:13:18.000Z</time>
</trkpt>
<trkpt lat="42.647635" lon="-1.207034">
<ele>1238</ele>
<time>2013-07-13T13:13:19.000Z</time>
</trkpt>
<trkpt lat="42.647659" lon="-1.207066">
<ele>1239</ele>
<time>2013-07-13T13:13:20.000Z</time>
</trkpt>
<trkpt lat="42.647676" lon="-1.207093">
<ele>1241</ele>
<time>2013-07-13T13:13:21.000Z</time>
</trkpt>
<trkpt lat="42.647699" lon="-1.207107">
<ele>1243</ele>
<time>2013-07-13T13:13:22.000Z</time>
</trkpt>
<trkpt lat="42.647731" lon="-1.207104">
<ele>1244</ele>
<time>2013-07-13T13:13:23.000Z</time>
</trkpt>
<trkpt lat="42.647777" lon="-1.207073">
<ele>1243</ele>
<time>2013-07-13T13:13:24.000Z</time>
</trkpt>
<trkpt lat="42.647831" lon="-1.207005">
<ele>1243</ele>
<time>2013-07-13T13:13:25.000Z</time>
</trkpt>
<trkpt lat="42.647876" lon="-1.206899">
<ele>1242</ele>
<time>2013-07-13T13:13:26.000Z</time>
</trkpt>
<trkpt lat="42.647903" lon="-1.206765">
<ele>1241</ele>
<time>2013-07-13T13:13:27.000Z</time>
</trkpt>
<trkpt lat="42.647915" lon="-1.206648">
<ele>1241</ele>
<time>2013-07-13T13:13:28.000Z</time>
</trkpt>
<trkpt lat="42.647904" lon="-1.206539">
<ele>1242</ele>
<time>2013-07-13T13:13:29.000Z</time>
</trkpt>
<trkpt lat="42.647888" lon="-1.20644">
<ele>1242</ele>
<time>2013-07-13T13:13:30.000Z</time>
</trkpt>
<trkpt lat="42.647871" lon="-1.206336">
<ele>1243</ele>
<time>2013-07-13T13:13:31.000Z</time>
</trkpt>
<trkpt lat="42.647847" lon="-1.20622">
<ele>1242</ele>
<time>2013-07-13T13:13:32.000Z</time>
</trkpt>
<trkpt lat="42.647815" lon="-1.206093">
<ele>1242</ele>
<time>2013-07-13T13:13:33.000Z</time>
</trkpt>
<trkpt lat="42.647777" lon="-1.205967">
<ele>1243</ele>
<time>2013-07-13T13:13:34.000Z</time>
</trkpt>
<trkpt lat="42.647733" lon="-1.205852">
<ele>1243</ele>
<time>2013-07-13T13:13:35.000Z</time>
</trkpt>
<trkpt lat="42.647672" lon="-1.205754">
<ele>1244</ele>
<time>2013-07-13T13:13:36.000Z</time>
</trkpt>
<trkpt lat="42.647611" lon="-1.205654">
<ele>1244</ele>
<time>2013-07-13T13:13:37.000Z</time>
</trkpt>
<trkpt lat="42.647557" lon="-1.20555">
<ele>1245</ele>
<time>2013-07-13T13:13:38.000Z</time>
</trkpt>
<trkpt lat="42.647506" lon="-1.205438">
<ele>1246</ele>
<time>2013-07-13T13:13:39.000Z</time>
</trkpt>
<trkpt lat="42.64746" lon="-1.205321">
<ele>1247</ele>
<time>2013-07-13T13:13:40.000Z</time>
</trkpt>
<trkpt lat="42.647424" lon="-1.205208">
<ele>1248</ele>
<time>2013-07-13T13:13:41.000Z</time>
</trkpt>
<trkpt lat="42.647414" lon="-1.205096">
<ele>1249</ele>
<time>2013-07-13T13:13:42.000Z</time>
</trkpt>
<trkpt lat="42.647423" lon="-1.204992">
<ele>1250</ele>
<time>2013-07-13T13:13:43.000Z</time>
</trkpt>
<trkpt lat="42.647448" lon="-1.204905">
<ele>1250</ele>
<time>2013-07-13T13:13:44.000Z</time>
</trkpt>
<trkpt lat="42.647487" lon="-1.204844">
<ele>1250</ele>
<time>2013-07-13T13:13:45.000Z</time>
</trkpt>
<trkpt lat="42.64754" lon="-1.204815">
<ele>1250</ele>
<time>2013-07-13T13:13:46.000Z</time>
</trkpt>
<trkpt lat="42.647591" lon="-1.20482">
<ele>1252</ele>
<time>2013-07-13T13:13:47.000Z</time>
</trkpt>
<trkpt lat="42.647636" lon="-1.204849">
<ele>1254</ele>
<time>2013-07-13T13:13:48.000Z</time>
</trkpt>
<trkpt lat="42.647657" lon="-1.204894">
<ele>1255</ele>
<time>2013-07-13T13:13:49.000Z</time>
</trkpt>
<trkpt lat="42.647656" lon="-1.204948">
<ele>1256</ele>
<time>2013-07-13T13:13:50.000Z</time>
</trkpt>
<trkpt lat="42.647654" lon="-1.205016">
<ele>1258</ele>
<time>2013-07-13T13:13:51.000Z</time>
</trkpt>
<trkpt lat="42.647633" lon="-1.205076">
<ele>1261</ele>
<time>2013-07-13T13:13:52.000Z</time>
</trkpt>
<trkpt lat="42.647589" lon="-1.205134">
<ele>1262</ele>
<time>2013-07-13T13:13:53.000Z</time>
</trkpt>
<trkpt lat="42.647527" lon="-1.205173">
<ele>1264</ele>
<time>2013-07-13T13:13:54.000Z</time>
</trkpt>
<trkpt lat="42.647455" lon="-1.205213">
<ele>1264</ele>
<time>2013-07-13T13:13:55.000Z</time>
</trkpt>
<trkpt lat="42.647378" lon="-1.205257">
<ele>1265</ele>
<time>2013-07-13T13:13:56.000Z</time>
</trkpt>
<trkpt lat="42.647293" lon="-1.2053">
<ele>1266</ele>
<time>2013-07-13T13:13:57.000Z</time>
</trkpt>
<trkpt lat="42.647211" lon="-1.205334">
<ele>1266</ele>
<time>2013-07-13T13:13:58.000Z</time>
</trkpt>
<trkpt lat="42.647125" lon="-1.205368">
<ele>1267</ele>
<time>2013-07-13T13:13:59.000Z</time>
</trkpt>
<trkpt lat="42.647045" lon="-1.205399">
<ele>1268</ele>
<time>2013-07-13T13:14:00.000Z</time>
</trkpt>
<trkpt lat="42.646967" lon="-1.205432">
<ele>1268</ele>
<time>2013-07-13T13:14:01.000Z</time>
</trkpt>
<trkpt lat="42.6469" lon="-1.205494">
<ele>1267</ele>
<time>2013-07-13T13:14:02.000Z</time>
</trkpt>
<trkpt lat="42.646846" lon="-1.205579">
<ele>1267</ele>
<time>2013-07-13T13:14:03.000Z</time>
</trkpt>
<trkpt lat="42.646823" lon="-1.20567">
<ele>1269</ele>
<time>2013-07-13T13:14:04.000Z</time>
</trkpt>
<trkpt lat="42.646833" lon="-1.20573">
<ele>1269</ele>
<time>2013-07-13T13:14:05.000Z</time>
</trkpt>
<trkpt lat="42.646863" lon="-1.205748">
<ele>1268</ele>
<time>2013-07-13T13:14:06.000Z</time>
</trkpt>
<trkpt lat="42.646889" lon="-1.205737">
<ele>1270</ele>
<time>2013-07-13T13:14:07.000Z</time>
</trkpt>
<trkpt lat="42.646914" lon="-1.20569">
<ele>1270</ele>
<time>2013-07-13T13:14:08.000Z</time>
</trkpt>
<trkpt lat="42.646957" lon="-1.205606">
<ele>1269</ele>
<time>2013-07-13T13:14:09.000Z</time>
</trkpt>
<trkpt lat="42.647001" lon="-1.205501">
<ele>1268</ele>
<time>2013-07-13T13:14:10.000Z</time>
</trkpt>
<trkpt lat="42.64702" lon="-1.20539">
<ele>1268</ele>
<time>2013-07-13T13:14:11.000Z</time>
</trkpt>
<trkpt lat="42.647031" lon="-1.205273">
<ele>1266</ele>
<time>2013-07-13T13:14:12.000Z</time>
</trkpt>
<trkpt lat="42.647038" lon="-1.205148">
<ele>1266</ele>
<time>2013-07-13T13:14:13.000Z</time>
</trkpt>
<trkpt lat="42.647042" lon="-1.20502">
<ele>1266</ele>
<time>2013-07-13T13:14:14.000Z</time>
</trkpt>
<trkpt lat="42.647041" lon="-1.204908">
<ele>1267</ele>
<time>2013-07-13T13:14:15.000Z</time>
</trkpt>
<trkpt lat="42.647042" lon="-1.204811">
<ele>1268</ele>
<time>2013-07-13T13:14:16.000Z</time>
</trkpt>
<trkpt lat="42.647049" lon="-1.20473">
<ele>1270</ele>
<time>2013-07-13T13:14:17.000Z</time>
</trkpt>
<trkpt lat="42.64706" lon="-1.204641">
<ele>1272</ele>
<time>2013-07-13T13:14:18.000Z</time>
</trkpt>
<trkpt lat="42.647076" lon="-1.204542">
<ele>1274</ele>
<time>2013-07-13T13:14:19.000Z</time>
</trkpt>
<trkpt lat="42.64709" lon="-1.204454">
<ele>1274</ele>
<time>2013-07-13T13:14:20.000Z</time>
</trkpt>
<trkpt lat="42.647114" lon="-1.204385">
<ele>1274</ele>
<time>2013-07-13T13:14:21.000Z</time>
</trkpt>
<trkpt lat="42.647154" lon="-1.204344">
<ele>1272</ele>
<time>2013-07-13T13:14:22.000Z</time>
</trkpt>
<trkpt lat="42.647197" lon="-1.204334">
<ele>1271</ele>
<time>2013-07-13T13:14:23.000Z</time>
</trkpt>
<trkpt lat="42.647233" lon="-1.204343">
<ele>1271</ele>
<time>2013-07-13T13:14:24.000Z</time>
</trkpt>
<trkpt lat="42.647245" lon="-1.204366">
<ele>1271</ele>
<time>2013-07-13T13:14:25.000Z</time>
</trkpt>
<trkpt lat="42.647251" lon="-1.204414">
<ele>1273</ele>
<time>2013-07-13T13:14:26.000Z</time>
</trkpt>
<trkpt lat="42.647236" lon="-1.204477">
<ele>1274</ele>
<time>2013-07-13T13:14:27.000Z</time>
</trkpt>
<trkpt lat="42.647208" lon="-1.204547">
<ele>1275</ele>
<time>2013-07-13T13:14:28.000Z</time>
</trkpt>
<trkpt lat="42.647159" lon="-1.204594">
<ele>1280</ele>
<time>2013-07-13T13:14:29.000Z</time>
</trkpt>
<trkpt lat="42.647096" lon="-1.204631">
<ele>1282</ele>
<time>2013-07-13T13:14:30.000Z</time>
</trkpt>
<trkpt lat="42.647028" lon="-1.204655">
<ele>1284</ele>
<time>2013-07-13T13:14:31.000Z</time>
</trkpt>
<trkpt lat="42.646942" lon="-1.204647">
<ele>1284</ele>
<time>2013-07-13T13:14:32.000Z</time>
</trkpt>
<trkpt lat="42.646839" lon="-1.204637">
<ele>1284</ele>
<time>2013-07-13T13:14:33.000Z</time>
</trkpt>
<trkpt lat="42.646736" lon="-1.204621">
<ele>1284</ele>
<time>2013-07-13T13:14:34.000Z</time>
</trkpt>
<trkpt lat="42.646636" lon="-1.2046">
<ele>1285</ele>
<time>2013-07-13T13:14:35.000Z</time>
</trkpt>
<trkpt lat="42.64654" lon="-1.204581">
<ele>1286</ele>
<time>2013-07-13T13:14:36.000Z</time>
</trkpt>
<trkpt lat="42.646449" lon="-1.204581">
<ele>1289</ele>
<time>2013-07-13T13:14:37.000Z</time>
</trkpt>
<trkpt lat="42.646373" lon="-1.204612">
<ele>1289</ele>
<time>2013-07-13T13:14:38.000Z</time>
</trkpt>
<trkpt lat="42.646315" lon="-1.204674">
<ele>1289</ele>
<time>2013-07-13T13:14:39.000Z</time>
</trkpt>
<trkpt lat="42.646296" lon="-1.204742">
<ele>1288</ele>
<time>2013-07-13T13:14:40.000Z</time>
</trkpt>
<trkpt lat="42.646313" lon="-1.204789">
<ele>1287</ele>
<time>2013-07-13T13:14:41.000Z</time>
</trkpt>
<trkpt lat="42.646361" lon="-1.204805">
<ele>1286</ele>
<time>2013-07-13T13:14:42.000Z</time>
</trkpt>
<trkpt lat="42.646419" lon="-1.204779">
<ele>1286</ele>
<time>2013-07-13T13:14:43.000Z</time>
</trkpt>
<trkpt lat="42.646474" lon="-1.204744">
<ele>1285</ele>
<time>2013-07-13T13:14:44.000Z</time>
</trkpt>
<trkpt lat="42.646521" lon="-1.204709">
<ele>1287</ele>
<time>2013-07-13T13:14:45.000Z</time>
</trkpt>
<trkpt lat="42.646554" lon="-1.204658">
<ele>1286</ele>
<time>2013-07-13T13:14:46.000Z</time>
</trkpt>
<trkpt lat="42.64659" lon="-1.204594">
<ele>1287</ele>
<time>2013-07-13T13:14:47.000Z</time>
</trkpt>
<trkpt lat="42.646624" lon="-1.204522">
<ele>1288</ele>
<time>2013-07-13T13:14:48.000Z</time>
</trkpt>
<trkpt lat="42.646647" lon="-1.20444">
<ele>1290</ele>
<time>2013-07-13T13:14:49.000Z</time>
</trkpt>
<trkpt lat="42.646669" lon="-1.204354">
<ele>1292</ele>
<time>2013-07-13T13:14:50.000Z</time>
</trkpt>
<trkpt lat="42.646677" lon="-1.204252">
<ele>1293</ele>
<time>2013-07-13T13:14:51.000Z</time>
</trkpt>
<trkpt lat="42.646683" lon="-1.204138">
<ele>1292</ele>
<time>2013-07-13T13:14:52.000Z</time>
</trkpt>
<trkpt lat="42.646684" lon="-1.204018">
<ele>1291</ele>
<time>2013-07-13T13:14:53.000Z</time>
</trkpt>
<trkpt lat="42.646681" lon="-1.203904">
<ele>1291</ele>
<time>2013-07-13T13:14:54.000Z</time>
</trkpt>
<trkpt lat="42.646677" lon="-1.20379">
<ele>1292</ele>
<time>2013-07-13T13:14:55.000Z</time>
</trkpt>
<trkpt lat="42.646668" lon="-1.203663">
<ele>1295</ele>
<time>2013-07-13T13:14:56.000Z</time>
</trkpt>
<trkpt lat="42.646657" lon="-1.203545">
<ele>1297</ele>
<time>2013-07-13T13:14:57.000Z</time>
</trkpt>
<trkpt lat="42.646651" lon="-1.203457">
<ele>1298</ele>
<time>2013-07-13T13:14:58.000Z</time>
</trkpt>
<trkpt lat="42.646652" lon="-1.203385">
<ele>1298</ele>
<time>2013-07-13T13:14:59.000Z</time>
</trkpt>
<trkpt lat="42.646669" lon="-1.203323">
<ele>1298</ele>
<time>2013-07-13T13:15:00.000Z</time>
</trkpt>
<trkpt lat="42.646705" lon="-1.203292">
<ele>1298</ele>
<time>2013-07-13T13:15:01.000Z</time>
</trkpt>
<trkpt lat="42.646743" lon="-1.203301">
<ele>1299</ele>
<time>2013-07-13T13:15:02.000Z</time>
</trkpt>
<trkpt lat="42.646763" lon="-1.20335">
<ele>1298</ele>
<time>2013-07-13T13:15:03.000Z</time>
</trkpt>
<trkpt lat="42.64676" lon="-1.20341">
<ele>1299</ele>
<time>2013-07-13T13:15:04.000Z</time>
</trkpt>
<trkpt lat="42.64675" lon="-1.203487">
<ele>1301</ele>
<time>2013-07-13T13:15:05.000Z</time>
</trkpt>
<trkpt lat="42.646728" lon="-1.20354">
<ele>1303</ele>
<time>2013-07-13T13:15:06.000Z</time>
</trkpt>
<trkpt lat="42.646708" lon="-1.203589">
<ele>1304</ele>
<time>2013-07-13T13:15:07.000Z</time>
</trkpt>
<trkpt lat="42.646683" lon="-1.203634">
<ele>1305</ele>
<time>2013-07-13T13:15:08.000Z</time>
</trkpt>
<trkpt lat="42.646655" lon="-1.203693">
<ele>1307</ele>
<time>2013-07-13T13:15:09.000Z</time>
</trkpt>
<trkpt lat="42.646638" lon="-1.203773">
<ele>1308</ele>
<time>2013-07-13T13:15:10.000Z</time>
</trkpt>
<trkpt lat="42.646622" lon="-1.203847">
<ele>1310</ele>
<time>2013-07-13T13:15:11.000Z</time>
</trkpt>
<trkpt lat="42.646608" lon="-1.203905">
<ele>1312</ele>
<time>2013-07-13T13:15:12.000Z</time>
</trkpt>
<trkpt lat="42.646587" lon="-1.203948">
<ele>1313</ele>
<time>2013-07-13T13:15:13.000Z</time>
</trkpt>
<trkpt lat="42.646569" lon="-1.203989">
<ele>1313</ele>
<time>2013-07-13T13:15:14.000Z</time>
</trkpt>
<trkpt lat="42.646551" lon="-1.204041">
<ele>1313</ele>
<time>2013-07-13T13:15:15.000Z</time>
</trkpt>
<trkpt lat="42.646533" lon="-1.204105">
<ele>1312</ele>
<time>2013-07-13T13:15:16.000Z</time>
</trkpt>
<trkpt lat="42.646517" lon="-1.204175">
<ele>1312</ele>
<time>2013-07-13T13:15:17.000Z</time>
</trkpt>
<trkpt lat="42.646506" lon="-1.204237">
<ele>1312</ele>
<time>2013-07-13T13:15:18.000Z</time>
</trkpt>
<trkpt lat="42.646506" lon="-1.204293">
<ele>1310</ele>
<time>2013-07-13T13:15:19.000Z</time>
</trkpt>
<trkpt lat="42.646515" lon="-1.204331">
<ele>1312</ele>
<time>2013-07-13T13:15:20.000Z</time>
</trkpt>
<trkpt lat="42.646522" lon="-1.204357">
<ele>1314</ele>
<time>2013-07-13T13:15:21.000Z</time>
</trkpt>
<trkpt lat="42.64653" lon="-1.204391">
<ele>1314</ele>
<time>2013-07-13T13:15:22.000Z</time>
</trkpt>
<trkpt lat="42.64655" lon="-1.204419">
<ele>1313</ele>
<time>2013-07-13T13:15:23.000Z</time>
</trkpt>
<trkpt lat="42.646587" lon="-1.204427">
<ele>1313</ele>
<time>2013-07-13T13:15:24.000Z</time>
</trkpt>
<trkpt lat="42.646634" lon="-1.204401">
<ele>1311</ele>
<time>2013-07-13T13:15:25.000Z</time>
</trkpt>
<trkpt lat="42.64668" lon="-1.204348">
<ele>1310</ele>
<time>2013-07-13T13:15:26.000Z</time>
</trkpt>
<trkpt lat="42.64672" lon="-1.204297">
<ele>1310</ele>
<time>2013-07-13T13:15:27.000Z</time>
</trkpt>
<trkpt lat="42.646759" lon="-1.204242">
<ele>1308</ele>
<time>2013-07-13T13:15:28.000Z</time>
</trkpt>
<trkpt lat="42.646792" lon="-1.204188">
<ele>1306</ele>
<time>2013-07-13T13:15:29.000Z</time>
</trkpt>
<trkpt lat="42.646826" lon="-1.204133">
<ele>1305</ele>
<time>2013-07-13T13:15:30.000Z</time>
</trkpt>
<trkpt lat="42.646867" lon="-1.204071">
<ele>1304</ele>
<time>2013-07-13T13:15:31.000Z</time>
</trkpt>
<trkpt lat="42.646914" lon="-1.203995">
<ele>1304</ele>
<time>2013-07-13T13:15:32.000Z</time>
</trkpt>
<trkpt lat="42.646949" lon="-1.203906">
<ele>1303</ele>
<time>2013-07-13T13:15:33.000Z</time>
</trkpt>
<trkpt lat="42.646981" lon="-1.203815">
<ele>1303</ele>
<time>2013-07-13T13:15:34.000Z</time>
</trkpt>
<trkpt lat="42.647012" lon="-1.203726">
<ele>1303</ele>
<time>2013-07-13T13:15:35.000Z</time>
</trkpt>
<trkpt lat="42.647045" lon="-1.20364">
<ele>1305</ele>
<time>2013-07-13T13:15:36.000Z</time>
</trkpt>
<trkpt lat="42.64708" lon="-1.203558">
<ele>1305</ele>
<time>2013-07-13T13:15:37.000Z</time>
</trkpt>
<trkpt lat="42.647119" lon="-1.203484">
<ele>1306</ele>
<time>2013-07-13T13:15:38.000Z</time>
</trkpt>
<trkpt lat="42.647162" lon="-1.203436">
<ele>1306</ele>
<time>2013-07-13T13:15:39.000Z</time>
</trkpt>
<trkpt lat="42.6472" lon="-1.203413">
<ele>1306</ele>
<time>2013-07-13T13:15:40.000Z</time>
</trkpt>
<trkpt lat="42.647229" lon="-1.203407">
<ele>1307</ele>
<time>2013-07-13T13:15:41.000Z</time>
</trkpt>
<trkpt lat="42.647245" lon="-1.203422">
<ele>1307</ele>
<time>2013-07-13T13:15:42.000Z</time>
</trkpt>
<trkpt lat="42.647252" lon="-1.203465">
<ele>1307</ele>
<time>2013-07-13T13:15:43.000Z</time>
</trkpt>
<trkpt lat="42.647245" lon="-1.203516">
<ele>1306</ele>
<time>2013-07-13T13:15:44.000Z</time>
</trkpt>
<trkpt lat="42.647241" lon="-1.203582">
<ele>1305</ele>
<time>2013-07-13T13:15:45.000Z</time>
</trkpt>
<trkpt lat="42.647227" lon="-1.203642">
<ele>1307</ele>
<time>2013-07-13T13:15:46.000Z</time>
</trkpt>
<trkpt lat="42.647214" lon="-1.203703">
<ele>1308</ele>
<time>2013-07-13T13:15:47.000Z</time>
</trkpt>
<trkpt lat="42.6472" lon="-1.203772">
<ele>1309</ele>
<time>2013-07-13T13:15:48.000Z</time>
</trkpt>
<trkpt lat="42.647185" lon="-1.203844">
<ele>1309</ele>
<time>2013-07-13T13:15:49.000Z</time>
</trkpt>
<trkpt lat="42.64717" lon="-1.203913">
<ele>1309</ele>
<time>2013-07-13T13:15:50.000Z</time>
</trkpt>
<trkpt lat="42.647152" lon="-1.204002">
<ele>1302</ele>
<time>2013-07-13T13:15:51.000Z</time>
</trkpt>
<trkpt lat="42.647125" lon="-1.204076">
<ele>1300</ele>
<time>2013-07-13T13:15:52.000Z</time>
</trkpt>
<trkpt lat="42.647098" lon="-1.204134">
<ele>1301</ele>
<time>2013-07-13T13:15:53.000Z</time>
</trkpt>
<trkpt lat="42.647056" lon="-1.204185">
<ele>1299</ele>
<time>2013-07-13T13:15:54.000Z</time>
</trkpt>
<trkpt lat="42.647008" lon="-1.204242">
<ele>1298</ele>
<time>2013-07-13T13:15:55.000Z</time>
</trkpt>
<trkpt lat="42.646957" lon="-1.2043">
<ele>1296</ele>
<time>2013-07-13T13:15:56.000Z</time>
</trkpt>
<trkpt lat="42.646898" lon="-1.204366">
<ele>1296</ele>
<time>2013-07-13T13:15:57.000Z</time>
</trkpt>
<trkpt lat="42.646833" lon="-1.204439">
<ele>1297</ele>
<time>2013-07-13T13:15:58.000Z</time>
</trkpt>
<trkpt lat="42.646777" lon="-1.204506">
<ele>1296</ele>
<time>2013-07-13T13:15:59.000Z</time>
</trkpt>
<trkpt lat="42.64673" lon="-1.204577">
<ele>1296</ele>
<time>2013-07-13T13:16:00.000Z</time>
</trkpt>
<trkpt lat="42.64669" lon="-1.20465">
<ele>1296</ele>
<time>2013-07-13T13:16:01.000Z</time>
</trkpt>
<trkpt lat="42.646656" lon="-1.204724">
<ele>1296</ele>
<time>2013-07-13T13:16:02.000Z</time>
</trkpt>
<trkpt lat="42.646623" lon="-1.2048">
<ele>1296</ele>
<time>2013-07-13T13:16:03.000Z</time>
</trkpt>
<trkpt lat="42.646594" lon="-1.204874">
<ele>1296</ele>
<time>2013-07-13T13:16:04.000Z</time>
</trkpt>
<trkpt lat="42.64657" lon="-1.204953">
<ele>1295</ele>
<time>2013-07-13T13:16:05.000Z</time>
</trkpt>
<trkpt lat="42.646547" lon="-1.205038">
<ele>1294</ele>
<time>2013-07-13T13:16:06.000Z</time>
</trkpt>
<trkpt lat="42.646527" lon="-1.205127">
<ele>1293</ele>
<time>2013-07-13T13:16:07.000Z</time>
</trkpt>
<trkpt lat="42.646509" lon="-1.205218">
<ele>1292</ele>
<time>2013-07-13T13:16:08.000Z</time>
</trkpt>
<trkpt lat="42.646492" lon="-1.205308">
<ele>1292</ele>
<time>2013-07-13T13:16:09.000Z</time>
</trkpt>
<trkpt lat="42.646477" lon="-1.205395">
<ele>1293</ele>
<time>2013-07-13T13:16:10.000Z</time>
</trkpt>
<trkpt lat="42.646464" lon="-1.205482">
<ele>1293</ele>
<time>2013-07-13T13:16:11.000Z</time>
</trkpt>
<trkpt lat="42.646451" lon="-1.205572">
<ele>1293</ele>
<time>2013-07-13T13:16:12.000Z</time>
</trkpt>
<trkpt lat="42.646438" lon="-1.205661">
<ele>1292</ele>
<time>2013-07-13T13:16:13.000Z</time>
</trkpt>
<trkpt lat="42.646427" lon="-1.205743">
<ele>1290</ele>
<time>2013-07-13T13:16:14.000Z</time>
</trkpt>
<trkpt lat="42.64642" lon="-1.205816">
<ele>1289</ele>
<time>2013-07-13T13:16:15.000Z</time>
</trkpt>
<trkpt lat="42.646415" lon="-1.20589">
<ele>1287</ele>
<time>2013-07-13T13:16:16.000Z</time>
</trkpt>
<trkpt lat="42.646411" lon="-1.205975">
<ele>1285</ele>
<time>2013-07-13T13:16:17.000Z</time>
</trkpt>
<trkpt lat="42.64641" lon="-1.206071">
<ele>1283</ele>
<time>2013-07-13T13:16:18.000Z</time>
</trkpt>
<trkpt lat="42.646411" lon="-1.206168">
<ele>1281</ele>
<time>2013-07-13T13:16:19.000Z</time>
</trkpt>
<trkpt lat="42.646419" lon="-1.206256">
<ele>1278</ele>
<time>2013-07-13T13:16:20.000Z</time>
</trkpt>
<trkpt lat="42.646447" lon="-1.20635">
<ele>1276</ele>
<time>2013-07-13T13:16:21.000Z</time>
</trkpt>
<trkpt lat="42.64648" lon="-1.206442">
<ele>1274</ele>
<time>2013-07-13T13:16:22.000Z</time>
</trkpt>
<trkpt lat="42.646504" lon="-1.20654">
<ele>1272</ele>
<time>2013-07-13T13:16:23.000Z</time>
</trkpt>
<trkpt lat="42.646522" lon="-1.206635">
<ele>1271</ele>
<time>2013-07-13T13:16:24.000Z</time>
</trkpt>
<trkpt lat="42.646538" lon="-1.206727">
<ele>1269</ele>
<time>2013-07-13T13:16:25.000Z</time>
</trkpt>
<trkpt lat="42.646554" lon="-1.206819">
<ele>1267</ele>
<time>2013-07-13T13:16:26.000Z</time>
</trkpt>
<trkpt lat="42.646572" lon="-1.206912">
<ele>1261</ele>
<time>2013-07-13T13:16:27.000Z</time>
</trkpt>
<trkpt lat="42.646594" lon="-1.207015">
<ele>1260</ele>
<time>2013-07-13T13:16:28.000Z</time>
</trkpt>
<trkpt lat="42.646615" lon="-1.20713">
<ele>1259</ele>
<time>2013-07-13T13:16:29.000Z</time>
</trkpt>
<trkpt lat="42.646614" lon="-1.207237">
<ele>1258</ele>
<time>2013-07-13T13:16:30.000Z</time>
</trkpt>
<trkpt lat="42.646609" lon="-1.207315">
<ele>1258</ele>
<time>2013-07-13T13:16:31.000Z</time>
</trkpt>
<trkpt lat="42.646605" lon="-1.207366">
<ele>1259</ele>
<time>2013-07-13T13:16:32.000Z</time>
</trkpt>
<trkpt lat="42.646602" lon="-1.207405">
<ele>1258</ele>
<time>2013-07-13T13:16:33.000Z</time>
</trkpt>
<trkpt lat="42.646599" lon="-1.207452">
<ele>1256</ele>
<time>2013-07-13T13:16:34.000Z</time>
</trkpt>
<trkpt lat="42.646601" lon="-1.207521">
<ele>1254</ele>
<time>2013-07-13T13:16:35.000Z</time>
</trkpt>
<trkpt lat="42.646608" lon="-1.207611">
<ele>1250</ele>
<time>2013-07-13T13:16:36.000Z</time>
</trkpt>
<trkpt lat="42.646638" lon="-1.207715">
<ele>1251</ele>
<time>2013-07-13T13:16:37.000Z</time>
</trkpt>
<trkpt lat="42.646666" lon="-1.207788">
<ele>1247</ele>
<time>2013-07-13T13:16:38.000Z</time>
</trkpt>
<trkpt lat="42.646696" lon="-1.207858">
<ele>1246</ele>
<time>2013-07-13T13:16:39.000Z</time>
</trkpt>
<trkpt lat="42.646725" lon="-1.207919">
<ele>1244</ele>
<time>2013-07-13T13:16:40.000Z</time>
</trkpt>
<trkpt lat="42.646765" lon="-1.208003">
<ele>1244</ele>
<time>2013-07-13T13:16:41.000Z</time>
</trkpt>
<trkpt lat="42.646808" lon="-1.208091">
<ele>1243</ele>
<time>2013-07-13T13:16:42.000Z</time>
</trkpt>
<trkpt lat="42.646848" lon="-1.208179">
<ele>1244</ele>
<time>2013-07-13T13:16:43.000Z</time>
</trkpt>
<trkpt lat="42.646888" lon="-1.208267">
<ele>1237</ele>
<time>2013-07-13T13:16:44.000Z</time>
</trkpt>
<trkpt lat="42.646926" lon="-1.208352">
<ele>1234</ele>
<time>2013-07-13T13:16:45.000Z</time>
</trkpt>
<trkpt lat="42.646975" lon="-1.208413">
<ele>1232</ele>
<time>2013-07-13T13:16:46.000Z</time>
</trkpt>
<trkpt lat="42.647016" lon="-1.208455">
<ele>1239</ele>
<time>2013-07-13T13:16:47.000Z</time>
</trkpt>
<trkpt lat="42.64705" lon="-1.208458">
<ele>1239</ele>
<time>2013-07-13T13:16:48.000Z</time>
</trkpt>
<trkpt lat="42.647091" lon="-1.208481">
<ele>1237</ele>
<time>2013-07-13T13:16:49.000Z</time>
</trkpt>
<trkpt lat="42.647143" lon="-1.208517">
<ele>1235</ele>
<time>2013-07-13T13:16:50.000Z</time>
</trkpt>
<trkpt lat="42.647198" lon="-1.208559">
<ele>1236</ele>
<time>2013-07-13T13:16:51.000Z</time>
</trkpt>
<trkpt lat="42.647252" lon="-1.20861">
<ele>1236</ele>
<time>2013-07-13T13:16:52.000Z</time>
</trkpt>
<trkpt lat="42.647291" lon="-1.208688">
<ele>1235</ele>
<time>2013-07-13T13:16:53.000Z</time>
</trkpt>
<trkpt lat="42.647312" lon="-1.208762">
<ele>1234</ele>
<time>2013-07-13T13:16:54.000Z</time>
</trkpt>
<trkpt lat="42.647327" lon="-1.208824">
<ele>1232</ele>
<time>2013-07-13T13:16:55.000Z</time>
</trkpt>
<trkpt lat="42.647339" lon="-1.208892">
<ele>1232</ele>
<time>2013-07-13T13:16:56.000Z</time>
</trkpt>
<trkpt lat="42.647338" lon="-1.208954">
<ele>1233</ele>
<time>2013-07-13T13:16:57.000Z</time>
</trkpt>
<trkpt lat="42.647338" lon="-1.209019">
<ele>1233</ele>
<time>2013-07-13T13:16:58.000Z</time>
</trkpt>
<trkpt lat="42.64734" lon="-1.209073">
<ele>1232</ele>
<time>2013-07-13T13:16:59.000Z</time>
</trkpt>
<trkpt lat="42.647354" lon="-1.209124">
<ele>1232</ele>
<time>2013-07-13T13:17:00.000Z</time>
</trkpt>
<trkpt lat="42.647368" lon="-1.209184">
<ele>1232</ele>
<time>2013-07-13T13:17:01.000Z</time>
</trkpt>
<trkpt lat="42.64735" lon="-1.209235">
<ele>1234</ele>
<time>2013-07-13T13:17:02.000Z</time>
</trkpt>
<trkpt lat="42.64732" lon="-1.209302">
<ele>1236</ele>
<time>2013-07-13T13:17:03.000Z</time>
</trkpt>
<trkpt lat="42.647285" lon="-1.209387">
<ele>1238</ele>
<time>2013-07-13T13:17:04.000Z</time>
</trkpt>
<trkpt lat="42.647255" lon="-1.209461">
<ele>1240</ele>
<time>2013-07-13T13:17:05.000Z</time>
</trkpt>
<trkpt lat="42.647232" lon="-1.209524">
<ele>1241</ele>
<time>2013-07-13T13:17:06.000Z</time>
</trkpt>
<trkpt lat="42.647208" lon="-1.20958">
<ele>1242</ele>
<time>2013-07-13T13:17:07.000Z</time>
</trkpt>
<trkpt lat="42.64717" lon="-1.209624">
<ele>1242</ele>
<time>2013-07-13T13:17:08.000Z</time>
</trkpt>
<trkpt lat="42.647128" lon="-1.209671">
<ele>1243</ele>
<time>2013-07-13T13:17:09.000Z</time>
</trkpt>
<trkpt lat="42.647083" lon="-1.209714">
<ele>1245</ele>
<time>2013-07-13T13:17:10.000Z</time>
</trkpt>
<trkpt lat="42.647054" lon="-1.209762">
<ele>1245</ele>
<time>2013-07-13T13:17:11.000Z</time>
</trkpt>
<trkpt lat="42.647037" lon="-1.209827">
<ele>1247</ele>
<time>2013-07-13T13:17:12.000Z</time>
</trkpt>
<trkpt lat="42.647022" lon="-1.209891">
<ele>1248</ele>
<time>2013-07-13T13:17:13.000Z</time>
</trkpt>
<trkpt lat="42.647001" lon="-1.20997">
<ele>1248</ele>
<time>2013-07-13T13:17:14.000Z</time>
</trkpt>
<trkpt lat="42.646964" lon="-1.210052">
<ele>1248</ele>
<time>2013-07-13T13:17:15.000Z</time>
</trkpt>
<trkpt lat="42.64693" lon="-1.210131">
<ele>1248</ele>
<time>2013-07-13T13:17:16.000Z</time>
</trkpt>
<trkpt lat="42.646902" lon="-1.210177">
<ele>1246</ele>
<time>2013-07-13T13:17:17.000Z</time>
</trkpt>
<trkpt lat="42.646879" lon="-1.210225">
<ele>1245</ele>
<time>2013-07-13T13:17:18.000Z</time>
</trkpt>
<trkpt lat="42.646849" lon="-1.210281">
<ele>1245</ele>
<time>2013-07-13T13:17:19.000Z</time>
</trkpt>
<trkpt lat="42.646813" lon="-1.210355">
<ele>1244</ele>
<time>2013-07-13T13:17:20.000Z</time>
</trkpt>
<trkpt lat="42.646779" lon="-1.210447">
<ele>1243</ele>
<time>2013-07-13T13:17:21.000Z</time>
</trkpt>
<trkpt lat="42.646756" lon="-1.210531">
<ele>1240</ele>
<time>2013-07-13T13:17:22.000Z</time>
</trkpt>
<trkpt lat="42.646739" lon="-1.210606">
<ele>1237</ele>
<time>2013-07-13T13:17:23.000Z</time>
</trkpt>
<trkpt lat="42.646725" lon="-1.210675">
<ele>1234</ele>
<time>2013-07-13T13:17:24.000Z</time>
</trkpt>
<trkpt lat="42.646707" lon="-1.210748">
<ele>1236</ele>
<time>2013-07-13T13:17:25.000Z</time>
</trkpt>
<trkpt lat="42.646691" lon="-1.210828">
<ele>1235</ele>
<time>2013-07-13T13:17:26.000Z</time>
</trkpt>
<trkpt lat="42.646676" lon="-1.210916">
<ele>1234</ele>
<time>2013-07-13T13:17:27.000Z</time>
</trkpt>
<trkpt lat="42.646663" lon="-1.21101">
<ele>1232</ele>
<time>2013-07-13T13:17:28.000Z</time>
</trkpt>
<trkpt lat="42.646653" lon="-1.211111">
<ele>1231</ele>
<time>2013-07-13T13:17:29.000Z</time>
</trkpt>
<trkpt lat="42.646645" lon="-1.211218">
<ele>1233</ele>
<time>2013-07-13T13:17:30.000Z</time>
</trkpt>
<trkpt lat="42.64664" lon="-1.211309">
<ele>1235</ele>
<time>2013-07-13T13:17:31.000Z</time>
</trkpt>
<trkpt lat="42.646634" lon="-1.211388">
<ele>1237</ele>
<time>2013-07-13T13:17:32.000Z</time>
</trkpt>
<trkpt lat="42.646629" lon="-1.211457">
<ele>1236</ele>
<time>2013-07-13T13:17:33.000Z</time>
</trkpt>
<trkpt lat="42.646622" lon="-1.211533">
<ele>1234</ele>
<time>2013-07-13T13:17:34.000Z</time>
</trkpt>
<trkpt lat="42.64661" lon="-1.21162">
<ele>1233</ele>
<time>2013-07-13T13:17:35.000Z</time>
</trkpt>
<trkpt lat="42.646595" lon="-1.21171">
<ele>1231</ele>
<time>2013-07-13T13:17:36.000Z</time>
</trkpt>
<trkpt lat="42.64658" lon="-1.2118">
<ele>1231</ele>
<time>2013-07-13T13:17:37.000Z</time>
</trkpt>
<trkpt lat="42.646572" lon="-1.211878">
<ele>1231</ele>
<time>2013-07-13T13:17:38.000Z</time>
</trkpt>
<trkpt lat="42.646577" lon="-1.211963">
<ele>1230</ele>
<time>2013-07-13T13:17:39.000Z</time>
</trkpt>
<trkpt lat="42.646584" lon="-1.212042">
<ele>1229</ele>
<time>2013-07-13T13:17:40.000Z</time>
</trkpt>
<trkpt lat="42.646594" lon="-1.212138">
<ele>1225</ele>
<time>2013-07-13T13:17:41.000Z</time>
</trkpt>
<trkpt lat="42.646609" lon="-1.212244">
<ele>1223</ele>
<time>2013-07-13T13:17:42.000Z</time>
</trkpt>
<trkpt lat="42.646628" lon="-1.212355">
<ele>1223</ele>
<time>2013-07-13T13:17:43.000Z</time>
</trkpt>
<trkpt lat="42.646653" lon="-1.212475">
<ele>1224</ele>
<time>2013-07-13T13:17:44.000Z</time>
</trkpt>
<trkpt lat="42.646667" lon="-1.212577">
<ele>1225</ele>
<time>2013-07-13T13:17:45.000Z</time>
</trkpt>
<trkpt lat="42.64668" lon="-1.212677">
<ele>1225</ele>
<time>2013-07-13T13:17:46.000Z</time>
</trkpt>
<trkpt lat="42.646676" lon="-1.212759">
<ele>1231</ele>
<time>2013-07-13T13:17:47.000Z</time>
</trkpt>
<trkpt lat="42.646671" lon="-1.212848">
<ele>1228</ele>
<time>2013-07-13T13:17:48.000Z</time>
</trkpt>
<trkpt lat="42.646661" lon="-1.212948">
<ele>1227</ele>
<time>2013-07-13T13:17:49.000Z</time>
</trkpt>
<trkpt lat="42.646654" lon="-1.213055">
<ele>1222</ele>
<time>2013-07-13T13:17:50.000Z</time>
</trkpt>
<trkpt lat="42.646648" lon="-1.213153">
<ele>1207</ele>
<time>2013-07-13T13:17:51.000Z</time>
</trkpt>
<trkpt lat="42.646643" lon="-1.213223">
<ele>1209</ele>
<time>2013-07-13T13:17:52.000Z</time>
</trkpt>
<trkpt lat="42.646633" lon="-1.213305">
<ele>1209</ele>
<time>2013-07-13T13:17:53.000Z</time>
</trkpt>
<trkpt lat="42.646609" lon="-1.213392">
<ele>1208</ele>
<time>2013-07-13T13:17:54.000Z</time>
</trkpt>
<trkpt lat="42.646582" lon="-1.213483">
<ele>1208</ele>
<time>2013-07-13T13:17:55.000Z</time>
</trkpt>
<trkpt lat="42.646553" lon="-1.213569">
<ele>1208</ele>
<time>2013-07-13T13:17:56.000Z</time>
</trkpt>
<trkpt lat="42.646523" lon="-1.213662">
<ele>1208</ele>
<time>2013-07-13T13:17:57.000Z</time>
</trkpt>
<trkpt lat="42.646493" lon="-1.213751">
<ele>1206</ele>
<time>2013-07-13T13:17:58.000Z</time>
</trkpt>
<trkpt lat="42.646464" lon="-1.213845">
<ele>1207</ele>
<time>2013-07-13T13:17:59.000Z</time>
</trkpt>
<trkpt lat="42.646439" lon="-1.213943">
<ele>1206</ele>
<time>2013-07-13T13:18:00.000Z</time>
</trkpt>
<trkpt lat="42.646419" lon="-1.214051">
<ele>1206</ele>
<time>2013-07-13T13:18:01.000Z</time>
</trkpt>
<trkpt lat="42.646402" lon="-1.214172">
<ele>1206</ele>
<time>2013-07-13T13:18:02.000Z</time>
</trkpt>
<trkpt lat="42.646391" lon="-1.214282">
<ele>1206</ele>
<time>2013-07-13T13:18:03.000Z</time>
</trkpt>
<trkpt lat="42.646388" lon="-1.214378">
<ele>1203</ele>
<time>2013-07-13T13:18:04.000Z</time>
</trkpt>
<trkpt lat="42.646399" lon="-1.214479">
<ele>1201</ele>
<time>2013-07-13T13:18:05.000Z</time>
</trkpt>
<trkpt lat="42.646411" lon="-1.21458">
<ele>1200</ele>
<time>2013-07-13T13:18:06.000Z</time>
</trkpt>
<trkpt lat="42.646422" lon="-1.214686">
<ele>1199</ele>
<time>2013-07-13T13:18:07.000Z</time>
</trkpt>
<trkpt lat="42.646432" lon="-1.214804">
<ele>1197</ele>
<time>2013-07-13T13:18:08.000Z</time>
</trkpt>
<trkpt lat="42.646444" lon="-1.214935">
<ele>1196</ele>
<time>2013-07-13T13:18:09.000Z</time>
</trkpt>
<trkpt lat="42.646459" lon="-1.215067">
<ele>1195</ele>
<time>2013-07-13T13:18:10.000Z</time>
</trkpt>
<trkpt lat="42.646467" lon="-1.21517">
<ele>1195</ele>
<time>2013-07-13T13:18:11.000Z</time>
</trkpt>
<trkpt lat="42.646471" lon="-1.215252">
<ele>1196</ele>
<time>2013-07-13T13:18:12.000Z</time>
</trkpt>
<trkpt lat="42.646472" lon="-1.215313">
<ele>1196</ele>
<time>2013-07-13T13:18:13.000Z</time>
</trkpt>
<trkpt lat="42.646472" lon="-1.215398">
<ele>1196</ele>
<time>2013-07-13T13:18:14.000Z</time>
</trkpt>
<trkpt lat="42.646472" lon="-1.215492">
<ele>1196</ele>
<time>2013-07-13T13:18:15.000Z</time>
</trkpt>
<trkpt lat="42.646471" lon="-1.215593">
<ele>1196</ele>
<time>2013-07-13T13:18:16.000Z</time>
</trkpt>
<trkpt lat="42.646466" lon="-1.2157">
<ele>1194</ele>
<time>2013-07-13T13:18:17.000Z</time>
</trkpt>
<trkpt lat="42.646462" lon="-1.215807">
<ele>1192</ele>
<time>2013-07-13T13:18:18.000Z</time>
</trkpt>
<trkpt lat="42.646459" lon="-1.215909">
<ele>1191</ele>
<time>2013-07-13T13:18:19.000Z</time>
</trkpt>
<trkpt lat="42.646459" lon="-1.216003">
<ele>1189</ele>
<time>2013-07-13T13:18:20.000Z</time>
</trkpt>
<trkpt lat="42.646463" lon="-1.216097">
<ele>1189</ele>
<time>2013-07-13T13:18:21.000Z</time>
</trkpt>
<trkpt lat="42.646469" lon="-1.216193">
<ele>1189</ele>
<time>2013-07-13T13:18:22.000Z</time>
</trkpt>
<trkpt lat="42.646478" lon="-1.216297">
<ele>1189</ele>
<time>2013-07-13T13:18:23.000Z</time>
</trkpt>
<trkpt lat="42.646485" lon="-1.216406">
<ele>1189</ele>
<time>2013-07-13T13:18:24.000Z</time>
</trkpt>
<trkpt lat="42.646487" lon="-1.216522">
<ele>1189</ele>
<time>2013-07-13T13:18:25.000Z</time>
</trkpt>
<trkpt lat="42.646481" lon="-1.216634">
<ele>1189</ele>
<time>2013-07-13T13:18:26.000Z</time>
</trkpt>
<trkpt lat="42.646472" lon="-1.216744">
<ele>1189</ele>
<time>2013-07-13T13:18:27.000Z</time>
</trkpt>
<trkpt lat="42.646465" lon="-1.216844">
<ele>1188</ele>
<time>2013-07-13T13:18:28.000Z</time>
</trkpt>
<trkpt lat="42.646468" lon="-1.21694">
<ele>1187</ele>
<time>2013-07-13T13:18:29.000Z</time>
</trkpt>
<trkpt lat="42.646473" lon="-1.217042">
<ele>1186</ele>
<time>2013-07-13T13:18:30.000Z</time>
</trkpt>
<trkpt lat="42.646479" lon="-1.217119">
<ele>1187</ele>
<time>2013-07-13T13:18:31.000Z</time>
</trkpt>
<trkpt lat="42.646469" lon="-1.217175">
<ele>1189</ele>
<time>2013-07-13T13:18:32.000Z</time>
</trkpt>
<trkpt lat="42.646453" lon="-1.217214">
<ele>1191</ele>
<time>2013-07-13T13:18:33.000Z</time>
</trkpt>
<trkpt lat="42.646435" lon="-1.217248">
<ele>1193</ele>
<time>2013-07-13T13:18:34.000Z</time>
</trkpt>
<trkpt lat="42.646426" lon="-1.217289">
<ele>1193</ele>
<time>2013-07-13T13:18:35.000Z</time>
</trkpt>
<trkpt lat="42.646426" lon="-1.217341">
<ele>1195</ele>
<time>2013-07-13T13:18:36.000Z</time>
</trkpt>
<trkpt lat="42.64644" lon="-1.217394">
<ele>1194</ele>
<time>2013-07-13T13:18:37.000Z</time>
</trkpt>
<trkpt lat="42.646458" lon="-1.217458">
<ele>1190</ele>
<time>2013-07-13T13:18:38.000Z</time>
</trkpt>
<trkpt lat="42.646491" lon="-1.217525">
<ele>1190</ele>
<time>2013-07-13T13:18:39.000Z</time>
</trkpt>
<trkpt lat="42.646524" lon="-1.217596">
<ele>1191</ele>
<time>2013-07-13T13:18:40.000Z</time>
</trkpt>
<trkpt lat="42.646548" lon="-1.217658">
<ele>1189</ele>
<time>2013-07-13T13:18:41.000Z</time>
</trkpt>
<trkpt lat="42.64657" lon="-1.217738">
<ele>1187</ele>
<time>2013-07-13T13:18:42.000Z</time>
</trkpt>
<trkpt lat="42.646586" lon="-1.217808">
<ele>1187</ele>
<time>2013-07-13T13:18:43.000Z</time>
</trkpt>
<trkpt lat="42.646598" lon="-1.21787">
<ele>1183</ele>
<time>2013-07-13T13:18:44.000Z</time>
</trkpt>
<trkpt lat="42.64661" lon="-1.21793">
<ele>1182</ele>
<time>2013-07-13T13:18:45.000Z</time>
</trkpt>
<trkpt lat="42.646624" lon="-1.217995">
<ele>1180</ele>
<time>2013-07-13T13:18:46.000Z</time>
</trkpt>
<trkpt lat="42.64664" lon="-1.218056">
<ele>1178</ele>
<time>2013-07-13T13:18:47.000Z</time>
</trkpt>
<trkpt lat="42.646652" lon="-1.218113">
<ele>1178</ele>
<time>2013-07-13T13:18:48.000Z</time>
</trkpt>
<trkpt lat="42.64666" lon="-1.218164">
<ele>1173</ele>
<time>2013-07-13T13:18:49.000Z</time>
</trkpt>
<trkpt lat="42.646666" lon="-1.218225">
<ele>1171</ele>
<time>2013-07-13T13:18:50.000Z</time>
</trkpt>
<trkpt lat="42.646673" lon="-1.218294">
<ele>1167</ele>
<time>2013-07-13T13:18:51.000Z</time>
</trkpt>
<trkpt lat="42.646676" lon="-1.218376">
<ele>1167</ele>
<time>2013-07-13T13:18:52.000Z</time>
</trkpt>
<trkpt lat="42.646676" lon="-1.218457">
<ele>1168</ele>
<time>2013-07-13T13:18:53.000Z</time>
</trkpt>
<trkpt lat="42.646655" lon="-1.218529">
<ele>1168</ele>
<time>2013-07-13T13:18:54.000Z</time>
</trkpt>
<trkpt lat="42.646636" lon="-1.218598">
<ele>1168</ele>
<time>2013-07-13T13:18:55.000Z</time>
</trkpt>
<trkpt lat="42.646622" lon="-1.218659">
<ele>1168</ele>
<time>2013-07-13T13:18:56.000Z</time>
</trkpt>
<trkpt lat="42.646609" lon="-1.218726">
<ele>1170</ele>
<time>2013-07-13T13:18:57.000Z</time>
</trkpt>
<trkpt lat="42.646596" lon="-1.218797">
<ele>1173</ele>
<time>2013-07-13T13:18:58.000Z</time>
</trkpt>
<trkpt lat="42.646578" lon="-1.218877">
<ele>1176</ele>
<time>2013-07-13T13:18:59.000Z</time>
</trkpt>
<trkpt lat="42.64656" lon="-1.218959">
<ele>1178</ele>
<time>2013-07-13T13:19:00.000Z</time>
</trkpt>
<trkpt lat="42.646542" lon="-1.219035">
<ele>1180</ele>
<time>2013-07-13T13:19:01.000Z</time>
</trkpt>
<trkpt lat="42.646522" lon="-1.219106">
<ele>1179</ele>
<time>2013-07-13T13:19:02.000Z</time>
</trkpt>
<trkpt lat="42.6465" lon="-1.219185">
<ele>1180</ele>
<time>2013-07-13T13:19:03.000Z</time>
</trkpt>
<trkpt lat="42.646474" lon="-1.219277">
<ele>1180</ele>
<time>2013-07-13T13:19:04.000Z</time>
</trkpt>
<trkpt lat="42.646456" lon="-1.219358">
<ele>1178</ele>
<time>2013-07-13T13:19:05.000Z</time>
</trkpt>
<trkpt lat="42.646444" lon="-1.219437">
<ele>1178</ele>
<time>2013-07-13T13:19:06.000Z</time>
</trkpt>
<trkpt lat="42.646451" lon="-1.219516">
<ele>1176</ele>
<time>2013-07-13T13:19:07.000Z</time>
</trkpt>
<trkpt lat="42.646461" lon="-1.219588">
<ele>1175</ele>
<time>2013-07-13T13:19:08.000Z</time>
</trkpt>
<trkpt lat="42.646474" lon="-1.219656">
<ele>1172</ele>
<time>2013-07-13T13:19:09.000Z</time>
</trkpt>
<trkpt lat="42.646486" lon="-1.219728">
<ele>1169</ele>
<time>2013-07-13T13:19:10.000Z</time>
</trkpt>
<trkpt lat="42.646497" lon="-1.219815">
<ele>1168</ele>
<time>2013-07-13T13:19:11.000Z</time>
</trkpt>
<trkpt lat="42.64651" lon="-1.219891">
<ele>1167</ele>
<time>2013-07-13T13:19:12.000Z</time>
</trkpt>
<trkpt lat="42.646522" lon="-1.219944">
<ele>1170</ele>
<time>2013-07-13T13:19:13.000Z</time>
</trkpt>
<trkpt lat="42.64653" lon="-1.219982">
<ele>1169</ele>
<time>2013-07-13T13:19:14.000Z</time>
</trkpt>
<trkpt lat="42.646536" lon="-1.220029">
<ele>1168</ele>
<time>2013-07-13T13:19:15.000Z</time>
</trkpt>
<trkpt lat="42.646531" lon="-1.220086">
<ele>1167</ele>
<time>2013-07-13T13:19:16.000Z</time>
</trkpt>
<trkpt lat="42.646524" lon="-1.220162">
<ele>1165</ele>
<time>2013-07-13T13:19:17.000Z</time>
</trkpt>
<trkpt lat="42.646521" lon="-1.220242">
<ele>1163</ele>
<time>2013-07-13T13:19:18.000Z</time>
</trkpt>
<trkpt lat="42.646538" lon="-1.220319">
<ele>1161</ele>
<time>2013-07-13T13:19:19.000Z</time>
</trkpt>
<trkpt lat="42.646565" lon="-1.220386">
<ele>1160</ele>
<time>2013-07-13T13:19:20.000Z</time>
</trkpt>
<trkpt lat="42.646588" lon="-1.220446">
<ele>1158</ele>
<time>2013-07-13T13:19:21.000Z</time>
</trkpt>
<trkpt lat="42.646601" lon="-1.220512">
<ele>1158</ele>
<time>2013-07-13T13:19:22.000Z</time>
</trkpt>
<trkpt lat="42.646609" lon="-1.220576">
<ele>1158</ele>
<time>2013-07-13T13:19:23.000Z</time>
</trkpt>
<trkpt lat="42.646617" lon="-1.220646">
<ele>1156</ele>
<time>2013-07-13T13:19:24.000Z</time>
</trkpt>
<trkpt lat="42.646641" lon="-1.220724">
<ele>1154</ele>
<time>2013-07-13T13:19:25.000Z</time>
</trkpt>
<trkpt lat="42.64667" lon="-1.220803">
<ele>1152</ele>
<time>2013-07-13T13:19:26.000Z</time>
</trkpt>
<trkpt lat="42.646698" lon="-1.220876">
<ele>1152</ele>
<time>2013-07-13T13:19:27.000Z</time>
</trkpt>
<trkpt lat="42.646722" lon="-1.220945">
<ele>1151</ele>
<time>2013-07-13T13:19:28.000Z</time>
</trkpt>
<trkpt lat="42.646739" lon="-1.221008">
<ele>1151</ele>
<time>2013-07-13T13:19:29.000Z</time>
</trkpt>
<trkpt lat="42.646754" lon="-1.221076">
<ele>1150</ele>
<time>2013-07-13T13:19:30.000Z</time>
</trkpt>
<trkpt lat="42.646769" lon="-1.221145">
<ele>1149</ele>
<time>2013-07-13T13:19:31.000Z</time>
</trkpt>
<trkpt lat="42.646788" lon="-1.221222">
<ele>1148</ele>
<time>2013-07-13T13:19:32.000Z</time>
</trkpt>
<trkpt lat="42.646807" lon="-1.221304">
<ele>1147</ele>
<time>2013-07-13T13:19:33.000Z</time>
</trkpt>
<trkpt lat="42.646824" lon="-1.221383">
<ele>1146</ele>
<time>2013-07-13T13:19:34.000Z</time>
</trkpt>
<trkpt lat="42.646838" lon="-1.221452">
<ele>1144</ele>
<time>2013-07-13T13:19:35.000Z</time>
</trkpt>
<trkpt lat="42.64685" lon="-1.221522">
<ele>1143</ele>
<time>2013-07-13T13:19:36.000Z</time>
</trkpt>
<trkpt lat="42.646859" lon="-1.221596">
<ele>1142</ele>
<time>2013-07-13T13:19:37.000Z</time>
</trkpt>
<trkpt lat="42.646867" lon="-1.221671">
<ele>1141</ele>
<time>2013-07-13T13:19:38.000Z</time>
</trkpt>
<trkpt lat="42.646878" lon="-1.221743">
<ele>1140</ele>
<time>2013-07-13T13:19:39.000Z</time>
</trkpt>
<trkpt lat="42.646901" lon="-1.221809">
<ele>1140</ele>
<time>2013-07-13T13:19:40.000Z</time>
</trkpt>
<trkpt lat="42.646925" lon="-1.221878">
<ele>1140</ele>
<time>2013-07-13T13:19:41.000Z</time>
</trkpt>
<trkpt lat="42.646952" lon="-1.221955">
<ele>1138</ele>
<time>2013-07-13T13:19:42.000Z</time>
</trkpt>
<trkpt lat="42.64698" lon="-1.222032">
<ele>1136</ele>
<time>2013-07-13T13:19:43.000Z</time>
</trkpt>
<trkpt lat="42.647005" lon="-1.222112">
<ele>1135</ele>
<time>2013-07-13T13:19:44.000Z</time>
</trkpt>
<trkpt lat="42.647018" lon="-1.222209">
<ele>1134</ele>
<time>2013-07-13T13:19:45.000Z</time>
</trkpt>
<trkpt lat="42.647029" lon="-1.222318">
<ele>1134</ele>
<time>2013-07-13T13:19:46.000Z</time>
</trkpt>
<trkpt lat="42.647034" lon="-1.222411">
<ele>1130</ele>
<time>2013-07-13T13:19:47.000Z</time>
</trkpt>
<trkpt lat="42.647035" lon="-1.222496">
<ele>1129</ele>
<time>2013-07-13T13:19:48.000Z</time>
</trkpt>
<trkpt lat="42.64703" lon="-1.22257">
<ele>1130</ele>
<time>2013-07-13T13:19:49.000Z</time>
</trkpt>
<trkpt lat="42.647025" lon="-1.222646">
<ele>1129</ele>
<time>2013-07-13T13:19:50.000Z</time>
</trkpt>
<trkpt lat="42.64702" lon="-1.222729">
<ele>1128</ele>
<time>2013-07-13T13:19:51.000Z</time>
</trkpt>
<trkpt lat="42.647011" lon="-1.222823">
<ele>1128</ele>
<time>2013-07-13T13:19:52.000Z</time>
</trkpt>
<trkpt lat="42.647001" lon="-1.22292">
<ele>1127</ele>
<time>2013-07-13T13:19:53.000Z</time>
</trkpt>
<trkpt lat="42.646988" lon="-1.223019">
<ele>1126</ele>
<time>2013-07-13T13:19:54.000Z</time>
</trkpt>
<trkpt lat="42.646973" lon="-1.223115">
<ele>1128</ele>
<time>2013-07-13T13:19:55.000Z</time>
</trkpt>
<trkpt lat="42.646957" lon="-1.223206">
<ele>1127</ele>
<time>2013-07-13T13:19:56.000Z</time>
</trkpt>
<trkpt lat="42.646941" lon="-1.22329">
<ele>1128</ele>
<time>2013-07-13T13:19:57.000Z</time>
</trkpt>
<trkpt lat="42.646925" lon="-1.223369">
<ele>1131</ele>
<time>2013-07-13T13:19:58.000Z</time>
</trkpt>
<trkpt lat="42.646914" lon="-1.223434">
<ele>1130</ele>
<time>2013-07-13T13:19:59.000Z</time>
</trkpt>
<trkpt lat="42.646902" lon="-1.223493">
<ele>1131</ele>
<time>2013-07-13T13:20:00.000Z</time>
</trkpt>
<trkpt lat="42.646888" lon="-1.223555">
<ele>1132</ele>
<time>2013-07-13T13:20:01.000Z</time>
</trkpt>
<trkpt lat="42.646872" lon="-1.223623">
<ele>1131</ele>
<time>2013-07-13T13:20:02.000Z</time>
</trkpt>
<trkpt lat="42.646854" lon="-1.22371">
<ele>1132</ele>
<time>2013-07-13T13:20:03.000Z</time>
</trkpt>
<trkpt lat="42.646835" lon="-1.223803">
<ele>1131</ele>
<time>2013-07-13T13:20:04.000Z</time>
</trkpt>
<trkpt lat="42.646817" lon="-1.223894">
<ele>1132</ele>
<time>2013-07-13T13:20:05.000Z</time>
</trkpt>
<trkpt lat="42.646797" lon="-1.223976">
<ele>1134</ele>
<time>2013-07-13T13:20:06.000Z</time>
</trkpt>
<trkpt lat="42.646781" lon="-1.224041">
<ele>1135</ele>
<time>2013-07-13T13:20:07.000Z</time>
</trkpt>
<trkpt lat="42.646763" lon="-1.224111">
<ele>1135</ele>
<time>2013-07-13T13:20:08.000Z</time>
</trkpt>
<trkpt lat="42.646744" lon="-1.224178">
<ele>1133</ele>
<time>2013-07-13T13:20:09.000Z</time>
</trkpt>
<trkpt lat="42.646726" lon="-1.224245">
<ele>1134</ele>
<time>2013-07-13T13:20:10.000Z</time>
</trkpt>
<trkpt lat="42.646712" lon="-1.224304">
<ele>1136</ele>
<time>2013-07-13T13:20:11.000Z</time>
</trkpt>
<trkpt lat="42.646701" lon="-1.224349">
<ele>1136</ele>
<time>2013-07-13T13:20:12.000Z</time>
</trkpt>
<trkpt lat="42.646692" lon="-1.224395">
<ele>1136</ele>
<time>2013-07-13T13:20:13.000Z</time>
</trkpt>
<trkpt lat="42.64669" lon="-1.224459">
<ele>1137</ele>
<time>2013-07-13T13:20:14.000Z</time>
</trkpt>
<trkpt lat="42.646691" lon="-1.22453">
<ele>1138</ele>
<time>2013-07-13T13:20:15.000Z</time>
</trkpt>
<trkpt lat="42.646695" lon="-1.224604">
<ele>1139</ele>
<time>2013-07-13T13:20:16.000Z</time>
</trkpt>
<trkpt lat="42.646701" lon="-1.224659">
<ele>1140</ele>
<time>2013-07-13T13:20:17.000Z</time>
</trkpt>
<trkpt lat="42.646707" lon="-1.224696">
<ele>1140</ele>
<time>2013-07-13T13:20:18.000Z</time>
</trkpt>
<trkpt lat="42.646711" lon="-1.224725">
<ele>1141</ele>
<time>2013-07-13T13:20:19.000Z</time>
</trkpt>
<trkpt lat="42.646715" lon="-1.224756">
<ele>1142</ele>
<time>2013-07-13T13:20:20.000Z</time>
</trkpt>
<trkpt lat="42.646727" lon="-1.224794">
<ele>1143</ele>
<time>2013-07-13T13:20:21.000Z</time>
</trkpt>
<trkpt lat="42.646753" lon="-1.224825">
<ele>1143</ele>
<time>2013-07-13T13:20:22.000Z</time>
</trkpt>
<trkpt lat="42.646792" lon="-1.224843">
<ele>1144</ele>
<time>2013-07-13T13:20:23.000Z</time>
</trkpt>
<trkpt lat="42.646836" lon="-1.224838">
<ele>1143</ele>
<time>2013-07-13T13:20:24.000Z</time>
</trkpt>
<trkpt lat="42.646879" lon="-1.224812">
<ele>1145</ele>
<time>2013-07-13T13:20:25.000Z</time>
</trkpt>
<trkpt lat="42.646922" lon="-1.224759">
<ele>1146</ele>
<time>2013-07-13T13:20:26.000Z</time>
</trkpt>
<trkpt lat="42.646953" lon="-1.224693">
<ele>1146</ele>
<time>2013-07-13T13:20:27.000Z</time>
</trkpt>
<trkpt lat="42.646987" lon="-1.224603">
<ele>1146</ele>
<time>2013-07-13T13:20:28.000Z</time>
</trkpt>
<trkpt lat="42.647004" lon="-1.224489">
<ele>1146</ele>
<time>2013-07-13T13:20:29.000Z</time>
</trkpt>
<trkpt lat="42.647018" lon="-1.224393">
<ele>1145</ele>
<time>2013-07-13T13:20:30.000Z</time>
</trkpt>
<trkpt lat="42.647043" lon="-1.224326">
<ele>1145</ele>
<time>2013-07-13T13:20:31.000Z</time>
</trkpt>
<trkpt lat="42.647062" lon="-1.224279">
<ele>1144</ele>
<time>2013-07-13T13:20:32.000Z</time>
</trkpt>
<trkpt lat="42.647098" lon="-1.224271">
<ele>1144</ele>
<time>2013-07-13T13:20:33.000Z</time>
</trkpt>
<trkpt lat="42.647129" lon="-1.224312">
<ele>1143</ele>
<time>2013-07-13T13:20:35.000Z</time>
</trkpt>
<trkpt lat="42.64712" lon="-1.224349">
<ele>1143</ele>
<time>2013-07-13T13:20:36.000Z</time>
</trkpt>
<trkpt lat="42.647117" lon="-1.224383">
<ele>1144</ele>
<time>2013-07-13T13:20:37.000Z</time>
</trkpt>
<trkpt lat="42.647117" lon="-1.224422">
<ele>1143</ele>
<time>2013-07-13T13:20:38.000Z</time>
</trkpt>
<trkpt lat="42.647113" lon="-1.224463">
<ele>1141</ele>
<time>2013-07-13T13:20:39.000Z</time>
</trkpt>
<trkpt lat="42.647107" lon="-1.224533">
<ele>1142</ele>
<time>2013-07-13T13:20:40.000Z</time>
</trkpt>
<trkpt lat="42.647098" lon="-1.224625">
<ele>1143</ele>
<time>2013-07-13T13:20:41.000Z</time>
</trkpt>
<trkpt lat="42.647076" lon="-1.224714">
<ele>1144</ele>
<time>2013-07-13T13:20:42.000Z</time>
</trkpt>
<trkpt lat="42.647051" lon="-1.224795">
<ele>1145</ele>
<time>2013-07-13T13:20:43.000Z</time>
</trkpt>
<trkpt lat="42.647018" lon="-1.224859">
<ele>1142</ele>
<time>2013-07-13T13:20:44.000Z</time>
</trkpt>
<trkpt lat="42.646986" lon="-1.224924">
<ele>1142</ele>
<time>2013-07-13T13:20:45.000Z</time>
</trkpt>
<trkpt lat="42.646956" lon="-1.224991">
<ele>1141</ele>
<time>2013-07-13T13:20:46.000Z</time>
</trkpt>
<trkpt lat="42.646931" lon="-1.225061">
<ele>1141</ele>
<time>2013-07-13T13:20:47.000Z</time>
</trkpt>
<trkpt lat="42.646909" lon="-1.225127">
<ele>1141</ele>
<time>2013-07-13T13:20:48.000Z</time>
</trkpt>
<trkpt lat="42.646884" lon="-1.225193">
<ele>1141</ele>
<time>2013-07-13T13:20:49.000Z</time>
</trkpt>
<trkpt lat="42.646857" lon="-1.225259">
<ele>1140</ele>
<time>2013-07-13T13:20:50.000Z</time>
</trkpt>
<trkpt lat="42.646824" lon="-1.225329">
<ele>1141</ele>
<time>2013-07-13T13:20:51.000Z</time>
</trkpt>
<trkpt lat="42.646795" lon="-1.225397">
<ele>1141</ele>
<time>2013-07-13T13:20:52.000Z</time>
</trkpt>
<trkpt lat="42.646771" lon="-1.225456">
<ele>1141</ele>
<time>2013-07-13T13:20:53.000Z</time>
</trkpt>
<trkpt lat="42.646753" lon="-1.22551">
<ele>1143</ele>
<time>2013-07-13T13:20:54.000Z</time>
</trkpt>
<trkpt lat="42.646736" lon="-1.225559">
<ele>1144</ele>
<time>2013-07-13T13:20:55.000Z</time>
</trkpt>
<trkpt lat="42.646722" lon="-1.2256">
<ele>1144</ele>
<time>2013-07-13T13:20:56.000Z</time>
</trkpt>
<trkpt lat="42.646703" lon="-1.225643">
<ele>1144</ele>
<time>2013-07-13T13:20:57.000Z</time>
</trkpt>
<trkpt lat="42.646672" lon="-1.225687">
<ele>1145</ele>
<time>2013-07-13T13:20:58.000Z</time>
</trkpt>
<trkpt lat="42.646642" lon="-1.225724">
<ele>1144</ele>
<time>2013-07-13T13:20:59.000Z</time>
</trkpt>
<trkpt lat="42.64661" lon="-1.225763">
<ele>1143</ele>
<time>2013-07-13T13:21:00.000Z</time>
</trkpt>
<trkpt lat="42.646568" lon="-1.225809">
<ele>1143</ele>
<time>2013-07-13T13:21:01.000Z</time>
</trkpt>
<trkpt lat="42.646521" lon="-1.225856">
<ele>1144</ele>
<time>2013-07-13T13:21:02.000Z</time>
</trkpt>
<trkpt lat="42.646462" lon="-1.225892">
<ele>1143</ele>
<time>2013-07-13T13:21:03.000Z</time>
</trkpt>
<trkpt lat="42.646402" lon="-1.22593">
<ele>1142</ele>
<time>2013-07-13T13:21:04.000Z</time>
</trkpt>
<trkpt lat="42.646347" lon="-1.225967">
<ele>1141</ele>
<time>2013-07-13T13:21:05.000Z</time>
</trkpt>
<trkpt lat="42.646294" lon="-1.226004">
<ele>1140</ele>
<time>2013-07-13T13:21:06.000Z</time>
</trkpt>
<trkpt lat="42.646244" lon="-1.226046">
<ele>1139</ele>
<time>2013-07-13T13:21:07.000Z</time>
</trkpt>
<trkpt lat="42.646197" lon="-1.226093">
<ele>1138</ele>
<time>2013-07-13T13:21:08.000Z</time>
</trkpt>
<trkpt lat="42.64616" lon="-1.22615">
<ele>1137</ele>
<time>2013-07-13T13:21:09.000Z</time>
</trkpt>
<trkpt lat="42.646129" lon="-1.226202">
<ele>1137</ele>
<time>2013-07-13T13:21:10.000Z</time>
</trkpt>
<trkpt lat="42.646115" lon="-1.226247">
<ele>1137</ele>
<time>2013-07-13T13:21:11.000Z</time>
</trkpt>
<trkpt lat="42.646122" lon="-1.226287">
<ele>1137</ele>
<time>2013-07-13T13:21:12.000Z</time>
</trkpt>
<trkpt lat="42.646141" lon="-1.226326">
<ele>1136</ele>
<time>2013-07-13T13:21:13.000Z</time>
</trkpt>
<trkpt lat="42.646166" lon="-1.226387">
<ele>1135</ele>
<time>2013-07-13T13:21:14.000Z</time>
</trkpt>
<trkpt lat="42.646175" lon="-1.226465">
<ele>1135</ele>
<time>2013-07-13T13:21:15.000Z</time>
</trkpt>
<trkpt lat="42.646183" lon="-1.226535">
<ele>1134</ele>
<time>2013-07-13T13:21:16.000Z</time>
</trkpt>
<trkpt lat="42.646203" lon="-1.226599">
<ele>1134</ele>
<time>2013-07-13T13:21:17.000Z</time>
</trkpt>
<trkpt lat="42.646238" lon="-1.226653">
<ele>1134</ele>
<time>2013-07-13T13:21:18.000Z</time>
</trkpt>
<trkpt lat="42.646274" lon="-1.226703">
<ele>1134</ele>
<time>2013-07-13T13:21:19.000Z</time>
</trkpt>
<trkpt lat="42.646306" lon="-1.226751">
<ele>1133</ele>
<time>2013-07-13T13:21:20.000Z</time>
</trkpt>
<trkpt lat="42.646335" lon="-1.226807">
<ele>1131</ele>
<time>2013-07-13T13:21:21.000Z</time>
</trkpt>
<trkpt lat="42.646351" lon="-1.226873">
<ele>1131</ele>
<time>2013-07-13T13:21:22.000Z</time>
</trkpt>
<trkpt lat="42.646366" lon="-1.226938">
<ele>1133</ele>
<time>2013-07-13T13:21:23.000Z</time>
</trkpt>
<trkpt lat="42.646378" lon="-1.226998">
<ele>1132</ele>
<time>2013-07-13T13:21:24.000Z</time>
</trkpt>
<trkpt lat="42.646389" lon="-1.227067">
<ele>1132</ele>
<time>2013-07-13T13:21:25.000Z</time>
</trkpt>
<trkpt lat="42.646402" lon="-1.227148">
<ele>1132</ele>
<time>2013-07-13T13:21:26.000Z</time>
</trkpt>
<trkpt lat="42.646415" lon="-1.227231">
<ele>1133</ele>
<time>2013-07-13T13:21:27.000Z</time>
</trkpt>
<trkpt lat="42.64643" lon="-1.227305">
<ele>1131</ele>
<time>2013-07-13T13:21:28.000Z</time>
</trkpt>
<trkpt lat="42.646445" lon="-1.227379">
<ele>1134</ele>
<time>2013-07-13T13:21:29.000Z</time>
</trkpt>
<trkpt lat="42.646461" lon="-1.227446">
<ele>1137</ele>
<time>2013-07-13T13:21:30.000Z</time>
</trkpt>
<trkpt lat="42.646474" lon="-1.227489">
<ele>1141</ele>
<time>2013-07-13T13:21:31.000Z</time>
</trkpt>
<trkpt lat="42.646484" lon="-1.227518">
<ele>1143</ele>
<time>2013-07-13T13:21:32.000Z</time>
</trkpt>
<trkpt lat="42.646501" lon="-1.227558">
<ele>1145</ele>
<time>2013-07-13T13:21:33.000Z</time>
</trkpt>
<trkpt lat="42.646516" lon="-1.227601">
<ele>1146</ele>
<time>2013-07-13T13:21:34.000Z</time>
</trkpt>
<trkpt lat="42.646521" lon="-1.227666">
<ele>1148</ele>
<time>2013-07-13T13:21:35.000Z</time>
</trkpt>
<trkpt lat="42.646502" lon="-1.227753">
<ele>1151</ele>
<time>2013-07-13T13:21:36.000Z</time>
</trkpt>
<trkpt lat="42.646448" lon="-1.227849">
<ele>1154</ele>
<time>2013-07-13T13:21:37.000Z</time>
</trkpt>
<trkpt lat="42.646366" lon="-1.227927">
<ele>1156</ele>
<time>2013-07-13T13:21:38.000Z</time>
</trkpt>
<trkpt lat="42.64626" lon="-1.227964">
<ele>1157</ele>
<time>2013-07-13T13:21:39.000Z</time>
</trkpt>
<trkpt lat="42.646167" lon="-1.227951">
<ele>1162</ele>
<time>2013-07-13T13:21:40.000Z</time>
</trkpt>
<trkpt lat="42.64608" lon="-1.227922">
<ele>1167</ele>
<time>2013-07-13T13:21:41.000Z</time>
</trkpt>
<trkpt lat="42.646002" lon="-1.227878">
<ele>1169</ele>
<time>2013-07-13T13:21:42.000Z</time>
</trkpt>
<trkpt lat="42.645924" lon="-1.22782">
<ele>1171</ele>
<time>2013-07-13T13:21:43.000Z</time>
</trkpt>
<trkpt lat="42.645851" lon="-1.227741">
<ele>1171</ele>
<time>2013-07-13T13:21:44.000Z</time>
</trkpt>
<trkpt lat="42.645777" lon="-1.227648">
<ele>1171</ele>
<time>2013-07-13T13:21:45.000Z</time>
</trkpt>
<trkpt lat="42.645722" lon="-1.227514">
<ele>1172</ele>
<time>2013-07-13T13:21:46.000Z</time>
</trkpt>
<trkpt lat="42.645691" lon="-1.227372">
<ele>1172</ele>
<time>2013-07-13T13:21:47.000Z</time>
</trkpt>
<trkpt lat="42.645691" lon="-1.227228">
<ele>1173</ele>
<time>2013-07-13T13:21:48.000Z</time>
</trkpt>
<trkpt lat="42.645699" lon="-1.227101">
<ele>1174</ele>
<time>2013-07-13T13:21:49.000Z</time>
</trkpt>
<trkpt lat="42.645734" lon="-1.226997">
<ele>1176</ele>
<time>2013-07-13T13:21:50.000Z</time>
</trkpt>
<trkpt lat="42.645772" lon="-1.226912">
<ele>1179</ele>
<time>2013-07-13T13:21:51.000Z</time>
</trkpt>
<trkpt lat="42.645823" lon="-1.226864">
<ele>1182</ele>
<time>2013-07-13T13:21:52.000Z</time>
</trkpt>
<trkpt lat="42.645871" lon="-1.226822">
<ele>1184</ele>
<time>2013-07-13T13:21:53.000Z</time>
</trkpt>
<trkpt lat="42.645919" lon="-1.226778">
<ele>1186</ele>
<time>2013-07-13T13:21:54.000Z</time>
</trkpt>
<trkpt lat="42.645959" lon="-1.226721">
<ele>1188</ele>
<time>2013-07-13T13:21:55.000Z</time>
</trkpt>
<trkpt lat="42.645999" lon="-1.226664">
<ele>1191</ele>
<time>2013-07-13T13:21:56.000Z</time>
</trkpt>
<trkpt lat="42.646041" lon="-1.226628">
<ele>1194</ele>
<time>2013-07-13T13:21:57.000Z</time>
</trkpt>
<trkpt lat="42.646085" lon="-1.22661">
<ele>1194</ele>
<time>2013-07-13T13:21:58.000Z</time>
</trkpt>
<trkpt lat="42.646125" lon="-1.22662">
<ele>1195</ele>
<time>2013-07-13T13:21:59.000Z</time>
</trkpt>
<trkpt lat="42.646168" lon="-1.226652">
<ele>1195</ele>
<time>2013-07-13T13:22:00.000Z</time>
</trkpt>
<trkpt lat="42.646208" lon="-1.226704">
<ele>1195</ele>
<time>2013-07-13T13:22:01.000Z</time>
</trkpt>
<trkpt lat="42.646243" lon="-1.226761">
<ele>1196</ele>
<time>2013-07-13T13:22:02.000Z</time>
</trkpt>
<trkpt lat="42.64626" lon="-1.226829">
<ele>1199</ele>
<time>2013-07-13T13:22:03.000Z</time>
</trkpt>
<trkpt lat="42.646249" lon="-1.226887">
<ele>1201</ele>
<time>2013-07-13T13:22:04.000Z</time>
</trkpt>
<trkpt lat="42.646226" lon="-1.226917">
<ele>1203</ele>
<time>2013-07-13T13:22:05.000Z</time>
</trkpt>
<trkpt lat="42.646204" lon="-1.226943">
<ele>1204</ele>
<time>2013-07-13T13:22:06.000Z</time>
</trkpt>
<trkpt lat="42.646184" lon="-1.226982">
<ele>1204</ele>
<time>2013-07-13T13:22:07.000Z</time>
</trkpt>
<trkpt lat="42.646162" lon="-1.227029">
<ele>1203</ele>
<time>2013-07-13T13:22:08.000Z</time>
</trkpt>
<trkpt lat="42.646123" lon="-1.227078">
<ele>1203</ele>
<time>2013-07-13T13:22:09.000Z</time>
</trkpt>
<trkpt lat="42.64606" lon="-1.227124">
<ele>1203</ele>
<time>2013-07-13T13:22:10.000Z</time>
</trkpt>
<trkpt lat="42.645982" lon="-1.227146">
<ele>1203</ele>
<time>2013-07-13T13:22:11.000Z</time>
</trkpt>
<trkpt lat="42.64589" lon="-1.227142">
<ele>1205</ele>
<time>2013-07-13T13:22:12.000Z</time>
</trkpt>
<trkpt lat="42.645799" lon="-1.227099">
<ele>1206</ele>
<time>2013-07-13T13:22:13.000Z</time>
</trkpt>
<trkpt lat="42.64571" lon="-1.227045">
<ele>1209</ele>
<time>2013-07-13T13:22:14.000Z</time>
</trkpt>
<trkpt lat="42.645619" lon="-1.226977">
<ele>1210</ele>
<time>2013-07-13T13:22:15.000Z</time>
</trkpt>
<trkpt lat="42.645533" lon="-1.226903">
<ele>1211</ele>
<time>2013-07-13T13:22:16.000Z</time>
</trkpt>
<trkpt lat="42.645463" lon="-1.226806">
<ele>1212</ele>
<time>2013-07-13T13:22:17.000Z</time>
</trkpt>
<trkpt lat="42.6454" lon="-1.226707">
<ele>1213</ele>
<time>2013-07-13T13:22:18.000Z</time>
</trkpt>
<trkpt lat="42.645343" lon="-1.226608">
<ele>1214</ele>
<time>2013-07-13T13:22:19.000Z</time>
</trkpt>
<trkpt lat="42.645286" lon="-1.226497">
<ele>1216</ele>
<time>2013-07-13T13:22:20.000Z</time>
</trkpt>
<trkpt lat="42.645224" lon="-1.226371">
<ele>1218</ele>
<time>2013-07-13T13:22:21.000Z</time>
</trkpt>
<trkpt lat="42.645162" lon="-1.226239">
<ele>1219</ele>
<time>2013-07-13T13:22:22.000Z</time>
</trkpt>
<trkpt lat="42.645136" lon="-1.226103">
<ele>1222</ele>
<time>2013-07-13T13:22:23.000Z</time>
</trkpt>
<trkpt lat="42.645116" lon="-1.225988">
<ele>1223</ele>
<time>2013-07-13T13:22:24.000Z</time>
</trkpt>
<trkpt lat="42.645102" lon="-1.225882">
<ele>1224</ele>
<time>2013-07-13T13:22:25.000Z</time>
</trkpt>
<trkpt lat="42.64511" lon="-1.225777">
<ele>1225</ele>
<time>2013-07-13T13:22:26.000Z</time>
</trkpt>
<trkpt lat="42.645136" lon="-1.22569">
<ele>1223</ele>
<time>2013-07-13T13:22:27.000Z</time>
</trkpt>
<trkpt lat="42.645182" lon="-1.225618">
<ele>1223</ele>
<time>2013-07-13T13:22:28.000Z</time>
</trkpt>
<trkpt lat="42.64524" lon="-1.225565">
<ele>1224</ele>
<time>2013-07-13T13:22:29.000Z</time>
</trkpt>
<trkpt lat="42.645299" lon="-1.225548">
<ele>1225</ele>
<time>2013-07-13T13:22:30.000Z</time>
</trkpt>
<trkpt lat="42.645346" lon="-1.225575">
<ele>1226</ele>
<time>2013-07-13T13:22:31.000Z</time>
</trkpt>
<trkpt lat="42.645398" lon="-1.2256">
<ele>1229</ele>
<time>2013-07-13T13:22:32.000Z</time>
</trkpt>
<trkpt lat="42.645449" lon="-1.225628">
<ele>1233</ele>
<time>2013-07-13T13:22:33.000Z</time>
</trkpt>
<trkpt lat="42.64549" lon="-1.225656">
<ele>1235</ele>
<time>2013-07-13T13:22:34.000Z</time>
</trkpt>
<trkpt lat="42.645524" lon="-1.225674">
<ele>1237</ele>
<time>2013-07-13T13:22:35.000Z</time>
</trkpt>
<trkpt lat="42.645562" lon="-1.225705">
<ele>1239</ele>
<time>2013-07-13T13:22:37.000Z</time>
</trkpt>
<trkpt lat="42.645574" lon="-1.225744">
<ele>1242</ele>
<time>2013-07-13T13:22:38.000Z</time>
</trkpt>
<trkpt lat="42.645579" lon="-1.225782">
<ele>1242</ele>
<time>2013-07-13T13:22:39.000Z</time>
</trkpt>
<trkpt lat="42.645581" lon="-1.225818">
<ele>1243</ele>
<time>2013-07-13T13:22:40.000Z</time>
</trkpt>
<trkpt lat="42.645572" lon="-1.225858">
<ele>1246</ele>
<time>2013-07-13T13:22:41.000Z</time>
</trkpt>
<trkpt lat="42.645544" lon="-1.225901">
<ele>1251</ele>
<time>2013-07-13T13:22:42.000Z</time>
</trkpt>
<trkpt lat="42.645504" lon="-1.225929">
<ele>1255</ele>
<time>2013-07-13T13:22:43.000Z</time>
</trkpt>
<trkpt lat="42.645462" lon="-1.225947">
<ele>1256</ele>
<time>2013-07-13T13:22:44.000Z</time>
</trkpt>
<trkpt lat="42.645405" lon="-1.225949">
<ele>1257</ele>
<time>2013-07-13T13:22:45.000Z</time>
</trkpt>
<trkpt lat="42.645326" lon="-1.225941">
<ele>1259</ele>
<time>2013-07-13T13:22:46.000Z</time>
</trkpt>
<trkpt lat="42.645235" lon="-1.225893">
<ele>1260</ele>
<time>2013-07-13T13:22:47.000Z</time>
</trkpt>
<trkpt lat="42.645148" lon="-1.225809">
<ele>1260</ele>
<time>2013-07-13T13:22:48.000Z</time>
</trkpt>
<trkpt lat="42.645064" lon="-1.22572">
<ele>1261</ele>
<time>2013-07-13T13:22:49.000Z</time>
</trkpt>
<trkpt lat="42.645" lon="-1.225608">
<ele>1262</ele>
<time>2013-07-13T13:22:50.000Z</time>
</trkpt>
<trkpt lat="42.644938" lon="-1.225487">
<ele>1263</ele>
<time>2013-07-13T13:22:51.000Z</time>
</trkpt>
<trkpt lat="42.644904" lon="-1.225355">
<ele>1264</ele>
<time>2013-07-13T13:22:52.000Z</time>
</trkpt>
<trkpt lat="42.644879" lon="-1.22523">
<ele>1265</ele>
<time>2013-07-13T13:22:53.000Z</time>
</trkpt>
<trkpt lat="42.644878" lon="-1.225108">
<ele>1266</ele>
<time>2013-07-13T13:22:54.000Z</time>
</trkpt>
<trkpt lat="42.644883" lon="-1.224984">
<ele>1268</ele>
<time>2013-07-13T13:22:55.000Z</time>
</trkpt>
<trkpt lat="42.644896" lon="-1.224886">
<ele>1269</ele>
<time>2013-07-13T13:22:56.000Z</time>
</trkpt>
<trkpt lat="42.64491" lon="-1.224775">
<ele>1270</ele>
<time>2013-07-13T13:22:57.000Z</time>
</trkpt>
<trkpt lat="42.644929" lon="-1.224676">
<ele>1273</ele>
<time>2013-07-13T13:22:58.000Z</time>
</trkpt>
<trkpt lat="42.644951" lon="-1.224583">
<ele>1273</ele>
<time>2013-07-13T13:22:59.000Z</time>
</trkpt>
<trkpt lat="42.644973" lon="-1.224489">
<ele>1274</ele>
<time>2013-07-13T13:23:00.000Z</time>
</trkpt>
<trkpt lat="42.645001" lon="-1.224381">
<ele>1275</ele>
<time>2013-07-13T13:23:01.000Z</time>
</trkpt>
<trkpt lat="42.645034" lon="-1.224272">
<ele>1277</ele>
<time>2013-07-13T13:23:02.000Z</time>
</trkpt>
<trkpt lat="42.645079" lon="-1.224186">
<ele>1277</ele>
<time>2013-07-13T13:23:03.000Z</time>
</trkpt>
<trkpt lat="42.645121" lon="-1.22412">
<ele>1278</ele>
<time>2013-07-13T13:23:04.000Z</time>
</trkpt>
<trkpt lat="42.645171" lon="-1.224072">
<ele>1279</ele>
<time>2013-07-13T13:23:05.000Z</time>
</trkpt>
<trkpt lat="42.645222" lon="-1.224027">
<ele>1279</ele>
<time>2013-07-13T13:23:06.000Z</time>
</trkpt>
<trkpt lat="42.645267" lon="-1.224013">
<ele>1279</ele>
<time>2013-07-13T13:23:07.000Z</time>
</trkpt>
<trkpt lat="42.645299" lon="-1.224019">
<ele>1279</ele>
<time>2013-07-13T13:23:08.000Z</time>
</trkpt>
<trkpt lat="42.645328" lon="-1.224033">
<ele>1278</ele>
<time>2013-07-13T13:23:09.000Z</time>
</trkpt>
<trkpt lat="42.645363" lon="-1.224069">
<ele>1278</ele>
<time>2013-07-13T13:23:11.000Z</time>
</trkpt>
<trkpt lat="42.645354" lon="-1.224106">
<ele>1279</ele>
<time>2013-07-13T13:23:12.000Z</time>
</trkpt>
<trkpt lat="42.645335" lon="-1.224131">
<ele>1277</ele>
<time>2013-07-13T13:23:13.000Z</time>
</trkpt>
<trkpt lat="42.645305" lon="-1.224153">
<ele>1276</ele>
<time>2013-07-13T13:23:14.000Z</time>
</trkpt>
<trkpt lat="42.645265" lon="-1.224183">
<ele>1276</ele>
<time>2013-07-13T13:23:15.000Z</time>
</trkpt>
<trkpt lat="42.645217" lon="-1.224197">
<ele>1274</ele>
<time>2013-07-13T13:23:16.000Z</time>
</trkpt>
<trkpt lat="42.645153" lon="-1.224213">
<ele>1273</ele>
<time>2013-07-13T13:23:17.000Z</time>
</trkpt>
<trkpt lat="42.64508" lon="-1.224232">
<ele>1272</ele>
<time>2013-07-13T13:23:18.000Z</time>
</trkpt>
<trkpt lat="42.645004" lon="-1.224254">
<ele>1272</ele>
<time>2013-07-13T13:23:19.000Z</time>
</trkpt>
<trkpt lat="42.644934" lon="-1.224281">
<ele>1273</ele>
<time>2013-07-13T13:23:20.000Z</time>
</trkpt>
<trkpt lat="42.644879" lon="-1.224325">
<ele>1274</ele>
<time>2013-07-13T13:23:21.000Z</time>
</trkpt>
<trkpt lat="42.644835" lon="-1.22437">
<ele>1275</ele>
<time>2013-07-13T13:23:22.000Z</time>
</trkpt>
<trkpt lat="42.644813" lon="-1.224424">
<ele>1275</ele>
<time>2013-07-13T13:23:23.000Z</time>
</trkpt>
<trkpt lat="42.644795" lon="-1.224473">
<ele>1275</ele>
<time>2013-07-13T13:23:24.000Z</time>
</trkpt>
<trkpt lat="42.644788" lon="-1.224516">
<ele>1275</ele>
<time>2013-07-13T13:23:25.000Z</time>
</trkpt>
<trkpt lat="42.644784" lon="-1.224561">
<ele>1276</ele>
<time>2013-07-13T13:23:27.000Z</time>
</trkpt>
<trkpt lat="42.644781" lon="-1.224586">
<ele>1276</ele>
<time>2013-07-13T13:23:28.000Z</time>
</trkpt>
<trkpt lat="42.644778" lon="-1.224628">
<ele>1276</ele>
<time>2013-07-13T13:23:29.000Z</time>
</trkpt>
<trkpt lat="42.64477" lon="-1.224675">
<ele>1273</ele>
<time>2013-07-13T13:23:30.000Z</time>
</trkpt>
<trkpt lat="42.644763" lon="-1.224723">
<ele>1270</ele>
<time>2013-07-13T13:23:31.000Z</time>
</trkpt>
<trkpt lat="42.644758" lon="-1.224779">
<ele>1268</ele>
<time>2013-07-13T13:23:32.000Z</time>
</trkpt>
<trkpt lat="42.644763" lon="-1.224837">
<ele>1268</ele>
<time>2013-07-13T13:23:33.000Z</time>
</trkpt>
<trkpt lat="42.644767" lon="-1.224887">
<ele>1266</ele>
<time>2013-07-13T13:23:34.000Z</time>
</trkpt>
<trkpt lat="42.644768" lon="-1.224936">
<ele>1265</ele>
<time>2013-07-13T13:23:35.000Z</time>
</trkpt>
<trkpt lat="42.644768" lon="-1.224985">
<ele>1264</ele>
<time>2013-07-13T13:23:36.000Z</time>
</trkpt>
<trkpt lat="42.644771" lon="-1.225032">
<ele>1261</ele>
<time>2013-07-13T13:23:37.000Z</time>
</trkpt>
<trkpt lat="42.644789" lon="-1.225085">
<ele>1260</ele>
<time>2013-07-13T13:23:38.000Z</time>
</trkpt>
<trkpt lat="42.644809" lon="-1.225142">
<ele>1257</ele>
<time>2013-07-13T13:23:39.000Z</time>
</trkpt>
<trkpt lat="42.644829" lon="-1.225208">
<ele>1254</ele>
<time>2013-07-13T13:23:40.000Z</time>
</trkpt>
<trkpt lat="42.644848" lon="-1.225283">
<ele>1252</ele>
<time>2013-07-13T13:23:41.000Z</time>
</trkpt>
<trkpt lat="42.644863" lon="-1.225351">
<ele>1252</ele>
<time>2013-07-13T13:23:42.000Z</time>
</trkpt>
<trkpt lat="42.644872" lon="-1.225417">
<ele>1253</ele>
<time>2013-07-13T13:23:43.000Z</time>
</trkpt>
<trkpt lat="42.644865" lon="-1.225474">
<ele>1253</ele>
<time>2013-07-13T13:23:44.000Z</time>
</trkpt>
<trkpt lat="42.644859" lon="-1.225522">
<ele>1253</ele>
<time>2013-07-13T13:23:45.000Z</time>
</trkpt>
<trkpt lat="42.644854" lon="-1.225567">
<ele>1253</ele>
<time>2013-07-13T13:23:46.000Z</time>
</trkpt>
<trkpt lat="42.644849" lon="-1.225623">
<ele>1253</ele>
<time>2013-07-13T13:23:47.000Z</time>
</trkpt>
<trkpt lat="42.644827" lon="-1.225684">
<ele>1254</ele>
<time>2013-07-13T13:23:48.000Z</time>
</trkpt>
<trkpt lat="42.644789" lon="-1.225744">
<ele>1252</ele>
<time>2013-07-13T13:23:49.000Z</time>
</trkpt>
<trkpt lat="42.644749" lon="-1.225808">
<ele>1250</ele>
<time>2013-07-13T13:23:50.000Z</time>
</trkpt>
<trkpt lat="42.644723" lon="-1.225885">
<ele>1250</ele>
<time>2013-07-13T13:23:51.000Z</time>
</trkpt>
<trkpt lat="42.64472" lon="-1.225955">
<ele>1250</ele>
<time>2013-07-13T13:23:52.000Z</time>
</trkpt>
<trkpt lat="42.64473" lon="-1.22602">
<ele>1251</ele>
<time>2013-07-13T13:23:53.000Z</time>
</trkpt>
<trkpt lat="42.644739" lon="-1.226073">
<ele>1254</ele>
<time>2013-07-13T13:23:54.000Z</time>
</trkpt>
<trkpt lat="42.644745" lon="-1.226108">
<ele>1257</ele>
<time>2013-07-13T13:23:55.000Z</time>
</trkpt>
<trkpt lat="42.644731" lon="-1.226141">
<ele>1256</ele>
<time>2013-07-13T13:23:58.000Z</time>
</trkpt>
<trkpt lat="42.644722" lon="-1.226182">
<ele>1257</ele>
<time>2013-07-13T13:23:59.000Z</time>
</trkpt>
<trkpt lat="42.644721" lon="-1.226238">
<ele>1258</ele>
<time>2013-07-13T13:24:00.000Z</time>
</trkpt>
<trkpt lat="42.644722" lon="-1.22628">
<ele>1258</ele>
<time>2013-07-13T13:24:01.000Z</time>
</trkpt>
<trkpt lat="42.644733" lon="-1.226318">
<ele>1259</ele>
<time>2013-07-13T13:24:02.000Z</time>
</trkpt>
<trkpt lat="42.644751" lon="-1.226353">
<ele>1260</ele>
<time>2013-07-13T13:24:03.000Z</time>
</trkpt>
<trkpt lat="42.644778" lon="-1.226385">
<ele>1261</ele>
<time>2013-07-13T13:24:04.000Z</time>
</trkpt>
<trkpt lat="42.644808" lon="-1.226421">
<ele>1259</ele>
<time>2013-07-13T13:24:05.000Z</time>
</trkpt>
<trkpt lat="42.644835" lon="-1.226451">
<ele>1259</ele>
<time>2013-07-13T13:24:06.000Z</time>
</trkpt>
<trkpt lat="42.644858" lon="-1.226477">
<ele>1259</ele>
<time>2013-07-13T13:24:07.000Z</time>
</trkpt>
<trkpt lat="42.644881" lon="-1.226503">
<ele>1260</ele>
<time>2013-07-13T13:24:08.000Z</time>
</trkpt>
<trkpt lat="42.644907" lon="-1.226546">
<ele>1260</ele>
<time>2013-07-13T13:24:09.000Z</time>
</trkpt>
<trkpt lat="42.644934" lon="-1.226594">
<ele>1261</ele>
<time>2013-07-13T13:24:10.000Z</time>
</trkpt>
<trkpt lat="42.644968" lon="-1.226646">
<ele>1259</ele>
<time>2013-07-13T13:24:11.000Z</time>
</trkpt>
<trkpt lat="42.645001" lon="-1.226679">
<ele>1261</ele>
<time>2013-07-13T13:24:12.000Z</time>
</trkpt>
<trkpt lat="42.645032" lon="-1.226709">
<ele>1261</ele>
<time>2013-07-13T13:24:13.000Z</time>
</trkpt>
<trkpt lat="42.645057" lon="-1.226735">
<ele>1261</ele>
<time>2013-07-13T13:24:14.000Z</time>
</trkpt>
<trkpt lat="42.645078" lon="-1.226758">
<ele>1261</ele>
<time>2013-07-13T13:24:15.000Z</time>
</trkpt>
<trkpt lat="42.645098" lon="-1.226795">
<ele>1261</ele>
<time>2013-07-13T13:24:16.000Z</time>
</trkpt>
<trkpt lat="42.645118" lon="-1.226832">
<ele>1262</ele>
<time>2013-07-13T13:24:17.000Z</time>
</trkpt>
<trkpt lat="42.645152" lon="-1.226884">
<ele>1258</ele>
<time>2013-07-13T13:24:18.000Z</time>
</trkpt>
<trkpt lat="42.645183" lon="-1.226929">
<ele>1258</ele>
<time>2013-07-13T13:24:19.000Z</time>
</trkpt>
<trkpt lat="42.645205" lon="-1.226965">
<ele>1262</ele>
<time>2013-07-13T13:24:20.000Z</time>
</trkpt>
<trkpt lat="42.645219" lon="-1.227009">
<ele>1261</ele>
<time>2013-07-13T13:24:21.000Z</time>
</trkpt>
<trkpt lat="42.645232" lon="-1.227066">
<ele>1262</ele>
<time>2013-07-13T13:24:22.000Z</time>
</trkpt>
<trkpt lat="42.645236" lon="-1.227126">
<ele>1262</ele>
<time>2013-07-13T13:24:23.000Z</time>
</trkpt>
<trkpt lat="42.645241" lon="-1.227192">
<ele>1257</ele>
<time>2013-07-13T13:24:24.000Z</time>
</trkpt>
<trkpt lat="42.645243" lon="-1.227263">
<ele>1259</ele>
<time>2013-07-13T13:24:25.000Z</time>
</trkpt>
<trkpt lat="42.645243" lon="-1.227341">
<ele>1258</ele>
<time>2013-07-13T13:24:26.000Z</time>
</trkpt>
<trkpt lat="42.64524" lon="-1.227423">
<ele>1256</ele>
<time>2013-07-13T13:24:27.000Z</time>
</trkpt>
<trkpt lat="42.645238" lon="-1.227507">
<ele>1255</ele>
<time>2013-07-13T13:24:28.000Z</time>
</trkpt>
<trkpt lat="42.645239" lon="-1.227592">
<ele>1253</ele>
<time>2013-07-13T13:24:29.000Z</time>
</trkpt>
<trkpt lat="42.64524" lon="-1.227675">
<ele>1253</ele>
<time>2013-07-13T13:24:30.000Z</time>
</trkpt>
<trkpt lat="42.645241" lon="-1.227754">
<ele>1252</ele>
<time>2013-07-13T13:24:31.000Z</time>
</trkpt>
<trkpt lat="42.645241" lon="-1.22783">
<ele>1252</ele>
<time>2013-07-13T13:24:32.000Z</time>
</trkpt>
<trkpt lat="42.645238" lon="-1.227914">
<ele>1253</ele>
<time>2013-07-13T13:24:33.000Z</time>
</trkpt>
<trkpt lat="42.645237" lon="-1.227993">
<ele>1252</ele>
<time>2013-07-13T13:24:34.000Z</time>
</trkpt>
<trkpt lat="42.64524" lon="-1.228071">
<ele>1251</ele>
<time>2013-07-13T13:24:35.000Z</time>
</trkpt>
<trkpt lat="42.645244" lon="-1.228144">
<ele>1250</ele>
<time>2013-07-13T13:24:36.000Z</time>
</trkpt>
<trkpt lat="42.645248" lon="-1.228201">
<ele>1250</ele>
<time>2013-07-13T13:24:37.000Z</time>
</trkpt>
<trkpt lat="42.64525" lon="-1.22826">
<ele>1251</ele>
<time>2013-07-13T13:24:38.000Z</time>
</trkpt>
<trkpt lat="42.645253" lon="-1.228321">
<ele>1251</ele>
<time>2013-07-13T13:24:39.000Z</time>
</trkpt>
<trkpt lat="42.645259" lon="-1.228389">
<ele>1249</ele>
<time>2013-07-13T13:24:40.000Z</time>
</trkpt>
<trkpt lat="42.645269" lon="-1.228467">
<ele>1246</ele>
<time>2013-07-13T13:24:41.000Z</time>
</trkpt>
<trkpt lat="42.64528" lon="-1.22854">
<ele>1246</ele>
<time>2013-07-13T13:24:42.000Z</time>
</trkpt>
<trkpt lat="42.645293" lon="-1.228611">
<ele>1247</ele>
<time>2013-07-13T13:24:43.000Z</time>
</trkpt>
<trkpt lat="42.645304" lon="-1.228672">
<ele>1247</ele>
<time>2013-07-13T13:24:44.000Z</time>
</trkpt>
<trkpt lat="42.645313" lon="-1.228728">
<ele>1247</ele>
<time>2013-07-13T13:24:45.000Z</time>
</trkpt>
<trkpt lat="42.645323" lon="-1.22879">
<ele>1246</ele>
<time>2013-07-13T13:24:46.000Z</time>
</trkpt>
<trkpt lat="42.645333" lon="-1.228867">
<ele>1245</ele>
<time>2013-07-13T13:24:47.000Z</time>
</trkpt>
<trkpt lat="42.645341" lon="-1.228951">
<ele>1243</ele>
<time>2013-07-13T13:24:48.000Z</time>
</trkpt>
<trkpt lat="42.645334" lon="-1.229039">
<ele>1242</ele>
<time>2013-07-13T13:24:49.000Z</time>
</trkpt>
<trkpt lat="42.645312" lon="-1.229111">
<ele>1239</ele>
<time>2013-07-13T13:24:50.000Z</time>
</trkpt>
<trkpt lat="42.645285" lon="-1.229184">
<ele>1237</ele>
<time>2013-07-13T13:24:51.000Z</time>
</trkpt>
<trkpt lat="42.645258" lon="-1.229258">
<ele>1234</ele>
<time>2013-07-13T13:24:52.000Z</time>
</trkpt>
<trkpt lat="42.645231" lon="-1.229336">
<ele>1229</ele>
<time>2013-07-13T13:24:53.000Z</time>
</trkpt>
<trkpt lat="42.645204" lon="-1.22942">
<ele>1226</ele>
<time>2013-07-13T13:24:54.000Z</time>
</trkpt>
<trkpt lat="42.645192" lon="-1.229512">
<ele>1225</ele>
<time>2013-07-13T13:24:55.000Z</time>
</trkpt>
<trkpt lat="42.645181" lon="-1.229613">
<ele>1225</ele>
<time>2013-07-13T13:24:56.000Z</time>
</trkpt>
<trkpt lat="42.645173" lon="-1.229709">
<ele>1225</ele>
<time>2013-07-13T13:24:57.000Z</time>
</trkpt>
<trkpt lat="42.645166" lon="-1.229797">
<ele>1224</ele>
<time>2013-07-13T13:24:58.000Z</time>
</trkpt>
<trkpt lat="42.645159" lon="-1.229877">
<ele>1226</ele>
<time>2013-07-13T13:24:59.000Z</time>
</trkpt>
<trkpt lat="42.645157" lon="-1.229942">
<ele>1227</ele>
<time>2013-07-13T13:25:00.000Z</time>
</trkpt>
<trkpt lat="42.64517" lon="-1.230002">
<ele>1226</ele>
<time>2013-07-13T13:25:01.000Z</time>
</trkpt>
<trkpt lat="42.645185" lon="-1.23007">
<ele>1224</ele>
<time>2013-07-13T13:25:02.000Z</time>
</trkpt>
<trkpt lat="42.645197" lon="-1.230146">
<ele>1222</ele>
<time>2013-07-13T13:25:03.000Z</time>
</trkpt>
<trkpt lat="42.645206" lon="-1.230226">
<ele>1221</ele>
<time>2013-07-13T13:25:04.000Z</time>
</trkpt>
<trkpt lat="42.645217" lon="-1.230308">
<ele>1218</ele>
<time>2013-07-13T13:25:05.000Z</time>
</trkpt>
<trkpt lat="42.645227" lon="-1.230384">
<ele>1219</ele>
<time>2013-07-13T13:25:06.000Z</time>
</trkpt>
<trkpt lat="42.645235" lon="-1.230458">
<ele>1218</ele>
<time>2013-07-13T13:25:07.000Z</time>
</trkpt>
<trkpt lat="42.645238" lon="-1.230539">
<ele>1218</ele>
<time>2013-07-13T13:25:08.000Z</time>
</trkpt>
<trkpt lat="42.645236" lon="-1.230623">
<ele>1219</ele>
<time>2013-07-13T13:25:09.000Z</time>
</trkpt>
<trkpt lat="42.645235" lon="-1.230712">
<ele>1213</ele>
<time>2013-07-13T13:25:10.000Z</time>
</trkpt>
<trkpt lat="42.645235" lon="-1.230801">
<ele>1207</ele>
<time>2013-07-13T13:25:11.000Z</time>
</trkpt>
<trkpt lat="42.645238" lon="-1.23089">
<ele>1203</ele>
<time>2013-07-13T13:25:12.000Z</time>
</trkpt>
<trkpt lat="42.645247" lon="-1.230974">
<ele>1201</ele>
<time>2013-07-13T13:25:13.000Z</time>
</trkpt>
<trkpt lat="42.645256" lon="-1.231053">
<ele>1200</ele>
<time>2013-07-13T13:25:14.000Z</time>
</trkpt>
<trkpt lat="42.645262" lon="-1.231122">
<ele>1198</ele>
<time>2013-07-13T13:25:15.000Z</time>
</trkpt>
<trkpt lat="42.645267" lon="-1.231181">
<ele>1195</ele>
<time>2013-07-13T13:25:16.000Z</time>
</trkpt>
<trkpt lat="42.645274" lon="-1.23125">
<ele>1193</ele>
<time>2013-07-13T13:25:17.000Z</time>
</trkpt>
<trkpt lat="42.645285" lon="-1.231329">
<ele>1192</ele>
<time>2013-07-13T13:25:18.000Z</time>
</trkpt>
<trkpt lat="42.645299" lon="-1.2314">
<ele>1191</ele>
<time>2013-07-13T13:25:19.000Z</time>
</trkpt>
<trkpt lat="42.645314" lon="-1.23147">
<ele>1191</ele>
<time>2013-07-13T13:25:20.000Z</time>
</trkpt>
<trkpt lat="42.645328" lon="-1.231535">
<ele>1190</ele>
<time>2013-07-13T13:25:21.000Z</time>
</trkpt>
<trkpt lat="42.645341" lon="-1.231598">
<ele>1188</ele>
<time>2013-07-13T13:25:22.000Z</time>
</trkpt>
<trkpt lat="42.645354" lon="-1.231671">
<ele>1187</ele>
<time>2013-07-13T13:25:23.000Z</time>
</trkpt>
<trkpt lat="42.645369" lon="-1.231736">
<ele>1183</ele>
<time>2013-07-13T13:25:24.000Z</time>
</trkpt>
<trkpt lat="42.645385" lon="-1.231818">
<ele>1182</ele>
<time>2013-07-13T13:25:25.000Z</time>
</trkpt>
<trkpt lat="42.645401" lon="-1.231899">
<ele>1181</ele>
<time>2013-07-13T13:25:26.000Z</time>
</trkpt>
<trkpt lat="42.645417" lon="-1.231971">
<ele>1180</ele>
<time>2013-07-13T13:25:27.000Z</time>
</trkpt>
<trkpt lat="42.645432" lon="-1.232035">
<ele>1179</ele>
<time>2013-07-13T13:25:28.000Z</time>
</trkpt>
<trkpt lat="42.645445" lon="-1.232101">
<ele>1177</ele>
<time>2013-07-13T13:25:29.000Z</time>
</trkpt>
<trkpt lat="42.645458" lon="-1.232171">
<ele>1176</ele>
<time>2013-07-13T13:25:30.000Z</time>
</trkpt>
<trkpt lat="42.645474" lon="-1.232243">
<ele>1174</ele>
<time>2013-07-13T13:25:31.000Z</time>
</trkpt>
<trkpt lat="42.645495" lon="-1.232319">
<ele>1173</ele>
<time>2013-07-13T13:25:32.000Z</time>
</trkpt>
<trkpt lat="42.645518" lon="-1.232393">
<ele>1172</ele>
<time>2013-07-13T13:25:33.000Z</time>
</trkpt>
<trkpt lat="42.645539" lon="-1.232459">
<ele>1170</ele>
<time>2013-07-13T13:25:34.000Z</time>
</trkpt>
<trkpt lat="42.645549" lon="-1.232526">
<ele>1170</ele>
<time>2013-07-13T13:25:35.000Z</time>
</trkpt>
<trkpt lat="42.645559" lon="-1.232593">
<ele>1167</ele>
<time>2013-07-13T13:25:36.000Z</time>
</trkpt>
<trkpt lat="42.645571" lon="-1.232672">
<ele>1165</ele>
<time>2013-07-13T13:25:37.000Z</time>
</trkpt>
<trkpt lat="42.645583" lon="-1.232752">
<ele>1162</ele>
<time>2013-07-13T13:25:38.000Z</time>
</trkpt>
<trkpt lat="42.645595" lon="-1.23283">
<ele>1160</ele>
<time>2013-07-13T13:25:39.000Z</time>
</trkpt>
<trkpt lat="42.645593" lon="-1.232902">
<ele>1159</ele>
<time>2013-07-13T13:25:40.000Z</time>
</trkpt>
<trkpt lat="42.645588" lon="-1.232985">
<ele>1160</ele>
<time>2013-07-13T13:25:41.000Z</time>
</trkpt>
<trkpt lat="42.645583" lon="-1.233077">
<ele>1161</ele>
<time>2013-07-13T13:25:42.000Z</time>
</trkpt>
<trkpt lat="42.645578" lon="-1.233168">
<ele>1161</ele>
<time>2013-07-13T13:25:43.000Z</time>
</trkpt>
<trkpt lat="42.645576" lon="-1.233258">
<ele>1161</ele>
<time>2013-07-13T13:25:44.000Z</time>
</trkpt>
<trkpt lat="42.645575" lon="-1.23334">
<ele>1161</ele>
<time>2013-07-13T13:25:45.000Z</time>
</trkpt>
<trkpt lat="42.645573" lon="-1.233411">
<ele>1161</ele>
<time>2013-07-13T13:25:46.000Z</time>
</trkpt>
<trkpt lat="42.645572" lon="-1.233486">
<ele>1160</ele>
<time>2013-07-13T13:25:47.000Z</time>
</trkpt>
<trkpt lat="42.64557" lon="-1.233555">
<ele>1162</ele>
<time>2013-07-13T13:25:48.000Z</time>
</trkpt>
<trkpt lat="42.64557" lon="-1.233628">
<ele>1160</ele>
<time>2013-07-13T13:25:49.000Z</time>
</trkpt>
<trkpt lat="42.645573" lon="-1.233719">
<ele>1160</ele>
<time>2013-07-13T13:25:50.000Z</time>
</trkpt>
<trkpt lat="42.645578" lon="-1.233817">
<ele>1159</ele>
<time>2013-07-13T13:25:51.000Z</time>
</trkpt>
<trkpt lat="42.645582" lon="-1.233915">
<ele>1157</ele>
<time>2013-07-13T13:25:52.000Z</time>
</trkpt>
<trkpt lat="42.64558" lon="-1.234012">
<ele>1155</ele>
<time>2013-07-13T13:25:53.000Z</time>
</trkpt>
<trkpt lat="42.645572" lon="-1.234108">
<ele>1153</ele>
<time>2013-07-13T13:25:54.000Z</time>
</trkpt>
<trkpt lat="42.645557" lon="-1.234213">
<ele>1150</ele>
<time>2013-07-13T13:25:55.000Z</time>
</trkpt>
<trkpt lat="42.645538" lon="-1.23432">
<ele>1148</ele>
<time>2013-07-13T13:25:56.000Z</time>
</trkpt>
<trkpt lat="42.645518" lon="-1.23443">
<ele>1145</ele>
<time>2013-07-13T13:25:57.000Z</time>
</trkpt>
<trkpt lat="42.6455" lon="-1.234532">
<ele>1146</ele>
<time>2013-07-13T13:25:58.000Z</time>
</trkpt>
<trkpt lat="42.645487" lon="-1.234624">
<ele>1148</ele>
<time>2013-07-13T13:25:59.000Z</time>
</trkpt>
<trkpt lat="42.645494" lon="-1.234699">
<ele>1149</ele>
<time>2013-07-13T13:26:00.000Z</time>
</trkpt>
<trkpt lat="42.6455" lon="-1.234757">
<ele>1149</ele>
<time>2013-07-13T13:26:01.000Z</time>
</trkpt>
<trkpt lat="42.645507" lon="-1.234818">
<ele>1150</ele>
<time>2013-07-13T13:26:02.000Z</time>
</trkpt>
<trkpt lat="42.645514" lon="-1.234888">
<ele>1150</ele>
<time>2013-07-13T13:26:03.000Z</time>
</trkpt>
<trkpt lat="42.645522" lon="-1.23497">
<ele>1150</ele>
<time>2013-07-13T13:26:04.000Z</time>
</trkpt>
<trkpt lat="42.645531" lon="-1.235057">
<ele>1149</ele>
<time>2013-07-13T13:26:05.000Z</time>
</trkpt>
<trkpt lat="42.645543" lon="-1.235146">
<ele>1147</ele>
<time>2013-07-13T13:26:06.000Z</time>
</trkpt>
<trkpt lat="42.645555" lon="-1.23523">
<ele>1148</ele>
<time>2013-07-13T13:26:07.000Z</time>
</trkpt>
<trkpt lat="42.645568" lon="-1.23531">
<ele>1149</ele>
<time>2013-07-13T13:26:08.000Z</time>
</trkpt>
<trkpt lat="42.645582" lon="-1.235389">
<ele>1152</ele>
<time>2013-07-13T13:26:09.000Z</time>
</trkpt>
<trkpt lat="42.645594" lon="-1.23546">
<ele>1155</ele>
<time>2013-07-13T13:26:10.000Z</time>
</trkpt>
<trkpt lat="42.645604" lon="-1.235516">
<ele>1156</ele>
<time>2013-07-13T13:26:11.000Z</time>
</trkpt>
<trkpt lat="42.645612" lon="-1.235564">
<ele>1156</ele>
<time>2013-07-13T13:26:12.000Z</time>
</trkpt>
<trkpt lat="42.645622" lon="-1.235616">
<ele>1156</ele>
<time>2013-07-13T13:26:13.000Z</time>
</trkpt>
<trkpt lat="42.645634" lon="-1.235661">
<ele>1156</ele>
<time>2013-07-13T13:26:14.000Z</time>
</trkpt>
<trkpt lat="42.645648" lon="-1.235701">
<ele>1156</ele>
<time>2013-07-13T13:26:15.000Z</time>
</trkpt>
<trkpt lat="42.645691" lon="-1.23573">
<ele>1160</ele>
<time>2013-07-13T13:26:16.000Z</time>
</trkpt>
<trkpt lat="42.645748" lon="-1.235731">
<ele>1161</ele>
<time>2013-07-13T13:26:17.000Z</time>
</trkpt>
<trkpt lat="42.645817" lon="-1.235684">
<ele>1161</ele>
<time>2013-07-13T13:26:18.000Z</time>
</trkpt>
<trkpt lat="42.645862" lon="-1.235629">
<ele>1165</ele>
<time>2013-07-13T13:26:19.000Z</time>
</trkpt>
<trkpt lat="42.645883" lon="-1.235578">
<ele>1169</ele>
<time>2013-07-13T13:26:20.000Z</time>
</trkpt>
<trkpt lat="42.645899" lon="-1.235527">
<ele>1173</ele>
<time>2013-07-13T13:26:21.000Z</time>
</trkpt>
<trkpt lat="42.645901" lon="-1.235465">
<ele>1175</ele>
<time>2013-07-13T13:26:22.000Z</time>
</trkpt>
<trkpt lat="42.645904" lon="-1.235388">
<ele>1176</ele>
<time>2013-07-13T13:26:23.000Z</time>
</trkpt>
<trkpt lat="42.645909" lon="-1.235286">
<ele>1176</ele>
<time>2013-07-13T13:26:24.000Z</time>
</trkpt>
<trkpt lat="42.645913" lon="-1.235165">
<ele>1177</ele>
<time>2013-07-13T13:26:25.000Z</time>
</trkpt>
<trkpt lat="42.645887" lon="-1.235039">
<ele>1178</ele>
<time>2013-07-13T13:26:26.000Z</time>
</trkpt>
<trkpt lat="42.645861" lon="-1.234934">
<ele>1179</ele>
<time>2013-07-13T13:26:27.000Z</time>
</trkpt>
<trkpt lat="42.64583" lon="-1.234822">
<ele>1180</ele>
<time>2013-07-13T13:26:28.000Z</time>
</trkpt>
<trkpt lat="42.645802" lon="-1.234702">
<ele>1182</ele>
<time>2013-07-13T13:26:29.000Z</time>
</trkpt>
<trkpt lat="42.645777" lon="-1.234582">
<ele>1184</ele>
<time>2013-07-13T13:26:30.000Z</time>
</trkpt>
<trkpt lat="42.645747" lon="-1.234466">
<ele>1185</ele>
<time>2013-07-13T13:26:31.000Z</time>
</trkpt>
<trkpt lat="42.64571" lon="-1.234354">
<ele>1187</ele>
<time>2013-07-13T13:26:32.000Z</time>
</trkpt>
<trkpt lat="42.645656" lon="-1.234254">
<ele>1188</ele>
<time>2013-07-13T13:26:33.000Z</time>
</trkpt>
<trkpt lat="42.645599" lon="-1.234155">
<ele>1190</ele>
<time>2013-07-13T13:26:34.000Z</time>
</trkpt>
<trkpt lat="42.645523" lon="-1.23407">
<ele>1192</ele>
<time>2013-07-13T13:26:35.000Z</time>
</trkpt>
<trkpt lat="42.645442" lon="-1.23399">
<ele>1193</ele>
<time>2013-07-13T13:26:36.000Z</time>
</trkpt>
<trkpt lat="42.645352" lon="-1.233941">
<ele>1194</ele>
<time>2013-07-13T13:26:37.000Z</time>
</trkpt>
<trkpt lat="42.645269" lon="-1.233905">
<ele>1196</ele>
<time>2013-07-13T13:26:38.000Z</time>
</trkpt>
<trkpt lat="42.645187" lon="-1.233904">
<ele>1197</ele>
<time>2013-07-13T13:26:39.000Z</time>
</trkpt>
<trkpt lat="42.645116" lon="-1.23391">
<ele>1196</ele>
<time>2013-07-13T13:26:40.000Z</time>
</trkpt>
<trkpt lat="42.645047" lon="-1.233937">
<ele>1199</ele>
<time>2013-07-13T13:26:41.000Z</time>
</trkpt>
<trkpt lat="42.644982" lon="-1.23397">
<ele>1202</ele>
<time>2013-07-13T13:26:42.000Z</time>
</trkpt>
<trkpt lat="42.644922" lon="-1.234025">
<ele>1202</ele>
<time>2013-07-13T13:26:43.000Z</time>
</trkpt>
<trkpt lat="42.644862" lon="-1.234083">
<ele>1203</ele>
<time>2013-07-13T13:26:44.000Z</time>
</trkpt>
<trkpt lat="42.644803" lon="-1.234145">
<ele>1206</ele>
<time>2013-07-13T13:26:45.000Z</time>
</trkpt>
<trkpt lat="42.644761" lon="-1.234219">
<ele>1207</ele>
<time>2013-07-13T13:26:46.000Z</time>
</trkpt>
<trkpt lat="42.644724" lon="-1.23429">
<ele>1209</ele>
<time>2013-07-13T13:26:47.000Z</time>
</trkpt>
<trkpt lat="42.644707" lon="-1.234364">
<ele>1210</ele>
<time>2013-07-13T13:26:48.000Z</time>
</trkpt>
<trkpt lat="42.644693" lon="-1.234435">
<ele>1211</ele>
<time>2013-07-13T13:26:49.000Z</time>
</trkpt>
<trkpt lat="42.644681" lon="-1.234503">
<ele>1213</ele>
<time>2013-07-13T13:26:50.000Z</time>
</trkpt>
<trkpt lat="42.644671" lon="-1.234563">
<ele>1214</ele>
<time>2013-07-13T13:26:51.000Z</time>
</trkpt>
<trkpt lat="42.644661" lon="-1.234621">
<ele>1216</ele>
<time>2013-07-13T13:26:52.000Z</time>
</trkpt>
<trkpt lat="42.64465" lon="-1.234673">
<ele>1218</ele>
<time>2013-07-13T13:26:53.000Z</time>
</trkpt>
<trkpt lat="42.644637" lon="-1.234721">
<ele>1220</ele>
<time>2013-07-13T13:26:54.000Z</time>
</trkpt>
<trkpt lat="42.644619" lon="-1.234781">
<ele>1221</ele>
<time>2013-07-13T13:26:55.000Z</time>
</trkpt>
<trkpt lat="42.644597" lon="-1.234854">
<ele>1223</ele>
<time>2013-07-13T13:26:56.000Z</time>
</trkpt>
<trkpt lat="42.644573" lon="-1.234931">
<ele>1224</ele>
<time>2013-07-13T13:26:57.000Z</time>
</trkpt>
<trkpt lat="42.644548" lon="-1.235002">
<ele>1227</ele>
<time>2013-07-13T13:26:58.000Z</time>
</trkpt>
<trkpt lat="42.644525" lon="-1.235059">
<ele>1228</ele>
<time>2013-07-13T13:26:59.000Z</time>
</trkpt>
<trkpt lat="42.644509" lon="-1.235109">
<ele>1228</ele>
<time>2013-07-13T13:27:00.000Z</time>
</trkpt>
<trkpt lat="42.644519" lon="-1.235139">
<ele>1225</ele>
<time>2013-07-13T13:27:01.000Z</time>
</trkpt>
<trkpt lat="42.644549" lon="-1.23517">
<ele>1226</ele>
<time>2013-07-13T13:27:02.000Z</time>
</trkpt>
<trkpt lat="42.644595" lon="-1.235179">
<ele>1227</ele>
<time>2013-07-13T13:27:03.000Z</time>
</trkpt>
<trkpt lat="42.644641" lon="-1.235182">
<ele>1228</ele>
<time>2013-07-13T13:27:04.000Z</time>
</trkpt>
<trkpt lat="42.644665" lon="-1.235187">
<ele>1232</ele>
<time>2013-07-13T13:27:05.000Z</time>
</trkpt>
<trkpt lat="42.644702" lon="-1.235177">
<ele>1237</ele>
<time>2013-07-13T13:27:06.000Z</time>
</trkpt>
<trkpt lat="42.644737" lon="-1.235163">
<ele>1242</ele>
<time>2013-07-13T13:27:07.000Z</time>
</trkpt>
<trkpt lat="42.644774" lon="-1.235139">
<ele>1245</ele>
<time>2013-07-13T13:27:08.000Z</time>
</trkpt>
<trkpt lat="42.644816" lon="-1.235107">
<ele>1246</ele>
<time>2013-07-13T13:27:09.000Z</time>
</trkpt>
<trkpt lat="42.644852" lon="-1.235063">
<ele>1248</ele>
<time>2013-07-13T13:27:10.000Z</time>
</trkpt>
<trkpt lat="42.644886" lon="-1.235018">
<ele>1252</ele>
<time>2013-07-13T13:27:11.000Z</time>
</trkpt>
<trkpt lat="42.644917" lon="-1.234957">
<ele>1254</ele>
<time>2013-07-13T13:27:12.000Z</time>
</trkpt>
<trkpt lat="42.644953" lon="-1.234885">
<ele>1256</ele>
<time>2013-07-13T13:27:13.000Z</time>
</trkpt>
<trkpt lat="42.644985" lon="-1.234811">
<ele>1256</ele>
<time>2013-07-13T13:27:14.000Z</time>
</trkpt>
<trkpt lat="42.645012" lon="-1.23474">
<ele>1256</ele>
<time>2013-07-13T13:27:15.000Z</time>
</trkpt>
<trkpt lat="42.64504" lon="-1.234667">
<ele>1257</ele>
<time>2013-07-13T13:27:16.000Z</time>
</trkpt>
<trkpt lat="42.645065" lon="-1.234591">
<ele>1257</ele>
<time>2013-07-13T13:27:17.000Z</time>
</trkpt>
<trkpt lat="42.645078" lon="-1.234506">
<ele>1256</ele>
<time>2013-07-13T13:27:18.000Z</time>
</trkpt>
<trkpt lat="42.645094" lon="-1.234406">
<ele>1255</ele>
<time>2013-07-13T13:27:19.000Z</time>
</trkpt>
<trkpt lat="42.645116" lon="-1.234295">
<ele>1254</ele>
<time>2013-07-13T13:27:20.000Z</time>
</trkpt>
<trkpt lat="42.645139" lon="-1.234186">
<ele>1254</ele>
<time>2013-07-13T13:27:21.000Z</time>
</trkpt>
<trkpt lat="42.645157" lon="-1.234087">
<ele>1254</ele>
<time>2013-07-13T13:27:22.000Z</time>
</trkpt>
<trkpt lat="42.645152" lon="-1.233988">
<ele>1255</ele>
<time>2013-07-13T13:27:23.000Z</time>
</trkpt>
<trkpt lat="42.645146" lon="-1.233884">
<ele>1255</ele>
<time>2013-07-13T13:27:24.000Z</time>
</trkpt>
<trkpt lat="42.64514" lon="-1.233778">
<ele>1256</ele>
<time>2013-07-13T13:27:25.000Z</time>
</trkpt>
<trkpt lat="42.645132" lon="-1.23367">
<ele>1256</ele>
<time>2013-07-13T13:27:26.000Z</time>
</trkpt>
<trkpt lat="42.645125" lon="-1.233553">
<ele>1256</ele>
<time>2013-07-13T13:27:27.000Z</time>
</trkpt>
<trkpt lat="42.645112" lon="-1.233443">
<ele>1257</ele>
<time>2013-07-13T13:27:28.000Z</time>
</trkpt>
<trkpt lat="42.64507" lon="-1.233339">
<ele>1257</ele>
<time>2013-07-13T13:27:29.000Z</time>
</trkpt>
<trkpt lat="42.645024" lon="-1.233239">
<ele>1257</ele>
<time>2013-07-13T13:27:30.000Z</time>
</trkpt>
<trkpt lat="42.644954" lon="-1.233157">
<ele>1258</ele>
<time>2013-07-13T13:27:31.000Z</time>
</trkpt>
<trkpt lat="42.644867" lon="-1.233103">
<ele>1258</ele>
<time>2013-07-13T13:27:32.000Z</time>
</trkpt>
<trkpt lat="42.64477" lon="-1.233079">
<ele>1259</ele>
<time>2013-07-13T13:27:33.000Z</time>
</trkpt>
<trkpt lat="42.644669" lon="-1.233067">
<ele>1261</ele>
<time>2013-07-13T13:27:34.000Z</time>
</trkpt>
<trkpt lat="42.644571" lon="-1.233094">
<ele>1264</ele>
<time>2013-07-13T13:27:35.000Z</time>
</trkpt>
<trkpt lat="42.644488" lon="-1.233124">
<ele>1268</ele>
<time>2013-07-13T13:27:36.000Z</time>
</trkpt>
<trkpt lat="42.644418" lon="-1.233186">
<ele>1269</ele>
<time>2013-07-13T13:27:37.000Z</time>
</trkpt>
<trkpt lat="42.644353" lon="-1.233251">
<ele>1270</ele>
<time>2013-07-13T13:27:38.000Z</time>
</trkpt>
<trkpt lat="42.644298" lon="-1.233332">
<ele>1270</ele>
<time>2013-07-13T13:27:39.000Z</time>
</trkpt>
<trkpt lat="42.644246" lon="-1.23341">
<ele>1270</ele>
<time>2013-07-13T13:27:40.000Z</time>
</trkpt>
<trkpt lat="42.644203" lon="-1.233482">
<ele>1270</ele>
<time>2013-07-13T13:27:41.000Z</time>
</trkpt>
<trkpt lat="42.644162" lon="-1.233562">
<ele>1271</ele>
<time>2013-07-13T13:27:42.000Z</time>
</trkpt>
<trkpt lat="42.644141" lon="-1.233654">
<ele>1271</ele>
<time>2013-07-13T13:27:43.000Z</time>
</trkpt>
<trkpt lat="42.644122" lon="-1.233744">
<ele>1272</ele>
<time>2013-07-13T13:27:44.000Z</time>
</trkpt>
<trkpt lat="42.644104" lon="-1.233831">
<ele>1273</ele>
<time>2013-07-13T13:27:45.000Z</time>
</trkpt>
<trkpt lat="42.644086" lon="-1.233918">
<ele>1274</ele>
<time>2013-07-13T13:27:46.000Z</time>
</trkpt>
<trkpt lat="42.644068" lon="-1.234007">
<ele>1275</ele>
<time>2013-07-13T13:27:47.000Z</time>
</trkpt>
<trkpt lat="42.644053" lon="-1.234102">
<ele>1277</ele>
<time>2013-07-13T13:27:48.000Z</time>
</trkpt>
<trkpt lat="42.644039" lon="-1.234203">
<ele>1280</ele>
<time>2013-07-13T13:27:49.000Z</time>
</trkpt>
<trkpt lat="42.644029" lon="-1.234303">
<ele>1281</ele>
<time>2013-07-13T13:27:50.000Z</time>
</trkpt>
<trkpt lat="42.64402" lon="-1.234404">
<ele>1284</ele>
<time>2013-07-13T13:27:51.000Z</time>
</trkpt>
<trkpt lat="42.644015" lon="-1.234495">
<ele>1285</ele>
<time>2013-07-13T13:27:52.000Z</time>
</trkpt>
<trkpt lat="42.644015" lon="-1.234579">
<ele>1287</ele>
<time>2013-07-13T13:27:53.000Z</time>
</trkpt>
<trkpt lat="42.644033" lon="-1.234652">
<ele>1287</ele>
<time>2013-07-13T13:27:54.000Z</time>
</trkpt>
<trkpt lat="42.64407" lon="-1.234704">
<ele>1287</ele>
<time>2013-07-13T13:27:55.000Z</time>
</trkpt>
<trkpt lat="42.644111" lon="-1.234734">
<ele>1287</ele>
<time>2013-07-13T13:27:56.000Z</time>
</trkpt>
<trkpt lat="42.644161" lon="-1.234749">
<ele>1286</ele>
<time>2013-07-13T13:27:57.000Z</time>
</trkpt>
<trkpt lat="42.644205" lon="-1.234751">
<ele>1290</ele>
<time>2013-07-13T13:27:58.000Z</time>
</trkpt>
<trkpt lat="42.644244" lon="-1.234733">
<ele>1291</ele>
<time>2013-07-13T13:27:59.000Z</time>
</trkpt>
<trkpt lat="42.644275" lon="-1.234691">
<ele>1293</ele>
<time>2013-07-13T13:28:00.000Z</time>
</trkpt>
<trkpt lat="42.644288" lon="-1.234618">
<ele>1293</ele>
<time>2013-07-13T13:28:01.000Z</time>
</trkpt>
<trkpt lat="42.644286" lon="-1.234514">
<ele>1293</ele>
<time>2013-07-13T13:28:02.000Z</time>
</trkpt>
<trkpt lat="42.644266" lon="-1.234406">
<ele>1293</ele>
<time>2013-07-13T13:28:03.000Z</time>
</trkpt>
<trkpt lat="42.644224" lon="-1.234309">
<ele>1293</ele>
<time>2013-07-13T13:28:04.000Z</time>
</trkpt>
<trkpt lat="42.644164" lon="-1.234231">
<ele>1292</ele>
<time>2013-07-13T13:28:05.000Z</time>
</trkpt>
<trkpt lat="42.644098" lon="-1.234158">
<ele>1292</ele>
<time>2013-07-13T13:28:06.000Z</time>
</trkpt>
<trkpt lat="42.644013" lon="-1.23411">
<ele>1292</ele>
<time>2013-07-13T13:28:07.000Z</time>
</trkpt>
<trkpt lat="42.643922" lon="-1.234066">
<ele>1292</ele>
<time>2013-07-13T13:28:08.000Z</time>
</trkpt>
<trkpt lat="42.643827" lon="-1.234033">
<ele>1293</ele>
<time>2013-07-13T13:28:09.000Z</time>
</trkpt>
<trkpt lat="42.64373" lon="-1.234027">
<ele>1293</ele>
<time>2013-07-13T13:28:10.000Z</time>
</trkpt>
<trkpt lat="42.643641" lon="-1.23403">
<ele>1295</ele>
<time>2013-07-13T13:28:11.000Z</time>
</trkpt>
<trkpt lat="42.643555" lon="-1.234074">
<ele>1295</ele>
<time>2013-07-13T13:28:12.000Z</time>
</trkpt>
<trkpt lat="42.643474" lon="-1.234131">
<ele>1297</ele>
<time>2013-07-13T13:28:13.000Z</time>
</trkpt>
<trkpt lat="42.643407" lon="-1.234218">
<ele>1297</ele>
<time>2013-07-13T13:28:14.000Z</time>
</trkpt>
<trkpt lat="42.643346" lon="-1.234305">
<ele>1298</ele>
<time>2013-07-13T13:28:15.000Z</time>
</trkpt>
<trkpt lat="42.643297" lon="-1.23439">
<ele>1300</ele>
<time>2013-07-13T13:28:16.000Z</time>
</trkpt>
<trkpt lat="42.643271" lon="-1.234478">
<ele>1302</ele>
<time>2013-07-13T13:28:17.000Z</time>
</trkpt>
<trkpt lat="42.643252" lon="-1.234551">
<ele>1303</ele>
<time>2013-07-13T13:28:18.000Z</time>
</trkpt>
<trkpt lat="42.643236" lon="-1.234622">
<ele>1305</ele>
<time>2013-07-13T13:28:19.000Z</time>
</trkpt>
<trkpt lat="42.643218" lon="-1.234712">
<ele>1308</ele>
<time>2013-07-13T13:28:20.000Z</time>
</trkpt>
<trkpt lat="42.643205" lon="-1.234802">
<ele>1309</ele>
<time>2013-07-13T13:28:21.000Z</time>
</trkpt>
<trkpt lat="42.643195" lon="-1.234895">
<ele>1310</ele>
<time>2013-07-13T13:28:22.000Z</time>
</trkpt>
<trkpt lat="42.643201" lon="-1.234992">
<ele>1311</ele>
<time>2013-07-13T13:28:23.000Z</time>
</trkpt>
<trkpt lat="42.643207" lon="-1.235087">
<ele>1313</ele>
<time>2013-07-13T13:28:24.000Z</time>
</trkpt>
<trkpt lat="42.643216" lon="-1.235171">
<ele>1315</ele>
<time>2013-07-13T13:28:25.000Z</time>
</trkpt>
<trkpt lat="42.643224" lon="-1.235238">
<ele>1316</ele>
<time>2013-07-13T13:28:26.000Z</time>
</trkpt>
<trkpt lat="42.643235" lon="-1.235299">
<ele>1316</ele>
<time>2013-07-13T13:28:27.000Z</time>
</trkpt>
<trkpt lat="42.643262" lon="-1.235353">
<ele>1317</ele>
<time>2013-07-13T13:28:28.000Z</time>
</trkpt>
<trkpt lat="42.643292" lon="-1.235408">
<ele>1318</ele>
<time>2013-07-13T13:28:29.000Z</time>
</trkpt>
<trkpt lat="42.643322" lon="-1.235463">
<ele>1317</ele>
<time>2013-07-13T13:28:30.000Z</time>
</trkpt>
<trkpt lat="42.64335" lon="-1.23552">
<ele>1317</ele>
<time>2013-07-13T13:28:31.000Z</time>
</trkpt>
<trkpt lat="42.643372" lon="-1.235573">
<ele>1317</ele>
<time>2013-07-13T13:28:32.000Z</time>
</trkpt>
<trkpt lat="42.643385" lon="-1.235612">
<ele>1316</ele>
<time>2013-07-13T13:28:33.000Z</time>
</trkpt>
<trkpt lat="42.643387" lon="-1.235655">
<ele>1319</ele>
<time>2013-07-13T13:28:34.000Z</time>
</trkpt>
<trkpt lat="42.643389" lon="-1.23569">
<ele>1319</ele>
<time>2013-07-13T13:28:35.000Z</time>
</trkpt>
<trkpt lat="42.643393" lon="-1.235723">
<ele>1319</ele>
<time>2013-07-13T13:28:36.000Z</time>
</trkpt>
<trkpt lat="42.643406" lon="-1.235752">
<ele>1319</ele>
<time>2013-07-13T13:28:37.000Z</time>
</trkpt>
<trkpt lat="42.643429" lon="-1.235781">
<ele>1318</ele>
<time>2013-07-13T13:28:38.000Z</time>
</trkpt>
<trkpt lat="42.643463" lon="-1.23582">
<ele>1317</ele>
<time>2013-07-13T13:28:39.000Z</time>
</trkpt>
<trkpt lat="42.643498" lon="-1.235871">
<ele>1316</ele>
<time>2013-07-13T13:28:40.000Z</time>
</trkpt>
<trkpt lat="42.643532" lon="-1.235936">
<ele>1314</ele>
<time>2013-07-13T13:28:41.000Z</time>
</trkpt>
<trkpt lat="42.643547" lon="-1.236006">
<ele>1316</ele>
<time>2013-07-13T13:28:42.000Z</time>
</trkpt>
<trkpt lat="42.643567" lon="-1.23608">
<ele>1314</ele>
<time>2013-07-13T13:28:43.000Z</time>
</trkpt>
<trkpt lat="42.643584" lon="-1.236151">
<ele>1317</ele>
<time>2013-07-13T13:28:44.000Z</time>
</trkpt>
<trkpt lat="42.643606" lon="-1.236233">
<ele>1317</ele>
<time>2013-07-13T13:28:45.000Z</time>
</trkpt>
<trkpt lat="42.643631" lon="-1.236322">
<ele>1317</ele>
<time>2013-07-13T13:28:46.000Z</time>
</trkpt>
<trkpt lat="42.643652" lon="-1.236413">
<ele>1317</ele>
<time>2013-07-13T13:28:47.000Z</time>
</trkpt>
<trkpt lat="42.643668" lon="-1.236497">
<ele>1314</ele>
<time>2013-07-13T13:28:48.000Z</time>
</trkpt>
<trkpt lat="42.643678" lon="-1.236566">
<ele>1314</ele>
<time>2013-07-13T13:28:49.000Z</time>
</trkpt>
<trkpt lat="42.643687" lon="-1.236628">
<ele>1315</ele>
<time>2013-07-13T13:28:50.000Z</time>
</trkpt>
<trkpt lat="42.643692" lon="-1.236683">
<ele>1317</ele>
<time>2013-07-13T13:28:51.000Z</time>
</trkpt>
<trkpt lat="42.643695" lon="-1.23675">
<ele>1318</ele>
<time>2013-07-13T13:28:52.000Z</time>
</trkpt>
<trkpt lat="42.6437" lon="-1.236833">
<ele>1319</ele>
<time>2013-07-13T13:28:53.000Z</time>
</trkpt>
<trkpt lat="42.64371" lon="-1.236913">
<ele>1320</ele>
<time>2013-07-13T13:28:54.000Z</time>
</trkpt>
<trkpt lat="42.643737" lon="-1.236991">
<ele>1320</ele>
<time>2013-07-13T13:28:55.000Z</time>
</trkpt>
<trkpt lat="42.643762" lon="-1.23706">
<ele>1318</ele>
<time>2013-07-13T13:28:56.000Z</time>
</trkpt>
<trkpt lat="42.643786" lon="-1.237135">
<ele>1321</ele>
<time>2013-07-13T13:28:57.000Z</time>
</trkpt>
<trkpt lat="42.643813" lon="-1.23722">
<ele>1322</ele>
<time>2013-07-13T13:28:58.000Z</time>
</trkpt>
<trkpt lat="42.643841" lon="-1.237311">
<ele>1323</ele>
<time>2013-07-13T13:28:59.000Z</time>
</trkpt>
<trkpt lat="42.643872" lon="-1.237384">
<ele>1322</ele>
<time>2013-07-13T13:29:00.000Z</time>
</trkpt>
<trkpt lat="42.643909" lon="-1.237437">
<ele>1326</ele>
<time>2013-07-13T13:29:01.000Z</time>
</trkpt>
<trkpt lat="42.643947" lon="-1.237494">
<ele>1324</ele>
<time>2013-07-13T13:29:02.000Z</time>
</trkpt>
<trkpt lat="42.643975" lon="-1.237541">
<ele>1323</ele>
<time>2013-07-13T13:29:03.000Z</time>
</trkpt>
<trkpt lat="42.644004" lon="-1.237598">
<ele>1322</ele>
<time>2013-07-13T13:29:04.000Z</time>
</trkpt>
<trkpt lat="42.644036" lon="-1.23766">
<ele>1319</ele>
<time>2013-07-13T13:29:05.000Z</time>
</trkpt>
<trkpt lat="42.644072" lon="-1.237733">
<ele>1318</ele>
<time>2013-07-13T13:29:06.000Z</time>
</trkpt>
<trkpt lat="42.644109" lon="-1.237806">
<ele>1318</ele>
<time>2013-07-13T13:29:07.000Z</time>
</trkpt>
<trkpt lat="42.644143" lon="-1.237865">
<ele>1320</ele>
<time>2013-07-13T13:29:08.000Z</time>
</trkpt>
<trkpt lat="42.644174" lon="-1.237926">
<ele>1318</ele>
<time>2013-07-13T13:29:09.000Z</time>
</trkpt>
<trkpt lat="42.644199" lon="-1.237984">
<ele>1318</ele>
<time>2013-07-13T13:29:10.000Z</time>
</trkpt>
<trkpt lat="42.644224" lon="-1.238047">
<ele>1317</ele>
<time>2013-07-13T13:29:11.000Z</time>
</trkpt>
<trkpt lat="42.644241" lon="-1.238116">
<ele>1316</ele>
<time>2013-07-13T13:29:12.000Z</time>
</trkpt>
<trkpt lat="42.644256" lon="-1.238187">
<ele>1315</ele>
<time>2013-07-13T13:29:13.000Z</time>
</trkpt>
<trkpt lat="42.644271" lon="-1.238259">
<ele>1314</ele>
<time>2013-07-13T13:29:14.000Z</time>
</trkpt>
<trkpt lat="42.644289" lon="-1.238339">
<ele>1313</ele>
<time>2013-07-13T13:29:15.000Z</time>
</trkpt>
<trkpt lat="42.644315" lon="-1.238422">
<ele>1308</ele>
<time>2013-07-13T13:29:16.000Z</time>
</trkpt>
<trkpt lat="42.64434" lon="-1.238504">
<ele>1309</ele>
<time>2013-07-13T13:29:17.000Z</time>
</trkpt>
<trkpt lat="42.644363" lon="-1.23857">
<ele>1307</ele>
<time>2013-07-13T13:29:18.000Z</time>
</trkpt>
<trkpt lat="42.644384" lon="-1.238621">
<ele>1307</ele>
<time>2013-07-13T13:29:19.000Z</time>
</trkpt>
<trkpt lat="42.644414" lon="-1.238698">
<ele>1301</ele>
<time>2013-07-13T13:29:20.000Z</time>
</trkpt>
<trkpt lat="42.644438" lon="-1.23879">
<ele>1299</ele>
<time>2013-07-13T13:29:21.000Z</time>
</trkpt>
<trkpt lat="42.644452" lon="-1.238869">
<ele>1297</ele>
<time>2013-07-13T13:29:22.000Z</time>
</trkpt>
<trkpt lat="42.644463" lon="-1.238957">
<ele>1297</ele>
<time>2013-07-13T13:29:23.000Z</time>
</trkpt>
<trkpt lat="42.644467" lon="-1.23903">
<ele>1295</ele>
<time>2013-07-13T13:29:24.000Z</time>
</trkpt>
<trkpt lat="42.644468" lon="-1.239109">
<ele>1293</ele>
<time>2013-07-13T13:29:25.000Z</time>
</trkpt>
<trkpt lat="42.644457" lon="-1.239191">
<ele>1291</ele>
<time>2013-07-13T13:29:26.000Z</time>
</trkpt>
<trkpt lat="42.644445" lon="-1.239275">
<ele>1288</ele>
<time>2013-07-13T13:29:27.000Z</time>
</trkpt>
<trkpt lat="42.644434" lon="-1.239364">
<ele>1285</ele>
<time>2013-07-13T13:29:28.000Z</time>
</trkpt>
<trkpt lat="42.644425" lon="-1.239456">
<ele>1283</ele>
<time>2013-07-13T13:29:29.000Z</time>
</trkpt>
<trkpt lat="42.644417" lon="-1.239539">
<ele>1282</ele>
<time>2013-07-13T13:29:30.000Z</time>
</trkpt>
<trkpt lat="42.644413" lon="-1.239617">
<ele>1281</ele>
<time>2013-07-13T13:29:31.000Z</time>
</trkpt>
<trkpt lat="42.644409" lon="-1.239694">
<ele>1282</ele>
<time>2013-07-13T13:29:32.000Z</time>
</trkpt>
<trkpt lat="42.644405" lon="-1.239783">
<ele>1279</ele>
<time>2013-07-13T13:29:33.000Z</time>
</trkpt>
<trkpt lat="42.644399" lon="-1.239883">
<ele>1276</ele>
<time>2013-07-13T13:29:34.000Z</time>
</trkpt>
<trkpt lat="42.644394" lon="-1.239982">
<ele>1274</ele>
<time>2013-07-13T13:29:35.000Z</time>
</trkpt>
<trkpt lat="42.644393" lon="-1.24009">
<ele>1270</ele>
<time>2013-07-13T13:29:36.000Z</time>
</trkpt>
<trkpt lat="42.644391" lon="-1.240201">
<ele>1269</ele>
<time>2013-07-13T13:29:37.000Z</time>
</trkpt>
<trkpt lat="42.644389" lon="-1.24031">
<ele>1267</ele>
<time>2013-07-13T13:29:38.000Z</time>
</trkpt>
<trkpt lat="42.644392" lon="-1.240412">
<ele>1266</ele>
<time>2013-07-13T13:29:39.000Z</time>
</trkpt>
<trkpt lat="42.644397" lon="-1.240502">
<ele>1266</ele>
<time>2013-07-13T13:29:40.000Z</time>
</trkpt>
<trkpt lat="42.644404" lon="-1.240595">
<ele>1264</ele>
<time>2013-07-13T13:29:41.000Z</time>
</trkpt>
<trkpt lat="42.64441" lon="-1.240686">
<ele>1262</ele>
<time>2013-07-13T13:29:42.000Z</time>
</trkpt>
<trkpt lat="42.644417" lon="-1.240784">
<ele>1260</ele>
<time>2013-07-13T13:29:43.000Z</time>
</trkpt>
<trkpt lat="42.644428" lon="-1.240881">
<ele>1260</ele>
<time>2013-07-13T13:29:44.000Z</time>
</trkpt>
<trkpt lat="42.644444" lon="-1.240976">
<ele>1259</ele>
<time>2013-07-13T13:29:45.000Z</time>
</trkpt>
<trkpt lat="42.644463" lon="-1.241063">
<ele>1257</ele>
<time>2013-07-13T13:29:46.000Z</time>
</trkpt>
<trkpt lat="42.644481" lon="-1.241148">
<ele>1256</ele>
<time>2013-07-13T13:29:47.000Z</time>
</trkpt>
<trkpt lat="42.644505" lon="-1.241255">
<ele>1253</ele>
<time>2013-07-13T13:29:48.000Z</time>
</trkpt>
<trkpt lat="42.644532" lon="-1.241375">
<ele>1249</ele>
<time>2013-07-13T13:29:49.000Z</time>
</trkpt>
<trkpt lat="42.644561" lon="-1.241483">
<ele>1248</ele>
<time>2013-07-13T13:29:50.000Z</time>
</trkpt>
<trkpt lat="42.644587" lon="-1.241573">
<ele>1246</ele>
<time>2013-07-13T13:29:51.000Z</time>
</trkpt>
<trkpt lat="42.644607" lon="-1.24166">
<ele>1245</ele>
<time>2013-07-13T13:29:52.000Z</time>
</trkpt>
<trkpt lat="42.64462" lon="-1.241738">
<ele>1242</ele>
<time>2013-07-13T13:29:53.000Z</time>
</trkpt>
<trkpt lat="42.644637" lon="-1.24183">
<ele>1232</ele>
<time>2013-07-13T13:29:54.000Z</time>
</trkpt>
<trkpt lat="42.644658" lon="-1.241931">
<ele>1229</ele>
<time>2013-07-13T13:29:55.000Z</time>
</trkpt>
<trkpt lat="42.644687" lon="-1.242051">
<ele>1225</ele>
<time>2013-07-13T13:29:56.000Z</time>
</trkpt>
<trkpt lat="42.644716" lon="-1.242185">
<ele>1224</ele>
<time>2013-07-13T13:29:57.000Z</time>
</trkpt>
<trkpt lat="42.644744" lon="-1.24231">
<ele>1222</ele>
<time>2013-07-13T13:29:58.000Z</time>
</trkpt>
<trkpt lat="42.644775" lon="-1.242435">
<ele>1214</ele>
<time>2013-07-13T13:29:59.000Z</time>
</trkpt>
<trkpt lat="42.644802" lon="-1.242546">
<ele>1214</ele>
<time>2013-07-13T13:30:00.000Z</time>
</trkpt>
<trkpt lat="42.644827" lon="-1.242652">
<ele>1214</ele>
<time>2013-07-13T13:30:01.000Z</time>
</trkpt>
<trkpt lat="42.644847" lon="-1.242758">
<ele>1212</ele>
<time>2013-07-13T13:30:02.000Z</time>
</trkpt>
<trkpt lat="42.644865" lon="-1.242863">
<ele>1210</ele>
<time>2013-07-13T13:30:03.000Z</time>
</trkpt>
<trkpt lat="42.644882" lon="-1.242964">
<ele>1208</ele>
<time>2013-07-13T13:30:04.000Z</time>
</trkpt>
<trkpt lat="42.644896" lon="-1.243064">
<ele>1206</ele>
<time>2013-07-13T13:30:05.000Z</time>
</trkpt>
<trkpt lat="42.64491" lon="-1.243175">
<ele>1207</ele>
<time>2013-07-13T13:30:06.000Z</time>
</trkpt>
<trkpt lat="42.644924" lon="-1.243281">
<ele>1206</ele>
<time>2013-07-13T13:30:07.000Z</time>
</trkpt>
<trkpt lat="42.644938" lon="-1.243376">
<ele>1204</ele>
<time>2013-07-13T13:30:08.000Z</time>
</trkpt>
<trkpt lat="42.64495" lon="-1.243466">
<ele>1202</ele>
<time>2013-07-13T13:30:09.000Z</time>
</trkpt>
<trkpt lat="42.644958" lon="-1.243547">
<ele>1199</ele>
<time>2013-07-13T13:30:10.000Z</time>
</trkpt>
<trkpt lat="42.644966" lon="-1.243629">
<ele>1197</ele>
<time>2013-07-13T13:30:11.000Z</time>
</trkpt>
<trkpt lat="42.644979" lon="-1.243734">
<ele>1193</ele>
<time>2013-07-13T13:30:12.000Z</time>
</trkpt>
<trkpt lat="42.644991" lon="-1.243839">
<ele>1191</ele>
<time>2013-07-13T13:30:13.000Z</time>
</trkpt>
<trkpt lat="42.645006" lon="-1.243936">
<ele>1189</ele>
<time>2013-07-13T13:30:14.000Z</time>
</trkpt>
<trkpt lat="42.645019" lon="-1.244017">
<ele>1187</ele>
<time>2013-07-13T13:30:15.000Z</time>
</trkpt>
<trkpt lat="42.645034" lon="-1.244097">
<ele>1183</ele>
<time>2013-07-13T13:30:16.000Z</time>
</trkpt>
<trkpt lat="42.645049" lon="-1.24418">
<ele>1180</ele>
<time>2013-07-13T13:30:17.000Z</time>
</trkpt>
<trkpt lat="42.645069" lon="-1.244277">
<ele>1180</ele>
<time>2013-07-13T13:30:18.000Z</time>
</trkpt>
<trkpt lat="42.645093" lon="-1.244385">
<ele>1180</ele>
<time>2013-07-13T13:30:19.000Z</time>
</trkpt>
<trkpt lat="42.64512" lon="-1.244502">
<ele>1180</ele>
<time>2013-07-13T13:30:20.000Z</time>
</trkpt>
<trkpt lat="42.645143" lon="-1.244608">
<ele>1182</ele>
<time>2013-07-13T13:30:21.000Z</time>
</trkpt>
<trkpt lat="42.645164" lon="-1.244711">
<ele>1184</ele>
<time>2013-07-13T13:30:22.000Z</time>
</trkpt>
<trkpt lat="42.64518" lon="-1.244794">
<ele>1184</ele>
<time>2013-07-13T13:30:23.000Z</time>
</trkpt>
<trkpt lat="42.645194" lon="-1.244876">
<ele>1186</ele>
<time>2013-07-13T13:30:24.000Z</time>
</trkpt>
<trkpt lat="42.645206" lon="-1.244959">
<ele>1187</ele>
<time>2013-07-13T13:30:25.000Z</time>
</trkpt>
<trkpt lat="42.645214" lon="-1.245044">
<ele>1188</ele>
<time>2013-07-13T13:30:26.000Z</time>
</trkpt>
<trkpt lat="42.645218" lon="-1.245135">
<ele>1190</ele>
<time>2013-07-13T13:30:27.000Z</time>
</trkpt>
<trkpt lat="42.645226" lon="-1.24523">
<ele>1193</ele>
<time>2013-07-13T13:30:28.000Z</time>
</trkpt>
<trkpt lat="42.645255" lon="-1.245311">
<ele>1195</ele>
<time>2013-07-13T13:30:29.000Z</time>
</trkpt>
<trkpt lat="42.645297" lon="-1.245378">
<ele>1196</ele>
<time>2013-07-13T13:30:30.000Z</time>
</trkpt>
<trkpt lat="42.645342" lon="-1.245436">
<ele>1197</ele>
<time>2013-07-13T13:30:31.000Z</time>
</trkpt>
<trkpt lat="42.645398" lon="-1.245459">
<ele>1198</ele>
<time>2013-07-13T13:30:32.000Z</time>
</trkpt>
<trkpt lat="42.645458" lon="-1.245457">
<ele>1199</ele>
<time>2013-07-13T13:30:33.000Z</time>
</trkpt>
<trkpt lat="42.645526" lon="-1.245431">
<ele>1199</ele>
<time>2013-07-13T13:30:34.000Z</time>
</trkpt>
<trkpt lat="42.645586" lon="-1.245378">
<ele>1199</ele>
<time>2013-07-13T13:30:35.000Z</time>
</trkpt>
<trkpt lat="42.645616" lon="-1.245304">
<ele>1200</ele>
<time>2013-07-13T13:30:36.000Z</time>
</trkpt>
<trkpt lat="42.645631" lon="-1.245212">
<ele>1201</ele>
<time>2013-07-13T13:30:37.000Z</time>
</trkpt>
<trkpt lat="42.645628" lon="-1.245121">
<ele>1202</ele>
<time>2013-07-13T13:30:38.000Z</time>
</trkpt>
<trkpt lat="42.645605" lon="-1.24503">
<ele>1203</ele>
<time>2013-07-13T13:30:39.000Z</time>
</trkpt>
<trkpt lat="42.645563" lon="-1.24494">
<ele>1204</ele>
<time>2013-07-13T13:30:40.000Z</time>
</trkpt>
<trkpt lat="42.645511" lon="-1.244838">
<ele>1205</ele>
<time>2013-07-13T13:30:41.000Z</time>
</trkpt>
<trkpt lat="42.645458" lon="-1.244736">
<ele>1207</ele>
<time>2013-07-13T13:30:42.000Z</time>
</trkpt>
<trkpt lat="42.645412" lon="-1.244643">
<ele>1209</ele>
<time>2013-07-13T13:30:43.000Z</time>
</trkpt>
<trkpt lat="42.645374" lon="-1.244557">
<ele>1212</ele>
<time>2013-07-13T13:30:44.000Z</time>
</trkpt>
<trkpt lat="42.645337" lon="-1.244471">
<ele>1214</ele>
<time>2013-07-13T13:30:45.000Z</time>
</trkpt>
<trkpt lat="42.645302" lon="-1.244386">
<ele>1216</ele>
<time>2013-07-13T13:30:46.000Z</time>
</trkpt>
<trkpt lat="42.645266" lon="-1.244303">
<ele>1219</ele>
<time>2013-07-13T13:30:47.000Z</time>
</trkpt>
<trkpt lat="42.645227" lon="-1.244224">
<ele>1221</ele>
<time>2013-07-13T13:30:48.000Z</time>
</trkpt>
<trkpt lat="42.645186" lon="-1.244146">
<ele>1223</ele>
<time>2013-07-13T13:30:49.000Z</time>
</trkpt>
<trkpt lat="42.645142" lon="-1.244069">
<ele>1224</ele>
<time>2013-07-13T13:30:50.000Z</time>
</trkpt>
<trkpt lat="42.645083" lon="-1.244">
<ele>1226</ele>
<time>2013-07-13T13:30:51.000Z</time>
</trkpt>
<trkpt lat="42.64501" lon="-1.243932">
<ele>1226</ele>
<time>2013-07-13T13:30:52.000Z</time>
</trkpt>
<trkpt lat="42.644922" lon="-1.24389">
<ele>1227</ele>
<time>2013-07-13T13:30:53.000Z</time>
</trkpt>
<trkpt lat="42.644838" lon="-1.24386">
<ele>1227</ele>
<time>2013-07-13T13:30:54.000Z</time>
</trkpt>
<trkpt lat="42.644761" lon="-1.243871">
<ele>1229</ele>
<time>2013-07-13T13:30:55.000Z</time>
</trkpt>
<trkpt lat="42.64469" lon="-1.243907">
<ele>1231</ele>
<time>2013-07-13T13:30:56.000Z</time>
</trkpt>
<trkpt lat="42.644616" lon="-1.243954">
<ele>1231</ele>
<time>2013-07-13T13:30:57.000Z</time>
</trkpt>
<trkpt lat="42.644557" lon="-1.244023">
<ele>1231</ele>
<time>2013-07-13T13:30:58.000Z</time>
</trkpt>
<trkpt lat="42.644519" lon="-1.244106">
<ele>1231</ele>
<time>2013-07-13T13:30:59.000Z</time>
</trkpt>
<trkpt lat="42.644492" lon="-1.244179">
<ele>1232</ele>
<time>2013-07-13T13:31:00.000Z</time>
</trkpt>
<trkpt lat="42.644486" lon="-1.244238">
<ele>1232</ele>
<time>2013-07-13T13:31:01.000Z</time>
</trkpt>
<trkpt lat="42.644488" lon="-1.244293">
<ele>1234</ele>
<time>2013-07-13T13:31:02.000Z</time>
</trkpt>
<trkpt lat="42.644494" lon="-1.244346">
<ele>1234</ele>
<time>2013-07-13T13:31:03.000Z</time>
</trkpt>
<trkpt lat="42.644505" lon="-1.244414">
<ele>1235</ele>
<time>2013-07-13T13:31:04.000Z</time>
</trkpt>
<trkpt lat="42.644519" lon="-1.244478">
<ele>1235</ele>
<time>2013-07-13T13:31:05.000Z</time>
</trkpt>
<trkpt lat="42.644545" lon="-1.244538">
<ele>1237</ele>
<time>2013-07-13T13:31:06.000Z</time>
</trkpt>
<trkpt lat="42.644571" lon="-1.244594">
<ele>1238</ele>
<time>2013-07-13T13:31:07.000Z</time>
</trkpt>
<trkpt lat="42.644599" lon="-1.244665">
<ele>1243</ele>
<time>2013-07-13T13:31:08.000Z</time>
</trkpt>
<trkpt lat="42.64461" lon="-1.244743">
<ele>1245</ele>
<time>2013-07-13T13:31:09.000Z</time>
</trkpt>
<trkpt lat="42.644619" lon="-1.244826">
<ele>1246</ele>
<time>2013-07-13T13:31:10.000Z</time>
</trkpt>
<trkpt lat="42.644613" lon="-1.244919">
<ele>1249</ele>
<time>2013-07-13T13:31:11.000Z</time>
</trkpt>
<trkpt lat="42.644605" lon="-1.245007">
<ele>1251</ele>
<time>2013-07-13T13:31:12.000Z</time>
</trkpt>
<trkpt lat="42.644588" lon="-1.245092">
<ele>1255</ele>
<time>2013-07-13T13:31:13.000Z</time>
</trkpt>
<trkpt lat="42.644543" lon="-1.245171">
<ele>1257</ele>
<time>2013-07-13T13:31:14.000Z</time>
</trkpt>
<trkpt lat="42.644476" lon="-1.245225">
<ele>1258</ele>
<time>2013-07-13T13:31:15.000Z</time>
</trkpt>
<trkpt lat="42.644389" lon="-1.245259">
<ele>1260</ele>
<time>2013-07-13T13:31:16.000Z</time>
</trkpt>
<trkpt lat="42.644294" lon="-1.24529">
<ele>1263</ele>
<time>2013-07-13T13:31:17.000Z</time>
</trkpt>
<trkpt lat="42.644193" lon="-1.245291">
<ele>1266</ele>
<time>2013-07-13T13:31:18.000Z</time>
</trkpt>
<trkpt lat="42.644094" lon="-1.245263">
<ele>1267</ele>
<time>2013-07-13T13:31:19.000Z</time>
</trkpt>
<trkpt lat="42.644011" lon="-1.245211">
<ele>1267</ele>
<time>2013-07-13T13:31:20.000Z</time>
</trkpt>
<trkpt lat="42.64394" lon="-1.245156">
<ele>1267</ele>
<time>2013-07-13T13:31:21.000Z</time>
</trkpt>
<trkpt lat="42.643877" lon="-1.245075">
<ele>1268</ele>
<time>2013-07-13T13:31:22.000Z</time>
</trkpt>
<trkpt lat="42.643816" lon="-1.244994">
<ele>1270</ele>
<time>2013-07-13T13:31:23.000Z</time>
</trkpt>
<trkpt lat="42.643764" lon="-1.244912">
<ele>1271</ele>
<time>2013-07-13T13:31:24.000Z</time>
</trkpt>
<trkpt lat="42.643742" lon="-1.244814">
<ele>1273</ele>
<time>2013-07-13T13:31:25.000Z</time>
</trkpt>
<trkpt lat="42.643741" lon="-1.24471">
<ele>1274</ele>
<time>2013-07-13T13:31:26.000Z</time>
</trkpt>
<trkpt lat="42.643764" lon="-1.244599">
<ele>1275</ele>
<time>2013-07-13T13:31:27.000Z</time>
</trkpt>
<trkpt lat="42.643815" lon="-1.244492">
<ele>1278</ele>
<time>2013-07-13T13:31:28.000Z</time>
</trkpt>
<trkpt lat="42.643888" lon="-1.244417">
<ele>1279</ele>
<time>2013-07-13T13:31:29.000Z</time>
</trkpt>
<trkpt lat="42.643972" lon="-1.244379">
<ele>1282</ele>
<time>2013-07-13T13:31:30.000Z</time>
</trkpt>
<trkpt lat="42.644042" lon="-1.244382">
<ele>1283</ele>
<time>2013-07-13T13:31:31.000Z</time>
</trkpt>
<trkpt lat="42.644103" lon="-1.244407">
<ele>1284</ele>
<time>2013-07-13T13:31:32.000Z</time>
</trkpt>
<trkpt lat="42.644153" lon="-1.244431">
<ele>1285</ele>
<time>2013-07-13T13:31:33.000Z</time>
</trkpt>
<trkpt lat="42.644195" lon="-1.244455">
<ele>1287</ele>
<time>2013-07-13T13:31:34.000Z</time>
</trkpt>
<trkpt lat="42.644236" lon="-1.24448">
<ele>1288</ele>
<time>2013-07-13T13:31:35.000Z</time>
</trkpt>
<trkpt lat="42.644288" lon="-1.244514">
<ele>1287</ele>
<time>2013-07-13T13:31:36.000Z</time>
</trkpt>
<trkpt lat="42.644351" lon="-1.244552">
<ele>1291</ele>
<time>2013-07-13T13:31:37.000Z</time>
</trkpt>
<trkpt lat="42.644414" lon="-1.244604">
<ele>1296</ele>
<time>2013-07-13T13:31:38.000Z</time>
</trkpt>
<trkpt lat="42.644451" lon="-1.244661">
<ele>1298</ele>
<time>2013-07-13T13:31:39.000Z</time>
</trkpt>
<trkpt lat="42.644469" lon="-1.24471">
<ele>1299</ele>
<time>2013-07-13T13:31:40.000Z</time>
</trkpt>
<trkpt lat="42.644486" lon="-1.244769">
<ele>1302</ele>
<time>2013-07-13T13:31:41.000Z</time>
</trkpt>
<trkpt lat="42.644501" lon="-1.244831">
<ele>1304</ele>
<time>2013-07-13T13:31:42.000Z</time>
</trkpt>
<trkpt lat="42.644517" lon="-1.244892">
<ele>1306</ele>
<time>2013-07-13T13:31:43.000Z</time>
</trkpt>
<trkpt lat="42.64453" lon="-1.244957">
<ele>1307</ele>
<time>2013-07-13T13:31:44.000Z</time>
</trkpt>
<trkpt lat="42.644524" lon="-1.245028">
<ele>1309</ele>
<time>2013-07-13T13:31:45.000Z</time>
</trkpt>
<trkpt lat="42.6445" lon="-1.245101">
<ele>1311</ele>
<time>2013-07-13T13:31:46.000Z</time>
</trkpt>
<trkpt lat="42.644453" lon="-1.245166">
<ele>1312</ele>
<time>2013-07-13T13:31:47.000Z</time>
</trkpt>
<trkpt lat="42.644388" lon="-1.245212">
<ele>1313</ele>
<time>2013-07-13T13:31:48.000Z</time>
</trkpt>
<trkpt lat="42.64431" lon="-1.245233">
<ele>1314</ele>
<time>2013-07-13T13:31:49.000Z</time>
</trkpt>
<trkpt lat="42.644226" lon="-1.245215">
<ele>1315</ele>
<time>2013-07-13T13:31:50.000Z</time>
</trkpt>
<trkpt lat="42.644148" lon="-1.245166">
<ele>1317</ele>
<time>2013-07-13T13:31:51.000Z</time>
</trkpt>
<trkpt lat="42.644067" lon="-1.24511">
<ele>1318</ele>
<time>2013-07-13T13:31:52.000Z</time>
</trkpt>
<trkpt lat="42.643994" lon="-1.245057">
<ele>1319</ele>
<time>2013-07-13T13:31:53.000Z</time>
</trkpt>
<trkpt lat="42.643926" lon="-1.245008">
<ele>1321</ele>
<time>2013-07-13T13:31:54.000Z</time>
</trkpt>
<trkpt lat="42.643866" lon="-1.244956">
<ele>1322</ele>
<time>2013-07-13T13:31:55.000Z</time>
</trkpt>
<trkpt lat="42.64382" lon="-1.244873">
<ele>1323</ele>
<time>2013-07-13T13:31:56.000Z</time>
</trkpt>
<trkpt lat="42.64378" lon="-1.244783">
<ele>1325</ele>
<time>2013-07-13T13:31:57.000Z</time>
</trkpt>
<trkpt lat="42.643763" lon="-1.244674">
<ele>1325</ele>
<time>2013-07-13T13:31:58.000Z</time>
</trkpt>
<trkpt lat="42.643766" lon="-1.24456">
<ele>1326</ele>
<time>2013-07-13T13:31:59.000Z</time>
</trkpt>
<trkpt lat="42.643775" lon="-1.244457">
<ele>1327</ele>
<time>2013-07-13T13:32:00.000Z</time>
</trkpt>
<trkpt lat="42.643807" lon="-1.244368">
<ele>1329</ele>
<time>2013-07-13T13:32:01.000Z</time>
</trkpt>
<trkpt lat="42.643843" lon="-1.244293">
<ele>1331</ele>
<time>2013-07-13T13:32:02.000Z</time>
</trkpt>
<trkpt lat="42.643893" lon="-1.244236">
<ele>1334</ele>
<time>2013-07-13T13:32:03.000Z</time>
</trkpt>
<trkpt lat="42.643936" lon="-1.244194">
<ele>1337</ele>
<time>2013-07-13T13:32:04.000Z</time>
</trkpt>
<trkpt lat="42.643981" lon="-1.244172">
<ele>1337</ele>
<time>2013-07-13T13:32:05.000Z</time>
</trkpt>
<trkpt lat="42.644027" lon="-1.244168">
<ele>1337</ele>
<time>2013-07-13T13:32:06.000Z</time>
</trkpt>
<trkpt lat="42.644072" lon="-1.244188">
<ele>1338</ele>
<time>2013-07-13T13:32:07.000Z</time>
</trkpt>
<trkpt lat="42.644127" lon="-1.244218">
<ele>1340</ele>
<time>2013-07-13T13:32:08.000Z</time>
</trkpt>
<trkpt lat="42.64417" lon="-1.244259">
<ele>1342</ele>
<time>2013-07-13T13:32:09.000Z</time>
</trkpt>
<trkpt lat="42.644192" lon="-1.244306">
<ele>1342</ele>
<time>2013-07-13T13:32:10.000Z</time>
</trkpt>
<trkpt lat="42.644193" lon="-1.244364">
<ele>1344</ele>
<time>2013-07-13T13:32:11.000Z</time>
</trkpt>
<trkpt lat="42.644175" lon="-1.244427">
<ele>1345</ele>
<time>2013-07-13T13:32:12.000Z</time>
</trkpt>
<trkpt lat="42.644147" lon="-1.244499">
<ele>1346</ele>
<time>2013-07-13T13:32:13.000Z</time>
</trkpt>
<trkpt lat="42.644091" lon="-1.244573">
<ele>1346</ele>
<time>2013-07-13T13:32:14.000Z</time>
</trkpt>
<trkpt lat="42.644028" lon="-1.244646">
<ele>1347</ele>
<time>2013-07-13T13:32:15.000Z</time>
</trkpt>
<trkpt lat="42.643936" lon="-1.244695">
<ele>1349</ele>
<time>2013-07-13T13:32:16.000Z</time>
</trkpt>
<trkpt lat="42.643842" lon="-1.244711">
<ele>1352</ele>
<time>2013-07-13T13:32:17.000Z</time>
</trkpt>
<trkpt lat="42.643745" lon="-1.244699">
<ele>1354</ele>
<time>2013-07-13T13:32:18.000Z</time>
</trkpt>
<trkpt lat="42.643656" lon="-1.244683">
<ele>1357</ele>
<time>2013-07-13T13:32:19.000Z</time>
</trkpt>
<trkpt lat="42.643573" lon="-1.24466">
<ele>1360</ele>
<time>2013-07-13T13:32:20.000Z</time>
</trkpt>
<trkpt lat="42.6435" lon="-1.244609">
<ele>1361</ele>
<time>2013-07-13T13:32:21.000Z</time>
</trkpt>
<trkpt lat="42.643443" lon="-1.244527">
<ele>1361</ele>
<time>2013-07-13T13:32:22.000Z</time>
</trkpt>
<trkpt lat="42.64338" lon="-1.24443">
<ele>1362</ele>
<time>2013-07-13T13:32:23.000Z</time>
</trkpt>
<trkpt lat="42.643324" lon="-1.244331">
<ele>1363</ele>
<time>2013-07-13T13:32:24.000Z</time>
</trkpt>
<trkpt lat="42.643276" lon="-1.244234">
<ele>1365</ele>
<time>2013-07-13T13:32:25.000Z</time>
</trkpt>
<trkpt lat="42.643266" lon="-1.244134">
<ele>1367</ele>
<time>2013-07-13T13:32:26.000Z</time>
</trkpt>
<trkpt lat="42.643263" lon="-1.244049">
<ele>1369</ele>
<time>2013-07-13T13:32:27.000Z</time>
</trkpt>
<trkpt lat="42.643266" lon="-1.243966">
<ele>1371</ele>
<time>2013-07-13T13:32:28.000Z</time>
</trkpt>
<trkpt lat="42.643287" lon="-1.243877">
<ele>1372</ele>
<time>2013-07-13T13:32:29.000Z</time>
</trkpt>
<trkpt lat="42.643313" lon="-1.243792">
<ele>1374</ele>
<time>2013-07-13T13:32:30.000Z</time>
</trkpt>
<trkpt lat="42.643362" lon="-1.243725">
<ele>1375</ele>
<time>2013-07-13T13:32:31.000Z</time>
</trkpt>
<trkpt lat="42.643424" lon="-1.243676">
<ele>1376</ele>
<time>2013-07-13T13:32:32.000Z</time>
</trkpt>
<trkpt lat="42.643478" lon="-1.243642">
<ele>1377</ele>
<time>2013-07-13T13:32:33.000Z</time>
</trkpt>
<trkpt lat="42.643523" lon="-1.243613">
<ele>1378</ele>
<time>2013-07-13T13:32:34.000Z</time>
</trkpt>
<trkpt lat="42.643554" lon="-1.243595">
<ele>1379</ele>
<time>2013-07-13T13:32:35.000Z</time>
</trkpt>
<trkpt lat="42.643586" lon="-1.243597">
<ele>1379</ele>
<time>2013-07-13T13:32:36.000Z</time>
</trkpt>
<trkpt lat="42.643626" lon="-1.243624">
<ele>1379</ele>
<time>2013-07-13T13:32:37.000Z</time>
</trkpt>
<trkpt lat="42.643677" lon="-1.243666">
<ele>1379</ele>
<time>2013-07-13T13:32:38.000Z</time>
</trkpt>
<trkpt lat="42.643723" lon="-1.243735">
<ele>1378</ele>
<time>2013-07-13T13:32:39.000Z</time>
</trkpt>
<trkpt lat="42.643763" lon="-1.243807">
<ele>1376</ele>
<time>2013-07-13T13:32:40.000Z</time>
</trkpt>
<trkpt lat="42.643785" lon="-1.243891">
<ele>1376</ele>
<time>2013-07-13T13:32:41.000Z</time>
</trkpt>
<trkpt lat="42.6438" lon="-1.243973">
<ele>1374</ele>
<time>2013-07-13T13:32:42.000Z</time>
</trkpt>
<trkpt lat="42.643812" lon="-1.24406">
<ele>1373</ele>
<time>2013-07-13T13:32:43.000Z</time>
</trkpt>
<trkpt lat="42.643822" lon="-1.24415">
<ele>1373</ele>
<time>2013-07-13T13:32:44.000Z</time>
</trkpt>
<trkpt lat="42.643833" lon="-1.244246">
<ele>1373</ele>
<time>2013-07-13T13:32:45.000Z</time>
</trkpt>
<trkpt lat="42.643842" lon="-1.24435">
<ele>1376</ele>
<time>2013-07-13T13:32:46.000Z</time>
</trkpt>
<trkpt lat="42.643846" lon="-1.244454">
<ele>1378</ele>
<time>2013-07-13T13:32:47.000Z</time>
</trkpt>
<trkpt lat="42.643845" lon="-1.244567">
<ele>1380</ele>
<time>2013-07-13T13:32:48.000Z</time>
</trkpt>
<trkpt lat="42.643825" lon="-1.244677">
<ele>1381</ele>
<time>2013-07-13T13:32:49.000Z</time>
</trkpt>
<trkpt lat="42.643802" lon="-1.244785">
<ele>1382</ele>
<time>2013-07-13T13:32:50.000Z</time>
</trkpt>
<trkpt lat="42.643757" lon="-1.244875">
<ele>1384</ele>
<time>2013-07-13T13:32:51.000Z</time>
</trkpt>
<trkpt lat="42.643705" lon="-1.24497">
<ele>1388</ele>
<time>2013-07-13T13:32:52.000Z</time>
</trkpt>
<trkpt lat="42.643654" lon="-1.245055">
<ele>1391</ele>
<time>2013-07-13T13:32:53.000Z</time>
</trkpt>
<trkpt lat="42.643603" lon="-1.245134">
<ele>1394</ele>
<time>2013-07-13T13:32:54.000Z</time>
</trkpt>
<trkpt lat="42.643555" lon="-1.245216">
<ele>1396</ele>
<time>2013-07-13T13:32:55.000Z</time>
</trkpt>
<trkpt lat="42.643513" lon="-1.245299">
<ele>1397</ele>
<time>2013-07-13T13:32:56.000Z</time>
</trkpt>
<trkpt lat="42.643495" lon="-1.24539">
<ele>1398</ele>
<time>2013-07-13T13:32:57.000Z</time>
</trkpt>
<trkpt lat="42.643483" lon="-1.245481">
<ele>1399</ele>
<time>2013-07-13T13:32:58.000Z</time>
</trkpt>
<trkpt lat="42.6435" lon="-1.245563">
<ele>1400</ele>
<time>2013-07-13T13:32:59.000Z</time>
</trkpt>
<trkpt lat="42.643538" lon="-1.245622">
<ele>1400</ele>
<time>2013-07-13T13:33:00.000Z</time>
</trkpt>
<trkpt lat="42.643589" lon="-1.245663">
<ele>1403</ele>
<time>2013-07-13T13:33:01.000Z</time>
</trkpt>
<trkpt lat="42.643637" lon="-1.245688">
<ele>1406</ele>
<time>2013-07-13T13:33:02.000Z</time>
</trkpt>
<trkpt lat="42.64369" lon="-1.245708">
<ele>1407</ele>
<time>2013-07-13T13:33:03.000Z</time>
</trkpt>
<trkpt lat="42.643747" lon="-1.245703">
<ele>1411</ele>
<time>2013-07-13T13:33:04.000Z</time>
</trkpt>
<trkpt lat="42.6438" lon="-1.245669">
<ele>1414</ele>
<time>2013-07-13T13:33:05.000Z</time>
</trkpt>
<trkpt lat="42.643845" lon="-1.245633">
<ele>1416</ele>
<time>2013-07-13T13:33:06.000Z</time>
</trkpt>
<trkpt lat="42.643877" lon="-1.245589">
<ele>1418</ele>
<time>2013-07-13T13:33:07.000Z</time>
</trkpt>
<trkpt lat="42.643903" lon="-1.245555">
<ele>1420</ele>
<time>2013-07-13T13:33:08.000Z</time>
</trkpt>
<trkpt lat="42.643917" lon="-1.245507">
<ele>1423</ele>
<time>2013-07-13T13:33:09.000Z</time>
</trkpt>
<trkpt lat="42.64392" lon="-1.245437">
<ele>1426</ele>
<time>2013-07-13T13:33:10.000Z</time>
</trkpt>
<trkpt lat="42.64391" lon="-1.245351">
<ele>1431</ele>
<time>2013-07-13T13:33:11.000Z</time>
</trkpt>
<trkpt lat="42.643891" lon="-1.245263">
<ele>1434</ele>
<time>2013-07-13T13:33:12.000Z</time>
</trkpt>
<trkpt lat="42.643866" lon="-1.245165">
<ele>1437</ele>
<time>2013-07-13T13:33:13.000Z</time>
</trkpt>
<trkpt lat="42.643834" lon="-1.245059">
<ele>1441</ele>
<time>2013-07-13T13:33:14.000Z</time>
</trkpt>
<trkpt lat="42.643799" lon="-1.244952">
<ele>1444</ele>
<time>2013-07-13T13:33:15.000Z</time>
</trkpt>
<trkpt lat="42.64376" lon="-1.244844">
<ele>1449</ele>
<time>2013-07-13T13:33:16.000Z</time>
</trkpt>
<trkpt lat="42.643706" lon="-1.244758">
<ele>1452</ele>
<time>2013-07-13T13:33:17.000Z</time>
</trkpt>
<trkpt lat="42.643647" lon="-1.244676">
<ele>1455</ele>
<time>2013-07-13T13:33:18.000Z</time>
</trkpt>
<trkpt lat="42.643576" lon="-1.244616">
<ele>1459</ele>
<time>2013-07-13T13:33:19.000Z</time>
</trkpt>
<trkpt lat="42.643499" lon="-1.244582">
<ele>1463</ele>
<time>2013-07-13T13:33:20.000Z</time>
</trkpt>
<trkpt lat="42.643428" lon="-1.244558">
<ele>1466</ele>
<time>2013-07-13T13:33:21.000Z</time>
</trkpt>
<trkpt lat="42.643355" lon="-1.24457">
<ele>1470</ele>
<time>2013-07-13T13:33:22.000Z</time>
</trkpt>
<trkpt lat="42.643274" lon="-1.244593">
<ele>1472</ele>
<time>2013-07-13T13:33:23.000Z</time>
</trkpt>
<trkpt lat="42.643191" lon="-1.244623">
<ele>1476</ele>
<time>2013-07-13T13:33:24.000Z</time>
</trkpt>
<trkpt lat="42.64311" lon="-1.244683">
<ele>1480</ele>
<time>2013-07-13T13:33:25.000Z</time>
</trkpt>
<trkpt lat="42.643042" lon="-1.24476">
<ele>1483</ele>
<time>2013-07-13T13:33:26.000Z</time>
</trkpt>
<trkpt lat="42.642979" lon="-1.244841">
<ele>1485</ele>
<time>2013-07-13T13:33:27.000Z</time>
</trkpt>
<trkpt lat="42.642922" lon="-1.244929">
<ele>1486</ele>
<time>2013-07-13T13:33:28.000Z</time>
</trkpt>
<trkpt lat="42.642871" lon="-1.245022">
<ele>1488</ele>
<time>2013-07-13T13:33:29.000Z</time>
</trkpt>
<trkpt lat="42.64284" lon="-1.245131">
<ele>1489</ele>
<time>2013-07-13T13:33:30.000Z</time>
</trkpt>
<trkpt lat="42.642817" lon="-1.245233">
<ele>1491</ele>
<time>2013-07-13T13:33:31.000Z</time>
</trkpt>
<trkpt lat="42.642814" lon="-1.245332">
<ele>1493</ele>
<time>2013-07-13T13:33:32.000Z</time>
</trkpt>
<trkpt lat="42.642814" lon="-1.245423">
<ele>1495</ele>
<time>2013-07-13T13:33:33.000Z</time>
</trkpt>
<trkpt lat="42.642816" lon="-1.24552">
<ele>1498</ele>
<time>2013-07-13T13:33:34.000Z</time>
</trkpt>
<trkpt lat="42.642832" lon="-1.245614">
<ele>1502</ele>
<time>2013-07-13T13:33:35.000Z</time>
</trkpt>
<trkpt lat="42.642855" lon="-1.245715">
<ele>1506</ele>
<time>2013-07-13T13:33:36.000Z</time>
</trkpt>
<trkpt lat="42.642885" lon="-1.245816">
<ele>1509</ele>
<time>2013-07-13T13:33:37.000Z</time>
</trkpt>
<trkpt lat="42.642936" lon="-1.245914">
<ele>1512</ele>
<time>2013-07-13T13:33:38.000Z</time>
</trkpt>
<trkpt lat="42.642987" lon="-1.246">
<ele>1516</ele>
<time>2013-07-13T13:33:39.000Z</time>
</trkpt>
<trkpt lat="42.643047" lon="-1.24605">
<ele>1518</ele>
<time>2013-07-13T13:33:40.000Z</time>
</trkpt>
<trkpt lat="42.643102" lon="-1.246065">
<ele>1520</ele>
<time>2013-07-13T13:33:41.000Z</time>
</trkpt>
<trkpt lat="42.643162" lon="-1.246073">
<ele>1522</ele>
<time>2013-07-13T13:33:42.000Z</time>
</trkpt>
<trkpt lat="42.643229" lon="-1.24606">
<ele>1524</ele>
<time>2013-07-13T13:33:43.000Z</time>
</trkpt>
<trkpt lat="42.643288" lon="-1.246044">
<ele>1527</ele>
<time>2013-07-13T13:33:44.000Z</time>
</trkpt>
<trkpt lat="42.643321" lon="-1.246">
<ele>1529</ele>
<time>2013-07-13T13:33:45.000Z</time>
</trkpt>
<trkpt lat="42.643332" lon="-1.245942">
<ele>1530</ele>
<time>2013-07-13T13:33:46.000Z</time>
</trkpt>
<trkpt lat="42.643341" lon="-1.245886">
<ele>1531</ele>
<time>2013-07-13T13:33:47.000Z</time>
</trkpt>
<trkpt lat="42.643346" lon="-1.245821">
<ele>1532</ele>
<time>2013-07-13T13:33:48.000Z</time>
</trkpt>
<trkpt lat="42.643356" lon="-1.245773">
<ele>1533</ele>
<time>2013-07-13T13:33:49.000Z</time>
</trkpt>
<trkpt lat="42.643367" lon="-1.24571">
<ele>1535</ele>
<time>2013-07-13T13:33:50.000Z</time>
</trkpt>
<trkpt lat="42.643379" lon="-1.245641">
<ele>1539</ele>
<time>2013-07-13T13:33:51.000Z</time>
</trkpt>
<trkpt lat="42.643372" lon="-1.245571">
<ele>1541</ele>
<time>2013-07-13T13:33:52.000Z</time>
</trkpt>
<trkpt lat="42.643358" lon="-1.245497">
<ele>1543</ele>
<time>2013-07-13T13:33:53.000Z</time>
</trkpt>
<trkpt lat="42.643329" lon="-1.245425">
<ele>1544</ele>
<time>2013-07-13T13:33:54.000Z</time>
</trkpt>
<trkpt lat="42.643289" lon="-1.245343">
<ele>1547</ele>
<time>2013-07-13T13:33:55.000Z</time>
</trkpt>
<trkpt lat="42.643242" lon="-1.245258">
<ele>1550</ele>
<time>2013-07-13T13:33:56.000Z</time>
</trkpt>
<trkpt lat="42.643172" lon="-1.245186">
<ele>1554</ele>
<time>2013-07-13T13:33:57.000Z</time>
</trkpt>
<trkpt lat="42.643096" lon="-1.245121">
<ele>1558</ele>
<time>2013-07-13T13:33:58.000Z</time>
</trkpt>
<trkpt lat="42.643018" lon="-1.245095">
<ele>1564</ele>
<time>2013-07-13T13:33:59.000Z</time>
</trkpt>
<trkpt lat="42.642953" lon="-1.245078">
<ele>1570</ele>
<time>2013-07-13T13:34:00.000Z</time>
</trkpt>
<trkpt lat="42.642885" lon="-1.245102">
<ele>1575</ele>
<time>2013-07-13T13:34:01.000Z</time>
</trkpt>
<trkpt lat="42.642805" lon="-1.245136">
<ele>1579</ele>
<time>2013-07-13T13:34:02.000Z</time>
</trkpt>
<trkpt lat="42.642731" lon="-1.245193">
<ele>1583</ele>
<time>2013-07-13T13:34:03.000Z</time>
</trkpt>
<trkpt lat="42.642659" lon="-1.245252">
<ele>1587</ele>
<time>2013-07-13T13:34:04.000Z</time>
</trkpt>
<trkpt lat="42.642599" lon="-1.245333">
<ele>1590</ele>
<time>2013-07-13T13:34:05.000Z</time>
</trkpt>
<trkpt lat="42.642537" lon="-1.245426">
<ele>1593</ele>
<time>2013-07-13T13:34:06.000Z</time>
</trkpt>
<trkpt lat="42.642484" lon="-1.245528">
<ele>1594</ele>
<time>2013-07-13T13:34:07.000Z</time>
</trkpt>
<trkpt lat="42.642458" lon="-1.245654">
<ele>1596</ele>
<time>2013-07-13T13:34:08.000Z</time>
</trkpt>
<trkpt lat="42.642439" lon="-1.24578">
<ele>1598</ele>
<time>2013-07-13T13:34:09.000Z</time>
</trkpt>
<trkpt lat="42.642427" lon="-1.245902">
<ele>1600</ele>
<time>2013-07-13T13:34:10.000Z</time>
</trkpt>
<trkpt lat="42.642423" lon="-1.246003">
<ele>1602</ele>
<time>2013-07-13T13:34:11.000Z</time>
</trkpt>
<trkpt lat="42.642438" lon="-1.246079">
<ele>1605</ele>
<time>2013-07-13T13:34:12.000Z</time>
</trkpt>
<trkpt lat="42.642451" lon="-1.246144">
<ele>1608</ele>
<time>2013-07-13T13:34:13.000Z</time>
</trkpt>
<trkpt lat="42.642464" lon="-1.246217">
<ele>1610</ele>
<time>2013-07-13T13:34:14.000Z</time>
</trkpt>
<trkpt lat="42.64248" lon="-1.246308">
<ele>1611</ele>
<time>2013-07-13T13:34:15.000Z</time>
</trkpt>
<trkpt lat="42.642501" lon="-1.246404">
<ele>1613</ele>
<time>2013-07-13T13:34:16.000Z</time>
</trkpt>
<trkpt lat="42.642552" lon="-1.246478">
<ele>1614</ele>
<time>2013-07-13T13:34:17.000Z</time>
</trkpt>
<trkpt lat="42.642598" lon="-1.246499">
<ele>1616</ele>
<time>2013-07-13T13:34:18.000Z</time>
</trkpt>
<trkpt lat="42.642622" lon="-1.246486">
<ele>1619</ele>
<time>2013-07-13T13:34:19.000Z</time>
</trkpt>
<trkpt lat="42.642643" lon="-1.246462">
<ele>1622</ele>
<time>2013-07-13T13:34:20.000Z</time>
</trkpt>
<trkpt lat="42.642658" lon="-1.246437">
<ele>1625</ele>
<time>2013-07-13T13:34:21.000Z</time>
</trkpt>
<trkpt lat="42.642674" lon="-1.246405">
<ele>1627</ele>
<time>2013-07-13T13:34:22.000Z</time>
</trkpt>
<trkpt lat="42.642683" lon="-1.246348">
<ele>1628</ele>
<time>2013-07-13T13:34:23.000Z</time>
</trkpt>
<trkpt lat="42.642692" lon="-1.246262">
<ele>1628</ele>
<time>2013-07-13T13:34:24.000Z</time>
</trkpt>
<trkpt lat="42.642675" lon="-1.246164">
<ele>1629</ele>
<time>2013-07-13T13:34:25.000Z</time>
</trkpt>
<trkpt lat="42.642636" lon="-1.246068">
<ele>1629</ele>
<time>2013-07-13T13:34:26.000Z</time>
</trkpt>
<trkpt lat="42.642595" lon="-1.245982">
<ele>1631</ele>
<time>2013-07-13T13:34:27.000Z</time>
</trkpt>
<trkpt lat="42.642534" lon="-1.245902">
<ele>1632</ele>
<time>2013-07-13T13:34:28.000Z</time>
</trkpt>
<trkpt lat="42.64248" lon="-1.245826">
<ele>1633</ele>
<time>2013-07-13T13:34:29.000Z</time>
</trkpt>
<trkpt lat="42.642445" lon="-1.245739">
<ele>1636</ele>
<time>2013-07-13T13:34:30.000Z</time>
</trkpt>
<trkpt lat="42.642412" lon="-1.245656">
<ele>1638</ele>
<time>2013-07-13T13:34:31.000Z</time>
</trkpt>
<trkpt lat="42.642377" lon="-1.245571">
<ele>1641</ele>
<time>2013-07-13T13:34:32.000Z</time>
</trkpt>
<trkpt lat="42.64234" lon="-1.245485">
<ele>1644</ele>
<time>2013-07-13T13:34:33.000Z</time>
</trkpt>
<trkpt lat="42.642289" lon="-1.245411">
<ele>1648</ele>
<time>2013-07-13T13:34:34.000Z</time>
</trkpt>
<trkpt lat="42.642229" lon="-1.245356">
<ele>1652</ele>
<time>2013-07-13T13:34:35.000Z</time>
</trkpt>
<trkpt lat="42.642158" lon="-1.245317">
<ele>1655</ele>
<time>2013-07-13T13:34:36.000Z</time>
</trkpt>
<trkpt lat="42.642085" lon="-1.245286">
<ele>1657</ele>
<time>2013-07-13T13:34:37.000Z</time>
</trkpt>
<trkpt lat="42.642012" lon="-1.245257">
<ele>1662</ele>
<time>2013-07-13T13:34:38.000Z</time>
</trkpt>
<trkpt lat="42.641936" lon="-1.245232">
<ele>1666</ele>
<time>2013-07-13T13:34:39.000Z</time>
</trkpt>
<trkpt lat="42.641856" lon="-1.245214">
<ele>1671</ele>
<time>2013-07-13T13:34:40.000Z</time>
</trkpt>
<trkpt lat="42.641774" lon="-1.245235">
<ele>1674</ele>
<time>2013-07-13T13:34:41.000Z</time>
</trkpt>
<trkpt lat="42.641678" lon="-1.245293">
<ele>1675</ele>
<time>2013-07-13T13:34:42.000Z</time>
</trkpt>
<trkpt lat="42.641573" lon="-1.245369">
<ele>1675</ele>
<time>2013-07-13T13:34:43.000Z</time>
</trkpt>
<trkpt lat="42.641487" lon="-1.245483">
<ele>1677</ele>
<time>2013-07-13T13:34:44.000Z</time>
</trkpt>
<trkpt lat="42.641411" lon="-1.245599">
<ele>1680</ele>
<time>2013-07-13T13:34:45.000Z</time>
</trkpt>
<trkpt lat="42.641366" lon="-1.245732">
<ele>1682</ele>
<time>2013-07-13T13:34:46.000Z</time>
</trkpt>
<trkpt lat="42.641328" lon="-1.24585">
<ele>1684</ele>
<time>2013-07-13T13:34:47.000Z</time>
</trkpt>
<trkpt lat="42.641297" lon="-1.245966">
<ele>1685</ele>
<time>2013-07-13T13:34:48.000Z</time>
</trkpt>
<trkpt lat="42.641272" lon="-1.246088">
<ele>1688</ele>
<time>2013-07-13T13:34:49.000Z</time>
</trkpt>
<trkpt lat="42.64127" lon="-1.24621">
<ele>1688</ele>
<time>2013-07-13T13:34:50.000Z</time>
</trkpt>
<trkpt lat="42.641273" lon="-1.246318">
<ele>1688</ele>
<time>2013-07-13T13:34:51.000Z</time>
</trkpt>
<trkpt lat="42.641296" lon="-1.246406">
<ele>1690</ele>
<time>2013-07-13T13:34:52.000Z</time>
</trkpt>
<trkpt lat="42.641316" lon="-1.246485">
<ele>1695</ele>
<time>2013-07-13T13:34:53.000Z</time>
</trkpt>
<trkpt lat="42.641339" lon="-1.24653">
<ele>1699</ele>
<time>2013-07-13T13:34:54.000Z</time>
</trkpt>
<trkpt lat="42.641362" lon="-1.246541">
<ele>1702</ele>
<time>2013-07-13T13:34:55.000Z</time>
</trkpt>
<trkpt lat="42.64139" lon="-1.246511">
<ele>1709</ele>
<time>2013-07-13T13:34:57.000Z</time>
</trkpt>
<trkpt lat="42.641407" lon="-1.246481">
<ele>1710</ele>
<time>2013-07-13T13:34:58.000Z</time>
</trkpt>
<trkpt lat="42.641427" lon="-1.246445">
<ele>1711</ele>
<time>2013-07-13T13:34:59.000Z</time>
</trkpt>
<trkpt lat="42.641455" lon="-1.246412">
<ele>1712</ele>
<time>2013-07-13T13:35:00.000Z</time>
</trkpt>
<trkpt lat="42.641488" lon="-1.246395">
<ele>1713</ele>
<time>2013-07-13T13:35:01.000Z</time>
</trkpt>
<trkpt lat="42.641522" lon="-1.246406">
<ele>1714</ele>
<time>2013-07-13T13:35:02.000Z</time>
</trkpt>
<trkpt lat="42.641557" lon="-1.246438">
<ele>1713</ele>
<time>2013-07-13T13:35:03.000Z</time>
</trkpt>
<trkpt lat="42.641597" lon="-1.246509">
<ele>1713</ele>
<time>2013-07-13T13:35:04.000Z</time>
</trkpt>
<trkpt lat="42.641641" lon="-1.246602">
<ele>1714</ele>
<time>2013-07-13T13:35:05.000Z</time>
</trkpt>
<trkpt lat="42.641669" lon="-1.246716">
<ele>1716</ele>
<time>2013-07-13T13:35:06.000Z</time>
</trkpt>
<trkpt lat="42.641689" lon="-1.246816">
<ele>1718</ele>
<time>2013-07-13T13:35:07.000Z</time>
</trkpt>
<trkpt lat="42.641686" lon="-1.246913">
<ele>1721</ele>
<time>2013-07-13T13:35:08.000Z</time>
</trkpt>
<trkpt lat="42.641677" lon="-1.247">
<ele>1723</ele>
<time>2013-07-13T13:35:09.000Z</time>
</trkpt>
<trkpt lat="42.64165" lon="-1.247097">
<ele>1724</ele>
<time>2013-07-13T13:35:10.000Z</time>
</trkpt>
<trkpt lat="42.641621" lon="-1.247209">
<ele>1723</ele>
<time>2013-07-13T13:35:11.000Z</time>
</trkpt>
<trkpt lat="42.64159" lon="-1.24733">
<ele>1723</ele>
<time>2013-07-13T13:35:12.000Z</time>
</trkpt>
<trkpt lat="42.641558" lon="-1.247459">
<ele>1723</ele>
<time>2013-07-13T13:35:13.000Z</time>
</trkpt>
<trkpt lat="42.641527" lon="-1.247584">
<ele>1723</ele>
<time>2013-07-13T13:35:14.000Z</time>
</trkpt>
<trkpt lat="42.641498" lon="-1.247701">
<ele>1724</ele>
<time>2013-07-13T13:35:15.000Z</time>
</trkpt>
<trkpt lat="42.64147" lon="-1.247816">
<ele>1724</ele>
<time>2013-07-13T13:35:16.000Z</time>
</trkpt>
<trkpt lat="42.641439" lon="-1.247935">
<ele>1723</ele>
<time>2013-07-13T13:35:17.000Z</time>
</trkpt>
<trkpt lat="42.641405" lon="-1.248065">
<ele>1723</ele>
<time>2013-07-13T13:35:18.000Z</time>
</trkpt>
<trkpt lat="42.641367" lon="-1.248204">
<ele>1723</ele>
<time>2013-07-13T13:35:19.000Z</time>
</trkpt>
<trkpt lat="42.641309" lon="-1.248323">
<ele>1721</ele>
<time>2013-07-13T13:35:20.000Z</time>
</trkpt>
<trkpt lat="42.641252" lon="-1.248425">
<ele>1719</ele>
<time>2013-07-13T13:35:21.000Z</time>
</trkpt>
<trkpt lat="42.641187" lon="-1.248493">
<ele>1722</ele>
<time>2013-07-13T13:35:22.000Z</time>
</trkpt>
<trkpt lat="42.641124" lon="-1.248554">
<ele>1725</ele>
<time>2013-07-13T13:35:23.000Z</time>
</trkpt>
<trkpt lat="42.641063" lon="-1.248621">
<ele>1726</ele>
<time>2013-07-13T13:35:24.000Z</time>
</trkpt>
<trkpt lat="42.641005" lon="-1.248696">
<ele>1725</ele>
<time>2013-07-13T13:35:25.000Z</time>
</trkpt>
<trkpt lat="42.640957" lon="-1.248805">
<ele>1724</ele>
<time>2013-07-13T13:35:26.000Z</time>
</trkpt>
<trkpt lat="42.640906" lon="-1.24892">
<ele>1723</ele>
<time>2013-07-13T13:35:27.000Z</time>
</trkpt>
<trkpt lat="42.640855" lon="-1.24903">
<ele>1723</ele>
<time>2013-07-13T13:35:28.000Z</time>
</trkpt>
<trkpt lat="42.640807" lon="-1.249121">
<ele>1723</ele>
<time>2013-07-13T13:35:29.000Z</time>
</trkpt>
<trkpt lat="42.640765" lon="-1.249193">
<ele>1723</ele>
<time>2013-07-13T13:35:30.000Z</time>
</trkpt>
<trkpt lat="42.640726" lon="-1.249264">
<ele>1722</ele>
<time>2013-07-13T13:35:31.000Z</time>
</trkpt>
<trkpt lat="42.6407" lon="-1.249361">
<ele>1721</ele>
<time>2013-07-13T13:35:32.000Z</time>
</trkpt>
<trkpt lat="42.640676" lon="-1.249466">
<ele>1720</ele>
<time>2013-07-13T13:35:33.000Z</time>
</trkpt>
<trkpt lat="42.640658" lon="-1.249571">
<ele>1718</ele>
<time>2013-07-13T13:35:34.000Z</time>
</trkpt>
<trkpt lat="42.640647" lon="-1.249663">
<ele>1716</ele>
<time>2013-07-13T13:35:35.000Z</time>
</trkpt>
<trkpt lat="42.640654" lon="-1.249746">
<ele>1714</ele>
<time>2013-07-13T13:35:36.000Z</time>
</trkpt>
<trkpt lat="42.640662" lon="-1.249813">
<ele>1712</ele>
<time>2013-07-13T13:35:37.000Z</time>
</trkpt>
<trkpt lat="42.640694" lon="-1.249874">
<ele>1711</ele>
<time>2013-07-13T13:35:38.000Z</time>
</trkpt>
<trkpt lat="42.640734" lon="-1.24993">
<ele>1709</ele>
<time>2013-07-13T13:35:39.000Z</time>
</trkpt>
<trkpt lat="42.640797" lon="-1.249929">
<ele>1707</ele>
<time>2013-07-13T13:35:40.000Z</time>
</trkpt>
<trkpt lat="42.640838" lon="-1.249911">
<ele>1701</ele>
<time>2013-07-13T13:35:41.000Z</time>
</trkpt>
<trkpt lat="42.640876" lon="-1.249888">
<ele>1697</ele>
<time>2013-07-13T13:35:42.000Z</time>
</trkpt>
<trkpt lat="42.64091" lon="-1.249846">
<ele>1694</ele>
<time>2013-07-13T13:35:43.000Z</time>
</trkpt>
<trkpt lat="42.640954" lon="-1.249789">
<ele>1690</ele>
<time>2013-07-13T13:35:44.000Z</time>
</trkpt>
<trkpt lat="42.641003" lon="-1.249723">
<ele>1686</ele>
<time>2013-07-13T13:35:45.000Z</time>
</trkpt>
<trkpt lat="42.641051" lon="-1.249649">
<ele>1682</ele>
<time>2013-07-13T13:35:46.000Z</time>
</trkpt>
<trkpt lat="42.641094" lon="-1.249573">
<ele>1678</ele>
<time>2013-07-13T13:35:47.000Z</time>
</trkpt>
<trkpt lat="42.641141" lon="-1.24949">
<ele>1675</ele>
<time>2013-07-13T13:35:48.000Z</time>
</trkpt>
<trkpt lat="42.64119" lon="-1.249405">
<ele>1672</ele>
<time>2013-07-13T13:35:49.000Z</time>
</trkpt>
<trkpt lat="42.641232" lon="-1.249321">
<ele>1667</ele>
<time>2013-07-13T13:35:50.000Z</time>
</trkpt>
<trkpt lat="42.64127" lon="-1.249229">
<ele>1664</ele>
<time>2013-07-13T13:35:51.000Z</time>
</trkpt>
<trkpt lat="42.641305" lon="-1.249135">
<ele>1663</ele>
<time>2013-07-13T13:35:52.000Z</time>
</trkpt>
<trkpt lat="42.641343" lon="-1.249042">
<ele>1660</ele>
<time>2013-07-13T13:35:53.000Z</time>
</trkpt>
<trkpt lat="42.641368" lon="-1.248955">
<ele>1656</ele>
<time>2013-07-13T13:35:54.000Z</time>
</trkpt>
<trkpt lat="42.641398" lon="-1.248852">
<ele>1654</ele>
<time>2013-07-13T13:35:55.000Z</time>
</trkpt>
<trkpt lat="42.641407" lon="-1.248746">
<ele>1652</ele>
<time>2013-07-13T13:35:56.000Z</time>
</trkpt>
<trkpt lat="42.64139" lon="-1.248645">
<ele>1650</ele>
<time>2013-07-13T13:35:57.000Z</time>
</trkpt>
<trkpt lat="42.641376" lon="-1.248555">
<ele>1647</ele>
<time>2013-07-13T13:35:58.000Z</time>
</trkpt>
<trkpt lat="42.641393" lon="-1.248511">
<ele>1645</ele>
<time>2013-07-13T13:35:59.000Z</time>
</trkpt>
<trkpt lat="42.641441" lon="-1.248494">
<ele>1642</ele>
<time>2013-07-13T13:36:00.000Z</time>
</trkpt>
<trkpt lat="42.641462" lon="-1.24841">
<ele>1640</ele>
<time>2013-07-13T13:36:01.000Z</time>
</trkpt>
<trkpt lat="42.641484" lon="-1.24831">
<ele>1638</ele>
<time>2013-07-13T13:36:02.000Z</time>
</trkpt>
<trkpt lat="42.641498" lon="-1.24822">
<ele>1633</ele>
<time>2013-07-13T13:36:03.000Z</time>
</trkpt>
<trkpt lat="42.641514" lon="-1.248134">
<ele>1630</ele>
<time>2013-07-13T13:36:04.000Z</time>
</trkpt>
<trkpt lat="42.641528" lon="-1.248057">
<ele>1626</ele>
<time>2013-07-13T13:36:05.000Z</time>
</trkpt>
<trkpt lat="42.641536" lon="-1.248003">
<ele>1623</ele>
<time>2013-07-13T13:36:06.000Z</time>
</trkpt>
<trkpt lat="42.641549" lon="-1.247937">
<ele>1620</ele>
<time>2013-07-13T13:36:07.000Z</time>
</trkpt>
<trkpt lat="42.64157" lon="-1.247848">
<ele>1617</ele>
<time>2013-07-13T13:36:08.000Z</time>
</trkpt>
<trkpt lat="42.641586" lon="-1.247765">
<ele>1615</ele>
<time>2013-07-13T13:36:09.000Z</time>
</trkpt>
<trkpt lat="42.641583" lon="-1.247689">
<ele>1613</ele>
<time>2013-07-13T13:36:10.000Z</time>
</trkpt>
<trkpt lat="42.641582" lon="-1.247619">
<ele>1611</ele>
<time>2013-07-13T13:36:11.000Z</time>
</trkpt>
<trkpt lat="42.641578" lon="-1.247545">
<ele>1607</ele>
<time>2013-07-13T13:36:12.000Z</time>
</trkpt>
<trkpt lat="42.641576" lon="-1.24746">
<ele>1602</ele>
<time>2013-07-13T13:36:13.000Z</time>
</trkpt>
<trkpt lat="42.641585" lon="-1.247358">
<ele>1599</ele>
<time>2013-07-13T13:36:14.000Z</time>
</trkpt>
<trkpt lat="42.641594" lon="-1.247264">
<ele>1597</ele>
<time>2013-07-13T13:36:15.000Z</time>
</trkpt>
<trkpt lat="42.641583" lon="-1.247181">
<ele>1596</ele>
<time>2013-07-13T13:36:16.000Z</time>
</trkpt>
<trkpt lat="42.641571" lon="-1.247119">
<ele>1594</ele>
<time>2013-07-13T13:36:17.000Z</time>
</trkpt>
<trkpt lat="42.641561" lon="-1.247064">
<ele>1591</ele>
<time>2013-07-13T13:36:18.000Z</time>
</trkpt>
<trkpt lat="42.641546" lon="-1.246996">
<ele>1589</ele>
<time>2013-07-13T13:36:19.000Z</time>
</trkpt>
<trkpt lat="42.641529" lon="-1.246918">
<ele>1585</ele>
<time>2013-07-13T13:36:20.000Z</time>
</trkpt>
<trkpt lat="42.641519" lon="-1.246833">
<ele>1584</ele>
<time>2013-07-13T13:36:21.000Z</time>
</trkpt>
<trkpt lat="42.641512" lon="-1.24674">
<ele>1583</ele>
<time>2013-07-13T13:36:22.000Z</time>
</trkpt>
<trkpt lat="42.641508" lon="-1.246658">
<ele>1582</ele>
<time>2013-07-13T13:36:23.000Z</time>
</trkpt>
<trkpt lat="42.641504" lon="-1.246579">
<ele>1581</ele>
<time>2013-07-13T13:36:24.000Z</time>
</trkpt>
<trkpt lat="42.641498" lon="-1.246497">
<ele>1579</ele>
<time>2013-07-13T13:36:25.000Z</time>
</trkpt>
<trkpt lat="42.641492" lon="-1.246407">
<ele>1577</ele>
<time>2013-07-13T13:36:26.000Z</time>
</trkpt>
<trkpt lat="42.641491" lon="-1.24631">
<ele>1575</ele>
<time>2013-07-13T13:36:27.000Z</time>
</trkpt>
<trkpt lat="42.641491" lon="-1.246213">
<ele>1572</ele>
<time>2013-07-13T13:36:28.000Z</time>
</trkpt>
<trkpt lat="42.641497" lon="-1.24611">
<ele>1571</ele>
<time>2013-07-13T13:36:29.000Z</time>
</trkpt>
<trkpt lat="42.641508" lon="-1.246014">
<ele>1569</ele>
<time>2013-07-13T13:36:30.000Z</time>
</trkpt>
<trkpt lat="42.641523" lon="-1.245927">
<ele>1568</ele>
<time>2013-07-13T13:36:31.000Z</time>
</trkpt>
<trkpt lat="42.641538" lon="-1.24585">
<ele>1567</ele>
<time>2013-07-13T13:36:32.000Z</time>
</trkpt>
<trkpt lat="42.641552" lon="-1.245774">
<ele>1567</ele>
<time>2013-07-13T13:36:33.000Z</time>
</trkpt>
<trkpt lat="42.641565" lon="-1.24569">
<ele>1567</ele>
<time>2013-07-13T13:36:34.000Z</time>
</trkpt>
<trkpt lat="42.641576" lon="-1.245609">
<ele>1567</ele>
<time>2013-07-13T13:36:35.000Z</time>
</trkpt>
<trkpt lat="42.641588" lon="-1.245531">
<ele>1567</ele>
<time>2013-07-13T13:36:36.000Z</time>
</trkpt>
<trkpt lat="42.6416" lon="-1.245464">
<ele>1568</ele>
<time>2013-07-13T13:36:37.000Z</time>
</trkpt>
<trkpt lat="42.641614" lon="-1.245409">
<ele>1569</ele>
<time>2013-07-13T13:36:38.000Z</time>
</trkpt>
<trkpt lat="42.641628" lon="-1.245363">
<ele>1569</ele>
<time>2013-07-13T13:36:39.000Z</time>
</trkpt>
<trkpt lat="42.641647" lon="-1.245314">
<ele>1570</ele>
<time>2013-07-13T13:36:40.000Z</time>
</trkpt>
<trkpt lat="42.641672" lon="-1.245263">
<ele>1571</ele>
<time>2013-07-13T13:36:41.000Z</time>
</trkpt>
<trkpt lat="42.6417" lon="-1.245212">
<ele>1571</ele>
<time>2013-07-13T13:36:42.000Z</time>
</trkpt>
<trkpt lat="42.641731" lon="-1.245159">
<ele>1571</ele>
<time>2013-07-13T13:36:43.000Z</time>
</trkpt>
<trkpt lat="42.641768" lon="-1.245102">
<ele>1571</ele>
<time>2013-07-13T13:36:44.000Z</time>
</trkpt>
<trkpt lat="42.641804" lon="-1.245039">
<ele>1571</ele>
<time>2013-07-13T13:36:45.000Z</time>
</trkpt>
<trkpt lat="42.641837" lon="-1.244977">
<ele>1571</ele>
<time>2013-07-13T13:36:46.000Z</time>
</trkpt>
<trkpt lat="42.641865" lon="-1.244913">
<ele>1570</ele>
<time>2013-07-13T13:36:47.000Z</time>
</trkpt>
<trkpt lat="42.641884" lon="-1.24483">
<ele>1570</ele>
<time>2013-07-13T13:36:48.000Z</time>
</trkpt>
<trkpt lat="42.641903" lon="-1.244732">
<ele>1569</ele>
<time>2013-07-13T13:36:49.000Z</time>
</trkpt>
<trkpt lat="42.641921" lon="-1.244625">
<ele>1570</ele>
<time>2013-07-13T13:36:50.000Z</time>
</trkpt>
<trkpt lat="42.641933" lon="-1.244538">
<ele>1569</ele>
<time>2013-07-13T13:36:51.000Z</time>
</trkpt>
<trkpt lat="42.641943" lon="-1.244453">
<ele>1570</ele>
<time>2013-07-13T13:36:52.000Z</time>
</trkpt>
<trkpt lat="42.641953" lon="-1.244367">
<ele>1572</ele>
<time>2013-07-13T13:36:53.000Z</time>
</trkpt>
<trkpt lat="42.641958" lon="-1.244286">
<ele>1573</ele>
<time>2013-07-13T13:36:54.000Z</time>
</trkpt>
<trkpt lat="42.641959" lon="-1.244204">
<ele>1575</ele>
<time>2013-07-13T13:36:55.000Z</time>
</trkpt>
<trkpt lat="42.641961" lon="-1.244119">
<ele>1577</ele>
<time>2013-07-13T13:36:56.000Z</time>
</trkpt>
<trkpt lat="42.641969" lon="-1.244027">
<ele>1581</ele>
<time>2013-07-13T13:36:57.000Z</time>
</trkpt>
<trkpt lat="42.641979" lon="-1.243945">
<ele>1584</ele>
<time>2013-07-13T13:36:58.000Z</time>
</trkpt>
<trkpt lat="42.64199" lon="-1.243879">
<ele>1585</ele>
<time>2013-07-13T13:36:59.000Z</time>
</trkpt>
<trkpt lat="42.642" lon="-1.243818">
<ele>1587</ele>
<time>2013-07-13T13:37:00.000Z</time>
</trkpt>
<trkpt lat="42.642009" lon="-1.24375">
<ele>1587</ele>
<time>2013-07-13T13:37:01.000Z</time>
</trkpt>
<trkpt lat="42.642015" lon="-1.243697">
<ele>1589</ele>
<time>2013-07-13T13:37:02.000Z</time>
</trkpt>
<trkpt lat="42.642028" lon="-1.243654">
<ele>1590</ele>
<time>2013-07-13T13:37:03.000Z</time>
</trkpt>
<trkpt lat="42.642045" lon="-1.2436">
<ele>1591</ele>
<time>2013-07-13T13:37:04.000Z</time>
</trkpt>
<trkpt lat="42.642067" lon="-1.243529">
<ele>1591</ele>
<time>2013-07-13T13:37:05.000Z</time>
</trkpt>
<trkpt lat="42.642091" lon="-1.243438">
<ele>1591</ele>
<time>2013-07-13T13:37:06.000Z</time>
</trkpt>
<trkpt lat="42.642111" lon="-1.243341">
<ele>1592</ele>
<time>2013-07-13T13:37:07.000Z</time>
</trkpt>
<trkpt lat="42.642128" lon="-1.243231">
<ele>1593</ele>
<time>2013-07-13T13:37:08.000Z</time>
</trkpt>
<trkpt lat="42.64214" lon="-1.243113">
<ele>1595</ele>
<time>2013-07-13T13:37:09.000Z</time>
</trkpt>
<trkpt lat="42.642148" lon="-1.243008">
<ele>1597</ele>
<time>2013-07-13T13:37:10.000Z</time>
</trkpt>
<trkpt lat="42.642156" lon="-1.242913">
<ele>1601</ele>
<time>2013-07-13T13:37:11.000Z</time>
</trkpt>
<trkpt lat="42.642166" lon="-1.242833">
<ele>1604</ele>
<time>2013-07-13T13:37:12.000Z</time>
</trkpt>
<trkpt lat="42.642172" lon="-1.242766">
<ele>1605</ele>
<time>2013-07-13T13:37:13.000Z</time>
</trkpt>
<trkpt lat="42.642198" lon="-1.242709">
<ele>1607</ele>
<time>2013-07-13T13:37:14.000Z</time>
</trkpt>
<trkpt lat="42.64223" lon="-1.242639">
<ele>1608</ele>
<time>2013-07-13T13:37:15.000Z</time>
</trkpt>
<trkpt lat="42.642267" lon="-1.242561">
<ele>1610</ele>
<time>2013-07-13T13:37:16.000Z</time>
</trkpt>
<trkpt lat="42.642303" lon="-1.242484">
<ele>1612</ele>
<time>2013-07-13T13:37:17.000Z</time>
</trkpt>
<trkpt lat="42.642338" lon="-1.242406">
<ele>1613</ele>
<time>2013-07-13T13:37:18.000Z</time>
</trkpt>
<trkpt lat="42.642372" lon="-1.242319">
<ele>1614</ele>
<time>2013-07-13T13:37:19.000Z</time>
</trkpt>
<trkpt lat="42.642407" lon="-1.242229">
<ele>1615</ele>
<time>2013-07-13T13:37:20.000Z</time>
</trkpt>
<trkpt lat="42.642435" lon="-1.242143">
<ele>1616</ele>
<time>2013-07-13T13:37:21.000Z</time>
</trkpt>
<trkpt lat="42.642448" lon="-1.242053">
<ele>1617</ele>
<time>2013-07-13T13:37:22.000Z</time>
</trkpt>
<trkpt lat="42.642456" lon="-1.24196">
<ele>1617</ele>
<time>2013-07-13T13:37:23.000Z</time>
</trkpt>
<trkpt lat="42.642463" lon="-1.24187">
<ele>1619</ele>
<time>2013-07-13T13:37:24.000Z</time>
</trkpt>
<trkpt lat="42.642468" lon="-1.241792">
<ele>1619</ele>
<time>2013-07-13T13:37:25.000Z</time>
</trkpt>
<trkpt lat="42.642478" lon="-1.241705">
<ele>1619</ele>
<time>2013-07-13T13:37:26.000Z</time>
</trkpt>
<trkpt lat="42.642491" lon="-1.241603">
<ele>1619</ele>
<time>2013-07-13T13:37:27.000Z</time>
</trkpt>
<trkpt lat="42.642505" lon="-1.241493">
<ele>1619</ele>
<time>2013-07-13T13:37:28.000Z</time>
</trkpt>
<trkpt lat="42.642517" lon="-1.241365">
<ele>1620</ele>
<time>2013-07-13T13:37:29.000Z</time>
</trkpt>
<trkpt lat="42.642507" lon="-1.241237">
<ele>1621</ele>
<time>2013-07-13T13:37:30.000Z</time>
</trkpt>
<trkpt lat="42.642493" lon="-1.241115">
<ele>1622</ele>
<time>2013-07-13T13:37:31.000Z</time>
</trkpt>
<trkpt lat="42.642477" lon="-1.241001">
<ele>1622</ele>
<time>2013-07-13T13:37:32.000Z</time>
</trkpt>
<trkpt lat="42.642461" lon="-1.240885">
<ele>1623</ele>
<time>2013-07-13T13:37:33.000Z</time>
</trkpt>
<trkpt lat="42.642443" lon="-1.240777">
<ele>1624</ele>
<time>2013-07-13T13:37:34.000Z</time>
</trkpt>
<trkpt lat="42.642427" lon="-1.240675">
<ele>1625</ele>
<time>2013-07-13T13:37:35.000Z</time>
</trkpt>
<trkpt lat="42.642412" lon="-1.240578">
<ele>1626</ele>
<time>2013-07-13T13:37:36.000Z</time>
</trkpt>
<trkpt lat="42.642402" lon="-1.240466">
<ele>1627</ele>
<time>2013-07-13T13:37:37.000Z</time>
</trkpt>
<trkpt lat="42.642397" lon="-1.240341">
<ele>1628</ele>
<time>2013-07-13T13:37:38.000Z</time>
</trkpt>
<trkpt lat="42.642395" lon="-1.240208">
<ele>1627</ele>
<time>2013-07-13T13:37:39.000Z</time>
</trkpt>
<trkpt lat="42.642395" lon="-1.240085">
<ele>1627</ele>
<time>2013-07-13T13:37:40.000Z</time>
</trkpt>
<trkpt lat="42.642399" lon="-1.239978">
<ele>1626</ele>
<time>2013-07-13T13:37:41.000Z</time>
</trkpt>
<trkpt lat="42.642405" lon="-1.23988">
<ele>1626</ele>
<time>2013-07-13T13:37:42.000Z</time>
</trkpt>
<trkpt lat="42.642414" lon="-1.239787">
<ele>1625</ele>
<time>2013-07-13T13:37:43.000Z</time>
</trkpt>
<trkpt lat="42.642443" lon="-1.239692">
<ele>1624</ele>
<time>2013-07-13T13:37:44.000Z</time>
</trkpt>
<trkpt lat="42.642475" lon="-1.239583">
<ele>1623</ele>
<time>2013-07-13T13:37:45.000Z</time>
</trkpt>
<trkpt lat="42.642507" lon="-1.239463">
<ele>1622</ele>
<time>2013-07-13T13:37:46.000Z</time>
</trkpt>
<trkpt lat="42.642534" lon="-1.239342">
<ele>1622</ele>
<time>2013-07-13T13:37:47.000Z</time>
</trkpt>
<trkpt lat="42.642556" lon="-1.239228">
<ele>1622</ele>
<time>2013-07-13T13:37:48.000Z</time>
</trkpt>
<trkpt lat="42.642578" lon="-1.239126">
<ele>1621</ele>
<time>2013-07-13T13:37:49.000Z</time>
</trkpt>
<trkpt lat="42.642606" lon="-1.239022">
<ele>1620</ele>
<time>2013-07-13T13:37:50.000Z</time>
</trkpt>
<trkpt lat="42.64264" lon="-1.238898">
<ele>1619</ele>
<time>2013-07-13T13:37:51.000Z</time>
</trkpt>
<trkpt lat="42.642669" lon="-1.238783">
<ele>1619</ele>
<time>2013-07-13T13:37:52.000Z</time>
</trkpt>
<trkpt lat="42.642692" lon="-1.238671">
<ele>1617</ele>
<time>2013-07-13T13:37:53.000Z</time>
</trkpt>
<trkpt lat="42.642711" lon="-1.238572">
<ele>1615</ele>
<time>2013-07-13T13:37:54.000Z</time>
</trkpt>
<trkpt lat="42.642733" lon="-1.238478">
<ele>1612</ele>
<time>2013-07-13T13:37:55.000Z</time>
</trkpt>
<trkpt lat="42.642776" lon="-1.238392">
<ele>1611</ele>
<time>2013-07-13T13:37:56.000Z</time>
</trkpt>
<trkpt lat="42.642818" lon="-1.238303">
<ele>1610</ele>
<time>2013-07-13T13:37:57.000Z</time>
</trkpt>
<trkpt lat="42.642834" lon="-1.238204">
<ele>1608</ele>
<time>2013-07-13T13:37:58.000Z</time>
</trkpt>
<trkpt lat="42.642843" lon="-1.2381">
<ele>1603</ele>
<time>2013-07-13T13:37:59.000Z</time>
</trkpt>
<trkpt lat="42.642854" lon="-1.237985">
<ele>1599</ele>
<time>2013-07-13T13:38:00.000Z</time>
</trkpt>
<trkpt lat="42.642863" lon="-1.237872">
<ele>1595</ele>
<time>2013-07-13T13:38:01.000Z</time>
</trkpt>
<trkpt lat="42.642876" lon="-1.237768">
<ele>1592</ele>
<time>2013-07-13T13:38:02.000Z</time>
</trkpt>
<trkpt lat="42.64289" lon="-1.23766">
<ele>1589</ele>
<time>2013-07-13T13:38:03.000Z</time>
</trkpt>
<trkpt lat="42.642904" lon="-1.237556">
<ele>1585</ele>
<time>2013-07-13T13:38:04.000Z</time>
</trkpt>
<trkpt lat="42.642919" lon="-1.237446">
<ele>1581</ele>
<time>2013-07-13T13:38:05.000Z</time>
</trkpt>
<trkpt lat="42.642932" lon="-1.237326">
<ele>1577</ele>
<time>2013-07-13T13:38:06.000Z</time>
</trkpt>
<trkpt lat="42.642944" lon="-1.237203">
<ele>1574</ele>
<time>2013-07-13T13:38:07.000Z</time>
</trkpt>
<trkpt lat="42.642956" lon="-1.237057">
<ele>1571</ele>
<time>2013-07-13T13:38:08.000Z</time>
</trkpt>
<trkpt lat="42.642964" lon="-1.236931">
<ele>1569</ele>
<time>2013-07-13T13:38:09.000Z</time>
</trkpt>
<trkpt lat="42.64297" lon="-1.236829">
<ele>1568</ele>
<time>2013-07-13T13:38:10.000Z</time>
</trkpt>
<trkpt lat="42.642994" lon="-1.236751">
<ele>1566</ele>
<time>2013-07-13T13:38:11.000Z</time>
</trkpt>
<trkpt lat="42.643021" lon="-1.23665">
<ele>1563</ele>
<time>2013-07-13T13:38:12.000Z</time>
</trkpt>
<trkpt lat="42.643046" lon="-1.236518">
<ele>1555</ele>
<time>2013-07-13T13:38:13.000Z</time>
</trkpt>
<trkpt lat="42.643085" lon="-1.23636">
<ele>1552</ele>
<time>2013-07-13T13:38:14.000Z</time>
</trkpt>
<trkpt lat="42.643168" lon="-1.236275">
<ele>1551</ele>
<time>2013-07-13T13:38:15.000Z</time>
</trkpt>
<trkpt lat="42.643234" lon="-1.236204">
<ele>1548</ele>
<time>2013-07-13T13:38:16.000Z</time>
</trkpt>
<trkpt lat="42.643286" lon="-1.236144">
<ele>1545</ele>
<time>2013-07-13T13:38:17.000Z</time>
</trkpt>
<trkpt lat="42.643306" lon="-1.236113">
<ele>1537</ele>
<time>2013-07-13T13:38:18.000Z</time>
</trkpt>
<trkpt lat="42.643321" lon="-1.236087">
<ele>1533</ele>
<time>2013-07-13T13:38:19.000Z</time>
</trkpt>
<trkpt lat="42.643353" lon="-1.236048">
<ele>1534</ele>
<time>2013-07-13T13:38:20.000Z</time>
</trkpt>
<trkpt lat="42.643376" lon="-1.236006">
<ele>1532</ele>
<time>2013-07-13T13:38:21.000Z</time>
</trkpt>
<trkpt lat="42.643407" lon="-1.235968">
<ele>1527</ele>
<time>2013-07-13T13:38:23.000Z</time>
</trkpt>
<trkpt lat="42.643444" lon="-1.235948">
<ele>1521</ele>
<time>2013-07-13T13:38:24.000Z</time>
</trkpt>
<trkpt lat="42.643488" lon="-1.235903">
<ele>1515</ele>
<time>2013-07-13T13:38:25.000Z</time>
</trkpt>
<trkpt lat="42.643534" lon="-1.235854">
<ele>1514</ele>
<time>2013-07-13T13:38:26.000Z</time>
</trkpt>
<trkpt lat="42.64358" lon="-1.235807">
<ele>1513</ele>
<time>2013-07-13T13:38:27.000Z</time>
</trkpt>
<trkpt lat="42.643624" lon="-1.235761">
<ele>1513</ele>
<time>2013-07-13T13:38:28.000Z</time>
</trkpt>
<trkpt lat="42.643669" lon="-1.235741">
<ele>1511</ele>
<time>2013-07-13T13:38:29.000Z</time>
</trkpt>
<trkpt lat="42.643715" lon="-1.235721">
<ele>1508</ele>
<time>2013-07-13T13:38:30.000Z</time>
</trkpt>
<trkpt lat="42.643764" lon="-1.235697">
<ele>1507</ele>
<time>2013-07-13T13:38:31.000Z</time>
</trkpt>
<trkpt lat="42.643816" lon="-1.23567">
<ele>1502</ele>
<time>2013-07-13T13:38:32.000Z</time>
</trkpt>
<trkpt lat="42.643872" lon="-1.235649">
<ele>1499</ele>
<time>2013-07-13T13:38:33.000Z</time>
</trkpt>
<trkpt lat="42.643925" lon="-1.23563">
<ele>1498</ele>
<time>2013-07-13T13:38:34.000Z</time>
</trkpt>
<trkpt lat="42.64397" lon="-1.235619">
<ele>1497</ele>
<time>2013-07-13T13:38:35.000Z</time>
</trkpt>
<trkpt lat="42.644013" lon="-1.23561">
<ele>1497</ele>
<time>2013-07-13T13:38:36.000Z</time>
</trkpt>
<trkpt lat="42.644055" lon="-1.235606">
<ele>1496</ele>
<time>2013-07-13T13:38:37.000Z</time>
</trkpt>
<trkpt lat="42.644101" lon="-1.235646">
<ele>1488</ele>
<time>2013-07-13T13:38:38.000Z</time>
</trkpt>
<trkpt lat="42.644148" lon="-1.235693">
<ele>1485</ele>
<time>2013-07-13T13:38:39.000Z</time>
</trkpt>
<trkpt lat="42.644185" lon="-1.23571">
<ele>1482</ele>
<time>2013-07-13T13:38:40.000Z</time>
</trkpt>
<trkpt lat="42.644241" lon="-1.235742">
<ele>1480</ele>
<time>2013-07-13T13:38:41.000Z</time>
</trkpt>
<trkpt lat="42.644298" lon="-1.235775">
<ele>1478</ele>
<time>2013-07-13T13:38:42.000Z</time>
</trkpt>
<trkpt lat="42.644359" lon="-1.235822">
<ele>1473</ele>
<time>2013-07-13T13:38:43.000Z</time>
</trkpt>
<trkpt lat="42.644421" lon="-1.235871">
<ele>1469</ele>
<time>2013-07-13T13:38:44.000Z</time>
</trkpt>
<trkpt lat="42.64446" lon="-1.235934">
<ele>1466</ele>
<time>2013-07-13T13:38:45.000Z</time>
</trkpt>
<trkpt lat="42.644503" lon="-1.236006">
<ele>1459</ele>
<time>2013-07-13T13:38:46.000Z</time>
</trkpt>
<trkpt lat="42.644539" lon="-1.236055">
<ele>1457</ele>
<time>2013-07-13T13:38:47.000Z</time>
</trkpt>
<trkpt lat="42.644574" lon="-1.236103">
<ele>1456</ele>
<time>2013-07-13T13:38:48.000Z</time>
</trkpt>
<trkpt lat="42.644615" lon="-1.236161">
<ele>1456</ele>
<time>2013-07-13T13:38:49.000Z</time>
</trkpt>
<trkpt lat="42.644657" lon="-1.236226">
<ele>1455</ele>
<time>2013-07-13T13:38:50.000Z</time>
</trkpt>
<trkpt lat="42.644695" lon="-1.236316">
<ele>1450</ele>
<time>2013-07-13T13:38:51.000Z</time>
</trkpt>
<trkpt lat="42.64473" lon="-1.236405">
<ele>1444</ele>
<time>2013-07-13T13:38:52.000Z</time>
</trkpt>
<trkpt lat="42.644748" lon="-1.236492">
<ele>1438</ele>
<time>2013-07-13T13:38:53.000Z</time>
</trkpt>
<trkpt lat="42.644761" lon="-1.236563">
<ele>1435</ele>
<time>2013-07-13T13:38:54.000Z</time>
</trkpt>
<trkpt lat="42.644771" lon="-1.236633">
<ele>1435</ele>
<time>2013-07-13T13:38:55.000Z</time>
</trkpt>
<trkpt lat="42.644781" lon="-1.236712">
<ele>1432</ele>
<time>2013-07-13T13:38:56.000Z</time>
</trkpt>
<trkpt lat="42.644789" lon="-1.236797">
<ele>1430</ele>
<time>2013-07-13T13:38:57.000Z</time>
</trkpt>
<trkpt lat="42.644799" lon="-1.236889">
<ele>1427</ele>
<time>2013-07-13T13:38:58.000Z</time>
</trkpt>
<trkpt lat="42.644812" lon="-1.236981">
<ele>1426</ele>
<time>2013-07-13T13:38:59.000Z</time>
</trkpt>
<trkpt lat="42.644829" lon="-1.237073">
<ele>1425</ele>
<time>2013-07-13T13:39:00.000Z</time>
</trkpt>
<trkpt lat="42.644844" lon="-1.237159">
<ele>1423</ele>
<time>2013-07-13T13:39:01.000Z</time>
</trkpt>
<trkpt lat="42.64486" lon="-1.23724">
<ele>1422</ele>
<time>2013-07-13T13:39:02.000Z</time>
</trkpt>
<trkpt lat="42.644876" lon="-1.237331">
<ele>1421</ele>
<time>2013-07-13T13:39:03.000Z</time>
</trkpt>
<trkpt lat="42.644897" lon="-1.237427">
<ele>1420</ele>
<time>2013-07-13T13:39:04.000Z</time>
</trkpt>
<trkpt lat="42.644921" lon="-1.237521">
<ele>1420</ele>
<time>2013-07-13T13:39:05.000Z</time>
</trkpt>
<trkpt lat="42.644946" lon="-1.2376">
<ele>1420</ele>
<time>2013-07-13T13:39:06.000Z</time>
</trkpt>
<trkpt lat="42.644971" lon="-1.237665">
<ele>1418</ele>
<time>2013-07-13T13:39:07.000Z</time>
</trkpt>
<trkpt lat="42.644998" lon="-1.237728">
<ele>1418</ele>
<time>2013-07-13T13:39:08.000Z</time>
</trkpt>
<trkpt lat="42.645031" lon="-1.237797">
<ele>1417</ele>
<time>2013-07-13T13:39:09.000Z</time>
</trkpt>
<trkpt lat="42.645063" lon="-1.237866">
<ele>1419</ele>
<time>2013-07-13T13:39:10.000Z</time>
</trkpt>
<trkpt lat="42.645091" lon="-1.23793">
<ele>1421</ele>
<time>2013-07-13T13:39:11.000Z</time>
</trkpt>
<trkpt lat="42.645113" lon="-1.237993">
<ele>1420</ele>
<time>2013-07-13T13:39:12.000Z</time>
</trkpt>
<trkpt lat="42.645131" lon="-1.238057">
<ele>1421</ele>
<time>2013-07-13T13:39:13.000Z</time>
</trkpt>
<trkpt lat="42.645147" lon="-1.238122">
<ele>1422</ele>
<time>2013-07-13T13:39:14.000Z</time>
</trkpt>
<trkpt lat="42.645161" lon="-1.23819">
<ele>1422</ele>
<time>2013-07-13T13:39:15.000Z</time>
</trkpt>
<trkpt lat="42.64518" lon="-1.238256">
<ele>1422</ele>
<time>2013-07-13T13:39:16.000Z</time>
</trkpt>
<trkpt lat="42.645219" lon="-1.238305">
<ele>1423</ele>
<time>2013-07-13T13:39:17.000Z</time>
</trkpt>
<trkpt lat="42.645264" lon="-1.238336">
<ele>1425</ele>
<time>2013-07-13T13:39:18.000Z</time>
</trkpt>
<trkpt lat="42.645307" lon="-1.238362">
<ele>1426</ele>
<time>2013-07-13T13:39:19.000Z</time>
</trkpt>
<trkpt lat="42.645351" lon="-1.23839">
<ele>1429</ele>
<time>2013-07-13T13:39:20.000Z</time>
</trkpt>
<trkpt lat="42.645379" lon="-1.238444">
<ele>1431</ele>
<time>2013-07-13T13:39:21.000Z</time>
</trkpt>
<trkpt lat="42.645397" lon="-1.238503">
<ele>1433</ele>
<time>2013-07-13T13:39:22.000Z</time>
</trkpt>
<trkpt lat="42.645415" lon="-1.238557">
<ele>1436</ele>
<time>2013-07-13T13:39:23.000Z</time>
</trkpt>
<trkpt lat="42.645437" lon="-1.238594">
<ele>1438</ele>
<time>2013-07-13T13:39:24.000Z</time>
</trkpt>
<trkpt lat="42.645462" lon="-1.238617">
<ele>1441</ele>
<time>2013-07-13T13:39:25.000Z</time>
</trkpt>
<trkpt lat="42.645483" lon="-1.23864">
<ele>1443</ele>
<time>2013-07-13T13:39:26.000Z</time>
</trkpt>
<trkpt lat="42.645499" lon="-1.238672">
<ele>1445</ele>
<time>2013-07-13T13:39:27.000Z</time>
</trkpt>
<trkpt lat="42.645508" lon="-1.238723">
<ele>1448</ele>
<time>2013-07-13T13:39:28.000Z</time>
</trkpt>
<trkpt lat="42.645517" lon="-1.238782">
<ele>1450</ele>
<time>2013-07-13T13:39:29.000Z</time>
</trkpt>
<trkpt lat="42.645513" lon="-1.238854">
<ele>1451</ele>
<time>2013-07-13T13:39:30.000Z</time>
</trkpt>
<trkpt lat="42.645507" lon="-1.238921">
<ele>1453</ele>
<time>2013-07-13T13:39:31.000Z</time>
</trkpt>
<trkpt lat="42.645495" lon="-1.239">
<ele>1455</ele>
<time>2013-07-13T13:39:32.000Z</time>
</trkpt>
<trkpt lat="42.645483" lon="-1.239097">
<ele>1457</ele>
<time>2013-07-13T13:39:33.000Z</time>
</trkpt>
<trkpt lat="42.64547" lon="-1.239203">
<ele>1459</ele>
<time>2013-07-13T13:39:34.000Z</time>
</trkpt>
<trkpt lat="42.64547" lon="-1.239277">
<ele>1461</ele>
<time>2013-07-13T13:39:35.000Z</time>
</trkpt>
<trkpt lat="42.645511" lon="-1.239261">
<ele>1480</ele>
<time>2013-07-13T13:39:39.000Z</time>
</trkpt>
<trkpt lat="42.645535" lon="-1.23921">
<ele>1482</ele>
<time>2013-07-13T13:39:40.000Z</time>
</trkpt>
<trkpt lat="42.645563" lon="-1.239136">
<ele>1485</ele>
<time>2013-07-13T13:39:41.000Z</time>
</trkpt>
<trkpt lat="42.645568" lon="-1.239046">
<ele>1487</ele>
<time>2013-07-13T13:39:42.000Z</time>
</trkpt>
<trkpt lat="42.645554" lon="-1.238952">
<ele>1489</ele>
<time>2013-07-13T13:39:43.000Z</time>
</trkpt>
<trkpt lat="42.645542" lon="-1.238876">
<ele>1492</ele>
<time>2013-07-13T13:39:44.000Z</time>
</trkpt>
<trkpt lat="42.645541" lon="-1.238805">
<ele>1494</ele>
<time>2013-07-13T13:39:45.000Z</time>
</trkpt>
<trkpt lat="42.645543" lon="-1.238716">
<ele>1496</ele>
<time>2013-07-13T13:39:46.000Z</time>
</trkpt>
<trkpt lat="42.645542" lon="-1.238614">
<ele>1498</ele>
<time>2013-07-13T13:39:47.000Z</time>
</trkpt>
<trkpt lat="42.645538" lon="-1.238495">
<ele>1502</ele>
<time>2013-07-13T13:39:48.000Z</time>
</trkpt>
<trkpt lat="42.645511" lon="-1.238386">
<ele>1505</ele>
<time>2013-07-13T13:39:49.000Z</time>
</trkpt>
<trkpt lat="42.645481" lon="-1.238282">
<ele>1507</ele>
<time>2013-07-13T13:39:50.000Z</time>
</trkpt>
<trkpt lat="42.645444" lon="-1.238167">
<ele>1511</ele>
<time>2013-07-13T13:39:51.000Z</time>
</trkpt>
<trkpt lat="42.645391" lon="-1.23805">
<ele>1516</ele>
<time>2013-07-13T13:39:52.000Z</time>
</trkpt>
<trkpt lat="42.64533" lon="-1.237951">
<ele>1518</ele>
<time>2013-07-13T13:39:53.000Z</time>
</trkpt>
<trkpt lat="42.645247" lon="-1.237893">
<ele>1520</ele>
<time>2013-07-13T13:39:54.000Z</time>
</trkpt>
<trkpt lat="42.645164" lon="-1.237841">
<ele>1522</ele>
<time>2013-07-13T13:39:55.000Z</time>
</trkpt>
<trkpt lat="42.645079" lon="-1.237803">
<ele>1526</ele>
<time>2013-07-13T13:39:56.000Z</time>
</trkpt>
<trkpt lat="42.644994" lon="-1.237779">
<ele>1528</ele>
<time>2013-07-13T13:39:57.000Z</time>
</trkpt>
<trkpt lat="42.644908" lon="-1.237761">
<ele>1531</ele>
<time>2013-07-13T13:39:58.000Z</time>
</trkpt>
<trkpt lat="42.644827" lon="-1.23775">
<ele>1533</ele>
<time>2013-07-13T13:39:59.000Z</time>
</trkpt>
<trkpt lat="42.64474" lon="-1.237746">
<ele>1534</ele>
<time>2013-07-13T13:40:00.000Z</time>
</trkpt>
<trkpt lat="42.644658" lon="-1.237775">
<ele>1536</ele>
<time>2013-07-13T13:40:01.000Z</time>
</trkpt>
<trkpt lat="42.644578" lon="-1.237809">
<ele>1536</ele>
<time>2013-07-13T13:40:02.000Z</time>
</trkpt>
<trkpt lat="42.644515" lon="-1.23787">
<ele>1537</ele>
<time>2013-07-13T13:40:03.000Z</time>
</trkpt>
<trkpt lat="42.644459" lon="-1.237934">
<ele>1538</ele>
<time>2013-07-13T13:40:04.000Z</time>
</trkpt>
<trkpt lat="42.644421" lon="-1.238014">
<ele>1538</ele>
<time>2013-07-13T13:40:05.000Z</time>
</trkpt>
<trkpt lat="42.644389" lon="-1.238096">
<ele>1540</ele>
<time>2013-07-13T13:40:06.000Z</time>
</trkpt>
<trkpt lat="42.644375" lon="-1.238187">
<ele>1541</ele>
<time>2013-07-13T13:40:07.000Z</time>
</trkpt>
<trkpt lat="42.644361" lon="-1.238279">
<ele>1542</ele>
<time>2013-07-13T13:40:08.000Z</time>
</trkpt>
<trkpt lat="42.644348" lon="-1.238365">
<ele>1545</ele>
<time>2013-07-13T13:40:09.000Z</time>
</trkpt>
<trkpt lat="42.644337" lon="-1.238444">
<ele>1549</ele>
<time>2013-07-13T13:40:10.000Z</time>
</trkpt>
<trkpt lat="42.644355" lon="-1.238504">
<ele>1551</ele>
<time>2013-07-13T13:40:11.000Z</time>
</trkpt>
<trkpt lat="42.644391" lon="-1.238547">
<ele>1550</ele>
<time>2013-07-13T13:40:12.000Z</time>
</trkpt>
<trkpt lat="42.644431" lon="-1.238562">
<ele>1552</ele>
<time>2013-07-13T13:40:13.000Z</time>
</trkpt>
<trkpt lat="42.644468" lon="-1.238567">
<ele>1556</ele>
<time>2013-07-13T13:40:14.000Z</time>
</trkpt>
<trkpt lat="42.644505" lon="-1.238549">
<ele>1560</ele>
<time>2013-07-13T13:40:15.000Z</time>
</trkpt>
<trkpt lat="42.644538" lon="-1.238533">
<ele>1562</ele>
<time>2013-07-13T13:40:16.000Z</time>
</trkpt>
<trkpt lat="42.644571" lon="-1.238521">
<ele>1566</ele>
<time>2013-07-13T13:40:17.000Z</time>
</trkpt>
<trkpt lat="42.644613" lon="-1.238525">
<ele>1569</ele>
<time>2013-07-13T13:40:18.000Z</time>
</trkpt>
<trkpt lat="42.644657" lon="-1.23854">
<ele>1572</ele>
<time>2013-07-13T13:40:19.000Z</time>
</trkpt>
<trkpt lat="42.644704" lon="-1.238566">
<ele>1574</ele>
<time>2013-07-13T13:40:20.000Z</time>
</trkpt>
<trkpt lat="42.644751" lon="-1.23859">
<ele>1579</ele>
<time>2013-07-13T13:40:21.000Z</time>
</trkpt>
<trkpt lat="42.644793" lon="-1.238614">
<ele>1582</ele>
<time>2013-07-13T13:40:22.000Z</time>
</trkpt>
<trkpt lat="42.644837" lon="-1.238638">
<ele>1586</ele>
<time>2013-07-13T13:40:23.000Z</time>
</trkpt>
<trkpt lat="42.644868" lon="-1.238672">
<ele>1588</ele>
<time>2013-07-13T13:40:24.000Z</time>
</trkpt>
<trkpt lat="42.64488" lon="-1.238722">
<ele>1591</ele>
<time>2013-07-13T13:40:25.000Z</time>
</trkpt>
<trkpt lat="42.644878" lon="-1.238769">
<ele>1592</ele>
<time>2013-07-13T13:40:26.000Z</time>
</trkpt>
<trkpt lat="42.644876" lon="-1.238827">
<ele>1595</ele>
<time>2013-07-13T13:40:27.000Z</time>
</trkpt>
<trkpt lat="42.644899" lon="-1.238886">
<ele>1594</ele>
<time>2013-07-13T13:40:28.000Z</time>
</trkpt>
<trkpt lat="42.644939" lon="-1.23893">
<ele>1594</ele>
<time>2013-07-13T13:40:29.000Z</time>
</trkpt>
<trkpt lat="42.64499" lon="-1.238958">
<ele>1595</ele>
<time>2013-07-13T13:40:30.000Z</time>
</trkpt>
<trkpt lat="42.645046" lon="-1.238965">
<ele>1595</ele>
<time>2013-07-13T13:40:31.000Z</time>
</trkpt>
<trkpt lat="42.645074" lon="-1.238965">
<ele>1606</ele>
<time>2013-07-13T13:40:32.000Z</time>
</trkpt>
<trkpt lat="42.645093" lon="-1.238946">
<ele>1612</ele>
<time>2013-07-13T13:40:33.000Z</time>
</trkpt>
<trkpt lat="42.645116" lon="-1.238898">
<ele>1615</ele>
<time>2013-07-13T13:40:34.000Z</time>
</trkpt>
<trkpt lat="42.645129" lon="-1.238824">
<ele>1617</ele>
<time>2013-07-13T13:40:35.000Z</time>
</trkpt>
<trkpt lat="42.645141" lon="-1.238727">
<ele>1618</ele>
<time>2013-07-13T13:40:36.000Z</time>
</trkpt>
<trkpt lat="42.645136" lon="-1.238621">
<ele>1620</ele>
<time>2013-07-13T13:40:37.000Z</time>
</trkpt>
<trkpt lat="42.645127" lon="-1.23851">
<ele>1621</ele>
<time>2013-07-13T13:40:38.000Z</time>
</trkpt>
<trkpt lat="42.645114" lon="-1.238403">
<ele>1622</ele>
<time>2013-07-13T13:40:39.000Z</time>
</trkpt>
<trkpt lat="42.645093" lon="-1.238273">
<ele>1622</ele>
<time>2013-07-13T13:40:40.000Z</time>
</trkpt>
<trkpt lat="42.645042" lon="-1.238137">
<ele>1624</ele>
<time>2013-07-13T13:40:41.000Z</time>
</trkpt>
<trkpt lat="42.64498" lon="-1.238">
<ele>1624</ele>
<time>2013-07-13T13:40:42.000Z</time>
</trkpt>
<trkpt lat="42.64491" lon="-1.237877">
<ele>1624</ele>
<time>2013-07-13T13:40:43.000Z</time>
</trkpt>
<trkpt lat="42.644836" lon="-1.23777">
<ele>1624</ele>
<time>2013-07-13T13:40:44.000Z</time>
</trkpt>
<trkpt lat="42.644741" lon="-1.237686">
<ele>1625</ele>
<time>2013-07-13T13:40:45.000Z</time>
</trkpt>
<trkpt lat="42.644647" lon="-1.237616">
<ele>1626</ele>
<time>2013-07-13T13:40:46.000Z</time>
</trkpt>
<trkpt lat="42.644544" lon="-1.237582">
<ele>1626</ele>
<time>2013-07-13T13:40:47.000Z</time>
</trkpt>
<trkpt lat="42.644448" lon="-1.237559">
<ele>1627</ele>
<time>2013-07-13T13:40:48.000Z</time>
</trkpt>
<trkpt lat="42.644353" lon="-1.237545">
<ele>1629</ele>
<time>2013-07-13T13:40:49.000Z</time>
</trkpt>
<trkpt lat="42.644263" lon="-1.237559">
<ele>1633</ele>
<time>2013-07-13T13:40:50.000Z</time>
</trkpt>
<trkpt lat="42.644177" lon="-1.237579">
<ele>1635</ele>
<time>2013-07-13T13:40:51.000Z</time>
</trkpt>
<trkpt lat="42.644106" lon="-1.237603">
<ele>1639</ele>
<time>2013-07-13T13:40:52.000Z</time>
</trkpt>
<trkpt lat="42.644036" lon="-1.237631">
<ele>1641</ele>
<time>2013-07-13T13:40:53.000Z</time>
</trkpt>
<trkpt lat="42.643959" lon="-1.237664">
<ele>1643</ele>
<time>2013-07-13T13:40:54.000Z</time>
</trkpt>
<trkpt lat="42.643886" lon="-1.237696">
<ele>1645</ele>
<time>2013-07-13T13:40:55.000Z</time>
</trkpt>
<trkpt lat="42.643825" lon="-1.237724">
<ele>1647</ele>
<time>2013-07-13T13:40:56.000Z</time>
</trkpt>
<trkpt lat="42.643772" lon="-1.23775">
<ele>1649</ele>
<time>2013-07-13T13:40:57.000Z</time>
</trkpt>
<trkpt lat="42.643716" lon="-1.237771">
<ele>1651</ele>
<time>2013-07-13T13:40:58.000Z</time>
</trkpt>
<trkpt lat="42.643649" lon="-1.237788">
<ele>1652</ele>
<time>2013-07-13T13:40:59.000Z</time>
</trkpt>
<trkpt lat="42.643572" lon="-1.237809">
<ele>1653</ele>
<time>2013-07-13T13:41:00.000Z</time>
</trkpt>
<trkpt lat="42.643516" lon="-1.237852">
<ele>1655</ele>
<time>2013-07-13T13:41:01.000Z</time>
</trkpt>
<trkpt lat="42.643478" lon="-1.237906">
<ele>1657</ele>
<time>2013-07-13T13:41:02.000Z</time>
</trkpt>
<trkpt lat="42.643457" lon="-1.237961">
<ele>1657</ele>
<time>2013-07-13T13:41:03.000Z</time>
</trkpt>
<trkpt lat="42.643436" lon="-1.238025">
<ele>1659</ele>
<time>2013-07-13T13:41:04.000Z</time>
</trkpt>
<trkpt lat="42.643414" lon="-1.238089">
<ele>1660</ele>
<time>2013-07-13T13:41:05.000Z</time>
</trkpt>
<trkpt lat="42.643392" lon="-1.238156">
<ele>1661</ele>
<time>2013-07-13T13:41:06.000Z</time>
</trkpt>
<trkpt lat="42.643387" lon="-1.238224">
<ele>1663</ele>
<time>2013-07-13T13:41:07.000Z</time>
</trkpt>
<trkpt lat="42.643395" lon="-1.238281">
<ele>1666</ele>
<time>2013-07-13T13:41:08.000Z</time>
</trkpt>
<trkpt lat="42.643404" lon="-1.238327">
<ele>1667</ele>
<time>2013-07-13T13:41:09.000Z</time>
</trkpt>
<trkpt lat="42.643414" lon="-1.238368">
<ele>1670</ele>
<time>2013-07-13T13:41:10.000Z</time>
</trkpt>
<trkpt lat="42.643435" lon="-1.238405">
<ele>1671</ele>
<time>2013-07-13T13:41:11.000Z</time>
</trkpt>
<trkpt lat="42.643468" lon="-1.238436">
<ele>1672</ele>
<time>2013-07-13T13:41:12.000Z</time>
</trkpt>
<trkpt lat="42.643512" lon="-1.238465">
<ele>1672</ele>
<time>2013-07-13T13:41:13.000Z</time>
</trkpt>
<trkpt lat="42.643558" lon="-1.23849">
<ele>1673</ele>
<time>2013-07-13T13:41:14.000Z</time>
</trkpt>
<trkpt lat="42.643598" lon="-1.238494">
<ele>1675</ele>
<time>2013-07-13T13:41:15.000Z</time>
</trkpt>
<trkpt lat="42.643634" lon="-1.238478">
<ele>1677</ele>
<time>2013-07-13T13:41:16.000Z</time>
</trkpt>
<trkpt lat="42.64367" lon="-1.23845">
<ele>1678</ele>
<time>2013-07-13T13:41:17.000Z</time>
</trkpt>
<trkpt lat="42.643715" lon="-1.238414">
<ele>1679</ele>
<time>2013-07-13T13:41:18.000Z</time>
</trkpt>
<trkpt lat="42.643768" lon="-1.23837">
<ele>1680</ele>
<time>2013-07-13T13:41:19.000Z</time>
</trkpt>
<trkpt lat="42.643834" lon="-1.238312">
<ele>1681</ele>
<time>2013-07-13T13:41:20.000Z</time>
</trkpt>
<trkpt lat="42.643894" lon="-1.238256">
<ele>1683</ele>
<time>2013-07-13T13:41:21.000Z</time>
</trkpt>
<trkpt lat="42.643942" lon="-1.238203">
<ele>1686</ele>
<time>2013-07-13T13:41:22.000Z</time>
</trkpt>
<trkpt lat="42.643968" lon="-1.238151">
<ele>1689</ele>
<time>2013-07-13T13:41:23.000Z</time>
</trkpt>
<trkpt lat="42.644001" lon="-1.238087">
<ele>1689</ele>
<time>2013-07-13T13:41:24.000Z</time>
</trkpt>
<trkpt lat="42.644037" lon="-1.238011">
<ele>1690</ele>
<time>2013-07-13T13:41:25.000Z</time>
</trkpt>
<trkpt lat="42.644072" lon="-1.237928">
<ele>1691</ele>
<time>2013-07-13T13:41:26.000Z</time>
</trkpt>
<trkpt lat="42.644084" lon="-1.237827">
<ele>1693</ele>
<time>2013-07-13T13:41:27.000Z</time>
</trkpt>
<trkpt lat="42.644093" lon="-1.237725">
<ele>1697</ele>
<time>2013-07-13T13:41:28.000Z</time>
</trkpt>
<trkpt lat="42.644096" lon="-1.237616">
<ele>1699</ele>
<time>2013-07-13T13:41:29.000Z</time>
</trkpt>
<trkpt lat="42.644092" lon="-1.237508">
<ele>1701</ele>
<time>2013-07-13T13:41:30.000Z</time>
</trkpt>
<trkpt lat="42.644083" lon="-1.237393">
<ele>1701</ele>
<time>2013-07-13T13:41:31.000Z</time>
</trkpt>
<trkpt lat="42.64407" lon="-1.237271">
<ele>1702</ele>
<time>2013-07-13T13:41:32.000Z</time>
</trkpt>
<trkpt lat="42.64405" lon="-1.237146">
<ele>1703</ele>
<time>2013-07-13T13:41:33.000Z</time>
</trkpt>
<trkpt lat="42.644002" lon="-1.237029">
<ele>1704</ele>
<time>2013-07-13T13:41:34.000Z</time>
</trkpt>
<trkpt lat="42.643951" lon="-1.236908">
<ele>1706</ele>
<time>2013-07-13T13:41:35.000Z</time>
</trkpt>
<trkpt lat="42.643894" lon="-1.236782">
<ele>1707</ele>
<time>2013-07-13T13:41:36.000Z</time>
</trkpt>
<trkpt lat="42.643831" lon="-1.236655">
<ele>1708</ele>
<time>2013-07-13T13:41:37.000Z</time>
</trkpt>
<trkpt lat="42.64376" lon="-1.236531">
<ele>1709</ele>
<time>2013-07-13T13:41:38.000Z</time>
</trkpt>
<trkpt lat="42.643669" lon="-1.23643">
<ele>1709</ele>
<time>2013-07-13T13:41:39.000Z</time>
</trkpt>
<trkpt lat="42.643567" lon="-1.236358">
<ele>1709</ele>
<time>2013-07-13T13:41:40.000Z</time>
</trkpt>
<trkpt lat="42.64346" lon="-1.236299">
<ele>1708</ele>
<time>2013-07-13T13:41:41.000Z</time>
</trkpt>
<trkpt lat="42.643352" lon="-1.236257">
<ele>1706</ele>
<time>2013-07-13T13:41:42.000Z</time>
</trkpt>
<trkpt lat="42.643249" lon="-1.236255">
<ele>1706</ele>
<time>2013-07-13T13:41:43.000Z</time>
</trkpt>
<trkpt lat="42.643153" lon="-1.236256">
<ele>1706</ele>
<time>2013-07-13T13:41:44.000Z</time>
</trkpt>
<trkpt lat="42.643057" lon="-1.236267">
<ele>1706</ele>
<time>2013-07-13T13:41:45.000Z</time>
</trkpt>
<trkpt lat="42.642973" lon="-1.236283">
<ele>1707</ele>
<time>2013-07-13T13:41:46.000Z</time>
</trkpt>
<trkpt lat="42.642903" lon="-1.236301">
<ele>1707</ele>
<time>2013-07-13T13:41:47.000Z</time>
</trkpt>
<trkpt lat="42.642843" lon="-1.236321">
<ele>1710</ele>
<time>2013-07-13T13:41:48.000Z</time>
</trkpt>
<trkpt lat="42.642789" lon="-1.236356">
<ele>1712</ele>
<time>2013-07-13T13:41:49.000Z</time>
</trkpt>
<trkpt lat="42.642737" lon="-1.236395">
<ele>1714</ele>
<time>2013-07-13T13:41:50.000Z</time>
</trkpt>
<trkpt lat="42.642687" lon="-1.236439">
<ele>1714</ele>
<time>2013-07-13T13:41:51.000Z</time>
</trkpt>
<trkpt lat="42.64264" lon="-1.236488">
<ele>1714</ele>
<time>2013-07-13T13:41:52.000Z</time>
</trkpt>
<trkpt lat="42.642596" lon="-1.236537">
<ele>1714</ele>
<time>2013-07-13T13:41:53.000Z</time>
</trkpt>
<trkpt lat="42.642556" lon="-1.236586">
<ele>1714</ele>
<time>2013-07-13T13:41:54.000Z</time>
</trkpt>
<trkpt lat="42.642515" lon="-1.236639">
<ele>1714</ele>
<time>2013-07-13T13:41:55.000Z</time>
</trkpt>
<trkpt lat="42.642475" lon="-1.236695">
<ele>1714</ele>
<time>2013-07-13T13:41:56.000Z</time>
</trkpt>
<trkpt lat="42.642434" lon="-1.23676">
<ele>1715</ele>
<time>2013-07-13T13:41:57.000Z</time>
</trkpt>
<trkpt lat="42.642401" lon="-1.236843">
<ele>1715</ele>
<time>2013-07-13T13:41:58.000Z</time>
</trkpt>
<trkpt lat="42.642371" lon="-1.236924">
<ele>1716</ele>
<time>2013-07-13T13:41:59.000Z</time>
</trkpt>
<trkpt lat="42.642348" lon="-1.237001">
<ele>1717</ele>
<time>2013-07-13T13:42:00.000Z</time>
</trkpt>
<trkpt lat="42.642333" lon="-1.237064">
<ele>1719</ele>
<time>2013-07-13T13:42:01.000Z</time>
</trkpt>
<trkpt lat="42.642314" lon="-1.237121">
<ele>1722</ele>
<time>2013-07-13T13:42:02.000Z</time>
</trkpt>
<trkpt lat="42.642293" lon="-1.237176">
<ele>1724</ele>
<time>2013-07-13T13:42:03.000Z</time>
</trkpt>
<trkpt lat="42.642273" lon="-1.237233">
<ele>1725</ele>
<time>2013-07-13T13:42:04.000Z</time>
</trkpt>
<trkpt lat="42.642266" lon="-1.2373">
<ele>1727</ele>
<time>2013-07-13T13:42:05.000Z</time>
</trkpt>
<trkpt lat="42.64226" lon="-1.237372">
<ele>1728</ele>
<time>2013-07-13T13:42:06.000Z</time>
</trkpt>
<trkpt lat="42.642254" lon="-1.237446">
<ele>1730</ele>
<time>2013-07-13T13:42:07.000Z</time>
</trkpt>
<trkpt lat="42.642248" lon="-1.237515">
<ele>1732</ele>
<time>2013-07-13T13:42:08.000Z</time>
</trkpt>
<trkpt lat="42.642258" lon="-1.237574">
<ele>1734</ele>
<time>2013-07-13T13:42:09.000Z</time>
</trkpt>
<trkpt lat="42.642281" lon="-1.237628">
<ele>1737</ele>
<time>2013-07-13T13:42:10.000Z</time>
</trkpt>
<trkpt lat="42.642307" lon="-1.237678">
<ele>1739</ele>
<time>2013-07-13T13:42:11.000Z</time>
</trkpt>
<trkpt lat="42.642335" lon="-1.237728">
<ele>1740</ele>
<time>2013-07-13T13:42:12.000Z</time>
</trkpt>
<trkpt lat="42.64236" lon="-1.237775">
<ele>1742</ele>
<time>2013-07-13T13:42:13.000Z</time>
</trkpt>
<trkpt lat="42.642383" lon="-1.237824">
<ele>1743</ele>
<time>2013-07-13T13:42:14.000Z</time>
</trkpt>
<trkpt lat="42.642406" lon="-1.237878">
<ele>1744</ele>
<time>2013-07-13T13:42:15.000Z</time>
</trkpt>
<trkpt lat="42.642428" lon="-1.237936">
<ele>1744</ele>
<time>2013-07-13T13:42:16.000Z</time>
</trkpt>
<trkpt lat="42.642442" lon="-1.238003">
<ele>1745</ele>
<time>2013-07-13T13:42:17.000Z</time>
</trkpt>
<trkpt lat="42.642454" lon="-1.23807">
<ele>1745</ele>
<time>2013-07-13T13:42:18.000Z</time>
</trkpt>
<trkpt lat="42.642466" lon="-1.238138">
<ele>1746</ele>
<time>2013-07-13T13:42:19.000Z</time>
</trkpt>
<trkpt lat="42.642477" lon="-1.238209">
<ele>1746</ele>
<time>2013-07-13T13:42:20.000Z</time>
</trkpt>
<trkpt lat="42.64249" lon="-1.238278">
<ele>1747</ele>
<time>2013-07-13T13:42:21.000Z</time>
</trkpt>
<trkpt lat="42.642515" lon="-1.238339">
<ele>1749</ele>
<time>2013-07-13T13:42:22.000Z</time>
</trkpt>
<trkpt lat="42.642543" lon="-1.238396">
<ele>1750</ele>
<time>2013-07-13T13:42:23.000Z</time>
</trkpt>
<trkpt lat="42.642583" lon="-1.238445">
<ele>1751</ele>
<time>2013-07-13T13:42:24.000Z</time>
</trkpt>
<trkpt lat="42.642627" lon="-1.238492">
<ele>1751</ele>
<time>2013-07-13T13:42:25.000Z</time>
</trkpt>
<trkpt lat="42.642683" lon="-1.238514">
<ele>1753</ele>
<time>2013-07-13T13:42:26.000Z</time>
</trkpt>
<trkpt lat="42.642745" lon="-1.238506">
<ele>1754</ele>
<time>2013-07-13T13:42:27.000Z</time>
</trkpt>
<trkpt lat="42.642817" lon="-1.238463">
<ele>1756</ele>
<time>2013-07-13T13:42:28.000Z</time>
</trkpt>
<trkpt lat="42.642882" lon="-1.238391">
<ele>1757</ele>
<time>2013-07-13T13:42:29.000Z</time>
</trkpt>
<trkpt lat="42.642928" lon="-1.238311">
<ele>1759</ele>
<time>2013-07-13T13:42:30.000Z</time>
</trkpt>
<trkpt lat="42.642957" lon="-1.238222">
<ele>1760</ele>
<time>2013-07-13T13:42:31.000Z</time>
</trkpt>
<trkpt lat="42.642982" lon="-1.238123">
<ele>1760</ele>
<time>2013-07-13T13:42:32.000Z</time>
</trkpt>
<trkpt lat="42.643001" lon="-1.238016">
<ele>1759</ele>
<time>2013-07-13T13:42:33.000Z</time>
</trkpt>
<trkpt lat="42.643002" lon="-1.237891">
<ele>1759</ele>
<time>2013-07-13T13:42:34.000Z</time>
</trkpt>
<trkpt lat="42.643003" lon="-1.237765">
<ele>1760</ele>
<time>2013-07-13T13:42:35.000Z</time>
</trkpt>
<trkpt lat="42.643" lon="-1.23763">
<ele>1762</ele>
<time>2013-07-13T13:42:36.000Z</time>
</trkpt>
<trkpt lat="42.642971" lon="-1.237514">
<ele>1763</ele>
<time>2013-07-13T13:42:37.000Z</time>
</trkpt>
<trkpt lat="42.642942" lon="-1.237399">
<ele>1766</ele>
<time>2013-07-13T13:42:38.000Z</time>
</trkpt>
<trkpt lat="42.64291" lon="-1.237281">
<ele>1768</ele>
<time>2013-07-13T13:42:39.000Z</time>
</trkpt>
<trkpt lat="42.642877" lon="-1.237167">
<ele>1770</ele>
<time>2013-07-13T13:42:40.000Z</time>
</trkpt>
<trkpt lat="42.642838" lon="-1.23705">
<ele>1771</ele>
<time>2013-07-13T13:42:41.000Z</time>
</trkpt>
<trkpt lat="42.642777" lon="-1.236935">
<ele>1772</ele>
<time>2013-07-13T13:42:42.000Z</time>
</trkpt>
<trkpt lat="42.642703" lon="-1.236818">
<ele>1772</ele>
<time>2013-07-13T13:42:43.000Z</time>
</trkpt>
<trkpt lat="42.642614" lon="-1.236735">
<ele>1774</ele>
<time>2013-07-13T13:42:44.000Z</time>
</trkpt>
<trkpt lat="42.642529" lon="-1.236664">
<ele>1776</ele>
<time>2013-07-13T13:42:45.000Z</time>
</trkpt>
<trkpt lat="42.642441" lon="-1.236605">
<ele>1777</ele>
<time>2013-07-13T13:42:46.000Z</time>
</trkpt>
<trkpt lat="42.642344" lon="-1.236554">
<ele>1778</ele>
<time>2013-07-13T13:42:47.000Z</time>
</trkpt>
<trkpt lat="42.642235" lon="-1.236503">
<ele>1778</ele>
<time>2013-07-13T13:42:48.000Z</time>
</trkpt>
<trkpt lat="42.642109" lon="-1.236451">
<ele>1779</ele>
<time>2013-07-13T13:42:49.000Z</time>
</trkpt>
<trkpt lat="42.641989" lon="-1.236415">
<ele>1779</ele>
<time>2013-07-13T13:42:50.000Z</time>
</trkpt>
<trkpt lat="42.64188" lon="-1.236421">
<ele>1780</ele>
<time>2013-07-13T13:42:51.000Z</time>
</trkpt>
<trkpt lat="42.641785" lon="-1.236437">
<ele>1780</ele>
<time>2013-07-13T13:42:52.000Z</time>
</trkpt>
<trkpt lat="42.641704" lon="-1.236478">
<ele>1780</ele>
<time>2013-07-13T13:42:53.000Z</time>
</trkpt>
<trkpt lat="42.64163" lon="-1.236527">
<ele>1780</ele>
<time>2013-07-13T13:42:54.000Z</time>
</trkpt>
<trkpt lat="42.641567" lon="-1.2366">
<ele>1780</ele>
<time>2013-07-13T13:42:55.000Z</time>
</trkpt>
<trkpt lat="42.641514" lon="-1.236664">
<ele>1782</ele>
<time>2013-07-13T13:42:56.000Z</time>
</trkpt>
<trkpt lat="42.641468" lon="-1.236716">
<ele>1782</ele>
<time>2013-07-13T13:42:57.000Z</time>
</trkpt>
<trkpt lat="42.641428" lon="-1.236759">
<ele>1783</ele>
<time>2013-07-13T13:42:58.000Z</time>
</trkpt>
<trkpt lat="42.641387" lon="-1.236804">
<ele>1784</ele>
<time>2013-07-13T13:42:59.000Z</time>
</trkpt>
<trkpt lat="42.641346" lon="-1.236848">
<ele>1784</ele>
<time>2013-07-13T13:43:00.000Z</time>
</trkpt>
<trkpt lat="42.641303" lon="-1.236892">
<ele>1784</ele>
<time>2013-07-13T13:43:01.000Z</time>
</trkpt>
<trkpt lat="42.641263" lon="-1.236938">
<ele>1784</ele>
<time>2013-07-13T13:43:02.000Z</time>
</trkpt>
<trkpt lat="42.641239" lon="-1.237001">
<ele>1783</ele>
<time>2013-07-13T13:43:03.000Z</time>
</trkpt>
<trkpt lat="42.641228" lon="-1.237074">
<ele>1783</ele>
<time>2013-07-13T13:43:04.000Z</time>
</trkpt>
<trkpt lat="42.641229" lon="-1.237151">
<ele>1783</ele>
<time>2013-07-13T13:43:05.000Z</time>
</trkpt>
<trkpt lat="42.641232" lon="-1.237225">
<ele>1784</ele>
<time>2013-07-13T13:43:06.000Z</time>
</trkpt>
<trkpt lat="42.641246" lon="-1.237287">
<ele>1785</ele>
<time>2013-07-13T13:43:07.000Z</time>
</trkpt>
<trkpt lat="42.641272" lon="-1.237333">
<ele>1786</ele>
<time>2013-07-13T13:43:08.000Z</time>
</trkpt>
<trkpt lat="42.64131" lon="-1.237362">
<ele>1786</ele>
<time>2013-07-13T13:43:09.000Z</time>
</trkpt>
<trkpt lat="42.641355" lon="-1.237376">
<ele>1786</ele>
<time>2013-07-13T13:43:10.000Z</time>
</trkpt>
<trkpt lat="42.641408" lon="-1.237376">
<ele>1785</ele>
<time>2013-07-13T13:43:11.000Z</time>
</trkpt>
<trkpt lat="42.641471" lon="-1.237369">
<ele>1784</ele>
<time>2013-07-13T13:43:12.000Z</time>
</trkpt>
<trkpt lat="42.641542" lon="-1.237358">
<ele>1782</ele>
<time>2013-07-13T13:43:13.000Z</time>
</trkpt>
<trkpt lat="42.641617" lon="-1.237343">
<ele>1781</ele>
<time>2013-07-13T13:43:14.000Z</time>
</trkpt>
<trkpt lat="42.641692" lon="-1.237326">
<ele>1781</ele>
<time>2013-07-13T13:43:15.000Z</time>
</trkpt>
<trkpt lat="42.64176" lon="-1.237304">
<ele>1782</ele>
<time>2013-07-13T13:43:16.000Z</time>
</trkpt>
<trkpt lat="42.641821" lon="-1.237276">
<ele>1784</ele>
<time>2013-07-13T13:43:17.000Z</time>
</trkpt>
<trkpt lat="42.641876" lon="-1.237252">
<ele>1783</ele>
<time>2013-07-13T13:43:18.000Z</time>
</trkpt>
<trkpt lat="42.641929" lon="-1.237221">
<ele>1785</ele>
<time>2013-07-13T13:43:19.000Z</time>
</trkpt>
<trkpt lat="42.641981" lon="-1.237186">
<ele>1787</ele>
<time>2013-07-13T13:43:20.000Z</time>
</trkpt>
<trkpt lat="42.64204" lon="-1.237144">
<ele>1789</ele>
<time>2013-07-13T13:43:21.000Z</time>
</trkpt>
<trkpt lat="42.642098" lon="-1.237097">
<ele>1792</ele>
<time>2013-07-13T13:43:22.000Z</time>
</trkpt>
<trkpt lat="42.642144" lon="-1.237039">
<ele>1794</ele>
<time>2013-07-13T13:43:23.000Z</time>
</trkpt>
<trkpt lat="42.642175" lon="-1.236978">
<ele>1797</ele>
<time>2013-07-13T13:43:24.000Z</time>
</trkpt>
<trkpt lat="42.642208" lon="-1.236917">
<ele>1798</ele>
<time>2013-07-13T13:43:25.000Z</time>
</trkpt>
<trkpt lat="42.642243" lon="-1.23684">
<ele>1799</ele>
<time>2013-07-13T13:43:26.000Z</time>
</trkpt>
<trkpt lat="42.642266" lon="-1.236748">
<ele>1798</ele>
<time>2013-07-13T13:43:27.000Z</time>
</trkpt>
<trkpt lat="42.64229" lon="-1.236655">
<ele>1799</ele>
<time>2013-07-13T13:43:28.000Z</time>
</trkpt>
<trkpt lat="42.642301" lon="-1.236553">
<ele>1800</ele>
<time>2013-07-13T13:43:29.000Z</time>
</trkpt>
<trkpt lat="42.642314" lon="-1.236443">
<ele>1801</ele>
<time>2013-07-13T13:43:30.000Z</time>
</trkpt>
<trkpt lat="42.642324" lon="-1.236328">
<ele>1802</ele>
<time>2013-07-13T13:43:31.000Z</time>
</trkpt>
<trkpt lat="42.642331" lon="-1.236203">
<ele>1802</ele>
<time>2013-07-13T13:43:32.000Z</time>
</trkpt>
<trkpt lat="42.642338" lon="-1.236078">
<ele>1801</ele>
<time>2013-07-13T13:43:33.000Z</time>
</trkpt>
<trkpt lat="42.642339" lon="-1.235958">
<ele>1800</ele>
<time>2013-07-13T13:43:34.000Z</time>
</trkpt>
<trkpt lat="42.642319" lon="-1.235845">
<ele>1799</ele>
<time>2013-07-13T13:43:35.000Z</time>
</trkpt>
<trkpt lat="42.642299" lon="-1.235728">
<ele>1800</ele>
<time>2013-07-13T13:43:36.000Z</time>
</trkpt>
<trkpt lat="42.642278" lon="-1.235618">
<ele>1800</ele>
<time>2013-07-13T13:43:37.000Z</time>
</trkpt>
<trkpt lat="42.64226" lon="-1.235518">
<ele>1799</ele>
<time>2013-07-13T13:43:38.000Z</time>
</trkpt>
<trkpt lat="42.64224" lon="-1.235407">
<ele>1798</ele>
<time>2013-07-13T13:43:39.000Z</time>
</trkpt>
<trkpt lat="42.642214" lon="-1.235283">
<ele>1798</ele>
<time>2013-07-13T13:43:40.000Z</time>
</trkpt>
<trkpt lat="42.642179" lon="-1.235157">
<ele>1797</ele>
<time>2013-07-13T13:43:41.000Z</time>
</trkpt>
<trkpt lat="42.642125" lon="-1.235045">
<ele>1796</ele>
<time>2013-07-13T13:43:42.000Z</time>
</trkpt>
<trkpt lat="42.642076" lon="-1.234939">
<ele>1797</ele>
<time>2013-07-13T13:43:43.000Z</time>
</trkpt>
<trkpt lat="42.642034" lon="-1.234841">
<ele>1796</ele>
<time>2013-07-13T13:43:44.000Z</time>
</trkpt>
<trkpt lat="42.642015" lon="-1.234745">
<ele>1795</ele>
<time>2013-07-13T13:43:45.000Z</time>
</trkpt>
<trkpt lat="42.642001" lon="-1.234652">
<ele>1792</ele>
<time>2013-07-13T13:43:46.000Z</time>
</trkpt>
<trkpt lat="42.64201" lon="-1.234557">
<ele>1789</ele>
<time>2013-07-13T13:43:47.000Z</time>
</trkpt>
<trkpt lat="42.642025" lon="-1.234461">
<ele>1786</ele>
<time>2013-07-13T13:43:48.000Z</time>
</trkpt>
<trkpt lat="42.642041" lon="-1.234354">
<ele>1784</ele>
<time>2013-07-13T13:43:49.000Z</time>
</trkpt>
<trkpt lat="42.642049" lon="-1.234237">
<ele>1782</ele>
<time>2013-07-13T13:43:50.000Z</time>
</trkpt>
<trkpt lat="42.642046" lon="-1.234102">
<ele>1776</ele>
<time>2013-07-13T13:43:51.000Z</time>
</trkpt>
<trkpt lat="42.642042" lon="-1.233986">
<ele>1772</ele>
<time>2013-07-13T13:43:52.000Z</time>
</trkpt>
<trkpt lat="42.642038" lon="-1.23387">
<ele>1768</ele>
<time>2013-07-13T13:43:53.000Z</time>
</trkpt>
<trkpt lat="42.642048" lon="-1.233791">
<ele>1765</ele>
<time>2013-07-13T13:43:54.000Z</time>
</trkpt>
<trkpt lat="42.642058" lon="-1.233716">
<ele>1762</ele>
<time>2013-07-13T13:43:55.000Z</time>
</trkpt>
<trkpt lat="42.642068" lon="-1.233635">
<ele>1760</ele>
<time>2013-07-13T13:43:56.000Z</time>
</trkpt>
<trkpt lat="42.642077" lon="-1.233549">
<ele>1759</ele>
<time>2013-07-13T13:43:57.000Z</time>
</trkpt>
<trkpt lat="42.642088" lon="-1.233472">
<ele>1757</ele>
<time>2013-07-13T13:43:58.000Z</time>
</trkpt>
<trkpt lat="42.642099" lon="-1.23339">
<ele>1756</ele>
<time>2013-07-13T13:43:59.000Z</time>
</trkpt>
<trkpt lat="42.642106" lon="-1.233303">
<ele>1756</ele>
<time>2013-07-13T13:44:00.000Z</time>
</trkpt>
<trkpt lat="42.642106" lon="-1.233205">
<ele>1754</ele>
<time>2013-07-13T13:44:01.000Z</time>
</trkpt>
<trkpt lat="42.642108" lon="-1.233104">
<ele>1751</ele>
<time>2013-07-13T13:44:02.000Z</time>
</trkpt>
<trkpt lat="42.642112" lon="-1.233001">
<ele>1747</ele>
<time>2013-07-13T13:44:03.000Z</time>
</trkpt>
<trkpt lat="42.642119" lon="-1.232896">
<ele>1745</ele>
<time>2013-07-13T13:44:04.000Z</time>
</trkpt>
<trkpt lat="42.642124" lon="-1.232796">
<ele>1743</ele>
<time>2013-07-13T13:44:05.000Z</time>
</trkpt>
<trkpt lat="42.642126" lon="-1.232705">
<ele>1740</ele>
<time>2013-07-13T13:44:06.000Z</time>
</trkpt>
<trkpt lat="42.642125" lon="-1.232613">
<ele>1738</ele>
<time>2013-07-13T13:44:07.000Z</time>
</trkpt>
<trkpt lat="42.642128" lon="-1.232512">
<ele>1737</ele>
<time>2013-07-13T13:44:08.000Z</time>
</trkpt>
<trkpt lat="42.642132" lon="-1.232426">
<ele>1735</ele>
<time>2013-07-13T13:44:09.000Z</time>
</trkpt>
<trkpt lat="42.642141" lon="-1.23233">
<ele>1735</ele>
<time>2013-07-13T13:44:10.000Z</time>
</trkpt>
<trkpt lat="42.642152" lon="-1.232231">
<ele>1735</ele>
<time>2013-07-13T13:44:11.000Z</time>
</trkpt>
<trkpt lat="42.642163" lon="-1.232127">
<ele>1734</ele>
<time>2013-07-13T13:44:12.000Z</time>
</trkpt>
<trkpt lat="42.642172" lon="-1.232026">
<ele>1733</ele>
<time>2013-07-13T13:44:13.000Z</time>
</trkpt>
<trkpt lat="42.642184" lon="-1.23192">
<ele>1731</ele>
<time>2013-07-13T13:44:14.000Z</time>
</trkpt>
<trkpt lat="42.642199" lon="-1.231822">
<ele>1728</ele>
<time>2013-07-13T13:44:15.000Z</time>
</trkpt>
<trkpt lat="42.642216" lon="-1.23173">
<ele>1726</ele>
<time>2013-07-13T13:44:16.000Z</time>
</trkpt>
<trkpt lat="42.642232" lon="-1.231643">
<ele>1725</ele>
<time>2013-07-13T13:44:17.000Z</time>
</trkpt>
<trkpt lat="42.642247" lon="-1.231555">
<ele>1722</ele>
<time>2013-07-13T13:44:18.000Z</time>
</trkpt>
<trkpt lat="42.642266" lon="-1.231456">
<ele>1721</ele>
<time>2013-07-13T13:44:19.000Z</time>
</trkpt>
<trkpt lat="42.642286" lon="-1.23135">
<ele>1719</ele>
<time>2013-07-13T13:44:20.000Z</time>
</trkpt>
<trkpt lat="42.642303" lon="-1.231246">
<ele>1717</ele>
<time>2013-07-13T13:44:21.000Z</time>
</trkpt>
<trkpt lat="42.64232" lon="-1.23114">
<ele>1714</ele>
<time>2013-07-13T13:44:22.000Z</time>
</trkpt>
<trkpt lat="42.642335" lon="-1.231025">
<ele>1710</ele>
<time>2013-07-13T13:44:23.000Z</time>
</trkpt>
<trkpt lat="42.642348" lon="-1.230898">
<ele>1707</ele>
<time>2013-07-13T13:44:24.000Z</time>
</trkpt>
<trkpt lat="42.642358" lon="-1.230747">
<ele>1706</ele>
<time>2013-07-13T13:44:25.000Z</time>
</trkpt>
<trkpt lat="42.642339" lon="-1.230605">
<ele>1704</ele>
<time>2013-07-13T13:44:26.000Z</time>
</trkpt>
<trkpt lat="42.642319" lon="-1.230474">
<ele>1702</ele>
<time>2013-07-13T13:44:27.000Z</time>
</trkpt>
<trkpt lat="42.642299" lon="-1.230355">
<ele>1699</ele>
<time>2013-07-13T13:44:28.000Z</time>
</trkpt>
<trkpt lat="42.642281" lon="-1.230225">
<ele>1695</ele>
<time>2013-07-13T13:44:29.000Z</time>
</trkpt>
<trkpt lat="42.642302" lon="-1.230108">
<ele>1692</ele>
<time>2013-07-13T13:44:30.000Z</time>
</trkpt>
<trkpt lat="42.642316" lon="-1.23">
<ele>1689</ele>
<time>2013-07-13T13:44:31.000Z</time>
</trkpt>
<trkpt lat="42.642327" lon="-1.229894">
<ele>1686</ele>
<time>2013-07-13T13:44:32.000Z</time>
</trkpt>
<trkpt lat="42.642332" lon="-1.229776">
<ele>1683</ele>
<time>2013-07-13T13:44:33.000Z</time>
</trkpt>
<trkpt lat="42.642332" lon="-1.229658">
<ele>1680</ele>
<time>2013-07-13T13:44:34.000Z</time>
</trkpt>
<trkpt lat="42.642331" lon="-1.229528">
<ele>1677</ele>
<time>2013-07-13T13:44:35.000Z</time>
</trkpt>
<trkpt lat="42.642332" lon="-1.229404">
<ele>1674</ele>
<time>2013-07-13T13:44:36.000Z</time>
</trkpt>
<trkpt lat="42.642333" lon="-1.229286">
<ele>1672</ele>
<time>2013-07-13T13:44:37.000Z</time>
</trkpt>
<trkpt lat="42.642336" lon="-1.229171">
<ele>1670</ele>
<time>2013-07-13T13:44:38.000Z</time>
</trkpt>
<trkpt lat="42.642338" lon="-1.229055">
<ele>1669</ele>
<time>2013-07-13T13:44:39.000Z</time>
</trkpt>
<trkpt lat="42.642342" lon="-1.228938">
<ele>1667</ele>
<time>2013-07-13T13:44:40.000Z</time>
</trkpt>
<trkpt lat="42.642349" lon="-1.228814">
<ele>1665</ele>
<time>2013-07-13T13:44:41.000Z</time>
</trkpt>
<trkpt lat="42.642362" lon="-1.228688">
<ele>1662</ele>
<time>2013-07-13T13:44:42.000Z</time>
</trkpt>
<trkpt lat="42.642384" lon="-1.228549">
<ele>1662</ele>
<time>2013-07-13T13:44:43.000Z</time>
</trkpt>
<trkpt lat="42.642404" lon="-1.228416">
<ele>1661</ele>
<time>2013-07-13T13:44:44.000Z</time>
</trkpt>
<trkpt lat="42.642421" lon="-1.22829">
<ele>1658</ele>
<time>2013-07-13T13:44:45.000Z</time>
</trkpt>
<trkpt lat="42.642435" lon="-1.228163">
<ele>1657</ele>
<time>2013-07-13T13:44:46.000Z</time>
</trkpt>
<trkpt lat="42.642455" lon="-1.228029">
<ele>1655</ele>
<time>2013-07-13T13:44:47.000Z</time>
</trkpt>
<trkpt lat="42.642475" lon="-1.227904">
<ele>1651</ele>
<time>2013-07-13T13:44:48.000Z</time>
</trkpt>
<trkpt lat="42.642492" lon="-1.227776">
<ele>1647</ele>
<time>2013-07-13T13:44:49.000Z</time>
</trkpt>
<trkpt lat="42.642505" lon="-1.227651">
<ele>1643</ele>
<time>2013-07-13T13:44:50.000Z</time>
</trkpt>
<trkpt lat="42.642516" lon="-1.227525">
<ele>1640</ele>
<time>2013-07-13T13:44:51.000Z</time>
</trkpt>
<trkpt lat="42.642537" lon="-1.227368">
<ele>1639</ele>
<time>2013-07-13T13:44:52.000Z</time>
</trkpt>
<trkpt lat="42.642561" lon="-1.227212">
<ele>1638</ele>
<time>2013-07-13T13:44:53.000Z</time>
</trkpt>
<trkpt lat="42.642584" lon="-1.227067">
<ele>1638</ele>
<time>2013-07-13T13:44:54.000Z</time>
</trkpt>
<trkpt lat="42.642605" lon="-1.226936">
<ele>1637</ele>
<time>2013-07-13T13:44:55.000Z</time>
</trkpt>
<trkpt lat="42.642632" lon="-1.226813">
<ele>1636</ele>
<time>2013-07-13T13:44:56.000Z</time>
</trkpt>
<trkpt lat="42.64267" lon="-1.226682">
<ele>1635</ele>
<time>2013-07-13T13:44:57.000Z</time>
</trkpt>
<trkpt lat="42.6427" lon="-1.226548">
<ele>1632</ele>
<time>2013-07-13T13:44:58.000Z</time>
</trkpt>
<trkpt lat="42.642702" lon="-1.226424">
<ele>1624</ele>
<time>2013-07-13T13:44:59.000Z</time>
</trkpt>
<trkpt lat="42.642714" lon="-1.226292">
<ele>1622</ele>
<time>2013-07-13T13:45:00.000Z</time>
</trkpt>
<trkpt lat="42.642729" lon="-1.226174">
<ele>1620</ele>
<time>2013-07-13T13:45:01.000Z</time>
</trkpt>
<trkpt lat="42.64273" lon="-1.226081">
<ele>1615</ele>
<time>2013-07-13T13:45:02.000Z</time>
</trkpt>
<trkpt lat="42.64273" lon="-1.225989">
<ele>1610</ele>
<time>2013-07-13T13:45:03.000Z</time>
</trkpt>
<trkpt lat="42.642734" lon="-1.225886">
<ele>1604</ele>
<time>2013-07-13T13:45:04.000Z</time>
</trkpt>
<trkpt lat="42.642754" lon="-1.225761">
<ele>1599</ele>
<time>2013-07-13T13:45:05.000Z</time>
</trkpt>
<trkpt lat="42.642787" lon="-1.22564">
<ele>1597</ele>
<time>2013-07-13T13:45:06.000Z</time>
</trkpt>
<trkpt lat="42.642811" lon="-1.22554">
<ele>1594</ele>
<time>2013-07-13T13:45:07.000Z</time>
</trkpt>
<trkpt lat="42.642842" lon="-1.22544">
<ele>1593</ele>
<time>2013-07-13T13:45:08.000Z</time>
</trkpt>
<trkpt lat="42.642867" lon="-1.225348">
<ele>1589</ele>
<time>2013-07-13T13:45:09.000Z</time>
</trkpt>
<trkpt lat="42.642893" lon="-1.225247">
<ele>1585</ele>
<time>2013-07-13T13:45:10.000Z</time>
</trkpt>
<trkpt lat="42.642914" lon="-1.225145">
<ele>1583</ele>
<time>2013-07-13T13:45:11.000Z</time>
</trkpt>
<trkpt lat="42.642932" lon="-1.225034">
<ele>1581</ele>
<time>2013-07-13T13:45:12.000Z</time>
</trkpt>
<trkpt lat="42.642951" lon="-1.224911">
<ele>1578</ele>
<time>2013-07-13T13:45:13.000Z</time>
</trkpt>
<trkpt lat="42.642963" lon="-1.224805">
<ele>1575</ele>
<time>2013-07-13T13:45:14.000Z</time>
</trkpt>
<trkpt lat="42.642978" lon="-1.224701">
<ele>1574</ele>
<time>2013-07-13T13:45:15.000Z</time>
</trkpt>
<trkpt lat="42.642988" lon="-1.224618">
<ele>1570</ele>
<time>2013-07-13T13:45:16.000Z</time>
</trkpt>
<trkpt lat="42.643007" lon="-1.224533">
<ele>1568</ele>
<time>2013-07-13T13:45:17.000Z</time>
</trkpt>
<trkpt lat="42.643028" lon="-1.224443">
<ele>1566</ele>
<time>2013-07-13T13:45:18.000Z</time>
</trkpt>
<trkpt lat="42.643048" lon="-1.224351">
<ele>1563</ele>
<time>2013-07-13T13:45:19.000Z</time>
</trkpt>
<trkpt lat="42.643068" lon="-1.224248">
<ele>1562</ele>
<time>2013-07-13T13:45:20.000Z</time>
</trkpt>
<trkpt lat="42.643086" lon="-1.224142">
<ele>1562</ele>
<time>2013-07-13T13:45:21.000Z</time>
</trkpt>
<trkpt lat="42.643094" lon="-1.224047">
<ele>1559</ele>
<time>2013-07-13T13:45:22.000Z</time>
</trkpt>
<trkpt lat="42.643095" lon="-1.22396">
<ele>1555</ele>
<time>2013-07-13T13:45:23.000Z</time>
</trkpt>
<trkpt lat="42.643101" lon="-1.223869">
<ele>1553</ele>
<time>2013-07-13T13:45:24.000Z</time>
</trkpt>
<trkpt lat="42.643115" lon="-1.223768">
<ele>1553</ele>
<time>2013-07-13T13:45:25.000Z</time>
</trkpt>
<trkpt lat="42.643134" lon="-1.223658">
<ele>1552</ele>
<time>2013-07-13T13:45:26.000Z</time>
</trkpt>
<trkpt lat="42.643152" lon="-1.223542">
<ele>1551</ele>
<time>2013-07-13T13:45:27.000Z</time>
</trkpt>
<trkpt lat="42.643165" lon="-1.223426">
<ele>1549</ele>
<time>2013-07-13T13:45:28.000Z</time>
</trkpt>
<trkpt lat="42.643175" lon="-1.223324">
<ele>1547</ele>
<time>2013-07-13T13:45:29.000Z</time>
</trkpt>
<trkpt lat="42.64318" lon="-1.223236">
<ele>1546</ele>
<time>2013-07-13T13:45:30.000Z</time>
</trkpt>
<trkpt lat="42.643194" lon="-1.223152">
<ele>1545</ele>
<time>2013-07-13T13:45:31.000Z</time>
</trkpt>
<trkpt lat="42.643214" lon="-1.223057">
<ele>1545</ele>
<time>2013-07-13T13:45:32.000Z</time>
</trkpt>
<trkpt lat="42.643237" lon="-1.222945">
<ele>1543</ele>
<time>2013-07-13T13:45:33.000Z</time>
</trkpt>
<trkpt lat="42.64326" lon="-1.22283">
<ele>1542</ele>
<time>2013-07-13T13:45:34.000Z</time>
</trkpt>
<trkpt lat="42.643283" lon="-1.222717">
<ele>1542</ele>
<time>2013-07-13T13:45:35.000Z</time>
</trkpt>
<trkpt lat="42.643301" lon="-1.22261">
<ele>1542</ele>
<time>2013-07-13T13:45:36.000Z</time>
</trkpt>
<trkpt lat="42.643316" lon="-1.222506">
<ele>1543</ele>
<time>2013-07-13T13:45:37.000Z</time>
</trkpt>
<trkpt lat="42.643327" lon="-1.2224">
<ele>1543</ele>
<time>2013-07-13T13:45:38.000Z</time>
</trkpt>
<trkpt lat="42.643344" lon="-1.222284">
<ele>1543</ele>
<time>2013-07-13T13:45:39.000Z</time>
</trkpt>
<trkpt lat="42.643362" lon="-1.222163">
<ele>1540</ele>
<time>2013-07-13T13:45:40.000Z</time>
</trkpt>
<trkpt lat="42.643383" lon="-1.222036">
<ele>1540</ele>
<time>2013-07-13T13:45:41.000Z</time>
</trkpt>
<trkpt lat="42.643402" lon="-1.221914">
<ele>1538</ele>
<time>2013-07-13T13:45:42.000Z</time>
</trkpt>
<trkpt lat="42.643418" lon="-1.221797">
<ele>1538</ele>
<time>2013-07-13T13:45:43.000Z</time>
</trkpt>
<trkpt lat="42.643435" lon="-1.221688">
<ele>1537</ele>
<time>2013-07-13T13:45:44.000Z</time>
</trkpt>
<trkpt lat="42.643454" lon="-1.221574">
<ele>1536</ele>
<time>2013-07-13T13:45:45.000Z</time>
</trkpt>
<trkpt lat="42.643477" lon="-1.221454">
<ele>1534</ele>
<time>2013-07-13T13:45:46.000Z</time>
</trkpt>
<trkpt lat="42.643494" lon="-1.221338">
<ele>1528</ele>
<time>2013-07-13T13:45:47.000Z</time>
</trkpt>
<trkpt lat="42.643501" lon="-1.22122">
<ele>1525</ele>
<time>2013-07-13T13:45:48.000Z</time>
</trkpt>
<trkpt lat="42.643506" lon="-1.221101">
<ele>1524</ele>
<time>2013-07-13T13:45:49.000Z</time>
</trkpt>
<trkpt lat="42.643511" lon="-1.220989">
<ele>1525</ele>
<time>2013-07-13T13:45:50.000Z</time>
</trkpt>
<trkpt lat="42.643517" lon="-1.220878">
<ele>1524</ele>
<time>2013-07-13T13:45:51.000Z</time>
</trkpt>
<trkpt lat="42.643527" lon="-1.220775">
<ele>1523</ele>
<time>2013-07-13T13:45:52.000Z</time>
</trkpt>
<trkpt lat="42.643542" lon="-1.220671">
<ele>1523</ele>
<time>2013-07-13T13:45:53.000Z</time>
</trkpt>
<trkpt lat="42.643557" lon="-1.220553">
<ele>1523</ele>
<time>2013-07-13T13:45:54.000Z</time>
</trkpt>
<trkpt lat="42.643568" lon="-1.22044">
<ele>1523</ele>
<time>2013-07-13T13:45:55.000Z</time>
</trkpt>
<trkpt lat="42.643577" lon="-1.220338">
<ele>1522</ele>
<time>2013-07-13T13:45:56.000Z</time>
</trkpt>
<trkpt lat="42.643588" lon="-1.22025">
<ele>1521</ele>
<time>2013-07-13T13:45:57.000Z</time>
</trkpt>
<trkpt lat="42.643603" lon="-1.220163">
<ele>1518</ele>
<time>2013-07-13T13:45:58.000Z</time>
</trkpt>
<trkpt lat="42.643619" lon="-1.220061">
<ele>1515</ele>
<time>2013-07-13T13:45:59.000Z</time>
</trkpt>
<trkpt lat="42.643639" lon="-1.219938">
<ele>1513</ele>
<time>2013-07-13T13:46:00.000Z</time>
</trkpt>
<trkpt lat="42.643666" lon="-1.219808">
<ele>1512</ele>
<time>2013-07-13T13:46:01.000Z</time>
</trkpt>
<trkpt lat="42.643687" lon="-1.219688">
<ele>1512</ele>
<time>2013-07-13T13:46:02.000Z</time>
</trkpt>
<trkpt lat="42.643701" lon="-1.219575">
<ele>1511</ele>
<time>2013-07-13T13:46:03.000Z</time>
</trkpt>
<trkpt lat="42.643709" lon="-1.219477">
<ele>1511</ele>
<time>2013-07-13T13:46:04.000Z</time>
</trkpt>
<trkpt lat="42.643716" lon="-1.219376">
<ele>1511</ele>
<time>2013-07-13T13:46:05.000Z</time>
</trkpt>
<trkpt lat="42.643722" lon="-1.219271">
<ele>1510</ele>
<time>2013-07-13T13:46:06.000Z</time>
</trkpt>
<trkpt lat="42.643735" lon="-1.219151">
<ele>1509</ele>
<time>2013-07-13T13:46:07.000Z</time>
</trkpt>
<trkpt lat="42.643753" lon="-1.21902">
<ele>1509</ele>
<time>2013-07-13T13:46:08.000Z</time>
</trkpt>
<trkpt lat="42.643769" lon="-1.21889">
<ele>1509</ele>
<time>2013-07-13T13:46:09.000Z</time>
</trkpt>
<trkpt lat="42.643763" lon="-1.218765">
<ele>1509</ele>
<time>2013-07-13T13:46:10.000Z</time>
</trkpt>
<trkpt lat="42.643757" lon="-1.218657">
<ele>1511</ele>
<time>2013-07-13T13:46:11.000Z</time>
</trkpt>
<trkpt lat="42.643754" lon="-1.218561">
<ele>1512</ele>
<time>2013-07-13T13:46:12.000Z</time>
</trkpt>
<trkpt lat="42.643769" lon="-1.218464">
<ele>1512</ele>
<time>2013-07-13T13:46:13.000Z</time>
</trkpt>
<trkpt lat="42.64379" lon="-1.21835">
<ele>1511</ele>
<time>2013-07-13T13:46:14.000Z</time>
</trkpt>
<trkpt lat="42.643819" lon="-1.218222">
<ele>1510</ele>
<time>2013-07-13T13:46:15.000Z</time>
</trkpt>
<trkpt lat="42.643848" lon="-1.218107">
<ele>1510</ele>
<time>2013-07-13T13:46:16.000Z</time>
</trkpt>
<trkpt lat="42.643875" lon="-1.218007">
<ele>1509</ele>
<time>2013-07-13T13:46:17.000Z</time>
</trkpt>
<trkpt lat="42.643904" lon="-1.217913">
<ele>1509</ele>
<time>2013-07-13T13:46:18.000Z</time>
</trkpt>
<trkpt lat="42.643938" lon="-1.21781">
<ele>1509</ele>
<time>2013-07-13T13:46:19.000Z</time>
</trkpt>
<trkpt lat="42.643976" lon="-1.217695">
<ele>1507</ele>
<time>2013-07-13T13:46:20.000Z</time>
</trkpt>
<trkpt lat="42.644008" lon="-1.21759">
<ele>1506</ele>
<time>2013-07-13T13:46:21.000Z</time>
</trkpt>
<trkpt lat="42.644037" lon="-1.2175">
<ele>1507</ele>
<time>2013-07-13T13:46:22.000Z</time>
</trkpt>
<trkpt lat="42.644068" lon="-1.217421">
<ele>1506</ele>
<time>2013-07-13T13:46:23.000Z</time>
</trkpt>
<trkpt lat="42.644099" lon="-1.217355">
<ele>1508</ele>
<time>2013-07-13T13:46:24.000Z</time>
</trkpt>
<trkpt lat="42.644137" lon="-1.217286">
<ele>1506</ele>
<time>2013-07-13T13:46:25.000Z</time>
</trkpt>
<trkpt lat="42.644181" lon="-1.217197">
<ele>1503</ele>
<time>2013-07-13T13:46:26.000Z</time>
</trkpt>
<trkpt lat="42.644227" lon="-1.2171">
<ele>1502</ele>
<time>2013-07-13T13:46:27.000Z</time>
</trkpt>
<trkpt lat="42.644263" lon="-1.21701">
<ele>1501</ele>
<time>2013-07-13T13:46:28.000Z</time>
</trkpt>
<trkpt lat="42.644288" lon="-1.21693">
<ele>1500</ele>
<time>2013-07-13T13:46:29.000Z</time>
</trkpt>
<trkpt lat="42.644308" lon="-1.216861">
<ele>1498</ele>
<time>2013-07-13T13:46:30.000Z</time>
</trkpt>
<trkpt lat="42.644332" lon="-1.216773">
<ele>1496</ele>
<time>2013-07-13T13:46:31.000Z</time>
</trkpt>
<trkpt lat="42.644363" lon="-1.216662">
<ele>1494</ele>
<time>2013-07-13T13:46:32.000Z</time>
</trkpt>
<trkpt lat="42.644396" lon="-1.216553">
<ele>1493</ele>
<time>2013-07-13T13:46:33.000Z</time>
</trkpt>
<trkpt lat="42.644422" lon="-1.216451">
<ele>1492</ele>
<time>2013-07-13T13:46:34.000Z</time>
</trkpt>
<trkpt lat="42.644443" lon="-1.216359">
<ele>1493</ele>
<time>2013-07-13T13:46:35.000Z</time>
</trkpt>
<trkpt lat="42.644461" lon="-1.216273">
<ele>1490</ele>
<time>2013-07-13T13:46:36.000Z</time>
</trkpt>
<trkpt lat="42.644477" lon="-1.216182">
<ele>1488</ele>
<time>2013-07-13T13:46:37.000Z</time>
</trkpt>
<trkpt lat="42.644508" lon="-1.216081">
<ele>1487</ele>
<time>2013-07-13T13:46:38.000Z</time>
</trkpt>
<trkpt lat="42.644531" lon="-1.215977">
<ele>1481</ele>
<time>2013-07-13T13:46:39.000Z</time>
</trkpt>
<trkpt lat="42.64455" lon="-1.215866">
<ele>1476</ele>
<time>2013-07-13T13:46:40.000Z</time>
</trkpt>
<trkpt lat="42.644568" lon="-1.215732">
<ele>1472</ele>
<time>2013-07-13T13:46:41.000Z</time>
</trkpt>
<trkpt lat="42.644587" lon="-1.215598">
<ele>1470</ele>
<time>2013-07-13T13:46:42.000Z</time>
</trkpt>
<trkpt lat="42.644603" lon="-1.215466">
<ele>1469</ele>
<time>2013-07-13T13:46:43.000Z</time>
</trkpt>
<trkpt lat="42.644616" lon="-1.215338">
<ele>1465</ele>
<time>2013-07-13T13:46:44.000Z</time>
</trkpt>
<trkpt lat="42.644628" lon="-1.215209">
<ele>1460</ele>
<time>2013-07-13T13:46:45.000Z</time>
</trkpt>
<trkpt lat="42.644645" lon="-1.215075">
<ele>1456</ele>
<time>2013-07-13T13:46:46.000Z</time>
</trkpt>
<trkpt lat="42.64467" lon="-1.214926">
<ele>1453</ele>
<time>2013-07-13T13:46:47.000Z</time>
</trkpt>
<trkpt lat="42.644698" lon="-1.214791">
<ele>1451</ele>
<time>2013-07-13T13:46:48.000Z</time>
</trkpt>
<trkpt lat="42.644731" lon="-1.214671">
<ele>1450</ele>
<time>2013-07-13T13:46:49.000Z</time>
</trkpt>
<trkpt lat="42.644767" lon="-1.214553">
<ele>1446</ele>
<time>2013-07-13T13:46:50.000Z</time>
</trkpt>
<trkpt lat="42.644811" lon="-1.214438">
<ele>1445</ele>
<time>2013-07-13T13:46:51.000Z</time>
</trkpt>
<trkpt lat="42.644862" lon="-1.214325">
<ele>1444</ele>
<time>2013-07-13T13:46:52.000Z</time>
</trkpt>
<trkpt lat="42.644914" lon="-1.214217">
<ele>1443</ele>
<time>2013-07-13T13:46:53.000Z</time>
</trkpt>
<trkpt lat="42.644969" lon="-1.214101">
<ele>1442</ele>
<time>2013-07-13T13:46:54.000Z</time>
</trkpt>
<trkpt lat="42.645012" lon="-1.213987">
<ele>1435</ele>
<time>2013-07-13T13:46:55.000Z</time>
</trkpt>
<trkpt lat="42.64505" lon="-1.213872">
<ele>1432</ele>
<time>2013-07-13T13:46:56.000Z</time>
</trkpt>
<trkpt lat="42.645078" lon="-1.213766">
<ele>1430</ele>
<time>2013-07-13T13:46:57.000Z</time>
</trkpt>
<trkpt lat="42.645098" lon="-1.213664">
<ele>1427</ele>
<time>2013-07-13T13:46:58.000Z</time>
</trkpt>
<trkpt lat="42.645126" lon="-1.213539">
<ele>1426</ele>
<time>2013-07-13T13:46:59.000Z</time>
</trkpt>
<trkpt lat="42.645143" lon="-1.213428">
<ele>1424</ele>
<time>2013-07-13T13:47:00.000Z</time>
</trkpt>
<trkpt lat="42.645154" lon="-1.213333">
<ele>1423</ele>
<time>2013-07-13T13:47:01.000Z</time>
</trkpt>
<trkpt lat="42.645164" lon="-1.213256">
<ele>1424</ele>
<time>2013-07-13T13:47:02.000Z</time>
</trkpt>
<trkpt lat="42.645174" lon="-1.213187">
<ele>1424</ele>
<time>2013-07-13T13:47:03.000Z</time>
</trkpt>
<trkpt lat="42.645181" lon="-1.213126">
<ele>1423</ele>
<time>2013-07-13T13:47:04.000Z</time>
</trkpt>
<trkpt lat="42.645188" lon="-1.213047">
<ele>1421</ele>
<time>2013-07-13T13:47:05.000Z</time>
</trkpt>
<trkpt lat="42.645202" lon="-1.212945">
<ele>1419</ele>
<time>2013-07-13T13:47:06.000Z</time>
</trkpt>
<trkpt lat="42.64522" lon="-1.212833">
<ele>1417</ele>
<time>2013-07-13T13:47:07.000Z</time>
</trkpt>
<trkpt lat="42.645237" lon="-1.212719">
<ele>1418</ele>
<time>2013-07-13T13:47:08.000Z</time>
</trkpt>
<trkpt lat="42.645249" lon="-1.212617">
<ele>1417</ele>
<time>2013-07-13T13:47:09.000Z</time>
</trkpt>
<trkpt lat="42.645261" lon="-1.212521">
<ele>1418</ele>
<time>2013-07-13T13:47:10.000Z</time>
</trkpt>
<trkpt lat="42.64527" lon="-1.212433">
<ele>1418</ele>
<time>2013-07-13T13:47:11.000Z</time>
</trkpt>
<trkpt lat="42.645276" lon="-1.212339">
<ele>1418</ele>
<time>2013-07-13T13:47:12.000Z</time>
</trkpt>
<trkpt lat="42.645281" lon="-1.212239">
<ele>1419</ele>
<time>2013-07-13T13:47:13.000Z</time>
</trkpt>
<trkpt lat="42.645288" lon="-1.212142">
<ele>1419</ele>
<time>2013-07-13T13:47:14.000Z</time>
</trkpt>
<trkpt lat="42.645299" lon="-1.212055">
<ele>1420</ele>
<time>2013-07-13T13:47:15.000Z</time>
</trkpt>
<trkpt lat="42.64531" lon="-1.211979">
<ele>1420</ele>
<time>2013-07-13T13:47:16.000Z</time>
</trkpt>
<trkpt lat="42.645309" lon="-1.211912">
<ele>1421</ele>
<time>2013-07-13T13:47:17.000Z</time>
</trkpt>
<trkpt lat="42.645309" lon="-1.211838">
<ele>1422</ele>
<time>2013-07-13T13:47:18.000Z</time>
</trkpt>
<trkpt lat="42.645327" lon="-1.211767">
<ele>1422</ele>
<time>2013-07-13T13:47:19.000Z</time>
</trkpt>
<trkpt lat="42.64535" lon="-1.211684">
<ele>1423</ele>
<time>2013-07-13T13:47:20.000Z</time>
</trkpt>
<trkpt lat="42.645369" lon="-1.211597">
<ele>1424</ele>
<time>2013-07-13T13:47:21.000Z</time>
</trkpt>
<trkpt lat="42.645381" lon="-1.21152">
<ele>1424</ele>
<time>2013-07-13T13:47:22.000Z</time>
</trkpt>
<trkpt lat="42.645392" lon="-1.211454">
<ele>1424</ele>
<time>2013-07-13T13:47:23.000Z</time>
</trkpt>
<trkpt lat="42.645422" lon="-1.211395">
<ele>1425</ele>
<time>2013-07-13T13:47:24.000Z</time>
</trkpt>
<trkpt lat="42.645459" lon="-1.211317">
<ele>1424</ele>
<time>2013-07-13T13:47:25.000Z</time>
</trkpt>
<trkpt lat="42.645504" lon="-1.21123">
<ele>1425</ele>
<time>2013-07-13T13:47:26.000Z</time>
</trkpt>
<trkpt lat="42.645544" lon="-1.211153">
<ele>1425</ele>
<time>2013-07-13T13:47:27.000Z</time>
</trkpt>
<trkpt lat="42.645583" lon="-1.211076">
<ele>1426</ele>
<time>2013-07-13T13:47:28.000Z</time>
</trkpt>
<trkpt lat="42.645626" lon="-1.210993">
<ele>1427</ele>
<time>2013-07-13T13:47:29.000Z</time>
</trkpt>
<trkpt lat="42.645669" lon="-1.210895">
<ele>1427</ele>
<time>2013-07-13T13:47:30.000Z</time>
</trkpt>
<trkpt lat="42.645716" lon="-1.210787">
<ele>1427</ele>
<time>2013-07-13T13:47:31.000Z</time>
</trkpt>
<trkpt lat="42.64576" lon="-1.210678">
<ele>1427</ele>
<time>2013-07-13T13:47:32.000Z</time>
</trkpt>
<trkpt lat="42.645801" lon="-1.210578">
<ele>1427</ele>
<time>2013-07-13T13:47:33.000Z</time>
</trkpt>
<trkpt lat="42.645836" lon="-1.210488">
<ele>1428</ele>
<time>2013-07-13T13:47:34.000Z</time>
</trkpt>
<trkpt lat="42.645869" lon="-1.210398">
<ele>1428</ele>
<time>2013-07-13T13:47:35.000Z</time>
</trkpt>
<trkpt lat="42.645897" lon="-1.210306">
<ele>1428</ele>
<time>2013-07-13T13:47:36.000Z</time>
</trkpt>
<trkpt lat="42.645901" lon="-1.21021">
<ele>1424</ele>
<time>2013-07-13T13:47:37.000Z</time>
</trkpt>
<trkpt lat="42.645905" lon="-1.210105">
<ele>1421</ele>
<time>2013-07-13T13:47:38.000Z</time>
</trkpt>
<trkpt lat="42.645917" lon="-1.209982">
<ele>1420</ele>
<time>2013-07-13T13:47:39.000Z</time>
</trkpt>
<trkpt lat="42.645936" lon="-1.209861">
<ele>1420</ele>
<time>2013-07-13T13:47:40.000Z</time>
</trkpt>
<trkpt lat="42.645954" lon="-1.209743">
<ele>1419</ele>
<time>2013-07-13T13:47:41.000Z</time>
</trkpt>
<trkpt lat="42.645971" lon="-1.209631">
<ele>1420</ele>
<time>2013-07-13T13:47:42.000Z</time>
</trkpt>
<trkpt lat="42.645982" lon="-1.209529">
<ele>1417</ele>
<time>2013-07-13T13:47:43.000Z</time>
</trkpt>
<trkpt lat="42.64599" lon="-1.209433">
<ele>1412</ele>
<time>2013-07-13T13:47:44.000Z</time>
</trkpt>
<trkpt lat="42.645996" lon="-1.209335">
<ele>1410</ele>
<time>2013-07-13T13:47:45.000Z</time>
</trkpt>
<trkpt lat="42.646012" lon="-1.20922">
<ele>1411</ele>
<time>2013-07-13T13:47:46.000Z</time>
</trkpt>
<trkpt lat="42.646031" lon="-1.209108">
<ele>1411</ele>
<time>2013-07-13T13:47:47.000Z</time>
</trkpt>
<trkpt lat="42.646049" lon="-1.208995">
<ele>1410</ele>
<time>2013-07-13T13:47:48.000Z</time>
</trkpt>
<trkpt lat="42.646066" lon="-1.208884">
<ele>1408</ele>
<time>2013-07-13T13:47:49.000Z</time>
</trkpt>
<trkpt lat="42.646078" lon="-1.20878">
<ele>1406</ele>
<time>2013-07-13T13:47:50.000Z</time>
</trkpt>
<trkpt lat="42.646086" lon="-1.208682">
<ele>1404</ele>
<time>2013-07-13T13:47:51.000Z</time>
</trkpt>
<trkpt lat="42.646096" lon="-1.208585">
<ele>1404</ele>
<time>2013-07-13T13:47:52.000Z</time>
</trkpt>
<trkpt lat="42.646108" lon="-1.208485">
<ele>1403</ele>
<time>2013-07-13T13:47:53.000Z</time>
</trkpt>
<trkpt lat="42.646125" lon="-1.208379">
<ele>1402</ele>
<time>2013-07-13T13:47:54.000Z</time>
</trkpt>
<trkpt lat="42.646142" lon="-1.208273">
<ele>1402</ele>
<time>2013-07-13T13:47:55.000Z</time>
</trkpt>
<trkpt lat="42.64616" lon="-1.208166">
<ele>1402</ele>
<time>2013-07-13T13:47:56.000Z</time>
</trkpt>
<trkpt lat="42.646182" lon="-1.208061">
<ele>1402</ele>
<time>2013-07-13T13:47:57.000Z</time>
</trkpt>
<trkpt lat="42.646209" lon="-1.207958">
<ele>1402</ele>
<time>2013-07-13T13:47:58.000Z</time>
</trkpt>
<trkpt lat="42.646237" lon="-1.207857">
<ele>1400</ele>
<time>2013-07-13T13:47:59.000Z</time>
</trkpt>
<trkpt lat="42.64626" lon="-1.207764">
<ele>1397</ele>
<time>2013-07-13T13:48:00.000Z</time>
</trkpt>
<trkpt lat="42.646289" lon="-1.207663">
<ele>1396</ele>
<time>2013-07-13T13:48:01.000Z</time>
</trkpt>
<trkpt lat="42.646318" lon="-1.207562">
<ele>1396</ele>
<time>2013-07-13T13:48:02.000Z</time>
</trkpt>
<trkpt lat="42.64634" lon="-1.207464">
<ele>1395</ele>
<time>2013-07-13T13:48:03.000Z</time>
</trkpt>
<trkpt lat="42.646361" lon="-1.207366">
<ele>1395</ele>
<time>2013-07-13T13:48:04.000Z</time>
</trkpt>
<trkpt lat="42.64638" lon="-1.207269">
<ele>1395</ele>
<time>2013-07-13T13:48:05.000Z</time>
</trkpt>
<trkpt lat="42.646399" lon="-1.20717">
<ele>1393</ele>
<time>2013-07-13T13:48:06.000Z</time>
</trkpt>
<trkpt lat="42.64642" lon="-1.207073">
<ele>1392</ele>
<time>2013-07-13T13:48:07.000Z</time>
</trkpt>
<trkpt lat="42.646443" lon="-1.206973">
<ele>1392</ele>
<time>2013-07-13T13:48:08.000Z</time>
</trkpt>
<trkpt lat="42.646465" lon="-1.206876">
<ele>1387</ele>
<time>2013-07-13T13:48:09.000Z</time>
</trkpt>
<trkpt lat="42.64648" lon="-1.206785">
<ele>1382</ele>
<time>2013-07-13T13:48:10.000Z</time>
</trkpt>
<trkpt lat="42.646494" lon="-1.206693">
<ele>1378</ele>
<time>2013-07-13T13:48:11.000Z</time>
</trkpt>
<trkpt lat="42.646509" lon="-1.206592">
<ele>1375</ele>
<time>2013-07-13T13:48:12.000Z</time>
</trkpt>
<trkpt lat="42.646519" lon="-1.206491">
<ele>1373</ele>
<time>2013-07-13T13:48:13.000Z</time>
</trkpt>
<trkpt lat="42.646497" lon="-1.20639">
<ele>1370</ele>
<time>2013-07-13T13:48:14.000Z</time>
</trkpt>
<trkpt lat="42.646477" lon="-1.206278">
<ele>1369</ele>
<time>2013-07-13T13:48:15.000Z</time>
</trkpt>
<trkpt lat="42.646462" lon="-1.206169">
<ele>1367</ele>
<time>2013-07-13T13:48:16.000Z</time>
</trkpt>
<trkpt lat="42.646475" lon="-1.20605">
<ele>1366</ele>
<time>2013-07-13T13:48:17.000Z</time>
</trkpt>
<trkpt lat="42.646495" lon="-1.205936">
<ele>1365</ele>
<time>2013-07-13T13:48:18.000Z</time>
</trkpt>
<trkpt lat="42.646515" lon="-1.205831">
<ele>1362</ele>
<time>2013-07-13T13:48:19.000Z</time>
</trkpt>
<trkpt lat="42.646539" lon="-1.205724">
<ele>1362</ele>
<time>2013-07-13T13:48:20.000Z</time>
</trkpt>
<trkpt lat="42.646558" lon="-1.205629">
<ele>1362</ele>
<time>2013-07-13T13:48:21.000Z</time>
</trkpt>
<trkpt lat="42.646577" lon="-1.205533">
<ele>1359</ele>
<time>2013-07-13T13:48:22.000Z</time>
</trkpt>
<trkpt lat="42.646604" lon="-1.205412">
<ele>1357</ele>
<time>2013-07-13T13:48:23.000Z</time>
</trkpt>
<trkpt lat="42.646629" lon="-1.205287">
<ele>1356</ele>
<time>2013-07-13T13:48:24.000Z</time>
</trkpt>
<trkpt lat="42.646631" lon="-1.20516">
<ele>1354</ele>
<time>2013-07-13T13:48:25.000Z</time>
</trkpt>
<trkpt lat="42.646628" lon="-1.205043">
<ele>1352</ele>
<time>2013-07-13T13:48:26.000Z</time>
</trkpt>
<trkpt lat="42.646621" lon="-1.204937">
<ele>1350</ele>
<time>2013-07-13T13:48:27.000Z</time>
</trkpt>
<trkpt lat="42.64662" lon="-1.204822">
<ele>1349</ele>
<time>2013-07-13T13:48:28.000Z</time>
</trkpt>
<trkpt lat="42.64662" lon="-1.20472">
<ele>1346</ele>
<time>2013-07-13T13:48:29.000Z</time>
</trkpt>
<trkpt lat="42.646622" lon="-1.204621">
<ele>1342</ele>
<time>2013-07-13T13:48:30.000Z</time>
</trkpt>
<trkpt lat="42.646626" lon="-1.204521">
<ele>1339</ele>
<time>2013-07-13T13:48:31.000Z</time>
</trkpt>
<trkpt lat="42.646631" lon="-1.204415">
<ele>1337</ele>
<time>2013-07-13T13:48:32.000Z</time>
</trkpt>
<trkpt lat="42.646641" lon="-1.2043">
<ele>1337</ele>
<time>2013-07-13T13:48:33.000Z</time>
</trkpt>
<trkpt lat="42.646654" lon="-1.204183">
<ele>1337</ele>
<time>2013-07-13T13:48:34.000Z</time>
</trkpt>
<trkpt lat="42.646667" lon="-1.204075">
<ele>1334</ele>
<time>2013-07-13T13:48:35.000Z</time>
</trkpt>
<trkpt lat="42.646683" lon="-1.203959">
<ele>1330</ele>
<time>2013-07-13T13:48:36.000Z</time>
</trkpt>
<trkpt lat="42.646723" lon="-1.203864">
<ele>1328</ele>
<time>2013-07-13T13:48:37.000Z</time>
</trkpt>
<trkpt lat="42.64677" lon="-1.203761">
<ele>1329</ele>
<time>2013-07-13T13:48:38.000Z</time>
</trkpt>
<trkpt lat="42.646819" lon="-1.203657">
<ele>1328</ele>
<time>2013-07-13T13:48:39.000Z</time>
</trkpt>
<trkpt lat="42.646862" lon="-1.203556">
<ele>1327</ele>
<time>2013-07-13T13:48:40.000Z</time>
</trkpt>
<trkpt lat="42.646904" lon="-1.203448">
<ele>1326</ele>
<time>2013-07-13T13:48:41.000Z</time>
</trkpt>
<trkpt lat="42.646935" lon="-1.203343">
<ele>1322</ele>
<time>2013-07-13T13:48:42.000Z</time>
</trkpt>
<trkpt lat="42.646961" lon="-1.203231">
<ele>1319</ele>
<time>2013-07-13T13:48:43.000Z</time>
</trkpt>
<trkpt lat="42.646994" lon="-1.203116">
<ele>1317</ele>
<time>2013-07-13T13:48:44.000Z</time>
</trkpt>
<trkpt lat="42.64702" lon="-1.203006">
<ele>1316</ele>
<time>2013-07-13T13:48:45.000Z</time>
</trkpt>
<trkpt lat="42.647032" lon="-1.202914">
<ele>1313</ele>
<time>2013-07-13T13:48:46.000Z</time>
</trkpt>
<trkpt lat="42.647046" lon="-1.202831">
<ele>1313</ele>
<time>2013-07-13T13:48:47.000Z</time>
</trkpt>
<trkpt lat="42.647063" lon="-1.202741">
<ele>1313</ele>
<time>2013-07-13T13:48:48.000Z</time>
</trkpt>
<trkpt lat="42.647093" lon="-1.202625">
<ele>1313</ele>
<time>2013-07-13T13:48:49.000Z</time>
</trkpt>
<trkpt lat="42.64713" lon="-1.202514">
<ele>1312</ele>
<time>2013-07-13T13:48:50.000Z</time>
</trkpt>
<trkpt lat="42.647164" lon="-1.202403">
<ele>1309</ele>
<time>2013-07-13T13:48:51.000Z</time>
</trkpt>
<trkpt lat="42.647199" lon="-1.202289">
<ele>1308</ele>
<time>2013-07-13T13:48:52.000Z</time>
</trkpt>
<trkpt lat="42.647227" lon="-1.202189">
<ele>1308</ele>
<time>2013-07-13T13:48:53.000Z</time>
</trkpt>
<trkpt lat="42.647245" lon="-1.202104">
<ele>1304</ele>
<time>2013-07-13T13:48:54.000Z</time>
</trkpt>
<trkpt lat="42.647265" lon="-1.202013">
<ele>1301</ele>
<time>2013-07-13T13:48:55.000Z</time>
</trkpt>
<trkpt lat="42.647288" lon="-1.201918">
<ele>1300</ele>
<time>2013-07-13T13:48:56.000Z</time>
</trkpt>
<trkpt lat="42.647318" lon="-1.20181">
<ele>1298</ele>
<time>2013-07-13T13:48:57.000Z</time>
</trkpt>
<trkpt lat="42.647351" lon="-1.201698">
<ele>1295</ele>
<time>2013-07-13T13:48:58.000Z</time>
</trkpt>
<trkpt lat="42.647384" lon="-1.201578">
<ele>1293</ele>
<time>2013-07-13T13:48:59.000Z</time>
</trkpt>
<trkpt lat="42.647421" lon="-1.201462">
<ele>1293</ele>
<time>2013-07-13T13:49:00.000Z</time>
</trkpt>
<trkpt lat="42.647459" lon="-1.201354">
<ele>1293</ele>
<time>2013-07-13T13:49:01.000Z</time>
</trkpt>
<trkpt lat="42.647491" lon="-1.201258">
<ele>1290</ele>
<time>2013-07-13T13:49:02.000Z</time>
</trkpt>
<trkpt lat="42.647525" lon="-1.201146">
<ele>1289</ele>
<time>2013-07-13T13:49:03.000Z</time>
</trkpt>
<trkpt lat="42.647558" lon="-1.201027">
<ele>1287</ele>
<time>2013-07-13T13:49:04.000Z</time>
</trkpt>
<trkpt lat="42.647596" lon="-1.200896">
<ele>1285</ele>
<time>2013-07-13T13:49:05.000Z</time>
</trkpt>
<trkpt lat="42.647636" lon="-1.200758">
<ele>1284</ele>
<time>2013-07-13T13:49:06.000Z</time>
</trkpt>
<trkpt lat="42.64767" lon="-1.200639">
<ele>1282</ele>
<time>2013-07-13T13:49:07.000Z</time>
</trkpt>
<trkpt lat="42.647708" lon="-1.200524">
<ele>1282</ele>
<time>2013-07-13T13:49:08.000Z</time>
</trkpt>
<trkpt lat="42.647771" lon="-1.200422">
<ele>1282</ele>
<time>2013-07-13T13:49:09.000Z</time>
</trkpt>
<trkpt lat="42.647837" lon="-1.200321">
<ele>1280</ele>
<time>2013-07-13T13:49:10.000Z</time>
</trkpt>
<trkpt lat="42.647895" lon="-1.20023">
<ele>1277</ele>
<time>2013-07-13T13:49:11.000Z</time>
</trkpt>
<trkpt lat="42.647948" lon="-1.20014">
<ele>1276</ele>
<time>2013-07-13T13:49:12.000Z</time>
</trkpt>
<trkpt lat="42.647996" lon="-1.20005">
<ele>1275</ele>
<time>2013-07-13T13:49:13.000Z</time>
</trkpt>
<trkpt lat="42.648041" lon="-1.199953">
<ele>1274</ele>
<time>2013-07-13T13:49:14.000Z</time>
</trkpt>
<trkpt lat="42.648093" lon="-1.199843">
<ele>1274</ele>
<time>2013-07-13T13:49:15.000Z</time>
</trkpt>
<trkpt lat="42.648145" lon="-1.199732">
<ele>1272</ele>
<time>2013-07-13T13:49:16.000Z</time>
</trkpt>
<trkpt lat="42.648208" lon="-1.199615">
<ele>1270</ele>
<time>2013-07-13T13:49:17.000Z</time>
</trkpt>
<trkpt lat="42.648266" lon="-1.199515">
<ele>1270</ele>
<time>2013-07-13T13:49:18.000Z</time>
</trkpt>
<trkpt lat="42.648322" lon="-1.199424">
<ele>1271</ele>
<time>2013-07-13T13:49:19.000Z</time>
</trkpt>
<trkpt lat="42.648369" lon="-1.199344">
<ele>1272</ele>
<time>2013-07-13T13:49:20.000Z</time>
</trkpt>
<trkpt lat="42.648415" lon="-1.199265">
<ele>1272</ele>
<time>2013-07-13T13:49:21.000Z</time>
</trkpt>
<trkpt lat="42.648461" lon="-1.199186">
<ele>1273</ele>
<time>2013-07-13T13:49:22.000Z</time>
</trkpt>
<trkpt lat="42.648507" lon="-1.199102">
<ele>1272</ele>
<time>2013-07-13T13:49:23.000Z</time>
</trkpt>
<trkpt lat="42.648554" lon="-1.199015">
<ele>1272</ele>
<time>2013-07-13T13:49:24.000Z</time>
</trkpt>
<trkpt lat="42.648604" lon="-1.198923">
<ele>1271</ele>
<time>2013-07-13T13:49:25.000Z</time>
</trkpt>
<trkpt lat="42.648655" lon="-1.198825">
<ele>1271</ele>
<time>2013-07-13T13:49:26.000Z</time>
</trkpt>
<trkpt lat="42.648703" lon="-1.198725">
<ele>1271</ele>
<time>2013-07-13T13:49:27.000Z</time>
</trkpt>
<trkpt lat="42.648749" lon="-1.198627">
<ele>1270</ele>
<time>2013-07-13T13:49:28.000Z</time>
</trkpt>
<trkpt lat="42.648793" lon="-1.19853">
<ele>1271</ele>
<time>2013-07-13T13:49:29.000Z</time>
</trkpt>
<trkpt lat="42.648838" lon="-1.198432">
<ele>1270</ele>
<time>2013-07-13T13:49:30.000Z</time>
</trkpt>
<trkpt lat="42.64888" lon="-1.198335">
<ele>1269</ele>
<time>2013-07-13T13:49:31.000Z</time>
</trkpt>
<trkpt lat="42.648926" lon="-1.198234">
<ele>1269</ele>
<time>2013-07-13T13:49:32.000Z</time>
</trkpt>
<trkpt lat="42.648978" lon="-1.19813">
<ele>1268</ele>
<time>2013-07-13T13:49:33.000Z</time>
</trkpt>
<trkpt lat="42.649035" lon="-1.19802">
<ele>1266</ele>
<time>2013-07-13T13:49:34.000Z</time>
</trkpt>
<trkpt lat="42.64909" lon="-1.197909">
<ele>1264</ele>
<time>2013-07-13T13:49:35.000Z</time>
</trkpt>
<trkpt lat="42.649142" lon="-1.197803">
<ele>1262</ele>
<time>2013-07-13T13:49:36.000Z</time>
</trkpt>
<trkpt lat="42.649186" lon="-1.197705">
<ele>1262</ele>
<time>2013-07-13T13:49:37.000Z</time>
</trkpt>
<trkpt lat="42.649229" lon="-1.197604">
<ele>1261</ele>
<time>2013-07-13T13:49:38.000Z</time>
</trkpt>
<trkpt lat="42.649274" lon="-1.197487">
<ele>1260</ele>
<time>2013-07-13T13:49:39.000Z</time>
</trkpt>
<trkpt lat="42.64932" lon="-1.197364">
<ele>1258</ele>
<time>2013-07-13T13:49:40.000Z</time>
</trkpt>
<trkpt lat="42.649374" lon="-1.197222">
<ele>1256</ele>
<time>2013-07-13T13:49:41.000Z</time>
</trkpt>
<trkpt lat="42.649419" lon="-1.197083">
<ele>1253</ele>
<time>2013-07-13T13:49:42.000Z</time>
</trkpt>
<trkpt lat="42.649469" lon="-1.196935">
<ele>1253</ele>
<time>2013-07-13T13:49:43.000Z</time>
</trkpt>
<trkpt lat="42.64952" lon="-1.1968">
<ele>1252</ele>
<time>2013-07-13T13:49:44.000Z</time>
</trkpt>
<trkpt lat="42.649564" lon="-1.196684">
<ele>1252</ele>
<time>2013-07-13T13:49:45.000Z</time>
</trkpt>
<trkpt lat="42.649603" lon="-1.19658">
<ele>1251</ele>
<time>2013-07-13T13:49:46.000Z</time>
</trkpt>
<trkpt lat="42.649634" lon="-1.196504">
<ele>1248</ele>
<time>2013-07-13T13:49:47.000Z</time>
</trkpt>
<trkpt lat="42.649669" lon="-1.196466">
<ele>1245</ele>
<time>2013-07-13T13:49:48.000Z</time>
</trkpt>
<trkpt lat="42.64972" lon="-1.196444">
<ele>1243</ele>
<time>2013-07-13T13:49:49.000Z</time>
</trkpt>
<trkpt lat="42.649799" lon="-1.196438">
<ele>1241</ele>
<time>2013-07-13T13:49:50.000Z</time>
</trkpt>
<trkpt lat="42.649844" lon="-1.196467">
<ele>1236</ele>
<time>2013-07-13T13:49:51.000Z</time>
</trkpt>
<trkpt lat="42.649888" lon="-1.196518">
<ele>1232</ele>
<time>2013-07-13T13:49:52.000Z</time>
</trkpt>
<trkpt lat="42.649938" lon="-1.196569">
<ele>1230</ele>
<time>2013-07-13T13:49:53.000Z</time>
</trkpt>
<trkpt lat="42.649986" lon="-1.196621">
<ele>1229</ele>
<time>2013-07-13T13:49:54.000Z</time>
</trkpt>
<trkpt lat="42.650026" lon="-1.196664">
<ele>1229</ele>
<time>2013-07-13T13:49:55.000Z</time>
</trkpt>
<trkpt lat="42.650058" lon="-1.196701">
<ele>1228</ele>
<time>2013-07-13T13:49:56.000Z</time>
</trkpt>
<trkpt lat="42.650072" lon="-1.196748">
<ele>1227</ele>
<time>2013-07-13T13:49:57.000Z</time>
</trkpt>
<trkpt lat="42.650076" lon="-1.1968">
<ele>1228</ele>
<time>2013-07-13T13:49:58.000Z</time>
</trkpt>
<trkpt lat="42.650077" lon="-1.196907">
<ele>1227</ele>
<time>2013-07-13T13:49:59.000Z</time>
</trkpt>
<trkpt lat="42.650079" lon="-1.197013">
<ele>1223</ele>
<time>2013-07-13T13:50:00.000Z</time>
</trkpt>
<trkpt lat="42.650083" lon="-1.197101">
<ele>1219</ele>
<time>2013-07-13T13:50:01.000Z</time>
</trkpt>
<trkpt lat="42.650089" lon="-1.197174">
<ele>1216</ele>
<time>2013-07-13T13:50:02.000Z</time>
</trkpt>
<trkpt lat="42.650095" lon="-1.197248">
<ele>1215</ele>
<time>2013-07-13T13:50:03.000Z</time>
</trkpt>
<trkpt lat="42.6501" lon="-1.197325">
<ele>1215</ele>
<time>2013-07-13T13:50:04.000Z</time>
</trkpt>
<trkpt lat="42.650092" lon="-1.197404">
<ele>1214</ele>
<time>2013-07-13T13:50:05.000Z</time>
</trkpt>
<trkpt lat="42.650077" lon="-1.197479">
<ele>1214</ele>
<time>2013-07-13T13:50:06.000Z</time>
</trkpt>
<trkpt lat="42.65006" lon="-1.197556">
<ele>1212</ele>
<time>2013-07-13T13:50:07.000Z</time>
</trkpt>
<trkpt lat="42.650042" lon="-1.197624">
<ele>1211</ele>
<time>2013-07-13T13:50:08.000Z</time>
</trkpt>
<trkpt lat="42.650021" lon="-1.197702">
<ele>1210</ele>
<time>2013-07-13T13:50:09.000Z</time>
</trkpt>
<trkpt lat="42.649996" lon="-1.19779">
<ele>1210</ele>
<time>2013-07-13T13:50:10.000Z</time>
</trkpt>
<trkpt lat="42.649973" lon="-1.197877">
<ele>1210</ele>
<time>2013-07-13T13:50:11.000Z</time>
</trkpt>
<trkpt lat="42.649956" lon="-1.197961">
<ele>1208</ele>
<time>2013-07-13T13:50:12.000Z</time>
</trkpt>
<trkpt lat="42.649942" lon="-1.198044">
<ele>1209</ele>
<time>2013-07-13T13:50:13.000Z</time>
</trkpt>
<trkpt lat="42.649932" lon="-1.198115">
<ele>1207</ele>
<time>2013-07-13T13:50:14.000Z</time>
</trkpt>
<trkpt lat="42.649923" lon="-1.198183">
<ele>1206</ele>
<time>2013-07-13T13:50:15.000Z</time>
</trkpt>
<trkpt lat="42.649918" lon="-1.198256">
<ele>1204</ele>
<time>2013-07-13T13:50:16.000Z</time>
</trkpt>
<trkpt lat="42.649915" lon="-1.198344">
<ele>1203</ele>
<time>2013-07-13T13:50:17.000Z</time>
</trkpt>
<trkpt lat="42.649917" lon="-1.198435">
<ele>1201</ele>
<time>2013-07-13T13:50:18.000Z</time>
</trkpt>
<trkpt lat="42.649921" lon="-1.198523">
<ele>1199</ele>
<time>2013-07-13T13:50:19.000Z</time>
</trkpt>
<trkpt lat="42.649929" lon="-1.198607">
<ele>1198</ele>
<time>2013-07-13T13:50:20.000Z</time>
</trkpt>
<trkpt lat="42.64994" lon="-1.198679">
<ele>1196</ele>
<time>2013-07-13T13:50:21.000Z</time>
</trkpt>
<trkpt lat="42.649954" lon="-1.198757">
<ele>1194</ele>
<time>2013-07-13T13:50:22.000Z</time>
</trkpt>
<trkpt lat="42.649971" lon="-1.198849">
<ele>1192</ele>
<time>2013-07-13T13:50:23.000Z</time>
</trkpt>
<trkpt lat="42.649987" lon="-1.198945">
<ele>1190</ele>
<time>2013-07-13T13:50:24.000Z</time>
</trkpt>
<trkpt lat="42.650004" lon="-1.199038">
<ele>1189</ele>
<time>2013-07-13T13:50:25.000Z</time>
</trkpt>
<trkpt lat="42.650022" lon="-1.199126">
<ele>1188</ele>
<time>2013-07-13T13:50:26.000Z</time>
</trkpt>
<trkpt lat="42.650042" lon="-1.199214">
<ele>1187</ele>
<time>2013-07-13T13:50:27.000Z</time>
</trkpt>
<trkpt lat="42.65006" lon="-1.199291">
<ele>1185</ele>
<time>2013-07-13T13:50:28.000Z</time>
</trkpt>
<trkpt lat="42.650077" lon="-1.19937">
<ele>1182</ele>
<time>2013-07-13T13:50:29.000Z</time>
</trkpt>
<trkpt lat="42.650091" lon="-1.199455">
<ele>1181</ele>
<time>2013-07-13T13:50:30.000Z</time>
</trkpt>
<trkpt lat="42.650102" lon="-1.199542">
<ele>1180</ele>
<time>2013-07-13T13:50:31.000Z</time>
</trkpt>
<trkpt lat="42.650111" lon="-1.199634">
<ele>1180</ele>
<time>2013-07-13T13:50:32.000Z</time>
</trkpt>
<trkpt lat="42.65012" lon="-1.199735">
<ele>1179</ele>
<time>2013-07-13T13:50:33.000Z</time>
</trkpt>
<trkpt lat="42.650128" lon="-1.199841">
<ele>1179</ele>
<time>2013-07-13T13:50:34.000Z</time>
</trkpt>
<trkpt lat="42.650137" lon="-1.199947">
<ele>1178</ele>
<time>2013-07-13T13:50:35.000Z</time>
</trkpt>
<trkpt lat="42.650145" lon="-1.20005">
<ele>1177</ele>
<time>2013-07-13T13:50:36.000Z</time>
</trkpt>
<trkpt lat="42.65015" lon="-1.200152">
<ele>1176</ele>
<time>2013-07-13T13:50:37.000Z</time>
</trkpt>
<trkpt lat="42.650151" lon="-1.200251">
<ele>1175</ele>
<time>2013-07-13T13:50:38.000Z</time>
</trkpt>
<trkpt lat="42.650149" lon="-1.200353">
<ele>1175</ele>
<time>2013-07-13T13:50:39.000Z</time>
</trkpt>
<trkpt lat="42.650148" lon="-1.200453">
<ele>1174</ele>
<time>2013-07-13T13:50:40.000Z</time>
</trkpt>
<trkpt lat="42.650146" lon="-1.200558">
<ele>1173</ele>
<time>2013-07-13T13:50:41.000Z</time>
</trkpt>
<trkpt lat="42.650146" lon="-1.20066">
<ele>1171</ele>
<time>2013-07-13T13:50:42.000Z</time>
</trkpt>
<trkpt lat="42.650147" lon="-1.20076">
<ele>1169</ele>
<time>2013-07-13T13:50:43.000Z</time>
</trkpt>
<trkpt lat="42.650144" lon="-1.200865">
<ele>1169</ele>
<time>2013-07-13T13:50:44.000Z</time>
</trkpt>
<trkpt lat="42.650135" lon="-1.200967">
<ele>1168</ele>
<time>2013-07-13T13:50:45.000Z</time>
</trkpt>
<trkpt lat="42.650124" lon="-1.201063">
<ele>1165</ele>
<time>2013-07-13T13:50:46.000Z</time>
</trkpt>
<trkpt lat="42.65011" lon="-1.201161">
<ele>1165</ele>
<time>2013-07-13T13:50:47.000Z</time>
</trkpt>
<trkpt lat="42.650099" lon="-1.201254">
<ele>1160</ele>
<time>2013-07-13T13:50:48.000Z</time>
</trkpt>
<trkpt lat="42.650089" lon="-1.201345">
<ele>1157</ele>
<time>2013-07-13T13:50:49.000Z</time>
</trkpt>
<trkpt lat="42.650076" lon="-1.201434">
<ele>1156</ele>
<time>2013-07-13T13:50:50.000Z</time>
</trkpt>
<trkpt lat="42.65006" lon="-1.20152">
<ele>1156</ele>
<time>2013-07-13T13:50:51.000Z</time>
</trkpt>
<trkpt lat="42.650043" lon="-1.201611">
<ele>1157</ele>
<time>2013-07-13T13:50:52.000Z</time>
</trkpt>
<trkpt lat="42.650031" lon="-1.201706">
<ele>1153</ele>
<time>2013-07-13T13:50:53.000Z</time>
</trkpt>
<trkpt lat="42.650037" lon="-1.201808">
<ele>1152</ele>
<time>2013-07-13T13:50:54.000Z</time>
</trkpt>
<trkpt lat="42.65005" lon="-1.201913">
<ele>1150</ele>
<time>2013-07-13T13:50:55.000Z</time>
</trkpt>
<trkpt lat="42.650072" lon="-1.20201">
<ele>1151</ele>
<time>2013-07-13T13:50:56.000Z</time>
</trkpt>
<trkpt lat="42.650116" lon="-1.2021">
<ele>1147</ele>
<time>2013-07-13T13:50:57.000Z</time>
</trkpt>
<trkpt lat="42.650155" lon="-1.202189">
<ele>1145</ele>
<time>2013-07-13T13:50:58.000Z</time>
</trkpt>
<trkpt lat="42.650188" lon="-1.202278">
<ele>1142</ele>
<time>2013-07-13T13:50:59.000Z</time>
</trkpt>
<trkpt lat="42.650215" lon="-1.202365">
<ele>1141</ele>
<time>2013-07-13T13:51:00.000Z</time>
</trkpt>
<trkpt lat="42.650235" lon="-1.202449">
<ele>1142</ele>
<time>2013-07-13T13:51:01.000Z</time>
</trkpt>
<trkpt lat="42.650254" lon="-1.202536">
<ele>1143</ele>
<time>2013-07-13T13:51:02.000Z</time>
</trkpt>
<trkpt lat="42.650278" lon="-1.20262">
<ele>1141</ele>
<time>2013-07-13T13:51:03.000Z</time>
</trkpt>
<trkpt lat="42.650304" lon="-1.202698">
<ele>1137</ele>
<time>2013-07-13T13:51:04.000Z</time>
</trkpt>
<trkpt lat="42.650333" lon="-1.202789">
<ele>1136</ele>
<time>2013-07-13T13:51:05.000Z</time>
</trkpt>
<trkpt lat="42.65036" lon="-1.202874">
<ele>1137</ele>
<time>2013-07-13T13:51:06.000Z</time>
</trkpt>
<trkpt lat="42.650385" lon="-1.202972">
<ele>1137</ele>
<time>2013-07-13T13:51:07.000Z</time>
</trkpt>
<trkpt lat="42.65041" lon="-1.203082">
<ele>1132</ele>
<time>2013-07-13T13:51:08.000Z</time>
</trkpt>
<trkpt lat="42.650428" lon="-1.203189">
<ele>1132</ele>
<time>2013-07-13T13:51:09.000Z</time>
</trkpt>
<trkpt lat="42.650442" lon="-1.203287">
<ele>1131</ele>
<time>2013-07-13T13:51:10.000Z</time>
</trkpt>
<trkpt lat="42.650456" lon="-1.203379">
<ele>1128</ele>
<time>2013-07-13T13:51:11.000Z</time>
</trkpt>
<trkpt lat="42.65047" lon="-1.203472">
<ele>1126</ele>
<time>2013-07-13T13:51:12.000Z</time>
</trkpt>
<trkpt lat="42.650484" lon="-1.203563">
<ele>1125</ele>
<time>2013-07-13T13:51:13.000Z</time>
</trkpt>
<trkpt lat="42.650495" lon="-1.203649">
<ele>1123</ele>
<time>2013-07-13T13:51:14.000Z</time>
</trkpt>
<trkpt lat="42.6505" lon="-1.203748">
<ele>1122</ele>
<time>2013-07-13T13:51:15.000Z</time>
</trkpt>
<trkpt lat="42.650486" lon="-1.203856">
<ele>1121</ele>
<time>2013-07-13T13:51:16.000Z</time>
</trkpt>
<trkpt lat="42.650467" lon="-1.203978">
<ele>1121</ele>
<time>2013-07-13T13:51:17.000Z</time>
</trkpt>
<trkpt lat="42.65045" lon="-1.2041">
<ele>1120</ele>
<time>2013-07-13T13:51:18.000Z</time>
</trkpt>
<trkpt lat="42.650434" lon="-1.204228">
<ele>1121</ele>
<time>2013-07-13T13:51:19.000Z</time>
</trkpt>
<trkpt lat="42.650419" lon="-1.20435">
<ele>1122</ele>
<time>2013-07-13T13:51:20.000Z</time>
</trkpt>
<trkpt lat="42.650391" lon="-1.204443">
<ele>1122</ele>
<time>2013-07-13T13:51:21.000Z</time>
</trkpt>
<trkpt lat="42.650359" lon="-1.204527">
<ele>1123</ele>
<time>2013-07-13T13:51:22.000Z</time>
</trkpt>
<trkpt lat="42.65031" lon="-1.204597">
<ele>1123</ele>
<time>2013-07-13T13:51:23.000Z</time>
</trkpt>
<trkpt lat="42.65026" lon="-1.20467">
<ele>1124</ele>
<time>2013-07-13T13:51:24.000Z</time>
</trkpt>
<trkpt lat="42.650211" lon="-1.204748">
<ele>1126</ele>
<time>2013-07-13T13:51:25.000Z</time>
</trkpt>
<trkpt lat="42.650188" lon="-1.204838">
<ele>1127</ele>
<time>2013-07-13T13:51:26.000Z</time>
</trkpt>
<trkpt lat="42.6502" lon="-1.204922">
<ele>1127</ele>
<time>2013-07-13T13:51:27.000Z</time>
</trkpt>
<trkpt lat="42.650237" lon="-1.204984">
<ele>1128</ele>
<time>2013-07-13T13:51:28.000Z</time>
</trkpt>
<trkpt lat="42.650289" lon="-1.204995">
<ele>1129</ele>
<time>2013-07-13T13:51:29.000Z</time>
</trkpt>
<trkpt lat="42.650342" lon="-1.204962">
<ele>1129</ele>
<time>2013-07-13T13:51:30.000Z</time>
</trkpt>
<trkpt lat="42.650376" lon="-1.204889">
<ele>1127</ele>
<time>2013-07-13T13:51:31.000Z</time>
</trkpt>
<trkpt lat="42.65039" lon="-1.204795">
<ele>1128</ele>
<time>2013-07-13T13:51:32.000Z</time>
</trkpt>
<trkpt lat="42.650376" lon="-1.204686">
<ele>1130</ele>
<time>2013-07-13T13:51:33.000Z</time>
</trkpt>
<trkpt lat="42.650328" lon="-1.204574">
<ele>1129</ele>
<time>2013-07-13T13:51:34.000Z</time>
</trkpt>
<trkpt lat="42.650284" lon="-1.204481">
<ele>1128</ele>
<time>2013-07-13T13:51:35.000Z</time>
</trkpt>
<trkpt lat="42.650252" lon="-1.204408">
<ele>1129</ele>
<time>2013-07-13T13:51:36.000Z</time>
</trkpt>
<trkpt lat="42.650246" lon="-1.20432">
<ele>1129</ele>
<time>2013-07-13T13:51:37.000Z</time>
</trkpt>
<trkpt lat="42.650239" lon="-1.204218">
<ele>1129</ele>
<time>2013-07-13T13:51:38.000Z</time>
</trkpt>
<trkpt lat="42.650221" lon="-1.204096">
<ele>1129</ele>
<time>2013-07-13T13:51:39.000Z</time>
</trkpt>
<trkpt lat="42.650183" lon="-1.203972">
<ele>1130</ele>
<time>2013-07-13T13:51:40.000Z</time>
</trkpt>
<trkpt lat="42.650146" lon="-1.203855">
<ele>1131</ele>
<time>2013-07-13T13:51:41.000Z</time>
</trkpt>
<trkpt lat="42.650142" lon="-1.203762">
<ele>1132</ele>
<time>2013-07-13T13:51:42.000Z</time>
</trkpt>
<trkpt lat="42.650169" lon="-1.203673">
<ele>1134</ele>
<time>2013-07-13T13:51:43.000Z</time>
</trkpt>
<trkpt lat="42.650224" lon="-1.203593">
<ele>1140</ele>
<time>2013-07-13T13:51:44.000Z</time>
</trkpt>
<trkpt lat="42.650286" lon="-1.203562">
<ele>1142</ele>
<time>2013-07-13T13:51:45.000Z</time>
</trkpt>
<trkpt lat="42.650345" lon="-1.203579">
<ele>1143</ele>
<time>2013-07-13T13:51:46.000Z</time>
</trkpt>
<trkpt lat="42.650381" lon="-1.203637">
<ele>1143</ele>
<time>2013-07-13T13:51:47.000Z</time>
</trkpt>
<trkpt lat="42.650379" lon="-1.203711">
<ele>1143</ele>
<time>2013-07-13T13:51:48.000Z</time>
</trkpt>
<trkpt lat="42.650352" lon="-1.203807">
<ele>1144</ele>
<time>2013-07-13T13:51:49.000Z</time>
</trkpt>
<trkpt lat="42.6503" lon="-1.203885">
<ele>1144</ele>
<time>2013-07-13T13:51:50.000Z</time>
</trkpt>
<trkpt lat="42.650224" lon="-1.203948">
<ele>1146</ele>
<time>2013-07-13T13:51:51.000Z</time>
</trkpt>
<trkpt lat="42.65014" lon="-1.204008">
<ele>1147</ele>
<time>2013-07-13T13:51:52.000Z</time>
</trkpt>
<trkpt lat="42.650059" lon="-1.204052">
<ele>1149</ele>
<time>2013-07-13T13:51:53.000Z</time>
</trkpt>
<trkpt lat="42.649978" lon="-1.204082">
<ele>1151</ele>
<time>2013-07-13T13:51:54.000Z</time>
</trkpt>
<trkpt lat="42.649893" lon="-1.204081">
<ele>1152</ele>
<time>2013-07-13T13:51:55.000Z</time>
</trkpt>
<trkpt lat="42.649821" lon="-1.204084">
<ele>1152</ele>
<time>2013-07-13T13:51:56.000Z</time>
</trkpt>
<trkpt lat="42.649759" lon="-1.20412">
<ele>1151</ele>
<time>2013-07-13T13:51:57.000Z</time>
</trkpt>
<trkpt lat="42.649705" lon="-1.204177">
<ele>1152</ele>
<time>2013-07-13T13:51:58.000Z</time>
</trkpt>
<trkpt lat="42.649639" lon="-1.204256">
<ele>1151</ele>
<time>2013-07-13T13:51:59.000Z</time>
</trkpt>
<trkpt lat="42.649586" lon="-1.204375">
<ele>1152</ele>
<time>2013-07-13T13:52:00.000Z</time>
</trkpt>
<trkpt lat="42.649544" lon="-1.204482">
<ele>1155</ele>
<time>2013-07-13T13:52:01.000Z</time>
</trkpt>
<trkpt lat="42.649511" lon="-1.204588">
<ele>1153</ele>
<time>2013-07-13T13:52:02.000Z</time>
</trkpt>
<trkpt lat="42.649482" lon="-1.204701">
<ele>1154</ele>
<time>2013-07-13T13:52:03.000Z</time>
</trkpt>
<trkpt lat="42.649459" lon="-1.204806">
<ele>1156</ele>
<time>2013-07-13T13:52:04.000Z</time>
</trkpt>
<trkpt lat="42.649442" lon="-1.2049">
<ele>1158</ele>
<time>2013-07-13T13:52:05.000Z</time>
</trkpt>
<trkpt lat="42.649418" lon="-1.204994">
<ele>1159</ele>
<time>2013-07-13T13:52:06.000Z</time>
</trkpt>
<trkpt lat="42.649371" lon="-1.20508">
<ele>1160</ele>
<time>2013-07-13T13:52:07.000Z</time>
</trkpt>
<trkpt lat="42.649318" lon="-1.205167">
<ele>1161</ele>
<time>2013-07-13T13:52:08.000Z</time>
</trkpt>
<trkpt lat="42.649257" lon="-1.205251">
<ele>1162</ele>
<time>2013-07-13T13:52:09.000Z</time>
</trkpt>
<trkpt lat="42.649188" lon="-1.205331">
<ele>1165</ele>
<time>2013-07-13T13:52:10.000Z</time>
</trkpt>
<trkpt lat="42.649119" lon="-1.2054">
<ele>1166</ele>
<time>2013-07-13T13:52:11.000Z</time>
</trkpt>
<trkpt lat="42.649057" lon="-1.205468">
<ele>1166</ele>
<time>2013-07-13T13:52:12.000Z</time>
</trkpt>
<trkpt lat="42.649006" lon="-1.205568">
<ele>1169</ele>
<time>2013-07-13T13:52:13.000Z</time>
</trkpt>
<trkpt lat="42.64896" lon="-1.205677">
<ele>1170</ele>
<time>2013-07-13T13:52:14.000Z</time>
</trkpt>
<trkpt lat="42.648939" lon="-1.205797">
<ele>1172</ele>
<time>2013-07-13T13:52:15.000Z</time>
</trkpt>
<trkpt lat="42.648925" lon="-1.205908">
<ele>1175</ele>
<time>2013-07-13T13:52:16.000Z</time>
</trkpt>
<trkpt lat="42.648932" lon="-1.206001">
<ele>1177</ele>
<time>2013-07-13T13:52:17.000Z</time>
</trkpt>
<trkpt lat="42.648958" lon="-1.20604">
<ele>1179</ele>
<time>2013-07-13T13:52:18.000Z</time>
</trkpt>
<trkpt lat="42.648989" lon="-1.206051">
<ele>1181</ele>
<time>2013-07-13T13:52:19.000Z</time>
</trkpt>
<trkpt lat="42.649031" lon="-1.206037">
<ele>1183</ele>
<time>2013-07-13T13:52:21.000Z</time>
</trkpt>
<trkpt lat="42.64905" lon="-1.206012">
<ele>1182</ele>
<time>2013-07-13T13:52:22.000Z</time>
</trkpt>
<trkpt lat="42.64906" lon="-1.205962">
<ele>1183</ele>
<time>2013-07-13T13:52:23.000Z</time>
</trkpt>
<trkpt lat="42.649064" lon="-1.205869">
<ele>1182</ele>
<time>2013-07-13T13:52:24.000Z</time>
</trkpt>
<trkpt lat="42.649055" lon="-1.205739">
<ele>1181</ele>
<time>2013-07-13T13:52:25.000Z</time>
</trkpt>
<trkpt lat="42.649023" lon="-1.205607">
<ele>1181</ele>
<time>2013-07-13T13:52:26.000Z</time>
</trkpt>
<trkpt lat="42.64899" lon="-1.205482">
<ele>1181</ele>
<time>2013-07-13T13:52:27.000Z</time>
</trkpt>
<trkpt lat="42.648959" lon="-1.205367">
<ele>1182</ele>
<time>2013-07-13T13:52:28.000Z</time>
</trkpt>
<trkpt lat="42.648933" lon="-1.205257">
<ele>1181</ele>
<time>2013-07-13T13:52:29.000Z</time>
</trkpt>
<trkpt lat="42.648929" lon="-1.205139">
<ele>1181</ele>
<time>2013-07-13T13:52:30.000Z</time>
</trkpt>
<trkpt lat="42.648925" lon="-1.205034">
<ele>1181</ele>
<time>2013-07-13T13:52:31.000Z</time>
</trkpt>
<trkpt lat="42.648922" lon="-1.204928">
<ele>1181</ele>
<time>2013-07-13T13:52:32.000Z</time>
</trkpt>
<trkpt lat="42.648922" lon="-1.204821">
<ele>1180</ele>
<time>2013-07-13T13:52:33.000Z</time>
</trkpt>
<trkpt lat="42.648928" lon="-1.204702">
<ele>1179</ele>
<time>2013-07-13T13:52:34.000Z</time>
</trkpt>
<trkpt lat="42.648951" lon="-1.204581">
<ele>1179</ele>
<time>2013-07-13T13:52:35.000Z</time>
</trkpt>
<trkpt lat="42.648974" lon="-1.204464">
<ele>1180</ele>
<time>2013-07-13T13:52:36.000Z</time>
</trkpt>
<trkpt lat="42.64899" lon="-1.204357">
<ele>1179</ele>
<time>2013-07-13T13:52:37.000Z</time>
</trkpt>
<trkpt lat="42.649" lon="-1.204256">
<ele>1180</ele>
<time>2013-07-13T13:52:38.000Z</time>
</trkpt>
<trkpt lat="42.649008" lon="-1.204158">
<ele>1179</ele>
<time>2013-07-13T13:52:39.000Z</time>
</trkpt>
<trkpt lat="42.649015" lon="-1.204075">
<ele>1178</ele>
<time>2013-07-13T13:52:40.000Z</time>
</trkpt>
<trkpt lat="42.649028" lon="-1.203994">
<ele>1179</ele>
<time>2013-07-13T13:52:41.000Z</time>
</trkpt>
<trkpt lat="42.649044" lon="-1.203902">
<ele>1181</ele>
<time>2013-07-13T13:52:42.000Z</time>
</trkpt>
<trkpt lat="42.649058" lon="-1.203806">
<ele>1182</ele>
<time>2013-07-13T13:52:43.000Z</time>
</trkpt>
<trkpt lat="42.649066" lon="-1.20373">
<ele>1183</ele>
<time>2013-07-13T13:52:44.000Z</time>
</trkpt>
<trkpt lat="42.649089" lon="-1.203666">
<ele>1183</ele>
<time>2013-07-13T13:52:45.000Z</time>
</trkpt>
<trkpt lat="42.649118" lon="-1.203605">
<ele>1184</ele>
<time>2013-07-13T13:52:46.000Z</time>
</trkpt>
<trkpt lat="42.649159" lon="-1.203552">
<ele>1187</ele>
<time>2013-07-13T13:52:47.000Z</time>
</trkpt>
<trkpt lat="42.649201" lon="-1.203524">
<ele>1189</ele>
<time>2013-07-13T13:52:48.000Z</time>
</trkpt>
<trkpt lat="42.649249" lon="-1.203522">
<ele>1190</ele>
<time>2013-07-13T13:52:49.000Z</time>
</trkpt>
<trkpt lat="42.64929" lon="-1.20354">
<ele>1191</ele>
<time>2013-07-13T13:52:50.000Z</time>
</trkpt>
<trkpt lat="42.649317" lon="-1.203583">
<ele>1192</ele>
<time>2013-07-13T13:52:51.000Z</time>
</trkpt>
<trkpt lat="42.649322" lon="-1.203653">
<ele>1192</ele>
<time>2013-07-13T13:52:52.000Z</time>
</trkpt>
<trkpt lat="42.649295" lon="-1.203736">
<ele>1191</ele>
<time>2013-07-13T13:52:53.000Z</time>
</trkpt>
<trkpt lat="42.649241" lon="-1.203822">
<ele>1191</ele>
<time>2013-07-13T13:52:54.000Z</time>
</trkpt>
<trkpt lat="42.649175" lon="-1.203911">
<ele>1190</ele>
<time>2013-07-13T13:52:55.000Z</time>
</trkpt>
<trkpt lat="42.649109" lon="-1.203997">
<ele>1191</ele>
<time>2013-07-13T13:52:56.000Z</time>
</trkpt>
<trkpt lat="42.649045" lon="-1.204089">
<ele>1191</ele>
<time>2013-07-13T13:52:57.000Z</time>
</trkpt>
<trkpt lat="42.649" lon="-1.204197">
<ele>1191</ele>
<time>2013-07-13T13:52:58.000Z</time>
</trkpt>
<trkpt lat="42.648958" lon="-1.2043">
<ele>1191</ele>
<time>2013-07-13T13:52:59.000Z</time>
</trkpt>
<trkpt lat="42.648919" lon="-1.204391">
<ele>1191</ele>
<time>2013-07-13T13:53:00.000Z</time>
</trkpt>
<trkpt lat="42.648876" lon="-1.204474">
<ele>1191</ele>
<time>2013-07-13T13:53:01.000Z</time>
</trkpt>
<trkpt lat="42.648824" lon="-1.204562">
<ele>1193</ele>
<time>2013-07-13T13:53:02.000Z</time>
</trkpt>
<trkpt lat="42.648769" lon="-1.204652">
<ele>1194</ele>
<time>2013-07-13T13:53:03.000Z</time>
</trkpt>
<trkpt lat="42.648719" lon="-1.204738">
<ele>1195</ele>
<time>2013-07-13T13:53:04.000Z</time>
</trkpt>
<trkpt lat="42.648669" lon="-1.204828">
<ele>1195</ele>
<time>2013-07-13T13:53:05.000Z</time>
</trkpt>
<trkpt lat="42.648613" lon="-1.204927">
<ele>1195</ele>
<time>2013-07-13T13:53:06.000Z</time>
</trkpt>
<trkpt lat="42.648556" lon="-1.205031">
<ele>1195</ele>
<time>2013-07-13T13:53:07.000Z</time>
</trkpt>
<trkpt lat="42.648511" lon="-1.205155">
<ele>1195</ele>
<time>2013-07-13T13:53:08.000Z</time>
</trkpt>
<trkpt lat="42.648476" lon="-1.205258">
<ele>1196</ele>
<time>2013-07-13T13:53:09.000Z</time>
</trkpt>
<trkpt lat="42.648443" lon="-1.205356">
<ele>1197</ele>
<time>2013-07-13T13:53:10.000Z</time>
</trkpt>
<trkpt lat="42.648413" lon="-1.205441">
<ele>1199</ele>
<time>2013-07-13T13:53:11.000Z</time>
</trkpt>
<trkpt lat="42.648375" lon="-1.205536">
<ele>1199</ele>
<time>2013-07-13T13:53:12.000Z</time>
</trkpt>
<trkpt lat="42.648313" lon="-1.20563">
<ele>1202</ele>
<time>2013-07-13T13:53:13.000Z</time>
</trkpt>
<trkpt lat="42.648244" lon="-1.205718">
<ele>1204</ele>
<time>2013-07-13T13:53:14.000Z</time>
</trkpt>
<trkpt lat="42.648151" lon="-1.205779">
<ele>1206</ele>
<time>2013-07-13T13:53:15.000Z</time>
</trkpt>
<trkpt lat="42.648058" lon="-1.205831">
<ele>1206</ele>
<time>2013-07-13T13:53:16.000Z</time>
</trkpt>
<trkpt lat="42.647973" lon="-1.205879">
<ele>1206</ele>
<time>2013-07-13T13:53:17.000Z</time>
</trkpt>
<trkpt lat="42.647906" lon="-1.205948">
<ele>1207</ele>
<time>2013-07-13T13:53:18.000Z</time>
</trkpt>
<trkpt lat="42.647865" lon="-1.206039">
<ele>1207</ele>
<time>2013-07-13T13:53:19.000Z</time>
</trkpt>
<trkpt lat="42.647854" lon="-1.206134">
<ele>1208</ele>
<time>2013-07-13T13:53:20.000Z</time>
</trkpt>
<trkpt lat="42.647877" lon="-1.206206">
<ele>1209</ele>
<time>2013-07-13T13:53:21.000Z</time>
</trkpt>
<trkpt lat="42.647895" lon="-1.20625">
<ele>1209</ele>
<time>2013-07-13T13:53:22.000Z</time>
</trkpt>
<trkpt lat="42.647942" lon="-1.206233">
<ele>1208</ele>
<time>2013-07-13T13:53:23.000Z</time>
</trkpt>
<trkpt lat="42.647968" lon="-1.206153">
<ele>1206</ele>
<time>2013-07-13T13:53:24.000Z</time>
</trkpt>
<trkpt lat="42.647979" lon="-1.206055">
<ele>1206</ele>
<time>2013-07-13T13:53:25.000Z</time>
</trkpt>
<trkpt lat="42.647992" lon="-1.205967">
<ele>1207</ele>
<time>2013-07-13T13:53:26.000Z</time>
</trkpt>
<trkpt lat="42.648003" lon="-1.205893">
<ele>1206</ele>
<time>2013-07-13T13:53:27.000Z</time>
</trkpt>
<trkpt lat="42.648031" lon="-1.205825">
<ele>1207</ele>
<time>2013-07-13T13:53:28.000Z</time>
</trkpt>
<trkpt lat="42.648057" lon="-1.205756">
<ele>1206</ele>
<time>2013-07-13T13:53:29.000Z</time>
</trkpt>
<trkpt lat="42.648071" lon="-1.20568">
<ele>1205</ele>
<time>2013-07-13T13:53:30.000Z</time>
</trkpt>
<trkpt lat="42.648071" lon="-1.205592">
<ele>1206</ele>
<time>2013-07-13T13:53:31.000Z</time>
</trkpt>
<trkpt lat="42.648054" lon="-1.205489">
<ele>1208</ele>
<time>2013-07-13T13:53:32.000Z</time>
</trkpt>
<trkpt lat="42.648032" lon="-1.205372">
<ele>1210</ele>
<time>2013-07-13T13:53:33.000Z</time>
</trkpt>
<trkpt lat="42.648" lon="-1.20526">
<ele>1211</ele>
<time>2013-07-13T13:53:34.000Z</time>
</trkpt>
<trkpt lat="42.647964" lon="-1.205149">
<ele>1212</ele>
<time>2013-07-13T13:53:35.000Z</time>
</trkpt>
<trkpt lat="42.647927" lon="-1.205038">
<ele>1212</ele>
<time>2013-07-13T13:53:36.000Z</time>
</trkpt>
<trkpt lat="42.647891" lon="-1.204926">
<ele>1212</ele>
<time>2013-07-13T13:53:37.000Z</time>
</trkpt>
<trkpt lat="42.647859" lon="-1.20482">
<ele>1213</ele>
<time>2013-07-13T13:53:38.000Z</time>
</trkpt>
<trkpt lat="42.647828" lon="-1.204732">
<ele>1215</ele>
<time>2013-07-13T13:53:39.000Z</time>
</trkpt>
<trkpt lat="42.6478" lon="-1.204653">
<ele>1216</ele>
<time>2013-07-13T13:53:40.000Z</time>
</trkpt>
<trkpt lat="42.647775" lon="-1.204583">
<ele>1216</ele>
<time>2013-07-13T13:53:41.000Z</time>
</trkpt>
<trkpt lat="42.647766" lon="-1.204506">
<ele>1217</ele>
<time>2013-07-13T13:53:42.000Z</time>
</trkpt>
<trkpt lat="42.647774" lon="-1.204426">
<ele>1218</ele>
<time>2013-07-13T13:53:43.000Z</time>
</trkpt>
<trkpt lat="42.647783" lon="-1.204335">
<ele>1218</ele>
<time>2013-07-13T13:53:44.000Z</time>
</trkpt>
<trkpt lat="42.647796" lon="-1.20424">
<ele>1218</ele>
<time>2013-07-13T13:53:45.000Z</time>
</trkpt>
<trkpt lat="42.647813" lon="-1.204155">
<ele>1218</ele>
<time>2013-07-13T13:53:46.000Z</time>
</trkpt>
<trkpt lat="42.647833" lon="-1.204076">
<ele>1219</ele>
<time>2013-07-13T13:53:47.000Z</time>
</trkpt>
<trkpt lat="42.647854" lon="-1.203996">
<ele>1219</ele>
<time>2013-07-13T13:53:48.000Z</time>
</trkpt>
<trkpt lat="42.647873" lon="-1.203909">
<ele>1220</ele>
<time>2013-07-13T13:53:49.000Z</time>
</trkpt>
<trkpt lat="42.647892" lon="-1.203811">
<ele>1220</ele>
<time>2013-07-13T13:53:50.000Z</time>
</trkpt>
<trkpt lat="42.647909" lon="-1.203713">
<ele>1220</ele>
<time>2013-07-13T13:53:51.000Z</time>
</trkpt>
<trkpt lat="42.647927" lon="-1.203609">
<ele>1219</ele>
<time>2013-07-13T13:53:52.000Z</time>
</trkpt>
<trkpt lat="42.647963" lon="-1.203526">
<ele>1220</ele>
<time>2013-07-13T13:53:53.000Z</time>
</trkpt>
<trkpt lat="42.647994" lon="-1.203455">
<ele>1219</ele>
<time>2013-07-13T13:53:54.000Z</time>
</trkpt>
<trkpt lat="42.648032" lon="-1.203379">
<ele>1223</ele>
<time>2013-07-13T13:53:55.000Z</time>
</trkpt>
<trkpt lat="42.648074" lon="-1.203301">
<ele>1227</ele>
<time>2013-07-13T13:53:56.000Z</time>
</trkpt>
<trkpt lat="42.648103" lon="-1.203251">
<ele>1229</ele>
<time>2013-07-13T13:53:57.000Z</time>
</trkpt>
<trkpt lat="42.648123" lon="-1.20321">
<ele>1230</ele>
<time>2013-07-13T13:53:58.000Z</time>
</trkpt>
<trkpt lat="42.648151" lon="-1.203143">
<ele>1231</ele>
<time>2013-07-13T13:53:59.000Z</time>
</trkpt>
<trkpt lat="42.648183" lon="-1.203048">
<ele>1231</ele>
<time>2013-07-13T13:54:00.000Z</time>
</trkpt>
<trkpt lat="42.648207" lon="-1.202951">
<ele>1232</ele>
<time>2013-07-13T13:54:01.000Z</time>
</trkpt>
<trkpt lat="42.64823" lon="-1.202865">
<ele>1233</ele>
<time>2013-07-13T13:54:02.000Z</time>
</trkpt>
<trkpt lat="42.648266" lon="-1.202802">
<ele>1233</ele>
<time>2013-07-13T13:54:03.000Z</time>
</trkpt>
<trkpt lat="42.648301" lon="-1.202776">
<ele>1233</ele>
<time>2013-07-13T13:54:04.000Z</time>
</trkpt>
<trkpt lat="42.648339" lon="-1.20278">
<ele>1234</ele>
<time>2013-07-13T13:54:05.000Z</time>
</trkpt>
<trkpt lat="42.648367" lon="-1.20282">
<ele>1235</ele>
<time>2013-07-13T13:54:06.000Z</time>
</trkpt>
<trkpt lat="42.648379" lon="-1.202884">
<ele>1237</ele>
<time>2013-07-13T13:54:07.000Z</time>
</trkpt>
<trkpt lat="42.648363" lon="-1.202946">
<ele>1235</ele>
<time>2013-07-13T13:54:08.000Z</time>
</trkpt>
<trkpt lat="42.648322" lon="-1.203025">
<ele>1236</ele>
<time>2013-07-13T13:54:09.000Z</time>
</trkpt>
<trkpt lat="42.648269" lon="-1.203108">
<ele>1236</ele>
<time>2013-07-13T13:54:10.000Z</time>
</trkpt>
<trkpt lat="42.648206" lon="-1.203196">
<ele>1237</ele>
<time>2013-07-13T13:54:11.000Z</time>
</trkpt>
<trkpt lat="42.648142" lon="-1.203279">
<ele>1236</ele>
<time>2013-07-13T13:54:12.000Z</time>
</trkpt>
<trkpt lat="42.648064" lon="-1.203381">
<ele>1237</ele>
<time>2013-07-13T13:54:13.000Z</time>
</trkpt>
<trkpt lat="42.647983" lon="-1.203485">
<ele>1238</ele>
<time>2013-07-13T13:54:14.000Z</time>
</trkpt>
<trkpt lat="42.64791" lon="-1.203572">
<ele>1238</ele>
<time>2013-07-13T13:54:15.000Z</time>
</trkpt>
<trkpt lat="42.64784" lon="-1.203653">
<ele>1236</ele>
<time>2013-07-13T13:54:16.000Z</time>
</trkpt>
<trkpt lat="42.647772" lon="-1.203731">
<ele>1236</ele>
<time>2013-07-13T13:54:17.000Z</time>
</trkpt>
<trkpt lat="42.647702" lon="-1.203812">
<ele>1237</ele>
<time>2013-07-13T13:54:18.000Z</time>
</trkpt>
<trkpt lat="42.64764" lon="-1.203888">
<ele>1238</ele>
<time>2013-07-13T13:54:19.000Z</time>
</trkpt>
<trkpt lat="42.647595" lon="-1.203983">
<ele>1237</ele>
<time>2013-07-13T13:54:20.000Z</time>
</trkpt>
<trkpt lat="42.647566" lon="-1.204094">
<ele>1237</ele>
<time>2013-07-13T13:54:21.000Z</time>
</trkpt>
<trkpt lat="42.647545" lon="-1.204202">
<ele>1235</ele>
<time>2013-07-13T13:54:22.000Z</time>
</trkpt>
<trkpt lat="42.647547" lon="-1.204308">
<ele>1235</ele>
<time>2013-07-13T13:54:23.000Z</time>
</trkpt>
<trkpt lat="42.647551" lon="-1.204408">
<ele>1234</ele>
<time>2013-07-13T13:54:24.000Z</time>
</trkpt>
<trkpt lat="42.647557" lon="-1.204487">
<ele>1233</ele>
<time>2013-07-13T13:54:25.000Z</time>
</trkpt>
<trkpt lat="42.647559" lon="-1.204573">
<ele>1233</ele>
<time>2013-07-13T13:54:26.000Z</time>
</trkpt>
<trkpt lat="42.647559" lon="-1.204659">
<ele>1232</ele>
<time>2013-07-13T13:54:27.000Z</time>
</trkpt>
<trkpt lat="42.647561" lon="-1.204748">
<ele>1232</ele>
<time>2013-07-13T13:54:28.000Z</time>
</trkpt>
<trkpt lat="42.647584" lon="-1.204834">
<ele>1230</ele>
<time>2013-07-13T13:54:29.000Z</time>
</trkpt>
<trkpt lat="42.647609" lon="-1.204926">
<ele>1229</ele>
<time>2013-07-13T13:54:30.000Z</time>
</trkpt>
<trkpt lat="42.64763" lon="-1.205026">
<ele>1228</ele>
<time>2013-07-13T13:54:31.000Z</time>
</trkpt>
<trkpt lat="42.647628" lon="-1.205137">
<ele>1228</ele>
<time>2013-07-13T13:54:32.000Z</time>
</trkpt>
<trkpt lat="42.647627" lon="-1.20524">
<ele>1227</ele>
<time>2013-07-13T13:54:33.000Z</time>
</trkpt>
<trkpt lat="42.647626" lon="-1.205337">
<ele>1226</ele>
<time>2013-07-13T13:54:34.000Z</time>
</trkpt>
<trkpt lat="42.647619" lon="-1.205436">
<ele>1224</ele>
<time>2013-07-13T13:54:35.000Z</time>
</trkpt>
<trkpt lat="42.647586" lon="-1.205537">
<ele>1224</ele>
<time>2013-07-13T13:54:36.000Z</time>
</trkpt>
<trkpt lat="42.647545" lon="-1.205647">
<ele>1224</ele>
<time>2013-07-13T13:54:37.000Z</time>
</trkpt>
<trkpt lat="42.647503" lon="-1.205751">
<ele>1224</ele>
<time>2013-07-13T13:54:38.000Z</time>
</trkpt>
<trkpt lat="42.647464" lon="-1.205849">
<ele>1223</ele>
<time>2013-07-13T13:54:39.000Z</time>
</trkpt>
<trkpt lat="42.647445" lon="-1.20595">
<ele>1222</ele>
<time>2013-07-13T13:54:40.000Z</time>
</trkpt>
<trkpt lat="42.647452" lon="-1.206048">
<ele>1221</ele>
<time>2013-07-13T13:54:41.000Z</time>
</trkpt>
<trkpt lat="42.647481" lon="-1.206131">
<ele>1221</ele>
<time>2013-07-13T13:54:42.000Z</time>
</trkpt>
<trkpt lat="42.647539" lon="-1.20616">
<ele>1221</ele>
<time>2013-07-13T13:54:43.000Z</time>
</trkpt>
<trkpt lat="42.647586" lon="-1.20614">
<ele>1221</ele>
<time>2013-07-13T13:54:44.000Z</time>
</trkpt>
<trkpt lat="42.647602" lon="-1.206094">
<ele>1219</ele>
<time>2013-07-13T13:54:45.000Z</time>
</trkpt>
<trkpt lat="42.647617" lon="-1.206022">
<ele>1217</ele>
<time>2013-07-13T13:54:46.000Z</time>
</trkpt>
<trkpt lat="42.647636" lon="-1.205949">
<ele>1217</ele>
<time>2013-07-13T13:54:47.000Z</time>
</trkpt>
<trkpt lat="42.647664" lon="-1.205894">
<ele>1216</ele>
<time>2013-07-13T13:54:48.000Z</time>
</trkpt>
<trkpt lat="42.64769" lon="-1.205853">
<ele>1215</ele>
<time>2013-07-13T13:54:49.000Z</time>
</trkpt>
<trkpt lat="42.647729" lon="-1.205829">
<ele>1213</ele>
<time>2013-07-13T13:54:50.000Z</time>
</trkpt>
<trkpt lat="42.647797" lon="-1.205822">
<ele>1212</ele>
<time>2013-07-13T13:54:51.000Z</time>
</trkpt>
<trkpt lat="42.647865" lon="-1.205813">
<ele>1211</ele>
<time>2013-07-13T13:54:52.000Z</time>
</trkpt>
<trkpt lat="42.647916" lon="-1.205785">
<ele>1208</ele>
<time>2013-07-13T13:54:53.000Z</time>
</trkpt>
<trkpt lat="42.647962" lon="-1.205741">
<ele>1207</ele>
<time>2013-07-13T13:54:54.000Z</time>
</trkpt>
<trkpt lat="42.648004" lon="-1.205703">
<ele>1204</ele>
<time>2013-07-13T13:54:55.000Z</time>
</trkpt>
<trkpt lat="42.648046" lon="-1.205689">
<ele>1201</ele>
<time>2013-07-13T13:54:56.000Z</time>
</trkpt>
<trkpt lat="42.648099" lon="-1.205676">
<ele>1202</ele>
<time>2013-07-13T13:54:57.000Z</time>
</trkpt>
<trkpt lat="42.648172" lon="-1.205656">
<ele>1200</ele>
<time>2013-07-13T13:54:58.000Z</time>
</trkpt>
<trkpt lat="42.648218" lon="-1.205593">
<ele>1196</ele>
<time>2013-07-13T13:54:59.000Z</time>
</trkpt>
<trkpt lat="42.648269" lon="-1.205519">
<ele>1196</ele>
<time>2013-07-13T13:55:00.000Z</time>
</trkpt>
<trkpt lat="42.648307" lon="-1.205454">
<ele>1195</ele>
<time>2013-07-13T13:55:01.000Z</time>
</trkpt>
<trkpt lat="42.648351" lon="-1.205416">
<ele>1195</ele>
<time>2013-07-13T13:55:02.000Z</time>
</trkpt>
<trkpt lat="42.648412" lon="-1.205377">
<ele>1196</ele>
<time>2013-07-13T13:55:03.000Z</time>
</trkpt>
<trkpt lat="42.648472" lon="-1.205344">
<ele>1194</ele>
<time>2013-07-13T13:55:04.000Z</time>
</trkpt>
<trkpt lat="42.648515" lon="-1.205295">
<ele>1193</ele>
<time>2013-07-13T13:55:05.000Z</time>
</trkpt>
<trkpt lat="42.648556" lon="-1.205242">
<ele>1191</ele>
<time>2013-07-13T13:55:06.000Z</time>
</trkpt>
<trkpt lat="42.648601" lon="-1.205183">
<ele>1191</ele>
<time>2013-07-13T13:55:07.000Z</time>
</trkpt>
<trkpt lat="42.648653" lon="-1.205119">
<ele>1190</ele>
<time>2013-07-13T13:55:08.000Z</time>
</trkpt>
<trkpt lat="42.648709" lon="-1.205052">
<ele>1190</ele>
<time>2013-07-13T13:55:09.000Z</time>
</trkpt>
<trkpt lat="42.648761" lon="-1.204978">
<ele>1188</ele>
<time>2013-07-13T13:55:10.000Z</time>
</trkpt>
<trkpt lat="42.648817" lon="-1.2049">
<ele>1187</ele>
<time>2013-07-13T13:55:11.000Z</time>
</trkpt>
<trkpt lat="42.648863" lon="-1.204835">
<ele>1184</ele>
<time>2013-07-13T13:55:12.000Z</time>
</trkpt>
<trkpt lat="42.648921" lon="-1.204793">
<ele>1182</ele>
<time>2013-07-13T13:55:13.000Z</time>
</trkpt>
<trkpt lat="42.648981" lon="-1.204758">
<ele>1179</ele>
<time>2013-07-13T13:55:14.000Z</time>
</trkpt>
<trkpt lat="42.649034" lon="-1.204735">
<ele>1176</ele>
<time>2013-07-13T13:55:15.000Z</time>
</trkpt>
<trkpt lat="42.649095" lon="-1.204714">
<ele>1178</ele>
<time>2013-07-13T13:55:16.000Z</time>
</trkpt>
<trkpt lat="42.649155" lon="-1.204697">
<ele>1178</ele>
<time>2013-07-13T13:55:17.000Z</time>
</trkpt>
<trkpt lat="42.649212" lon="-1.204678">
<ele>1178</ele>
<time>2013-07-13T13:55:18.000Z</time>
</trkpt>
<trkpt lat="42.649281" lon="-1.204653">
<ele>1175</ele>
<time>2013-07-13T13:55:19.000Z</time>
</trkpt>
<trkpt lat="42.649351" lon="-1.204626">
<ele>1173</ele>
<time>2013-07-13T13:55:20.000Z</time>
</trkpt>
<trkpt lat="42.649416" lon="-1.204596">
<ele>1174</ele>
<time>2013-07-13T13:55:21.000Z</time>
</trkpt>
<trkpt lat="42.649482" lon="-1.204561">
<ele>1173</ele>
<time>2013-07-13T13:55:22.000Z</time>
</trkpt>
<trkpt lat="42.649549" lon="-1.204521">
<ele>1171</ele>
<time>2013-07-13T13:55:23.000Z</time>
</trkpt>
<trkpt lat="42.649616" lon="-1.204479">
<ele>1169</ele>
<time>2013-07-13T13:55:24.000Z</time>
</trkpt>
<trkpt lat="42.649688" lon="-1.204434">
<ele>1168</ele>
<time>2013-07-13T13:55:25.000Z</time>
</trkpt>
<trkpt lat="42.649756" lon="-1.204397">
<ele>1167</ele>
<time>2013-07-13T13:55:26.000Z</time>
</trkpt>
<trkpt lat="42.649817" lon="-1.204368">
<ele>1166</ele>
<time>2013-07-13T13:55:27.000Z</time>
</trkpt>
<trkpt lat="42.649877" lon="-1.20434">
<ele>1164</ele>
<time>2013-07-13T13:55:28.000Z</time>
</trkpt>
<trkpt lat="42.649936" lon="-1.204309">
<ele>1163</ele>
<time>2013-07-13T13:55:29.000Z</time>
</trkpt>
<trkpt lat="42.650031" lon="-1.204277">
<ele>1163</ele>
<time>2013-07-13T13:55:30.000Z</time>
</trkpt>
<trkpt lat="42.650094" lon="-1.204254">
<ele>1160</ele>
<time>2013-07-13T13:55:31.000Z</time>
</trkpt>
<trkpt lat="42.650151" lon="-1.20423">
<ele>1155</ele>
<time>2013-07-13T13:55:32.000Z</time>
</trkpt>
<trkpt lat="42.650212" lon="-1.204208">
<ele>1152</ele>
<time>2013-07-13T13:55:33.000Z</time>
</trkpt>
<trkpt lat="42.650272" lon="-1.204193">
<ele>1151</ele>
<time>2013-07-13T13:55:34.000Z</time>
</trkpt>
<trkpt lat="42.650321" lon="-1.204185">
<ele>1148</ele>
<time>2013-07-13T13:55:35.000Z</time>
</trkpt>
<trkpt lat="42.650362" lon="-1.204182">
<ele>1144</ele>
<time>2013-07-13T13:55:36.000Z</time>
</trkpt>
<trkpt lat="42.65041" lon="-1.204175">
<ele>1139</ele>
<time>2013-07-13T13:55:37.000Z</time>
</trkpt>
<trkpt lat="42.650454" lon="-1.204171">
<ele>1136</ele>
<time>2013-07-13T13:55:38.000Z</time>
</trkpt>
<trkpt lat="42.650519" lon="-1.204152">
<ele>1131</ele>
<time>2013-07-13T13:55:39.000Z</time>
</trkpt>
<trkpt lat="42.650619" lon="-1.204182">
<ele>1129</ele>
<time>2013-07-13T13:55:40.000Z</time>
</trkpt>
<trkpt lat="42.650712" lon="-1.204216">
<ele>1126</ele>
<time>2013-07-13T13:55:41.000Z</time>
</trkpt>
<trkpt lat="42.650787" lon="-1.204254">
<ele>1125</ele>
<time>2013-07-13T13:55:42.000Z</time>
</trkpt>
<trkpt lat="42.650855" lon="-1.204288">
<ele>1123</ele>
<time>2013-07-13T13:55:43.000Z</time>
</trkpt>
<trkpt lat="42.65093" lon="-1.204327">
<ele>1118</ele>
<time>2013-07-13T13:55:44.000Z</time>
</trkpt>
<trkpt lat="42.651" lon="-1.204395">
<ele>1107</ele>
<time>2013-07-13T13:55:45.000Z</time>
</trkpt>
<trkpt lat="42.651084" lon="-1.204474">
<ele>1106</ele>
<time>2013-07-13T13:55:46.000Z</time>
</trkpt>
<trkpt lat="42.651168" lon="-1.204559">
<ele>1105</ele>
<time>2013-07-13T13:55:47.000Z</time>
</trkpt>
<trkpt lat="42.651252" lon="-1.204646">
<ele>1103</ele>
<time>2013-07-13T13:55:48.000Z</time>
</trkpt>
<trkpt lat="42.651329" lon="-1.204722">
<ele>1102</ele>
<time>2013-07-13T13:55:49.000Z</time>
</trkpt>
<trkpt lat="42.651399" lon="-1.204794">
<ele>1100</ele>
<time>2013-07-13T13:55:50.000Z</time>
</trkpt>
<trkpt lat="42.651474" lon="-1.204874">
<ele>1099</ele>
<time>2013-07-13T13:55:51.000Z</time>
</trkpt>
<trkpt lat="42.651562" lon="-1.204944">
<ele>1096</ele>
<time>2013-07-13T13:55:52.000Z</time>
</trkpt>
<trkpt lat="42.65166" lon="-1.205019">
<ele>1090</ele>
<time>2013-07-13T13:55:53.000Z</time>
</trkpt>
<trkpt lat="42.651759" lon="-1.205104">
<ele>1088</ele>
<time>2013-07-13T13:55:54.000Z</time>
</trkpt>
<trkpt lat="42.651844" lon="-1.20519">
<ele>1087</ele>
<time>2013-07-13T13:55:55.000Z</time>
</trkpt>
<trkpt lat="42.651918" lon="-1.205257">
<ele>1087</ele>
<time>2013-07-13T13:55:56.000Z</time>
</trkpt>
<trkpt lat="42.651984" lon="-1.205309">
<ele>1088</ele>
<time>2013-07-13T13:55:57.000Z</time>
</trkpt>
<trkpt lat="42.652061" lon="-1.205335">
<ele>1089</ele>
<time>2013-07-13T13:55:58.000Z</time>
</trkpt>
<trkpt lat="42.652143" lon="-1.20536">
<ele>1086</ele>
<time>2013-07-13T13:55:59.000Z</time>
</trkpt>
<trkpt lat="42.652232" lon="-1.205388">
<ele>1086</ele>
<time>2013-07-13T13:56:00.000Z</time>
</trkpt>
<trkpt lat="42.652318" lon="-1.205409">
<ele>1085</ele>
<time>2013-07-13T13:56:01.000Z</time>
</trkpt>
<trkpt lat="42.652407" lon="-1.205398">
<ele>1084</ele>
<time>2013-07-13T13:56:02.000Z</time>
</trkpt>
<trkpt lat="42.652501" lon="-1.205383">
<ele>1082</ele>
<time>2013-07-13T13:56:03.000Z</time>
</trkpt>
<trkpt lat="42.652606" lon="-1.205368">
<ele>1081</ele>
<time>2013-07-13T13:56:04.000Z</time>
</trkpt>
<trkpt lat="42.652698" lon="-1.205356">
<ele>1080</ele>
<time>2013-07-13T13:56:05.000Z</time>
</trkpt>
<trkpt lat="42.652781" lon="-1.205347">
<ele>1078</ele>
<time>2013-07-13T13:56:06.000Z</time>
</trkpt>
<trkpt lat="42.652856" lon="-1.205338">
<ele>1077</ele>
<time>2013-07-13T13:56:07.000Z</time>
</trkpt>
<trkpt lat="42.652936" lon="-1.205329">
<ele>1078</ele>
<time>2013-07-13T13:56:08.000Z</time>
</trkpt>
<trkpt lat="42.653024" lon="-1.205322">
<ele>1076</ele>
<time>2013-07-13T13:56:09.000Z</time>
</trkpt>
<trkpt lat="42.65311" lon="-1.205318">
<ele>1074</ele>
<time>2013-07-13T13:56:10.000Z</time>
</trkpt>
<trkpt lat="42.65319" lon="-1.205316">
<ele>1074</ele>
<time>2013-07-13T13:56:11.000Z</time>
</trkpt>
<trkpt lat="42.653273" lon="-1.205314">
<ele>1073</ele>
<time>2013-07-13T13:56:12.000Z</time>
</trkpt>
<trkpt lat="42.653353" lon="-1.205315">
<ele>1072</ele>
<time>2013-07-13T13:56:13.000Z</time>
</trkpt>
<trkpt lat="42.653431" lon="-1.205321">
<ele>1072</ele>
<time>2013-07-13T13:56:14.000Z</time>
</trkpt>
<trkpt lat="42.653514" lon="-1.205326">
<ele>1071</ele>
<time>2013-07-13T13:56:15.000Z</time>
</trkpt>
<trkpt lat="42.653603" lon="-1.205321">
<ele>1070</ele>
<time>2013-07-13T13:56:16.000Z</time>
</trkpt>
<trkpt lat="42.653693" lon="-1.20531">
<ele>1070</ele>
<time>2013-07-13T13:56:17.000Z</time>
</trkpt>
<trkpt lat="42.653787" lon="-1.205298">
<ele>1070</ele>
<time>2013-07-13T13:56:18.000Z</time>
</trkpt>
<trkpt lat="42.653877" lon="-1.205287">
<ele>1069</ele>
<time>2013-07-13T13:56:19.000Z</time>
</trkpt>
<trkpt lat="42.653964" lon="-1.20528">
<ele>1069</ele>
<time>2013-07-13T13:56:20.000Z</time>
</trkpt>
<trkpt lat="42.654053" lon="-1.205271">
<ele>1068</ele>
<time>2013-07-13T13:56:21.000Z</time>
</trkpt>
<trkpt lat="42.654145" lon="-1.205254">
<ele>1066</ele>
<time>2013-07-13T13:56:22.000Z</time>
</trkpt>
<trkpt lat="42.654231" lon="-1.20523">
<ele>1066</ele>
<time>2013-07-13T13:56:23.000Z</time>
</trkpt>
<trkpt lat="42.654315" lon="-1.205197">
<ele>1065</ele>
<time>2013-07-13T13:56:24.000Z</time>
</trkpt>
<trkpt lat="42.654401" lon="-1.205156">
<ele>1064</ele>
<time>2013-07-13T13:56:25.000Z</time>
</trkpt>
<trkpt lat="42.654488" lon="-1.205111">
<ele>1065</ele>
<time>2013-07-13T13:56:26.000Z</time>
</trkpt>
<trkpt lat="42.654571" lon="-1.205065">
<ele>1065</ele>
<time>2013-07-13T13:56:27.000Z</time>
</trkpt>
<trkpt lat="42.654641" lon="-1.205015">
<ele>1066</ele>
<time>2013-07-13T13:56:28.000Z</time>
</trkpt>
<trkpt lat="42.654695" lon="-1.20497">
<ele>1069</ele>
<time>2013-07-13T13:56:29.000Z</time>
</trkpt>
<trkpt lat="42.654738" lon="-1.204913">
<ele>1070</ele>
<time>2013-07-13T13:56:30.000Z</time>
</trkpt>
<trkpt lat="42.654789" lon="-1.204846">
<ele>1071</ele>
<time>2013-07-13T13:56:31.000Z</time>
</trkpt>
<trkpt lat="42.654849" lon="-1.204774">
<ele>1072</ele>
<time>2013-07-13T13:56:32.000Z</time>
</trkpt>
<trkpt lat="42.654915" lon="-1.204704">
<ele>1072</ele>
<time>2013-07-13T13:56:33.000Z</time>
</trkpt>
<trkpt lat="42.65498" lon="-1.204632">
<ele>1072</ele>
<time>2013-07-13T13:56:34.000Z</time>
</trkpt>
<trkpt lat="42.65504" lon="-1.204568">
<ele>1074</ele>
<time>2013-07-13T13:56:35.000Z</time>
</trkpt>
<trkpt lat="42.655091" lon="-1.204512">
<ele>1077</ele>
<time>2013-07-13T13:56:36.000Z</time>
</trkpt>
<trkpt lat="42.655146" lon="-1.204454">
<ele>1078</ele>
<time>2013-07-13T13:56:37.000Z</time>
</trkpt>
<trkpt lat="42.655212" lon="-1.204419">
<ele>1078</ele>
<time>2013-07-13T13:56:38.000Z</time>
</trkpt>
<trkpt lat="42.655279" lon="-1.204387">
<ele>1081</ele>
<time>2013-07-13T13:56:39.000Z</time>
</trkpt>
<trkpt lat="42.655322" lon="-1.204343">
<ele>1084</ele>
<time>2013-07-13T13:56:40.000Z</time>
</trkpt>
<trkpt lat="42.655348" lon="-1.204286">
<ele>1086</ele>
<time>2013-07-13T13:56:41.000Z</time>
</trkpt>
<trkpt lat="42.655379" lon="-1.204215">
<ele>1087</ele>
<time>2013-07-13T13:56:42.000Z</time>
</trkpt>
<trkpt lat="42.655411" lon="-1.204135">
<ele>1084</ele>
<time>2013-07-13T13:56:43.000Z</time>
</trkpt>
<trkpt lat="42.655449" lon="-1.20404">
<ele>1083</ele>
<time>2013-07-13T13:56:44.000Z</time>
</trkpt>
<trkpt lat="42.655511" lon="-1.203951">
<ele>1087</ele>
<time>2013-07-13T13:56:45.000Z</time>
</trkpt>
<trkpt lat="42.655572" lon="-1.203859">
<ele>1089</ele>
<time>2013-07-13T13:56:46.000Z</time>
</trkpt>
<trkpt lat="42.655646" lon="-1.203821">
<ele>1090</ele>
<time>2013-07-13T13:56:47.000Z</time>
</trkpt>
<trkpt lat="42.65571" lon="-1.203791">
<ele>1091</ele>
<time>2013-07-13T13:56:48.000Z</time>
</trkpt>
<trkpt lat="42.65575" lon="-1.203795">
<ele>1095</ele>
<time>2013-07-13T13:56:49.000Z</time>
</trkpt>
<trkpt lat="42.655798" lon="-1.203797">
<ele>1097</ele>
<time>2013-07-13T13:56:50.000Z</time>
</trkpt>
<trkpt lat="42.655835" lon="-1.203811">
<ele>1104</ele>
<time>2013-07-13T13:56:51.000Z</time>
</trkpt>
<trkpt lat="42.655885" lon="-1.203868">
<ele>1104</ele>
<time>2013-07-13T13:56:52.000Z</time>
</trkpt>
<trkpt lat="42.655921" lon="-1.203946">
<ele>1104</ele>
<time>2013-07-13T13:56:53.000Z</time>
</trkpt>
<trkpt lat="42.65592" lon="-1.204057">
<ele>1106</ele>
<time>2013-07-13T13:56:54.000Z</time>
</trkpt>
<trkpt lat="42.655877" lon="-1.20415">
<ele>1108</ele>
<time>2013-07-13T13:56:55.000Z</time>
</trkpt>
<trkpt lat="42.655813" lon="-1.204218">
<ele>1111</ele>
<time>2013-07-13T13:56:56.000Z</time>
</trkpt>
<trkpt lat="42.655749" lon="-1.204273">
<ele>1115</ele>
<time>2013-07-13T13:56:57.000Z</time>
</trkpt>
<trkpt lat="42.65569" lon="-1.204325">
<ele>1119</ele>
<time>2013-07-13T13:56:58.000Z</time>
</trkpt>
<trkpt lat="42.655657" lon="-1.204373">
<ele>1123</ele>
<time>2013-07-13T13:56:59.000Z</time>
</trkpt>
<trkpt lat="42.655628" lon="-1.204413">
<ele>1126</ele>
<time>2013-07-13T13:57:00.000Z</time>
</trkpt>
<trkpt lat="42.655579" lon="-1.204443">
<ele>1129</ele>
<time>2013-07-13T13:57:01.000Z</time>
</trkpt>
<trkpt lat="42.655521" lon="-1.204475">
<ele>1130</ele>
<time>2013-07-13T13:57:02.000Z</time>
</trkpt>
<trkpt lat="42.655449" lon="-1.204494">
<ele>1133</ele>
<time>2013-07-13T13:57:03.000Z</time>
</trkpt>
<trkpt lat="42.655372" lon="-1.204515">
<ele>1136</ele>
<time>2013-07-13T13:57:04.000Z</time>
</trkpt>
<trkpt lat="42.655291" lon="-1.204526">
<ele>1140</ele>
<time>2013-07-13T13:57:05.000Z</time>
</trkpt>
<trkpt lat="42.655208" lon="-1.204514">
<ele>1143</ele>
<time>2013-07-13T13:57:06.000Z</time>
</trkpt>
<trkpt lat="42.655126" lon="-1.204498">
<ele>1145</ele>
<time>2013-07-13T13:57:07.000Z</time>
</trkpt>
<trkpt lat="42.655044" lon="-1.204474">
<ele>1147</ele>
<time>2013-07-13T13:57:08.000Z</time>
</trkpt>
<trkpt lat="42.654962" lon="-1.204422">
<ele>1149</ele>
<time>2013-07-13T13:57:09.000Z</time>
</trkpt>
<trkpt lat="42.65489" lon="-1.204348">
<ele>1153</ele>
<time>2013-07-13T13:57:10.000Z</time>
</trkpt>
<trkpt lat="42.654824" lon="-1.204269">
<ele>1155</ele>
<time>2013-07-13T13:57:11.000Z</time>
</trkpt>
<trkpt lat="42.654785" lon="-1.20417">
<ele>1156</ele>
<time>2013-07-13T13:57:12.000Z</time>
</trkpt>
<trkpt lat="42.654755" lon="-1.204066">
<ele>1157</ele>
<time>2013-07-13T13:57:13.000Z</time>
</trkpt>
<trkpt lat="42.654731" lon="-1.203954">
<ele>1160</ele>
<time>2013-07-13T13:57:14.000Z</time>
</trkpt>
<trkpt lat="42.654706" lon="-1.203819">
<ele>1161</ele>
<time>2013-07-13T13:57:15.000Z</time>
</trkpt>
<trkpt lat="42.654683" lon="-1.203684">
<ele>1161</ele>
<time>2013-07-13T13:57:16.000Z</time>
</trkpt>
<trkpt lat="42.654666" lon="-1.203565">
<ele>1162</ele>
<time>2013-07-13T13:57:17.000Z</time>
</trkpt>
<trkpt lat="42.654659" lon="-1.203472">
<ele>1165</ele>
<time>2013-07-13T13:57:18.000Z</time>
</trkpt>
<trkpt lat="42.654656" lon="-1.203387">
<ele>1166</ele>
<time>2013-07-13T13:57:19.000Z</time>
</trkpt>
<trkpt lat="42.654657" lon="-1.203306">
<ele>1168</ele>
<time>2013-07-13T13:57:20.000Z</time>
</trkpt>
<trkpt lat="42.654667" lon="-1.203232">
<ele>1171</ele>
<time>2013-07-13T13:57:21.000Z</time>
</trkpt>
<trkpt lat="42.654707" lon="-1.203165">
<ele>1173</ele>
<time>2013-07-13T13:57:22.000Z</time>
</trkpt>
<trkpt lat="42.654746" lon="-1.203109">
<ele>1174</ele>
<time>2013-07-13T13:57:23.000Z</time>
</trkpt>
<trkpt lat="42.654816" lon="-1.203064">
<ele>1176</ele>
<time>2013-07-13T13:57:24.000Z</time>
</trkpt>
<trkpt lat="42.654969" lon="-1.202956">
<ele>1190</ele>
<time>2013-07-13T13:57:25.000Z</time>
</trkpt>
<trkpt lat="42.655107" lon="-1.202911">
<ele>1195</ele>
<time>2013-07-13T13:57:26.000Z</time>
</trkpt>
<trkpt lat="42.655199" lon="-1.202903">
<ele>1202</ele>
<time>2013-07-13T13:57:27.000Z</time>
</trkpt>
<trkpt lat="42.655278" lon="-1.202922">
<ele>1201</ele>
<time>2013-07-13T13:57:28.000Z</time>
</trkpt>
<trkpt lat="42.65535" lon="-1.202967">
<ele>1200</ele>
<time>2013-07-13T13:57:29.000Z</time>
</trkpt>
<trkpt lat="42.655415" lon="-1.203014">
<ele>1201</ele>
<time>2013-07-13T13:57:30.000Z</time>
</trkpt>
<trkpt lat="42.655479" lon="-1.203069">
<ele>1202</ele>
<time>2013-07-13T13:57:31.000Z</time>
</trkpt>
<trkpt lat="42.655516" lon="-1.203117">
<ele>1204</ele>
<time>2013-07-13T13:57:32.000Z</time>
</trkpt>
<trkpt lat="42.65555" lon="-1.203172">
<ele>1208</ele>
<time>2013-07-13T13:57:33.000Z</time>
</trkpt>
<trkpt lat="42.655564" lon="-1.203237">
<ele>1212</ele>
<time>2013-07-13T13:57:34.000Z</time>
</trkpt>
<trkpt lat="42.65555" lon="-1.20332">
<ele>1217</ele>
<time>2013-07-13T13:57:35.000Z</time>
</trkpt>
<trkpt lat="42.655506" lon="-1.203385">
<ele>1221</ele>
<time>2013-07-13T13:57:36.000Z</time>
</trkpt>
<trkpt lat="42.655443" lon="-1.20343">
<ele>1225</ele>
<time>2013-07-13T13:57:37.000Z</time>
</trkpt>
<trkpt lat="42.655365" lon="-1.203458">
<ele>1228</ele>
<time>2013-07-13T13:57:38.000Z</time>
</trkpt>
<trkpt lat="42.655288" lon="-1.203488">
<ele>1229</ele>
<time>2013-07-13T13:57:39.000Z</time>
</trkpt>
<trkpt lat="42.655186" lon="-1.20348">
<ele>1236</ele>
<time>2013-07-13T13:57:40.000Z</time>
</trkpt>
<trkpt lat="42.655094" lon="-1.203463">
<ele>1242</ele>
<time>2013-07-13T13:57:41.000Z</time>
</trkpt>
<trkpt lat="42.655011" lon="-1.203416">
<ele>1246</ele>
<time>2013-07-13T13:57:42.000Z</time>
</trkpt>
<trkpt lat="42.654912" lon="-1.20335">
<ele>1247</ele>
<time>2013-07-13T13:57:43.000Z</time>
</trkpt>
<trkpt lat="42.654811" lon="-1.203268">
<ele>1249</ele>
<time>2013-07-13T13:57:44.000Z</time>
</trkpt>
<trkpt lat="42.654728" lon="-1.20316">
<ele>1252</ele>
<time>2013-07-13T13:57:45.000Z</time>
</trkpt>
<trkpt lat="42.654668" lon="-1.203041">
<ele>1256</ele>
<time>2013-07-13T13:57:46.000Z</time>
</trkpt>
<trkpt lat="42.654624" lon="-1.202935">
<ele>1259</ele>
<time>2013-07-13T13:57:47.000Z</time>
</trkpt>
<trkpt lat="42.654585" lon="-1.202821">
<ele>1259</ele>
<time>2013-07-13T13:57:48.000Z</time>
</trkpt>
<trkpt lat="42.654574" lon="-1.202702">
<ele>1260</ele>
<time>2013-07-13T13:57:49.000Z</time>
</trkpt>
<trkpt lat="42.654567" lon="-1.202579">
<ele>1263</ele>
<time>2013-07-13T13:57:50.000Z</time>
</trkpt>
<trkpt lat="42.654565" lon="-1.202472">
<ele>1265</ele>
<time>2013-07-13T13:57:51.000Z</time>
</trkpt>
<trkpt lat="42.654564" lon="-1.202372">
<ele>1267</ele>
<time>2013-07-13T13:57:52.000Z</time>
</trkpt>
<trkpt lat="42.654579" lon="-1.20225">
<ele>1270</ele>
<time>2013-07-13T13:57:53.000Z</time>
</trkpt>
<trkpt lat="42.654628" lon="-1.202143">
<ele>1272</ele>
<time>2013-07-13T13:57:54.000Z</time>
</trkpt>
<trkpt lat="42.654675" lon="-1.202049">
<ele>1274</ele>
<time>2013-07-13T13:57:55.000Z</time>
</trkpt>
<trkpt lat="42.654721" lon="-1.201971">
<ele>1275</ele>
<time>2013-07-13T13:57:56.000Z</time>
</trkpt>
<trkpt lat="42.654813" lon="-1.201876">
<ele>1285</ele>
<time>2013-07-13T13:57:57.000Z</time>
</trkpt>
<trkpt lat="42.654909" lon="-1.201823">
<ele>1288</ele>
<time>2013-07-13T13:57:58.000Z</time>
</trkpt>
<trkpt lat="42.654987" lon="-1.201822">
<ele>1290</ele>
<time>2013-07-13T13:57:59.000Z</time>
</trkpt>
<trkpt lat="42.655059" lon="-1.201831">
<ele>1292</ele>
<time>2013-07-13T13:58:00.000Z</time>
</trkpt>
<trkpt lat="42.655121" lon="-1.201846">
<ele>1293</ele>
<time>2013-07-13T13:58:01.000Z</time>
</trkpt>
<trkpt lat="42.655168" lon="-1.20188">
<ele>1294</ele>
<time>2013-07-13T13:58:02.000Z</time>
</trkpt>
<trkpt lat="42.655194" lon="-1.201924">
<ele>1296</ele>
<time>2013-07-13T13:58:03.000Z</time>
</trkpt>
<trkpt lat="42.655203" lon="-1.201976">
<ele>1299</ele>
<time>2013-07-13T13:58:04.000Z</time>
</trkpt>
<trkpt lat="42.655191" lon="-1.202028">
<ele>1302</ele>
<time>2013-07-13T13:58:05.000Z</time>
</trkpt>
<trkpt lat="42.655159" lon="-1.202083">
<ele>1305</ele>
<time>2013-07-13T13:58:06.000Z</time>
</trkpt>
<trkpt lat="42.6551" lon="-1.202121">
<ele>1308</ele>
<time>2013-07-13T13:58:07.000Z</time>
</trkpt>
<trkpt lat="42.655028" lon="-1.202141">
<ele>1311</ele>
<time>2013-07-13T13:58:08.000Z</time>
</trkpt>
<trkpt lat="42.654942" lon="-1.202137">
<ele>1315</ele>
<time>2013-07-13T13:58:09.000Z</time>
</trkpt>
<trkpt lat="42.65485" lon="-1.202107">
<ele>1321</ele>
<time>2013-07-13T13:58:10.000Z</time>
</trkpt>
<trkpt lat="42.654754" lon="-1.202076">
<ele>1330</ele>
<time>2013-07-13T13:58:11.000Z</time>
</trkpt>
<trkpt lat="42.654684" lon="-1.202014">
<ele>1334</ele>
<time>2013-07-13T13:58:12.000Z</time>
</trkpt>
<trkpt lat="42.654625" lon="-1.201949">
<ele>1335</ele>
<time>2013-07-13T13:58:13.000Z</time>
</trkpt>
<trkpt lat="42.654568" lon="-1.201878">
<ele>1337</ele>
<time>2013-07-13T13:58:14.000Z</time>
</trkpt>
<trkpt lat="42.654519" lon="-1.201782">
<ele>1337</ele>
<time>2013-07-13T13:58:15.000Z</time>
</trkpt>
<trkpt lat="42.654484" lon="-1.201647">
<ele>1340</ele>
<time>2013-07-13T13:58:16.000Z</time>
</trkpt>
<trkpt lat="42.654452" lon="-1.201502">
<ele>1341</ele>
<time>2013-07-13T13:58:17.000Z</time>
</trkpt>
<trkpt lat="42.654429" lon="-1.201369">
<ele>1343</ele>
<time>2013-07-13T13:58:18.000Z</time>
</trkpt>
<trkpt lat="42.654414" lon="-1.201257">
<ele>1346</ele>
<time>2013-07-13T13:58:19.000Z</time>
</trkpt>
<trkpt lat="42.654406" lon="-1.201159">
<ele>1349</ele>
<time>2013-07-13T13:58:20.000Z</time>
</trkpt>
<trkpt lat="42.654405" lon="-1.201048">
<ele>1353</ele>
<time>2013-07-13T13:58:21.000Z</time>
</trkpt>
<trkpt lat="42.654416" lon="-1.20093">
<ele>1358</ele>
<time>2013-07-13T13:58:22.000Z</time>
</trkpt>
<trkpt lat="42.654451" lon="-1.200826">
<ele>1360</ele>
<time>2013-07-13T13:58:23.000Z</time>
</trkpt>
<trkpt lat="42.654512" lon="-1.200726">
<ele>1364</ele>
<time>2013-07-13T13:58:24.000Z</time>
</trkpt>
<trkpt lat="42.654587" lon="-1.200645">
<ele>1368</ele>
<time>2013-07-13T13:58:25.000Z</time>
</trkpt>
<trkpt lat="42.654658" lon="-1.20058">
<ele>1371</ele>
<time>2013-07-13T13:58:26.000Z</time>
</trkpt>
<trkpt lat="42.654743" lon="-1.200542">
<ele>1373</ele>
<time>2013-07-13T13:58:27.000Z</time>
</trkpt>
<trkpt lat="42.654823" lon="-1.200517">
<ele>1376</ele>
<time>2013-07-13T13:58:28.000Z</time>
</trkpt>
<trkpt lat="42.6549" lon="-1.200516">
<ele>1379</ele>
<time>2013-07-13T13:58:29.000Z</time>
</trkpt>
<trkpt lat="42.654964" lon="-1.200519">
<ele>1381</ele>
<time>2013-07-13T13:58:30.000Z</time>
</trkpt>
<trkpt lat="42.655014" lon="-1.200536">
<ele>1384</ele>
<time>2013-07-13T13:58:31.000Z</time>
</trkpt>
<trkpt lat="42.655059" lon="-1.200552">
<ele>1386</ele>
<time>2013-07-13T13:58:32.000Z</time>
</trkpt>
<trkpt lat="42.655109" lon="-1.200565">
<ele>1389</ele>
<time>2013-07-13T13:58:33.000Z</time>
</trkpt>
<trkpt lat="42.655167" lon="-1.200577">
<ele>1392</ele>
<time>2013-07-13T13:58:34.000Z</time>
</trkpt>
<trkpt lat="42.655218" lon="-1.200611">
<ele>1392</ele>
<time>2013-07-13T13:58:35.000Z</time>
</trkpt>
<trkpt lat="42.655249" lon="-1.200667">
<ele>1393</ele>
<time>2013-07-13T13:58:36.000Z</time>
</trkpt>
<trkpt lat="42.655268" lon="-1.200737">
<ele>1396</ele>
<time>2013-07-13T13:58:37.000Z</time>
</trkpt>
<trkpt lat="42.655276" lon="-1.200807">
<ele>1400</ele>
<time>2013-07-13T13:58:38.000Z</time>
</trkpt>
<trkpt lat="42.65528" lon="-1.200872">
<ele>1404</ele>
<time>2013-07-13T13:58:39.000Z</time>
</trkpt>
<trkpt lat="42.655277" lon="-1.200944">
<ele>1407</ele>
<time>2013-07-13T13:58:40.000Z</time>
</trkpt>
<trkpt lat="42.655246" lon="-1.201006">
<ele>1409</ele>
<time>2013-07-13T13:58:41.000Z</time>
</trkpt>
<trkpt lat="42.655203" lon="-1.201089">
<ele>1412</ele>
<time>2013-07-13T13:58:42.000Z</time>
</trkpt>
<trkpt lat="42.655146" lon="-1.201185">
<ele>1418</ele>
<time>2013-07-13T13:58:43.000Z</time>
</trkpt>
<trkpt lat="42.655086" lon="-1.201269">
<ele>1422</ele>
<time>2013-07-13T13:58:44.000Z</time>
</trkpt>
<trkpt lat="42.65501" lon="-1.201314">
<ele>1426</ele>
<time>2013-07-13T13:58:45.000Z</time>
</trkpt>
<trkpt lat="42.654928" lon="-1.201355">
<ele>1429</ele>
<time>2013-07-13T13:58:46.000Z</time>
</trkpt>
<trkpt lat="42.65483" lon="-1.201371">
<ele>1433</ele>
<time>2013-07-13T13:58:47.000Z</time>
</trkpt>
<trkpt lat="42.65473" lon="-1.201383">
<ele>1436</ele>
<time>2013-07-13T13:58:48.000Z</time>
</trkpt>
<trkpt lat="42.654632" lon="-1.201386">
<ele>1439</ele>
<time>2013-07-13T13:58:49.000Z</time>
</trkpt>
<trkpt lat="42.654547" lon="-1.201366">
<ele>1441</ele>
<time>2013-07-13T13:58:50.000Z</time>
</trkpt>
<trkpt lat="42.654462" lon="-1.201322">
<ele>1442</ele>
<time>2013-07-13T13:58:51.000Z</time>
</trkpt>
<trkpt lat="42.654375" lon="-1.201264">
<ele>1443</ele>
<time>2013-07-13T13:58:52.000Z</time>
</trkpt>
<trkpt lat="42.654283" lon="-1.201188">
<ele>1444</ele>
<time>2013-07-13T13:58:53.000Z</time>
</trkpt>
<trkpt lat="42.654198" lon="-1.201082">
<ele>1445</ele>
<time>2013-07-13T13:58:54.000Z</time>
</trkpt>
<trkpt lat="42.654119" lon="-1.200972">
<ele>1447</ele>
<time>2013-07-13T13:58:55.000Z</time>
</trkpt>
<trkpt lat="42.654041" lon="-1.200864">
<ele>1450</ele>
<time>2013-07-13T13:58:56.000Z</time>
</trkpt>
<trkpt lat="42.653972" lon="-1.200758">
<ele>1453</ele>
<time>2013-07-13T13:58:57.000Z</time>
</trkpt>
<trkpt lat="42.653913" lon="-1.200649">
<ele>1456</ele>
<time>2013-07-13T13:58:58.000Z</time>
</trkpt>
<trkpt lat="42.653877" lon="-1.200517">
<ele>1459</ele>
<time>2013-07-13T13:58:59.000Z</time>
</trkpt>
<trkpt lat="42.653844" lon="-1.200382">
<ele>1462</ele>
<time>2013-07-13T13:59:00.000Z</time>
</trkpt>
<trkpt lat="42.653813" lon="-1.200244">
<ele>1464</ele>
<time>2013-07-13T13:59:01.000Z</time>
</trkpt>
<trkpt lat="42.653785" lon="-1.200098">
<ele>1467</ele>
<time>2013-07-13T13:59:02.000Z</time>
</trkpt>
<trkpt lat="42.653764" lon="-1.199949">
<ele>1469</ele>
<time>2013-07-13T13:59:03.000Z</time>
</trkpt>
<trkpt lat="42.65375" lon="-1.199806">
<ele>1471</ele>
<time>2013-07-13T13:59:04.000Z</time>
</trkpt>
<trkpt lat="42.653732" lon="-1.19966">
<ele>1472</ele>
<time>2013-07-13T13:59:05.000Z</time>
</trkpt>
<trkpt lat="42.653721" lon="-1.199526">
<ele>1475</ele>
<time>2013-07-13T13:59:06.000Z</time>
</trkpt>
<trkpt lat="42.653762" lon="-1.199404">
<ele>1477</ele>
<time>2013-07-13T13:59:07.000Z</time>
</trkpt>
<trkpt lat="42.653805" lon="-1.199294">
<ele>1479</ele>
<time>2013-07-13T13:59:08.000Z</time>
</trkpt>
<trkpt lat="42.653855" lon="-1.199207">
<ele>1481</ele>
<time>2013-07-13T13:59:09.000Z</time>
</trkpt>
<trkpt lat="42.653946" lon="-1.199142">
<ele>1481</ele>
<time>2013-07-13T13:59:10.000Z</time>
</trkpt>
<trkpt lat="42.654023" lon="-1.199096">
<ele>1482</ele>
<time>2013-07-13T13:59:11.000Z</time>
</trkpt>
<trkpt lat="42.654096" lon="-1.199082">
<ele>1484</ele>
<time>2013-07-13T13:59:12.000Z</time>
</trkpt>
<trkpt lat="42.654163" lon="-1.199087">
<ele>1486</ele>
<time>2013-07-13T13:59:13.000Z</time>
</trkpt>
<trkpt lat="42.65422" lon="-1.199098">
<ele>1489</ele>
<time>2013-07-13T13:59:14.000Z</time>
</trkpt>
<trkpt lat="42.654294" lon="-1.199124">
<ele>1491</ele>
<time>2013-07-13T13:59:15.000Z</time>
</trkpt>
<trkpt lat="42.654361" lon="-1.199171">
<ele>1495</ele>
<time>2013-07-13T13:59:16.000Z</time>
</trkpt>
<trkpt lat="42.654427" lon="-1.199222">
<ele>1497</ele>
<time>2013-07-13T13:59:17.000Z</time>
</trkpt>
<trkpt lat="42.654482" lon="-1.199287">
<ele>1503</ele>
<time>2013-07-13T13:59:18.000Z</time>
</trkpt>
<trkpt lat="42.654519" lon="-1.199356">
<ele>1506</ele>
<time>2013-07-13T13:59:19.000Z</time>
</trkpt>
<trkpt lat="42.654538" lon="-1.199436">
<ele>1507</ele>
<time>2013-07-13T13:59:20.000Z</time>
</trkpt>
<trkpt lat="42.654522" lon="-1.19951">
<ele>1509</ele>
<time>2013-07-13T13:59:21.000Z</time>
</trkpt>
<trkpt lat="42.654483" lon="-1.199582">
<ele>1512</ele>
<time>2013-07-13T13:59:22.000Z</time>
</trkpt>
<trkpt lat="42.654427" lon="-1.199634">
<ele>1515</ele>
<time>2013-07-13T13:59:23.000Z</time>
</trkpt>
<trkpt lat="42.654356" lon="-1.199668">
<ele>1518</ele>
<time>2013-07-13T13:59:24.000Z</time>
</trkpt>
<trkpt lat="42.654273" lon="-1.199693">
<ele>1523</ele>
<time>2013-07-13T13:59:25.000Z</time>
</trkpt>
<trkpt lat="42.654188" lon="-1.199691">
<ele>1528</ele>
<time>2013-07-13T13:59:26.000Z</time>
</trkpt>
<trkpt lat="42.654112" lon="-1.199686">
<ele>1532</ele>
<time>2013-07-13T13:59:27.000Z</time>
</trkpt>
<trkpt lat="42.654042" lon="-1.19965">
<ele>1533</ele>
<time>2013-07-13T13:59:28.000Z</time>
</trkpt>
<trkpt lat="42.653974" lon="-1.199609">
<ele>1534</ele>
<time>2013-07-13T13:59:29.000Z</time>
</trkpt>
<trkpt lat="42.653908" lon="-1.199559">
<ele>1534</ele>
<time>2013-07-13T13:59:30.000Z</time>
</trkpt>
<trkpt lat="42.653838" lon="-1.199493">
<ele>1536</ele>
<time>2013-07-13T13:59:31.000Z</time>
</trkpt>
<trkpt lat="42.653781" lon="-1.199392">
<ele>1538</ele>
<time>2013-07-13T13:59:32.000Z</time>
</trkpt>
<trkpt lat="42.65372" lon="-1.19927">
<ele>1542</ele>
<time>2013-07-13T13:59:33.000Z</time>
</trkpt>
<trkpt lat="42.653687" lon="-1.199141">
<ele>1545</ele>
<time>2013-07-13T13:59:34.000Z</time>
</trkpt>
<trkpt lat="42.653662" lon="-1.199014">
<ele>1549</ele>
<time>2013-07-13T13:59:35.000Z</time>
</trkpt>
<trkpt lat="42.653644" lon="-1.198902">
<ele>1552</ele>
<time>2013-07-13T13:59:36.000Z</time>
</trkpt>
<trkpt lat="42.65362" lon="-1.19879">
<ele>1554</ele>
<time>2013-07-13T13:59:37.000Z</time>
</trkpt>
<trkpt lat="42.653621" lon="-1.198673">
<ele>1555</ele>
<time>2013-07-13T13:59:38.000Z</time>
</trkpt>
<trkpt lat="42.653654" lon="-1.198561">
<ele>1556</ele>
<time>2013-07-13T13:59:39.000Z</time>
</trkpt>
<trkpt lat="42.65371" lon="-1.198469">
<ele>1558</ele>
<time>2013-07-13T13:59:40.000Z</time>
</trkpt>
<trkpt lat="42.653754" lon="-1.198405">
<ele>1561</ele>
<time>2013-07-13T13:59:41.000Z</time>
</trkpt>
<trkpt lat="42.653785" lon="-1.198368">
<ele>1563</ele>
<time>2013-07-13T13:59:42.000Z</time>
</trkpt>
<trkpt lat="42.653832" lon="-1.198327">
<ele>1566</ele>
<time>2013-07-13T13:59:43.000Z</time>
</trkpt>
<trkpt lat="42.653865" lon="-1.198298">
<ele>1566</ele>
<time>2013-07-13T13:59:44.000Z</time>
</trkpt>
<trkpt lat="42.65391" lon="-1.198264">
<ele>1568</ele>
<time>2013-07-13T13:59:45.000Z</time>
</trkpt>
<trkpt lat="42.653986" lon="-1.198226">
<ele>1570</ele>
<time>2013-07-13T13:59:46.000Z</time>
</trkpt>
<trkpt lat="42.654066" lon="-1.19819">
<ele>1571</ele>
<time>2013-07-13T13:59:47.000Z</time>
</trkpt>
<trkpt lat="42.654208" lon="-1.198137">
<ele>1582</ele>
<time>2013-07-13T13:59:48.000Z</time>
</trkpt>
<trkpt lat="42.654318" lon="-1.198133">
<ele>1587</ele>
<time>2013-07-13T13:59:49.000Z</time>
</trkpt>
<trkpt lat="42.6544" lon="-1.198142">
<ele>1590</ele>
<time>2013-07-13T13:59:50.000Z</time>
</trkpt>
<trkpt lat="42.654468" lon="-1.198153">
<ele>1592</ele>
<time>2013-07-13T13:59:51.000Z</time>
</trkpt>
<trkpt lat="42.654524" lon="-1.198179">
<ele>1592</ele>
<time>2013-07-13T13:59:52.000Z</time>
</trkpt>
<trkpt lat="42.654576" lon="-1.198227">
<ele>1593</ele>
<time>2013-07-13T13:59:53.000Z</time>
</trkpt>
<trkpt lat="42.654617" lon="-1.198296">
<ele>1595</ele>
<time>2013-07-13T13:59:54.000Z</time>
</trkpt>
<trkpt lat="42.654654" lon="-1.198373">
<ele>1596</ele>
<time>2013-07-13T13:59:55.000Z</time>
</trkpt>
<trkpt lat="42.654674" lon="-1.198458">
<ele>1601</ele>
<time>2013-07-13T13:59:56.000Z</time>
</trkpt>
<trkpt lat="42.654695" lon="-1.198543">
<ele>1606</ele>
<time>2013-07-13T13:59:57.000Z</time>
</trkpt>
<trkpt lat="42.654718" lon="-1.19862">
<ele>1609</ele>
<time>2013-07-13T13:59:58.000Z</time>
</trkpt>
<trkpt lat="42.654728" lon="-1.198701">
<ele>1611</ele>
<time>2013-07-13T13:59:59.000Z</time>
</trkpt>
<trkpt lat="42.654724" lon="-1.198807">
<ele>1613</ele>
<time>2013-07-13T14:00:00.000Z</time>
</trkpt>
<trkpt lat="42.6547" lon="-1.198923">
<ele>1615</ele>
<time>2013-07-13T14:00:01.000Z</time>
</trkpt>
<trkpt lat="42.654672" lon="-1.199022">
<ele>1617</ele>
<time>2013-07-13T14:00:02.000Z</time>
</trkpt>
<trkpt lat="42.654634" lon="-1.199142">
<ele>1628</ele>
<time>2013-07-13T14:00:03.000Z</time>
</trkpt>
<trkpt lat="42.65459" lon="-1.19924">
<ele>1635</ele>
<time>2013-07-13T14:00:04.000Z</time>
</trkpt>
<trkpt lat="42.654521" lon="-1.199323">
<ele>1639</ele>
<time>2013-07-13T14:00:05.000Z</time>
</trkpt>
<trkpt lat="42.654445" lon="-1.1994">
<ele>1642</ele>
<time>2013-07-13T14:00:06.000Z</time>
</trkpt>
<trkpt lat="42.654345" lon="-1.199471">
<ele>1645</ele>
<time>2013-07-13T14:00:07.000Z</time>
</trkpt>
<trkpt lat="42.654243" lon="-1.199531">
<ele>1647</ele>
<time>2013-07-13T14:00:08.000Z</time>
</trkpt>
<trkpt lat="42.65412" lon="-1.199565">
<ele>1649</ele>
<time>2013-07-13T14:00:09.000Z</time>
</trkpt>
<trkpt lat="42.654024" lon="-1.19958">
<ele>1652</ele>
<time>2013-07-13T14:00:10.000Z</time>
</trkpt>
<trkpt lat="42.65394" lon="-1.19955">
<ele>1653</ele>
<time>2013-07-13T14:00:11.000Z</time>
</trkpt>
<trkpt lat="42.653857" lon="-1.19951">
<ele>1654</ele>
<time>2013-07-13T14:00:12.000Z</time>
</trkpt>
<trkpt lat="42.653766" lon="-1.199455">
<ele>1654</ele>
<time>2013-07-13T14:00:13.000Z</time>
</trkpt>
<trkpt lat="42.653669" lon="-1.199393">
<ele>1654</ele>
<time>2013-07-13T14:00:14.000Z</time>
</trkpt>
<trkpt lat="42.653572" lon="-1.199299">
<ele>1656</ele>
<time>2013-07-13T14:00:15.000Z</time>
</trkpt>
<trkpt lat="42.653487" lon="-1.199208">
<ele>1657</ele>
<time>2013-07-13T14:00:16.000Z</time>
</trkpt>
<trkpt lat="42.653414" lon="-1.199115">
<ele>1657</ele>
<time>2013-07-13T14:00:17.000Z</time>
</trkpt>
<trkpt lat="42.653361" lon="-1.199005">
<ele>1659</ele>
<time>2013-07-13T14:00:18.000Z</time>
</trkpt>
<trkpt lat="42.65331" lon="-1.198892">
<ele>1661</ele>
<time>2013-07-13T14:00:19.000Z</time>
</trkpt>
<trkpt lat="42.653261" lon="-1.198773">
<ele>1662</ele>
<time>2013-07-13T14:00:20.000Z</time>
</trkpt>
<trkpt lat="42.65322" lon="-1.198654">
<ele>1663</ele>
<time>2013-07-13T14:00:21.000Z</time>
</trkpt>
<trkpt lat="42.653192" lon="-1.198538">
<ele>1665</ele>
<time>2013-07-13T14:00:22.000Z</time>
</trkpt>
<trkpt lat="42.653174" lon="-1.198423">
<ele>1668</ele>
<time>2013-07-13T14:00:23.000Z</time>
</trkpt>
<trkpt lat="42.653153" lon="-1.19831">
<ele>1671</ele>
<time>2013-07-13T14:00:24.000Z</time>
</trkpt>
<trkpt lat="42.653136" lon="-1.198197">
<ele>1672</ele>
<time>2013-07-13T14:00:25.000Z</time>
</trkpt>
<trkpt lat="42.653123" lon="-1.198085">
<ele>1674</ele>
<time>2013-07-13T14:00:26.000Z</time>
</trkpt>
<trkpt lat="42.65313" lon="-1.197959">
<ele>1676</ele>
<time>2013-07-13T14:00:27.000Z</time>
</trkpt>
<trkpt lat="42.653136" lon="-1.197829">
<ele>1677</ele>
<time>2013-07-13T14:00:28.000Z</time>
</trkpt>
<trkpt lat="42.653143" lon="-1.197712">
<ele>1680</ele>
<time>2013-07-13T14:00:29.000Z</time>
</trkpt>
<trkpt lat="42.653145" lon="-1.197611">
<ele>1682</ele>
<time>2013-07-13T14:00:30.000Z</time>
</trkpt>
<trkpt lat="42.653151" lon="-1.197514">
<ele>1683</ele>
<time>2013-07-13T14:00:31.000Z</time>
</trkpt>
<trkpt lat="42.65318" lon="-1.197422">
<ele>1685</ele>
<time>2013-07-13T14:00:32.000Z</time>
</trkpt>
<trkpt lat="42.653221" lon="-1.197318">
<ele>1689</ele>
<time>2013-07-13T14:00:33.000Z</time>
</trkpt>
<trkpt lat="42.653263" lon="-1.19722">
<ele>1691</ele>
<time>2013-07-13T14:00:34.000Z</time>
</trkpt>
<trkpt lat="42.653302" lon="-1.197134">
<ele>1694</ele>
<time>2013-07-13T14:00:35.000Z</time>
</trkpt>
<trkpt lat="42.653343" lon="-1.197048">
<ele>1698</ele>
<time>2013-07-13T14:00:36.000Z</time>
</trkpt>
<trkpt lat="42.6534" lon="-1.196983">
<ele>1701</ele>
<time>2013-07-13T14:00:37.000Z</time>
</trkpt>
<trkpt lat="42.653459" lon="-1.196928">
<ele>1702</ele>
<time>2013-07-13T14:00:38.000Z</time>
</trkpt>
<trkpt lat="42.653518" lon="-1.196883">
<ele>1705</ele>
<time>2013-07-13T14:00:39.000Z</time>
</trkpt>
<trkpt lat="42.653576" lon="-1.196845">
<ele>1708</ele>
<time>2013-07-13T14:00:40.000Z</time>
</trkpt>
<trkpt lat="42.653646" lon="-1.19682">
<ele>1714</ele>
<time>2013-07-13T14:00:41.000Z</time>
</trkpt>
<trkpt lat="42.653691" lon="-1.196825">
<ele>1717</ele>
<time>2013-07-13T14:00:42.000Z</time>
</trkpt>
<trkpt lat="42.653734" lon="-1.196857">
<ele>1720</ele>
<time>2013-07-13T14:00:43.000Z</time>
</trkpt>
<trkpt lat="42.653777" lon="-1.196896">
<ele>1722</ele>
<time>2013-07-13T14:00:44.000Z</time>
</trkpt>
<trkpt lat="42.653827" lon="-1.196948">
<ele>1722</ele>
<time>2013-07-13T14:00:45.000Z</time>
</trkpt>
<trkpt lat="42.653861" lon="-1.197013">
<ele>1723</ele>
<time>2013-07-13T14:00:46.000Z</time>
</trkpt>
<trkpt lat="42.653881" lon="-1.197089">
<ele>1724</ele>
<time>2013-07-13T14:00:47.000Z</time>
</trkpt>
<trkpt lat="42.653898" lon="-1.197169">
<ele>1725</ele>
<time>2013-07-13T14:00:48.000Z</time>
</trkpt>
<trkpt lat="42.6539" lon="-1.197266">
<ele>1726</ele>
<time>2013-07-13T14:00:49.000Z</time>
</trkpt>
<trkpt lat="42.653899" lon="-1.197377">
<ele>1728</ele>
<time>2013-07-13T14:00:50.000Z</time>
</trkpt>
<trkpt lat="42.653871" lon="-1.197483">
<ele>1730</ele>
<time>2013-07-13T14:00:51.000Z</time>
</trkpt>
<trkpt lat="42.653832" lon="-1.19759">
<ele>1734</ele>
<time>2013-07-13T14:00:52.000Z</time>
</trkpt>
<trkpt lat="42.653768" lon="-1.197686">
<ele>1738</ele>
<time>2013-07-13T14:00:53.000Z</time>
</trkpt>
<trkpt lat="42.6537" lon="-1.197765">
<ele>1741</ele>
<time>2013-07-13T14:00:54.000Z</time>
</trkpt>
<trkpt lat="42.653615" lon="-1.197824">
<ele>1744</ele>
<time>2013-07-13T14:00:55.000Z</time>
</trkpt>
<trkpt lat="42.653532" lon="-1.197873">
<ele>1746</ele>
<time>2013-07-13T14:00:56.000Z</time>
</trkpt>
<trkpt lat="42.653452" lon="-1.19791">
<ele>1746</ele>
<time>2013-07-13T14:00:57.000Z</time>
</trkpt>
<trkpt lat="42.653351" lon="-1.197928">
<ele>1748</ele>
<time>2013-07-13T14:00:58.000Z</time>
</trkpt>
<trkpt lat="42.653245" lon="-1.19795">
<ele>1751</ele>
<time>2013-07-13T14:00:59.000Z</time>
</trkpt>
<trkpt lat="42.653151" lon="-1.197926">
<ele>1752</ele>
<time>2013-07-13T14:01:00.000Z</time>
</trkpt>
<trkpt lat="42.653074" lon="-1.197867">
<ele>1753</ele>
<time>2013-07-13T14:01:01.000Z</time>
</trkpt>
<trkpt lat="42.653002" lon="-1.197798">
<ele>1755</ele>
<time>2013-07-13T14:01:02.000Z</time>
</trkpt>
<trkpt lat="42.652939" lon="-1.197705">
<ele>1756</ele>
<time>2013-07-13T14:01:03.000Z</time>
</trkpt>
<trkpt lat="42.652879" lon="-1.197609">
<ele>1758</ele>
<time>2013-07-13T14:01:04.000Z</time>
</trkpt>
<trkpt lat="42.652824" lon="-1.197511">
<ele>1758</ele>
<time>2013-07-13T14:01:05.000Z</time>
</trkpt>
<trkpt lat="42.652786" lon="-1.1974">
<ele>1759</ele>
<time>2013-07-13T14:01:06.000Z</time>
</trkpt>
<trkpt lat="42.652749" lon="-1.197284">
<ele>1760</ele>
<time>2013-07-13T14:01:07.000Z</time>
</trkpt>
<trkpt lat="42.652712" lon="-1.197161">
<ele>1761</ele>
<time>2013-07-13T14:01:08.000Z</time>
</trkpt>
<trkpt lat="42.652674" lon="-1.197029">
<ele>1762</ele>
<time>2013-07-13T14:01:09.000Z</time>
</trkpt>
<trkpt lat="42.652646" lon="-1.196903">
<ele>1762</ele>
<time>2013-07-13T14:01:10.000Z</time>
</trkpt>
<trkpt lat="42.652644" lon="-1.196772">
<ele>1763</ele>
<time>2013-07-13T14:01:11.000Z</time>
</trkpt>
<trkpt lat="42.652662" lon="-1.196651">
<ele>1763</ele>
<time>2013-07-13T14:01:12.000Z</time>
</trkpt>
<trkpt lat="42.652683" lon="-1.196549">
<ele>1764</ele>
<time>2013-07-13T14:01:13.000Z</time>
</trkpt>
<trkpt lat="42.652709" lon="-1.196447">
<ele>1765</ele>
<time>2013-07-13T14:01:14.000Z</time>
</trkpt>
<trkpt lat="42.652742" lon="-1.196348">
<ele>1767</ele>
<time>2013-07-13T14:01:15.000Z</time>
</trkpt>
<trkpt lat="42.652786" lon="-1.196265">
<ele>1767</ele>
<time>2013-07-13T14:01:16.000Z</time>
</trkpt>
<trkpt lat="42.652877" lon="-1.196188">
<ele>1771</ele>
<time>2013-07-13T14:01:17.000Z</time>
</trkpt>
<trkpt lat="42.652963" lon="-1.19613">
<ele>1774</ele>
<time>2013-07-13T14:01:18.000Z</time>
</trkpt>
<trkpt lat="42.653049" lon="-1.196103">
<ele>1776</ele>
<time>2013-07-13T14:01:19.000Z</time>
</trkpt>
<trkpt lat="42.653124" lon="-1.19609">
<ele>1779</ele>
<time>2013-07-13T14:01:20.000Z</time>
</trkpt>
<trkpt lat="42.653204" lon="-1.196086">
<ele>1781</ele>
<time>2013-07-13T14:01:21.000Z</time>
</trkpt>
<trkpt lat="42.653285" lon="-1.196086">
<ele>1783</ele>
<time>2013-07-13T14:01:22.000Z</time>
</trkpt>
<trkpt lat="42.653354" lon="-1.196105">
<ele>1783</ele>
<time>2013-07-13T14:01:23.000Z</time>
</trkpt>
<trkpt lat="42.653403" lon="-1.196182">
<ele>1785</ele>
<time>2013-07-13T14:01:24.000Z</time>
</trkpt>
<trkpt lat="42.653439" lon="-1.196268">
<ele>1786</ele>
<time>2013-07-13T14:01:25.000Z</time>
</trkpt>
<trkpt lat="42.653471" lon="-1.196357">
<ele>1787</ele>
<time>2013-07-13T14:01:26.000Z</time>
</trkpt>
<trkpt lat="42.653495" lon="-1.196442">
<ele>1788</ele>
<time>2013-07-13T14:01:27.000Z</time>
</trkpt>
<trkpt lat="42.653501" lon="-1.196528">
<ele>1790</ele>
<time>2013-07-13T14:01:28.000Z</time>
</trkpt>
<trkpt lat="42.653482" lon="-1.196621">
<ele>1791</ele>
<time>2013-07-13T14:01:29.000Z</time>
</trkpt>
<trkpt lat="42.653452" lon="-1.196733">
<ele>1794</ele>
<time>2013-07-13T14:01:30.000Z</time>
</trkpt>
<trkpt lat="42.653398" lon="-1.196851">
<ele>1796</ele>
<time>2013-07-13T14:01:31.000Z</time>
</trkpt>
<trkpt lat="42.653341" lon="-1.196953">
<ele>1799</ele>
<time>2013-07-13T14:01:32.000Z</time>
</trkpt>
<trkpt lat="42.653269" lon="-1.197027">
<ele>1801</ele>
<time>2013-07-13T14:01:33.000Z</time>
</trkpt>
<trkpt lat="42.65319" lon="-1.197095">
<ele>1804</ele>
<time>2013-07-13T14:01:34.000Z</time>
</trkpt>
<trkpt lat="42.65309" lon="-1.197147">
<ele>1806</ele>
<time>2013-07-13T14:01:35.000Z</time>
</trkpt>
<trkpt lat="42.652989" lon="-1.197192">
<ele>1808</ele>
<time>2013-07-13T14:01:36.000Z</time>
</trkpt>
<trkpt lat="42.652882" lon="-1.197207">
<ele>1810</ele>
<time>2013-07-13T14:01:37.000Z</time>
</trkpt>
<trkpt lat="42.65278" lon="-1.197219">
<ele>1811</ele>
<time>2013-07-13T14:01:38.000Z</time>
</trkpt>
<trkpt lat="42.65269" lon="-1.1972">
<ele>1812</ele>
<time>2013-07-13T14:01:39.000Z</time>
</trkpt>
<trkpt lat="42.652609" lon="-1.197176">
<ele>1813</ele>
<time>2013-07-13T14:01:40.000Z</time>
</trkpt>
<trkpt lat="42.652533" lon="-1.197128">
<ele>1813</ele>
<time>2013-07-13T14:01:41.000Z</time>
</trkpt>
<trkpt lat="42.652449" lon="-1.197071">
<ele>1814</ele>
<time>2013-07-13T14:01:42.000Z</time>
</trkpt>
<trkpt lat="42.652371" lon="-1.196987">
<ele>1815</ele>
<time>2013-07-13T14:01:43.000Z</time>
</trkpt>
<trkpt lat="42.652292" lon="-1.196897">
<ele>1816</ele>
<time>2013-07-13T14:01:44.000Z</time>
</trkpt>
<trkpt lat="42.652217" lon="-1.196803">
<ele>1816</ele>
<time>2013-07-13T14:01:45.000Z</time>
</trkpt>
<trkpt lat="42.652154" lon="-1.196702">
<ele>1817</ele>
<time>2013-07-13T14:01:46.000Z</time>
</trkpt>
<trkpt lat="42.652101" lon="-1.196572">
<ele>1817</ele>
<time>2013-07-13T14:01:47.000Z</time>
</trkpt>
<trkpt lat="42.652048" lon="-1.196434">
<ele>1817</ele>
<time>2013-07-13T14:01:48.000Z</time>
</trkpt>
<trkpt lat="42.651999" lon="-1.19629">
<ele>1816</ele>
<time>2013-07-13T14:01:49.000Z</time>
</trkpt>
<trkpt lat="42.651956" lon="-1.196148">
<ele>1817</ele>
<time>2013-07-13T14:01:50.000Z</time>
</trkpt>
<trkpt lat="42.651919" lon="-1.196005">
<ele>1818</ele>
<time>2013-07-13T14:01:51.000Z</time>
</trkpt>
<trkpt lat="42.651887" lon="-1.195863">
<ele>1820</ele>
<time>2013-07-13T14:01:52.000Z</time>
</trkpt>
<trkpt lat="42.651862" lon="-1.19572">
<ele>1821</ele>
<time>2013-07-13T14:01:53.000Z</time>
</trkpt>
<trkpt lat="42.651842" lon="-1.195574">
<ele>1822</ele>
<time>2013-07-13T14:01:54.000Z</time>
</trkpt>
<trkpt lat="42.651829" lon="-1.195431">
<ele>1823</ele>
<time>2013-07-13T14:01:55.000Z</time>
</trkpt>
<trkpt lat="42.65182" lon="-1.195293">
<ele>1825</ele>
<time>2013-07-13T14:01:56.000Z</time>
</trkpt>
<trkpt lat="42.651817" lon="-1.195162">
<ele>1826</ele>
<time>2013-07-13T14:01:57.000Z</time>
</trkpt>
<trkpt lat="42.651834" lon="-1.195032">
<ele>1828</ele>
<time>2013-07-13T14:01:58.000Z</time>
</trkpt>
<trkpt lat="42.651857" lon="-1.194899">
<ele>1828</ele>
<time>2013-07-13T14:01:59.000Z</time>
</trkpt>
<trkpt lat="42.651913" lon="-1.194778">
<ele>1828</ele>
<time>2013-07-13T14:02:00.000Z</time>
</trkpt>
<trkpt lat="42.651992" lon="-1.194683">
<ele>1828</ele>
<time>2013-07-13T14:02:01.000Z</time>
</trkpt>
<trkpt lat="42.652072" lon="-1.1946">
<ele>1830</ele>
<time>2013-07-13T14:02:02.000Z</time>
</trkpt>
<trkpt lat="42.652148" lon="-1.194535">
<ele>1833</ele>
<time>2013-07-13T14:02:03.000Z</time>
</trkpt>
<trkpt lat="42.652217" lon="-1.194478">
<ele>1834</ele>
<time>2013-07-13T14:02:04.000Z</time>
</trkpt>
<trkpt lat="42.652279" lon="-1.194434">
<ele>1834</ele>
<time>2013-07-13T14:02:05.000Z</time>
</trkpt>
<trkpt lat="42.652341" lon="-1.194395">
<ele>1837</ele>
<time>2013-07-13T14:02:06.000Z</time>
</trkpt>
<trkpt lat="42.652415" lon="-1.194379">
<ele>1839</ele>
<time>2013-07-13T14:02:07.000Z</time>
</trkpt>
<trkpt lat="42.652492" lon="-1.194388">
<ele>1838</ele>
<time>2013-07-13T14:02:08.000Z</time>
</trkpt>
<trkpt lat="42.652545" lon="-1.194439">
<ele>1839</ele>
<time>2013-07-13T14:02:09.000Z</time>
</trkpt>
<trkpt lat="42.652572" lon="-1.194495">
<ele>1839</ele>
<time>2013-07-13T14:02:10.000Z</time>
</trkpt>
<trkpt lat="42.652602" lon="-1.19457">
<ele>1839</ele>
<time>2013-07-13T14:02:11.000Z</time>
</trkpt>
<trkpt lat="42.652629" lon="-1.194654">
<ele>1840</ele>
<time>2013-07-13T14:02:12.000Z</time>
</trkpt>
<trkpt lat="42.652654" lon="-1.194733">
<ele>1841</ele>
<time>2013-07-13T14:02:13.000Z</time>
</trkpt>
<trkpt lat="42.652672" lon="-1.194813">
<ele>1843</ele>
<time>2013-07-13T14:02:14.000Z</time>
</trkpt>
<trkpt lat="42.652666" lon="-1.194893">
<ele>1845</ele>
<time>2013-07-13T14:02:15.000Z</time>
</trkpt>
<trkpt lat="42.652655" lon="-1.194977">
<ele>1845</ele>
<time>2013-07-13T14:02:16.000Z</time>
</trkpt>
<trkpt lat="42.652639" lon="-1.19506">
<ele>1845</ele>
<time>2013-07-13T14:02:17.000Z</time>
</trkpt>
<trkpt lat="42.65261" lon="-1.195137">
<ele>1845</ele>
<time>2013-07-13T14:02:18.000Z</time>
</trkpt>
<trkpt lat="42.652562" lon="-1.195206">
<ele>1847</ele>
<time>2013-07-13T14:02:19.000Z</time>
</trkpt>
<trkpt lat="42.652508" lon="-1.19527">
<ele>1848</ele>
<time>2013-07-13T14:02:20.000Z</time>
</trkpt>
<trkpt lat="42.652433" lon="-1.195333">
<ele>1849</ele>
<time>2013-07-13T14:02:21.000Z</time>
</trkpt>
<trkpt lat="42.652354" lon="-1.195394">
<ele>1850</ele>
<time>2013-07-13T14:02:22.000Z</time>
</trkpt>
<trkpt lat="42.652272" lon="-1.195443">
<ele>1852</ele>
<time>2013-07-13T14:02:23.000Z</time>
</trkpt>
<trkpt lat="42.652174" lon="-1.195462">
<ele>1852</ele>
<time>2013-07-13T14:02:24.000Z</time>
</trkpt>
<trkpt lat="42.652083" lon="-1.195474">
<ele>1852</ele>
<time>2013-07-13T14:02:25.000Z</time>
</trkpt>
<trkpt lat="42.651993" lon="-1.195477">
<ele>1852</ele>
<time>2013-07-13T14:02:26.000Z</time>
</trkpt>
<trkpt lat="42.651901" lon="-1.195451">
<ele>1852</ele>
<time>2013-07-13T14:02:27.000Z</time>
</trkpt>
<trkpt lat="42.651809" lon="-1.195413">
<ele>1852</ele>
<time>2013-07-13T14:02:28.000Z</time>
</trkpt>
<trkpt lat="42.651719" lon="-1.19534">
<ele>1853</ele>
<time>2013-07-13T14:02:29.000Z</time>
</trkpt>
<trkpt lat="42.651631" lon="-1.195263">
<ele>1854</ele>
<time>2013-07-13T14:02:30.000Z</time>
</trkpt>
<trkpt lat="42.651552" lon="-1.195182">
<ele>1854</ele>
<time>2013-07-13T14:02:31.000Z</time>
</trkpt>
<trkpt lat="42.65148" lon="-1.195094">
<ele>1855</ele>
<time>2013-07-13T14:02:32.000Z</time>
</trkpt>
<trkpt lat="42.651419" lon="-1.194973">
<ele>1855</ele>
<time>2013-07-13T14:02:33.000Z</time>
</trkpt>
<trkpt lat="42.651357" lon="-1.194853">
<ele>1856</ele>
<time>2013-07-13T14:02:34.000Z</time>
</trkpt>
<trkpt lat="42.651299" lon="-1.194738">
<ele>1857</ele>
<time>2013-07-13T14:02:35.000Z</time>
</trkpt>
<trkpt lat="42.651244" lon="-1.19463">
<ele>1858</ele>
<time>2013-07-13T14:02:36.000Z</time>
</trkpt>
<trkpt lat="42.651189" lon="-1.194516">
<ele>1859</ele>
<time>2013-07-13T14:02:37.000Z</time>
</trkpt>
<trkpt lat="42.651135" lon="-1.1944">
<ele>1859</ele>
<time>2013-07-13T14:02:38.000Z</time>
</trkpt>
<trkpt lat="42.651084" lon="-1.194284">
<ele>1860</ele>
<time>2013-07-13T14:02:39.000Z</time>
</trkpt>
<trkpt lat="42.651038" lon="-1.194172">
<ele>1861</ele>
<time>2013-07-13T14:02:40.000Z</time>
</trkpt>
<trkpt lat="42.650997" lon="-1.194063">
<ele>1862</ele>
<time>2013-07-13T14:02:41.000Z</time>
</trkpt>
<trkpt lat="42.650978" lon="-1.193942">
<ele>1863</ele>
<time>2013-07-13T14:02:42.000Z</time>
</trkpt>
<trkpt lat="42.650964" lon="-1.193817">
<ele>1864</ele>
<time>2013-07-13T14:02:43.000Z</time>
</trkpt>
<trkpt lat="42.650953" lon="-1.193683">
<ele>1865</ele>
<time>2013-07-13T14:02:44.000Z</time>
</trkpt>
<trkpt lat="42.650945" lon="-1.193549">
<ele>1868</ele>
<time>2013-07-13T14:02:45.000Z</time>
</trkpt>
<trkpt lat="42.65094" lon="-1.193422">
<ele>1869</ele>
<time>2013-07-13T14:02:46.000Z</time>
</trkpt>
<trkpt lat="42.650936" lon="-1.193302">
<ele>1870</ele>
<time>2013-07-13T14:02:47.000Z</time>
</trkpt>
<trkpt lat="42.650937" lon="-1.193183">
<ele>1870</ele>
<time>2013-07-13T14:02:48.000Z</time>
</trkpt>
<trkpt lat="42.650966" lon="-1.193064">
<ele>1870</ele>
<time>2013-07-13T14:02:49.000Z</time>
</trkpt>
<trkpt lat="42.650998" lon="-1.192947">
<ele>1871</ele>
<time>2013-07-13T14:02:50.000Z</time>
</trkpt>
<trkpt lat="42.65104" lon="-1.192827">
<ele>1873</ele>
<time>2013-07-13T14:02:51.000Z</time>
</trkpt>
<trkpt lat="42.651088" lon="-1.192717">
<ele>1875</ele>
<time>2013-07-13T14:02:52.000Z</time>
</trkpt>
<trkpt lat="42.65114" lon="-1.192614">
<ele>1877</ele>
<time>2013-07-13T14:02:53.000Z</time>
</trkpt>
<trkpt lat="42.651197" lon="-1.192519">
<ele>1879</ele>
<time>2013-07-13T14:02:54.000Z</time>
</trkpt>
<trkpt lat="42.651265" lon="-1.192441">
<ele>1881</ele>
<time>2013-07-13T14:02:55.000Z</time>
</trkpt>
<trkpt lat="42.65133" lon="-1.192376">
<ele>1881</ele>
<time>2013-07-13T14:02:56.000Z</time>
</trkpt>
<trkpt lat="42.651404" lon="-1.192345">
<ele>1881</ele>
<time>2013-07-13T14:02:57.000Z</time>
</trkpt>
<trkpt lat="42.651472" lon="-1.192324">
<ele>1881</ele>
<time>2013-07-13T14:02:58.000Z</time>
</trkpt>
<trkpt lat="42.651528" lon="-1.192337">
<ele>1880</ele>
<time>2013-07-13T14:02:59.000Z</time>
</trkpt>
<trkpt lat="42.651573" lon="-1.192356">
<ele>1880</ele>
<time>2013-07-13T14:03:00.000Z</time>
</trkpt>
<trkpt lat="42.651623" lon="-1.192394">
<ele>1881</ele>
<time>2013-07-13T14:03:01.000Z</time>
</trkpt>
<trkpt lat="42.651671" lon="-1.192436">
<ele>1882</ele>
<time>2013-07-13T14:03:02.000Z</time>
</trkpt>
<trkpt lat="42.651705" lon="-1.192499">
<ele>1883</ele>
<time>2013-07-13T14:03:03.000Z</time>
</trkpt>
<trkpt lat="42.651715" lon="-1.192573">
<ele>1883</ele>
<time>2013-07-13T14:03:04.000Z</time>
</trkpt>
<trkpt lat="42.651708" lon="-1.192654">
<ele>1885</ele>
<time>2013-07-13T14:03:05.000Z</time>
</trkpt>
<trkpt lat="42.651698" lon="-1.192735">
<ele>1886</ele>
<time>2013-07-13T14:03:06.000Z</time>
</trkpt>
<trkpt lat="42.651684" lon="-1.192812">
<ele>1887</ele>
<time>2013-07-13T14:03:07.000Z</time>
</trkpt>
<trkpt lat="42.651666" lon="-1.192886">
<ele>1887</ele>
<time>2013-07-13T14:03:08.000Z</time>
</trkpt>
<trkpt lat="42.651623" lon="-1.192953">
<ele>1890</ele>
<time>2013-07-13T14:03:09.000Z</time>
</trkpt>
<trkpt lat="42.651569" lon="-1.193023">
<ele>1891</ele>
<time>2013-07-13T14:03:10.000Z</time>
</trkpt>
<trkpt lat="42.651505" lon="-1.193098">
<ele>1893</ele>
<time>2013-07-13T14:03:11.000Z</time>
</trkpt>
<trkpt lat="42.651441" lon="-1.193167">
<ele>1894</ele>
<time>2013-07-13T14:03:12.000Z</time>
</trkpt>
<trkpt lat="42.651367" lon="-1.193217">
<ele>1895</ele>
<time>2013-07-13T14:03:13.000Z</time>
</trkpt>
<trkpt lat="42.651294" lon="-1.193261">
<ele>1894</ele>
<time>2013-07-13T14:03:14.000Z</time>
</trkpt>
<trkpt lat="42.651216" lon="-1.1933">
<ele>1894</ele>
<time>2013-07-13T14:03:15.000Z</time>
</trkpt>
<trkpt lat="42.651134" lon="-1.193335">
<ele>1894</ele>
<time>2013-07-13T14:03:16.000Z</time>
</trkpt>
<trkpt lat="42.651041" lon="-1.19335">
<ele>1893</ele>
<time>2013-07-13T14:03:17.000Z</time>
</trkpt>
<trkpt lat="42.650939" lon="-1.193361">
<ele>1893</ele>
<time>2013-07-13T14:03:18.000Z</time>
</trkpt>
<trkpt lat="42.65084" lon="-1.193324">
<ele>1893</ele>
<time>2013-07-13T14:03:19.000Z</time>
</trkpt>
<trkpt lat="42.650743" lon="-1.193275">
<ele>1894</ele>
<time>2013-07-13T14:03:20.000Z</time>
</trkpt>
<trkpt lat="42.650659" lon="-1.193194">
<ele>1893</ele>
<time>2013-07-13T14:03:21.000Z</time>
</trkpt>
<trkpt lat="42.65058" lon="-1.193112">
<ele>1894</ele>
<time>2013-07-13T14:03:22.000Z</time>
</trkpt>
<trkpt lat="42.650497" lon="-1.193026">
<ele>1895</ele>
<time>2013-07-13T14:03:23.000Z</time>
</trkpt>
<trkpt lat="42.650418" lon="-1.19294">
<ele>1896</ele>
<time>2013-07-13T14:03:24.000Z</time>
</trkpt>
<trkpt lat="42.650345" lon="-1.192852">
<ele>1898</ele>
<time>2013-07-13T14:03:25.000Z</time>
</trkpt>
<trkpt lat="42.650274" lon="-1.192759">
<ele>1899</ele>
<time>2013-07-13T14:03:26.000Z</time>
</trkpt>
<trkpt lat="42.650206" lon="-1.19266">
<ele>1900</ele>
<time>2013-07-13T14:03:27.000Z</time>
</trkpt>
<trkpt lat="42.650142" lon="-1.192551">
<ele>1901</ele>
<time>2013-07-13T14:03:28.000Z</time>
</trkpt>
<trkpt lat="42.650088" lon="-1.192436">
<ele>1903</ele>
<time>2013-07-13T14:03:29.000Z</time>
</trkpt>
<trkpt lat="42.65005" lon="-1.192299">
<ele>1905</ele>
<time>2013-07-13T14:03:30.000Z</time>
</trkpt>
<trkpt lat="42.650013" lon="-1.192165">
<ele>1907</ele>
<time>2013-07-13T14:03:31.000Z</time>
</trkpt>
<trkpt lat="42.649974" lon="-1.192032">
<ele>1908</ele>
<time>2013-07-13T14:03:32.000Z</time>
</trkpt>
<trkpt lat="42.649932" lon="-1.19191">
<ele>1909</ele>
<time>2013-07-13T14:03:33.000Z</time>
</trkpt>
<trkpt lat="42.649883" lon="-1.191787">
<ele>1910</ele>
<time>2013-07-13T14:03:34.000Z</time>
</trkpt>
<trkpt lat="42.649829" lon="-1.191663">
<ele>1911</ele>
<time>2013-07-13T14:03:35.000Z</time>
</trkpt>
<trkpt lat="42.64977" lon="-1.19155">
<ele>1912</ele>
<time>2013-07-13T14:03:36.000Z</time>
</trkpt>
<trkpt lat="42.649687" lon="-1.19148">
<ele>1914</ele>
<time>2013-07-13T14:03:37.000Z</time>
</trkpt>
<trkpt lat="42.649603" lon="-1.191443">
<ele>1916</ele>
<time>2013-07-13T14:03:38.000Z</time>
</trkpt>
<trkpt lat="42.649527" lon="-1.191417">
<ele>1919</ele>
<time>2013-07-13T14:03:39.000Z</time>
</trkpt>
<trkpt lat="42.649459" lon="-1.1914">
<ele>1923</ele>
<time>2013-07-13T14:03:40.000Z</time>
</trkpt>
<trkpt lat="42.649415" lon="-1.191387">
<ele>1924</ele>
<time>2013-07-13T14:03:41.000Z</time>
</trkpt>
<trkpt lat="42.649374" lon="-1.191395">
<ele>1927</ele>
<time>2013-07-13T14:03:42.000Z</time>
</trkpt>
<trkpt lat="42.649332" lon="-1.191425">
<ele>1930</ele>
<time>2013-07-13T14:03:43.000Z</time>
</trkpt>
<trkpt lat="42.649295" lon="-1.191469">
<ele>1930</ele>
<time>2013-07-13T14:03:44.000Z</time>
</trkpt>
<trkpt lat="42.649271" lon="-1.191515">
<ele>1933</ele>
<time>2013-07-13T14:03:45.000Z</time>
</trkpt>
<trkpt lat="42.649255" lon="-1.191553">
<ele>1935</ele>
<time>2013-07-13T14:03:46.000Z</time>
</trkpt>
<trkpt lat="42.649257" lon="-1.191586">
<ele>1938</ele>
<time>2013-07-13T14:03:47.000Z</time>
</trkpt>
<trkpt lat="42.64927" lon="-1.191613">
<ele>1940</ele>
<time>2013-07-13T14:03:48.000Z</time>
</trkpt>
<trkpt lat="42.649285" lon="-1.191648">
<ele>1943</ele>
<time>2013-07-13T14:03:49.000Z</time>
</trkpt>
<trkpt lat="42.649303" lon="-1.191694">
<ele>1946</ele>
<time>2013-07-13T14:03:50.000Z</time>
</trkpt>
<trkpt lat="42.649328" lon="-1.191744">
<ele>1949</ele>
<time>2013-07-13T14:03:51.000Z</time>
</trkpt>
<trkpt lat="42.649359" lon="-1.191771">
<ele>1953</ele>
<time>2013-07-13T14:03:52.000Z</time>
</trkpt>
<trkpt lat="42.649393" lon="-1.191782">
<ele>1956</ele>
<time>2013-07-13T14:03:53.000Z</time>
</trkpt>
<trkpt lat="42.649422" lon="-1.19179">
<ele>1959</ele>
<time>2013-07-13T14:03:54.000Z</time>
</trkpt>
<trkpt lat="42.649451" lon="-1.191789">
<ele>1961</ele>
<time>2013-07-13T14:03:55.000Z</time>
</trkpt>
<trkpt lat="42.649493" lon="-1.191787">
<ele>1964</ele>
<time>2013-07-13T14:03:56.000Z</time>
</trkpt>
<trkpt lat="42.649548" lon="-1.19178">
<ele>1965</ele>
<time>2013-07-13T14:03:57.000Z</time>
</trkpt>
<trkpt lat="42.64961" lon="-1.191748">
<ele>1969</ele>
<time>2013-07-13T14:03:58.000Z</time>
</trkpt>
<trkpt lat="42.649664" lon="-1.191711">
<ele>1973</ele>
<time>2013-07-13T14:03:59.000Z</time>
</trkpt>
<trkpt lat="42.649705" lon="-1.191647">
<ele>1975</ele>
<time>2013-07-13T14:04:00.000Z</time>
</trkpt>
<trkpt lat="42.649746" lon="-1.191587">
<ele>1976</ele>
<time>2013-07-13T14:04:01.000Z</time>
</trkpt>
<trkpt lat="42.649781" lon="-1.191531">
<ele>1978</ele>
<time>2013-07-13T14:04:02.000Z</time>
</trkpt>
<trkpt lat="42.649809" lon="-1.19147">
<ele>1982</ele>
<time>2013-07-13T14:04:03.000Z</time>
</trkpt>
<trkpt lat="42.649836" lon="-1.191401">
<ele>1982</ele>
<time>2013-07-13T14:04:04.000Z</time>
</trkpt>
<trkpt lat="42.649854" lon="-1.191301">
<ele>1983</ele>
<time>2013-07-13T14:04:05.000Z</time>
</trkpt>
<trkpt lat="42.649871" lon="-1.191187">
<ele>1984</ele>
<time>2013-07-13T14:04:06.000Z</time>
</trkpt>
<trkpt lat="42.649869" lon="-1.191069">
<ele>1985</ele>
<time>2013-07-13T14:04:07.000Z</time>
</trkpt>
<trkpt lat="42.649861" lon="-1.190951">
<ele>1987</ele>
<time>2013-07-13T14:04:08.000Z</time>
</trkpt>
<trkpt lat="42.649851" lon="-1.190815">
<ele>1990</ele>
<time>2013-07-13T14:04:09.000Z</time>
</trkpt>
<trkpt lat="42.649833" lon="-1.190672">
<ele>1992</ele>
<time>2013-07-13T14:04:10.000Z</time>
</trkpt>
<trkpt lat="42.649792" lon="-1.190529">
<ele>1994</ele>
<time>2013-07-13T14:04:11.000Z</time>
</trkpt>
<trkpt lat="42.649745" lon="-1.190389">
<ele>1995</ele>
<time>2013-07-13T14:04:12.000Z</time>
</trkpt>
<trkpt lat="42.649694" lon="-1.190255">
<ele>1997</ele>
<time>2013-07-13T14:04:13.000Z</time>
</trkpt>
<trkpt lat="42.649637" lon="-1.190122">
<ele>1999</ele>
<time>2013-07-13T14:04:14.000Z</time>
</trkpt>
<trkpt lat="42.649573" lon="-1.189994">
<ele>2000</ele>
<time>2013-07-13T14:04:15.000Z</time>
</trkpt>
<trkpt lat="42.649502" lon="-1.189878">
<ele>2001</ele>
<time>2013-07-13T14:04:16.000Z</time>
</trkpt>
<trkpt lat="42.649415" lon="-1.189789">
<ele>2003</ele>
<time>2013-07-13T14:04:17.000Z</time>
</trkpt>
<trkpt lat="42.649333" lon="-1.189711">
<ele>2004</ele>
<time>2013-07-13T14:04:18.000Z</time>
</trkpt>
<trkpt lat="42.649252" lon="-1.189641">
<ele>2006</ele>
<time>2013-07-13T14:04:19.000Z</time>
</trkpt>
<trkpt lat="42.649162" lon="-1.189575">
<ele>2007</ele>
<time>2013-07-13T14:04:20.000Z</time>
</trkpt>
<trkpt lat="42.649068" lon="-1.189512">
<ele>2008</ele>
<time>2013-07-13T14:04:21.000Z</time>
</trkpt>
<trkpt lat="42.648976" lon="-1.189455">
<ele>2010</ele>
<time>2013-07-13T14:04:22.000Z</time>
</trkpt>
<trkpt lat="42.648887" lon="-1.189406">
<ele>2012</ele>
<time>2013-07-13T14:04:23.000Z</time>
</trkpt>
<trkpt lat="42.648801" lon="-1.189364">
<ele>2015</ele>
<time>2013-07-13T14:04:24.000Z</time>
</trkpt>
<trkpt lat="42.648715" lon="-1.189327">
<ele>2017</ele>
<time>2013-07-13T14:04:25.000Z</time>
</trkpt>
<trkpt lat="42.648626" lon="-1.189287">
<ele>2020</ele>
<time>2013-07-13T14:04:26.000Z</time>
</trkpt>
<trkpt lat="42.648538" lon="-1.189246">
<ele>2022</ele>
<time>2013-07-13T14:04:27.000Z</time>
</trkpt>
<trkpt lat="42.648454" lon="-1.189204">
<ele>2023</ele>
<time>2013-07-13T14:04:28.000Z</time>
</trkpt>
<trkpt lat="42.648371" lon="-1.189161">
<ele>2026</ele>
<time>2013-07-13T14:04:29.000Z</time>
</trkpt>
<trkpt lat="42.64829" lon="-1.189123">
<ele>2028</ele>
<time>2013-07-13T14:04:30.000Z</time>
</trkpt>
<trkpt lat="42.648214" lon="-1.189111">
<ele>2031</ele>
<time>2013-07-13T14:04:31.000Z</time>
</trkpt>
<trkpt lat="42.648145" lon="-1.189102">
<ele>2033</ele>
<time>2013-07-13T14:04:32.000Z</time>
</trkpt>
<trkpt lat="42.648081" lon="-1.189098">
<ele>2032</ele>
<time>2013-07-13T14:04:33.000Z</time>
</trkpt>
<trkpt lat="42.648018" lon="-1.189099">
<ele>2033</ele>
<time>2013-07-13T14:04:34.000Z</time>
</trkpt>
<trkpt lat="42.647957" lon="-1.189101">
<ele>2037</ele>
<time>2013-07-13T14:04:35.000Z</time>
</trkpt>
<trkpt lat="42.647897" lon="-1.189119">
<ele>2041</ele>
<time>2013-07-13T14:04:36.000Z</time>
</trkpt>
<trkpt lat="42.647839" lon="-1.189138">
<ele>2046</ele>
<time>2013-07-13T14:04:37.000Z</time>
</trkpt>
<trkpt lat="42.647792" lon="-1.189171">
<ele>2049</ele>
<time>2013-07-13T14:04:38.000Z</time>
</trkpt>
<trkpt lat="42.647763" lon="-1.189214">
<ele>2050</ele>
<time>2013-07-13T14:04:39.000Z</time>
</trkpt>
<trkpt lat="42.647748" lon="-1.189271">
<ele>2052</ele>
<time>2013-07-13T14:04:40.000Z</time>
</trkpt>
<trkpt lat="42.647746" lon="-1.189336">
<ele>2055</ele>
<time>2013-07-13T14:04:41.000Z</time>
</trkpt>
<trkpt lat="42.647744" lon="-1.189402">
<ele>2058</ele>
<time>2013-07-13T14:04:42.000Z</time>
</trkpt>
<trkpt lat="42.647745" lon="-1.189459">
<ele>2061</ele>
<time>2013-07-13T14:04:43.000Z</time>
</trkpt>
<trkpt lat="42.647748" lon="-1.189513">
<ele>2064</ele>
<time>2013-07-13T14:04:44.000Z</time>
</trkpt>
<trkpt lat="42.647753" lon="-1.18957">
<ele>2067</ele>
<time>2013-07-13T14:04:45.000Z</time>
</trkpt>
<trkpt lat="42.64776" lon="-1.189629">
<ele>2069</ele>
<time>2013-07-13T14:04:46.000Z</time>
</trkpt>
<trkpt lat="42.647766" lon="-1.189693">
<ele>2072</ele>
<time>2013-07-13T14:04:47.000Z</time>
</trkpt>
<trkpt lat="42.647778" lon="-1.189762">
<ele>2075</ele>
<time>2013-07-13T14:04:48.000Z</time>
</trkpt>
<trkpt lat="42.647814" lon="-1.18981">
<ele>2078</ele>
<time>2013-07-13T14:04:49.000Z</time>
</trkpt>
<trkpt lat="42.647864" lon="-1.189839">
<ele>2081</ele>
<time>2013-07-13T14:04:50.000Z</time>
</trkpt>
<trkpt lat="42.647918" lon="-1.189866">
<ele>2084</ele>
<time>2013-07-13T14:04:51.000Z</time>
</trkpt>
<trkpt lat="42.647961" lon="-1.189889">
<ele>2086</ele>
<time>2013-07-13T14:04:52.000Z</time>
</trkpt>
<trkpt lat="42.648007" lon="-1.189912">
<ele>2089</ele>
<time>2013-07-13T14:04:53.000Z</time>
</trkpt>
<trkpt lat="42.648059" lon="-1.189918">
<ele>2093</ele>
<time>2013-07-13T14:04:54.000Z</time>
</trkpt>
<trkpt lat="42.64813" lon="-1.18992">
<ele>2095</ele>
<time>2013-07-13T14:04:55.000Z</time>
</trkpt>
<trkpt lat="42.648208" lon="-1.189922">
<ele>2097</ele>
<time>2013-07-13T14:04:56.000Z</time>
</trkpt>
<trkpt lat="42.648287" lon="-1.189926">
<ele>2098</ele>
<time>2013-07-13T14:04:57.000Z</time>
</trkpt>
<trkpt lat="42.648363" lon="-1.189924">
<ele>2100</ele>
<time>2013-07-13T14:04:58.000Z</time>
</trkpt>
<trkpt lat="42.648425" lon="-1.189893">
<ele>2105</ele>
<time>2013-07-13T14:04:59.000Z</time>
</trkpt>
<trkpt lat="42.648471" lon="-1.189841">
<ele>2110</ele>
<time>2013-07-13T14:05:00.000Z</time>
</trkpt>
<trkpt lat="42.648495" lon="-1.189775">
<ele>2113</ele>
<time>2013-07-13T14:05:01.000Z</time>
</trkpt>
<trkpt lat="42.648525" lon="-1.189702">
<ele>2117</ele>
<time>2013-07-13T14:05:02.000Z</time>
</trkpt>
<trkpt lat="42.648561" lon="-1.189621">
<ele>2123</ele>
<time>2013-07-13T14:05:03.000Z</time>
</trkpt>
<trkpt lat="42.648568" lon="-1.189527">
<ele>2126</ele>
<time>2013-07-13T14:05:04.000Z</time>
</trkpt>
<trkpt lat="42.648571" lon="-1.189434">
<ele>2128</ele>
<time>2013-07-13T14:05:05.000Z</time>
</trkpt>
<trkpt lat="42.648571" lon="-1.189335">
<ele>2130</ele>
<time>2013-07-13T14:05:06.000Z</time>
</trkpt>
<trkpt lat="42.648551" lon="-1.189232">
<ele>2133</ele>
<time>2013-07-13T14:05:07.000Z</time>
</trkpt>
<trkpt lat="42.648524" lon="-1.189101">
<ele>2135</ele>
<time>2013-07-13T14:05:08.000Z</time>
</trkpt>
<trkpt lat="42.648464" lon="-1.18897">
<ele>2137</ele>
<time>2013-07-13T14:05:09.000Z</time>
</trkpt>
<trkpt lat="42.648399" lon="-1.188838">
<ele>2141</ele>
<time>2013-07-13T14:05:10.000Z</time>
</trkpt>
<trkpt lat="42.648317" lon="-1.188735">
<ele>2146</ele>
<time>2013-07-13T14:05:11.000Z</time>
</trkpt>
<trkpt lat="42.648243" lon="-1.188658">
<ele>2149</ele>
<time>2013-07-13T14:05:12.000Z</time>
</trkpt>
<trkpt lat="42.648166" lon="-1.188598">
<ele>2152</ele>
<time>2013-07-13T14:05:13.000Z</time>
</trkpt>
<trkpt lat="42.648088" lon="-1.188551">
<ele>2155</ele>
<time>2013-07-13T14:05:14.000Z</time>
</trkpt>
<trkpt lat="42.648005" lon="-1.188529">
<ele>2158</ele>
<time>2013-07-13T14:05:15.000Z</time>
</trkpt>
<trkpt lat="42.647924" lon="-1.188514">
<ele>2161</ele>
<time>2013-07-13T14:05:16.000Z</time>
</trkpt>
<trkpt lat="42.647853" lon="-1.188521">
<ele>2164</ele>
<time>2013-07-13T14:05:17.000Z</time>
</trkpt>
<trkpt lat="42.647788" lon="-1.188533">
<ele>2166</ele>
<time>2013-07-13T14:05:18.000Z</time>
</trkpt>
<trkpt lat="42.647721" lon="-1.188546">
<ele>2167</ele>
<time>2013-07-13T14:05:19.000Z</time>
</trkpt>
<trkpt lat="42.64765" lon="-1.188561">
<ele>2171</ele>
<time>2013-07-13T14:05:20.000Z</time>
</trkpt>
<trkpt lat="42.647575" lon="-1.188582">
<ele>2171</ele>
<time>2013-07-13T14:05:21.000Z</time>
</trkpt>
<trkpt lat="42.647513" lon="-1.188625">
<ele>2173</ele>
<time>2013-07-13T14:05:22.000Z</time>
</trkpt>
<trkpt lat="42.647461" lon="-1.188661">
<ele>2177</ele>
<time>2013-07-13T14:05:23.000Z</time>
</trkpt>
<trkpt lat="42.647419" lon="-1.188688">
<ele>2181</ele>
<time>2013-07-13T14:05:24.000Z</time>
</trkpt>
<trkpt lat="42.647378" lon="-1.188714">
<ele>2186</ele>
<time>2013-07-13T14:05:25.000Z</time>
</trkpt>
<trkpt lat="42.647327" lon="-1.188752">
<ele>2189</ele>
<time>2013-07-13T14:05:26.000Z</time>
</trkpt>
<trkpt lat="42.647288" lon="-1.188821">
<ele>2192</ele>
<time>2013-07-13T14:05:27.000Z</time>
</trkpt>
<trkpt lat="42.647269" lon="-1.188892">
<ele>2193</ele>
<time>2013-07-13T14:05:28.000Z</time>
</trkpt>
<trkpt lat="42.647276" lon="-1.188966">
<ele>2194</ele>
<time>2013-07-13T14:05:29.000Z</time>
</trkpt>
<trkpt lat="42.647286" lon="-1.189047">
<ele>2195</ele>
<time>2013-07-13T14:05:30.000Z</time>
</trkpt>
<trkpt lat="42.647294" lon="-1.18913">
<ele>2196</ele>
<time>2013-07-13T14:05:31.000Z</time>
</trkpt>
<trkpt lat="42.647298" lon="-1.189222">
<ele>2197</ele>
<time>2013-07-13T14:05:32.000Z</time>
</trkpt>
<trkpt lat="42.647302" lon="-1.189322">
<ele>2198</ele>
<time>2013-07-13T14:05:33.000Z</time>
</trkpt>
<trkpt lat="42.647325" lon="-1.18943">
<ele>2200</ele>
<time>2013-07-13T14:05:34.000Z</time>
</trkpt>
<trkpt lat="42.64737" lon="-1.189525">
<ele>2201</ele>
<time>2013-07-13T14:05:35.000Z</time>
</trkpt>
<trkpt lat="42.647414" lon="-1.189606">
<ele>2203</ele>
<time>2013-07-13T14:05:36.000Z</time>
</trkpt>
<trkpt lat="42.647463" lon="-1.189658">
<ele>2205</ele>
<time>2013-07-13T14:05:37.000Z</time>
</trkpt>
<trkpt lat="42.647506" lon="-1.189704">
<ele>2207</ele>
<time>2013-07-13T14:05:38.000Z</time>
</trkpt>
<trkpt lat="42.647547" lon="-1.189744">
<ele>2208</ele>
<time>2013-07-13T14:05:39.000Z</time>
</trkpt>
<trkpt lat="42.647588" lon="-1.189776">
<ele>2210</ele>
<time>2013-07-13T14:05:40.000Z</time>
</trkpt>
<trkpt lat="42.647639" lon="-1.189796">
<ele>2210</ele>
<time>2013-07-13T14:05:41.000Z</time>
</trkpt>
<trkpt lat="42.647693" lon="-1.189813">
<ele>2211</ele>
<time>2013-07-13T14:05:42.000Z</time>
</trkpt>
<trkpt lat="42.647754" lon="-1.189829">
<ele>2213</ele>
<time>2013-07-13T14:05:43.000Z</time>
</trkpt>
<trkpt lat="42.647826" lon="-1.189842">
<ele>2212</ele>
<time>2013-07-13T14:05:44.000Z</time>
</trkpt>
<trkpt lat="42.647903" lon="-1.189852">
<ele>2213</ele>
<time>2013-07-13T14:05:45.000Z</time>
</trkpt>
<trkpt lat="42.64798" lon="-1.189854">
<ele>2213</ele>
<time>2013-07-13T14:05:46.000Z</time>
</trkpt>
<trkpt lat="42.648044" lon="-1.189853">
<ele>2215</ele>
<time>2013-07-13T14:05:47.000Z</time>
</trkpt>
<trkpt lat="42.648099" lon="-1.189827">
<ele>2217</ele>
<time>2013-07-13T14:05:48.000Z</time>
</trkpt>
<trkpt lat="42.648144" lon="-1.189809">
<ele>2218</ele>
<time>2013-07-13T14:05:49.000Z</time>
</trkpt>
<trkpt lat="42.648192" lon="-1.189785">
<ele>2218</ele>
<time>2013-07-13T14:05:50.000Z</time>
</trkpt>
<trkpt lat="42.648227" lon="-1.189737">
<ele>2222</ele>
<time>2013-07-13T14:05:51.000Z</time>
</trkpt>
<trkpt lat="42.64827" lon="-1.18968">
<ele>2223</ele>
<time>2013-07-13T14:05:52.000Z</time>
</trkpt>
<trkpt lat="42.648302" lon="-1.189628">
<ele>2223</ele>
<time>2013-07-13T14:05:53.000Z</time>
</trkpt>
<trkpt lat="42.648329" lon="-1.189578">
<ele>2224</ele>
<time>2013-07-13T14:05:54.000Z</time>
</trkpt>
<trkpt lat="42.648342" lon="-1.189509">
<ele>2224</ele>
<time>2013-07-13T14:05:55.000Z</time>
</trkpt>
<trkpt lat="42.648357" lon="-1.189417">
<ele>2224</ele>
<time>2013-07-13T14:05:56.000Z</time>
</trkpt>
<trkpt lat="42.648377" lon="-1.189292">
<ele>2223</ele>
<time>2013-07-13T14:05:57.000Z</time>
</trkpt>
<trkpt lat="42.648363" lon="-1.189159">
<ele>2224</ele>
<time>2013-07-13T14:05:58.000Z</time>
</trkpt>
<trkpt lat="42.64834" lon="-1.189042">
<ele>2223</ele>
<time>2013-07-13T14:05:59.000Z</time>
</trkpt>
<trkpt lat="42.648282" lon="-1.188931">
<ele>2223</ele>
<time>2013-07-13T14:06:00.000Z</time>
</trkpt>
<trkpt lat="42.648221" lon="-1.188828">
<ele>2223</ele>
<time>2013-07-13T14:06:01.000Z</time>
</trkpt>
<trkpt lat="42.648133" lon="-1.188749">
<ele>2222</ele>
<time>2013-07-13T14:06:02.000Z</time>
</trkpt>
<trkpt lat="42.64803" lon="-1.188678">
<ele>2222</ele>
<time>2013-07-13T14:06:03.000Z</time>
</trkpt>
<trkpt lat="42.647918" lon="-1.188652">
<ele>2222</ele>
<time>2013-07-13T14:06:04.000Z</time>
</trkpt>
<trkpt lat="42.647802" lon="-1.188664">
<ele>2222</ele>
<time>2013-07-13T14:06:05.000Z</time>
</trkpt>
<trkpt lat="42.647689" lon="-1.188689">
<ele>2223</ele>
<time>2013-07-13T14:06:06.000Z</time>
</trkpt>
<trkpt lat="42.647593" lon="-1.188721">
<ele>2225</ele>
<time>2013-07-13T14:06:07.000Z</time>
</trkpt>
<trkpt lat="42.647516" lon="-1.188748">
<ele>2225</ele>
<time>2013-07-13T14:06:08.000Z</time>
</trkpt>
<trkpt lat="42.647446" lon="-1.188763">
<ele>2227</ele>
<time>2013-07-13T14:06:09.000Z</time>
</trkpt>
<trkpt lat="42.647365" lon="-1.18878">
<ele>2227</ele>
<time>2013-07-13T14:06:10.000Z</time>
</trkpt>
<trkpt lat="42.647269" lon="-1.188798">
<ele>2228</ele>
<time>2013-07-13T14:06:11.000Z</time>
</trkpt>
<trkpt lat="42.647169" lon="-1.18882">
<ele>2228</ele>
<time>2013-07-13T14:06:12.000Z</time>
</trkpt>
<trkpt lat="42.647071" lon="-1.188843">
<ele>2228</ele>
<time>2013-07-13T14:06:13.000Z</time>
</trkpt>
<trkpt lat="42.646985" lon="-1.188864">
<ele>2230</ele>
<time>2013-07-13T14:06:14.000Z</time>
</trkpt>
<trkpt lat="42.646908" lon="-1.188885">
<ele>2231</ele>
<time>2013-07-13T14:06:15.000Z</time>
</trkpt>
<trkpt lat="42.646833" lon="-1.188911">
<ele>2232</ele>
<time>2013-07-13T14:06:16.000Z</time>
</trkpt>
<trkpt lat="42.646757" lon="-1.188947">
<ele>2233</ele>
<time>2013-07-13T14:06:17.000Z</time>
</trkpt>
<trkpt lat="42.646681" lon="-1.188992">
<ele>2234</ele>
<time>2013-07-13T14:06:18.000Z</time>
</trkpt>
<trkpt lat="42.64661" lon="-1.18904">
<ele>2235</ele>
<time>2013-07-13T14:06:19.000Z</time>
</trkpt>
<trkpt lat="42.646545" lon="-1.189088">
<ele>2235</ele>
<time>2013-07-13T14:06:20.000Z</time>
</trkpt>
<trkpt lat="42.64648" lon="-1.189137">
<ele>2235</ele>
<time>2013-07-13T14:06:21.000Z</time>
</trkpt>
<trkpt lat="42.646415" lon="-1.189186">
<ele>2235</ele>
<time>2013-07-13T14:06:22.000Z</time>
</trkpt>
<trkpt lat="42.646339" lon="-1.189236">
<ele>2234</ele>
<time>2013-07-13T14:06:23.000Z</time>
</trkpt>
<trkpt lat="42.646247" lon="-1.189286">
<ele>2233</ele>
<time>2013-07-13T14:06:24.000Z</time>
</trkpt>
<trkpt lat="42.646157" lon="-1.189335">
<ele>2232</ele>
<time>2013-07-13T14:06:25.000Z</time>
</trkpt>
<trkpt lat="42.646076" lon="-1.189383">
<ele>2232</ele>
<time>2013-07-13T14:06:26.000Z</time>
</trkpt>
<trkpt lat="42.646003" lon="-1.189433">
<ele>2231</ele>
<time>2013-07-13T14:06:27.000Z</time>
</trkpt>
<trkpt lat="42.645926" lon="-1.18949">
<ele>2230</ele>
<time>2013-07-13T14:06:28.000Z</time>
</trkpt>
<trkpt lat="42.645836" lon="-1.189556">
<ele>2231</ele>
<time>2013-07-13T14:06:29.000Z</time>
</trkpt>
<trkpt lat="42.645735" lon="-1.189629">
<ele>2232</ele>
<time>2013-07-13T14:06:30.000Z</time>
</trkpt>
<trkpt lat="42.645637" lon="-1.189701">
<ele>2232</ele>
<time>2013-07-13T14:06:31.000Z</time>
</trkpt>
<trkpt lat="42.645547" lon="-1.189766">
<ele>2232</ele>
<time>2013-07-13T14:06:32.000Z</time>
</trkpt>
<trkpt lat="42.645463" lon="-1.189826">
<ele>2235</ele>
<time>2013-07-13T14:06:33.000Z</time>
</trkpt>
<trkpt lat="42.645373" lon="-1.189879">
<ele>2235</ele>
<time>2013-07-13T14:06:34.000Z</time>
</trkpt>
<trkpt lat="42.645281" lon="-1.189927">
<ele>2235</ele>
<time>2013-07-13T14:06:35.000Z</time>
</trkpt>
<trkpt lat="42.645189" lon="-1.189974">
<ele>2237</ele>
<time>2013-07-13T14:06:36.000Z</time>
</trkpt>
<trkpt lat="42.645095" lon="-1.190024">
<ele>2237</ele>
<time>2013-07-13T14:06:37.000Z</time>
</trkpt>
<trkpt lat="42.644998" lon="-1.190084">
<ele>2236</ele>
<time>2013-07-13T14:06:38.000Z</time>
</trkpt>
<trkpt lat="42.644901" lon="-1.190149">
<ele>2237</ele>
<time>2013-07-13T14:06:39.000Z</time>
</trkpt>
<trkpt lat="42.644808" lon="-1.19021">
<ele>2237</ele>
<time>2013-07-13T14:06:40.000Z</time>
</trkpt>
<trkpt lat="42.64472" lon="-1.190258">
<ele>2238</ele>
<time>2013-07-13T14:06:41.000Z</time>
</trkpt>
<trkpt lat="42.644641" lon="-1.190296">
<ele>2240</ele>
<time>2013-07-13T14:06:42.000Z</time>
</trkpt>
<trkpt lat="42.644563" lon="-1.19033">
<ele>2241</ele>
<time>2013-07-13T14:06:43.000Z</time>
</trkpt>
<trkpt lat="42.64448" lon="-1.190367">
<ele>2241</ele>
<time>2013-07-13T14:06:44.000Z</time>
</trkpt>
<trkpt lat="42.644389" lon="-1.190413">
<ele>2242</ele>
<time>2013-07-13T14:06:45.000Z</time>
</trkpt>
<trkpt lat="42.644298" lon="-1.190458">
<ele>2242</ele>
<time>2013-07-13T14:06:46.000Z</time>
</trkpt>
<trkpt lat="42.644221" lon="-1.190493">
<ele>2244</ele>
<time>2013-07-13T14:06:47.000Z</time>
</trkpt>
<trkpt lat="42.644161" lon="-1.19052">
<ele>2246</ele>
<time>2013-07-13T14:06:48.000Z</time>
</trkpt>
<trkpt lat="42.644101" lon="-1.190545">
<ele>2248</ele>
<time>2013-07-13T14:06:49.000Z</time>
</trkpt>
<trkpt lat="42.644031" lon="-1.190573">
<ele>2249</ele>
<time>2013-07-13T14:06:50.000Z</time>
</trkpt>
<trkpt lat="42.643949" lon="-1.190613">
<ele>2251</ele>
<time>2013-07-13T14:06:51.000Z</time>
</trkpt>
<trkpt lat="42.643856" lon="-1.190664">
<ele>2251</ele>
<time>2013-07-13T14:06:52.000Z</time>
</trkpt>
<trkpt lat="42.64377" lon="-1.190711">
<ele>2252</ele>
<time>2013-07-13T14:06:53.000Z</time>
</trkpt>
<trkpt lat="42.643695" lon="-1.190743">
<ele>2254</ele>
<time>2013-07-13T14:06:54.000Z</time>
</trkpt>
<trkpt lat="42.643633" lon="-1.190764">
<ele>2255</ele>
<time>2013-07-13T14:06:55.000Z</time>
</trkpt>
<trkpt lat="42.64357" lon="-1.19078">
<ele>2256</ele>
<time>2013-07-13T14:06:56.000Z</time>
</trkpt>
<trkpt lat="42.643502" lon="-1.190799">
<ele>2257</ele>
<time>2013-07-13T14:06:57.000Z</time>
</trkpt>
<trkpt lat="42.643417" lon="-1.190823">
<ele>2258</ele>
<time>2013-07-13T14:06:58.000Z</time>
</trkpt>
<trkpt lat="42.643325" lon="-1.190853">
<ele>2262</ele>
<time>2013-07-13T14:06:59.000Z</time>
</trkpt>
<trkpt lat="42.643233" lon="-1.190883">
<ele>2265</ele>
<time>2013-07-13T14:07:00.000Z</time>
</trkpt>
<trkpt lat="42.643151" lon="-1.190909">
<ele>2265</ele>
<time>2013-07-13T14:07:01.000Z</time>
</trkpt>
<trkpt lat="42.643074" lon="-1.190933">
<ele>2268</ele>
<time>2013-07-13T14:07:02.000Z</time>
</trkpt>
<trkpt lat="42.643006" lon="-1.190955">
<ele>2270</ele>
<time>2013-07-13T14:07:03.000Z</time>
</trkpt>
<trkpt lat="42.642943" lon="-1.190975">
<ele>2272</ele>
<time>2013-07-13T14:07:04.000Z</time>
</trkpt>
<trkpt lat="42.642884" lon="-1.191">
<ele>2274</ele>
<time>2013-07-13T14:07:05.000Z</time>
</trkpt>
<trkpt lat="42.642835" lon="-1.191047">
<ele>2275</ele>
<time>2013-07-13T14:07:06.000Z</time>
</trkpt>
<trkpt lat="42.642784" lon="-1.1911">
<ele>2276</ele>
<time>2013-07-13T14:07:07.000Z</time>
</trkpt>
<trkpt lat="42.642726" lon="-1.191155">
<ele>2277</ele>
<time>2013-07-13T14:07:08.000Z</time>
</trkpt>
<trkpt lat="42.642636" lon="-1.19117">
<ele>2278</ele>
<time>2013-07-13T14:07:09.000Z</time>
</trkpt>
<trkpt lat="42.642534" lon="-1.191142">
<ele>2279</ele>
<time>2013-07-13T14:07:10.000Z</time>
</trkpt>
<trkpt lat="42.642433" lon="-1.191105">
<ele>2281</ele>
<time>2013-07-13T14:07:11.000Z</time>
</trkpt>
<trkpt lat="42.642353" lon="-1.191039">
<ele>2283</ele>
<time>2013-07-13T14:07:12.000Z</time>
</trkpt>
<trkpt lat="42.642278" lon="-1.190973">
<ele>2285</ele>
<time>2013-07-13T14:07:13.000Z</time>
</trkpt>
<trkpt lat="42.642206" lon="-1.190897">
<ele>2286</ele>
<time>2013-07-13T14:07:14.000Z</time>
</trkpt>
<trkpt lat="42.642144" lon="-1.190784">
<ele>2286</ele>
<time>2013-07-13T14:07:15.000Z</time>
</trkpt>
<trkpt lat="42.642074" lon="-1.190649">
<ele>2287</ele>
<time>2013-07-13T14:07:16.000Z</time>
</trkpt>
<trkpt lat="42.642035" lon="-1.190495">
<ele>2287</ele>
<time>2013-07-13T14:07:17.000Z</time>
</trkpt>
<trkpt lat="42.642004" lon="-1.190338">
<ele>2288</ele>
<time>2013-07-13T14:07:18.000Z</time>
</trkpt>
<trkpt lat="42.642021" lon="-1.190185">
<ele>2289</ele>
<time>2013-07-13T14:07:19.000Z</time>
</trkpt>
<trkpt lat="42.642041" lon="-1.190049">
<ele>2292</ele>
<time>2013-07-13T14:07:20.000Z</time>
</trkpt>
<trkpt lat="42.642063" lon="-1.189943">
<ele>2296</ele>
<time>2013-07-13T14:07:21.000Z</time>
</trkpt>
<trkpt lat="42.642098" lon="-1.189865">
<ele>2298</ele>
<time>2013-07-13T14:07:22.000Z</time>
</trkpt>
<trkpt lat="42.642144" lon="-1.189802">
<ele>2299</ele>
<time>2013-07-13T14:07:23.000Z</time>
</trkpt>
<trkpt lat="42.642217" lon="-1.189746">
<ele>2302</ele>
<time>2013-07-13T14:07:24.000Z</time>
</trkpt>
<trkpt lat="42.642294" lon="-1.189736">
<ele>2302</ele>
<time>2013-07-13T14:07:25.000Z</time>
</trkpt>
<trkpt lat="42.642353" lon="-1.189769">
<ele>2302</ele>
<time>2013-07-13T14:07:26.000Z</time>
</trkpt>
<trkpt lat="42.642409" lon="-1.189822">
<ele>2304</ele>
<time>2013-07-13T14:07:27.000Z</time>
</trkpt>
<trkpt lat="42.642447" lon="-1.189881">
<ele>2305</ele>
<time>2013-07-13T14:07:28.000Z</time>
</trkpt>
<trkpt lat="42.642468" lon="-1.189955">
<ele>2306</ele>
<time>2013-07-13T14:07:29.000Z</time>
</trkpt>
<trkpt lat="42.642482" lon="-1.190038">
<ele>2306</ele>
<time>2013-07-13T14:07:30.000Z</time>
</trkpt>
<trkpt lat="42.642491" lon="-1.190116">
<ele>2306</ele>
<time>2013-07-13T14:07:31.000Z</time>
</trkpt>
<trkpt lat="42.642486" lon="-1.190179">
<ele>2306</ele>
<time>2013-07-13T14:07:32.000Z</time>
</trkpt>
<trkpt lat="42.642468" lon="-1.190264">
<ele>2311</ele>
<time>2013-07-13T14:07:33.000Z</time>
</trkpt>
<trkpt lat="42.64243" lon="-1.19034">
<ele>2316</ele>
<time>2013-07-13T14:07:34.000Z</time>
</trkpt>
<trkpt lat="42.642388" lon="-1.190406">
<ele>2318</ele>
<time>2013-07-13T14:07:35.000Z</time>
</trkpt>
<trkpt lat="42.642332" lon="-1.190481">
<ele>2322</ele>
<time>2013-07-13T14:07:36.000Z</time>
</trkpt>
<trkpt lat="42.642256" lon="-1.19054">
<ele>2326</ele>
<time>2013-07-13T14:07:37.000Z</time>
</trkpt>
<trkpt lat="42.642171" lon="-1.190568">
<ele>2327</ele>
<time>2013-07-13T14:07:38.000Z</time>
</trkpt>
<trkpt lat="42.642071" lon="-1.19059">
<ele>2329</ele>
<time>2013-07-13T14:07:39.000Z</time>
</trkpt>
<trkpt lat="42.641955" lon="-1.190578">
<ele>2333</ele>
<time>2013-07-13T14:07:40.000Z</time>
</trkpt>
<trkpt lat="42.64184" lon="-1.190564">
<ele>2335</ele>
<time>2013-07-13T14:07:41.000Z</time>
</trkpt>
<trkpt lat="42.64173" lon="-1.190539">
<ele>2337</ele>
<time>2013-07-13T14:07:42.000Z</time>
</trkpt>
<trkpt lat="42.64163" lon="-1.190477">
<ele>2339</ele>
<time>2013-07-13T14:07:43.000Z</time>
</trkpt>
<trkpt lat="42.641532" lon="-1.190404">
<ele>2339</ele>
<time>2013-07-13T14:07:44.000Z</time>
</trkpt>
<trkpt lat="42.641434" lon="-1.190317">
<ele>2340</ele>
<time>2013-07-13T14:07:45.000Z</time>
</trkpt>
<trkpt lat="42.641339" lon="-1.190217">
<ele>2342</ele>
<time>2013-07-13T14:07:46.000Z</time>
</trkpt>
<trkpt lat="42.64126" lon="-1.190092">
<ele>2344</ele>
<time>2013-07-13T14:07:47.000Z</time>
</trkpt>
<trkpt lat="42.641188" lon="-1.18997">
<ele>2346</ele>
<time>2013-07-13T14:07:48.000Z</time>
</trkpt>
<trkpt lat="42.641125" lon="-1.189841">
<ele>2348</ele>
<time>2013-07-13T14:07:49.000Z</time>
</trkpt>
<trkpt lat="42.641083" lon="-1.189686">
<ele>2349</ele>
<time>2013-07-13T14:07:50.000Z</time>
</trkpt>
<trkpt lat="42.641044" lon="-1.189529">
<ele>2350</ele>
<time>2013-07-13T14:07:51.000Z</time>
</trkpt>
<trkpt lat="42.641046" lon="-1.189369">
<ele>2351</ele>
<time>2013-07-13T14:07:52.000Z</time>
</trkpt>
<trkpt lat="42.641053" lon="-1.189218">
<ele>2352</ele>
<time>2013-07-13T14:07:53.000Z</time>
</trkpt>
<trkpt lat="42.641091" lon="-1.189107">
<ele>2352</ele>
<time>2013-07-13T14:07:54.000Z</time>
</trkpt>
<trkpt lat="42.64115" lon="-1.189025">
<ele>2354</ele>
<time>2013-07-13T14:07:55.000Z</time>
</trkpt>
<trkpt lat="42.641198" lon="-1.18897">
<ele>2355</ele>
<time>2013-07-13T14:07:56.000Z</time>
</trkpt>
<trkpt lat="42.641258" lon="-1.188942">
<ele>2359</ele>
<time>2013-07-13T14:07:57.000Z</time>
</trkpt>
<trkpt lat="42.641321" lon="-1.188919">
<ele>2360</ele>
<time>2013-07-13T14:07:58.000Z</time>
</trkpt>
<trkpt lat="42.641379" lon="-1.18892">
<ele>2361</ele>
<time>2013-07-13T14:07:59.000Z</time>
</trkpt>
<trkpt lat="42.641441" lon="-1.188942">
<ele>2362</ele>
<time>2013-07-13T14:08:00.000Z</time>
</trkpt>
<trkpt lat="42.641494" lon="-1.188993">
<ele>2362</ele>
<time>2013-07-13T14:08:01.000Z</time>
</trkpt>
<trkpt lat="42.641525" lon="-1.189053">
<ele>2362</ele>
<time>2013-07-13T14:08:02.000Z</time>
</trkpt>
<trkpt lat="42.641535" lon="-1.189122">
<ele>2361</ele>
<time>2013-07-13T14:08:03.000Z</time>
</trkpt>
<trkpt lat="42.641525" lon="-1.189196">
<ele>2362</ele>
<time>2013-07-13T14:08:04.000Z</time>
</trkpt>
<trkpt lat="42.641493" lon="-1.18927">
<ele>2363</ele>
<time>2013-07-13T14:08:05.000Z</time>
</trkpt>
<trkpt lat="42.641444" lon="-1.189354">
<ele>2365</ele>
<time>2013-07-13T14:08:06.000Z</time>
</trkpt>
<trkpt lat="42.641357" lon="-1.189434">
<ele>2370</ele>
<time>2013-07-13T14:08:07.000Z</time>
</trkpt>
<trkpt lat="42.641263" lon="-1.189505">
<ele>2375</ele>
<time>2013-07-13T14:08:08.000Z</time>
</trkpt>
<trkpt lat="42.641156" lon="-1.189535">
<ele>2379</ele>
<time>2013-07-13T14:08:09.000Z</time>
</trkpt>
<trkpt lat="42.641044" lon="-1.189557">
<ele>2380</ele>
<time>2013-07-13T14:08:10.000Z</time>
</trkpt>
<trkpt lat="42.640928" lon="-1.189546">
<ele>2383</ele>
<time>2013-07-13T14:08:11.000Z</time>
</trkpt>
<trkpt lat="42.640819" lon="-1.189525">
<ele>2386</ele>
<time>2013-07-13T14:08:12.000Z</time>
</trkpt>
<trkpt lat="42.640714" lon="-1.189494">
<ele>2387</ele>
<time>2013-07-13T14:08:13.000Z</time>
</trkpt>
<trkpt lat="42.640619" lon="-1.189427">
<ele>2389</ele>
<time>2013-07-13T14:08:14.000Z</time>
</trkpt>
<trkpt lat="42.640521" lon="-1.189347">
<ele>2389</ele>
<time>2013-07-13T14:08:15.000Z</time>
</trkpt>
<trkpt lat="42.640438" lon="-1.189226">
<ele>2391</ele>
<time>2013-07-13T14:08:16.000Z</time>
</trkpt>
<trkpt lat="42.640373" lon="-1.18908">
<ele>2393</ele>
<time>2013-07-13T14:08:17.000Z</time>
</trkpt>
<trkpt lat="42.640317" lon="-1.188935">
<ele>2395</ele>
<time>2013-07-13T14:08:18.000Z</time>
</trkpt>
<trkpt lat="42.640272" lon="-1.188791">
<ele>2397</ele>
<time>2013-07-13T14:08:19.000Z</time>
</trkpt>
<trkpt lat="42.640239" lon="-1.188649">
<ele>2397</ele>
<time>2013-07-13T14:08:20.000Z</time>
</trkpt>
<trkpt lat="42.640236" lon="-1.188503">
<ele>2398</ele>
<time>2013-07-13T14:08:21.000Z</time>
</trkpt>
<trkpt lat="42.640255" lon="-1.188364">
<ele>2399</ele>
<time>2013-07-13T14:08:22.000Z</time>
</trkpt>
<trkpt lat="42.640277" lon="-1.188234">
<ele>2399</ele>
<time>2013-07-13T14:08:23.000Z</time>
</trkpt>
<trkpt lat="42.640302" lon="-1.188117">
<ele>2399</ele>
<time>2013-07-13T14:08:24.000Z</time>
</trkpt>
<trkpt lat="42.640335" lon="-1.188031">
<ele>2400</ele>
<time>2013-07-13T14:08:25.000Z</time>
</trkpt>
<trkpt lat="42.640368" lon="-1.187947">
<ele>2400</ele>
<time>2013-07-13T14:08:26.000Z</time>
</trkpt>
<trkpt lat="42.640424" lon="-1.187911">
<ele>2400</ele>
<time>2013-07-13T14:08:27.000Z</time>
</trkpt>
<trkpt lat="42.640479" lon="-1.18789">
<ele>2401</ele>
<time>2013-07-13T14:08:28.000Z</time>
</trkpt>
<trkpt lat="42.640536" lon="-1.187892">
<ele>2401</ele>
<time>2013-07-13T14:08:29.000Z</time>
</trkpt>
<trkpt lat="42.640586" lon="-1.187922">
<ele>2402</ele>
<time>2013-07-13T14:08:30.000Z</time>
</trkpt>
<trkpt lat="42.640622" lon="-1.187997">
<ele>2403</ele>
<time>2013-07-13T14:08:31.000Z</time>
</trkpt>
<trkpt lat="42.640632" lon="-1.188086">
<ele>2403</ele>
<time>2013-07-13T14:08:32.000Z</time>
</trkpt>
<trkpt lat="42.640667" lon="-1.188155">
<ele>2406</ele>
<time>2013-07-13T14:08:33.000Z</time>
</trkpt>
<trkpt lat="42.640661" lon="-1.188222">
<ele>2409</ele>
<time>2013-07-13T14:08:34.000Z</time>
</trkpt>
<trkpt lat="42.640619" lon="-1.188273">
<ele>2415</ele>
<time>2013-07-13T14:08:35.000Z</time>
</trkpt>
<trkpt lat="42.640561" lon="-1.188318">
<ele>2418</ele>
<time>2013-07-13T14:08:36.000Z</time>
</trkpt>
<trkpt lat="42.64048" lon="-1.188364">
<ele>2419</ele>
<time>2013-07-13T14:08:37.000Z</time>
</trkpt>
<trkpt lat="42.640389" lon="-1.188402">
<ele>2423</ele>
<time>2013-07-13T14:08:38.000Z</time>
</trkpt>
<trkpt lat="42.640274" lon="-1.188406">
<ele>2422</ele>
<time>2013-07-13T14:08:39.000Z</time>
</trkpt>
<trkpt lat="42.640155" lon="-1.188402">
<ele>2417</ele>
<time>2013-07-13T14:08:40.000Z</time>
</trkpt>
<trkpt lat="42.640051" lon="-1.188365">
<ele>2418</ele>
<time>2013-07-13T14:08:41.000Z</time>
</trkpt>
<trkpt lat="42.639957" lon="-1.188331">
<ele>2421</ele>
<time>2013-07-13T14:08:42.000Z</time>
</trkpt>
<trkpt lat="42.63986" lon="-1.1883">
<ele>2423</ele>
<time>2013-07-13T14:08:43.000Z</time>
</trkpt>
<trkpt lat="42.639758" lon="-1.188266">
<ele>2425</ele>
<time>2013-07-13T14:08:44.000Z</time>
</trkpt>
<trkpt lat="42.639652" lon="-1.188217">
<ele>2428</ele>
<time>2013-07-13T14:08:45.000Z</time>
</trkpt>
<trkpt lat="42.639544" lon="-1.188161">
<ele>2429</ele>
<time>2013-07-13T14:08:46.000Z</time>
</trkpt>
<trkpt lat="42.639453" lon="-1.188065">
<ele>2431</ele>
<time>2013-07-13T14:08:47.000Z</time>
</trkpt>
<trkpt lat="42.639371" lon="-1.187964">
<ele>2432</ele>
<time>2013-07-13T14:08:48.000Z</time>
</trkpt>
<trkpt lat="42.6393" lon="-1.18786">
<ele>2433</ele>
<time>2013-07-13T14:08:49.000Z</time>
</trkpt>
<trkpt lat="42.639245" lon="-1.187721">
<ele>2434</ele>
<time>2013-07-13T14:08:50.000Z</time>
</trkpt>
<trkpt lat="42.639193" lon="-1.187568">
<ele>2436</ele>
<time>2013-07-13T14:08:51.000Z</time>
</trkpt>
<trkpt lat="42.639169" lon="-1.187398">
<ele>2436</ele>
<time>2013-07-13T14:08:52.000Z</time>
</trkpt>
<trkpt lat="42.639155" lon="-1.187236">
<ele>2437</ele>
<time>2013-07-13T14:08:53.000Z</time>
</trkpt>
<trkpt lat="42.639177" lon="-1.187084">
<ele>2437</ele>
<time>2013-07-13T14:08:54.000Z</time>
</trkpt>
<trkpt lat="42.639201" lon="-1.186942">
<ele>2437</ele>
<time>2013-07-13T14:08:55.000Z</time>
</trkpt>
<trkpt lat="42.639229" lon="-1.186815">
<ele>2437</ele>
<time>2013-07-13T14:08:56.000Z</time>
</trkpt>
<trkpt lat="42.639275" lon="-1.18671">
<ele>2437</ele>
<time>2013-07-13T14:08:57.000Z</time>
</trkpt>
<trkpt lat="42.639324" lon="-1.186612">
<ele>2437</ele>
<time>2013-07-13T14:08:58.000Z</time>
</trkpt>
<trkpt lat="42.639394" lon="-1.186535">
<ele>2438</ele>
<time>2013-07-13T14:08:59.000Z</time>
</trkpt>
<trkpt lat="42.639473" lon="-1.186486">
<ele>2439</ele>
<time>2013-07-13T14:09:00.000Z</time>
</trkpt>
<trkpt lat="42.639557" lon="-1.186462">
<ele>2440</ele>
<time>2013-07-13T14:09:01.000Z</time>
</trkpt>
<trkpt lat="42.639617" lon="-1.18647">
<ele>2440</ele>
<time>2013-07-13T14:09:02.000Z</time>
</trkpt>
<trkpt lat="42.639669" lon="-1.186505">
<ele>2443</ele>
<time>2013-07-13T14:09:03.000Z</time>
</trkpt>
<trkpt lat="42.639708" lon="-1.186532">
<ele>2443</ele>
<time>2013-07-13T14:09:04.000Z</time>
</trkpt>
<trkpt lat="42.639734" lon="-1.186577">
<ele>2444</ele>
<time>2013-07-13T14:09:05.000Z</time>
</trkpt>
<trkpt lat="42.63975" lon="-1.186633">
<ele>2445</ele>
<time>2013-07-13T14:09:06.000Z</time>
</trkpt>
<trkpt lat="42.639763" lon="-1.186705">
<ele>2445</ele>
<time>2013-07-13T14:09:07.000Z</time>
</trkpt>
<trkpt lat="42.639758" lon="-1.186788">
<ele>2446</ele>
<time>2013-07-13T14:09:08.000Z</time>
</trkpt>
<trkpt lat="42.639745" lon="-1.186879">
<ele>2449</ele>
<time>2013-07-13T14:09:09.000Z</time>
</trkpt>
<trkpt lat="42.639708" lon="-1.186966">
<ele>2450</ele>
<time>2013-07-13T14:09:10.000Z</time>
</trkpt>
<trkpt lat="42.639669" lon="-1.187043">
<ele>2451</ele>
<time>2013-07-13T14:09:11.000Z</time>
</trkpt>
<trkpt lat="42.639617" lon="-1.187096">
<ele>2451</ele>
<time>2013-07-13T14:09:12.000Z</time>
</trkpt>
<trkpt lat="42.639554" lon="-1.187158">
<ele>2452</ele>
<time>2013-07-13T14:09:13.000Z</time>
</trkpt>
<trkpt lat="42.639482" lon="-1.187229">
<ele>2453</ele>
<time>2013-07-13T14:09:14.000Z</time>
</trkpt>
<trkpt lat="42.639401" lon="-1.187306">
<ele>2455</ele>
<time>2013-07-13T14:09:15.000Z</time>
</trkpt>
<trkpt lat="42.639315" lon="-1.187381">
<ele>2457</ele>
<time>2013-07-13T14:09:16.000Z</time>
</trkpt>
<trkpt lat="42.639211" lon="-1.187436">
<ele>2460</ele>
<time>2013-07-13T14:09:17.000Z</time>
</trkpt>
<trkpt lat="42.63911" lon="-1.187485">
<ele>2463</ele>
<time>2013-07-13T14:09:18.000Z</time>
</trkpt>
<trkpt lat="42.639015" lon="-1.187531">
<ele>2466</ele>
<time>2013-07-13T14:09:19.000Z</time>
</trkpt>
<trkpt lat="42.638926" lon="-1.187574">
<ele>2468</ele>
<time>2013-07-13T14:09:20.000Z</time>
</trkpt>
<trkpt lat="42.638836" lon="-1.187619">
<ele>2470</ele>
<time>2013-07-13T14:09:21.000Z</time>
</trkpt>
<trkpt lat="42.638742" lon="-1.187666">
<ele>2471</ele>
<time>2013-07-13T14:09:22.000Z</time>
</trkpt>
<trkpt lat="42.638647" lon="-1.187713">
<ele>2475</ele>
<time>2013-07-13T14:09:23.000Z</time>
</trkpt>
<trkpt lat="42.638547" lon="-1.187762">
<ele>2476</ele>
<time>2013-07-13T14:09:24.000Z</time>
</trkpt>
<trkpt lat="42.638448" lon="-1.18781">
<ele>2477</ele>
<time>2013-07-13T14:09:25.000Z</time>
</trkpt>
<trkpt lat="42.638344" lon="-1.187857">
<ele>2478</ele>
<time>2013-07-13T14:09:26.000Z</time>
</trkpt>
<trkpt lat="42.638233" lon="-1.187899">
<ele>2479</ele>
<time>2013-07-13T14:09:27.000Z</time>
</trkpt>
<trkpt lat="42.638115" lon="-1.187938">
<ele>2481</ele>
<time>2013-07-13T14:09:28.000Z</time>
</trkpt>
<trkpt lat="42.637995" lon="-1.187978">
<ele>2483</ele>
<time>2013-07-13T14:09:29.000Z</time>
</trkpt>
<trkpt lat="42.637873" lon="-1.18801">
<ele>2484</ele>
<time>2013-07-13T14:09:30.000Z</time>
</trkpt>
<trkpt lat="42.637754" lon="-1.188037">
<ele>2487</ele>
<time>2013-07-13T14:09:31.000Z</time>
</trkpt>
<trkpt lat="42.637641" lon="-1.188061">
<ele>2490</ele>
<time>2013-07-13T14:09:32.000Z</time>
</trkpt>
<trkpt lat="42.637531" lon="-1.188081">
<ele>2491</ele>
<time>2013-07-13T14:09:33.000Z</time>
</trkpt>
<trkpt lat="42.637418" lon="-1.188101">
<ele>2493</ele>
<time>2013-07-13T14:09:34.000Z</time>
</trkpt>
<trkpt lat="42.637293" lon="-1.188127">
<ele>2494</ele>
<time>2013-07-13T14:09:35.000Z</time>
</trkpt>
<trkpt lat="42.637168" lon="-1.188156">
<ele>2494</ele>
<time>2013-07-13T14:09:36.000Z</time>
</trkpt>
<trkpt lat="42.637055" lon="-1.188184">
<ele>2497</ele>
<time>2013-07-13T14:09:37.000Z</time>
</trkpt>
<trkpt lat="42.636953" lon="-1.188199">
<ele>2498</ele>
<time>2013-07-13T14:09:38.000Z</time>
</trkpt>
<trkpt lat="42.636858" lon="-1.188204">
<ele>2500</ele>
<time>2013-07-13T14:09:39.000Z</time>
</trkpt>
<trkpt lat="42.636761" lon="-1.188202">
<ele>2502</ele>
<time>2013-07-13T14:09:40.000Z</time>
</trkpt>
<trkpt lat="42.636658" lon="-1.188198">
<ele>2504</ele>
<time>2013-07-13T14:09:41.000Z</time>
</trkpt>
<trkpt lat="42.636547" lon="-1.188194">
<ele>2504</ele>
<time>2013-07-13T14:09:42.000Z</time>
</trkpt>
<trkpt lat="42.636432" lon="-1.188196">
<ele>2505</ele>
<time>2013-07-13T14:09:43.000Z</time>
</trkpt>
<trkpt lat="42.636315" lon="-1.188207">
<ele>2506</ele>
<time>2013-07-13T14:09:44.000Z</time>
</trkpt>
<trkpt lat="42.636206" lon="-1.188256">
<ele>2507</ele>
<time>2013-07-13T14:09:45.000Z</time>
</trkpt>
<trkpt lat="42.636111" lon="-1.188309">
<ele>2507</ele>
<time>2013-07-13T14:09:46.000Z</time>
</trkpt>
<trkpt lat="42.636026" lon="-1.188369">
<ele>2508</ele>
<time>2013-07-13T14:09:47.000Z</time>
</trkpt>
<trkpt lat="42.635938" lon="-1.188441">
<ele>2508</ele>
<time>2013-07-13T14:09:48.000Z</time>
</trkpt>
<trkpt lat="42.635836" lon="-1.188517">
<ele>2507</ele>
<time>2013-07-13T14:09:49.000Z</time>
</trkpt>
<trkpt lat="42.635722" lon="-1.18859">
<ele>2507</ele>
<time>2013-07-13T14:09:50.000Z</time>
</trkpt>
<trkpt lat="42.635615" lon="-1.188659">
<ele>2509</ele>
<time>2013-07-13T14:09:51.000Z</time>
</trkpt>
<trkpt lat="42.635513" lon="-1.188726">
<ele>2510</ele>
<time>2013-07-13T14:09:52.000Z</time>
</trkpt>
<trkpt lat="42.635407" lon="-1.188785">
<ele>2512</ele>
<time>2013-07-13T14:09:53.000Z</time>
</trkpt>
<trkpt lat="42.635286" lon="-1.188842">
<ele>2513</ele>
<time>2013-07-13T14:09:54.000Z</time>
</trkpt>
<trkpt lat="42.635157" lon="-1.188889">
<ele>2511</ele>
<time>2013-07-13T14:09:55.000Z</time>
</trkpt>
<trkpt lat="42.635025" lon="-1.188929">
<ele>2513</ele>
<time>2013-07-13T14:09:56.000Z</time>
</trkpt>
<trkpt lat="42.634888" lon="-1.188963">
<ele>2515</ele>
<time>2013-07-13T14:09:57.000Z</time>
</trkpt>
<trkpt lat="42.634751" lon="-1.188993">
<ele>2518</ele>
<time>2013-07-13T14:09:58.000Z</time>
</trkpt>
<trkpt lat="42.634616" lon="-1.189023">
<ele>2520</ele>
<time>2013-07-13T14:09:59.000Z</time>
</trkpt>
<trkpt lat="42.63449" lon="-1.189053">
<ele>2524</ele>
<time>2013-07-13T14:10:00.000Z</time>
</trkpt>
<trkpt lat="42.634364" lon="-1.189081">
<ele>2527</ele>
<time>2013-07-13T14:10:01.000Z</time>
</trkpt>
<trkpt lat="42.634229" lon="-1.189099">
<ele>2529</ele>
<time>2013-07-13T14:10:02.000Z</time>
</trkpt>
<trkpt lat="42.634096" lon="-1.189111">
<ele>2531</ele>
<time>2013-07-13T14:10:03.000Z</time>
</trkpt>
<trkpt lat="42.63395" lon="-1.189131">
<ele>2530</ele>
<time>2013-07-13T14:10:04.000Z</time>
</trkpt>
<trkpt lat="42.633814" lon="-1.18914">
<ele>2532</ele>
<time>2013-07-13T14:10:05.000Z</time>
</trkpt>
<trkpt lat="42.633687" lon="-1.189141">
<ele>2535</ele>
<time>2013-07-13T14:10:06.000Z</time>
</trkpt>
<trkpt lat="42.633568" lon="-1.189137">
<ele>2538</ele>
<time>2013-07-13T14:10:07.000Z</time>
</trkpt>
<trkpt lat="42.633434" lon="-1.189128">
<ele>2540</ele>
<time>2013-07-13T14:10:08.000Z</time>
</trkpt>
<trkpt lat="42.633281" lon="-1.189118">
<ele>2543</ele>
<time>2013-07-13T14:10:09.000Z</time>
</trkpt>
<trkpt lat="42.633125" lon="-1.189118">
<ele>2543</ele>
<time>2013-07-13T14:10:10.000Z</time>
</trkpt>
<trkpt lat="42.632982" lon="-1.189124">
<ele>2543</ele>
<time>2013-07-13T14:10:11.000Z</time>
</trkpt>
<trkpt lat="42.632867" lon="-1.189131">
<ele>2545</ele>
<time>2013-07-13T14:10:12.000Z</time>
</trkpt>
<trkpt lat="42.632768" lon="-1.189131">
<ele>2547</ele>
<time>2013-07-13T14:10:13.000Z</time>
</trkpt>
<trkpt lat="42.632661" lon="-1.189131">
<ele>2546</ele>
<time>2013-07-13T14:10:14.000Z</time>
</trkpt>
<trkpt lat="42.632538" lon="-1.18913">
<ele>2543</ele>
<time>2013-07-13T14:10:15.000Z</time>
</trkpt>
<trkpt lat="42.632406" lon="-1.189131">
<ele>2540</ele>
<time>2013-07-13T14:10:16.000Z</time>
</trkpt>
<trkpt lat="42.632285" lon="-1.189139">
<ele>2538</ele>
<time>2013-07-13T14:10:17.000Z</time>
</trkpt>
<trkpt lat="42.632171" lon="-1.189152">
<ele>2537</ele>
<time>2013-07-13T14:10:18.000Z</time>
</trkpt>
<trkpt lat="42.632062" lon="-1.18917">
<ele>2535</ele>
<time>2013-07-13T14:10:19.000Z</time>
</trkpt>
<trkpt lat="42.631963" lon="-1.189188">
<ele>2535</ele>
<time>2013-07-13T14:10:20.000Z</time>
</trkpt>
<trkpt lat="42.631864" lon="-1.189206">
<ele>2533</ele>
<time>2013-07-13T14:10:21.000Z</time>
</trkpt>
<trkpt lat="42.631757" lon="-1.189229">
<ele>2531</ele>
<time>2013-07-13T14:10:22.000Z</time>
</trkpt>
<trkpt lat="42.631647" lon="-1.189255">
<ele>2528</ele>
<time>2013-07-13T14:10:23.000Z</time>
</trkpt>
<trkpt lat="42.631534" lon="-1.189285">
<ele>2526</ele>
<time>2013-07-13T14:10:24.000Z</time>
</trkpt>
<trkpt lat="42.631429" lon="-1.189315">
<ele>2524</ele>
<time>2013-07-13T14:10:25.000Z</time>
</trkpt>
<trkpt lat="42.631331" lon="-1.189336">
<ele>2524</ele>
<time>2013-07-13T14:10:26.000Z</time>
</trkpt>
<trkpt lat="42.631249" lon="-1.189348">
<ele>2522</ele>
<time>2013-07-13T14:10:27.000Z</time>
</trkpt>
<trkpt lat="42.631163" lon="-1.189357">
<ele>2521</ele>
<time>2013-07-13T14:10:28.000Z</time>
</trkpt>
<trkpt lat="42.631069" lon="-1.189367">
<ele>2518</ele>
<time>2013-07-13T14:10:29.000Z</time>
</trkpt>
<trkpt lat="42.630962" lon="-1.189375">
<ele>2516</ele>
<time>2013-07-13T14:10:30.000Z</time>
</trkpt>
<trkpt lat="42.630853" lon="-1.189382">
<ele>2514</ele>
<time>2013-07-13T14:10:31.000Z</time>
</trkpt>
<trkpt lat="42.630743" lon="-1.189389">
<ele>2512</ele>
<time>2013-07-13T14:10:32.000Z</time>
</trkpt>
<trkpt lat="42.630645" lon="-1.189402">
<ele>2511</ele>
<time>2013-07-13T14:10:33.000Z</time>
</trkpt>
<trkpt lat="42.630549" lon="-1.189444">
<ele>2509</ele>
<time>2013-07-13T14:10:34.000Z</time>
</trkpt>
<trkpt lat="42.630447" lon="-1.189492">
<ele>2507</ele>
<time>2013-07-13T14:10:35.000Z</time>
</trkpt>
<trkpt lat="42.630342" lon="-1.189533">
<ele>2505</ele>
<time>2013-07-13T14:10:36.000Z</time>
</trkpt>
<trkpt lat="42.630234" lon="-1.189537">
<ele>2502</ele>
<time>2013-07-13T14:10:37.000Z</time>
</trkpt>
<trkpt lat="42.630126" lon="-1.189543">
<ele>2499</ele>
<time>2013-07-13T14:10:38.000Z</time>
</trkpt>
<trkpt lat="42.630015" lon="-1.189551">
<ele>2495</ele>
<time>2013-07-13T14:10:39.000Z</time>
</trkpt>
<trkpt lat="42.629905" lon="-1.189599">
<ele>2491</ele>
<time>2013-07-13T14:10:40.000Z</time>
</trkpt>
<trkpt lat="42.62979" lon="-1.189656">
<ele>2488</ele>
<time>2013-07-13T14:10:41.000Z</time>
</trkpt>
<trkpt lat="42.629677" lon="-1.189721">
<ele>2487</ele>
<time>2013-07-13T14:10:42.000Z</time>
</trkpt>
<trkpt lat="42.629571" lon="-1.18979">
<ele>2485</ele>
<time>2013-07-13T14:10:43.000Z</time>
</trkpt>
<trkpt lat="42.629467" lon="-1.189863">
<ele>2484</ele>
<time>2013-07-13T14:10:44.000Z</time>
</trkpt>
<trkpt lat="42.629374" lon="-1.189936">
<ele>2483</ele>
<time>2013-07-13T14:10:45.000Z</time>
</trkpt>
<trkpt lat="42.629278" lon="-1.19002">
<ele>2481</ele>
<time>2013-07-13T14:10:46.000Z</time>
</trkpt>
<trkpt lat="42.629181" lon="-1.190112">
<ele>2480</ele>
<time>2013-07-13T14:10:47.000Z</time>
</trkpt>
<trkpt lat="42.629089" lon="-1.190198">
<ele>2478</ele>
<time>2013-07-13T14:10:48.000Z</time>
</trkpt>
<trkpt lat="42.628996" lon="-1.190275">
<ele>2477</ele>
<time>2013-07-13T14:10:49.000Z</time>
</trkpt>
<trkpt lat="42.628898" lon="-1.190348">
<ele>2474</ele>
<time>2013-07-13T14:10:50.000Z</time>
</trkpt>
<trkpt lat="42.6288" lon="-1.19042">
<ele>2471</ele>
<time>2013-07-13T14:10:51.000Z</time>
</trkpt>
<trkpt lat="42.628702" lon="-1.190481">
<ele>2469</ele>
<time>2013-07-13T14:10:52.000Z</time>
</trkpt>
<trkpt lat="42.628599" lon="-1.190535">
<ele>2468</ele>
<time>2013-07-13T14:10:53.000Z</time>
</trkpt>
<trkpt lat="42.628475" lon="-1.190594">
<ele>2463</ele>
<time>2013-07-13T14:10:54.000Z</time>
</trkpt>
<trkpt lat="42.628337" lon="-1.190661">
<ele>2459</ele>
<time>2013-07-13T14:10:55.000Z</time>
</trkpt>
<trkpt lat="42.628213" lon="-1.190731">
<ele>2458</ele>
<time>2013-07-13T14:10:56.000Z</time>
</trkpt>
<trkpt lat="42.628116" lon="-1.190795">
<ele>2459</ele>
<time>2013-07-13T14:10:57.000Z</time>
</trkpt>
<trkpt lat="42.628031" lon="-1.190849">
<ele>2457</ele>
<time>2013-07-13T14:10:58.000Z</time>
</trkpt>
<trkpt lat="42.627942" lon="-1.190899">
<ele>2456</ele>
<time>2013-07-13T14:10:59.000Z</time>
</trkpt>
<trkpt lat="42.627844" lon="-1.190948">
<ele>2454</ele>
<time>2013-07-13T14:11:00.000Z</time>
</trkpt>
<trkpt lat="42.62773" lon="-1.190999">
<ele>2450</ele>
<time>2013-07-13T14:11:01.000Z</time>
</trkpt>
<trkpt lat="42.627609" lon="-1.191048">
<ele>2448</ele>
<time>2013-07-13T14:11:02.000Z</time>
</trkpt>
<trkpt lat="42.627489" lon="-1.191091">
<ele>2446</ele>
<time>2013-07-13T14:11:03.000Z</time>
</trkpt>
<trkpt lat="42.62738" lon="-1.191127">
<ele>2444</ele>
<time>2013-07-13T14:11:04.000Z</time>
</trkpt>
<trkpt lat="42.62728" lon="-1.191158">
<ele>2442</ele>
<time>2013-07-13T14:11:05.000Z</time>
</trkpt>
<trkpt lat="42.627176" lon="-1.191189">
<ele>2441</ele>
<time>2013-07-13T14:11:06.000Z</time>
</trkpt>
<trkpt lat="42.627069" lon="-1.191223">
<ele>2439</ele>
<time>2013-07-13T14:11:07.000Z</time>
</trkpt>
<trkpt lat="42.62696" lon="-1.191266">
<ele>2436</ele>
<time>2013-07-13T14:11:08.000Z</time>
</trkpt>
<trkpt lat="42.626853" lon="-1.191308">
<ele>2434</ele>
<time>2013-07-13T14:11:09.000Z</time>
</trkpt>
<trkpt lat="42.626757" lon="-1.19135">
<ele>2433</ele>
<time>2013-07-13T14:11:10.000Z</time>
</trkpt>
<trkpt lat="42.626658" lon="-1.191393">
<ele>2431</ele>
<time>2013-07-13T14:11:11.000Z</time>
</trkpt>
<trkpt lat="42.626561" lon="-1.19144">
<ele>2429</ele>
<time>2013-07-13T14:11:12.000Z</time>
</trkpt>
<trkpt lat="42.626467" lon="-1.191486">
<ele>2428</ele>
<time>2013-07-13T14:11:13.000Z</time>
</trkpt>
<trkpt lat="42.626381" lon="-1.191529">
<ele>2427</ele>
<time>2013-07-13T14:11:14.000Z</time>
</trkpt>
<trkpt lat="42.626297" lon="-1.191566">
<ele>2426</ele>
<time>2013-07-13T14:11:15.000Z</time>
</trkpt>
<trkpt lat="42.626207" lon="-1.191603">
<ele>2426</ele>
<time>2013-07-13T14:11:16.000Z</time>
</trkpt>
<trkpt lat="42.626116" lon="-1.191655">
<ele>2426</ele>
<time>2013-07-13T14:11:17.000Z</time>
</trkpt>
<trkpt lat="42.626034" lon="-1.191713">
<ele>2424</ele>
<time>2013-07-13T14:11:18.000Z</time>
</trkpt>
<trkpt lat="42.625957" lon="-1.191761">
<ele>2422</ele>
<time>2013-07-13T14:11:19.000Z</time>
</trkpt>
<trkpt lat="42.625874" lon="-1.191779">
<ele>2419</ele>
<time>2013-07-13T14:11:20.000Z</time>
</trkpt>
<trkpt lat="42.625784" lon="-1.191796">
<ele>2416</ele>
<time>2013-07-13T14:11:21.000Z</time>
</trkpt>
<trkpt lat="42.625685" lon="-1.191815">
<ele>2414</ele>
<time>2013-07-13T14:11:22.000Z</time>
</trkpt>
<trkpt lat="42.625591" lon="-1.191848">
<ele>2411</ele>
<time>2013-07-13T14:11:23.000Z</time>
</trkpt>
<trkpt lat="42.625509" lon="-1.191879">
<ele>2408</ele>
<time>2013-07-13T14:11:24.000Z</time>
</trkpt>
<trkpt lat="42.625426" lon="-1.191898">
<ele>2405</ele>
<time>2013-07-13T14:11:25.000Z</time>
</trkpt>
<trkpt lat="42.62533" lon="-1.191882">
<ele>2402</ele>
<time>2013-07-13T14:11:26.000Z</time>
</trkpt>
<trkpt lat="42.625212" lon="-1.191863">
<ele>2400</ele>
<time>2013-07-13T14:11:27.000Z</time>
</trkpt>
<trkpt lat="42.6251" lon="-1.191886">
<ele>2400</ele>
<time>2013-07-13T14:11:28.000Z</time>
</trkpt>
<trkpt lat="42.624997" lon="-1.191918">
<ele>2395</ele>
<time>2013-07-13T14:11:29.000Z</time>
</trkpt>
<trkpt lat="42.624902" lon="-1.191951">
<ele>2393</ele>
<time>2013-07-13T14:11:30.000Z</time>
</trkpt>
<trkpt lat="42.624808" lon="-1.191986">
<ele>2390</ele>
<time>2013-07-13T14:11:31.000Z</time>
</trkpt>
<trkpt lat="42.624706" lon="-1.192023">
<ele>2388</ele>
<time>2013-07-13T14:11:32.000Z</time>
</trkpt>
<trkpt lat="42.624604" lon="-1.192068">
<ele>2385</ele>
<time>2013-07-13T14:11:33.000Z</time>
</trkpt>
<trkpt lat="42.624499" lon="-1.19212">
<ele>2382</ele>
<time>2013-07-13T14:11:34.000Z</time>
</trkpt>
<trkpt lat="42.624395" lon="-1.192168">
<ele>2380</ele>
<time>2013-07-13T14:11:35.000Z</time>
</trkpt>
<trkpt lat="42.624292" lon="-1.192214">
<ele>2378</ele>
<time>2013-07-13T14:11:36.000Z</time>
</trkpt>
<trkpt lat="42.624192" lon="-1.192251">
<ele>2376</ele>
<time>2013-07-13T14:11:37.000Z</time>
</trkpt>
<trkpt lat="42.624093" lon="-1.19228">
<ele>2373</ele>
<time>2013-07-13T14:11:38.000Z</time>
</trkpt>
<trkpt lat="42.623988" lon="-1.192314">
<ele>2372</ele>
<time>2013-07-13T14:11:39.000Z</time>
</trkpt>
<trkpt lat="42.623882" lon="-1.192353">
<ele>2371</ele>
<time>2013-07-13T14:11:40.000Z</time>
</trkpt>
<trkpt lat="42.623784" lon="-1.192392">
<ele>2369</ele>
<time>2013-07-13T14:11:41.000Z</time>
</trkpt>
<trkpt lat="42.623695" lon="-1.192424">
<ele>2368</ele>
<time>2013-07-13T14:11:42.000Z</time>
</trkpt>
<trkpt lat="42.6236" lon="-1.192453">
<ele>2368</ele>
<time>2013-07-13T14:11:43.000Z</time>
</trkpt>
<trkpt lat="42.623501" lon="-1.192485">
<ele>2369</ele>
<time>2013-07-13T14:11:44.000Z</time>
</trkpt>
<trkpt lat="42.623399" lon="-1.192515">
<ele>2368</ele>
<time>2013-07-13T14:11:45.000Z</time>
</trkpt>
<trkpt lat="42.623296" lon="-1.192536">
<ele>2367</ele>
<time>2013-07-13T14:11:46.000Z</time>
</trkpt>
<trkpt lat="42.623189" lon="-1.192548">
<ele>2367</ele>
<time>2013-07-13T14:11:47.000Z</time>
</trkpt>
<trkpt lat="42.623082" lon="-1.192554">
<ele>2367</ele>
<time>2013-07-13T14:11:48.000Z</time>
</trkpt>
<trkpt lat="42.622975" lon="-1.192566">
<ele>2366</ele>
<time>2013-07-13T14:11:49.000Z</time>
</trkpt>
<trkpt lat="42.622861" lon="-1.192586">
<ele>2365</ele>
<time>2013-07-13T14:11:50.000Z</time>
</trkpt>
<trkpt lat="42.62275" lon="-1.192613">
<ele>2364</ele>
<time>2013-07-13T14:11:51.000Z</time>
</trkpt>
<trkpt lat="42.622645" lon="-1.192639">
<ele>2363</ele>
<time>2013-07-13T14:11:52.000Z</time>
</trkpt>
<trkpt lat="42.62255" lon="-1.192656">
<ele>2363</ele>
<time>2013-07-13T14:11:53.000Z</time>
</trkpt>
<trkpt lat="42.622458" lon="-1.192671">
<ele>2362</ele>
<time>2013-07-13T14:11:54.000Z</time>
</trkpt>
<trkpt lat="42.622354" lon="-1.192684">
<ele>2360</ele>
<time>2013-07-13T14:11:55.000Z</time>
</trkpt>
<trkpt lat="42.622237" lon="-1.192697">
<ele>2358</ele>
<time>2013-07-13T14:11:56.000Z</time>
</trkpt>
<trkpt lat="42.622116" lon="-1.192707">
<ele>2358</ele>
<time>2013-07-13T14:11:57.000Z</time>
</trkpt>
<trkpt lat="42.622005" lon="-1.192716">
<ele>2358</ele>
<time>2013-07-13T14:11:58.000Z</time>
</trkpt>
<trkpt lat="42.621896" lon="-1.192726">
<ele>2357</ele>
<time>2013-07-13T14:11:59.000Z</time>
</trkpt>
<trkpt lat="42.621782" lon="-1.192731">
<ele>2356</ele>
<time>2013-07-13T14:12:00.000Z</time>
</trkpt>
<trkpt lat="42.621667" lon="-1.192738">
<ele>2356</ele>
<time>2013-07-13T14:12:01.000Z</time>
</trkpt>
<trkpt lat="42.621556" lon="-1.192752">
<ele>2355</ele>
<time>2013-07-13T14:12:02.000Z</time>
</trkpt>
<trkpt lat="42.621452" lon="-1.192774">
<ele>2354</ele>
<time>2013-07-13T14:12:03.000Z</time>
</trkpt>
<trkpt lat="42.621356" lon="-1.192802">
<ele>2353</ele>
<time>2013-07-13T14:12:04.000Z</time>
</trkpt>
<trkpt lat="42.621257" lon="-1.192835">
<ele>2354</ele>
<time>2013-07-13T14:12:05.000Z</time>
</trkpt>
<trkpt lat="42.621155" lon="-1.192867">
<ele>2356</ele>
<time>2013-07-13T14:12:06.000Z</time>
</trkpt>
<trkpt lat="42.621049" lon="-1.192899">
<ele>2357</ele>
<time>2013-07-13T14:12:07.000Z</time>
</trkpt>
<trkpt lat="42.620937" lon="-1.192934">
<ele>2359</ele>
<time>2013-07-13T14:12:08.000Z</time>
</trkpt>
<trkpt lat="42.620828" lon="-1.192969">
<ele>2360</ele>
<time>2013-07-13T14:12:09.000Z</time>
</trkpt>
<trkpt lat="42.620719" lon="-1.193009">
<ele>2361</ele>
<time>2013-07-13T14:12:10.000Z</time>
</trkpt>
<trkpt lat="42.620612" lon="-1.19305">
<ele>2362</ele>
<time>2013-07-13T14:12:11.000Z</time>
</trkpt>
<trkpt lat="42.620505" lon="-1.193083">
<ele>2361</ele>
<time>2013-07-13T14:12:12.000Z</time>
</trkpt>
<trkpt lat="42.620399" lon="-1.193106">
<ele>2360</ele>
<time>2013-07-13T14:12:13.000Z</time>
</trkpt>
<trkpt lat="42.620292" lon="-1.19312">
<ele>2359</ele>
<time>2013-07-13T14:12:14.000Z</time>
</trkpt>
<trkpt lat="42.620181" lon="-1.193135">
<ele>2358</ele>
<time>2013-07-13T14:12:15.000Z</time>
</trkpt>
<trkpt lat="42.620068" lon="-1.193151">
<ele>2358</ele>
<time>2013-07-13T14:12:16.000Z</time>
</trkpt>
<trkpt lat="42.619945" lon="-1.193173">
<ele>2356</ele>
<time>2013-07-13T14:12:17.000Z</time>
</trkpt>
<trkpt lat="42.61982" lon="-1.193197">
<ele>2356</ele>
<time>2013-07-13T14:12:18.000Z</time>
</trkpt>
<trkpt lat="42.619702" lon="-1.19322">
<ele>2358</ele>
<time>2013-07-13T14:12:19.000Z</time>
</trkpt>
<trkpt lat="42.619601" lon="-1.193239">
<ele>2358</ele>
<time>2013-07-13T14:12:20.000Z</time>
</trkpt>
<trkpt lat="42.619513" lon="-1.193254">
<ele>2359</ele>
<time>2013-07-13T14:12:21.000Z</time>
</trkpt>
<trkpt lat="42.619419" lon="-1.193273">
<ele>2358</ele>
<time>2013-07-13T14:12:22.000Z</time>
</trkpt>
<trkpt lat="42.619309" lon="-1.193294">
<ele>2358</ele>
<time>2013-07-13T14:12:23.000Z</time>
</trkpt>
<trkpt lat="42.619193" lon="-1.193316">
<ele>2357</ele>
<time>2013-07-13T14:12:24.000Z</time>
</trkpt>
<trkpt lat="42.619084" lon="-1.193337">
<ele>2356</ele>
<time>2013-07-13T14:12:25.000Z</time>
</trkpt>
<trkpt lat="42.618982" lon="-1.193359">
<ele>2356</ele>
<time>2013-07-13T14:12:26.000Z</time>
</trkpt>
<trkpt lat="42.618887" lon="-1.193386">
<ele>2355</ele>
<time>2013-07-13T14:12:27.000Z</time>
</trkpt>
<trkpt lat="42.618798" lon="-1.193412">
<ele>2355</ele>
<time>2013-07-13T14:12:28.000Z</time>
</trkpt>
<trkpt lat="42.618708" lon="-1.193437">
<ele>2354</ele>
<time>2013-07-13T14:12:29.000Z</time>
</trkpt>
<trkpt lat="42.618616" lon="-1.193459">
<ele>2353</ele>
<time>2013-07-13T14:12:30.000Z</time>
</trkpt>
<trkpt lat="42.618519" lon="-1.193481">
<ele>2351</ele>
<time>2013-07-13T14:12:31.000Z</time>
</trkpt>
<trkpt lat="42.618416" lon="-1.193504">
<ele>2349</ele>
<time>2013-07-13T14:12:32.000Z</time>
</trkpt>
<trkpt lat="42.618312" lon="-1.193527">
<ele>2348</ele>
<time>2013-07-13T14:12:33.000Z</time>
</trkpt>
<trkpt lat="42.618209" lon="-1.193552">
<ele>2346</ele>
<time>2013-07-13T14:12:34.000Z</time>
</trkpt>
<trkpt lat="42.618112" lon="-1.193576">
<ele>2345</ele>
<time>2013-07-13T14:12:35.000Z</time>
</trkpt>
<trkpt lat="42.618014" lon="-1.193596">
<ele>2344</ele>
<time>2013-07-13T14:12:36.000Z</time>
</trkpt>
<trkpt lat="42.61791" lon="-1.19362">
<ele>2344</ele>
<time>2013-07-13T14:12:37.000Z</time>
</trkpt>
<trkpt lat="42.6178" lon="-1.193653">
<ele>2343</ele>
<time>2013-07-13T14:12:38.000Z</time>
</trkpt>
<trkpt lat="42.617688" lon="-1.193689">
<ele>2342</ele>
<time>2013-07-13T14:12:39.000Z</time>
</trkpt>
<trkpt lat="42.617585" lon="-1.193723">
<ele>2341</ele>
<time>2013-07-13T14:12:40.000Z</time>
</trkpt>
<trkpt lat="42.617489" lon="-1.193755">
<ele>2340</ele>
<time>2013-07-13T14:12:41.000Z</time>
</trkpt>
<trkpt lat="42.617392" lon="-1.193783">
<ele>2340</ele>
<time>2013-07-13T14:12:42.000Z</time>
</trkpt>
<trkpt lat="42.617291" lon="-1.19381">
<ele>2339</ele>
<time>2013-07-13T14:12:43.000Z</time>
</trkpt>
<trkpt lat="42.617185" lon="-1.19384">
<ele>2339</ele>
<time>2013-07-13T14:12:44.000Z</time>
</trkpt>
<trkpt lat="42.617077" lon="-1.19387">
<ele>2339</ele>
<time>2013-07-13T14:12:45.000Z</time>
</trkpt>
<trkpt lat="42.616978" lon="-1.193895">
<ele>2338</ele>
<time>2013-07-13T14:12:46.000Z</time>
</trkpt>
<trkpt lat="42.616888" lon="-1.193918">
<ele>2336</ele>
<time>2013-07-13T14:12:47.000Z</time>
</trkpt>
<trkpt lat="42.616799" lon="-1.19394">
<ele>2334</ele>
<time>2013-07-13T14:12:48.000Z</time>
</trkpt>
<trkpt lat="42.616703" lon="-1.193959">
<ele>2332</ele>
<time>2013-07-13T14:12:49.000Z</time>
</trkpt>
<trkpt lat="42.616606" lon="-1.193977">
<ele>2331</ele>
<time>2013-07-13T14:12:50.000Z</time>
</trkpt>
<trkpt lat="42.6165" lon="-1.194002">
<ele>2329</ele>
<time>2013-07-13T14:12:51.000Z</time>
</trkpt>
<trkpt lat="42.616389" lon="-1.194034">
<ele>2326</ele>
<time>2013-07-13T14:12:52.000Z</time>
</trkpt>
<trkpt lat="42.616284" lon="-1.194065">
<ele>2325</ele>
<time>2013-07-13T14:12:53.000Z</time>
</trkpt>
<trkpt lat="42.616188" lon="-1.194096">
<ele>2324</ele>
<time>2013-07-13T14:12:54.000Z</time>
</trkpt>
<trkpt lat="42.616094" lon="-1.194127">
<ele>2323</ele>
<time>2013-07-13T14:12:55.000Z</time>
</trkpt>
<trkpt lat="42.616001" lon="-1.194154">
<ele>2321</ele>
<time>2013-07-13T14:12:56.000Z</time>
</trkpt>
<trkpt lat="42.61591" lon="-1.19418">
<ele>2319</ele>
<time>2013-07-13T14:12:57.000Z</time>
</trkpt>
<trkpt lat="42.615819" lon="-1.194208">
<ele>2315</ele>
<time>2013-07-13T14:12:58.000Z</time>
</trkpt>
<trkpt lat="42.615731" lon="-1.194237">
<ele>2313</ele>
<time>2013-07-13T14:12:59.000Z</time>
</trkpt>
<trkpt lat="42.615643" lon="-1.194266">
<ele>2309</ele>
<time>2013-07-13T14:13:00.000Z</time>
</trkpt>
<trkpt lat="42.615554" lon="-1.194298">
<ele>2306</ele>
<time>2013-07-13T14:13:01.000Z</time>
</trkpt>
<trkpt lat="42.615465" lon="-1.194337">
<ele>2302</ele>
<time>2013-07-13T14:13:02.000Z</time>
</trkpt>
<trkpt lat="42.61537" lon="-1.194384">
<ele>2299</ele>
<time>2013-07-13T14:13:03.000Z</time>
</trkpt>
<trkpt lat="42.615271" lon="-1.194433">
<ele>2296</ele>
<time>2013-07-13T14:13:04.000Z</time>
</trkpt>
<trkpt lat="42.615174" lon="-1.194483">
<ele>2293</ele>
<time>2013-07-13T14:13:05.000Z</time>
</trkpt>
<trkpt lat="42.615084" lon="-1.194535">
<ele>2291</ele>
<time>2013-07-13T14:13:06.000Z</time>
</trkpt>
<trkpt lat="42.614992" lon="-1.194586">
<ele>2289</ele>
<time>2013-07-13T14:13:07.000Z</time>
</trkpt>
<trkpt lat="42.614903" lon="-1.194636">
<ele>2286</ele>
<time>2013-07-13T14:13:08.000Z</time>
</trkpt>
<trkpt lat="42.614817" lon="-1.194685">
<ele>2283</ele>
<time>2013-07-13T14:13:09.000Z</time>
</trkpt>
<trkpt lat="42.61473" lon="-1.194738">
<ele>2280</ele>
<time>2013-07-13T14:13:10.000Z</time>
</trkpt>
<trkpt lat="42.61464" lon="-1.194795">
<ele>2276</ele>
<time>2013-07-13T14:13:11.000Z</time>
</trkpt>
<trkpt lat="42.614547" lon="-1.19485">
<ele>2273</ele>
<time>2013-07-13T14:13:12.000Z</time>
</trkpt>
<trkpt lat="42.614452" lon="-1.194896">
<ele>2270</ele>
<time>2013-07-13T14:13:13.000Z</time>
</trkpt>
<trkpt lat="42.61436" lon="-1.194933">
<ele>2269</ele>
<time>2013-07-13T14:13:14.000Z</time>
</trkpt>
<trkpt lat="42.614275" lon="-1.194968">
<ele>2266</ele>
<time>2013-07-13T14:13:15.000Z</time>
</trkpt>
<trkpt lat="42.614195" lon="-1.195002">
<ele>2263</ele>
<time>2013-07-13T14:13:16.000Z</time>
</trkpt>
<trkpt lat="42.614112" lon="-1.195037">
<ele>2260</ele>
<time>2013-07-13T14:13:17.000Z</time>
</trkpt>
<trkpt lat="42.614028" lon="-1.195072">
<ele>2258</ele>
<time>2013-07-13T14:13:18.000Z</time>
</trkpt>
<trkpt lat="42.613944" lon="-1.195103">
<ele>2255</ele>
<time>2013-07-13T14:13:19.000Z</time>
</trkpt>
<trkpt lat="42.61387" lon="-1.19513">
<ele>2251</ele>
<time>2013-07-13T14:13:20.000Z</time>
</trkpt>
<trkpt lat="42.613793" lon="-1.195156">
<ele>2248</ele>
<time>2013-07-13T14:13:21.000Z</time>
</trkpt>
<trkpt lat="42.613709" lon="-1.195187">
<ele>2244</ele>
<time>2013-07-13T14:13:22.000Z</time>
</trkpt>
<trkpt lat="42.613619" lon="-1.195228">
<ele>2240</ele>
<time>2013-07-13T14:13:23.000Z</time>
</trkpt>
<trkpt lat="42.613531" lon="-1.195275">
<ele>2237</ele>
<time>2013-07-13T14:13:24.000Z</time>
</trkpt>
<trkpt lat="42.61345" lon="-1.195327">
<ele>2234</ele>
<time>2013-07-13T14:13:25.000Z</time>
</trkpt>
<trkpt lat="42.61338" lon="-1.195384">
<ele>2231</ele>
<time>2013-07-13T14:13:26.000Z</time>
</trkpt>
<trkpt lat="42.613309" lon="-1.195441">
<ele>2229</ele>
<time>2013-07-13T14:13:27.000Z</time>
</trkpt>
<trkpt lat="42.613235" lon="-1.195498">
<ele>2226</ele>
<time>2013-07-13T14:13:28.000Z</time>
</trkpt>
<trkpt lat="42.613158" lon="-1.195548">
<ele>2224</ele>
<time>2013-07-13T14:13:29.000Z</time>
</trkpt>
<trkpt lat="42.613082" lon="-1.195586">
<ele>2220</ele>
<time>2013-07-13T14:13:30.000Z</time>
</trkpt>
<trkpt lat="42.613003" lon="-1.195615">
<ele>2218</ele>
<time>2013-07-13T14:13:31.000Z</time>
</trkpt>
<trkpt lat="42.612926" lon="-1.195642">
<ele>2215</ele>
<time>2013-07-13T14:13:32.000Z</time>
</trkpt>
<trkpt lat="42.61284" lon="-1.195673">
<ele>2212</ele>
<time>2013-07-13T14:13:33.000Z</time>
</trkpt>
<trkpt lat="42.612758" lon="-1.195706">
<ele>2207</ele>
<time>2013-07-13T14:13:34.000Z</time>
</trkpt>
<trkpt lat="42.612668" lon="-1.195742">
<ele>2205</ele>
<time>2013-07-13T14:13:35.000Z</time>
</trkpt>
<trkpt lat="42.612586" lon="-1.195775">
<ele>2203</ele>
<time>2013-07-13T14:13:36.000Z</time>
</trkpt>
<trkpt lat="42.612509" lon="-1.195808">
<ele>2201</ele>
<time>2013-07-13T14:13:37.000Z</time>
</trkpt>
<trkpt lat="42.612432" lon="-1.195843">
<ele>2199</ele>
<time>2013-07-13T14:13:38.000Z</time>
</trkpt>
<trkpt lat="42.612349" lon="-1.195879">
<ele>2196</ele>
<time>2013-07-13T14:13:39.000Z</time>
</trkpt>
<trkpt lat="42.612255" lon="-1.195914">
<ele>2193</ele>
<time>2013-07-13T14:13:40.000Z</time>
</trkpt>
<trkpt lat="42.612161" lon="-1.19594">
<ele>2189</ele>
<time>2013-07-13T14:13:41.000Z</time>
</trkpt>
<trkpt lat="42.612072" lon="-1.19596">
<ele>2186</ele>
<time>2013-07-13T14:13:42.000Z</time>
</trkpt>
<trkpt lat="42.611989" lon="-1.195979">
<ele>2184</ele>
<time>2013-07-13T14:13:43.000Z</time>
</trkpt>
<trkpt lat="42.611903" lon="-1.196">
<ele>2182</ele>
<time>2013-07-13T14:13:44.000Z</time>
</trkpt>
<trkpt lat="42.61181" lon="-1.196019">
<ele>2179</ele>
<time>2013-07-13T14:13:45.000Z</time>
</trkpt>
<trkpt lat="42.611705" lon="-1.196032">
<ele>2175</ele>
<time>2013-07-13T14:13:46.000Z</time>
</trkpt>
<trkpt lat="42.611597" lon="-1.196044">
<ele>2171</ele>
<time>2013-07-13T14:13:47.000Z</time>
</trkpt>
<trkpt lat="42.611497" lon="-1.196056">
<ele>2168</ele>
<time>2013-07-13T14:13:48.000Z</time>
</trkpt>
<trkpt lat="42.611406" lon="-1.196075">
<ele>2166</ele>
<time>2013-07-13T14:13:49.000Z</time>
</trkpt>
<trkpt lat="42.611322" lon="-1.196092">
<ele>2164</ele>
<time>2013-07-13T14:13:50.000Z</time>
</trkpt>
<trkpt lat="42.611237" lon="-1.196109">
<ele>2161</ele>
<time>2013-07-13T14:13:51.000Z</time>
</trkpt>
<trkpt lat="42.611142" lon="-1.196118">
<ele>2159</ele>
<time>2013-07-13T14:13:52.000Z</time>
</trkpt>
<trkpt lat="42.611035" lon="-1.196127">
<ele>2155</ele>
<time>2013-07-13T14:13:53.000Z</time>
</trkpt>
<trkpt lat="42.610928" lon="-1.196139">
<ele>2150</ele>
<time>2013-07-13T14:13:54.000Z</time>
</trkpt>
<trkpt lat="42.610827" lon="-1.196159">
<ele>2147</ele>
<time>2013-07-13T14:13:55.000Z</time>
</trkpt>
<trkpt lat="42.610731" lon="-1.196187">
<ele>2144</ele>
<time>2013-07-13T14:13:56.000Z</time>
</trkpt>
<trkpt lat="42.61064" lon="-1.196222">
<ele>2141</ele>
<time>2013-07-13T14:13:57.000Z</time>
</trkpt>
<trkpt lat="42.610557" lon="-1.196259">
<ele>2137</ele>
<time>2013-07-13T14:13:58.000Z</time>
</trkpt>
<trkpt lat="42.610473" lon="-1.1963">
<ele>2134</ele>
<time>2013-07-13T14:13:59.000Z</time>
</trkpt>
<trkpt lat="42.610389" lon="-1.196342">
<ele>2130</ele>
<time>2013-07-13T14:14:00.000Z</time>
</trkpt>
<trkpt lat="42.610305" lon="-1.196377">
<ele>2128</ele>
<time>2013-07-13T14:14:01.000Z</time>
</trkpt>
<trkpt lat="42.610219" lon="-1.196412">
<ele>2125</ele>
<time>2013-07-13T14:14:02.000Z</time>
</trkpt>
<trkpt lat="42.610134" lon="-1.196445">
<ele>2122</ele>
<time>2013-07-13T14:14:03.000Z</time>
</trkpt>
<trkpt lat="42.610047" lon="-1.196477">
<ele>2120</ele>
<time>2013-07-13T14:14:04.000Z</time>
</trkpt>
<trkpt lat="42.609958" lon="-1.196505">
<ele>2117</ele>
<time>2013-07-13T14:14:05.000Z</time>
</trkpt>
<trkpt lat="42.60986" lon="-1.196534">
<ele>2115</ele>
<time>2013-07-13T14:14:06.000Z</time>
</trkpt>
<trkpt lat="42.609763" lon="-1.196563">
<ele>2114</ele>
<time>2013-07-13T14:14:07.000Z</time>
</trkpt>
<trkpt lat="42.609669" lon="-1.196588">
<ele>2113</ele>
<time>2013-07-13T14:14:08.000Z</time>
</trkpt>
<trkpt lat="42.609575" lon="-1.196579">
<ele>2111</ele>
<time>2013-07-13T14:14:09.000Z</time>
</trkpt>
<trkpt lat="42.60948" lon="-1.196568">
<ele>2110</ele>
<time>2013-07-13T14:14:10.000Z</time>
</trkpt>
<trkpt lat="42.609381" lon="-1.196556">
<ele>2108</ele>
<time>2013-07-13T14:14:11.000Z</time>
</trkpt>
<trkpt lat="42.609282" lon="-1.196551">
<ele>2105</ele>
<time>2013-07-13T14:14:12.000Z</time>
</trkpt>
<trkpt lat="42.609182" lon="-1.196554">
<ele>2104</ele>
<time>2013-07-13T14:14:13.000Z</time>
</trkpt>
<trkpt lat="42.609081" lon="-1.196561">
<ele>2101</ele>
<time>2013-07-13T14:14:14.000Z</time>
</trkpt>
<trkpt lat="42.608982" lon="-1.196572">
<ele>2099</ele>
<time>2013-07-13T14:14:15.000Z</time>
</trkpt>
<trkpt lat="42.608879" lon="-1.196588">
<ele>2096</ele>
<time>2013-07-13T14:14:16.000Z</time>
</trkpt>
<trkpt lat="42.608777" lon="-1.196602">
<ele>2093</ele>
<time>2013-07-13T14:14:17.000Z</time>
</trkpt>
<trkpt lat="42.608669" lon="-1.196619">
<ele>2091</ele>
<time>2013-07-13T14:14:18.000Z</time>
</trkpt>
<trkpt lat="42.608557" lon="-1.196637">
<ele>2089</ele>
<time>2013-07-13T14:14:19.000Z</time>
</trkpt>
<trkpt lat="42.608449" lon="-1.196656">
<ele>2088</ele>
<time>2013-07-13T14:14:20.000Z</time>
</trkpt>
<trkpt lat="42.608347" lon="-1.196681">
<ele>2086</ele>
<time>2013-07-13T14:14:21.000Z</time>
</trkpt>
<trkpt lat="42.608251" lon="-1.196703">
<ele>2085</ele>
<time>2013-07-13T14:14:22.000Z</time>
</trkpt>
<trkpt lat="42.608157" lon="-1.196722">
<ele>2083</ele>
<time>2013-07-13T14:14:23.000Z</time>
</trkpt>
<trkpt lat="42.608061" lon="-1.196738">
<ele>2081</ele>
<time>2013-07-13T14:14:24.000Z</time>
</trkpt>
<trkpt lat="42.607959" lon="-1.196753">
<ele>2077</ele>
<time>2013-07-13T14:14:25.000Z</time>
</trkpt>
<trkpt lat="42.607854" lon="-1.196764">
<ele>2074</ele>
<time>2013-07-13T14:14:26.000Z</time>
</trkpt>
<trkpt lat="42.607751" lon="-1.196774">
<ele>2071</ele>
<time>2013-07-13T14:14:27.000Z</time>
</trkpt>
<trkpt lat="42.607648" lon="-1.196779">
<ele>2068</ele>
<time>2013-07-13T14:14:28.000Z</time>
</trkpt>
<trkpt lat="42.607546" lon="-1.196774">
<ele>2066</ele>
<time>2013-07-13T14:14:29.000Z</time>
</trkpt>
<trkpt lat="42.60745" lon="-1.196762">
<ele>2064</ele>
<time>2013-07-13T14:14:30.000Z</time>
</trkpt>
<trkpt lat="42.607356" lon="-1.196747">
<ele>2061</ele>
<time>2013-07-13T14:14:31.000Z</time>
</trkpt>
<trkpt lat="42.607257" lon="-1.196734">
<ele>2058</ele>
<time>2013-07-13T14:14:32.000Z</time>
</trkpt>
<trkpt lat="42.607152" lon="-1.196727">
<ele>2054</ele>
<time>2013-07-13T14:14:33.000Z</time>
</trkpt>
<trkpt lat="42.607043" lon="-1.196721">
<ele>2051</ele>
<time>2013-07-13T14:14:34.000Z</time>
</trkpt>
<trkpt lat="42.606936" lon="-1.196716">
<ele>2049</ele>
<time>2013-07-13T14:14:35.000Z</time>
</trkpt>
<trkpt lat="42.606829" lon="-1.196711">
<ele>2046</ele>
<time>2013-07-13T14:14:36.000Z</time>
</trkpt>
<trkpt lat="42.606728" lon="-1.196711">
<ele>2044</ele>
<time>2013-07-13T14:14:37.000Z</time>
</trkpt>
<trkpt lat="42.606628" lon="-1.196721">
<ele>2042</ele>
<time>2013-07-13T14:14:38.000Z</time>
</trkpt>
<trkpt lat="42.606522" lon="-1.196739">
<ele>2038</ele>
<time>2013-07-13T14:14:39.000Z</time>
</trkpt>
<trkpt lat="42.606412" lon="-1.196757">
<ele>2037</ele>
<time>2013-07-13T14:14:40.000Z</time>
</trkpt>
<trkpt lat="42.606311" lon="-1.196775">
<ele>2035</ele>
<time>2013-07-13T14:14:41.000Z</time>
</trkpt>
<trkpt lat="42.606212" lon="-1.196791">
<ele>2032</ele>
<time>2013-07-13T14:14:42.000Z</time>
</trkpt>
<trkpt lat="42.606113" lon="-1.196806">
<ele>2031</ele>
<time>2013-07-13T14:14:43.000Z</time>
</trkpt>
<trkpt lat="42.60601" lon="-1.196819">
<ele>2028</ele>
<time>2013-07-13T14:14:44.000Z</time>
</trkpt>
<trkpt lat="42.605917" lon="-1.196832">
<ele>2027</ele>
<time>2013-07-13T14:14:45.000Z</time>
</trkpt>
<trkpt lat="42.605831" lon="-1.196848">
<ele>2025</ele>
<time>2013-07-13T14:14:46.000Z</time>
</trkpt>
<trkpt lat="42.605753" lon="-1.196863">
<ele>2022</ele>
<time>2013-07-13T14:14:47.000Z</time>
</trkpt>
<trkpt lat="42.605669" lon="-1.196873">
<ele>2019</ele>
<time>2013-07-13T14:14:48.000Z</time>
</trkpt>
<trkpt lat="42.60557" lon="-1.196879">
<ele>2016</ele>
<time>2013-07-13T14:14:49.000Z</time>
</trkpt>
<trkpt lat="42.605453" lon="-1.196883">
<ele>2012</ele>
<time>2013-07-13T14:14:50.000Z</time>
</trkpt>
<trkpt lat="42.60533" lon="-1.196896">
<ele>2007</ele>
<time>2013-07-13T14:14:51.000Z</time>
</trkpt>
<trkpt lat="42.605214" lon="-1.196915">
<ele>2005</ele>
<time>2013-07-13T14:14:52.000Z</time>
</trkpt>
<trkpt lat="42.605116" lon="-1.196935">
<ele>2004</ele>
<time>2013-07-13T14:14:53.000Z</time>
</trkpt>
<trkpt lat="42.605034" lon="-1.196948">
<ele>2004</ele>
<time>2013-07-13T14:14:54.000Z</time>
</trkpt>
<trkpt lat="42.604953" lon="-1.196953">
<ele>2002</ele>
<time>2013-07-13T14:14:55.000Z</time>
</trkpt>
<trkpt lat="42.604868" lon="-1.196954">
<ele>1999</ele>
<time>2013-07-13T14:14:56.000Z</time>
</trkpt>
<trkpt lat="42.604779" lon="-1.196957">
<ele>1996</ele>
<time>2013-07-13T14:14:57.000Z</time>
</trkpt>
<trkpt lat="42.604693" lon="-1.196967">
<ele>1993</ele>
<time>2013-07-13T14:14:58.000Z</time>
</trkpt>
<trkpt lat="42.604612" lon="-1.196983">
<ele>1992</ele>
<time>2013-07-13T14:14:59.000Z</time>
</trkpt>
<trkpt lat="42.604532" lon="-1.196996">
<ele>1990</ele>
<time>2013-07-13T14:15:00.000Z</time>
</trkpt>
<trkpt lat="42.604447" lon="-1.196999">
<ele>1988</ele>
<time>2013-07-13T14:15:01.000Z</time>
</trkpt>
<trkpt lat="42.604351" lon="-1.196995">
<ele>1987</ele>
<time>2013-07-13T14:15:02.000Z</time>
</trkpt>
<trkpt lat="42.604252" lon="-1.196991">
<ele>1986</ele>
<time>2013-07-13T14:15:03.000Z</time>
</trkpt>
<trkpt lat="42.604151" lon="-1.196993">
<ele>1984</ele>
<time>2013-07-13T14:15:04.000Z</time>
</trkpt>
<trkpt lat="42.604051" lon="-1.196994">
<ele>1982</ele>
<time>2013-07-13T14:15:05.000Z</time>
</trkpt>
<trkpt lat="42.603957" lon="-1.196996">
<ele>1980</ele>
<time>2013-07-13T14:15:06.000Z</time>
</trkpt>
<trkpt lat="42.603866" lon="-1.196992">
<ele>1981</ele>
<time>2013-07-13T14:15:07.000Z</time>
</trkpt>
<trkpt lat="42.603775" lon="-1.196989">
<ele>1983</ele>
<time>2013-07-13T14:15:08.000Z</time>
</trkpt>
<trkpt lat="42.603694" lon="-1.196992">
<ele>1984</ele>
<time>2013-07-13T14:15:09.000Z</time>
</trkpt>
<trkpt lat="42.603614" lon="-1.197">
<ele>1987</ele>
<time>2013-07-13T14:15:10.000Z</time>
</trkpt>
<trkpt lat="42.603531" lon="-1.197008">
<ele>1989</ele>
<time>2013-07-13T14:15:11.000Z</time>
</trkpt>
<trkpt lat="42.603447" lon="-1.197006">
<ele>1992</ele>
<time>2013-07-13T14:15:12.000Z</time>
</trkpt>
<trkpt lat="42.603363" lon="-1.196978">
<ele>1995</ele>
<time>2013-07-13T14:15:13.000Z</time>
</trkpt>
<trkpt lat="42.603277" lon="-1.19695">
<ele>1995</ele>
<time>2013-07-13T14:15:14.000Z</time>
</trkpt>
<trkpt lat="42.603185" lon="-1.19692">
<ele>1995</ele>
<time>2013-07-13T14:15:15.000Z</time>
</trkpt>
<trkpt lat="42.603085" lon="-1.196886">
<ele>1995</ele>
<time>2013-07-13T14:15:16.000Z</time>
</trkpt>
<trkpt lat="42.602981" lon="-1.196841">
<ele>1997</ele>
<time>2013-07-13T14:15:17.000Z</time>
</trkpt>
<trkpt lat="42.602884" lon="-1.196755">
<ele>1999</ele>
<time>2013-07-13T14:15:18.000Z</time>
</trkpt>
<trkpt lat="42.602791" lon="-1.196662">
<ele>2000</ele>
<time>2013-07-13T14:15:19.000Z</time>
</trkpt>
<trkpt lat="42.602704" lon="-1.196557">
<ele>2001</ele>
<time>2013-07-13T14:15:20.000Z</time>
</trkpt>
<trkpt lat="42.602622" lon="-1.196439">
<ele>2001</ele>
<time>2013-07-13T14:15:21.000Z</time>
</trkpt>
<trkpt lat="42.602553" lon="-1.196292">
<ele>2001</ele>
<time>2013-07-13T14:15:22.000Z</time>
</trkpt>
<trkpt lat="42.602493" lon="-1.196146">
<ele>2002</ele>
<time>2013-07-13T14:15:23.000Z</time>
</trkpt>
<trkpt lat="42.602471" lon="-1.195993">
<ele>2002</ele>
<time>2013-07-13T14:15:24.000Z</time>
</trkpt>
<trkpt lat="42.602479" lon="-1.195843">
<ele>2002</ele>
<time>2013-07-13T14:15:25.000Z</time>
</trkpt>
<trkpt lat="42.602491" lon="-1.195708">
<ele>2002</ele>
<time>2013-07-13T14:15:26.000Z</time>
</trkpt>
<trkpt lat="42.602508" lon="-1.195584">
<ele>2002</ele>
<time>2013-07-13T14:15:27.000Z</time>
</trkpt>
<trkpt lat="42.602526" lon="-1.195471">
<ele>2003</ele>
<time>2013-07-13T14:15:28.000Z</time>
</trkpt>
<trkpt lat="42.602548" lon="-1.195373">
<ele>2004</ele>
<time>2013-07-13T14:15:29.000Z</time>
</trkpt>
<trkpt lat="42.602594" lon="-1.195288">
<ele>2007</ele>
<time>2013-07-13T14:15:30.000Z</time>
</trkpt>
<trkpt lat="42.602644" lon="-1.195202">
<ele>2009</ele>
<time>2013-07-13T14:15:31.000Z</time>
</trkpt>
<trkpt lat="42.602708" lon="-1.195132">
<ele>2011</ele>
<time>2013-07-13T14:15:32.000Z</time>
</trkpt>
<trkpt lat="42.602765" lon="-1.195082">
<ele>2011</ele>
<time>2013-07-13T14:15:33.000Z</time>
</trkpt>
<trkpt lat="42.602797" lon="-1.195096">
<ele>2010</ele>
<time>2013-07-13T14:15:34.000Z</time>
</trkpt>
<trkpt lat="42.602819" lon="-1.195118">
<ele>2010</ele>
<time>2013-07-13T14:15:35.000Z</time>
</trkpt>
<trkpt lat="42.602834" lon="-1.195163">
<ele>2011</ele>
<time>2013-07-13T14:15:36.000Z</time>
</trkpt>
<trkpt lat="42.602841" lon="-1.195203">
<ele>2012</ele>
<time>2013-07-13T14:15:37.000Z</time>
</trkpt>
<trkpt lat="42.602837" lon="-1.195235">
<ele>2014</ele>
<time>2013-07-13T14:15:38.000Z</time>
</trkpt>
<trkpt lat="42.602812" lon="-1.195267">
<ele>2014</ele>
<time>2013-07-13T14:15:39.000Z</time>
</trkpt>
<trkpt lat="42.602767" lon="-1.195303">
<ele>2013</ele>
<time>2013-07-13T14:15:40.000Z</time>
</trkpt>
<trkpt lat="42.602705" lon="-1.195346">
<ele>2014</ele>
<time>2013-07-13T14:15:41.000Z</time>
</trkpt>
<trkpt lat="42.602636" lon="-1.195386">
<ele>2018</ele>
<time>2013-07-13T14:15:42.000Z</time>
</trkpt>
<trkpt lat="42.602565" lon="-1.195404">
<ele>2021</ele>
<time>2013-07-13T14:15:43.000Z</time>
</trkpt>
<trkpt lat="42.602492" lon="-1.1954">
<ele>2023</ele>
<time>2013-07-13T14:15:44.000Z</time>
</trkpt>
<trkpt lat="42.602409" lon="-1.195384">
<ele>2026</ele>
<time>2013-07-13T14:15:45.000Z</time>
</trkpt>
<trkpt lat="42.602318" lon="-1.195361">
<ele>2029</ele>
<time>2013-07-13T14:15:46.000Z</time>
</trkpt>
<trkpt lat="42.602218" lon="-1.195336">
<ele>2031</ele>
<time>2013-07-13T14:15:47.000Z</time>
</trkpt>
<trkpt lat="42.602111" lon="-1.195313">
<ele>2033</ele>
<time>2013-07-13T14:15:48.000Z</time>
</trkpt>
<trkpt lat="42.602001" lon="-1.195283">
<ele>2035</ele>
<time>2013-07-13T14:15:49.000Z</time>
</trkpt>
<trkpt lat="42.601899" lon="-1.195223">
<ele>2036</ele>
<time>2013-07-13T14:15:50.000Z</time>
</trkpt>
<trkpt lat="42.601799" lon="-1.195155">
<ele>2037</ele>
<time>2013-07-13T14:15:51.000Z</time>
</trkpt>
<trkpt lat="42.601702" lon="-1.195081">
<ele>2036</ele>
<time>2013-07-13T14:15:52.000Z</time>
</trkpt>
<trkpt lat="42.601605" lon="-1.194999">
<ele>2034</ele>
<time>2013-07-13T14:15:53.000Z</time>
</trkpt>
<trkpt lat="42.601503" lon="-1.194915">
<ele>2033</ele>
<time>2013-07-13T14:15:54.000Z</time>
</trkpt>
<trkpt lat="42.601398" lon="-1.19483">
<ele>2031</ele>
<time>2013-07-13T14:15:55.000Z</time>
</trkpt>
<trkpt lat="42.60129" lon="-1.194756">
<ele>2030</ele>
<time>2013-07-13T14:15:56.000Z</time>
</trkpt>
<trkpt lat="42.601181" lon="-1.194692">
<ele>2029</ele>
<time>2013-07-13T14:15:57.000Z</time>
</trkpt>
<trkpt lat="42.601071" lon="-1.194638">
<ele>2028</ele>
<time>2013-07-13T14:15:58.000Z</time>
</trkpt>
<trkpt lat="42.600959" lon="-1.194593">
<ele>2027</ele>
<time>2013-07-13T14:15:59.000Z</time>
</trkpt>
<trkpt lat="42.600841" lon="-1.194557">
<ele>2026</ele>
<time>2013-07-13T14:16:00.000Z</time>
</trkpt>
<trkpt lat="42.600719" lon="-1.194525">
<ele>2026</ele>
<time>2013-07-13T14:16:01.000Z</time>
</trkpt>
<trkpt lat="42.600602" lon="-1.194495">
<ele>2026</ele>
<time>2013-07-13T14:16:02.000Z</time>
</trkpt>
<trkpt lat="42.600492" lon="-1.194466">
<ele>2026</ele>
<time>2013-07-13T14:16:03.000Z</time>
</trkpt>
<trkpt lat="42.600389" lon="-1.194435">
<ele>2026</ele>
<time>2013-07-13T14:16:04.000Z</time>
</trkpt>
<trkpt lat="42.600291" lon="-1.1944">
<ele>2025</ele>
<time>2013-07-13T14:16:05.000Z</time>
</trkpt>
<trkpt lat="42.600196" lon="-1.194356">
<ele>2025</ele>
<time>2013-07-13T14:16:06.000Z</time>
</trkpt>
<trkpt lat="42.600102" lon="-1.194304">
<ele>2025</ele>
<time>2013-07-13T14:16:07.000Z</time>
</trkpt>
<trkpt lat="42.600007" lon="-1.194244">
<ele>2024</ele>
<time>2013-07-13T14:16:08.000Z</time>
</trkpt>
<trkpt lat="42.599914" lon="-1.194175">
<ele>2024</ele>
<time>2013-07-13T14:16:09.000Z</time>
</trkpt>
<trkpt lat="42.59982" lon="-1.194098">
<ele>2024</ele>
<time>2013-07-13T14:16:10.000Z</time>
</trkpt>
<trkpt lat="42.599725" lon="-1.194014">
<ele>2023</ele>
<time>2013-07-13T14:16:11.000Z</time>
</trkpt>
<trkpt lat="42.599628" lon="-1.193925">
<ele>2022</ele>
<time>2013-07-13T14:16:12.000Z</time>
</trkpt>
<trkpt lat="42.59953" lon="-1.193838">
<ele>2020</ele>
<time>2013-07-13T14:16:13.000Z</time>
</trkpt>
<trkpt lat="42.599428" lon="-1.193759">
<ele>2018</ele>
<time>2013-07-13T14:16:14.000Z</time>
</trkpt>
<trkpt lat="42.59932" lon="-1.193683">
<ele>2017</ele>
<time>2013-07-13T14:16:15.000Z</time>
</trkpt>
<trkpt lat="42.599217" lon="-1.193615">
<ele>2017</ele>
<time>2013-07-13T14:16:16.000Z</time>
</trkpt>
<trkpt lat="42.59912" lon="-1.193551">
<ele>2016</ele>
<time>2013-07-13T14:16:17.000Z</time>
</trkpt>
<trkpt lat="42.599022" lon="-1.193496">
<ele>2016</ele>
<time>2013-07-13T14:16:18.000Z</time>
</trkpt>
<trkpt lat="42.59892" lon="-1.193451">
<ele>2016</ele>
<time>2013-07-13T14:16:19.000Z</time>
</trkpt>
<trkpt lat="42.598806" lon="-1.193437">
<ele>2016</ele>
<time>2013-07-13T14:16:20.000Z</time>
</trkpt>
<trkpt lat="42.598696" lon="-1.193426">
<ele>2017</ele>
<time>2013-07-13T14:16:21.000Z</time>
</trkpt>
<trkpt lat="42.598597" lon="-1.193417">
<ele>2018</ele>
<time>2013-07-13T14:16:22.000Z</time>
</trkpt>
<trkpt lat="42.598511" lon="-1.193409">
<ele>2019</ele>
<time>2013-07-13T14:16:23.000Z</time>
</trkpt>
<trkpt lat="42.598425" lon="-1.193402">
<ele>2020</ele>
<time>2013-07-13T14:16:24.000Z</time>
</trkpt>
<trkpt lat="42.59833" lon="-1.193396">
<ele>2021</ele>
<time>2013-07-13T14:16:25.000Z</time>
</trkpt>
<trkpt lat="42.598229" lon="-1.193387">
<ele>2021</ele>
<time>2013-07-13T14:16:26.000Z</time>
</trkpt>
<trkpt lat="42.598123" lon="-1.193368">
<ele>2021</ele>
<time>2013-07-13T14:16:27.000Z</time>
</trkpt>
<trkpt lat="42.598008" lon="-1.193334">
<ele>2023</ele>
<time>2013-07-13T14:16:28.000Z</time>
</trkpt>
<trkpt lat="42.597891" lon="-1.193291">
<ele>2024</ele>
<time>2013-07-13T14:16:29.000Z</time>
</trkpt>
<trkpt lat="42.597774" lon="-1.193251">
<ele>2025</ele>
<time>2013-07-13T14:16:30.000Z</time>
</trkpt>
<trkpt lat="42.597659" lon="-1.193216">
<ele>2026</ele>
<time>2013-07-13T14:16:31.000Z</time>
</trkpt>
<trkpt lat="42.597547" lon="-1.19319">
<ele>2027</ele>
<time>2013-07-13T14:16:32.000Z</time>
</trkpt>
<trkpt lat="42.59744" lon="-1.193167">
<ele>2028</ele>
<time>2013-07-13T14:16:33.000Z</time>
</trkpt>
<trkpt lat="42.597341" lon="-1.193137">
<ele>2030</ele>
<time>2013-07-13T14:16:34.000Z</time>
</trkpt>
<trkpt lat="42.597244" lon="-1.193099">
<ele>2032</ele>
<time>2013-07-13T14:16:35.000Z</time>
</trkpt>
<trkpt lat="42.597142" lon="-1.193058">
<ele>2032</ele>
<time>2013-07-13T14:16:36.000Z</time>
</trkpt>
<trkpt lat="42.597032" lon="-1.193013">
<ele>2034</ele>
<time>2013-07-13T14:16:37.000Z</time>
</trkpt>
<trkpt lat="42.596918" lon="-1.192969">
<ele>2036</ele>
<time>2013-07-13T14:16:38.000Z</time>
</trkpt>
<trkpt lat="42.596807" lon="-1.192926">
<ele>2038</ele>
<time>2013-07-13T14:16:39.000Z</time>
</trkpt>
<trkpt lat="42.596699" lon="-1.192878">
<ele>2040</ele>
<time>2013-07-13T14:16:40.000Z</time>
</trkpt>
<trkpt lat="42.596588" lon="-1.192822">
<ele>2042</ele>
<time>2013-07-13T14:16:41.000Z</time>
</trkpt>
<trkpt lat="42.596483" lon="-1.192763">
<ele>2044</ele>
<time>2013-07-13T14:16:42.000Z</time>
</trkpt>
<trkpt lat="42.596387" lon="-1.192706">
<ele>2046</ele>
<time>2013-07-13T14:16:43.000Z</time>
</trkpt>
<trkpt lat="42.596295" lon="-1.192647">
<ele>2049</ele>
<time>2013-07-13T14:16:44.000Z</time>
</trkpt>
<trkpt lat="42.5962" lon="-1.192583">
<ele>2050</ele>
<time>2013-07-13T14:16:45.000Z</time>
</trkpt>
<trkpt lat="42.596105" lon="-1.192514">
<ele>2052</ele>
<time>2013-07-13T14:16:46.000Z</time>
</trkpt>
<trkpt lat="42.596008" lon="-1.192436">
<ele>2054</ele>
<time>2013-07-13T14:16:47.000Z</time>
</trkpt>
<trkpt lat="42.595904" lon="-1.192343">
<ele>2056</ele>
<time>2013-07-13T14:16:48.000Z</time>
</trkpt>
<trkpt lat="42.595813" lon="-1.192219">
<ele>2057</ele>
<time>2013-07-13T14:16:49.000Z</time>
</trkpt>
<trkpt lat="42.595723" lon="-1.192087">
<ele>2059</ele>
<time>2013-07-13T14:16:50.000Z</time>
</trkpt>
<trkpt lat="42.595643" lon="-1.191956">
<ele>2061</ele>
<time>2013-07-13T14:16:51.000Z</time>
</trkpt>
<trkpt lat="42.595592" lon="-1.191812">
<ele>2063</ele>
<time>2013-07-13T14:16:52.000Z</time>
</trkpt>
<trkpt lat="42.595552" lon="-1.191677">
<ele>2065</ele>
<time>2013-07-13T14:16:53.000Z</time>
</trkpt>
<trkpt lat="42.595543" lon="-1.19154">
<ele>2067</ele>
<time>2013-07-13T14:16:54.000Z</time>
</trkpt>
<trkpt lat="42.595541" lon="-1.191416">
<ele>2068</ele>
<time>2013-07-13T14:16:55.000Z</time>
</trkpt>
<trkpt lat="42.595545" lon="-1.191302">
<ele>2069</ele>
<time>2013-07-13T14:16:56.000Z</time>
</trkpt>
<trkpt lat="42.59557" lon="-1.191205">
<ele>2070</ele>
<time>2013-07-13T14:16:57.000Z</time>
</trkpt>
<trkpt lat="42.595607" lon="-1.191125">
<ele>2071</ele>
<time>2013-07-13T14:16:58.000Z</time>
</trkpt>
<trkpt lat="42.595646" lon="-1.191074">
<ele>2071</ele>
<time>2013-07-13T14:16:59.000Z</time>
</trkpt>
<trkpt lat="42.595701" lon="-1.191023">
<ele>2074</ele>
<time>2013-07-13T14:17:00.000Z</time>
</trkpt>
<trkpt lat="42.595756" lon="-1.190998">
<ele>2075</ele>
<time>2013-07-13T14:17:01.000Z</time>
</trkpt>
<trkpt lat="42.59579" lon="-1.191015">
<ele>2074</ele>
<time>2013-07-13T14:17:02.000Z</time>
</trkpt>
<trkpt lat="42.595809" lon="-1.191055">
<ele>2074</ele>
<time>2013-07-13T14:17:03.000Z</time>
</trkpt>
<trkpt lat="42.595814" lon="-1.191106">
<ele>2074</ele>
<time>2013-07-13T14:17:04.000Z</time>
</trkpt>
<trkpt lat="42.595807" lon="-1.191159">
<ele>2074</ele>
<time>2013-07-13T14:17:05.000Z</time>
</trkpt>
<trkpt lat="42.595797" lon="-1.191211">
<ele>2074</ele>
<time>2013-07-13T14:17:06.000Z</time>
</trkpt>
<trkpt lat="42.595775" lon="-1.19126">
<ele>2075</ele>
<time>2013-07-13T14:17:07.000Z</time>
</trkpt>
<trkpt lat="42.595748" lon="-1.19131">
<ele>2077</ele>
<time>2013-07-13T14:17:08.000Z</time>
</trkpt>
<trkpt lat="42.595719" lon="-1.191356">
<ele>2080</ele>
<time>2013-07-13T14:17:09.000Z</time>
</trkpt>
<trkpt lat="42.59568" lon="-1.191412">
<ele>2084</ele>
<time>2013-07-13T14:17:10.000Z</time>
</trkpt>
<trkpt lat="42.595635" lon="-1.191469">
<ele>2090</ele>
<time>2013-07-13T14:17:11.000Z</time>
</trkpt>
<trkpt lat="42.595572" lon="-1.191519">
<ele>2094</ele>
<time>2013-07-13T14:17:12.000Z</time>
</trkpt>
<trkpt lat="42.595494" lon="-1.191546">
<ele>2097</ele>
<time>2013-07-13T14:17:13.000Z</time>
</trkpt>
<trkpt lat="42.595416" lon="-1.191568">
<ele>2098</ele>
<time>2013-07-13T14:17:14.000Z</time>
</trkpt>
<trkpt lat="42.595335" lon="-1.191586">
<ele>2101</ele>
<time>2013-07-13T14:17:15.000Z</time>
</trkpt>
<trkpt lat="42.595252" lon="-1.1916">
<ele>2103</ele>
<time>2013-07-13T14:17:16.000Z</time>
</trkpt>
<trkpt lat="42.595166" lon="-1.191606">
<ele>2105</ele>
<time>2013-07-13T14:17:17.000Z</time>
</trkpt>
<trkpt lat="42.59508" lon="-1.191604">
<ele>2107</ele>
<time>2013-07-13T14:17:18.000Z</time>
</trkpt>
<trkpt lat="42.594978" lon="-1.191566">
<ele>2109</ele>
<time>2013-07-13T14:17:19.000Z</time>
</trkpt>
<trkpt lat="42.594874" lon="-1.191524">
<ele>2111</ele>
<time>2013-07-13T14:17:20.000Z</time>
</trkpt>
<trkpt lat="42.59477" lon="-1.191473">
<ele>2112</ele>
<time>2013-07-13T14:17:21.000Z</time>
</trkpt>
<trkpt lat="42.59467" lon="-1.191413">
<ele>2114</ele>
<time>2013-07-13T14:17:22.000Z</time>
</trkpt>
<trkpt lat="42.594572" lon="-1.191344">
<ele>2116</ele>
<time>2013-07-13T14:17:23.000Z</time>
</trkpt>
<trkpt lat="42.594474" lon="-1.191266">
<ele>2118</ele>
<time>2013-07-13T14:17:24.000Z</time>
</trkpt>
<trkpt lat="42.594376" lon="-1.19118">
<ele>2119</ele>
<time>2013-07-13T14:17:25.000Z</time>
</trkpt>
<trkpt lat="42.594282" lon="-1.191087">
<ele>2121</ele>
<time>2013-07-13T14:17:26.000Z</time>
</trkpt>
<trkpt lat="42.594194" lon="-1.190997">
<ele>2122</ele>
<time>2013-07-13T14:17:27.000Z</time>
</trkpt>
<trkpt lat="42.59412" lon="-1.19088">
<ele>2123</ele>
<time>2013-07-13T14:17:28.000Z</time>
</trkpt>
<trkpt lat="42.59405" lon="-1.190767">
<ele>2124</ele>
<time>2013-07-13T14:17:29.000Z</time>
</trkpt>
<trkpt lat="42.593979" lon="-1.190653">
<ele>2126</ele>
<time>2013-07-13T14:17:30.000Z</time>
</trkpt>
<trkpt lat="42.593911" lon="-1.190536">
<ele>2127</ele>
<time>2013-07-13T14:17:31.000Z</time>
</trkpt>
<trkpt lat="42.593844" lon="-1.190412">
<ele>2128</ele>
<time>2013-07-13T14:17:32.000Z</time>
</trkpt>
<trkpt lat="42.593799" lon="-1.190263">
<ele>2129</ele>
<time>2013-07-13T14:17:33.000Z</time>
</trkpt>
<trkpt lat="42.593762" lon="-1.190113">
<ele>2131</ele>
<time>2013-07-13T14:17:34.000Z</time>
</trkpt>
<trkpt lat="42.593748" lon="-1.189961">
<ele>2132</ele>
<time>2013-07-13T14:17:35.000Z</time>
</trkpt>
<trkpt lat="42.593741" lon="-1.189832">
<ele>2134</ele>
<time>2013-07-13T14:17:36.000Z</time>
</trkpt>
<trkpt lat="42.593755" lon="-1.189723">
<ele>2135</ele>
<time>2013-07-13T14:17:37.000Z</time>
</trkpt>
<trkpt lat="42.593771" lon="-1.189622">
<ele>2136</ele>
<time>2013-07-13T14:17:38.000Z</time>
</trkpt>
<trkpt lat="42.593791" lon="-1.18953">
<ele>2137</ele>
<time>2013-07-13T14:17:39.000Z</time>
</trkpt>
<trkpt lat="42.593828" lon="-1.189447">
<ele>2138</ele>
<time>2013-07-13T14:17:40.000Z</time>
</trkpt>
<trkpt lat="42.593868" lon="-1.18937">
<ele>2139</ele>
<time>2013-07-13T14:17:41.000Z</time>
</trkpt>
<trkpt lat="42.593917" lon="-1.189321">
<ele>2140</ele>
<time>2013-07-13T14:17:42.000Z</time>
</trkpt>
<trkpt lat="42.59396" lon="-1.189304">
<ele>2141</ele>
<time>2013-07-13T14:17:43.000Z</time>
</trkpt>
<trkpt lat="42.593986" lon="-1.189312">
<ele>2142</ele>
<time>2013-07-13T14:17:44.000Z</time>
</trkpt>
<trkpt lat="42.594009" lon="-1.189336">
<ele>2142</ele>
<time>2013-07-13T14:17:45.000Z</time>
</trkpt>
<trkpt lat="42.594033" lon="-1.189371">
<ele>2143</ele>
<time>2013-07-13T14:17:46.000Z</time>
</trkpt>
<trkpt lat="42.594046" lon="-1.189427">
<ele>2141</ele>
<time>2013-07-13T14:17:47.000Z</time>
</trkpt>
<trkpt lat="42.594042" lon="-1.189485">
<ele>2142</ele>
<time>2013-07-13T14:17:48.000Z</time>
</trkpt>
<trkpt lat="42.594018" lon="-1.189543">
<ele>2142</ele>
<time>2013-07-13T14:17:49.000Z</time>
</trkpt>
<trkpt lat="42.593983" lon="-1.189606">
<ele>2143</ele>
<time>2013-07-13T14:17:50.000Z</time>
</trkpt>
<trkpt lat="42.593944" lon="-1.189669">
<ele>2145</ele>
<time>2013-07-13T14:17:51.000Z</time>
</trkpt>
<trkpt lat="42.59389" lon="-1.189736">
<ele>2148</ele>
<time>2013-07-13T14:17:52.000Z</time>
</trkpt>
<trkpt lat="42.59382" lon="-1.189803">
<ele>2152</ele>
<time>2013-07-13T14:17:53.000Z</time>
</trkpt>
<trkpt lat="42.59374" lon="-1.189845">
<ele>2153</ele>
<time>2013-07-13T14:17:54.000Z</time>
</trkpt>
<trkpt lat="42.593661" lon="-1.189885">
<ele>2154</ele>
<time>2013-07-13T14:17:55.000Z</time>
</trkpt>
<trkpt lat="42.59358" lon="-1.189924">
<ele>2155</ele>
<time>2013-07-13T14:17:56.000Z</time>
</trkpt>
<trkpt lat="42.593503" lon="-1.189954">
<ele>2157</ele>
<time>2013-07-13T14:17:57.000Z</time>
</trkpt>
<trkpt lat="42.593427" lon="-1.189981">
<ele>2160</ele>
<time>2013-07-13T14:17:58.000Z</time>
</trkpt>
<trkpt lat="42.593342" lon="-1.190007">
<ele>2162</ele>
<time>2013-07-13T14:17:59.000Z</time>
</trkpt>
<trkpt lat="42.59325" lon="-1.190033">
<ele>2163</ele>
<time>2013-07-13T14:18:00.000Z</time>
</trkpt>
<trkpt lat="42.593148" lon="-1.19006">
<ele>2164</ele>
<time>2013-07-13T14:18:01.000Z</time>
</trkpt>
<trkpt lat="42.593042" lon="-1.19008">
<ele>2164</ele>
<time>2013-07-13T14:18:02.000Z</time>
</trkpt>
<trkpt lat="42.592933" lon="-1.190091">
<ele>2166</ele>
<time>2013-07-13T14:18:03.000Z</time>
</trkpt>
<trkpt lat="42.592822" lon="-1.190094">
<ele>2167</ele>
<time>2013-07-13T14:18:04.000Z</time>
</trkpt>
<trkpt lat="42.59271" lon="-1.190088">
<ele>2167</ele>
<time>2013-07-13T14:18:05.000Z</time>
</trkpt>
<trkpt lat="42.592596" lon="-1.190074">
<ele>2168</ele>
<time>2013-07-13T14:18:06.000Z</time>
</trkpt>
<trkpt lat="42.592473" lon="-1.190055">
<ele>2168</ele>
<time>2013-07-13T14:18:07.000Z</time>
</trkpt>
<trkpt lat="42.592351" lon="-1.190029">
<ele>2168</ele>
<time>2013-07-13T14:18:08.000Z</time>
</trkpt>
<trkpt lat="42.592231" lon="-1.189994">
<ele>2168</ele>
<time>2013-07-13T14:18:09.000Z</time>
</trkpt>
<trkpt lat="42.592112" lon="-1.189952">
<ele>2169</ele>
<time>2013-07-13T14:18:10.000Z</time>
</trkpt>
<trkpt lat="42.59199" lon="-1.189905">
<ele>2168</ele>
<time>2013-07-13T14:18:11.000Z</time>
</trkpt>
<trkpt lat="42.591867" lon="-1.189853">
<ele>2169</ele>
<time>2013-07-13T14:18:12.000Z</time>
</trkpt>
<trkpt lat="42.591744" lon="-1.189801">
<ele>2169</ele>
<time>2013-07-13T14:18:13.000Z</time>
</trkpt>
<trkpt lat="42.591623" lon="-1.18975">
<ele>2169</ele>
<time>2013-07-13T14:18:14.000Z</time>
</trkpt>
<trkpt lat="42.591502" lon="-1.189705">
<ele>2169</ele>
<time>2013-07-13T14:18:15.000Z</time>
</trkpt>
<trkpt lat="42.591376" lon="-1.189667">
<ele>2169</ele>
<time>2013-07-13T14:18:16.000Z</time>
</trkpt>
<trkpt lat="42.591249" lon="-1.189637">
<ele>2168</ele>
<time>2013-07-13T14:18:17.000Z</time>
</trkpt>
<trkpt lat="42.591123" lon="-1.189615">
<ele>2168</ele>
<time>2013-07-13T14:18:18.000Z</time>
</trkpt>
<trkpt lat="42.591002" lon="-1.189598">
<ele>2168</ele>
<time>2013-07-13T14:18:19.000Z</time>
</trkpt>
<trkpt lat="42.590883" lon="-1.189582">
<ele>2168</ele>
<time>2013-07-13T14:18:20.000Z</time>
</trkpt>
<trkpt lat="42.590772" lon="-1.189569">
<ele>2168</ele>
<time>2013-07-13T14:18:21.000Z</time>
</trkpt>
<trkpt lat="42.590662" lon="-1.18955">
<ele>2168</ele>
<time>2013-07-13T14:18:22.000Z</time>
</trkpt>
<trkpt lat="42.590549" lon="-1.189529">
<ele>2167</ele>
<time>2013-07-13T14:18:23.000Z</time>
</trkpt>
<trkpt lat="42.590427" lon="-1.1895">
<ele>2165</ele>
<time>2013-07-13T14:18:24.000Z</time>
</trkpt>
<trkpt lat="42.590299" lon="-1.189471">
<ele>2164</ele>
<time>2013-07-13T14:18:25.000Z</time>
</trkpt>
<trkpt lat="42.590178" lon="-1.18944">
<ele>2163</ele>
<time>2013-07-13T14:18:26.000Z</time>
</trkpt>
<trkpt lat="42.590067" lon="-1.189413">
<ele>2162</ele>
<time>2013-07-13T14:18:27.000Z</time>
</trkpt>
<trkpt lat="42.589959" lon="-1.189392">
<ele>2160</ele>
<time>2013-07-13T14:18:28.000Z</time>
</trkpt>
<trkpt lat="42.589848" lon="-1.189371">
<ele>2158</ele>
<time>2013-07-13T14:18:29.000Z</time>
</trkpt>
<trkpt lat="42.589731" lon="-1.189348">
<ele>2155</ele>
<time>2013-07-13T14:18:30.000Z</time>
</trkpt>
<trkpt lat="42.589607" lon="-1.189319">
<ele>2153</ele>
<time>2013-07-13T14:18:31.000Z</time>
</trkpt>
<trkpt lat="42.589485" lon="-1.189289">
<ele>2152</ele>
<time>2013-07-13T14:18:32.000Z</time>
</trkpt>
<trkpt lat="42.589371" lon="-1.189258">
<ele>2150</ele>
<time>2013-07-13T14:18:33.000Z</time>
</trkpt>
<trkpt lat="42.589265" lon="-1.189231">
<ele>2148</ele>
<time>2013-07-13T14:18:34.000Z</time>
</trkpt>
<trkpt lat="42.58916" lon="-1.189205">
<ele>2146</ele>
<time>2013-07-13T14:18:35.000Z</time>
</trkpt>
<trkpt lat="42.589042" lon="-1.189175">
<ele>2144</ele>
<time>2013-07-13T14:18:36.000Z</time>
</trkpt>
<trkpt lat="42.588913" lon="-1.18915">
<ele>2141</ele>
<time>2013-07-13T14:18:37.000Z</time>
</trkpt>
<trkpt lat="42.588784" lon="-1.189127">
<ele>2138</ele>
<time>2013-07-13T14:18:38.000Z</time>
</trkpt>
<trkpt lat="42.588664" lon="-1.189111">
<ele>2136</ele>
<time>2013-07-13T14:18:39.000Z</time>
</trkpt>
<trkpt lat="42.588552" lon="-1.189095">
<ele>2135</ele>
<time>2013-07-13T14:18:40.000Z</time>
</trkpt>
<trkpt lat="42.588442" lon="-1.189078">
<ele>2134</ele>
<time>2013-07-13T14:18:41.000Z</time>
</trkpt>
<trkpt lat="42.58833" lon="-1.189061">
<ele>2132</ele>
<time>2013-07-13T14:18:42.000Z</time>
</trkpt>
<trkpt lat="42.58821" lon="-1.189037">
<ele>2130</ele>
<time>2013-07-13T14:18:43.000Z</time>
</trkpt>
<trkpt lat="42.588084" lon="-1.189011">
<ele>2128</ele>
<time>2013-07-13T14:18:44.000Z</time>
</trkpt>
<trkpt lat="42.58796" lon="-1.188989">
<ele>2127</ele>
<time>2013-07-13T14:18:45.000Z</time>
</trkpt>
<trkpt lat="42.587846" lon="-1.188974">
<ele>2127</ele>
<time>2013-07-13T14:18:46.000Z</time>
</trkpt>
<trkpt lat="42.587741" lon="-1.188961">
<ele>2126</ele>
<time>2013-07-13T14:18:47.000Z</time>
</trkpt>
<trkpt lat="42.587634" lon="-1.188945">
<ele>2124</ele>
<time>2013-07-13T14:18:48.000Z</time>
</trkpt>
<trkpt lat="42.587516" lon="-1.188916">
<ele>2122</ele>
<time>2013-07-13T14:18:49.000Z</time>
</trkpt>
<trkpt lat="42.587392" lon="-1.188881">
<ele>2119</ele>
<time>2013-07-13T14:18:50.000Z</time>
</trkpt>
<trkpt lat="42.587265" lon="-1.188847">
<ele>2118</ele>
<time>2013-07-13T14:18:51.000Z</time>
</trkpt>
<trkpt lat="42.587138" lon="-1.188824">
<ele>2116</ele>
<time>2013-07-13T14:18:52.000Z</time>
</trkpt>
<trkpt lat="42.587014" lon="-1.188808">
<ele>2116</ele>
<time>2013-07-13T14:18:53.000Z</time>
</trkpt>
<trkpt lat="42.586888" lon="-1.188796">
<ele>2114</ele>
<time>2013-07-13T14:18:54.000Z</time>
</trkpt>
<trkpt lat="42.58676" lon="-1.188784">
<ele>2113</ele>
<time>2013-07-13T14:18:55.000Z</time>
</trkpt>
<trkpt lat="42.586637" lon="-1.188771">
<ele>2112</ele>
<time>2013-07-13T14:18:56.000Z</time>
</trkpt>
<trkpt lat="42.586517" lon="-1.188759">
<ele>2110</ele>
<time>2013-07-13T14:18:57.000Z</time>
</trkpt>
<trkpt lat="42.5864" lon="-1.188748">
<ele>2108</ele>
<time>2013-07-13T14:18:58.000Z</time>
</trkpt>
<trkpt lat="42.586284" lon="-1.188741">
<ele>2105</ele>
<time>2013-07-13T14:18:59.000Z</time>
</trkpt>
<trkpt lat="42.586161" lon="-1.188733">
<ele>2102</ele>
<time>2013-07-13T14:19:00.000Z</time>
</trkpt>
<trkpt lat="42.586029" lon="-1.18872">
<ele>2099</ele>
<time>2013-07-13T14:19:01.000Z</time>
</trkpt>
<trkpt lat="42.585896" lon="-1.188705">
<ele>2096</ele>
<time>2013-07-13T14:19:02.000Z</time>
</trkpt>
<trkpt lat="42.585771" lon="-1.18869">
<ele>2095</ele>
<time>2013-07-13T14:19:03.000Z</time>
</trkpt>
<trkpt lat="42.585656" lon="-1.18867">
<ele>2093</ele>
<time>2013-07-13T14:19:04.000Z</time>
</trkpt>
<trkpt lat="42.585551" lon="-1.188651">
<ele>2092</ele>
<time>2013-07-13T14:19:05.000Z</time>
</trkpt>
<trkpt lat="42.585452" lon="-1.188634">
<ele>2089</ele>
<time>2013-07-13T14:19:06.000Z</time>
</trkpt>
<trkpt lat="42.585351" lon="-1.18862">
<ele>2085</ele>
<time>2013-07-13T14:19:07.000Z</time>
</trkpt>
<trkpt lat="42.585243" lon="-1.1886">
<ele>2081</ele>
<time>2013-07-13T14:19:08.000Z</time>
</trkpt>
<trkpt lat="42.585128" lon="-1.188568">
<ele>2077</ele>
<time>2013-07-13T14:19:09.000Z</time>
</trkpt>
<trkpt lat="42.58502" lon="-1.188484">
<ele>2071</ele>
<time>2013-07-13T14:19:10.000Z</time>
</trkpt>
<trkpt lat="42.584909" lon="-1.188387">
<ele>2066</ele>
<time>2013-07-13T14:19:11.000Z</time>
</trkpt>
<trkpt lat="42.584802" lon="-1.188287">
<ele>2064</ele>
<time>2013-07-13T14:19:12.000Z</time>
</trkpt>
<trkpt lat="42.584708" lon="-1.1882">
<ele>2063</ele>
<time>2013-07-13T14:19:13.000Z</time>
</trkpt>
<trkpt lat="42.584614" lon="-1.188159">
<ele>2063</ele>
<time>2013-07-13T14:19:14.000Z</time>
</trkpt>
<trkpt lat="42.584524" lon="-1.188122">
<ele>2063</ele>
<time>2013-07-13T14:19:15.000Z</time>
</trkpt>
<trkpt lat="42.584434" lon="-1.188085">
<ele>2061</ele>
<time>2013-07-13T14:19:16.000Z</time>
</trkpt>
<trkpt lat="42.584344" lon="-1.188039">
<ele>2060</ele>
<time>2013-07-13T14:19:17.000Z</time>
</trkpt>
<trkpt lat="42.584259" lon="-1.187998">
<ele>2058</ele>
<time>2013-07-13T14:19:18.000Z</time>
</trkpt>
<trkpt lat="42.584167" lon="-1.187991">
<ele>2056</ele>
<time>2013-07-13T14:19:19.000Z</time>
</trkpt>
<trkpt lat="42.584071" lon="-1.18799">
<ele>2052</ele>
<time>2013-07-13T14:19:20.000Z</time>
</trkpt>
<trkpt lat="42.583965" lon="-1.187987">
<ele>2050</ele>
<time>2013-07-13T14:19:21.000Z</time>
</trkpt>
<trkpt lat="42.583858" lon="-1.187978">
<ele>2047</ele>
<time>2013-07-13T14:19:22.000Z</time>
</trkpt>
<trkpt lat="42.583757" lon="-1.187971">
<ele>2044</ele>
<time>2013-07-13T14:19:23.000Z</time>
</trkpt>
<trkpt lat="42.58366" lon="-1.187975">
<ele>2042</ele>
<time>2013-07-13T14:19:24.000Z</time>
</trkpt>
<trkpt lat="42.583565" lon="-1.187993">
<ele>2041</ele>
<time>2013-07-13T14:19:25.000Z</time>
</trkpt>
<trkpt lat="42.583473" lon="-1.188018">
<ele>2037</ele>
<time>2013-07-13T14:19:26.000Z</time>
</trkpt>
<trkpt lat="42.583383" lon="-1.188042">
<ele>2036</ele>
<time>2013-07-13T14:19:27.000Z</time>
</trkpt>
<trkpt lat="42.583291" lon="-1.188062">
<ele>2034</ele>
<time>2013-07-13T14:19:28.000Z</time>
</trkpt>
<trkpt lat="42.583191" lon="-1.188078">
<ele>2033</ele>
<time>2013-07-13T14:19:29.000Z</time>
</trkpt>
<trkpt lat="42.583087" lon="-1.188097">
<ele>2031</ele>
<time>2013-07-13T14:19:30.000Z</time>
</trkpt>
<trkpt lat="42.582985" lon="-1.188119">
<ele>2030</ele>
<time>2013-07-13T14:19:31.000Z</time>
</trkpt>
<trkpt lat="42.582885" lon="-1.188143">
<ele>2028</ele>
<time>2013-07-13T14:19:32.000Z</time>
</trkpt>
<trkpt lat="42.582788" lon="-1.188169">
<ele>2026</ele>
<time>2013-07-13T14:19:33.000Z</time>
</trkpt>
<trkpt lat="42.58269" lon="-1.1882">
<ele>2025</ele>
<time>2013-07-13T14:19:34.000Z</time>
</trkpt>
<trkpt lat="42.582585" lon="-1.188232">
<ele>2023</ele>
<time>2013-07-13T14:19:35.000Z</time>
</trkpt>
<trkpt lat="42.582482" lon="-1.188263">
<ele>2021</ele>
<time>2013-07-13T14:19:36.000Z</time>
</trkpt>
<trkpt lat="42.582376" lon="-1.188283">
<ele>2018</ele>
<time>2013-07-13T14:19:37.000Z</time>
</trkpt>
<trkpt lat="42.582276" lon="-1.188297">
<ele>2015</ele>
<time>2013-07-13T14:19:38.000Z</time>
</trkpt>
<trkpt lat="42.582174" lon="-1.188303">
<ele>2012</ele>
<time>2013-07-13T14:19:39.000Z</time>
</trkpt>
<trkpt lat="42.582072" lon="-1.18831">
<ele>2008</ele>
<time>2013-07-13T14:19:40.000Z</time>
</trkpt>
<trkpt lat="42.58197" lon="-1.188318">
<ele>2006</ele>
<time>2013-07-13T14:19:41.000Z</time>
</trkpt>
<trkpt lat="42.581869" lon="-1.18833">
<ele>2004</ele>
<time>2013-07-13T14:19:42.000Z</time>
</trkpt>
<trkpt lat="42.581768" lon="-1.188348">
<ele>2001</ele>
<time>2013-07-13T14:19:43.000Z</time>
</trkpt>
<trkpt lat="42.581664" lon="-1.188374">
<ele>1998</ele>
<time>2013-07-13T14:19:44.000Z</time>
</trkpt>
<trkpt lat="42.581562" lon="-1.188405">
<ele>1995</ele>
<time>2013-07-13T14:19:45.000Z</time>
</trkpt>
<trkpt lat="42.581462" lon="-1.188435">
<ele>1994</ele>
<time>2013-07-13T14:19:46.000Z</time>
</trkpt>
<trkpt lat="42.581365" lon="-1.188465">
<ele>1993</ele>
<time>2013-07-13T14:19:47.000Z</time>
</trkpt>
<trkpt lat="42.581268" lon="-1.18849">
<ele>1992</ele>
<time>2013-07-13T14:19:48.000Z</time>
</trkpt>
<trkpt lat="42.581175" lon="-1.188507">
<ele>1991</ele>
<time>2013-07-13T14:19:49.000Z</time>
</trkpt>
<trkpt lat="42.581087" lon="-1.188513">
<ele>1989</ele>
<time>2013-07-13T14:19:50.000Z</time>
</trkpt>
<trkpt lat="42.580998" lon="-1.188514">
<ele>1986</ele>
<time>2013-07-13T14:19:51.000Z</time>
</trkpt>
<trkpt lat="42.580905" lon="-1.188509">
<ele>1982</ele>
<time>2013-07-13T14:19:52.000Z</time>
</trkpt>
<trkpt lat="42.580803" lon="-1.188503">
<ele>1979</ele>
<time>2013-07-13T14:19:53.000Z</time>
</trkpt>
<trkpt lat="42.580693" lon="-1.18849">
<ele>1977</ele>
<time>2013-07-13T14:19:54.000Z</time>
</trkpt>
<trkpt lat="42.580586" lon="-1.188473">
<ele>1975</ele>
<time>2013-07-13T14:19:55.000Z</time>
</trkpt>
<trkpt lat="42.580487" lon="-1.18845">
<ele>1974</ele>
<time>2013-07-13T14:19:56.000Z</time>
</trkpt>
<trkpt lat="42.580391" lon="-1.188423">
<ele>1970</ele>
<time>2013-07-13T14:19:57.000Z</time>
</trkpt>
<trkpt lat="42.580294" lon="-1.188392">
<ele>1968</ele>
<time>2013-07-13T14:19:58.000Z</time>
</trkpt>
<trkpt lat="42.580186" lon="-1.18836">
<ele>1966</ele>
<time>2013-07-13T14:19:59.000Z</time>
</trkpt>
<trkpt lat="42.580072" lon="-1.188332">
<ele>1964</ele>
<time>2013-07-13T14:20:00.000Z</time>
</trkpt>
<trkpt lat="42.579964" lon="-1.188312">
<ele>1962</ele>
<time>2013-07-13T14:20:01.000Z</time>
</trkpt>
<trkpt lat="42.579865" lon="-1.188297">
<ele>1961</ele>
<time>2013-07-13T14:20:02.000Z</time>
</trkpt>
<trkpt lat="42.579771" lon="-1.188284">
<ele>1959</ele>
<time>2013-07-13T14:20:03.000Z</time>
</trkpt>
<trkpt lat="42.579674" lon="-1.188274">
<ele>1959</ele>
<time>2013-07-13T14:20:04.000Z</time>
</trkpt>
<trkpt lat="42.579568" lon="-1.188264">
<ele>1957</ele>
<time>2013-07-13T14:20:05.000Z</time>
</trkpt>
<trkpt lat="42.579457" lon="-1.188258">
<ele>1955</ele>
<time>2013-07-13T14:20:06.000Z</time>
</trkpt>
<trkpt lat="42.579347" lon="-1.188254">
<ele>1952</ele>
<time>2013-07-13T14:20:07.000Z</time>
</trkpt>
<trkpt lat="42.579243" lon="-1.188255">
<ele>1951</ele>
<time>2013-07-13T14:20:08.000Z</time>
</trkpt>
<trkpt lat="42.579141" lon="-1.188259">
<ele>1950</ele>
<time>2013-07-13T14:20:09.000Z</time>
</trkpt>
<trkpt lat="42.579037" lon="-1.188263">
<ele>1948</ele>
<time>2013-07-13T14:20:10.000Z</time>
</trkpt>
<trkpt lat="42.578931" lon="-1.188266">
<ele>1947</ele>
<time>2013-07-13T14:20:11.000Z</time>
</trkpt>
<trkpt lat="42.578823" lon="-1.188268">
<ele>1945</ele>
<time>2013-07-13T14:20:12.000Z</time>
</trkpt>
<trkpt lat="42.578713" lon="-1.188263">
<ele>1943</ele>
<time>2013-07-13T14:20:13.000Z</time>
</trkpt>
<trkpt lat="42.578599" lon="-1.188255">
<ele>1941</ele>
<time>2013-07-13T14:20:14.000Z</time>
</trkpt>
<trkpt lat="42.578488" lon="-1.188244">
<ele>1940</ele>
<time>2013-07-13T14:20:15.000Z</time>
</trkpt>
<trkpt lat="42.578381" lon="-1.188228">
<ele>1939</ele>
<time>2013-07-13T14:20:16.000Z</time>
</trkpt>
<trkpt lat="42.578276" lon="-1.188208">
<ele>1938</ele>
<time>2013-07-13T14:20:17.000Z</time>
</trkpt>
<trkpt lat="42.578172" lon="-1.188183">
<ele>1936</ele>
<time>2013-07-13T14:20:18.000Z</time>
</trkpt>
<trkpt lat="42.578068" lon="-1.188152">
<ele>1936</ele>
<time>2013-07-13T14:20:19.000Z</time>
</trkpt>
<trkpt lat="42.577966" lon="-1.188118">
<ele>1935</ele>
<time>2013-07-13T14:20:20.000Z</time>
</trkpt>
<trkpt lat="42.577868" lon="-1.188086">
<ele>1935</ele>
<time>2013-07-13T14:20:21.000Z</time>
</trkpt>
<trkpt lat="42.577777" lon="-1.18806">
<ele>1934</ele>
<time>2013-07-13T14:20:22.000Z</time>
</trkpt>
<trkpt lat="42.577684" lon="-1.188039">
<ele>1932</ele>
<time>2013-07-13T14:20:23.000Z</time>
</trkpt>
<trkpt lat="42.577584" lon="-1.188023">
<ele>1931</ele>
<time>2013-07-13T14:20:24.000Z</time>
</trkpt>
<trkpt lat="42.577476" lon="-1.188005">
<ele>1929</ele>
<time>2013-07-13T14:20:25.000Z</time>
</trkpt>
<trkpt lat="42.577364" lon="-1.187992">
<ele>1927</ele>
<time>2013-07-13T14:20:26.000Z</time>
</trkpt>
<trkpt lat="42.577261" lon="-1.187988">
<ele>1926</ele>
<time>2013-07-13T14:20:27.000Z</time>
</trkpt>
<trkpt lat="42.577167" lon="-1.187994">
<ele>1926</ele>
<time>2013-07-13T14:20:28.000Z</time>
</trkpt>
<trkpt lat="42.577075" lon="-1.188006">
<ele>1925</ele>
<time>2013-07-13T14:20:29.000Z</time>
</trkpt>
<trkpt lat="42.576974" lon="-1.188019">
<ele>1924</ele>
<time>2013-07-13T14:20:30.000Z</time>
</trkpt>
<trkpt lat="42.576868" lon="-1.188033">
<ele>1922</ele>
<time>2013-07-13T14:20:31.000Z</time>
</trkpt>
<trkpt lat="42.576755" lon="-1.188041">
<ele>1919</ele>
<time>2013-07-13T14:20:32.000Z</time>
</trkpt>
<trkpt lat="42.576645" lon="-1.188052">
<ele>1919</ele>
<time>2013-07-13T14:20:33.000Z</time>
</trkpt>
<trkpt lat="42.576537" lon="-1.188066">
<ele>1918</ele>
<time>2013-07-13T14:20:34.000Z</time>
</trkpt>
<trkpt lat="42.576431" lon="-1.188088">
<ele>1917</ele>
<time>2013-07-13T14:20:35.000Z</time>
</trkpt>
<trkpt lat="42.576327" lon="-1.188113">
<ele>1916</ele>
<time>2013-07-13T14:20:36.000Z</time>
</trkpt>
<trkpt lat="42.576222" lon="-1.188138">
<ele>1913</ele>
<time>2013-07-13T14:20:37.000Z</time>
</trkpt>
<trkpt lat="42.576113" lon="-1.188156">
<ele>1912</ele>
<time>2013-07-13T14:20:38.000Z</time>
</trkpt>
<trkpt lat="42.576004" lon="-1.188175">
<ele>1911</ele>
<time>2013-07-13T14:20:39.000Z</time>
</trkpt>
<trkpt lat="42.575894" lon="-1.188194">
<ele>1909</ele>
<time>2013-07-13T14:20:40.000Z</time>
</trkpt>
<trkpt lat="42.575789" lon="-1.188216">
<ele>1908</ele>
<time>2013-07-13T14:20:41.000Z</time>
</trkpt>
<trkpt lat="42.575688" lon="-1.18824">
<ele>1908</ele>
<time>2013-07-13T14:20:42.000Z</time>
</trkpt>
<trkpt lat="42.575586" lon="-1.188262">
<ele>1908</ele>
<time>2013-07-13T14:20:43.000Z</time>
</trkpt>
<trkpt lat="42.57548" lon="-1.188277">
<ele>1908</ele>
<time>2013-07-13T14:20:44.000Z</time>
</trkpt>
<trkpt lat="42.575372" lon="-1.188288">
<ele>1908</ele>
<time>2013-07-13T14:20:45.000Z</time>
</trkpt>
<trkpt lat="42.575261" lon="-1.188299">
<ele>1906</ele>
<time>2013-07-13T14:20:46.000Z</time>
</trkpt>
<trkpt lat="42.575152" lon="-1.188309">
<ele>1904</ele>
<time>2013-07-13T14:20:47.000Z</time>
</trkpt>
<trkpt lat="42.575043" lon="-1.18832">
<ele>1903</ele>
<time>2013-07-13T14:20:48.000Z</time>
</trkpt>
<trkpt lat="42.574934" lon="-1.18833">
<ele>1903</ele>
<time>2013-07-13T14:20:49.000Z</time>
</trkpt>
<trkpt lat="42.574826" lon="-1.188339">
<ele>1902</ele>
<time>2013-07-13T14:20:50.000Z</time>
</trkpt>
<trkpt lat="42.574714" lon="-1.188349">
<ele>1902</ele>
<time>2013-07-13T14:20:51.000Z</time>
</trkpt>
<trkpt lat="42.574606" lon="-1.188363">
<ele>1902</ele>
<time>2013-07-13T14:20:52.000Z</time>
</trkpt>
<trkpt lat="42.574498" lon="-1.188383">
<ele>1902</ele>
<time>2013-07-13T14:20:53.000Z</time>
</trkpt>
<trkpt lat="42.574393" lon="-1.188408">
<ele>1902</ele>
<time>2013-07-13T14:20:54.000Z</time>
</trkpt>
<trkpt lat="42.57429" lon="-1.188433">
<ele>1901</ele>
<time>2013-07-13T14:20:55.000Z</time>
</trkpt>
<trkpt lat="42.574189" lon="-1.188462">
<ele>1901</ele>
<time>2013-07-13T14:20:56.000Z</time>
</trkpt>
<trkpt lat="42.574086" lon="-1.18849">
<ele>1900</ele>
<time>2013-07-13T14:20:57.000Z</time>
</trkpt>
<trkpt lat="42.573982" lon="-1.18852">
<ele>1900</ele>
<time>2013-07-13T14:20:58.000Z</time>
</trkpt>
<trkpt lat="42.57388" lon="-1.188555">
<ele>1899</ele>
<time>2013-07-13T14:20:59.000Z</time>
</trkpt>
<trkpt lat="42.573776" lon="-1.188591">
<ele>1899</ele>
<time>2013-07-13T14:21:00.000Z</time>
</trkpt>
<trkpt lat="42.573672" lon="-1.188627">
<ele>1899</ele>
<time>2013-07-13T14:21:01.000Z</time>
</trkpt>
<trkpt lat="42.573571" lon="-1.18866">
<ele>1897</ele>
<time>2013-07-13T14:21:02.000Z</time>
</trkpt>
<trkpt lat="42.573474" lon="-1.188687">
<ele>1896</ele>
<time>2013-07-13T14:21:03.000Z</time>
</trkpt>
<trkpt lat="42.573381" lon="-1.188712">
<ele>1896</ele>
<time>2013-07-13T14:21:04.000Z</time>
</trkpt>
<trkpt lat="42.573287" lon="-1.188734">
<ele>1896</ele>
<time>2013-07-13T14:21:05.000Z</time>
</trkpt>
<trkpt lat="42.573193" lon="-1.188756">
<ele>1894</ele>
<time>2013-07-13T14:21:06.000Z</time>
</trkpt>
<trkpt lat="42.573094" lon="-1.188783">
<ele>1893</ele>
<time>2013-07-13T14:21:07.000Z</time>
</trkpt>
<trkpt lat="42.572991" lon="-1.188811">
<ele>1892</ele>
<time>2013-07-13T14:21:08.000Z</time>
</trkpt>
<trkpt lat="42.572887" lon="-1.188839">
<ele>1891</ele>
<time>2013-07-13T14:21:09.000Z</time>
</trkpt>
<trkpt lat="42.572786" lon="-1.188866">
<ele>1890</ele>
<time>2013-07-13T14:21:10.000Z</time>
</trkpt>
<trkpt lat="42.572688" lon="-1.188893">
<ele>1889</ele>
<time>2013-07-13T14:21:11.000Z</time>
</trkpt>
<trkpt lat="42.572594" lon="-1.188918">
<ele>1889</ele>
<time>2013-07-13T14:21:12.000Z</time>
</trkpt>
<trkpt lat="42.572504" lon="-1.188942">
<ele>1889</ele>
<time>2013-07-13T14:21:13.000Z</time>
</trkpt>
<trkpt lat="42.572412" lon="-1.188961">
<ele>1888</ele>
<time>2013-07-13T14:21:14.000Z</time>
</trkpt>
<trkpt lat="42.572318" lon="-1.188978">
<ele>1888</ele>
<time>2013-07-13T14:21:15.000Z</time>
</trkpt>
<trkpt lat="42.572221" lon="-1.188994">
<ele>1888</ele>
<time>2013-07-13T14:21:16.000Z</time>
</trkpt>
<trkpt lat="42.572124" lon="-1.189012">
<ele>1887</ele>
<time>2013-07-13T14:21:17.000Z</time>
</trkpt>
<trkpt lat="42.57203" lon="-1.189034">
<ele>1887</ele>
<time>2013-07-13T14:21:18.000Z</time>
</trkpt>
<trkpt lat="42.571939" lon="-1.189057">
<ele>1887</ele>
<time>2013-07-13T14:21:19.000Z</time>
</trkpt>
<trkpt lat="42.571848" lon="-1.189079">
<ele>1886</ele>
<time>2013-07-13T14:21:20.000Z</time>
</trkpt>
<trkpt lat="42.571754" lon="-1.189098">
<ele>1886</ele>
<time>2013-07-13T14:21:21.000Z</time>
</trkpt>
<trkpt lat="42.57166" lon="-1.189117">
<ele>1885</ele>
<time>2013-07-13T14:21:22.000Z</time>
</trkpt>
<trkpt lat="42.571561" lon="-1.189138">
<ele>1885</ele>
<time>2013-07-13T14:21:23.000Z</time>
</trkpt>
<trkpt lat="42.571462" lon="-1.189163">
<ele>1884</ele>
<time>2013-07-13T14:21:24.000Z</time>
</trkpt>
<trkpt lat="42.571363" lon="-1.18919">
<ele>1883</ele>
<time>2013-07-13T14:21:25.000Z</time>
</trkpt>
<trkpt lat="42.571268" lon="-1.18922">
<ele>1883</ele>
<time>2013-07-13T14:21:26.000Z</time>
</trkpt>
<trkpt lat="42.571174" lon="-1.189254">
<ele>1882</ele>
<time>2013-07-13T14:21:27.000Z</time>
</trkpt>
<trkpt lat="42.571082" lon="-1.189288">
<ele>1881</ele>
<time>2013-07-13T14:21:28.000Z</time>
</trkpt>
<trkpt lat="42.570989" lon="-1.189327">
<ele>1881</ele>
<time>2013-07-13T14:21:29.000Z</time>
</trkpt>
<trkpt lat="42.570894" lon="-1.189365">
<ele>1880</ele>
<time>2013-07-13T14:21:30.000Z</time>
</trkpt>
<trkpt lat="42.5708" lon="-1.189399">
<ele>1879</ele>
<time>2013-07-13T14:21:31.000Z</time>
</trkpt>
<trkpt lat="42.57071" lon="-1.189431">
<ele>1879</ele>
<time>2013-07-13T14:21:32.000Z</time>
</trkpt>
<trkpt lat="42.570618" lon="-1.189462">
<ele>1878</ele>
<time>2013-07-13T14:21:33.000Z</time>
</trkpt>
<trkpt lat="42.570526" lon="-1.189498">
<ele>1878</ele>
<time>2013-07-13T14:21:34.000Z</time>
</trkpt>
<trkpt lat="42.570437" lon="-1.189541">
<ele>1878</ele>
<time>2013-07-13T14:21:35.000Z</time>
</trkpt>
<trkpt lat="42.570351" lon="-1.189588">
<ele>1878</ele>
<time>2013-07-13T14:21:36.000Z</time>
</trkpt>
<trkpt lat="42.570267" lon="-1.189632">
<ele>1878</ele>
<time>2013-07-13T14:21:37.000Z</time>
</trkpt>
<trkpt lat="42.570183" lon="-1.189672">
<ele>1878</ele>
<time>2013-07-13T14:21:38.000Z</time>
</trkpt>
<trkpt lat="42.570096" lon="-1.189709">
<ele>1877</ele>
<time>2013-07-13T14:21:39.000Z</time>
</trkpt>
<trkpt lat="42.570004" lon="-1.189749">
<ele>1876</ele>
<time>2013-07-13T14:21:40.000Z</time>
</trkpt>
<trkpt lat="42.569911" lon="-1.189799">
<ele>1875</ele>
<time>2013-07-13T14:21:41.000Z</time>
</trkpt>
<trkpt lat="42.569824" lon="-1.189856">
<ele>1875</ele>
<time>2013-07-13T14:21:42.000Z</time>
</trkpt>
<trkpt lat="42.569747" lon="-1.189912">
<ele>1875</ele>
<time>2013-07-13T14:21:43.000Z</time>
</trkpt>
<trkpt lat="42.569671" lon="-1.189962">
<ele>1874</ele>
<time>2013-07-13T14:21:44.000Z</time>
</trkpt>
<trkpt lat="42.569592" lon="-1.190008">
<ele>1873</ele>
<time>2013-07-13T14:21:45.000Z</time>
</trkpt>
<trkpt lat="42.569511" lon="-1.190055">
<ele>1872</ele>
<time>2013-07-13T14:21:46.000Z</time>
</trkpt>
<trkpt lat="42.569424" lon="-1.190104">
<ele>1870</ele>
<time>2013-07-13T14:21:47.000Z</time>
</trkpt>
<trkpt lat="42.569339" lon="-1.190154">
<ele>1869</ele>
<time>2013-07-13T14:21:48.000Z</time>
</trkpt>
<trkpt lat="42.569255" lon="-1.190202">
<ele>1869</ele>
<time>2013-07-13T14:21:49.000Z</time>
</trkpt>
<trkpt lat="42.569166" lon="-1.190249">
<ele>1868</ele>
<time>2013-07-13T14:21:50.000Z</time>
</trkpt>
<trkpt lat="42.569075" lon="-1.19029">
<ele>1867</ele>
<time>2013-07-13T14:21:51.000Z</time>
</trkpt>
<trkpt lat="42.568986" lon="-1.190324">
<ele>1866</ele>
<time>2013-07-13T14:21:52.000Z</time>
</trkpt>
<trkpt lat="42.568899" lon="-1.190358">
<ele>1865</ele>
<time>2013-07-13T14:21:53.000Z</time>
</trkpt>
<trkpt lat="42.568814" lon="-1.190394">
<ele>1865</ele>
<time>2013-07-13T14:21:54.000Z</time>
</trkpt>
<trkpt lat="42.568728" lon="-1.190435">
<ele>1864</ele>
<time>2013-07-13T14:21:55.000Z</time>
</trkpt>
<trkpt lat="42.568641" lon="-1.190479">
<ele>1862</ele>
<time>2013-07-13T14:21:56.000Z</time>
</trkpt>
<trkpt lat="42.568548" lon="-1.190521">
<ele>1861</ele>
<time>2013-07-13T14:21:57.000Z</time>
</trkpt>
<trkpt lat="42.568456" lon="-1.190559">
<ele>1860</ele>
<time>2013-07-13T14:21:58.000Z</time>
</trkpt>
<trkpt lat="42.568369" lon="-1.190596">
<ele>1858</ele>
<time>2013-07-13T14:21:59.000Z</time>
</trkpt>
<trkpt lat="42.568285" lon="-1.190638">
<ele>1856</ele>
<time>2013-07-13T14:22:00.000Z</time>
</trkpt>
<trkpt lat="42.568204" lon="-1.190683">
<ele>1856</ele>
<time>2013-07-13T14:22:01.000Z</time>
</trkpt>
<trkpt lat="42.568123" lon="-1.190729">
<ele>1856</ele>
<time>2013-07-13T14:22:02.000Z</time>
</trkpt>
<trkpt lat="42.568039" lon="-1.190772">
<ele>1855</ele>
<time>2013-07-13T14:22:03.000Z</time>
</trkpt>
<trkpt lat="42.56795" lon="-1.190809">
<ele>1853</ele>
<time>2013-07-13T14:22:04.000Z</time>
</trkpt>
<trkpt lat="42.56786" lon="-1.190842">
<ele>1853</ele>
<time>2013-07-13T14:22:05.000Z</time>
</trkpt>
<trkpt lat="42.567767" lon="-1.190875">
<ele>1852</ele>
<time>2013-07-13T14:22:06.000Z</time>
</trkpt>
<trkpt lat="42.567673" lon="-1.190905">
<ele>1851</ele>
<time>2013-07-13T14:22:07.000Z</time>
</trkpt>
<trkpt lat="42.567577" lon="-1.190937">
<ele>1850</ele>
<time>2013-07-13T14:22:08.000Z</time>
</trkpt>
<trkpt lat="42.567482" lon="-1.190962">
<ele>1850</ele>
<time>2013-07-13T14:22:09.000Z</time>
</trkpt>
<trkpt lat="42.56739" lon="-1.190986">
<ele>1849</ele>
<time>2013-07-13T14:22:10.000Z</time>
</trkpt>
<trkpt lat="42.567299" lon="-1.191011">
<ele>1847</ele>
<time>2013-07-13T14:22:11.000Z</time>
</trkpt>
<trkpt lat="42.567207" lon="-1.191036">
<ele>1844</ele>
<time>2013-07-13T14:22:12.000Z</time>
</trkpt>
<trkpt lat="42.567114" lon="-1.191064">
<ele>1842</ele>
<time>2013-07-13T14:22:13.000Z</time>
</trkpt>
<trkpt lat="42.567017" lon="-1.191097">
<ele>1840</ele>
<time>2013-07-13T14:22:14.000Z</time>
</trkpt>
<trkpt lat="42.56692" lon="-1.191131">
<ele>1840</ele>
<time>2013-07-13T14:22:15.000Z</time>
</trkpt>
<trkpt lat="42.566822" lon="-1.191164">
<ele>1840</ele>
<time>2013-07-13T14:22:16.000Z</time>
</trkpt>
<trkpt lat="42.566727" lon="-1.191198">
<ele>1838</ele>
<time>2013-07-13T14:22:17.000Z</time>
</trkpt>
<trkpt lat="42.566634" lon="-1.191232">
<ele>1836</ele>
<time>2013-07-13T14:22:18.000Z</time>
</trkpt>
<trkpt lat="42.566537" lon="-1.191268">
<ele>1835</ele>
<time>2013-07-13T14:22:19.000Z</time>
</trkpt>
<trkpt lat="42.56644" lon="-1.191303">
<ele>1834</ele>
<time>2013-07-13T14:22:20.000Z</time>
</trkpt>
<trkpt lat="42.566343" lon="-1.191338">
<ele>1833</ele>
<time>2013-07-13T14:22:21.000Z</time>
</trkpt>
<trkpt lat="42.566249" lon="-1.191372">
<ele>1833</ele>
<time>2013-07-13T14:22:22.000Z</time>
</trkpt>
<trkpt lat="42.566157" lon="-1.191404">
<ele>1833</ele>
<time>2013-07-13T14:22:23.000Z</time>
</trkpt>
<trkpt lat="42.566066" lon="-1.191434">
<ele>1833</ele>
<time>2013-07-13T14:22:24.000Z</time>
</trkpt>
<trkpt lat="42.565973" lon="-1.191459">
<ele>1833</ele>
<time>2013-07-13T14:22:25.000Z</time>
</trkpt>
<trkpt lat="42.565879" lon="-1.19148">
<ele>1832</ele>
<time>2013-07-13T14:22:26.000Z</time>
</trkpt>
<trkpt lat="42.565786" lon="-1.191498">
<ele>1832</ele>
<time>2013-07-13T14:22:27.000Z</time>
</trkpt>
<trkpt lat="42.565691" lon="-1.191517">
<ele>1831</ele>
<time>2013-07-13T14:22:28.000Z</time>
</trkpt>
<trkpt lat="42.565596" lon="-1.191537">
<ele>1830</ele>
<time>2013-07-13T14:22:29.000Z</time>
</trkpt>
<trkpt lat="42.565499" lon="-1.191559">
<ele>1828</ele>
<time>2013-07-13T14:22:30.000Z</time>
</trkpt>
<trkpt lat="42.565403" lon="-1.191585">
<ele>1827</ele>
<time>2013-07-13T14:22:31.000Z</time>
</trkpt>
<trkpt lat="42.565307" lon="-1.191611">
<ele>1825</ele>
<time>2013-07-13T14:22:32.000Z</time>
</trkpt>
<trkpt lat="42.565214" lon="-1.191631">
<ele>1825</ele>
<time>2013-07-13T14:22:33.000Z</time>
</trkpt>
<trkpt lat="42.565121" lon="-1.19165">
<ele>1825</ele>
<time>2013-07-13T14:22:34.000Z</time>
</trkpt>
<trkpt lat="42.565027" lon="-1.19167">
<ele>1825</ele>
<time>2013-07-13T14:22:35.000Z</time>
</trkpt>
<trkpt lat="42.564933" lon="-1.191692">
<ele>1824</ele>
<time>2013-07-13T14:22:36.000Z</time>
</trkpt>
<trkpt lat="42.564841" lon="-1.191716">
<ele>1823</ele>
<time>2013-07-13T14:22:37.000Z</time>
</trkpt>
<trkpt lat="42.56475" lon="-1.191741">
<ele>1821</ele>
<time>2013-07-13T14:22:38.000Z</time>
</trkpt>
<trkpt lat="42.564661" lon="-1.191766">
<ele>1819</ele>
<time>2013-07-13T14:22:39.000Z</time>
</trkpt>
<trkpt lat="42.564574" lon="-1.191795">
<ele>1818</ele>
<time>2013-07-13T14:22:40.000Z</time>
</trkpt>
<trkpt lat="42.564492" lon="-1.19183">
<ele>1817</ele>
<time>2013-07-13T14:22:41.000Z</time>
</trkpt>
<trkpt lat="42.564413" lon="-1.191868">
<ele>1816</ele>
<time>2013-07-13T14:22:42.000Z</time>
</trkpt>
<trkpt lat="42.564334" lon="-1.191906">
<ele>1815</ele>
<time>2013-07-13T14:22:43.000Z</time>
</trkpt>
<trkpt lat="42.564252" lon="-1.191936">
<ele>1814</ele>
<time>2013-07-13T14:22:44.000Z</time>
</trkpt>
<trkpt lat="42.564167" lon="-1.191962">
<ele>1813</ele>
<time>2013-07-13T14:22:45.000Z</time>
</trkpt>
<trkpt lat="42.564083" lon="-1.191988">
<ele>1812</ele>
<time>2013-07-13T14:22:46.000Z</time>
</trkpt>
<trkpt lat="42.564" lon="-1.192016">
<ele>1812</ele>
<time>2013-07-13T14:22:47.000Z</time>
</trkpt>
<trkpt lat="42.563917" lon="-1.192045">
<ele>1811</ele>
<time>2013-07-13T14:22:48.000Z</time>
</trkpt>
<trkpt lat="42.563831" lon="-1.192074">
<ele>1811</ele>
<time>2013-07-13T14:22:49.000Z</time>
</trkpt>
<trkpt lat="42.563742" lon="-1.192105">
<ele>1810</ele>
<time>2013-07-13T14:22:50.000Z</time>
</trkpt>
<trkpt lat="42.56365" lon="-1.192137">
<ele>1809</ele>
<time>2013-07-13T14:22:51.000Z</time>
</trkpt>
<trkpt lat="42.563558" lon="-1.192168">
<ele>1808</ele>
<time>2013-07-13T14:22:52.000Z</time>
</trkpt>
<trkpt lat="42.563464" lon="-1.192198">
<ele>1807</ele>
<time>2013-07-13T14:22:53.000Z</time>
</trkpt>
<trkpt lat="42.563373" lon="-1.192225">
<ele>1805</ele>
<time>2013-07-13T14:22:54.000Z</time>
</trkpt>
<trkpt lat="42.563284" lon="-1.192251">
<ele>1804</ele>
<time>2013-07-13T14:22:55.000Z</time>
</trkpt>
<trkpt lat="42.563198" lon="-1.192282">
<ele>1805</ele>
<time>2013-07-13T14:22:56.000Z</time>
</trkpt>
<trkpt lat="42.563113" lon="-1.192319">
<ele>1806</ele>
<time>2013-07-13T14:22:57.000Z</time>
</trkpt>
<trkpt lat="42.56303" lon="-1.192356">
<ele>1807</ele>
<time>2013-07-13T14:22:58.000Z</time>
</trkpt>
<trkpt lat="42.562944" lon="-1.192394">
<ele>1807</ele>
<time>2013-07-13T14:22:59.000Z</time>
</trkpt>
<trkpt lat="42.562854" lon="-1.192432">
<ele>1807</ele>
<time>2013-07-13T14:23:00.000Z</time>
</trkpt>
<trkpt lat="42.562765" lon="-1.192473">
<ele>1807</ele>
<time>2013-07-13T14:23:01.000Z</time>
</trkpt>
<trkpt lat="42.562682" lon="-1.192515">
<ele>1807</ele>
<time>2013-07-13T14:23:02.000Z</time>
</trkpt>
<trkpt lat="42.562595" lon="-1.19256">
<ele>1805</ele>
<time>2013-07-13T14:23:03.000Z</time>
</trkpt>
<trkpt lat="42.562504" lon="-1.192608">
<ele>1804</ele>
<time>2013-07-13T14:23:04.000Z</time>
</trkpt>
<trkpt lat="42.562408" lon="-1.192659">
<ele>1803</ele>
<time>2013-07-13T14:23:05.000Z</time>
</trkpt>
<trkpt lat="42.562313" lon="-1.192706">
<ele>1802</ele>
<time>2013-07-13T14:23:06.000Z</time>
</trkpt>
<trkpt lat="42.562222" lon="-1.19275">
<ele>1802</ele>
<time>2013-07-13T14:23:07.000Z</time>
</trkpt>
<trkpt lat="42.562134" lon="-1.192791">
<ele>1802</ele>
<time>2013-07-13T14:23:08.000Z</time>
</trkpt>
<trkpt lat="42.562043" lon="-1.192829">
<ele>1799</ele>
<time>2013-07-13T14:23:09.000Z</time>
</trkpt>
<trkpt lat="42.56195" lon="-1.192867">
<ele>1796</ele>
<time>2013-07-13T14:23:10.000Z</time>
</trkpt>
<trkpt lat="42.561853" lon="-1.192909">
<ele>1796</ele>
<time>2013-07-13T14:23:11.000Z</time>
</trkpt>
<trkpt lat="42.56175" lon="-1.192958">
<ele>1791</ele>
<time>2013-07-13T14:23:12.000Z</time>
</trkpt>
<trkpt lat="42.561648" lon="-1.193011">
<ele>1791</ele>
<time>2013-07-13T14:23:13.000Z</time>
</trkpt>
<trkpt lat="42.561561" lon="-1.193054">
<ele>1790</ele>
<time>2013-07-13T14:23:14.000Z</time>
</trkpt>
<trkpt lat="42.561484" lon="-1.193094">
<ele>1788</ele>
<time>2013-07-13T14:23:15.000Z</time>
</trkpt>
<trkpt lat="42.561415" lon="-1.193127">
<ele>1787</ele>
<time>2013-07-13T14:23:16.000Z</time>
</trkpt>
<trkpt lat="42.561341" lon="-1.193162">
<ele>1787</ele>
<time>2013-07-13T14:23:17.000Z</time>
</trkpt>
<trkpt lat="42.561262" lon="-1.1932">
<ele>1786</ele>
<time>2013-07-13T14:23:18.000Z</time>
</trkpt>
<trkpt lat="42.561173" lon="-1.193245">
<ele>1784</ele>
<time>2013-07-13T14:23:19.000Z</time>
</trkpt>
<trkpt lat="42.561082" lon="-1.193289">
<ele>1783</ele>
<time>2013-07-13T14:23:20.000Z</time>
</trkpt>
<trkpt lat="42.560991" lon="-1.193338">
<ele>1784</ele>
<time>2013-07-13T14:23:21.000Z</time>
</trkpt>
<trkpt lat="42.560917" lon="-1.193389">
<ele>1785</ele>
<time>2013-07-13T14:23:22.000Z</time>
</trkpt>
<trkpt lat="42.560848" lon="-1.193435">
<ele>1785</ele>
<time>2013-07-13T14:23:23.000Z</time>
</trkpt>
<trkpt lat="42.56077" lon="-1.19348">
<ele>1785</ele>
<time>2013-07-13T14:23:24.000Z</time>
</trkpt>
<trkpt lat="42.560687" lon="-1.193528">
<ele>1784</ele>
<time>2013-07-13T14:23:25.000Z</time>
</trkpt>
<trkpt lat="42.560593" lon="-1.193574">
<ele>1781</ele>
<time>2013-07-13T14:23:26.000Z</time>
</trkpt>
<trkpt lat="42.560495" lon="-1.193617">
<ele>1781</ele>
<time>2013-07-13T14:23:27.000Z</time>
</trkpt>
<trkpt lat="42.560405" lon="-1.193655">
<ele>1782</ele>
<time>2013-07-13T14:23:28.000Z</time>
</trkpt>
<trkpt lat="42.560324" lon="-1.193688">
<ele>1783</ele>
<time>2013-07-13T14:23:29.000Z</time>
</trkpt>
<trkpt lat="42.560247" lon="-1.193723">
<ele>1782</ele>
<time>2013-07-13T14:23:30.000Z</time>
</trkpt>
<trkpt lat="42.560166" lon="-1.193759">
<ele>1782</ele>
<time>2013-07-13T14:23:31.000Z</time>
</trkpt>
<trkpt lat="42.560077" lon="-1.193794">
<ele>1783</ele>
<time>2013-07-13T14:23:32.000Z</time>
</trkpt>
<trkpt lat="42.559982" lon="-1.193833">
<ele>1781</ele>
<time>2013-07-13T14:23:33.000Z</time>
</trkpt>
<trkpt lat="42.559891" lon="-1.19387">
<ele>1781</ele>
<time>2013-07-13T14:23:34.000Z</time>
</trkpt>
<trkpt lat="42.5598" lon="-1.1939">
<ele>1782</ele>
<time>2013-07-13T14:23:35.000Z</time>
</trkpt>
<trkpt lat="42.559706" lon="-1.193929">
<ele>1779</ele>
<time>2013-07-13T14:23:36.000Z</time>
</trkpt>
<trkpt lat="42.559604" lon="-1.193959">
<ele>1778</ele>
<time>2013-07-13T14:23:37.000Z</time>
</trkpt>
<trkpt lat="42.559492" lon="-1.193994">
<ele>1775</ele>
<time>2013-07-13T14:23:38.000Z</time>
</trkpt>
<trkpt lat="42.559381" lon="-1.194029">
<ele>1774</ele>
<time>2013-07-13T14:23:39.000Z</time>
</trkpt>
<trkpt lat="42.559277" lon="-1.194068">
<ele>1772</ele>
<time>2013-07-13T14:23:40.000Z</time>
</trkpt>
<trkpt lat="42.559181" lon="-1.194105">
<ele>1771</ele>
<time>2013-07-13T14:23:41.000Z</time>
</trkpt>
<trkpt lat="42.559086" lon="-1.194141">
<ele>1770</ele>
<time>2013-07-13T14:23:42.000Z</time>
</trkpt>
<trkpt lat="42.558994" lon="-1.194178">
<ele>1767</ele>
<time>2013-07-13T14:23:43.000Z</time>
</trkpt>
<trkpt lat="42.558903" lon="-1.194216">
<ele>1764</ele>
<time>2013-07-13T14:23:44.000Z</time>
</trkpt>
<trkpt lat="42.558811" lon="-1.194255">
<ele>1762</ele>
<time>2013-07-13T14:23:45.000Z</time>
</trkpt>
<trkpt lat="42.558715" lon="-1.194293">
<ele>1761</ele>
<time>2013-07-13T14:23:46.000Z</time>
</trkpt>
<trkpt lat="42.558618" lon="-1.194332">
<ele>1759</ele>
<time>2013-07-13T14:23:47.000Z</time>
</trkpt>
<trkpt lat="42.558515" lon="-1.194373">
<ele>1757</ele>
<time>2013-07-13T14:23:48.000Z</time>
</trkpt>
<trkpt lat="42.558405" lon="-1.194407">
<ele>1756</ele>
<time>2013-07-13T14:23:49.000Z</time>
</trkpt>
<trkpt lat="42.558298" lon="-1.194434">
<ele>1755</ele>
<time>2013-07-13T14:23:50.000Z</time>
</trkpt>
<trkpt lat="42.558202" lon="-1.194454">
<ele>1755</ele>
<time>2013-07-13T14:23:51.000Z</time>
</trkpt>
<trkpt lat="42.558115" lon="-1.194477">
<ele>1753</ele>
<time>2013-07-13T14:23:52.000Z</time>
</trkpt>
<trkpt lat="42.558031" lon="-1.194504">
<ele>1752</ele>
<time>2013-07-13T14:23:53.000Z</time>
</trkpt>
<trkpt lat="42.557947" lon="-1.194532">
<ele>1751</ele>
<time>2013-07-13T14:23:54.000Z</time>
</trkpt>
<trkpt lat="42.557852" lon="-1.194555">
<ele>1749</ele>
<time>2013-07-13T14:23:55.000Z</time>
</trkpt>
<trkpt lat="42.557749" lon="-1.194572">
<ele>1748</ele>
<time>2013-07-13T14:23:56.000Z</time>
</trkpt>
<trkpt lat="42.557645" lon="-1.194589">
<ele>1747</ele>
<time>2013-07-13T14:23:57.000Z</time>
</trkpt>
<trkpt lat="42.557547" lon="-1.194607">
<ele>1746</ele>
<time>2013-07-13T14:23:58.000Z</time>
</trkpt>
<trkpt lat="42.557456" lon="-1.194629">
<ele>1746</ele>
<time>2013-07-13T14:23:59.000Z</time>
</trkpt>
<trkpt lat="42.557369" lon="-1.194651">
<ele>1746</ele>
<time>2013-07-13T14:24:00.000Z</time>
</trkpt>
<trkpt lat="42.55728" lon="-1.194673">
<ele>1745</ele>
<time>2013-07-13T14:24:01.000Z</time>
</trkpt>
<trkpt lat="42.557187" lon="-1.194691">
<ele>1743</ele>
<time>2013-07-13T14:24:02.000Z</time>
</trkpt>
<trkpt lat="42.557087" lon="-1.194709">
<ele>1742</ele>
<time>2013-07-13T14:24:03.000Z</time>
</trkpt>
<trkpt lat="42.556982" lon="-1.194723">
<ele>1741</ele>
<time>2013-07-13T14:24:04.000Z</time>
</trkpt>
<trkpt lat="42.556877" lon="-1.194738">
<ele>1740</ele>
<time>2013-07-13T14:24:05.000Z</time>
</trkpt>
<trkpt lat="42.556773" lon="-1.194757">
<ele>1740</ele>
<time>2013-07-13T14:24:06.000Z</time>
</trkpt>
<trkpt lat="42.556674" lon="-1.19478">
<ele>1739</ele>
<time>2013-07-13T14:24:07.000Z</time>
</trkpt>
<trkpt lat="42.556579" lon="-1.194804">
<ele>1737</ele>
<time>2013-07-13T14:24:08.000Z</time>
</trkpt>
<trkpt lat="42.556488" lon="-1.194826">
<ele>1735</ele>
<time>2013-07-13T14:24:09.000Z</time>
</trkpt>
<trkpt lat="42.556397" lon="-1.194856">
<ele>1735</ele>
<time>2013-07-13T14:24:10.000Z</time>
</trkpt>
<trkpt lat="42.556305" lon="-1.194892">
<ele>1733</ele>
<time>2013-07-13T14:24:11.000Z</time>
</trkpt>
<trkpt lat="42.556209" lon="-1.194931">
<ele>1730</ele>
<time>2013-07-13T14:24:12.000Z</time>
</trkpt>
<trkpt lat="42.556108" lon="-1.194971">
<ele>1728</ele>
<time>2013-07-13T14:24:13.000Z</time>
</trkpt>
<trkpt lat="42.556008" lon="-1.195006">
<ele>1727</ele>
<time>2013-07-13T14:24:14.000Z</time>
</trkpt>
<trkpt lat="42.55591" lon="-1.195037">
<ele>1726</ele>
<time>2013-07-13T14:24:15.000Z</time>
</trkpt>
<trkpt lat="42.555815" lon="-1.195066">
<ele>1726</ele>
<time>2013-07-13T14:24:16.000Z</time>
</trkpt>
<trkpt lat="42.555723" lon="-1.195095">
<ele>1725</ele>
<time>2013-07-13T14:24:17.000Z</time>
</trkpt>
<trkpt lat="42.555629" lon="-1.195123">
<ele>1723</ele>
<time>2013-07-13T14:24:18.000Z</time>
</trkpt>
<trkpt lat="42.555531" lon="-1.195153">
<ele>1721</ele>
<time>2013-07-13T14:24:19.000Z</time>
</trkpt>
<trkpt lat="42.555428" lon="-1.195182">
<ele>1720</ele>
<time>2013-07-13T14:24:20.000Z</time>
</trkpt>
<trkpt lat="42.555322" lon="-1.195213">
<ele>1719</ele>
<time>2013-07-13T14:24:21.000Z</time>
</trkpt>
<trkpt lat="42.555217" lon="-1.195243">
<ele>1719</ele>
<time>2013-07-13T14:24:22.000Z</time>
</trkpt>
<trkpt lat="42.555115" lon="-1.195273">
<ele>1718</ele>
<time>2013-07-13T14:24:23.000Z</time>
</trkpt>
<trkpt lat="42.555016" lon="-1.195303">
<ele>1717</ele>
<time>2013-07-13T14:24:24.000Z</time>
</trkpt>
<trkpt lat="42.554919" lon="-1.195334">
<ele>1712</ele>
<time>2013-07-13T14:24:25.000Z</time>
</trkpt>
<trkpt lat="42.554819" lon="-1.195365">
<ele>1710</ele>
<time>2013-07-13T14:24:26.000Z</time>
</trkpt>
<trkpt lat="42.554716" lon="-1.195396">
<ele>1708</ele>
<time>2013-07-13T14:24:27.000Z</time>
</trkpt>
<trkpt lat="42.554614" lon="-1.195427">
<ele>1706</ele>
<time>2013-07-13T14:24:28.000Z</time>
</trkpt>
<trkpt lat="42.554516" lon="-1.195458">
<ele>1704</ele>
<time>2013-07-13T14:24:29.000Z</time>
</trkpt>
<trkpt lat="42.554418" lon="-1.195491">
<ele>1703</ele>
<time>2013-07-13T14:24:30.000Z</time>
</trkpt>
<trkpt lat="42.554319" lon="-1.195521">
<ele>1702</ele>
<time>2013-07-13T14:24:31.000Z</time>
</trkpt>
<trkpt lat="42.554221" lon="-1.195546">
<ele>1702</ele>
<time>2013-07-13T14:24:32.000Z</time>
</trkpt>
<trkpt lat="42.554117" lon="-1.195565">
<ele>1701</ele>
<time>2013-07-13T14:24:33.000Z</time>
</trkpt>
<trkpt lat="42.554012" lon="-1.195585">
<ele>1700</ele>
<time>2013-07-13T14:24:34.000Z</time>
</trkpt>
<trkpt lat="42.553908" lon="-1.195606">
<ele>1699</ele>
<time>2013-07-13T14:24:35.000Z</time>
</trkpt>
<trkpt lat="42.553811" lon="-1.195631">
<ele>1697</ele>
<time>2013-07-13T14:24:36.000Z</time>
</trkpt>
<trkpt lat="42.553717" lon="-1.195656">
<ele>1697</ele>
<time>2013-07-13T14:24:37.000Z</time>
</trkpt>
<trkpt lat="42.553625" lon="-1.195686">
<ele>1694</ele>
<time>2013-07-13T14:24:38.000Z</time>
</trkpt>
<trkpt lat="42.553528" lon="-1.195716">
<ele>1692</ele>
<time>2013-07-13T14:24:39.000Z</time>
</trkpt>
<trkpt lat="42.553429" lon="-1.195747">
<ele>1689</ele>
<time>2013-07-13T14:24:40.000Z</time>
</trkpt>
<trkpt lat="42.553334" lon="-1.195776">
<ele>1688</ele>
<time>2013-07-13T14:24:41.000Z</time>
</trkpt>
<trkpt lat="42.553245" lon="-1.195806">
<ele>1688</ele>
<time>2013-07-13T14:24:42.000Z</time>
</trkpt>
<trkpt lat="42.553158" lon="-1.195835">
<ele>1687</ele>
<time>2013-07-13T14:24:43.000Z</time>
</trkpt>
<trkpt lat="42.55307" lon="-1.19587">
<ele>1686</ele>
<time>2013-07-13T14:24:44.000Z</time>
</trkpt>
<trkpt lat="42.552981" lon="-1.195907">
<ele>1683</ele>
<time>2013-07-13T14:24:45.000Z</time>
</trkpt>
<trkpt lat="42.552891" lon="-1.195946">
<ele>1681</ele>
<time>2013-07-13T14:24:46.000Z</time>
</trkpt>
<trkpt lat="42.552791" lon="-1.195986">
<ele>1676</ele>
<time>2013-07-13T14:24:47.000Z</time>
</trkpt>
<trkpt lat="42.552692" lon="-1.196025">
<ele>1673</ele>
<time>2013-07-13T14:24:48.000Z</time>
</trkpt>
<trkpt lat="42.552599" lon="-1.19606">
<ele>1671</ele>
<time>2013-07-13T14:24:49.000Z</time>
</trkpt>
<trkpt lat="42.552507" lon="-1.196093">
<ele>1669</ele>
<time>2013-07-13T14:24:50.000Z</time>
</trkpt>
<trkpt lat="42.552414" lon="-1.196123">
<ele>1667</ele>
<time>2013-07-13T14:24:51.000Z</time>
</trkpt>
<trkpt lat="42.552321" lon="-1.19615">
<ele>1666</ele>
<time>2013-07-13T14:24:52.000Z</time>
</trkpt>
<trkpt lat="42.552226" lon="-1.196178">
<ele>1662</ele>
<time>2013-07-13T14:24:53.000Z</time>
</trkpt>
<trkpt lat="42.55213" lon="-1.196205">
<ele>1660</ele>
<time>2013-07-13T14:24:54.000Z</time>
</trkpt>
<trkpt lat="42.552036" lon="-1.196232">
<ele>1658</ele>
<time>2013-07-13T14:24:55.000Z</time>
</trkpt>
<trkpt lat="42.551947" lon="-1.196262">
<ele>1655</ele>
<time>2013-07-13T14:24:56.000Z</time>
</trkpt>
<trkpt lat="42.551858" lon="-1.196292">
<ele>1652</ele>
<time>2013-07-13T14:24:57.000Z</time>
</trkpt>
<trkpt lat="42.551769" lon="-1.196324">
<ele>1649</ele>
<time>2013-07-13T14:24:58.000Z</time>
</trkpt>
<trkpt lat="42.551681" lon="-1.19636">
<ele>1646</ele>
<time>2013-07-13T14:24:59.000Z</time>
</trkpt>
<trkpt lat="42.551594" lon="-1.196396">
<ele>1643</ele>
<time>2013-07-13T14:25:00.000Z</time>
</trkpt>
<trkpt lat="42.55151" lon="-1.196437">
<ele>1640</ele>
<time>2013-07-13T14:25:01.000Z</time>
</trkpt>
<trkpt lat="42.551425" lon="-1.196481">
<ele>1636</ele>
<time>2013-07-13T14:25:02.000Z</time>
</trkpt>
<trkpt lat="42.55134" lon="-1.196527">
<ele>1633</ele>
<time>2013-07-13T14:25:03.000Z</time>
</trkpt>
<trkpt lat="42.551249" lon="-1.196575">
<ele>1630</ele>
<time>2013-07-13T14:25:04.000Z</time>
</trkpt>
<trkpt lat="42.551157" lon="-1.196621">
<ele>1627</ele>
<time>2013-07-13T14:25:05.000Z</time>
</trkpt>
<trkpt lat="42.551066" lon="-1.196661">
<ele>1624</ele>
<time>2013-07-13T14:25:06.000Z</time>
</trkpt>
<trkpt lat="42.550975" lon="-1.196694">
<ele>1621</ele>
<time>2013-07-13T14:25:07.000Z</time>
</trkpt>
<trkpt lat="42.55089" lon="-1.196725">
<ele>1618</ele>
<time>2013-07-13T14:25:08.000Z</time>
</trkpt>
<trkpt lat="42.550812" lon="-1.19676">
<ele>1616</ele>
<time>2013-07-13T14:25:09.000Z</time>
</trkpt>
<trkpt lat="42.55074" lon="-1.196795">
<ele>1614</ele>
<time>2013-07-13T14:25:10.000Z</time>
</trkpt>
<trkpt lat="42.55067" lon="-1.196829">
<ele>1611</ele>
<time>2013-07-13T14:25:11.000Z</time>
</trkpt>
<trkpt lat="42.550599" lon="-1.196866">
<ele>1608</ele>
<time>2013-07-13T14:25:12.000Z</time>
</trkpt>
<trkpt lat="42.550521" lon="-1.196903">
<ele>1605</ele>
<time>2013-07-13T14:25:13.000Z</time>
</trkpt>
<trkpt lat="42.550435" lon="-1.196942">
<ele>1601</ele>
<time>2013-07-13T14:25:14.000Z</time>
</trkpt>
<trkpt lat="42.550346" lon="-1.196979">
<ele>1599</ele>
<time>2013-07-13T14:25:15.000Z</time>
</trkpt>
<trkpt lat="42.550264" lon="-1.197013">
<ele>1597</ele>
<time>2013-07-13T14:25:16.000Z</time>
</trkpt>
<trkpt lat="42.550189" lon="-1.197045">
<ele>1596</ele>
<time>2013-07-13T14:25:17.000Z</time>
</trkpt>
<trkpt lat="42.550119" lon="-1.197076">
<ele>1595</ele>
<time>2013-07-13T14:25:18.000Z</time>
</trkpt>
<trkpt lat="42.550049" lon="-1.197104">
<ele>1594</ele>
<time>2013-07-13T14:25:19.000Z</time>
</trkpt>
<trkpt lat="42.549978" lon="-1.197132">
<ele>1593</ele>
<time>2013-07-13T14:25:20.000Z</time>
</trkpt>
<trkpt lat="42.549907" lon="-1.197157">
<ele>1592</ele>
<time>2013-07-13T14:25:21.000Z</time>
</trkpt>
<trkpt lat="42.549837" lon="-1.197182">
<ele>1591</ele>
<time>2013-07-13T14:25:22.000Z</time>
</trkpt>
<trkpt lat="42.549766" lon="-1.197207">
<ele>1590</ele>
<time>2013-07-13T14:25:23.000Z</time>
</trkpt>
<trkpt lat="42.549696" lon="-1.197231">
<ele>1588</ele>
<time>2013-07-13T14:25:24.000Z</time>
</trkpt>
<trkpt lat="42.549625" lon="-1.197255">
<ele>1587</ele>
<time>2013-07-13T14:25:25.000Z</time>
</trkpt>
<trkpt lat="42.549552" lon="-1.197281">
<ele>1586</ele>
<time>2013-07-13T14:25:26.000Z</time>
</trkpt>
<trkpt lat="42.549475" lon="-1.197304">
<ele>1584</ele>
<time>2013-07-13T14:25:27.000Z</time>
</trkpt>
<trkpt lat="42.549394" lon="-1.19732">
<ele>1583</ele>
<time>2013-07-13T14:25:28.000Z</time>
</trkpt>
<trkpt lat="42.549312" lon="-1.197336">
<ele>1581</ele>
<time>2013-07-13T14:25:29.000Z</time>
</trkpt>
<trkpt lat="42.549234" lon="-1.197352">
<ele>1580</ele>
<time>2013-07-13T14:25:30.000Z</time>
</trkpt>
<trkpt lat="42.549156" lon="-1.19737">
<ele>1579</ele>
<time>2013-07-13T14:25:31.000Z</time>
</trkpt>
<trkpt lat="42.549078" lon="-1.197391">
<ele>1578</ele>
<time>2013-07-13T14:25:32.000Z</time>
</trkpt>
<trkpt lat="42.548999" lon="-1.197413">
<ele>1576</ele>
<time>2013-07-13T14:25:33.000Z</time>
</trkpt>
<trkpt lat="42.548918" lon="-1.197432">
<ele>1575</ele>
<time>2013-07-13T14:25:34.000Z</time>
</trkpt>
<trkpt lat="42.548834" lon="-1.197451">
<ele>1574</ele>
<time>2013-07-13T14:25:35.000Z</time>
</trkpt>
<trkpt lat="42.548746" lon="-1.197466">
<ele>1573</ele>
<time>2013-07-13T14:25:36.000Z</time>
</trkpt>
<trkpt lat="42.548658" lon="-1.197479">
<ele>1572</ele>
<time>2013-07-13T14:25:37.000Z</time>
</trkpt>
<trkpt lat="42.548571" lon="-1.19749">
<ele>1572</ele>
<time>2013-07-13T14:25:38.000Z</time>
</trkpt>
<trkpt lat="42.548483" lon="-1.197499">
<ele>1569</ele>
<time>2013-07-13T14:25:39.000Z</time>
</trkpt>
<trkpt lat="42.548398" lon="-1.197509">
<ele>1568</ele>
<time>2013-07-13T14:25:40.000Z</time>
</trkpt>
<trkpt lat="42.548313" lon="-1.197522">
<ele>1566</ele>
<time>2013-07-13T14:25:41.000Z</time>
</trkpt>
<trkpt lat="42.548228" lon="-1.197538">
<ele>1563</ele>
<time>2013-07-13T14:25:42.000Z</time>
</trkpt>
<trkpt lat="42.548144" lon="-1.197557">
<ele>1563</ele>
<time>2013-07-13T14:25:43.000Z</time>
</trkpt>
<trkpt lat="42.548063" lon="-1.197577">
<ele>1561</ele>
<time>2013-07-13T14:25:44.000Z</time>
</trkpt>
<trkpt lat="42.547983" lon="-1.197601">
<ele>1558</ele>
<time>2013-07-13T14:25:45.000Z</time>
</trkpt>
<trkpt lat="42.547907" lon="-1.19763">
<ele>1556</ele>
<time>2013-07-13T14:25:46.000Z</time>
</trkpt>
<trkpt lat="42.547836" lon="-1.197665">
<ele>1554</ele>
<time>2013-07-13T14:25:47.000Z</time>
</trkpt>
<trkpt lat="42.547769" lon="-1.197703">
<ele>1555</ele>
<time>2013-07-13T14:25:48.000Z</time>
</trkpt>
<trkpt lat="42.547704" lon="-1.197744">
<ele>1555</ele>
<time>2013-07-13T14:25:49.000Z</time>
</trkpt>
<trkpt lat="42.547634" lon="-1.197788">
<ele>1555</ele>
<time>2013-07-13T14:25:50.000Z</time>
</trkpt>
<trkpt lat="42.547557" lon="-1.197834">
<ele>1556</ele>
<time>2013-07-13T14:25:51.000Z</time>
</trkpt>
<trkpt lat="42.547481" lon="-1.197875">
<ele>1556</ele>
<time>2013-07-13T14:25:52.000Z</time>
</trkpt>
<trkpt lat="42.547403" lon="-1.197914">
<ele>1556</ele>
<time>2013-07-13T14:25:53.000Z</time>
</trkpt>
<trkpt lat="42.547326" lon="-1.197953">
<ele>1556</ele>
<time>2013-07-13T14:25:54.000Z</time>
</trkpt>
<trkpt lat="42.547253" lon="-1.197989">
<ele>1557</ele>
<time>2013-07-13T14:25:55.000Z</time>
</trkpt>
<trkpt lat="42.547183" lon="-1.198024">
<ele>1557</ele>
<time>2013-07-13T14:25:56.000Z</time>
</trkpt>
<trkpt lat="42.54711" lon="-1.198059">
<ele>1556</ele>
<time>2013-07-13T14:25:57.000Z</time>
</trkpt>
<trkpt lat="42.547028" lon="-1.198096">
<ele>1556</ele>
<time>2013-07-13T14:25:58.000Z</time>
</trkpt>
<trkpt lat="42.546938" lon="-1.198134">
<ele>1554</ele>
<time>2013-07-13T14:25:59.000Z</time>
</trkpt>
<trkpt lat="42.546849" lon="-1.198178">
<ele>1554</ele>
<time>2013-07-13T14:26:00.000Z</time>
</trkpt>
<trkpt lat="42.546769" lon="-1.198229">
<ele>1555</ele>
<time>2013-07-13T14:26:01.000Z</time>
</trkpt>
<trkpt lat="42.546693" lon="-1.198286">
<ele>1553</ele>
<time>2013-07-13T14:26:02.000Z</time>
</trkpt>
<trkpt lat="42.546613" lon="-1.198348">
<ele>1551</ele>
<time>2013-07-13T14:26:03.000Z</time>
</trkpt>
<trkpt lat="42.546528" lon="-1.198406">
<ele>1549</ele>
<time>2013-07-13T14:26:04.000Z</time>
</trkpt>
<trkpt lat="42.546439" lon="-1.198459">
<ele>1548</ele>
<time>2013-07-13T14:26:05.000Z</time>
</trkpt>
<trkpt lat="42.546351" lon="-1.198511">
<ele>1548</ele>
<time>2013-07-13T14:26:06.000Z</time>
</trkpt>
<trkpt lat="42.546269" lon="-1.198559">
<ele>1547</ele>
<time>2013-07-13T14:26:07.000Z</time>
</trkpt>
<trkpt lat="42.546182" lon="-1.19861">
<ele>1547</ele>
<time>2013-07-13T14:26:08.000Z</time>
</trkpt>
<trkpt lat="42.546089" lon="-1.198658">
<ele>1546</ele>
<time>2013-07-13T14:26:09.000Z</time>
</trkpt>
<trkpt lat="42.545997" lon="-1.198699">
<ele>1546</ele>
<time>2013-07-13T14:26:10.000Z</time>
</trkpt>
<trkpt lat="42.545903" lon="-1.198731">
<ele>1546</ele>
<time>2013-07-13T14:26:11.000Z</time>
</trkpt>
<trkpt lat="42.545808" lon="-1.198759">
<ele>1545</ele>
<time>2013-07-13T14:26:12.000Z</time>
</trkpt>
<trkpt lat="42.545716" lon="-1.198785">
<ele>1545</ele>
<time>2013-07-13T14:26:13.000Z</time>
</trkpt>
<trkpt lat="42.545631" lon="-1.198813">
<ele>1547</ele>
<time>2013-07-13T14:26:14.000Z</time>
</trkpt>
<trkpt lat="42.545549" lon="-1.198845">
<ele>1549</ele>
<time>2013-07-13T14:26:15.000Z</time>
</trkpt>
<trkpt lat="42.545472" lon="-1.198878">
<ele>1550</ele>
<time>2013-07-13T14:26:16.000Z</time>
</trkpt>
<trkpt lat="42.545398" lon="-1.198909">
<ele>1551</ele>
<time>2013-07-13T14:26:17.000Z</time>
</trkpt>
<trkpt lat="42.545317" lon="-1.198916">
<ele>1552</ele>
<time>2013-07-13T14:26:18.000Z</time>
</trkpt>
<trkpt lat="42.545227" lon="-1.198918">
<ele>1551</ele>
<time>2013-07-13T14:26:19.000Z</time>
</trkpt>
<trkpt lat="42.545127" lon="-1.198909">
<ele>1551</ele>
<time>2013-07-13T14:26:20.000Z</time>
</trkpt>
<trkpt lat="42.545028" lon="-1.198889">
<ele>1551</ele>
<time>2013-07-13T14:26:21.000Z</time>
</trkpt>
<trkpt lat="42.544936" lon="-1.198858">
<ele>1551</ele>
<time>2013-07-13T14:26:22.000Z</time>
</trkpt>
<trkpt lat="42.54485" lon="-1.198816">
<ele>1551</ele>
<time>2013-07-13T14:26:23.000Z</time>
</trkpt>
<trkpt lat="42.544761" lon="-1.198733">
<ele>1552</ele>
<time>2013-07-13T14:26:24.000Z</time>
</trkpt>
<trkpt lat="42.544674" lon="-1.198643">
<ele>1552</ele>
<time>2013-07-13T14:26:25.000Z</time>
</trkpt>
<trkpt lat="42.544587" lon="-1.198543">
<ele>1552</ele>
<time>2013-07-13T14:26:26.000Z</time>
</trkpt>
<trkpt lat="42.544501" lon="-1.198434">
<ele>1553</ele>
<time>2013-07-13T14:26:27.000Z</time>
</trkpt>
<trkpt lat="42.544422" lon="-1.198322">
<ele>1554</ele>
<time>2013-07-13T14:26:28.000Z</time>
</trkpt>
<trkpt lat="42.544353" lon="-1.19821">
<ele>1556</ele>
<time>2013-07-13T14:26:29.000Z</time>
</trkpt>
<trkpt lat="42.544305" lon="-1.198079">
<ele>1557</ele>
<time>2013-07-13T14:26:30.000Z</time>
</trkpt>
<trkpt lat="42.54426" lon="-1.197944">
<ele>1559</ele>
<time>2013-07-13T14:26:31.000Z</time>
</trkpt>
<trkpt lat="42.544215" lon="-1.197797">
<ele>1560</ele>
<time>2013-07-13T14:26:32.000Z</time>
</trkpt>
<trkpt lat="42.54417" lon="-1.19763">
<ele>1561</ele>
<time>2013-07-13T14:26:33.000Z</time>
</trkpt>
<trkpt lat="42.544169" lon="-1.197441">
<ele>1563</ele>
<time>2013-07-13T14:26:34.000Z</time>
</trkpt>
<trkpt lat="42.544177" lon="-1.197244">
<ele>1565</ele>
<time>2013-07-13T14:26:35.000Z</time>
</trkpt>
<trkpt lat="42.544193" lon="-1.197063">
<ele>1567</ele>
<time>2013-07-13T14:26:36.000Z</time>
</trkpt>
<trkpt lat="42.544244" lon="-1.196909">
<ele>1568</ele>
<time>2013-07-13T14:26:37.000Z</time>
</trkpt>
<trkpt lat="42.544288" lon="-1.196778">
<ele>1570</ele>
<time>2013-07-13T14:26:38.000Z</time>
</trkpt>
<trkpt lat="42.544327" lon="-1.196678">
<ele>1571</ele>
<time>2013-07-13T14:26:39.000Z</time>
</trkpt>
<trkpt lat="42.544383" lon="-1.19662">
<ele>1573</ele>
<time>2013-07-13T14:26:40.000Z</time>
</trkpt>
<trkpt lat="42.544449" lon="-1.196595">
<ele>1573</ele>
<time>2013-07-13T14:26:41.000Z</time>
</trkpt>
<trkpt lat="42.544516" lon="-1.196597">
<ele>1574</ele>
<time>2013-07-13T14:26:42.000Z</time>
</trkpt>
<trkpt lat="42.544576" lon="-1.196623">
<ele>1574</ele>
<time>2013-07-13T14:26:43.000Z</time>
</trkpt>
<trkpt lat="42.544612" lon="-1.19667">
<ele>1574</ele>
<time>2013-07-13T14:26:44.000Z</time>
</trkpt>
<trkpt lat="42.544627" lon="-1.196743">
<ele>1579</ele>
<time>2013-07-13T14:26:45.000Z</time>
</trkpt>
<trkpt lat="42.54464" lon="-1.196826">
<ele>1581</ele>
<time>2013-07-13T14:26:46.000Z</time>
</trkpt>
<trkpt lat="42.544675" lon="-1.196925">
<ele>1585</ele>
<time>2013-07-13T14:26:47.000Z</time>
</trkpt>
<trkpt lat="42.544693" lon="-1.19702">
<ele>1589</ele>
<time>2013-07-13T14:26:48.000Z</time>
</trkpt>
<trkpt lat="42.544682" lon="-1.197095">
<ele>1593</ele>
<time>2013-07-13T14:26:49.000Z</time>
</trkpt>
<trkpt lat="42.544633" lon="-1.197166">
<ele>1595</ele>
<time>2013-07-13T14:26:50.000Z</time>
</trkpt>
<trkpt lat="42.54457" lon="-1.197225">
<ele>1598</ele>
<time>2013-07-13T14:26:51.000Z</time>
</trkpt>
<trkpt lat="42.54446" lon="-1.197241">
<ele>1599</ele>
<time>2013-07-13T14:26:52.000Z</time>
</trkpt>
<trkpt lat="42.54435" lon="-1.197251">
<ele>1601</ele>
<time>2013-07-13T14:26:53.000Z</time>
</trkpt>
<trkpt lat="42.544254" lon="-1.197223">
<ele>1601</ele>
<time>2013-07-13T14:26:54.000Z</time>
</trkpt>
<trkpt lat="42.54417" lon="-1.197194">
<ele>1603</ele>
<time>2013-07-13T14:26:55.000Z</time>
</trkpt>
<trkpt lat="42.544096" lon="-1.197125">
<ele>1603</ele>
<time>2013-07-13T14:26:56.000Z</time>
</trkpt>
<trkpt lat="42.544018" lon="-1.197042">
<ele>1604</ele>
<time>2013-07-13T14:26:57.000Z</time>
</trkpt>
<trkpt lat="42.54394" lon="-1.19694">
<ele>1605</ele>
<time>2013-07-13T14:26:58.000Z</time>
</trkpt>
<trkpt lat="42.543881" lon="-1.196803">
<ele>1608</ele>
<time>2013-07-13T14:26:59.000Z</time>
</trkpt>
<trkpt lat="42.543845" lon="-1.196643">
<ele>1607</ele>
<time>2013-07-13T14:27:00.000Z</time>
</trkpt>
<trkpt lat="42.543816" lon="-1.196495">
<ele>1609</ele>
<time>2013-07-13T14:27:01.000Z</time>
</trkpt>
<trkpt lat="42.543795" lon="-1.196351">
<ele>1611</ele>
<time>2013-07-13T14:27:02.000Z</time>
</trkpt>
<trkpt lat="42.543803" lon="-1.196207">
<ele>1613</ele>
<time>2013-07-13T14:27:03.000Z</time>
</trkpt>
<trkpt lat="42.543816" lon="-1.196064">
<ele>1614</ele>
<time>2013-07-13T14:27:04.000Z</time>
</trkpt>
<trkpt lat="42.543853" lon="-1.195941">
<ele>1616</ele>
<time>2013-07-13T14:27:05.000Z</time>
</trkpt>
<trkpt lat="42.543892" lon="-1.195827">
<ele>1616</ele>
<time>2013-07-13T14:27:06.000Z</time>
</trkpt>
<trkpt lat="42.543951" lon="-1.195749">
<ele>1617</ele>
<time>2013-07-13T14:27:07.000Z</time>
</trkpt>
<trkpt lat="42.544012" lon="-1.195713">
<ele>1619</ele>
<time>2013-07-13T14:27:08.000Z</time>
</trkpt>
<trkpt lat="42.54408" lon="-1.1957">
<ele>1620</ele>
<time>2013-07-13T14:27:09.000Z</time>
</trkpt>
<trkpt lat="42.544156" lon="-1.195681">
<ele>1621</ele>
<time>2013-07-13T14:27:10.000Z</time>
</trkpt>
<trkpt lat="42.544216" lon="-1.195666">
<ele>1622</ele>
<time>2013-07-13T14:27:11.000Z</time>
</trkpt>
<trkpt lat="42.544275" lon="-1.195656">
<ele>1631</ele>
<time>2013-07-13T14:27:12.000Z</time>
</trkpt>
<trkpt lat="42.544319" lon="-1.195684">
<ele>1634</ele>
<time>2013-07-13T14:27:13.000Z</time>
</trkpt>
<trkpt lat="42.544361" lon="-1.195716">
<ele>1637</ele>
<time>2013-07-13T14:27:14.000Z</time>
</trkpt>
<trkpt lat="42.544402" lon="-1.195756">
<ele>1638</ele>
<time>2013-07-13T14:27:15.000Z</time>
</trkpt>
<trkpt lat="42.544436" lon="-1.195813">
<ele>1640</ele>
<time>2013-07-13T14:27:16.000Z</time>
</trkpt>
<trkpt lat="42.544455" lon="-1.195879">
<ele>1641</ele>
<time>2013-07-13T14:27:17.000Z</time>
</trkpt>
<trkpt lat="42.544456" lon="-1.195947">
<ele>1643</ele>
<time>2013-07-13T14:27:18.000Z</time>
</trkpt>
<trkpt lat="42.54444" lon="-1.196015">
<ele>1643</ele>
<time>2013-07-13T14:27:19.000Z</time>
</trkpt>
<trkpt lat="42.544403" lon="-1.196073">
<ele>1645</ele>
<time>2013-07-13T14:27:20.000Z</time>
</trkpt>
<trkpt lat="42.544343" lon="-1.196123">
<ele>1646</ele>
<time>2013-07-13T14:27:21.000Z</time>
</trkpt>
<trkpt lat="42.544271" lon="-1.196174">
<ele>1648</ele>
<time>2013-07-13T14:27:22.000Z</time>
</trkpt>
<trkpt lat="42.544199" lon="-1.196222">
<ele>1651</ele>
<time>2013-07-13T14:27:23.000Z</time>
</trkpt>
<trkpt lat="42.544123" lon="-1.196271">
<ele>1652</ele>
<time>2013-07-13T14:27:24.000Z</time>
</trkpt>
<trkpt lat="42.544048" lon="-1.196316">
<ele>1654</ele>
<time>2013-07-13T14:27:25.000Z</time>
</trkpt>
<trkpt lat="42.543976" lon="-1.196355">
<ele>1655</ele>
<time>2013-07-13T14:27:26.000Z</time>
</trkpt>
<trkpt lat="42.543901" lon="-1.196388">
<ele>1657</ele>
<time>2013-07-13T14:27:27.000Z</time>
</trkpt>
<trkpt lat="42.543826" lon="-1.196416">
<ele>1658</ele>
<time>2013-07-13T14:27:28.000Z</time>
</trkpt>
<trkpt lat="42.543746" lon="-1.19644">
<ele>1660</ele>
<time>2013-07-13T14:27:29.000Z</time>
</trkpt>
<trkpt lat="42.543663" lon="-1.196462">
<ele>1662</ele>
<time>2013-07-13T14:27:30.000Z</time>
</trkpt>
<trkpt lat="42.543578" lon="-1.196482">
<ele>1663</ele>
<time>2013-07-13T14:27:31.000Z</time>
</trkpt>
<trkpt lat="42.543495" lon="-1.196502">
<ele>1665</ele>
<time>2013-07-13T14:27:32.000Z</time>
</trkpt>
<trkpt lat="42.543413" lon="-1.196513">
<ele>1666</ele>
<time>2013-07-13T14:27:33.000Z</time>
</trkpt>
<trkpt lat="42.543325" lon="-1.196487">
<ele>1666</ele>
<time>2013-07-13T14:27:34.000Z</time>
</trkpt>
<trkpt lat="42.543235" lon="-1.196456">
<ele>1666</ele>
<time>2013-07-13T14:27:35.000Z</time>
</trkpt>
<trkpt lat="42.543152" lon="-1.196394">
<ele>1666</ele>
<time>2013-07-13T14:27:36.000Z</time>
</trkpt>
<trkpt lat="42.543072" lon="-1.196323">
<ele>1667</ele>
<time>2013-07-13T14:27:37.000Z</time>
</trkpt>
<trkpt lat="42.542995" lon="-1.196244">
<ele>1668</ele>
<time>2013-07-13T14:27:38.000Z</time>
</trkpt>
<trkpt lat="42.542931" lon="-1.196166">
<ele>1669</ele>
<time>2013-07-13T14:27:39.000Z</time>
</trkpt>
<trkpt lat="42.542874" lon="-1.196082">
<ele>1671</ele>
<time>2013-07-13T14:27:40.000Z</time>
</trkpt>
<trkpt lat="42.542826" lon="-1.195977">
<ele>1673</ele>
<time>2013-07-13T14:27:41.000Z</time>
</trkpt>
<trkpt lat="42.542778" lon="-1.195862">
<ele>1674</ele>
<time>2013-07-13T14:27:42.000Z</time>
</trkpt>
<trkpt lat="42.54273" lon="-1.195735">
<ele>1675</ele>
<time>2013-07-13T14:27:43.000Z</time>
</trkpt>
<trkpt lat="42.54269" lon="-1.195605">
<ele>1677</ele>
<time>2013-07-13T14:27:44.000Z</time>
</trkpt>
<trkpt lat="42.542678" lon="-1.195469">
<ele>1677</ele>
<time>2013-07-13T14:27:45.000Z</time>
</trkpt>
<trkpt lat="42.542671" lon="-1.195345">
<ele>1679</ele>
<time>2013-07-13T14:27:46.000Z</time>
</trkpt>
<trkpt lat="42.542687" lon="-1.195232">
<ele>1681</ele>
<time>2013-07-13T14:27:47.000Z</time>
</trkpt>
<trkpt lat="42.542708" lon="-1.195117">
<ele>1682</ele>
<time>2013-07-13T14:27:48.000Z</time>
</trkpt>
<trkpt lat="42.542732" lon="-1.195">
<ele>1684</ele>
<time>2013-07-13T14:27:49.000Z</time>
</trkpt>
<trkpt lat="42.542776" lon="-1.194897">
<ele>1686</ele>
<time>2013-07-13T14:27:50.000Z</time>
</trkpt>
<trkpt lat="42.542818" lon="-1.194811">
<ele>1689</ele>
<time>2013-07-13T14:27:51.000Z</time>
</trkpt>
<trkpt lat="42.542869" lon="-1.194747">
<ele>1691</ele>
<time>2013-07-13T14:27:52.000Z</time>
</trkpt>
<trkpt lat="42.542936" lon="-1.194705">
<ele>1694</ele>
<time>2013-07-13T14:27:53.000Z</time>
</trkpt>
<trkpt lat="42.543002" lon="-1.194664">
<ele>1698</ele>
<time>2013-07-13T14:27:54.000Z</time>
</trkpt>
<trkpt lat="42.543056" lon="-1.194639">
<ele>1700</ele>
<time>2013-07-13T14:27:55.000Z</time>
</trkpt>
<trkpt lat="42.543113" lon="-1.194648">
<ele>1703</ele>
<time>2013-07-13T14:27:56.000Z</time>
</trkpt>
<trkpt lat="42.543164" lon="-1.19469">
<ele>1705</ele>
<time>2013-07-13T14:27:57.000Z</time>
</trkpt>
<trkpt lat="42.5432" lon="-1.194752">
<ele>1705</ele>
<time>2013-07-13T14:27:58.000Z</time>
</trkpt>
<trkpt lat="42.543219" lon="-1.194832">
<ele>1707</ele>
<time>2013-07-13T14:27:59.000Z</time>
</trkpt>
<trkpt lat="42.54322" lon="-1.194911">
<ele>1709</ele>
<time>2013-07-13T14:28:00.000Z</time>
</trkpt>
<trkpt lat="42.543205" lon="-1.194985">
<ele>1710</ele>
<time>2013-07-13T14:28:01.000Z</time>
</trkpt>
<trkpt lat="42.543172" lon="-1.195052">
<ele>1712</ele>
<time>2013-07-13T14:28:02.000Z</time>
</trkpt>
<trkpt lat="42.543134" lon="-1.195115">
<ele>1714</ele>
<time>2013-07-13T14:28:03.000Z</time>
</trkpt>
<trkpt lat="42.543086" lon="-1.195167">
<ele>1715</ele>
<time>2013-07-13T14:28:04.000Z</time>
</trkpt>
<trkpt lat="42.543033" lon="-1.195217">
<ele>1716</ele>
<time>2013-07-13T14:28:05.000Z</time>
</trkpt>
<trkpt lat="42.54298" lon="-1.195266">
<ele>1718</ele>
<time>2013-07-13T14:28:06.000Z</time>
</trkpt>
<trkpt lat="42.542926" lon="-1.195311">
<ele>1719</ele>
<time>2013-07-13T14:28:07.000Z</time>
</trkpt>
<trkpt lat="42.54287" lon="-1.195356">
<ele>1720</ele>
<time>2013-07-13T14:28:08.000Z</time>
</trkpt>
<trkpt lat="42.542815" lon="-1.195395">
<ele>1720</ele>
<time>2013-07-13T14:28:09.000Z</time>
</trkpt>
<trkpt lat="42.542766" lon="-1.19543">
<ele>1721</ele>
<time>2013-07-13T14:28:10.000Z</time>
</trkpt>
<trkpt lat="42.542724" lon="-1.195463">
<ele>1723</ele>
<time>2013-07-13T14:28:11.000Z</time>
</trkpt>
<trkpt lat="42.542684" lon="-1.195501">
<ele>1723</ele>
<time>2013-07-13T14:28:12.000Z</time>
</trkpt>
<trkpt lat="42.542644" lon="-1.195544">
<ele>1725</ele>
<time>2013-07-13T14:28:13.000Z</time>
</trkpt>
<trkpt lat="42.542601" lon="-1.19559">
<ele>1726</ele>
<time>2013-07-13T14:28:14.000Z</time>
</trkpt>
<trkpt lat="42.542543" lon="-1.195624">
<ele>1726</ele>
<time>2013-07-13T14:28:15.000Z</time>
</trkpt>
<trkpt lat="42.542469" lon="-1.195641">
<ele>1726</ele>
<time>2013-07-13T14:28:16.000Z</time>
</trkpt>
<trkpt lat="42.542385" lon="-1.195653">
<ele>1726</ele>
<time>2013-07-13T14:28:17.000Z</time>
</trkpt>
<trkpt lat="42.542298" lon="-1.195659">
<ele>1727</ele>
<time>2013-07-13T14:28:18.000Z</time>
</trkpt>
<trkpt lat="42.54221" lon="-1.195638">
<ele>1727</ele>
<time>2013-07-13T14:28:19.000Z</time>
</trkpt>
<trkpt lat="42.542126" lon="-1.195608">
<ele>1728</ele>
<time>2013-07-13T14:28:20.000Z</time>
</trkpt>
<trkpt lat="42.542049" lon="-1.195528">
<ele>1729</ele>
<time>2013-07-13T14:28:21.000Z</time>
</trkpt>
<trkpt lat="42.541972" lon="-1.195438">
<ele>1729</ele>
<time>2013-07-13T14:28:22.000Z</time>
</trkpt>
<trkpt lat="42.541898" lon="-1.195339">
<ele>1730</ele>
<time>2013-07-13T14:28:23.000Z</time>
</trkpt>
<trkpt lat="42.541829" lon="-1.195232">
<ele>1730</ele>
<time>2013-07-13T14:28:24.000Z</time>
</trkpt>
<trkpt lat="42.541779" lon="-1.195095">
<ele>1731</ele>
<time>2013-07-13T14:28:25.000Z</time>
</trkpt>
<trkpt lat="42.541733" lon="-1.194946">
<ele>1731</ele>
<time>2013-07-13T14:28:26.000Z</time>
</trkpt>
<trkpt lat="42.541719" lon="-1.194781">
<ele>1731</ele>
<time>2013-07-13T14:28:27.000Z</time>
</trkpt>
<trkpt lat="42.541711" lon="-1.194626">
<ele>1732</ele>
<time>2013-07-13T14:28:28.000Z</time>
</trkpt>
<trkpt lat="42.541726" lon="-1.194491">
<ele>1734</ele>
<time>2013-07-13T14:28:29.000Z</time>
</trkpt>
<trkpt lat="42.541761" lon="-1.194378">
<ele>1735</ele>
<time>2013-07-13T14:28:30.000Z</time>
</trkpt>
<trkpt lat="42.541794" lon="-1.194274">
<ele>1737</ele>
<time>2013-07-13T14:28:31.000Z</time>
</trkpt>
<trkpt lat="42.541831" lon="-1.194174">
<ele>1739</ele>
<time>2013-07-13T14:28:32.000Z</time>
</trkpt>
<trkpt lat="42.541874" lon="-1.194083">
<ele>1741</ele>
<time>2013-07-13T14:28:33.000Z</time>
</trkpt>
<trkpt lat="42.541923" lon="-1.193995">
<ele>1743</ele>
<time>2013-07-13T14:28:34.000Z</time>
</trkpt>
<trkpt lat="42.54198" lon="-1.193918">
<ele>1745</ele>
<time>2013-07-13T14:28:35.000Z</time>
</trkpt>
<trkpt lat="42.542038" lon="-1.193848">
<ele>1747</ele>
<time>2013-07-13T14:28:36.000Z</time>
</trkpt>
<trkpt lat="42.54209" lon="-1.193793">
<ele>1749</ele>
<time>2013-07-13T14:28:37.000Z</time>
</trkpt>
<trkpt lat="42.542132" lon="-1.193738">
<ele>1751</ele>
<time>2013-07-13T14:28:38.000Z</time>
</trkpt>
<trkpt lat="42.54218" lon="-1.193682">
<ele>1751</ele>
<time>2013-07-13T14:28:39.000Z</time>
</trkpt>
<trkpt lat="42.542236" lon="-1.193621">
<ele>1753</ele>
<time>2013-07-13T14:28:40.000Z</time>
</trkpt>
<trkpt lat="42.542297" lon="-1.193584">
<ele>1754</ele>
<time>2013-07-13T14:28:41.000Z</time>
</trkpt>
<trkpt lat="42.542355" lon="-1.193567">
<ele>1756</ele>
<time>2013-07-13T14:28:42.000Z</time>
</trkpt>
<trkpt lat="42.542409" lon="-1.193553">
<ele>1758</ele>
<time>2013-07-13T14:28:43.000Z</time>
</trkpt>
<trkpt lat="42.542462" lon="-1.193556">
<ele>1759</ele>
<time>2013-07-13T14:28:44.000Z</time>
</trkpt>
<trkpt lat="42.542515" lon="-1.193564">
<ele>1760</ele>
<time>2013-07-13T14:28:45.000Z</time>
</trkpt>
<trkpt lat="42.542559" lon="-1.193592">
<ele>1761</ele>
<time>2013-07-13T14:28:46.000Z</time>
</trkpt>
<trkpt lat="42.542596" lon="-1.193651">
<ele>1761</ele>
<time>2013-07-13T14:28:47.000Z</time>
</trkpt>
<trkpt lat="42.542615" lon="-1.193716">
<ele>1762</ele>
<time>2013-07-13T14:28:48.000Z</time>
</trkpt>
<trkpt lat="42.542627" lon="-1.193781">
<ele>1762</ele>
<time>2013-07-13T14:28:49.000Z</time>
</trkpt>
<trkpt lat="42.542634" lon="-1.193839">
<ele>1763</ele>
<time>2013-07-13T14:28:50.000Z</time>
</trkpt>
<trkpt lat="42.542625" lon="-1.193894">
<ele>1764</ele>
<time>2013-07-13T14:28:51.000Z</time>
</trkpt>
<trkpt lat="42.542595" lon="-1.193951">
<ele>1763</ele>
<time>2013-07-13T14:28:52.000Z</time>
</trkpt>
<trkpt lat="42.54252" lon="-1.194006">
<ele>1762</ele>
<time>2013-07-13T14:28:53.000Z</time>
</trkpt>
<trkpt lat="42.542415" lon="-1.194089">
<ele>1766</ele>
<time>2013-07-13T14:28:54.000Z</time>
</trkpt>
<trkpt lat="42.542304" lon="-1.194161">
<ele>1764</ele>
<time>2013-07-13T14:28:55.000Z</time>
</trkpt>
<trkpt lat="42.542201" lon="-1.19417">
<ele>1764</ele>
<time>2013-07-13T14:28:56.000Z</time>
</trkpt>
<trkpt lat="42.542116" lon="-1.194168">
<ele>1765</ele>
<time>2013-07-13T14:28:57.000Z</time>
</trkpt>
<trkpt lat="42.54204" lon="-1.194121">
<ele>1765</ele>
<time>2013-07-13T14:28:58.000Z</time>
</trkpt>
<trkpt lat="42.541962" lon="-1.194064">
<ele>1765</ele>
<time>2013-07-13T14:28:59.000Z</time>
</trkpt>
<trkpt lat="42.541869" lon="-1.193988">
<ele>1764</ele>
<time>2013-07-13T14:29:00.000Z</time>
</trkpt>
<trkpt lat="42.54177" lon="-1.193903">
<ele>1764</ele>
<time>2013-07-13T14:29:01.000Z</time>
</trkpt>
<trkpt lat="42.541679" lon="-1.193818">
<ele>1765</ele>
<time>2013-07-13T14:29:02.000Z</time>
</trkpt>
<trkpt lat="42.5416" lon="-1.193731">
<ele>1765</ele>
<time>2013-07-13T14:29:03.000Z</time>
</trkpt>
<trkpt lat="42.541546" lon="-1.193616">
<ele>1766</ele>
<time>2013-07-13T14:29:04.000Z</time>
</trkpt>
<trkpt lat="42.541493" lon="-1.193489">
<ele>1766</ele>
<time>2013-07-13T14:29:05.000Z</time>
</trkpt>
<trkpt lat="42.541459" lon="-1.193331">
<ele>1765</ele>
<time>2013-07-13T14:29:06.000Z</time>
</trkpt>
<trkpt lat="42.541429" lon="-1.193166">
<ele>1765</ele>
<time>2013-07-13T14:29:07.000Z</time>
</trkpt>
<trkpt lat="42.541405" lon="-1.192997">
<ele>1764</ele>
<time>2013-07-13T14:29:08.000Z</time>
</trkpt>
<trkpt lat="42.541412" lon="-1.192832">
<ele>1764</ele>
<time>2013-07-13T14:29:09.000Z</time>
</trkpt>
<trkpt lat="42.541426" lon="-1.192675">
<ele>1764</ele>
<time>2013-07-13T14:29:10.000Z</time>
</trkpt>
<trkpt lat="42.541445" lon="-1.192526">
<ele>1764</ele>
<time>2013-07-13T14:29:11.000Z</time>
</trkpt>
<trkpt lat="42.541461" lon="-1.192377">
<ele>1765</ele>
<time>2013-07-13T14:29:12.000Z</time>
</trkpt>
<trkpt lat="42.54145" lon="-1.192239">
<ele>1765</ele>
<time>2013-07-13T14:29:13.000Z</time>
</trkpt>
<trkpt lat="42.541436" lon="-1.192103">
<ele>1766</ele>
<time>2013-07-13T14:29:14.000Z</time>
</trkpt>
<trkpt lat="42.541415" lon="-1.191965">
<ele>1766</ele>
<time>2013-07-13T14:29:15.000Z</time>
</trkpt>
<trkpt lat="42.541389" lon="-1.191819">
<ele>1767</ele>
<time>2013-07-13T14:29:16.000Z</time>
</trkpt>
<trkpt lat="42.541357" lon="-1.191674">
<ele>1766</ele>
<time>2013-07-13T14:29:17.000Z</time>
</trkpt>
<trkpt lat="42.541295" lon="-1.191542">
<ele>1767</ele>
<time>2013-07-13T14:29:18.000Z</time>
</trkpt>
<trkpt lat="42.541227" lon="-1.191423">
<ele>1768</ele>
<time>2013-07-13T14:29:19.000Z</time>
</trkpt>
<trkpt lat="42.541135" lon="-1.191349">
<ele>1768</ele>
<time>2013-07-13T14:29:20.000Z</time>
</trkpt>
<trkpt lat="42.541043" lon="-1.191285">
<ele>1769</ele>
<time>2013-07-13T14:29:21.000Z</time>
</trkpt>
<trkpt lat="42.540954" lon="-1.191231">
<ele>1770</ele>
<time>2013-07-13T14:29:22.000Z</time>
</trkpt>
<trkpt lat="42.540865" lon="-1.191183">
<ele>1769</ele>
<time>2013-07-13T14:29:23.000Z</time>
</trkpt>
<trkpt lat="42.540773" lon="-1.191137">
<ele>1769</ele>
<time>2013-07-13T14:29:24.000Z</time>
</trkpt>
<trkpt lat="42.540676" lon="-1.191091">
<ele>1770</ele>
<time>2013-07-13T14:29:25.000Z</time>
</trkpt>
<trkpt lat="42.54058" lon="-1.191051">
<ele>1771</ele>
<time>2013-07-13T14:29:26.000Z</time>
</trkpt>
<trkpt lat="42.540489" lon="-1.191018">
<ele>1772</ele>
<time>2013-07-13T14:29:27.000Z</time>
</trkpt>
<trkpt lat="42.540401" lon="-1.190993">
<ele>1772</ele>
<time>2013-07-13T14:29:28.000Z</time>
</trkpt>
<trkpt lat="42.54032" lon="-1.190977">
<ele>1772</ele>
<time>2013-07-13T14:29:29.000Z</time>
</trkpt>
<trkpt lat="42.540243" lon="-1.190971">
<ele>1774</ele>
<time>2013-07-13T14:29:30.000Z</time>
</trkpt>
<trkpt lat="42.540162" lon="-1.19097">
<ele>1775</ele>
<time>2013-07-13T14:29:31.000Z</time>
</trkpt>
<trkpt lat="42.540077" lon="-1.190974">
<ele>1775</ele>
<time>2013-07-13T14:29:32.000Z</time>
</trkpt>
<trkpt lat="42.53999" lon="-1.190976">
<ele>1775</ele>
<time>2013-07-13T14:29:33.000Z</time>
</trkpt>
<trkpt lat="42.539903" lon="-1.190972">
<ele>1776</ele>
<time>2013-07-13T14:29:34.000Z</time>
</trkpt>
<trkpt lat="42.539816" lon="-1.190968">
<ele>1776</ele>
<time>2013-07-13T14:29:35.000Z</time>
</trkpt>
<trkpt lat="42.539731" lon="-1.190963">
<ele>1777</ele>
<time>2013-07-13T14:29:36.000Z</time>
</trkpt>
<trkpt lat="42.53965" lon="-1.190957">
<ele>1777</ele>
<time>2013-07-13T14:29:37.000Z</time>
</trkpt>
<trkpt lat="42.539568" lon="-1.19095">
<ele>1777</ele>
<time>2013-07-13T14:29:38.000Z</time>
</trkpt>
<trkpt lat="42.539485" lon="-1.190938">
<ele>1777</ele>
<time>2013-07-13T14:29:39.000Z</time>
</trkpt>
<trkpt lat="42.539399" lon="-1.19092">
<ele>1777</ele>
<time>2013-07-13T14:29:40.000Z</time>
</trkpt>
<trkpt lat="42.539309" lon="-1.190899">
<ele>1777</ele>
<time>2013-07-13T14:29:41.000Z</time>
</trkpt>
<trkpt lat="42.539214" lon="-1.190876">
<ele>1778</ele>
<time>2013-07-13T14:29:42.000Z</time>
</trkpt>
<trkpt lat="42.539121" lon="-1.190851">
<ele>1778</ele>
<time>2013-07-13T14:29:43.000Z</time>
</trkpt>
<trkpt lat="42.539032" lon="-1.19083">
<ele>1779</ele>
<time>2013-07-13T14:29:44.000Z</time>
</trkpt>
<trkpt lat="42.538945" lon="-1.190813">
<ele>1781</ele>
<time>2013-07-13T14:29:45.000Z</time>
</trkpt>
<trkpt lat="42.538858" lon="-1.190802">
<ele>1783</ele>
<time>2013-07-13T14:29:46.000Z</time>
</trkpt>
<trkpt lat="42.538769" lon="-1.190796">
<ele>1785</ele>
<time>2013-07-13T14:29:47.000Z</time>
</trkpt>
<trkpt lat="42.538677" lon="-1.190794">
<ele>1786</ele>
<time>2013-07-13T14:29:48.000Z</time>
</trkpt>
<trkpt lat="42.53859" lon="-1.190795">
<ele>1788</ele>
<time>2013-07-13T14:29:49.000Z</time>
</trkpt>
<trkpt lat="42.538508" lon="-1.190797">
<ele>1790</ele>
<time>2013-07-13T14:29:50.000Z</time>
</trkpt>
<trkpt lat="42.538433" lon="-1.190797">
<ele>1790</ele>
<time>2013-07-13T14:29:51.000Z</time>
</trkpt>
<trkpt lat="42.538368" lon="-1.1908">
<ele>1792</ele>
<time>2013-07-13T14:29:52.000Z</time>
</trkpt>
<trkpt lat="42.538307" lon="-1.190804">
<ele>1792</ele>
<time>2013-07-13T14:29:53.000Z</time>
</trkpt>
<trkpt lat="42.538242" lon="-1.190808">
<ele>1793</ele>
<time>2013-07-13T14:29:54.000Z</time>
</trkpt>
<trkpt lat="42.538167" lon="-1.190816">
<ele>1796</ele>
<time>2013-07-13T14:29:55.000Z</time>
</trkpt>
<trkpt lat="42.538082" lon="-1.190827">
<ele>1796</ele>
<time>2013-07-13T14:29:56.000Z</time>
</trkpt>
<trkpt lat="42.537992" lon="-1.190843">
<ele>1796</ele>
<time>2013-07-13T14:29:57.000Z</time>
</trkpt>
<trkpt lat="42.537899" lon="-1.190859">
<ele>1797</ele>
<time>2013-07-13T14:29:58.000Z</time>
</trkpt>
<trkpt lat="42.537803" lon="-1.190872">
<ele>1799</ele>
<time>2013-07-13T14:29:59.000Z</time>
</trkpt>
<trkpt lat="42.537703" lon="-1.190883">
<ele>1799</ele>
<time>2013-07-13T14:30:00.000Z</time>
</trkpt>
<trkpt lat="42.537603" lon="-1.190893">
<ele>1800</ele>
<time>2013-07-13T14:30:01.000Z</time>
</trkpt>
<trkpt lat="42.537501" lon="-1.1909">
<ele>1799</ele>
<time>2013-07-13T14:30:02.000Z</time>
</trkpt>
<trkpt lat="42.537396" lon="-1.190902">
<ele>1801</ele>
<time>2013-07-13T14:30:03.000Z</time>
</trkpt>
<trkpt lat="42.537292" lon="-1.190899">
<ele>1802</ele>
<time>2013-07-13T14:30:04.000Z</time>
</trkpt>
<trkpt lat="42.53719" lon="-1.190896">
<ele>1803</ele>
<time>2013-07-13T14:30:05.000Z</time>
</trkpt>
<trkpt lat="42.537091" lon="-1.190892">
<ele>1803</ele>
<time>2013-07-13T14:30:06.000Z</time>
</trkpt>
<trkpt lat="42.536997" lon="-1.190889">
<ele>1804</ele>
<time>2013-07-13T14:30:07.000Z</time>
</trkpt>
<trkpt lat="42.536915" lon="-1.190887">
<ele>1805</ele>
<time>2013-07-13T14:30:08.000Z</time>
</trkpt>
<trkpt lat="42.536841" lon="-1.190889">
<ele>1805</ele>
<time>2013-07-13T14:30:09.000Z</time>
</trkpt>
<trkpt lat="42.536774" lon="-1.190897">
<ele>1806</ele>
<time>2013-07-13T14:30:10.000Z</time>
</trkpt>
<trkpt lat="42.536714" lon="-1.190924">
<ele>1810</ele>
<time>2013-07-13T14:30:11.000Z</time>
</trkpt>
<trkpt lat="42.536661" lon="-1.190966">
<ele>1814</ele>
<time>2013-07-13T14:30:12.000Z</time>
</trkpt>
<trkpt lat="42.536615" lon="-1.190998">
<ele>1820</ele>
<time>2013-07-13T14:30:13.000Z</time>
</trkpt>
<trkpt lat="42.536651" lon="-1.190995">
<ele>1836</ele>
<time>2013-07-13T14:30:19.000Z</time>
</trkpt>
<trkpt lat="42.53669" lon="-1.190964">
<ele>1840</ele>
<time>2013-07-13T14:30:20.000Z</time>
</trkpt>
<trkpt lat="42.536726" lon="-1.190908">
<ele>1842</ele>
<time>2013-07-13T14:30:21.000Z</time>
</trkpt>
<trkpt lat="42.536772" lon="-1.190836">
<ele>1844</ele>
<time>2013-07-13T14:30:22.000Z</time>
</trkpt>
<trkpt lat="42.536806" lon="-1.190743">
<ele>1846</ele>
<time>2013-07-13T14:30:23.000Z</time>
</trkpt>
<trkpt lat="42.536837" lon="-1.190642">
<ele>1847</ele>
<time>2013-07-13T14:30:24.000Z</time>
</trkpt>
<trkpt lat="42.536863" lon="-1.190533">
<ele>1848</ele>
<time>2013-07-13T14:30:25.000Z</time>
</trkpt>
<trkpt lat="42.536886" lon="-1.190403">
<ele>1851</ele>
<time>2013-07-13T14:30:26.000Z</time>
</trkpt>
<trkpt lat="42.536885" lon="-1.190249">
<ele>1852</ele>
<time>2013-07-13T14:30:27.000Z</time>
</trkpt>
<trkpt lat="42.53688" lon="-1.190097">
<ele>1853</ele>
<time>2013-07-13T14:30:28.000Z</time>
</trkpt>
<trkpt lat="42.536867" lon="-1.18995">
<ele>1854</ele>
<time>2013-07-13T14:30:29.000Z</time>
</trkpt>
<trkpt lat="42.536829" lon="-1.189818">
<ele>1855</ele>
<time>2013-07-13T14:30:30.000Z</time>
</trkpt>
<trkpt lat="42.536788" lon="-1.189689">
<ele>1855</ele>
<time>2013-07-13T14:30:31.000Z</time>
</trkpt>
<trkpt lat="42.53674" lon="-1.189555">
<ele>1855</ele>
<time>2013-07-13T14:30:32.000Z</time>
</trkpt>
<trkpt lat="42.536686" lon="-1.18941">
<ele>1855</ele>
<time>2013-07-13T14:30:33.000Z</time>
</trkpt>
<trkpt lat="42.536626" lon="-1.189271">
<ele>1856</ele>
<time>2013-07-13T14:30:34.000Z</time>
</trkpt>
<trkpt lat="42.536543" lon="-1.189158">
<ele>1857</ele>
<time>2013-07-13T14:30:35.000Z</time>
</trkpt>
<trkpt lat="42.536392" lon="-1.188977">
<ele>1858</ele>
<time>2013-07-13T14:30:37.000Z</time>
</trkpt>
<trkpt lat="42.536317" lon="-1.188899">
<ele>1858</ele>
<time>2013-07-13T14:30:38.000Z</time>
</trkpt>
<trkpt lat="42.536234" lon="-1.188816">
<ele>1859</ele>
<time>2013-07-13T14:30:39.000Z</time>
</trkpt>
<trkpt lat="42.536141" lon="-1.188728">
<ele>1860</ele>
<time>2013-07-13T14:30:40.000Z</time>
</trkpt>
<trkpt lat="42.536044" lon="-1.188641">
<ele>1860</ele>
<time>2013-07-13T14:30:41.000Z</time>
</trkpt>
<trkpt lat="42.535948" lon="-1.188554">
<ele>1861</ele>
<time>2013-07-13T14:30:42.000Z</time>
</trkpt>
<trkpt lat="42.535853" lon="-1.188474">
<ele>1861</ele>
<time>2013-07-13T14:30:43.000Z</time>
</trkpt>
<trkpt lat="42.535762" lon="-1.188397">
<ele>1862</ele>
<time>2013-07-13T14:30:44.000Z</time>
</trkpt>
<trkpt lat="42.53567" lon="-1.188326">
<ele>1862</ele>
<time>2013-07-13T14:30:45.000Z</time>
</trkpt>
<trkpt lat="42.535575" lon="-1.188254">
<ele>1862</ele>
<time>2013-07-13T14:30:46.000Z</time>
</trkpt>
<trkpt lat="42.535482" lon="-1.188187">
<ele>1863</ele>
<time>2013-07-13T14:30:47.000Z</time>
</trkpt>
<trkpt lat="42.535388" lon="-1.188119">
<ele>1864</ele>
<time>2013-07-13T14:30:48.000Z</time>
</trkpt>
<trkpt lat="42.535295" lon="-1.188062">
<ele>1865</ele>
<time>2013-07-13T14:30:49.000Z</time>
</trkpt>
<trkpt lat="42.535194" lon="-1.188033">
<ele>1864</ele>
<time>2013-07-13T14:30:50.000Z</time>
</trkpt>
<trkpt lat="42.535095" lon="-1.188008">
<ele>1866</ele>
<time>2013-07-13T14:30:51.000Z</time>
</trkpt>
<trkpt lat="42.534997" lon="-1.187983">
<ele>1868</ele>
<time>2013-07-13T14:30:52.000Z</time>
</trkpt>
<trkpt lat="42.534904" lon="-1.187963">
<ele>1871</ele>
<time>2013-07-13T14:30:53.000Z</time>
</trkpt>
<trkpt lat="42.534816" lon="-1.187943">
<ele>1873</ele>
<time>2013-07-13T14:30:54.000Z</time>
</trkpt>
<trkpt lat="42.534729" lon="-1.187927">
<ele>1875</ele>
<time>2013-07-13T14:30:55.000Z</time>
</trkpt>
<trkpt lat="42.534641" lon="-1.187912">
<ele>1876</ele>
<time>2013-07-13T14:30:56.000Z</time>
</trkpt>
<trkpt lat="42.534551" lon="-1.187899">
<ele>1877</ele>
<time>2013-07-13T14:30:57.000Z</time>
</trkpt>
<trkpt lat="42.534454" lon="-1.187885">
<ele>1878</ele>
<time>2013-07-13T14:30:58.000Z</time>
</trkpt>
<trkpt lat="42.534352" lon="-1.187872">
<ele>1879</ele>
<time>2013-07-13T14:30:59.000Z</time>
</trkpt>
<trkpt lat="42.534252" lon="-1.187858">
<ele>1881</ele>
<time>2013-07-13T14:31:00.000Z</time>
</trkpt>
<trkpt lat="42.534154" lon="-1.187839">
<ele>1882</ele>
<time>2013-07-13T14:31:01.000Z</time>
</trkpt>
<trkpt lat="42.534058" lon="-1.187813">
<ele>1883</ele>
<time>2013-07-13T14:31:02.000Z</time>
</trkpt>
<trkpt lat="42.533961" lon="-1.187787">
<ele>1884</ele>
<time>2013-07-13T14:31:03.000Z</time>
</trkpt>
<trkpt lat="42.533864" lon="-1.187761">
<ele>1884</ele>
<time>2013-07-13T14:31:04.000Z</time>
</trkpt>
<trkpt lat="42.533764" lon="-1.18774">
<ele>1885</ele>
<time>2013-07-13T14:31:05.000Z</time>
</trkpt>
<trkpt lat="42.533667" lon="-1.187728">
<ele>1886</ele>
<time>2013-07-13T14:31:06.000Z</time>
</trkpt>
<trkpt lat="42.53357" lon="-1.187725">
<ele>1887</ele>
<time>2013-07-13T14:31:07.000Z</time>
</trkpt>
<trkpt lat="42.533476" lon="-1.187727">
<ele>1888</ele>
<time>2013-07-13T14:31:08.000Z</time>
</trkpt>
<trkpt lat="42.533385" lon="-1.187728">
<ele>1889</ele>
<time>2013-07-13T14:31:09.000Z</time>
</trkpt>
<trkpt lat="42.533295" lon="-1.187722">
<ele>1890</ele>
<time>2013-07-13T14:31:10.000Z</time>
</trkpt>
<trkpt lat="42.533205" lon="-1.187709">
<ele>1892</ele>
<time>2013-07-13T14:31:11.000Z</time>
</trkpt>
<trkpt lat="42.533115" lon="-1.187693">
<ele>1892</ele>
<time>2013-07-13T14:31:12.000Z</time>
</trkpt>
<trkpt lat="42.533019" lon="-1.187678">
<ele>1893</ele>
<time>2013-07-13T14:31:13.000Z</time>
</trkpt>
<trkpt lat="42.532916" lon="-1.187665">
<ele>1893</ele>
<time>2013-07-13T14:31:14.000Z</time>
</trkpt>
<trkpt lat="42.532807" lon="-1.187657">
<ele>1893</ele>
<time>2013-07-13T14:31:15.000Z</time>
</trkpt>
<trkpt lat="42.532701" lon="-1.187651">
<ele>1894</ele>
<time>2013-07-13T14:31:16.000Z</time>
</trkpt>
<trkpt lat="42.532597" lon="-1.187646">
<ele>1895</ele>
<time>2013-07-13T14:31:17.000Z</time>
</trkpt>
<trkpt lat="42.532487" lon="-1.187643">
<ele>1895</ele>
<time>2013-07-13T14:31:18.000Z</time>
</trkpt>
<trkpt lat="42.532375" lon="-1.18764">
<ele>1895</ele>
<time>2013-07-13T14:31:19.000Z</time>
</trkpt>
<trkpt lat="42.532275" lon="-1.18764">
<ele>1897</ele>
<time>2013-07-13T14:31:20.000Z</time>
</trkpt>
<trkpt lat="42.532176" lon="-1.187648">
<ele>1897</ele>
<time>2013-07-13T14:31:21.000Z</time>
</trkpt>
<trkpt lat="42.532078" lon="-1.187662">
<ele>1897</ele>
<time>2013-07-13T14:31:22.000Z</time>
</trkpt>
<trkpt lat="42.531982" lon="-1.187678">
<ele>1897</ele>
<time>2013-07-13T14:31:23.000Z</time>
</trkpt>
<trkpt lat="42.531883" lon="-1.187694">
<ele>1897</ele>
<time>2013-07-13T14:31:24.000Z</time>
</trkpt>
<trkpt lat="42.531783" lon="-1.187706">
<ele>1898</ele>
<time>2013-07-13T14:31:25.000Z</time>
</trkpt>
<trkpt lat="42.531682" lon="-1.18772">
<ele>1898</ele>
<time>2013-07-13T14:31:26.000Z</time>
</trkpt>
<trkpt lat="42.53158" lon="-1.187739">
<ele>1898</ele>
<time>2013-07-13T14:31:27.000Z</time>
</trkpt>
<trkpt lat="42.531481" lon="-1.18776">
<ele>1895</ele>
<time>2013-07-13T14:31:28.000Z</time>
</trkpt>
<trkpt lat="42.531385" lon="-1.187779">
<ele>1895</ele>
<time>2013-07-13T14:31:29.000Z</time>
</trkpt>
<trkpt lat="42.531286" lon="-1.187799">
<ele>1894</ele>
<time>2013-07-13T14:31:30.000Z</time>
</trkpt>
<trkpt lat="42.531184" lon="-1.187818">
<ele>1893</ele>
<time>2013-07-13T14:31:31.000Z</time>
</trkpt>
<trkpt lat="42.531077" lon="-1.18784">
<ele>1892</ele>
<time>2013-07-13T14:31:32.000Z</time>
</trkpt>
<trkpt lat="42.530968" lon="-1.187862">
<ele>1891</ele>
<time>2013-07-13T14:31:33.000Z</time>
</trkpt>
<trkpt lat="42.530864" lon="-1.187889">
<ele>1890</ele>
<time>2013-07-13T14:31:34.000Z</time>
</trkpt>
<trkpt lat="42.530762" lon="-1.187916">
<ele>1890</ele>
<time>2013-07-13T14:31:35.000Z</time>
</trkpt>
<trkpt lat="42.530665" lon="-1.187945">
<ele>1891</ele>
<time>2013-07-13T14:31:36.000Z</time>
</trkpt>
<trkpt lat="42.530571" lon="-1.187973">
<ele>1890</ele>
<time>2013-07-13T14:31:37.000Z</time>
</trkpt>
<trkpt lat="42.530475" lon="-1.188002">
<ele>1889</ele>
<time>2013-07-13T14:31:38.000Z</time>
</trkpt>
<trkpt lat="42.530379" lon="-1.188031">
<ele>1887</ele>
<time>2013-07-13T14:31:39.000Z</time>
</trkpt>
<trkpt lat="42.530286" lon="-1.18806">
<ele>1886</ele>
<time>2013-07-13T14:31:40.000Z</time>
</trkpt>
<trkpt lat="42.530191" lon="-1.188089">
<ele>1885</ele>
<time>2013-07-13T14:31:41.000Z</time>
</trkpt>
<trkpt lat="42.530099" lon="-1.188113">
<ele>1885</ele>
<time>2013-07-13T14:31:42.000Z</time>
</trkpt>
<trkpt lat="42.530005" lon="-1.188132">
<ele>1882</ele>
<time>2013-07-13T14:31:43.000Z</time>
</trkpt>
<trkpt lat="42.529901" lon="-1.188151">
<ele>1880</ele>
<time>2013-07-13T14:31:44.000Z</time>
</trkpt>
<trkpt lat="42.529787" lon="-1.188165">
<ele>1878</ele>
<time>2013-07-13T14:31:45.000Z</time>
</trkpt>
<trkpt lat="42.529665" lon="-1.188171">
<ele>1877</ele>
<time>2013-07-13T14:31:46.000Z</time>
</trkpt>
<trkpt lat="42.529543" lon="-1.18817">
<ele>1875</ele>
<time>2013-07-13T14:31:47.000Z</time>
</trkpt>
<trkpt lat="42.529427" lon="-1.188165">
<ele>1874</ele>
<time>2013-07-13T14:31:48.000Z</time>
</trkpt>
<trkpt lat="42.529316" lon="-1.188161">
<ele>1872</ele>
<time>2013-07-13T14:31:49.000Z</time>
</trkpt>
<trkpt lat="42.529211" lon="-1.188161">
<ele>1871</ele>
<time>2013-07-13T14:31:50.000Z</time>
</trkpt>
<trkpt lat="42.529106" lon="-1.188162">
<ele>1870</ele>
<time>2013-07-13T14:31:51.000Z</time>
</trkpt>
<trkpt lat="42.529001" lon="-1.188166">
<ele>1869</ele>
<time>2013-07-13T14:31:52.000Z</time>
</trkpt>
<trkpt lat="42.528894" lon="-1.188171">
<ele>1865</ele>
<time>2013-07-13T14:31:53.000Z</time>
</trkpt>
<trkpt lat="42.528781" lon="-1.188174">
<ele>1862</ele>
<time>2013-07-13T14:31:54.000Z</time>
</trkpt>
<trkpt lat="42.528673" lon="-1.188186">
<ele>1860</ele>
<time>2013-07-13T14:31:55.000Z</time>
</trkpt>
<trkpt lat="42.528569" lon="-1.188209">
<ele>1859</ele>
<time>2013-07-13T14:31:56.000Z</time>
</trkpt>
<trkpt lat="42.528476" lon="-1.188236">
<ele>1859</ele>
<time>2013-07-13T14:31:57.000Z</time>
</trkpt>
<trkpt lat="42.528394" lon="-1.188258">
<ele>1860</ele>
<time>2013-07-13T14:31:58.000Z</time>
</trkpt>
<trkpt lat="42.528312" lon="-1.188271">
<ele>1859</ele>
<time>2013-07-13T14:31:59.000Z</time>
</trkpt>
<trkpt lat="42.528234" lon="-1.18829">
<ele>1850</ele>
<time>2013-07-13T14:32:00.000Z</time>
</trkpt>
<trkpt lat="42.528145" lon="-1.188311">
<ele>1849</ele>
<time>2013-07-13T14:32:01.000Z</time>
</trkpt>
<trkpt lat="42.528054" lon="-1.188338">
<ele>1848</ele>
<time>2013-07-13T14:32:02.000Z</time>
</trkpt>
<trkpt lat="42.527967" lon="-1.188369">
<ele>1845</ele>
<time>2013-07-13T14:32:03.000Z</time>
</trkpt>
<trkpt lat="42.527884" lon="-1.188397">
<ele>1845</ele>
<time>2013-07-13T14:32:04.000Z</time>
</trkpt>
<trkpt lat="42.527813" lon="-1.188427">
<ele>1843</ele>
<time>2013-07-13T14:32:05.000Z</time>
</trkpt>
<trkpt lat="42.527746" lon="-1.188452">
<ele>1840</ele>
<time>2013-07-13T14:32:06.000Z</time>
</trkpt>
<trkpt lat="42.527673" lon="-1.188477">
<ele>1838</ele>
<time>2013-07-13T14:32:07.000Z</time>
</trkpt>
<trkpt lat="42.527595" lon="-1.188506">
<ele>1836</ele>
<time>2013-07-13T14:32:08.000Z</time>
</trkpt>
<trkpt lat="42.527511" lon="-1.188537">
<ele>1836</ele>
<time>2013-07-13T14:32:09.000Z</time>
</trkpt>
<trkpt lat="42.527426" lon="-1.188567">
<ele>1834</ele>
<time>2013-07-13T14:32:10.000Z</time>
</trkpt>
<trkpt lat="42.527346" lon="-1.188594">
<ele>1833</ele>
<time>2013-07-13T14:32:11.000Z</time>
</trkpt>
<trkpt lat="42.527272" lon="-1.188617">
<ele>1831</ele>
<time>2013-07-13T14:32:12.000Z</time>
</trkpt>
<trkpt lat="42.527197" lon="-1.188635">
<ele>1831</ele>
<time>2013-07-13T14:32:13.000Z</time>
</trkpt>
<trkpt lat="42.527118" lon="-1.188655">
<ele>1829</ele>
<time>2013-07-13T14:32:14.000Z</time>
</trkpt>
<trkpt lat="42.527036" lon="-1.188678">
<ele>1828</ele>
<time>2013-07-13T14:32:15.000Z</time>
</trkpt>
<trkpt lat="42.526952" lon="-1.188708">
<ele>1827</ele>
<time>2013-07-13T14:32:16.000Z</time>
</trkpt>
<trkpt lat="42.526869" lon="-1.188743">
<ele>1826</ele>
<time>2013-07-13T14:32:17.000Z</time>
</trkpt>
<trkpt lat="42.52679" lon="-1.188777">
<ele>1825</ele>
<time>2013-07-13T14:32:18.000Z</time>
</trkpt>
<trkpt lat="42.526712" lon="-1.188813">
<ele>1825</ele>
<time>2013-07-13T14:32:19.000Z</time>
</trkpt>
<trkpt lat="42.526636" lon="-1.188847">
<ele>1824</ele>
<time>2013-07-13T14:32:20.000Z</time>
</trkpt>
<trkpt lat="42.52656" lon="-1.188884">
<ele>1822</ele>
<time>2013-07-13T14:32:21.000Z</time>
</trkpt>
<trkpt lat="42.526483" lon="-1.18892">
<ele>1821</ele>
<time>2013-07-13T14:32:22.000Z</time>
</trkpt>
<trkpt lat="42.526403" lon="-1.18896">
<ele>1820</ele>
<time>2013-07-13T14:32:23.000Z</time>
</trkpt>
<trkpt lat="42.52632" lon="-1.189003">
<ele>1818</ele>
<time>2013-07-13T14:32:24.000Z</time>
</trkpt>
<trkpt lat="42.52624" lon="-1.18905">
<ele>1815</ele>
<time>2013-07-13T14:32:25.000Z</time>
</trkpt>
<trkpt lat="42.526163" lon="-1.189095">
<ele>1814</ele>
<time>2013-07-13T14:32:26.000Z</time>
</trkpt>
<trkpt lat="42.526095" lon="-1.189141">
<ele>1811</ele>
<time>2013-07-13T14:32:27.000Z</time>
</trkpt>
<trkpt lat="42.526027" lon="-1.189188">
<ele>1810</ele>
<time>2013-07-13T14:32:28.000Z</time>
</trkpt>
<trkpt lat="42.52596" lon="-1.189239">
<ele>1810</ele>
<time>2013-07-13T14:32:29.000Z</time>
</trkpt>
<trkpt lat="42.52589" lon="-1.189292">
<ele>1809</ele>
<time>2013-07-13T14:32:30.000Z</time>
</trkpt>
<trkpt lat="42.525823" lon="-1.189346">
<ele>1809</ele>
<time>2013-07-13T14:32:31.000Z</time>
</trkpt>
<trkpt lat="42.525754" lon="-1.189398">
<ele>1809</ele>
<time>2013-07-13T14:32:32.000Z</time>
</trkpt>
<trkpt lat="42.525684" lon="-1.18945">
<ele>1809</ele>
<time>2013-07-13T14:32:33.000Z</time>
</trkpt>
<trkpt lat="42.525613" lon="-1.189502">
<ele>1808</ele>
<time>2013-07-13T14:32:34.000Z</time>
</trkpt>
<trkpt lat="42.525542" lon="-1.189555">
<ele>1808</ele>
<time>2013-07-13T14:32:35.000Z</time>
</trkpt>
<trkpt lat="42.525471" lon="-1.18961">
<ele>1808</ele>
<time>2013-07-13T14:32:36.000Z</time>
</trkpt>
<trkpt lat="42.525397" lon="-1.189667">
<ele>1807</ele>
<time>2013-07-13T14:32:37.000Z</time>
</trkpt>
<trkpt lat="42.525322" lon="-1.189725">
<ele>1807</ele>
<time>2013-07-13T14:32:38.000Z</time>
</trkpt>
<trkpt lat="42.525246" lon="-1.189786">
<ele>1807</ele>
<time>2013-07-13T14:32:39.000Z</time>
</trkpt>
<trkpt lat="42.525171" lon="-1.189852">
<ele>1807</ele>
<time>2013-07-13T14:32:40.000Z</time>
</trkpt>
<trkpt lat="42.525092" lon="-1.189931">
<ele>1808</ele>
<time>2013-07-13T14:32:41.000Z</time>
</trkpt>
<trkpt lat="42.525012" lon="-1.190018">
<ele>1806</ele>
<time>2013-07-13T14:32:42.000Z</time>
</trkpt>
<trkpt lat="42.524948" lon="-1.190094">
<ele>1808</ele>
<time>2013-07-13T14:32:43.000Z</time>
</trkpt>
<trkpt lat="42.524896" lon="-1.190149">
<ele>1808</ele>
<time>2013-07-13T14:32:44.000Z</time>
</trkpt>
<trkpt lat="42.524858" lon="-1.190187">
<ele>1808</ele>
<time>2013-07-13T14:32:45.000Z</time>
</trkpt>
<trkpt lat="42.524818" lon="-1.190225">
<ele>1810</ele>
<time>2013-07-13T14:32:46.000Z</time>
</trkpt>
<trkpt lat="42.524762" lon="-1.190273">
<ele>1811</ele>
<time>2013-07-13T14:32:47.000Z</time>
</trkpt>
<trkpt lat="42.52469" lon="-1.190323">
<ele>1810</ele>
<time>2013-07-13T14:32:48.000Z</time>
</trkpt>
<trkpt lat="42.524605" lon="-1.190376">
<ele>1810</ele>
<time>2013-07-13T14:32:49.000Z</time>
</trkpt>
<trkpt lat="42.524509" lon="-1.190431">
<ele>1809</ele>
<time>2013-07-13T14:32:50.000Z</time>
</trkpt>
<trkpt lat="42.524417" lon="-1.190483">
<ele>1810</ele>
<time>2013-07-13T14:32:51.000Z</time>
</trkpt>
<trkpt lat="42.52433" lon="-1.190533">
<ele>1810</ele>
<time>2013-07-13T14:32:52.000Z</time>
</trkpt>
<trkpt lat="42.524248" lon="-1.190585">
<ele>1811</ele>
<time>2013-07-13T14:32:53.000Z</time>
</trkpt>
<trkpt lat="42.524166" lon="-1.190641">
<ele>1811</ele>
<time>2013-07-13T14:32:54.000Z</time>
</trkpt>
<trkpt lat="42.524084" lon="-1.190697">
<ele>1811</ele>
<time>2013-07-13T14:32:55.000Z</time>
</trkpt>
<trkpt lat="42.524004" lon="-1.190752">
<ele>1811</ele>
<time>2013-07-13T14:32:56.000Z</time>
</trkpt>
<trkpt lat="42.523934" lon="-1.1908">
<ele>1811</ele>
<time>2013-07-13T14:32:57.000Z</time>
</trkpt>
<trkpt lat="42.523872" lon="-1.190842">
<ele>1812</ele>
<time>2013-07-13T14:32:58.000Z</time>
</trkpt>
<trkpt lat="42.523811" lon="-1.190885">
<ele>1813</ele>
<time>2013-07-13T14:32:59.000Z</time>
</trkpt>
<trkpt lat="42.523748" lon="-1.19093">
<ele>1814</ele>
<time>2013-07-13T14:33:00.000Z</time>
</trkpt>
<trkpt lat="42.523676" lon="-1.190983">
<ele>1815</ele>
<time>2013-07-13T14:33:01.000Z</time>
</trkpt>
<trkpt lat="42.523601" lon="-1.19104">
<ele>1815</ele>
<time>2013-07-13T14:33:02.000Z</time>
</trkpt>
<trkpt lat="42.523527" lon="-1.191095">
<ele>1815</ele>
<time>2013-07-13T14:33:03.000Z</time>
</trkpt>
<trkpt lat="42.523455" lon="-1.191144">
<ele>1815</ele>
<time>2013-07-13T14:33:04.000Z</time>
</trkpt>
<trkpt lat="42.523383" lon="-1.191186">
<ele>1815</ele>
<time>2013-07-13T14:33:05.000Z</time>
</trkpt>
<trkpt lat="42.523311" lon="-1.191223">
<ele>1817</ele>
<time>2013-07-13T14:33:06.000Z</time>
</trkpt>
<trkpt lat="42.523243" lon="-1.191256">
<ele>1818</ele>
<time>2013-07-13T14:33:07.000Z</time>
</trkpt>
<trkpt lat="42.523173" lon="-1.191294">
<ele>1819</ele>
<time>2013-07-13T14:33:08.000Z</time>
</trkpt>
<trkpt lat="42.523105" lon="-1.191336">
<ele>1819</ele>
<time>2013-07-13T14:33:09.000Z</time>
</trkpt>
<trkpt lat="42.523038" lon="-1.191379">
<ele>1820</ele>
<time>2013-07-13T14:33:10.000Z</time>
</trkpt>
<trkpt lat="42.522972" lon="-1.191426">
<ele>1822</ele>
<time>2013-07-13T14:33:11.000Z</time>
</trkpt>
<trkpt lat="42.522901" lon="-1.191478">
<ele>1822</ele>
<time>2013-07-13T14:33:12.000Z</time>
</trkpt>
<trkpt lat="42.522826" lon="-1.191528">
<ele>1824</ele>
<time>2013-07-13T14:33:13.000Z</time>
</trkpt>
<trkpt lat="42.522747" lon="-1.191575">
<ele>1826</ele>
<time>2013-07-13T14:33:14.000Z</time>
</trkpt>
<trkpt lat="42.522663" lon="-1.191618">
<ele>1827</ele>
<time>2013-07-13T14:33:15.000Z</time>
</trkpt>
<trkpt lat="42.522578" lon="-1.191662">
<ele>1829</ele>
<time>2013-07-13T14:33:16.000Z</time>
</trkpt>
<trkpt lat="42.522498" lon="-1.191709">
<ele>1829</ele>
<time>2013-07-13T14:33:17.000Z</time>
</trkpt>
<trkpt lat="42.522429" lon="-1.191751">
<ele>1832</ele>
<time>2013-07-13T14:33:18.000Z</time>
</trkpt>
<trkpt lat="42.522366" lon="-1.191788">
<ele>1835</ele>
<time>2013-07-13T14:33:19.000Z</time>
</trkpt>
<trkpt lat="42.5223" lon="-1.191823">
<ele>1837</ele>
<time>2013-07-13T14:33:20.000Z</time>
</trkpt>
<trkpt lat="42.522233" lon="-1.191858">
<ele>1838</ele>
<time>2013-07-13T14:33:21.000Z</time>
</trkpt>
<trkpt lat="42.522162" lon="-1.191894">
<ele>1838</ele>
<time>2013-07-13T14:33:22.000Z</time>
</trkpt>
<trkpt lat="42.522093" lon="-1.191931">
<ele>1836</ele>
<time>2013-07-13T14:33:23.000Z</time>
</trkpt>
<trkpt lat="42.522023" lon="-1.191971">
<ele>1835</ele>
<time>2013-07-13T14:33:24.000Z</time>
</trkpt>
<trkpt lat="42.521952" lon="-1.192012">
<ele>1835</ele>
<time>2013-07-13T14:33:25.000Z</time>
</trkpt>
<trkpt lat="42.521883" lon="-1.192057">
<ele>1835</ele>
<time>2013-07-13T14:33:26.000Z</time>
</trkpt>
<trkpt lat="42.521815" lon="-1.192108">
<ele>1835</ele>
<time>2013-07-13T14:33:27.000Z</time>
</trkpt>
<trkpt lat="42.521749" lon="-1.192161">
<ele>1837</ele>
<time>2013-07-13T14:33:28.000Z</time>
</trkpt>
<trkpt lat="42.521682" lon="-1.192214">
<ele>1838</ele>
<time>2013-07-13T14:33:29.000Z</time>
</trkpt>
<trkpt lat="42.521614" lon="-1.192262">
<ele>1840</ele>
<time>2013-07-13T14:33:30.000Z</time>
</trkpt>
<trkpt lat="42.521543" lon="-1.192303">
<ele>1841</ele>
<time>2013-07-13T14:33:31.000Z</time>
</trkpt>
<trkpt lat="42.521465" lon="-1.192322">
<ele>1841</ele>
<time>2013-07-13T14:33:32.000Z</time>
</trkpt>
<trkpt lat="42.521391" lon="-1.19234">
<ele>1842</ele>
<time>2013-07-13T14:33:33.000Z</time>
</trkpt>
<trkpt lat="42.521317" lon="-1.192358">
<ele>1842</ele>
<time>2013-07-13T14:33:34.000Z</time>
</trkpt>
<trkpt lat="42.521239" lon="-1.192374">
<ele>1843</ele>
<time>2013-07-13T14:33:35.000Z</time>
</trkpt>
<trkpt lat="42.521161" lon="-1.192391">
<ele>1847</ele>
<time>2013-07-13T14:33:36.000Z</time>
</trkpt>
<trkpt lat="42.521089" lon="-1.192412">
<ele>1849</ele>
<time>2013-07-13T14:33:37.000Z</time>
</trkpt>
<trkpt lat="42.521023" lon="-1.192438">
<ele>1849</ele>
<time>2013-07-13T14:33:38.000Z</time>
</trkpt>
<trkpt lat="42.52096" lon="-1.192467">
<ele>1849</ele>
<time>2013-07-13T14:33:39.000Z</time>
</trkpt>
<trkpt lat="42.520897" lon="-1.192496">
<ele>1849</ele>
<time>2013-07-13T14:33:40.000Z</time>
</trkpt>
<trkpt lat="42.520831" lon="-1.192518">
<ele>1849</ele>
<time>2013-07-13T14:33:41.000Z</time>
</trkpt>
<trkpt lat="42.520764" lon="-1.192532">
<ele>1849</ele>
<time>2013-07-13T14:33:42.000Z</time>
</trkpt>
<trkpt lat="42.520696" lon="-1.19254">
<ele>1849</ele>
<time>2013-07-13T14:33:43.000Z</time>
</trkpt>
<trkpt lat="42.520629" lon="-1.192552">
<ele>1850</ele>
<time>2013-07-13T14:33:44.000Z</time>
</trkpt>
<trkpt lat="42.520556" lon="-1.19257">
<ele>1850</ele>
<time>2013-07-13T14:33:45.000Z</time>
</trkpt>
<trkpt lat="42.520477" lon="-1.192598">
<ele>1851</ele>
<time>2013-07-13T14:33:46.000Z</time>
</trkpt>
<trkpt lat="42.520394" lon="-1.192627">
<ele>1851</ele>
<time>2013-07-13T14:33:47.000Z</time>
</trkpt>
<trkpt lat="42.520312" lon="-1.192655">
<ele>1851</ele>
<time>2013-07-13T14:33:48.000Z</time>
</trkpt>
<trkpt lat="42.520235" lon="-1.192676">
<ele>1851</ele>
<time>2013-07-13T14:33:49.000Z</time>
</trkpt>
<trkpt lat="42.520163" lon="-1.192695">
<ele>1851</ele>
<time>2013-07-13T14:33:50.000Z</time>
</trkpt>
<trkpt lat="42.520092" lon="-1.192719">
<ele>1851</ele>
<time>2013-07-13T14:33:51.000Z</time>
</trkpt>
<trkpt lat="42.520012" lon="-1.19275">
<ele>1851</ele>
<time>2013-07-13T14:33:52.000Z</time>
</trkpt>
<trkpt lat="42.519922" lon="-1.192786">
<ele>1851</ele>
<time>2013-07-13T14:33:53.000Z</time>
</trkpt>
<trkpt lat="42.519828" lon="-1.192821">
<ele>1851</ele>
<time>2013-07-13T14:33:54.000Z</time>
</trkpt>
<trkpt lat="42.519736" lon="-1.192853">
<ele>1850</ele>
<time>2013-07-13T14:33:55.000Z</time>
</trkpt>
<trkpt lat="42.519651" lon="-1.192888">
<ele>1851</ele>
<time>2013-07-13T14:33:56.000Z</time>
</trkpt>
<trkpt lat="42.519573" lon="-1.192928">
<ele>1851</ele>
<time>2013-07-13T14:33:57.000Z</time>
</trkpt>
<trkpt lat="42.519497" lon="-1.192971">
<ele>1849</ele>
<time>2013-07-13T14:33:58.000Z</time>
</trkpt>
<trkpt lat="42.519413" lon="-1.193012">
<ele>1852</ele>
<time>2013-07-13T14:33:59.000Z</time>
</trkpt>
<trkpt lat="42.519328" lon="-1.193043">
<ele>1852</ele>
<time>2013-07-13T14:34:00.000Z</time>
</trkpt>
<trkpt lat="42.519241" lon="-1.193062">
<ele>1851</ele>
<time>2013-07-13T14:34:01.000Z</time>
</trkpt>
<trkpt lat="42.519153" lon="-1.193074">
<ele>1851</ele>
<time>2013-07-13T14:34:02.000Z</time>
</trkpt>
<trkpt lat="42.519061" lon="-1.193087">
<ele>1851</ele>
<time>2013-07-13T14:34:03.000Z</time>
</trkpt>
<trkpt lat="42.518963" lon="-1.193107">
<ele>1851</ele>
<time>2013-07-13T14:34:04.000Z</time>
</trkpt>
<trkpt lat="42.518867" lon="-1.193133">
<ele>1852</ele>
<time>2013-07-13T14:34:05.000Z</time>
</trkpt>
<trkpt lat="42.518778" lon="-1.193158">
<ele>1853</ele>
<time>2013-07-13T14:34:06.000Z</time>
</trkpt>
<trkpt lat="42.518695" lon="-1.193185">
<ele>1853</ele>
<time>2013-07-13T14:34:07.000Z</time>
</trkpt>
<trkpt lat="42.518615" lon="-1.19321">
<ele>1852</ele>
<time>2013-07-13T14:34:08.000Z</time>
</trkpt>
<trkpt lat="42.51853" lon="-1.193237">
<ele>1853</ele>
<time>2013-07-13T14:34:09.000Z</time>
</trkpt>
<trkpt lat="42.518438" lon="-1.193273">
<ele>1852</ele>
<time>2013-07-13T14:34:10.000Z</time>
</trkpt>
<trkpt lat="42.518342" lon="-1.193317">
<ele>1853</ele>
<time>2013-07-13T14:34:11.000Z</time>
</trkpt>
<trkpt lat="42.518253" lon="-1.193369">
<ele>1853</ele>
<time>2013-07-13T14:34:12.000Z</time>
</trkpt>
<trkpt lat="42.518168" lon="-1.193423">
<ele>1854</ele>
<time>2013-07-13T14:34:13.000Z</time>
</trkpt>
<trkpt lat="42.518087" lon="-1.193475">
<ele>1855</ele>
<time>2013-07-13T14:34:14.000Z</time>
</trkpt>
<trkpt lat="42.518005" lon="-1.193525">
<ele>1855</ele>
<time>2013-07-13T14:34:15.000Z</time>
</trkpt>
<trkpt lat="42.517916" lon="-1.193575">
<ele>1855</ele>
<time>2013-07-13T14:34:16.000Z</time>
</trkpt>
<trkpt lat="42.517821" lon="-1.193628">
<ele>1856</ele>
<time>2013-07-13T14:34:17.000Z</time>
</trkpt>
<trkpt lat="42.51773" lon="-1.193681">
<ele>1856</ele>
<time>2013-07-13T14:34:18.000Z</time>
</trkpt>
<trkpt lat="42.517644" lon="-1.193731">
<ele>1858</ele>
<time>2013-07-13T14:34:19.000Z</time>
</trkpt>
<trkpt lat="42.517563" lon="-1.193771">
<ele>1858</ele>
<time>2013-07-13T14:34:20.000Z</time>
</trkpt>
<trkpt lat="42.517483" lon="-1.193803">
<ele>1859</ele>
<time>2013-07-13T14:34:21.000Z</time>
</trkpt>
<trkpt lat="42.5174" lon="-1.193837">
<ele>1859</ele>
<time>2013-07-13T14:34:22.000Z</time>
</trkpt>
<trkpt lat="42.517317" lon="-1.193871">
<ele>1859</ele>
<time>2013-07-13T14:34:23.000Z</time>
</trkpt>
<trkpt lat="42.517232" lon="-1.193906">
<ele>1860</ele>
<time>2013-07-13T14:34:24.000Z</time>
</trkpt>
<trkpt lat="42.517148" lon="-1.193942">
<ele>1861</ele>
<time>2013-07-13T14:34:25.000Z</time>
</trkpt>
<trkpt lat="42.517065" lon="-1.193974">
<ele>1861</ele>
<time>2013-07-13T14:34:26.000Z</time>
</trkpt>
<trkpt lat="42.516994" lon="-1.194004">
<ele>1856</ele>
<time>2013-07-13T14:34:27.000Z</time>
</trkpt>
<trkpt lat="42.516924" lon="-1.194032">
<ele>1856</ele>
<time>2013-07-13T14:34:28.000Z</time>
</trkpt>
<trkpt lat="42.516854" lon="-1.194069">
<ele>1854</ele>
<time>2013-07-13T14:34:29.000Z</time>
</trkpt>
<trkpt lat="42.516789" lon="-1.194134">
<ele>1852</ele>
<time>2013-07-13T14:34:30.000Z</time>
</trkpt>
<trkpt lat="42.516714" lon="-1.194207">
<ele>1849</ele>
<time>2013-07-13T14:34:31.000Z</time>
</trkpt>
<trkpt lat="42.516632" lon="-1.19428">
<ele>1849</ele>
<time>2013-07-13T14:34:32.000Z</time>
</trkpt>
<trkpt lat="42.516545" lon="-1.194346">
<ele>1849</ele>
<time>2013-07-13T14:34:33.000Z</time>
</trkpt>
<trkpt lat="42.516468" lon="-1.194398">
<ele>1851</ele>
<time>2013-07-13T14:34:34.000Z</time>
</trkpt>
<trkpt lat="42.516402" lon="-1.194439">
<ele>1852</ele>
<time>2013-07-13T14:34:35.000Z</time>
</trkpt>
<trkpt lat="42.516338" lon="-1.194479">
<ele>1852</ele>
<time>2013-07-13T14:34:36.000Z</time>
</trkpt>
<trkpt lat="42.516268" lon="-1.194527">
<ele>1853</ele>
<time>2013-07-13T14:34:37.000Z</time>
</trkpt>
<trkpt lat="42.516193" lon="-1.194578">
<ele>1853</ele>
<time>2013-07-13T14:34:38.000Z</time>
</trkpt>
<trkpt lat="42.516115" lon="-1.194631">
<ele>1853</ele>
<time>2013-07-13T14:34:39.000Z</time>
</trkpt>
<trkpt lat="42.516039" lon="-1.19468">
<ele>1852</ele>
<time>2013-07-13T14:34:40.000Z</time>
</trkpt>
<trkpt lat="42.515963" lon="-1.194723">
<ele>1852</ele>
<time>2013-07-13T14:34:41.000Z</time>
</trkpt>
<trkpt lat="42.515882" lon="-1.194762">
<ele>1853</ele>
<time>2013-07-13T14:34:42.000Z</time>
</trkpt>
<trkpt lat="42.515795" lon="-1.194799">
<ele>1854</ele>
<time>2013-07-13T14:34:43.000Z</time>
</trkpt>
<trkpt lat="42.515703" lon="-1.194836">
<ele>1853</ele>
<time>2013-07-13T14:34:44.000Z</time>
</trkpt>
<trkpt lat="42.515607" lon="-1.194876">
<ele>1853</ele>
<time>2013-07-13T14:34:45.000Z</time>
</trkpt>
<trkpt lat="42.515517" lon="-1.194913">
<ele>1853</ele>
<time>2013-07-13T14:34:46.000Z</time>
</trkpt>
<trkpt lat="42.515439" lon="-1.194949">
<ele>1853</ele>
<time>2013-07-13T14:34:47.000Z</time>
</trkpt>
<trkpt lat="42.515371" lon="-1.194983">
<ele>1854</ele>
<time>2013-07-13T14:34:48.000Z</time>
</trkpt>
<trkpt lat="42.515304" lon="-1.195017">
<ele>1855</ele>
<time>2013-07-13T14:34:49.000Z</time>
</trkpt>
<trkpt lat="42.515224" lon="-1.195052">
<ele>1853</ele>
<time>2013-07-13T14:34:50.000Z</time>
</trkpt>
<trkpt lat="42.515143" lon="-1.195086">
<ele>1851</ele>
<time>2013-07-13T14:34:51.000Z</time>
</trkpt>
<trkpt lat="42.515061" lon="-1.195119">
<ele>1852</ele>
<time>2013-07-13T14:34:52.000Z</time>
</trkpt>
<trkpt lat="42.514984" lon="-1.195149">
<ele>1853</ele>
<time>2013-07-13T14:34:53.000Z</time>
</trkpt>
<trkpt lat="42.51491" lon="-1.19518">
<ele>1851</ele>
<time>2013-07-13T14:34:54.000Z</time>
</trkpt>
<trkpt lat="42.51483" lon="-1.195209">
<ele>1850</ele>
<time>2013-07-13T14:34:55.000Z</time>
</trkpt>
<trkpt lat="42.514746" lon="-1.195232">
<ele>1848</ele>
<time>2013-07-13T14:34:56.000Z</time>
</trkpt>
<trkpt lat="42.514662" lon="-1.195247">
<ele>1848</ele>
<time>2013-07-13T14:34:57.000Z</time>
</trkpt>
<trkpt lat="42.51458" lon="-1.195262">
<ele>1847</ele>
<time>2013-07-13T14:34:58.000Z</time>
</trkpt>
<trkpt lat="42.514503" lon="-1.195285">
<ele>1846</ele>
<time>2013-07-13T14:34:59.000Z</time>
</trkpt>
<trkpt lat="42.514427" lon="-1.195312">
<ele>1845</ele>
<time>2013-07-13T14:35:00.000Z</time>
</trkpt>
<trkpt lat="42.514348" lon="-1.195343">
<ele>1844</ele>
<time>2013-07-13T14:35:01.000Z</time>
</trkpt>
<trkpt lat="42.51426" lon="-1.195375">
<ele>1842</ele>
<time>2013-07-13T14:35:02.000Z</time>
</trkpt>
<trkpt lat="42.514168" lon="-1.195404">
<ele>1842</ele>
<time>2013-07-13T14:35:03.000Z</time>
</trkpt>
<trkpt lat="42.514086" lon="-1.195433">
<ele>1838</ele>
<time>2013-07-13T14:35:04.000Z</time>
</trkpt>
<trkpt lat="42.514012" lon="-1.195461">
<ele>1838</ele>
<time>2013-07-13T14:35:05.000Z</time>
</trkpt>
<trkpt lat="42.513942" lon="-1.195487">
<ele>1837</ele>
<time>2013-07-13T14:35:06.000Z</time>
</trkpt>
<trkpt lat="42.513871" lon="-1.195512">
<ele>1837</ele>
<time>2013-07-13T14:35:07.000Z</time>
</trkpt>
<trkpt lat="42.513794" lon="-1.195532">
<ele>1835</ele>
<time>2013-07-13T14:35:08.000Z</time>
</trkpt>
<trkpt lat="42.51372" lon="-1.195549">
<ele>1830</ele>
<time>2013-07-13T14:35:09.000Z</time>
</trkpt>
<trkpt lat="42.513641" lon="-1.195575">
<ele>1824</ele>
<time>2013-07-13T14:35:10.000Z</time>
</trkpt>
<trkpt lat="42.513551" lon="-1.195632">
<ele>1823</ele>
<time>2013-07-13T14:35:11.000Z</time>
</trkpt>
<trkpt lat="42.513456" lon="-1.195697">
<ele>1822</ele>
<time>2013-07-13T14:35:12.000Z</time>
</trkpt>
<trkpt lat="42.51337" lon="-1.195758">
<ele>1822</ele>
<time>2013-07-13T14:35:13.000Z</time>
</trkpt>
<trkpt lat="42.513292" lon="-1.195809">
<ele>1822</ele>
<time>2013-07-13T14:35:14.000Z</time>
</trkpt>
<trkpt lat="42.513223" lon="-1.195846">
<ele>1821</ele>
<time>2013-07-13T14:35:15.000Z</time>
</trkpt>
<trkpt lat="42.51315" lon="-1.195878">
<ele>1821</ele>
<time>2013-07-13T14:35:16.000Z</time>
</trkpt>
<trkpt lat="42.513068" lon="-1.195914">
<ele>1820</ele>
<time>2013-07-13T14:35:17.000Z</time>
</trkpt>
<trkpt lat="42.512972" lon="-1.19596">
<ele>1820</ele>
<time>2013-07-13T14:35:18.000Z</time>
</trkpt>
<trkpt lat="42.512882" lon="-1.196013">
<ele>1820</ele>
<time>2013-07-13T14:35:19.000Z</time>
</trkpt>
<trkpt lat="42.51281" lon="-1.196056">
<ele>1820</ele>
<time>2013-07-13T14:35:20.000Z</time>
</trkpt>
<trkpt lat="42.51275" lon="-1.196088">
<ele>1818</ele>
<time>2013-07-13T14:35:21.000Z</time>
</trkpt>
<trkpt lat="42.512684" lon="-1.196118">
<ele>1818</ele>
<time>2013-07-13T14:35:22.000Z</time>
</trkpt>
<trkpt lat="42.512619" lon="-1.196144">
<ele>1818</ele>
<time>2013-07-13T14:35:23.000Z</time>
</trkpt>
<trkpt lat="42.512549" lon="-1.196175">
<ele>1816</ele>
<time>2013-07-13T14:35:24.000Z</time>
</trkpt>
<trkpt lat="42.512465" lon="-1.196222">
<ele>1814</ele>
<time>2013-07-13T14:35:25.000Z</time>
</trkpt>
<trkpt lat="42.512376" lon="-1.196277">
<ele>1812</ele>
<time>2013-07-13T14:35:26.000Z</time>
</trkpt>
<trkpt lat="42.512295" lon="-1.196331">
<ele>1811</ele>
<time>2013-07-13T14:35:27.000Z</time>
</trkpt>
<trkpt lat="42.512219" lon="-1.196385">
<ele>1811</ele>
<time>2013-07-13T14:35:28.000Z</time>
</trkpt>
<trkpt lat="42.512154" lon="-1.196438">
<ele>1810</ele>
<time>2013-07-13T14:35:29.000Z</time>
</trkpt>
<trkpt lat="42.512106" lon="-1.196519">
<ele>1808</ele>
<time>2013-07-13T14:35:30.000Z</time>
</trkpt>
<trkpt lat="42.512058" lon="-1.196612">
<ele>1808</ele>
<time>2013-07-13T14:35:31.000Z</time>
</trkpt>
<trkpt lat="42.512009" lon="-1.196702">
<ele>1804</ele>
<time>2013-07-13T14:35:32.000Z</time>
</trkpt>
<trkpt lat="42.511949" lon="-1.196772">
<ele>1800</ele>
<time>2013-07-13T14:35:33.000Z</time>
</trkpt>
<trkpt lat="42.511882" lon="-1.196819">
<ele>1800</ele>
<time>2013-07-13T14:35:34.000Z</time>
</trkpt>
<trkpt lat="42.511818" lon="-1.196865">
<ele>1796</ele>
<time>2013-07-13T14:35:35.000Z</time>
</trkpt>
<trkpt lat="42.511753" lon="-1.19691">
<ele>1794</ele>
<time>2013-07-13T14:35:36.000Z</time>
</trkpt>
<trkpt lat="42.511683" lon="-1.196958">
<ele>1792</ele>
<time>2013-07-13T14:35:37.000Z</time>
</trkpt>
<trkpt lat="42.511604" lon="-1.197011">
<ele>1789</ele>
<time>2013-07-13T14:35:38.000Z</time>
</trkpt>
<trkpt lat="42.511517" lon="-1.197058">
<ele>1785</ele>
<time>2013-07-13T14:35:39.000Z</time>
</trkpt>
<trkpt lat="42.511431" lon="-1.197095">
<ele>1783</ele>
<time>2013-07-13T14:35:40.000Z</time>
</trkpt>
<trkpt lat="42.51135" lon="-1.197125">
<ele>1780</ele>
<time>2013-07-13T14:35:41.000Z</time>
</trkpt>
<trkpt lat="42.511269" lon="-1.197154">
<ele>1778</ele>
<time>2013-07-13T14:35:42.000Z</time>
</trkpt>
<trkpt lat="42.511186" lon="-1.197189">
<ele>1776</ele>
<time>2013-07-13T14:35:43.000Z</time>
</trkpt>
<trkpt lat="42.511102" lon="-1.197233">
<ele>1774</ele>
<time>2013-07-13T14:35:44.000Z</time>
</trkpt>
<trkpt lat="42.511017" lon="-1.197281">
<ele>1772</ele>
<time>2013-07-13T14:35:45.000Z</time>
</trkpt>
<trkpt lat="42.510939" lon="-1.197329">
<ele>1771</ele>
<time>2013-07-13T14:35:46.000Z</time>
</trkpt>
<trkpt lat="42.510861" lon="-1.197378">
<ele>1770</ele>
<time>2013-07-13T14:35:47.000Z</time>
</trkpt>
<trkpt lat="42.510781" lon="-1.197427">
<ele>1769</ele>
<time>2013-07-13T14:35:48.000Z</time>
</trkpt>
<trkpt lat="42.510694" lon="-1.197479">
<ele>1767</ele>
<time>2013-07-13T14:35:49.000Z</time>
</trkpt>
<trkpt lat="42.510603" lon="-1.197533">
<ele>1765</ele>
<time>2013-07-13T14:35:50.000Z</time>
</trkpt>
<trkpt lat="42.510514" lon="-1.197587">
<ele>1764</ele>
<time>2013-07-13T14:35:51.000Z</time>
</trkpt>
<trkpt lat="42.510431" lon="-1.197642">
<ele>1762</ele>
<time>2013-07-13T14:35:52.000Z</time>
</trkpt>
<trkpt lat="42.510351" lon="-1.197698">
<ele>1760</ele>
<time>2013-07-13T14:35:53.000Z</time>
</trkpt>
<trkpt lat="42.510275" lon="-1.197751">
<ele>1757</ele>
<time>2013-07-13T14:35:54.000Z</time>
</trkpt>
<trkpt lat="42.510196" lon="-1.197807">
<ele>1755</ele>
<time>2013-07-13T14:35:55.000Z</time>
</trkpt>
<trkpt lat="42.510114" lon="-1.197861">
<ele>1754</ele>
<time>2013-07-13T14:35:56.000Z</time>
</trkpt>
<trkpt lat="42.510038" lon="-1.197915">
<ele>1752</ele>
<time>2013-07-13T14:35:57.000Z</time>
</trkpt>
<trkpt lat="42.509966" lon="-1.197962">
<ele>1749</ele>
<time>2013-07-13T14:35:58.000Z</time>
</trkpt>
<trkpt lat="42.509897" lon="-1.19801">
<ele>1745</ele>
<time>2013-07-13T14:35:59.000Z</time>
</trkpt>
<trkpt lat="42.509823" lon="-1.198064">
<ele>1743</ele>
<time>2013-07-13T14:36:00.000Z</time>
</trkpt>
<trkpt lat="42.509748" lon="-1.198121">
<ele>1740</ele>
<time>2013-07-13T14:36:01.000Z</time>
</trkpt>
<trkpt lat="42.509677" lon="-1.198176">
<ele>1737</ele>
<time>2013-07-13T14:36:02.000Z</time>
</trkpt>
<trkpt lat="42.509611" lon="-1.198225">
<ele>1736</ele>
<time>2013-07-13T14:36:03.000Z</time>
</trkpt>
<trkpt lat="42.509543" lon="-1.198267">
<ele>1735</ele>
<time>2013-07-13T14:36:04.000Z</time>
</trkpt>
<trkpt lat="42.509474" lon="-1.198312">
<ele>1732</ele>
<time>2013-07-13T14:36:05.000Z</time>
</trkpt>
<trkpt lat="42.509401" lon="-1.198361">
<ele>1729</ele>
<time>2013-07-13T14:36:06.000Z</time>
</trkpt>
<trkpt lat="42.509322" lon="-1.198413">
<ele>1727</ele>
<time>2013-07-13T14:36:07.000Z</time>
</trkpt>
<trkpt lat="42.509234" lon="-1.198461">
<ele>1725</ele>
<time>2013-07-13T14:36:08.000Z</time>
</trkpt>
<trkpt lat="42.509156" lon="-1.198506">
<ele>1722</ele>
<time>2013-07-13T14:36:09.000Z</time>
</trkpt>
<trkpt lat="42.509083" lon="-1.19855">
<ele>1719</ele>
<time>2013-07-13T14:36:10.000Z</time>
</trkpt>
<trkpt lat="42.509008" lon="-1.198593">
<ele>1717</ele>
<time>2013-07-13T14:36:11.000Z</time>
</trkpt>
<trkpt lat="42.508929" lon="-1.198642">
<ele>1716</ele>
<time>2013-07-13T14:36:12.000Z</time>
</trkpt>
<trkpt lat="42.508849" lon="-1.198694">
<ele>1711</ele>
<time>2013-07-13T14:36:13.000Z</time>
</trkpt>
<trkpt lat="42.50877" lon="-1.198746">
<ele>1709</ele>
<time>2013-07-13T14:36:14.000Z</time>
</trkpt>
<trkpt lat="42.508698" lon="-1.198798">
<ele>1707</ele>
<time>2013-07-13T14:36:15.000Z</time>
</trkpt>
<trkpt lat="42.508629" lon="-1.198852">
<ele>1705</ele>
<time>2013-07-13T14:36:16.000Z</time>
</trkpt>
<trkpt lat="42.508563" lon="-1.19891">
<ele>1704</ele>
<time>2013-07-13T14:36:17.000Z</time>
</trkpt>
<trkpt lat="42.508495" lon="-1.198972">
<ele>1702</ele>
<time>2013-07-13T14:36:18.000Z</time>
</trkpt>
<trkpt lat="42.508421" lon="-1.19904">
<ele>1699</ele>
<time>2013-07-13T14:36:19.000Z</time>
</trkpt>
<trkpt lat="42.508347" lon="-1.199108">
<ele>1697</ele>
<time>2013-07-13T14:36:20.000Z</time>
</trkpt>
<trkpt lat="42.508275" lon="-1.199174">
<ele>1695</ele>
<time>2013-07-13T14:36:21.000Z</time>
</trkpt>
<trkpt lat="42.508206" lon="-1.199237">
<ele>1693</ele>
<time>2013-07-13T14:36:22.000Z</time>
</trkpt>
<trkpt lat="42.50814" lon="-1.1993">
<ele>1689</ele>
<time>2013-07-13T14:36:23.000Z</time>
</trkpt>
<trkpt lat="42.508068" lon="-1.199367">
<ele>1684</ele>
<time>2013-07-13T14:36:24.000Z</time>
</trkpt>
<trkpt lat="42.507988" lon="-1.199441">
<ele>1681</ele>
<time>2013-07-13T14:36:25.000Z</time>
</trkpt>
<trkpt lat="42.507907" lon="-1.199513">
<ele>1679</ele>
<time>2013-07-13T14:36:26.000Z</time>
</trkpt>
<trkpt lat="42.507833" lon="-1.199579">
<ele>1677</ele>
<time>2013-07-13T14:36:27.000Z</time>
</trkpt>
<trkpt lat="42.507762" lon="-1.199638">
<ele>1675</ele>
<time>2013-07-13T14:36:28.000Z</time>
</trkpt>
<trkpt lat="42.507687" lon="-1.19969">
<ele>1674</ele>
<time>2013-07-13T14:36:29.000Z</time>
</trkpt>
<trkpt lat="42.507606" lon="-1.199742">
<ele>1672</ele>
<time>2013-07-13T14:36:30.000Z</time>
</trkpt>
<trkpt lat="42.507518" lon="-1.199798">
<ele>1669</ele>
<time>2013-07-13T14:36:31.000Z</time>
</trkpt>
<trkpt lat="42.507422" lon="-1.199863">
<ele>1663</ele>
<time>2013-07-13T14:36:32.000Z</time>
</trkpt>
<trkpt lat="42.507326" lon="-1.19993">
<ele>1663</ele>
<time>2013-07-13T14:36:33.000Z</time>
</trkpt>
<trkpt lat="42.507241" lon="-1.199991">
<ele>1662</ele>
<time>2013-07-13T14:36:34.000Z</time>
</trkpt>
<trkpt lat="42.507163" lon="-1.200048">
<ele>1660</ele>
<time>2013-07-13T14:36:35.000Z</time>
</trkpt>
<trkpt lat="42.507088" lon="-1.200104">
<ele>1658</ele>
<time>2013-07-13T14:36:36.000Z</time>
</trkpt>
<trkpt lat="42.507008" lon="-1.200165">
<ele>1654</ele>
<time>2013-07-13T14:36:37.000Z</time>
</trkpt>
<trkpt lat="42.506924" lon="-1.200229">
<ele>1651</ele>
<time>2013-07-13T14:36:38.000Z</time>
</trkpt>
<trkpt lat="42.506844" lon="-1.200292">
<ele>1650</ele>
<time>2013-07-13T14:36:39.000Z</time>
</trkpt>
<trkpt lat="42.506768" lon="-1.200352">
<ele>1649</ele>
<time>2013-07-13T14:36:40.000Z</time>
</trkpt>
<trkpt lat="42.506695" lon="-1.200411">
<ele>1647</ele>
<time>2013-07-13T14:36:41.000Z</time>
</trkpt>
<trkpt lat="42.506624" lon="-1.200471">
<ele>1645</ele>
<time>2013-07-13T14:36:42.000Z</time>
</trkpt>
<trkpt lat="42.506548" lon="-1.200534">
<ele>1642</ele>
<time>2013-07-13T14:36:43.000Z</time>
</trkpt>
<trkpt lat="42.506473" lon="-1.200595">
<ele>1638</ele>
<time>2013-07-13T14:36:44.000Z</time>
</trkpt>
<trkpt lat="42.506399" lon="-1.200657">
<ele>1631</ele>
<time>2013-07-13T14:36:45.000Z</time>
</trkpt>
<trkpt lat="42.506324" lon="-1.20072">
<ele>1627</ele>
<time>2013-07-13T14:36:46.000Z</time>
</trkpt>
<trkpt lat="42.506246" lon="-1.200784">
<ele>1625</ele>
<time>2013-07-13T14:36:47.000Z</time>
</trkpt>
<trkpt lat="42.50617" lon="-1.200844">
<ele>1624</ele>
<time>2013-07-13T14:36:48.000Z</time>
</trkpt>
<trkpt lat="42.506091" lon="-1.200902">
<ele>1621</ele>
<time>2013-07-13T14:36:49.000Z</time>
</trkpt>
<trkpt lat="42.506011" lon="-1.20096">
<ele>1618</ele>
<time>2013-07-13T14:36:50.000Z</time>
</trkpt>
<trkpt lat="42.50593" lon="-1.20102">
<ele>1615</ele>
<time>2013-07-13T14:36:51.000Z</time>
</trkpt>
<trkpt lat="42.505852" lon="-1.201079">
<ele>1614</ele>
<time>2013-07-13T14:36:52.000Z</time>
</trkpt>
<trkpt lat="42.505776" lon="-1.201145">
<ele>1608</ele>
<time>2013-07-13T14:36:53.000Z</time>
</trkpt>
<trkpt lat="42.505703" lon="-1.20121">
<ele>1608</ele>
<time>2013-07-13T14:36:54.000Z</time>
</trkpt>
<trkpt lat="42.505629" lon="-1.201275">
<ele>1606</ele>
<time>2013-07-13T14:36:55.000Z</time>
</trkpt>
<trkpt lat="42.505552" lon="-1.201344">
<ele>1604</ele>
<time>2013-07-13T14:36:56.000Z</time>
</trkpt>
<trkpt lat="42.505473" lon="-1.201415">
<ele>1602</ele>
<time>2013-07-13T14:36:57.000Z</time>
</trkpt>
<trkpt lat="42.50539" lon="-1.201485">
<ele>1600</ele>
<time>2013-07-13T14:36:58.000Z</time>
</trkpt>
<trkpt lat="42.505308" lon="-1.20155">
<ele>1598</ele>
<time>2013-07-13T14:36:59.000Z</time>
</trkpt>
<trkpt lat="42.505229" lon="-1.20161">
<ele>1595</ele>
<time>2013-07-13T14:37:00.000Z</time>
</trkpt>
<trkpt lat="42.505149" lon="-1.20167">
<ele>1593</ele>
<time>2013-07-13T14:37:01.000Z</time>
</trkpt>
<trkpt lat="42.50507" lon="-1.201729">
<ele>1591</ele>
<time>2013-07-13T14:37:02.000Z</time>
</trkpt>
<trkpt lat="42.504999" lon="-1.201782">
<ele>1590</ele>
<time>2013-07-13T14:37:03.000Z</time>
</trkpt>
<trkpt lat="42.504929" lon="-1.201834">
<ele>1587</ele>
<time>2013-07-13T14:37:04.000Z</time>
</trkpt>
<trkpt lat="42.50486" lon="-1.201885">
<ele>1585</ele>
<time>2013-07-13T14:37:05.000Z</time>
</trkpt>
<trkpt lat="42.504788" lon="-1.201938">
<ele>1582</ele>
<time>2013-07-13T14:37:06.000Z</time>
</trkpt>
<trkpt lat="42.504711" lon="-1.201991">
<ele>1579</ele>
<time>2013-07-13T14:37:07.000Z</time>
</trkpt>
<trkpt lat="42.504634" lon="-1.202045">
<ele>1576</ele>
<time>2013-07-13T14:37:08.000Z</time>
</trkpt>
<trkpt lat="42.504563" lon="-1.202101">
<ele>1565</ele>
<time>2013-07-13T14:37:09.000Z</time>
</trkpt>
<trkpt lat="42.504491" lon="-1.202154">
<ele>1563</ele>
<time>2013-07-13T14:37:10.000Z</time>
</trkpt>
<trkpt lat="42.504419" lon="-1.20221">
<ele>1559</ele>
<time>2013-07-13T14:37:11.000Z</time>
</trkpt>
<trkpt lat="42.504345" lon="-1.202264">
<ele>1558</ele>
<time>2013-07-13T14:37:12.000Z</time>
</trkpt>
<trkpt lat="42.504267" lon="-1.20232">
<ele>1555</ele>
<time>2013-07-13T14:37:13.000Z</time>
</trkpt>
<trkpt lat="42.504186" lon="-1.202372">
<ele>1554</ele>
<time>2013-07-13T14:37:14.000Z</time>
</trkpt>
<trkpt lat="42.5041" lon="-1.202424">
<ele>1552</ele>
<time>2013-07-13T14:37:15.000Z</time>
</trkpt>
<trkpt lat="42.504009" lon="-1.202474">
<ele>1549</ele>
<time>2013-07-13T14:37:16.000Z</time>
</trkpt>
<trkpt lat="42.503916" lon="-1.202521">
<ele>1547</ele>
<time>2013-07-13T14:37:17.000Z</time>
</trkpt>
<trkpt lat="42.503823" lon="-1.202567">
<ele>1545</ele>
<time>2013-07-13T14:37:18.000Z</time>
</trkpt>
<trkpt lat="42.503728" lon="-1.202607">
<ele>1543</ele>
<time>2013-07-13T14:37:19.000Z</time>
</trkpt>
<trkpt lat="42.503634" lon="-1.20264">
<ele>1541</ele>
<time>2013-07-13T14:37:20.000Z</time>
</trkpt>
<trkpt lat="42.503538" lon="-1.202667">
<ele>1539</ele>
<time>2013-07-13T14:37:21.000Z</time>
</trkpt>
<trkpt lat="42.503436" lon="-1.202687">
<ele>1537</ele>
<time>2013-07-13T14:37:22.000Z</time>
</trkpt>
<trkpt lat="42.503324" lon="-1.202706">
<ele>1535</ele>
<time>2013-07-13T14:37:23.000Z</time>
</trkpt>
<trkpt lat="42.50321" lon="-1.202721">
<ele>1533</ele>
<time>2013-07-13T14:37:24.000Z</time>
</trkpt>
<trkpt lat="42.503096" lon="-1.202735">
<ele>1527</ele>
<time>2013-07-13T14:37:25.000Z</time>
</trkpt>
<trkpt lat="42.502985" lon="-1.202744">
<ele>1526</ele>
<time>2013-07-13T14:37:26.000Z</time>
</trkpt>
<trkpt lat="42.502877" lon="-1.202753">
<ele>1524</ele>
<time>2013-07-13T14:37:27.000Z</time>
</trkpt>
<trkpt lat="42.502771" lon="-1.20277">
<ele>1522</ele>
<time>2013-07-13T14:37:28.000Z</time>
</trkpt>
<trkpt lat="42.502661" lon="-1.202795">
<ele>1521</ele>
<time>2013-07-13T14:37:29.000Z</time>
</trkpt>
<trkpt lat="42.502548" lon="-1.202825">
<ele>1519</ele>
<time>2013-07-13T14:37:30.000Z</time>
</trkpt>
<trkpt lat="42.502437" lon="-1.20286">
<ele>1517</ele>
<time>2013-07-13T14:37:31.000Z</time>
</trkpt>
<trkpt lat="42.502327" lon="-1.202899">
<ele>1516</ele>
<time>2013-07-13T14:37:32.000Z</time>
</trkpt>
<trkpt lat="42.502225" lon="-1.202941">
<ele>1514</ele>
<time>2013-07-13T14:37:33.000Z</time>
</trkpt>
<trkpt lat="42.50213" lon="-1.202986">
<ele>1513</ele>
<time>2013-07-13T14:37:34.000Z</time>
</trkpt>
<trkpt lat="42.502036" lon="-1.20303">
<ele>1511</ele>
<time>2013-07-13T14:37:35.000Z</time>
</trkpt>
<trkpt lat="42.501942" lon="-1.203078">
<ele>1508</ele>
<time>2013-07-13T14:37:36.000Z</time>
</trkpt>
<trkpt lat="42.501844" lon="-1.203128">
<ele>1505</ele>
<time>2013-07-13T14:37:37.000Z</time>
</trkpt>
<trkpt lat="42.501745" lon="-1.203185">
<ele>1503</ele>
<time>2013-07-13T14:37:38.000Z</time>
</trkpt>
<trkpt lat="42.501661" lon="-1.203245">
<ele>1496</ele>
<time>2013-07-13T14:37:39.000Z</time>
</trkpt>
<trkpt lat="42.501578" lon="-1.203308">
<ele>1492</ele>
<time>2013-07-13T14:37:40.000Z</time>
</trkpt>
<trkpt lat="42.501493" lon="-1.203372">
<ele>1491</ele>
<time>2013-07-13T14:37:41.000Z</time>
</trkpt>
<trkpt lat="42.501406" lon="-1.203441">
<ele>1486</ele>
<time>2013-07-13T14:37:42.000Z</time>
</trkpt>
<trkpt lat="42.501318" lon="-1.203513">
<ele>1484</ele>
<time>2013-07-13T14:37:43.000Z</time>
</trkpt>
<trkpt lat="42.501225" lon="-1.203589">
<ele>1480</ele>
<time>2013-07-13T14:37:44.000Z</time>
</trkpt>
<trkpt lat="42.501132" lon="-1.20366">
<ele>1478</ele>
<time>2013-07-13T14:37:45.000Z</time>
</trkpt>
<trkpt lat="42.501038" lon="-1.203729">
<ele>1477</ele>
<time>2013-07-13T14:37:46.000Z</time>
</trkpt>
<trkpt lat="42.500952" lon="-1.203798">
<ele>1474</ele>
<time>2013-07-13T14:37:47.000Z</time>
</trkpt>
<trkpt lat="42.500865" lon="-1.203869">
<ele>1472</ele>
<time>2013-07-13T14:37:48.000Z</time>
</trkpt>
<trkpt lat="42.500776" lon="-1.203946">
<ele>1470</ele>
<time>2013-07-13T14:37:49.000Z</time>
</trkpt>
<trkpt lat="42.500683" lon="-1.204017">
<ele>1469</ele>
<time>2013-07-13T14:37:50.000Z</time>
</trkpt>
<trkpt lat="42.500588" lon="-1.204083">
<ele>1469</ele>
<time>2013-07-13T14:37:51.000Z</time>
</trkpt>
<trkpt lat="42.500496" lon="-1.204144">
<ele>1469</ele>
<time>2013-07-13T14:37:52.000Z</time>
</trkpt>
<trkpt lat="42.500399" lon="-1.204202">
<ele>1469</ele>
<time>2013-07-13T14:37:53.000Z</time>
</trkpt>
<trkpt lat="42.500294" lon="-1.204268">
<ele>1469</ele>
<time>2013-07-13T14:37:54.000Z</time>
</trkpt>
<trkpt lat="42.500184" lon="-1.204331">
<ele>1470</ele>
<time>2013-07-13T14:37:55.000Z</time>
</trkpt>
<trkpt lat="42.500071" lon="-1.20439">
<ele>1469</ele>
<time>2013-07-13T14:37:56.000Z</time>
</trkpt>
<trkpt lat="42.499963" lon="-1.204441">
<ele>1468</ele>
<time>2013-07-13T14:37:57.000Z</time>
</trkpt>
<trkpt lat="42.499859" lon="-1.204488">
<ele>1468</ele>
<time>2013-07-13T14:37:58.000Z</time>
</trkpt>
<trkpt lat="42.499758" lon="-1.204533">
<ele>1468</ele>
<time>2013-07-13T14:37:59.000Z</time>
</trkpt>
<trkpt lat="42.499655" lon="-1.20458">
<ele>1467</ele>
<time>2013-07-13T14:38:00.000Z</time>
</trkpt>
<trkpt lat="42.499551" lon="-1.204631">
<ele>1468</ele>
<time>2013-07-13T14:38:01.000Z</time>
</trkpt>
<trkpt lat="42.499454" lon="-1.204681">
<ele>1467</ele>
<time>2013-07-13T14:38:02.000Z</time>
</trkpt>
<trkpt lat="42.499363" lon="-1.204731">
<ele>1467</ele>
<time>2013-07-13T14:38:03.000Z</time>
</trkpt>
<trkpt lat="42.499278" lon="-1.204782">
<ele>1466</ele>
<time>2013-07-13T14:38:04.000Z</time>
</trkpt>
<trkpt lat="42.499199" lon="-1.204835">
<ele>1465</ele>
<time>2013-07-13T14:38:05.000Z</time>
</trkpt>
<trkpt lat="42.499125" lon="-1.20489">
<ele>1465</ele>
<time>2013-07-13T14:38:06.000Z</time>
</trkpt>
<trkpt lat="42.499053" lon="-1.204944">
<ele>1465</ele>
<time>2013-07-13T14:38:07.000Z</time>
</trkpt>
<trkpt lat="42.49898" lon="-1.204999">
<ele>1464</ele>
<time>2013-07-13T14:38:08.000Z</time>
</trkpt>
<trkpt lat="42.498903" lon="-1.205056">
<ele>1463</ele>
<time>2013-07-13T14:38:09.000Z</time>
</trkpt>
<trkpt lat="42.498826" lon="-1.205118">
<ele>1462</ele>
<time>2013-07-13T14:38:10.000Z</time>
</trkpt>
<trkpt lat="42.498757" lon="-1.205177">
<ele>1462</ele>
<time>2013-07-13T14:38:11.000Z</time>
</trkpt>
<trkpt lat="42.498694" lon="-1.205233">
<ele>1461</ele>
<time>2013-07-13T14:38:12.000Z</time>
</trkpt>
<trkpt lat="42.49863" lon="-1.205279">
<ele>1460</ele>
<time>2013-07-13T14:38:13.000Z</time>
</trkpt>
<trkpt lat="42.498563" lon="-1.205318">
<ele>1459</ele>
<time>2013-07-13T14:38:14.000Z</time>
</trkpt>
<trkpt lat="42.498493" lon="-1.205351">
<ele>1459</ele>
<time>2013-07-13T14:38:15.000Z</time>
</trkpt>
<trkpt lat="42.498424" lon="-1.205385">
<ele>1458</ele>
<time>2013-07-13T14:38:16.000Z</time>
</trkpt>
<trkpt lat="42.498352" lon="-1.205423">
<ele>1455</ele>
<time>2013-07-13T14:38:17.000Z</time>
</trkpt>
<trkpt lat="42.498275" lon="-1.205468">
<ele>1454</ele>
<time>2013-07-13T14:38:18.000Z</time>
</trkpt>
<trkpt lat="42.498199" lon="-1.205511">
<ele>1453</ele>
<time>2013-07-13T14:38:19.000Z</time>
</trkpt>
<trkpt lat="42.498129" lon="-1.205549">
<ele>1453</ele>
<time>2013-07-13T14:38:20.000Z</time>
</trkpt>
<trkpt lat="42.49806" lon="-1.205581">
<ele>1452</ele>
<time>2013-07-13T14:38:21.000Z</time>
</trkpt>
<trkpt lat="42.497988" lon="-1.205615">
<ele>1451</ele>
<time>2013-07-13T14:38:22.000Z</time>
</trkpt>
<trkpt lat="42.497911" lon="-1.205657">
<ele>1449</ele>
<time>2013-07-13T14:38:23.000Z</time>
</trkpt>
<trkpt lat="42.497829" lon="-1.205709">
<ele>1447</ele>
<time>2013-07-13T14:38:24.000Z</time>
</trkpt>
<trkpt lat="42.497753" lon="-1.205767">
<ele>1446</ele>
<time>2013-07-13T14:38:25.000Z</time>
</trkpt>
<trkpt lat="42.497688" lon="-1.205822">
<ele>1446</ele>
<time>2013-07-13T14:38:26.000Z</time>
</trkpt>
<trkpt lat="42.497632" lon="-1.205866">
<ele>1448</ele>
<time>2013-07-13T14:38:27.000Z</time>
</trkpt>
<trkpt lat="42.49757" lon="-1.205907">
<ele>1450</ele>
<time>2013-07-13T14:38:28.000Z</time>
</trkpt>
<trkpt lat="42.497503" lon="-1.205949">
<ele>1450</ele>
<time>2013-07-13T14:38:29.000Z</time>
</trkpt>
<trkpt lat="42.49744" lon="-1.20599">
<ele>1450</ele>
<time>2013-07-13T14:38:30.000Z</time>
</trkpt>
<trkpt lat="42.497382" lon="-1.206029">
<ele>1450</ele>
<time>2013-07-13T14:38:31.000Z</time>
</trkpt>
<trkpt lat="42.497329" lon="-1.206063">
<ele>1449</ele>
<time>2013-07-13T14:38:32.000Z</time>
</trkpt>
<trkpt lat="42.497277" lon="-1.206094">
<ele>1450</ele>
<time>2013-07-13T14:38:33.000Z</time>
</trkpt>
<trkpt lat="42.497223" lon="-1.206126">
<ele>1451</ele>
<time>2013-07-13T14:38:34.000Z</time>
</trkpt>
<trkpt lat="42.497173" lon="-1.206158">
<ele>1450</ele>
<time>2013-07-13T14:38:35.000Z</time>
</trkpt>
<trkpt lat="42.497126" lon="-1.206193">
<ele>1449</ele>
<time>2013-07-13T14:38:36.000Z</time>
</trkpt>
<trkpt lat="42.497076" lon="-1.206231">
<ele>1449</ele>
<time>2013-07-13T14:38:37.000Z</time>
</trkpt>
<trkpt lat="42.497014" lon="-1.206275">
<ele>1447</ele>
<time>2013-07-13T14:38:38.000Z</time>
</trkpt>
<trkpt lat="42.496952" lon="-1.206313">
<ele>1444</ele>
<time>2013-07-13T14:38:39.000Z</time>
</trkpt>
<trkpt lat="42.496888" lon="-1.206344">
<ele>1444</ele>
<time>2013-07-13T14:38:40.000Z</time>
</trkpt>
<trkpt lat="42.496826" lon="-1.206375">
<ele>1443</ele>
<time>2013-07-13T14:38:41.000Z</time>
</trkpt>
<trkpt lat="42.496762" lon="-1.206403">
<ele>1443</ele>
<time>2013-07-13T14:38:42.000Z</time>
</trkpt>
<trkpt lat="42.496698" lon="-1.206433">
<ele>1442</ele>
<time>2013-07-13T14:38:43.000Z</time>
</trkpt>
<trkpt lat="42.49663" lon="-1.206465">
<ele>1442</ele>
<time>2013-07-13T14:38:44.000Z</time>
</trkpt>
<trkpt lat="42.496556" lon="-1.206503">
<ele>1441</ele>
<time>2013-07-13T14:38:45.000Z</time>
</trkpt>
<trkpt lat="42.496479" lon="-1.206546">
<ele>1442</ele>
<time>2013-07-13T14:38:46.000Z</time>
</trkpt>
<trkpt lat="42.496402" lon="-1.206592">
<ele>1442</ele>
<time>2013-07-13T14:38:47.000Z</time>
</trkpt>
<trkpt lat="42.496328" lon="-1.206641">
<ele>1441</ele>
<time>2013-07-13T14:38:48.000Z</time>
</trkpt>
<trkpt lat="42.496259" lon="-1.206695">
<ele>1441</ele>
<time>2013-07-13T14:38:49.000Z</time>
</trkpt>
<trkpt lat="42.496195" lon="-1.206747">
<ele>1440</ele>
<time>2013-07-13T14:38:50.000Z</time>
</trkpt>
<trkpt lat="42.496134" lon="-1.2068">
<ele>1440</ele>
<time>2013-07-13T14:38:51.000Z</time>
</trkpt>
<trkpt lat="42.496073" lon="-1.206857">
<ele>1440</ele>
<time>2013-07-13T14:38:52.000Z</time>
</trkpt>
<trkpt lat="42.496016" lon="-1.206912">
<ele>1440</ele>
<time>2013-07-13T14:38:53.000Z</time>
</trkpt>
<trkpt lat="42.495963" lon="-1.206966">
<ele>1440</ele>
<time>2013-07-13T14:38:54.000Z</time>
</trkpt>
<trkpt lat="42.49591" lon="-1.207022">
<ele>1440</ele>
<time>2013-07-13T14:38:55.000Z</time>
</trkpt>
<trkpt lat="42.495857" lon="-1.207081">
<ele>1440</ele>
<time>2013-07-13T14:38:56.000Z</time>
</trkpt>
<trkpt lat="42.495804" lon="-1.207141">
<ele>1440</ele>
<time>2013-07-13T14:38:57.000Z</time>
</trkpt>
<trkpt lat="42.495752" lon="-1.207199">
<ele>1439</ele>
<time>2013-07-13T14:38:58.000Z</time>
</trkpt>
<trkpt lat="42.495702" lon="-1.207258">
<ele>1439</ele>
<time>2013-07-13T14:38:59.000Z</time>
</trkpt>
<trkpt lat="42.495657" lon="-1.207312">
<ele>1438</ele>
<time>2013-07-13T14:39:00.000Z</time>
</trkpt>
<trkpt lat="42.495615" lon="-1.207361">
<ele>1438</ele>
<time>2013-07-13T14:39:01.000Z</time>
</trkpt>
<trkpt lat="42.49557" lon="-1.207413">
<ele>1437</ele>
<time>2013-07-13T14:39:02.000Z</time>
</trkpt>
<trkpt lat="42.495522" lon="-1.207467">
<ele>1437</ele>
<time>2013-07-13T14:39:03.000Z</time>
</trkpt>
<trkpt lat="42.495472" lon="-1.207525">
<ele>1436</ele>
<time>2013-07-13T14:39:04.000Z</time>
</trkpt>
<trkpt lat="42.495419" lon="-1.207585">
<ele>1436</ele>
<time>2013-07-13T14:39:05.000Z</time>
</trkpt>
<trkpt lat="42.495369" lon="-1.207643">
<ele>1437</ele>
<time>2013-07-13T14:39:06.000Z</time>
</trkpt>
<trkpt lat="42.49532" lon="-1.207698">
<ele>1436</ele>
<time>2013-07-13T14:39:07.000Z</time>
</trkpt>
<trkpt lat="42.495273" lon="-1.20775">
<ele>1437</ele>
<time>2013-07-13T14:39:08.000Z</time>
</trkpt>
<trkpt lat="42.495225" lon="-1.207804">
<ele>1436</ele>
<time>2013-07-13T14:39:09.000Z</time>
</trkpt>
<trkpt lat="42.495179" lon="-1.207862">
<ele>1436</ele>
<time>2013-07-13T14:39:10.000Z</time>
</trkpt>
<trkpt lat="42.495137" lon="-1.207917">
<ele>1435</ele>
<time>2013-07-13T14:39:11.000Z</time>
</trkpt>
<trkpt lat="42.495103" lon="-1.207965">
<ele>1434</ele>
<time>2013-07-13T14:39:12.000Z</time>
</trkpt>
<trkpt lat="42.495071" lon="-1.208015">
<ele>1433</ele>
<time>2013-07-13T14:39:13.000Z</time>
</trkpt>
<trkpt lat="42.495037" lon="-1.208076">
<ele>1433</ele>
<time>2013-07-13T14:39:14.000Z</time>
</trkpt>
<trkpt lat="42.495001" lon="-1.208145">
<ele>1434</ele>
<time>2013-07-13T14:39:15.000Z</time>
</trkpt>
<trkpt lat="42.494961" lon="-1.208219">
<ele>1435</ele>
<time>2013-07-13T14:39:16.000Z</time>
</trkpt>
<trkpt lat="42.494916" lon="-1.208292">
<ele>1434</ele>
<time>2013-07-13T14:39:17.000Z</time>
</trkpt>
<trkpt lat="42.494867" lon="-1.208359">
<ele>1434</ele>
<time>2013-07-13T14:39:18.000Z</time>
</trkpt>
<trkpt lat="42.494815" lon="-1.208421">
<ele>1434</ele>
<time>2013-07-13T14:39:19.000Z</time>
</trkpt>
<trkpt lat="42.494759" lon="-1.20848">
<ele>1434</ele>
<time>2013-07-13T14:39:20.000Z</time>
</trkpt>
<trkpt lat="42.494695" lon="-1.208551">
<ele>1431</ele>
<time>2013-07-13T14:39:21.000Z</time>
</trkpt>
<trkpt lat="42.494629" lon="-1.208623">
<ele>1429</ele>
<time>2013-07-13T14:39:22.000Z</time>
</trkpt>
<trkpt lat="42.494577" lon="-1.208682">
<ele>1429</ele>
<time>2013-07-13T14:39:23.000Z</time>
</trkpt>
<trkpt lat="42.494528" lon="-1.208733">
<ele>1428</ele>
<time>2013-07-13T14:39:24.000Z</time>
</trkpt>
<trkpt lat="42.494481" lon="-1.208779">
<ele>1428</ele>
<time>2013-07-13T14:39:25.000Z</time>
</trkpt>
<trkpt lat="42.494431" lon="-1.208829">
<ele>1428</ele>
<time>2013-07-13T14:39:26.000Z</time>
</trkpt>
<trkpt lat="42.494376" lon="-1.208891">
<ele>1427</ele>
<time>2013-07-13T14:39:27.000Z</time>
</trkpt>
<trkpt lat="42.494319" lon="-1.208962">
<ele>1427</ele>
<time>2013-07-13T14:39:28.000Z</time>
</trkpt>
<trkpt lat="42.494264" lon="-1.209029">
<ele>1427</ele>
<time>2013-07-13T14:39:29.000Z</time>
</trkpt>
<trkpt lat="42.494216" lon="-1.209088">
<ele>1427</ele>
<time>2013-07-13T14:39:30.000Z</time>
</trkpt>
<trkpt lat="42.494169" lon="-1.20914">
<ele>1427</ele>
<time>2013-07-13T14:39:31.000Z</time>
</trkpt>
<trkpt lat="42.494116" lon="-1.209195">
<ele>1428</ele>
<time>2013-07-13T14:39:32.000Z</time>
</trkpt>
<trkpt lat="42.49406" lon="-1.209253">
<ele>1427</ele>
<time>2013-07-13T14:39:33.000Z</time>
</trkpt>
<trkpt lat="42.494001" lon="-1.209314">
<ele>1425</ele>
<time>2013-07-13T14:39:34.000Z</time>
</trkpt>
<trkpt lat="42.49394" lon="-1.209377">
<ele>1424</ele>
<time>2013-07-13T14:39:35.000Z</time>
</trkpt>
<trkpt lat="42.493883" lon="-1.209441">
<ele>1423</ele>
<time>2013-07-13T14:39:36.000Z</time>
</trkpt>
<trkpt lat="42.493833" lon="-1.209498">
<ele>1424</ele>
<time>2013-07-13T14:39:37.000Z</time>
</trkpt>
<trkpt lat="42.493791" lon="-1.209546">
<ele>1424</ele>
<time>2013-07-13T14:39:38.000Z</time>
</trkpt>
<trkpt lat="42.493749" lon="-1.209588">
<ele>1424</ele>
<time>2013-07-13T14:39:39.000Z</time>
</trkpt>
<trkpt lat="42.493705" lon="-1.209631">
<ele>1423</ele>
<time>2013-07-13T14:39:40.000Z</time>
</trkpt>
<trkpt lat="42.493651" lon="-1.209685">
<ele>1421</ele>
<time>2013-07-13T14:39:41.000Z</time>
</trkpt>
<trkpt lat="42.493593" lon="-1.20975">
<ele>1421</ele>
<time>2013-07-13T14:39:42.000Z</time>
</trkpt>
<trkpt lat="42.493533" lon="-1.209816">
<ele>1420</ele>
<time>2013-07-13T14:39:43.000Z</time>
</trkpt>
<trkpt lat="42.493473" lon="-1.209874">
<ele>1420</ele>
<time>2013-07-13T14:39:44.000Z</time>
</trkpt>
<trkpt lat="42.49342" lon="-1.209918">
<ele>1420</ele>
<time>2013-07-13T14:39:45.000Z</time>
</trkpt>
<trkpt lat="42.493374" lon="-1.209961">
<ele>1418</ele>
<time>2013-07-13T14:39:46.000Z</time>
</trkpt>
<trkpt lat="42.493326" lon="-1.210014">
<ele>1415</ele>
<time>2013-07-13T14:39:47.000Z</time>
</trkpt>
<trkpt lat="42.493278" lon="-1.210076">
<ele>1413</ele>
<time>2013-07-13T14:39:48.000Z</time>
</trkpt>
<trkpt lat="42.493225" lon="-1.210144">
<ele>1412</ele>
<time>2013-07-13T14:39:49.000Z</time>
</trkpt>
<trkpt lat="42.49317" lon="-1.210215">
<ele>1410</ele>
<time>2013-07-13T14:39:50.000Z</time>
</trkpt>
<trkpt lat="42.493116" lon="-1.210284">
<ele>1409</ele>
<time>2013-07-13T14:39:51.000Z</time>
</trkpt>
<trkpt lat="42.493064" lon="-1.21035">
<ele>1407</ele>
<time>2013-07-13T14:39:52.000Z</time>
</trkpt>
<trkpt lat="42.493014" lon="-1.210415">
<ele>1404</ele>
<time>2013-07-13T14:39:53.000Z</time>
</trkpt>
<trkpt lat="42.492963" lon="-1.210485">
<ele>1403</ele>
<time>2013-07-13T14:39:54.000Z</time>
</trkpt>
<trkpt lat="42.492908" lon="-1.210556">
<ele>1403</ele>
<time>2013-07-13T14:39:55.000Z</time>
</trkpt>
<trkpt lat="42.492853" lon="-1.210627">
<ele>1403</ele>
<time>2013-07-13T14:39:56.000Z</time>
</trkpt>
<trkpt lat="42.492799" lon="-1.210695">
<ele>1402</ele>
<time>2013-07-13T14:39:57.000Z</time>
</trkpt>
<trkpt lat="42.492745" lon="-1.210759">
<ele>1401</ele>
<time>2013-07-13T14:39:58.000Z</time>
</trkpt>
<trkpt lat="42.49269" lon="-1.210824">
<ele>1399</ele>
<time>2013-07-13T14:39:59.000Z</time>
</trkpt>
<trkpt lat="42.492633" lon="-1.210892">
<ele>1398</ele>
<time>2013-07-13T14:40:00.000Z</time>
</trkpt>
<trkpt lat="42.492573" lon="-1.210964">
<ele>1396</ele>
<time>2013-07-13T14:40:01.000Z</time>
</trkpt>
<trkpt lat="42.492511" lon="-1.211037">
<ele>1395</ele>
<time>2013-07-13T14:40:02.000Z</time>
</trkpt>
<trkpt lat="42.492451" lon="-1.211107">
<ele>1395</ele>
<time>2013-07-13T14:40:03.000Z</time>
</trkpt>
<trkpt lat="42.492395" lon="-1.211175">
<ele>1392</ele>
<time>2013-07-13T14:40:04.000Z</time>
</trkpt>
<trkpt lat="42.492342" lon="-1.211239">
<ele>1392</ele>
<time>2013-07-13T14:40:05.000Z</time>
</trkpt>
<trkpt lat="42.492287" lon="-1.211305">
<ele>1391</ele>
<time>2013-07-13T14:40:06.000Z</time>
</trkpt>
<trkpt lat="42.492229" lon="-1.211375">
<ele>1390</ele>
<time>2013-07-13T14:40:07.000Z</time>
</trkpt>
<trkpt lat="42.492173" lon="-1.211443">
<ele>1389</ele>
<time>2013-07-13T14:40:08.000Z</time>
</trkpt>
<trkpt lat="42.49212" lon="-1.211507">
<ele>1388</ele>
<time>2013-07-13T14:40:09.000Z</time>
</trkpt>
<trkpt lat="42.492071" lon="-1.211566">
<ele>1387</ele>
<time>2013-07-13T14:40:10.000Z</time>
</trkpt>
<trkpt lat="42.49202" lon="-1.211627">
<ele>1386</ele>
<time>2013-07-13T14:40:11.000Z</time>
</trkpt>
<trkpt lat="42.491962" lon="-1.211694">
<ele>1384</ele>
<time>2013-07-13T14:40:12.000Z</time>
</trkpt>
<trkpt lat="42.491895" lon="-1.21177">
<ele>1384</ele>
<time>2013-07-13T14:40:13.000Z</time>
</trkpt>
<trkpt lat="42.491832" lon="-1.211846">
<ele>1384</ele>
<time>2013-07-13T14:40:14.000Z</time>
</trkpt>
<trkpt lat="42.491778" lon="-1.211915">
<ele>1384</ele>
<time>2013-07-13T14:40:15.000Z</time>
</trkpt>
<trkpt lat="42.491735" lon="-1.211975">
<ele>1383</ele>
<time>2013-07-13T14:40:16.000Z</time>
</trkpt>
<trkpt lat="42.491697" lon="-1.212033">
<ele>1384</ele>
<time>2013-07-13T14:40:17.000Z</time>
</trkpt>
<trkpt lat="42.491655" lon="-1.212107">
<ele>1381</ele>
<time>2013-07-13T14:40:18.000Z</time>
</trkpt>
<trkpt lat="42.491604" lon="-1.212193">
<ele>1380</ele>
<time>2013-07-13T14:40:19.000Z</time>
</trkpt>
<trkpt lat="42.491542" lon="-1.212289">
<ele>1379</ele>
<time>2013-07-13T14:40:20.000Z</time>
</trkpt>
<trkpt lat="42.491483" lon="-1.212375">
<ele>1379</ele>
<time>2013-07-13T14:40:21.000Z</time>
</trkpt>
<trkpt lat="42.491431" lon="-1.212452">
<ele>1380</ele>
<time>2013-07-13T14:40:22.000Z</time>
</trkpt>
<trkpt lat="42.491386" lon="-1.212519">
<ele>1380</ele>
<time>2013-07-13T14:40:23.000Z</time>
</trkpt>
<trkpt lat="42.491352" lon="-1.212575">
<ele>1381</ele>
<time>2013-07-13T14:40:24.000Z</time>
</trkpt>
<trkpt lat="42.491318" lon="-1.212629">
<ele>1382</ele>
<time>2013-07-13T14:40:25.000Z</time>
</trkpt>
<trkpt lat="42.491282" lon="-1.212688">
<ele>1380</ele>
<time>2013-07-13T14:40:26.000Z</time>
</trkpt>
<trkpt lat="42.49124" lon="-1.212755">
<ele>1380</ele>
<time>2013-07-13T14:40:27.000Z</time>
</trkpt>
<trkpt lat="42.491197" lon="-1.212829">
<ele>1379</ele>
<time>2013-07-13T14:40:28.000Z</time>
</trkpt>
<trkpt lat="42.491153" lon="-1.212906">
<ele>1379</ele>
<time>2013-07-13T14:40:29.000Z</time>
</trkpt>
<trkpt lat="42.491106" lon="-1.212985">
<ele>1379</ele>
<time>2013-07-13T14:40:30.000Z</time>
</trkpt>
<trkpt lat="42.491052" lon="-1.213062">
<ele>1379</ele>
<time>2013-07-13T14:40:31.000Z</time>
</trkpt>
<trkpt lat="42.490996" lon="-1.21313">
<ele>1380</ele>
<time>2013-07-13T14:40:32.000Z</time>
</trkpt>
<trkpt lat="42.490943" lon="-1.213186">
<ele>1380</ele>
<time>2013-07-13T14:40:33.000Z</time>
</trkpt>
<trkpt lat="42.490894" lon="-1.213235">
<ele>1378</ele>
<time>2013-07-13T14:40:34.000Z</time>
</trkpt>
<trkpt lat="42.490846" lon="-1.21328">
<ele>1379</ele>
<time>2013-07-13T14:40:35.000Z</time>
</trkpt>
<trkpt lat="42.490799" lon="-1.213323">
<ele>1379</ele>
<time>2013-07-13T14:40:36.000Z</time>
</trkpt>
<trkpt lat="42.490746" lon="-1.213368">
<ele>1379</ele>
<time>2013-07-13T14:40:37.000Z</time>
</trkpt>
<trkpt lat="42.490687" lon="-1.213417">
<ele>1380</ele>
<time>2013-07-13T14:40:38.000Z</time>
</trkpt>
<trkpt lat="42.490624" lon="-1.213471">
<ele>1380</ele>
<time>2013-07-13T14:40:39.000Z</time>
</trkpt>
<trkpt lat="42.490556" lon="-1.21353">
<ele>1380</ele>
<time>2013-07-13T14:40:40.000Z</time>
</trkpt>
<trkpt lat="42.490487" lon="-1.213591">
<ele>1380</ele>
<time>2013-07-13T14:40:41.000Z</time>
</trkpt>
<trkpt lat="42.49042" lon="-1.21365">
<ele>1381</ele>
<time>2013-07-13T14:40:42.000Z</time>
</trkpt>
<trkpt lat="42.490356" lon="-1.213707">
<ele>1382</ele>
<time>2013-07-13T14:40:43.000Z</time>
</trkpt>
<trkpt lat="42.490295" lon="-1.213767">
<ele>1382</ele>
<time>2013-07-13T14:40:44.000Z</time>
</trkpt>
<trkpt lat="42.490239" lon="-1.213832">
<ele>1383</ele>
<time>2013-07-13T14:40:45.000Z</time>
</trkpt>
<trkpt lat="42.490189" lon="-1.213899">
<ele>1385</ele>
<time>2013-07-13T14:40:46.000Z</time>
</trkpt>
<trkpt lat="42.490145" lon="-1.213966">
<ele>1385</ele>
<time>2013-07-13T14:40:47.000Z</time>
</trkpt>
<trkpt lat="42.490105" lon="-1.214027">
<ele>1385</ele>
<time>2013-07-13T14:40:48.000Z</time>
</trkpt>
<trkpt lat="42.490061" lon="-1.214094">
<ele>1385</ele>
<time>2013-07-13T14:40:49.000Z</time>
</trkpt>
<trkpt lat="42.490012" lon="-1.214163">
<ele>1384</ele>
<time>2013-07-13T14:40:50.000Z</time>
</trkpt>
<trkpt lat="42.48996" lon="-1.214234">
<ele>1384</ele>
<time>2013-07-13T14:40:51.000Z</time>
</trkpt>
<trkpt lat="42.489909" lon="-1.214299">
<ele>1384</ele>
<time>2013-07-13T14:40:52.000Z</time>
</trkpt>
<trkpt lat="42.489858" lon="-1.214355">
<ele>1384</ele>
<time>2013-07-13T14:40:53.000Z</time>
</trkpt>
<trkpt lat="42.489788" lon="-1.214394">
<ele>1383</ele>
<time>2013-07-13T14:40:54.000Z</time>
</trkpt>
<trkpt lat="42.489711" lon="-1.214434">
<ele>1383</ele>
<time>2013-07-13T14:40:55.000Z</time>
</trkpt>
<trkpt lat="42.489632" lon="-1.214475">
<ele>1383</ele>
<time>2013-07-13T14:40:56.000Z</time>
</trkpt>
<trkpt lat="42.489552" lon="-1.214517">
<ele>1384</ele>
<time>2013-07-13T14:40:57.000Z</time>
</trkpt>
<trkpt lat="42.48948" lon="-1.214563">
<ele>1385</ele>
<time>2013-07-13T14:40:58.000Z</time>
</trkpt>
<trkpt lat="42.489415" lon="-1.214613">
<ele>1385</ele>
<time>2013-07-13T14:40:59.000Z</time>
</trkpt>
<trkpt lat="42.489364" lon="-1.214654">
<ele>1386</ele>
<time>2013-07-13T14:41:00.000Z</time>
</trkpt>
<trkpt lat="42.489318" lon="-1.214692">
<ele>1386</ele>
<time>2013-07-13T14:41:01.000Z</time>
</trkpt>
<trkpt lat="42.48927" lon="-1.21473">
<ele>1385</ele>
<time>2013-07-13T14:41:02.000Z</time>
</trkpt>
<trkpt lat="42.489214" lon="-1.214774">
<ele>1384</ele>
<time>2013-07-13T14:41:03.000Z</time>
</trkpt>
<trkpt lat="42.489151" lon="-1.214829">
<ele>1382</ele>
<time>2013-07-13T14:41:04.000Z</time>
</trkpt>
<trkpt lat="42.489096" lon="-1.214904">
<ele>1380</ele>
<time>2013-07-13T14:41:05.000Z</time>
</trkpt>
<trkpt lat="42.489048" lon="-1.214972">
<ele>1381</ele>
<time>2013-07-13T14:41:06.000Z</time>
</trkpt>
<trkpt lat="42.488998" lon="-1.215033">
<ele>1382</ele>
<time>2013-07-13T14:41:07.000Z</time>
</trkpt>
<trkpt lat="42.488932" lon="-1.215078">
<ele>1383</ele>
<time>2013-07-13T14:41:08.000Z</time>
</trkpt>
<trkpt lat="42.48887" lon="-1.215116">
<ele>1383</ele>
<time>2013-07-13T14:41:09.000Z</time>
</trkpt>
<trkpt lat="42.48881" lon="-1.21516">
<ele>1381</ele>
<time>2013-07-13T14:41:10.000Z</time>
</trkpt>
<trkpt lat="42.48876" lon="-1.215224">
<ele>1380</ele>
<time>2013-07-13T14:41:11.000Z</time>
</trkpt>
<trkpt lat="42.488707" lon="-1.215287">
<ele>1380</ele>
<time>2013-07-13T14:41:12.000Z</time>
</trkpt>
<trkpt lat="42.488649" lon="-1.215322">
<ele>1380</ele>
<time>2013-07-13T14:41:13.000Z</time>
</trkpt>
<trkpt lat="42.488593" lon="-1.21535">
<ele>1381</ele>
<time>2013-07-13T14:41:14.000Z</time>
</trkpt>
<trkpt lat="42.488523" lon="-1.215385">
<ele>1378</ele>
<time>2013-07-13T14:41:15.000Z</time>
</trkpt>
<trkpt lat="42.488444" lon="-1.215426">
<ele>1376</ele>
<time>2013-07-13T14:41:16.000Z</time>
</trkpt>
<trkpt lat="42.488369" lon="-1.215472">
<ele>1375</ele>
<time>2013-07-13T14:41:17.000Z</time>
</trkpt>
<trkpt lat="42.488298" lon="-1.21552">
<ele>1375</ele>
<time>2013-07-13T14:41:18.000Z</time>
</trkpt>
<trkpt lat="42.488236" lon="-1.215568">
<ele>1375</ele>
<time>2013-07-13T14:41:19.000Z</time>
</trkpt>
<trkpt lat="42.488181" lon="-1.215617">
<ele>1374</ele>
<time>2013-07-13T14:41:20.000Z</time>
</trkpt>
<trkpt lat="42.488124" lon="-1.215666">
<ele>1374</ele>
<time>2013-07-13T14:41:21.000Z</time>
</trkpt>
<trkpt lat="42.48806" lon="-1.215717">
<ele>1372</ele>
<time>2013-07-13T14:41:22.000Z</time>
</trkpt>
<trkpt lat="42.48799" lon="-1.215768">
<ele>1371</ele>
<time>2013-07-13T14:41:23.000Z</time>
</trkpt>
<trkpt lat="42.487923" lon="-1.215817">
<ele>1370</ele>
<time>2013-07-13T14:41:24.000Z</time>
</trkpt>
<trkpt lat="42.487861" lon="-1.215866">
<ele>1370</ele>
<time>2013-07-13T14:41:25.000Z</time>
</trkpt>
<trkpt lat="42.487803" lon="-1.215917">
<ele>1368</ele>
<time>2013-07-13T14:41:26.000Z</time>
</trkpt>
<trkpt lat="42.487745" lon="-1.215969">
<ele>1367</ele>
<time>2013-07-13T14:41:27.000Z</time>
</trkpt>
<trkpt lat="42.487686" lon="-1.216022">
<ele>1365</ele>
<time>2013-07-13T14:41:28.000Z</time>
</trkpt>
<trkpt lat="42.487622" lon="-1.216074">
<ele>1364</ele>
<time>2013-07-13T14:41:29.000Z</time>
</trkpt>
<trkpt lat="42.487552" lon="-1.216125">
<ele>1362</ele>
<time>2013-07-13T14:41:30.000Z</time>
</trkpt>
<trkpt lat="42.487484" lon="-1.216176">
<ele>1361</ele>
<time>2013-07-13T14:41:31.000Z</time>
</trkpt>
<trkpt lat="42.487422" lon="-1.216222">
<ele>1360</ele>
<time>2013-07-13T14:41:32.000Z</time>
</trkpt>
<trkpt lat="42.487365" lon="-1.216261">
<ele>1359</ele>
<time>2013-07-13T14:41:33.000Z</time>
</trkpt>
<trkpt lat="42.487306" lon="-1.216303">
<ele>1358</ele>
<time>2013-07-13T14:41:34.000Z</time>
</trkpt>
<trkpt lat="42.487244" lon="-1.216351">
<ele>1356</ele>
<time>2013-07-13T14:41:35.000Z</time>
</trkpt>
<trkpt lat="42.48718" lon="-1.216405">
<ele>1353</ele>
<time>2013-07-13T14:41:36.000Z</time>
</trkpt>
<trkpt lat="42.487117" lon="-1.216459">
<ele>1352</ele>
<time>2013-07-13T14:41:37.000Z</time>
</trkpt>
<trkpt lat="42.487056" lon="-1.216508">
<ele>1351</ele>
<time>2013-07-13T14:41:38.000Z</time>
</trkpt>
<trkpt lat="42.486998" lon="-1.216556">
<ele>1349</ele>
<time>2013-07-13T14:41:39.000Z</time>
</trkpt>
<trkpt lat="42.486945" lon="-1.216603">
<ele>1348</ele>
<time>2013-07-13T14:41:40.000Z</time>
</trkpt>
<trkpt lat="42.486904" lon="-1.216677">
<ele>1344</ele>
<time>2013-07-13T14:41:41.000Z</time>
</trkpt>
<trkpt lat="42.486858" lon="-1.216755">
<ele>1343</ele>
<time>2013-07-13T14:41:42.000Z</time>
</trkpt>
<trkpt lat="42.486806" lon="-1.216833">
<ele>1342</ele>
<time>2013-07-13T14:41:43.000Z</time>
</trkpt>
<trkpt lat="42.486749" lon="-1.216904">
<ele>1341</ele>
<time>2013-07-13T14:41:44.000Z</time>
</trkpt>
<trkpt lat="42.486693" lon="-1.216966">
<ele>1341</ele>
<time>2013-07-13T14:41:45.000Z</time>
</trkpt>
<trkpt lat="42.486639" lon="-1.217025">
<ele>1341</ele>
<time>2013-07-13T14:41:46.000Z</time>
</trkpt>
<trkpt lat="42.486582" lon="-1.217089">
<ele>1341</ele>
<time>2013-07-13T14:41:47.000Z</time>
</trkpt>
<trkpt lat="42.486521" lon="-1.217159">
<ele>1340</ele>
<time>2013-07-13T14:41:48.000Z</time>
</trkpt>
<trkpt lat="42.486453" lon="-1.217226">
<ele>1339</ele>
<time>2013-07-13T14:41:49.000Z</time>
</trkpt>
<trkpt lat="42.486388" lon="-1.217284">
<ele>1339</ele>
<time>2013-07-13T14:41:50.000Z</time>
</trkpt>
<trkpt lat="42.486327" lon="-1.217338">
<ele>1337</ele>
<time>2013-07-13T14:41:51.000Z</time>
</trkpt>
<trkpt lat="42.486271" lon="-1.217392">
<ele>1337</ele>
<time>2013-07-13T14:41:52.000Z</time>
</trkpt>
<trkpt lat="42.486212" lon="-1.217455">
<ele>1336</ele>
<time>2013-07-13T14:41:53.000Z</time>
</trkpt>
<trkpt lat="42.48615" lon="-1.217522">
<ele>1334</ele>
<time>2013-07-13T14:41:54.000Z</time>
</trkpt>
<trkpt lat="42.486087" lon="-1.217594">
<ele>1332</ele>
<time>2013-07-13T14:41:55.000Z</time>
</trkpt>
<trkpt lat="42.486032" lon="-1.21766">
<ele>1331</ele>
<time>2013-07-13T14:41:56.000Z</time>
</trkpt>
<trkpt lat="42.485981" lon="-1.217722">
<ele>1329</ele>
<time>2013-07-13T14:41:57.000Z</time>
</trkpt>
<trkpt lat="42.485934" lon="-1.217781">
<ele>1327</ele>
<time>2013-07-13T14:41:58.000Z</time>
</trkpt>
<trkpt lat="42.48588" lon="-1.217851">
<ele>1323</ele>
<time>2013-07-13T14:41:59.000Z</time>
</trkpt>
<trkpt lat="42.485814" lon="-1.217935">
<ele>1320</ele>
<time>2013-07-13T14:42:00.000Z</time>
</trkpt>
<trkpt lat="42.485741" lon="-1.218022">
<ele>1318</ele>
<time>2013-07-13T14:42:01.000Z</time>
</trkpt>
<trkpt lat="42.485673" lon="-1.218093">
<ele>1317</ele>
<time>2013-07-13T14:42:02.000Z</time>
</trkpt>
<trkpt lat="42.485614" lon="-1.21815">
<ele>1314</ele>
<time>2013-07-13T14:42:03.000Z</time>
</trkpt>
<trkpt lat="42.485553" lon="-1.2182">
<ele>1312</ele>
<time>2013-07-13T14:42:04.000Z</time>
</trkpt>
<trkpt lat="42.485483" lon="-1.218254">
<ele>1309</ele>
<time>2013-07-13T14:42:05.000Z</time>
</trkpt>
<trkpt lat="42.485406" lon="-1.218317">
<ele>1304</ele>
<time>2013-07-13T14:42:06.000Z</time>
</trkpt>
<trkpt lat="42.48532" lon="-1.218384">
<ele>1302</ele>
<time>2013-07-13T14:42:07.000Z</time>
</trkpt>
<trkpt lat="42.485238" lon="-1.218444">
<ele>1301</ele>
<time>2013-07-13T14:42:08.000Z</time>
</trkpt>
<trkpt lat="42.485159" lon="-1.218496">
<ele>1301</ele>
<time>2013-07-13T14:42:09.000Z</time>
</trkpt>
<trkpt lat="42.485084" lon="-1.218537">
<ele>1301</ele>
<time>2013-07-13T14:42:10.000Z</time>
</trkpt>
<trkpt lat="42.485009" lon="-1.218576">
<ele>1300</ele>
<time>2013-07-13T14:42:11.000Z</time>
</trkpt>
<trkpt lat="42.484931" lon="-1.218616">
<ele>1298</ele>
<time>2013-07-13T14:42:12.000Z</time>
</trkpt>
<trkpt lat="42.484851" lon="-1.218661">
<ele>1296</ele>
<time>2013-07-13T14:42:13.000Z</time>
</trkpt>
<trkpt lat="42.48477" lon="-1.218708">
<ele>1294</ele>
<time>2013-07-13T14:42:14.000Z</time>
</trkpt>
<trkpt lat="42.484688" lon="-1.218756">
<ele>1292</ele>
<time>2013-07-13T14:42:15.000Z</time>
</trkpt>
<trkpt lat="42.48461" lon="-1.218802">
<ele>1289</ele>
<time>2013-07-13T14:42:16.000Z</time>
</trkpt>
<trkpt lat="42.484536" lon="-1.218852">
<ele>1287</ele>
<time>2013-07-13T14:42:17.000Z</time>
</trkpt>
<trkpt lat="42.484465" lon="-1.218906">
<ele>1285</ele>
<time>2013-07-13T14:42:18.000Z</time>
</trkpt>
<trkpt lat="42.484391" lon="-1.218961">
<ele>1283</ele>
<time>2013-07-13T14:42:19.000Z</time>
</trkpt>
<trkpt lat="42.484319" lon="-1.219017">
<ele>1281</ele>
<time>2013-07-13T14:42:20.000Z</time>
</trkpt>
<trkpt lat="42.484247" lon="-1.219072">
<ele>1280</ele>
<time>2013-07-13T14:42:21.000Z</time>
</trkpt>
<trkpt lat="42.484177" lon="-1.219127">
<ele>1278</ele>
<time>2013-07-13T14:42:22.000Z</time>
</trkpt>
<trkpt lat="42.48411" lon="-1.219188">
<ele>1277</ele>
<time>2013-07-13T14:42:23.000Z</time>
</trkpt>
<trkpt lat="42.484045" lon="-1.219253">
<ele>1275</ele>
<time>2013-07-13T14:42:24.000Z</time>
</trkpt>
<trkpt lat="42.483978" lon="-1.219319">
<ele>1274</ele>
<time>2013-07-13T14:42:25.000Z</time>
</trkpt>
<trkpt lat="42.48391" lon="-1.219387">
<ele>1272</ele>
<time>2013-07-13T14:42:26.000Z</time>
</trkpt>
<trkpt lat="42.48384" lon="-1.219455">
<ele>1270</ele>
<time>2013-07-13T14:42:27.000Z</time>
</trkpt>
<trkpt lat="42.483772" lon="-1.219526">
<ele>1267</ele>
<time>2013-07-13T14:42:28.000Z</time>
</trkpt>
<trkpt lat="42.483705" lon="-1.219597">
<ele>1265</ele>
<time>2013-07-13T14:42:29.000Z</time>
</trkpt>
<trkpt lat="42.483641" lon="-1.219668">
<ele>1262</ele>
<time>2013-07-13T14:42:30.000Z</time>
</trkpt>
<trkpt lat="42.483578" lon="-1.219738">
<ele>1261</ele>
<time>2013-07-13T14:42:31.000Z</time>
</trkpt>
<trkpt lat="42.483513" lon="-1.219811">
<ele>1258</ele>
<time>2013-07-13T14:42:32.000Z</time>
</trkpt>
<trkpt lat="42.483446" lon="-1.219885">
<ele>1255</ele>
<time>2013-07-13T14:42:33.000Z</time>
</trkpt>
<trkpt lat="42.483375" lon="-1.21996">
<ele>1252</ele>
<time>2013-07-13T14:42:34.000Z</time>
</trkpt>
<trkpt lat="42.483306" lon="-1.220035">
<ele>1250</ele>
<time>2013-07-13T14:42:35.000Z</time>
</trkpt>
<trkpt lat="42.483235" lon="-1.220107">
<ele>1248</ele>
<time>2013-07-13T14:42:36.000Z</time>
</trkpt>
<trkpt lat="42.483169" lon="-1.220174">
<ele>1246</ele>
<time>2013-07-13T14:42:37.000Z</time>
</trkpt>
<trkpt lat="42.483097" lon="-1.220241">
<ele>1244</ele>
<time>2013-07-13T14:42:38.000Z</time>
</trkpt>
<trkpt lat="42.483019" lon="-1.220314">
<ele>1241</ele>
<time>2013-07-13T14:42:39.000Z</time>
</trkpt>
<trkpt lat="42.482936" lon="-1.220385">
<ele>1238</ele>
<time>2013-07-13T14:42:40.000Z</time>
</trkpt>
<trkpt lat="42.482855" lon="-1.220447">
<ele>1237</ele>
<time>2013-07-13T14:42:41.000Z</time>
</trkpt>
<trkpt lat="42.482775" lon="-1.220504">
<ele>1236</ele>
<time>2013-07-13T14:42:42.000Z</time>
</trkpt>
<trkpt lat="42.482693" lon="-1.220562">
<ele>1234</ele>
<time>2013-07-13T14:42:43.000Z</time>
</trkpt>
<trkpt lat="42.482598" lon="-1.220624">
<ele>1231</ele>
<time>2013-07-13T14:42:44.000Z</time>
</trkpt>
<trkpt lat="42.482496" lon="-1.220693">
<ele>1229</ele>
<time>2013-07-13T14:42:45.000Z</time>
</trkpt>
<trkpt lat="42.482393" lon="-1.220759">
<ele>1226</ele>
<time>2013-07-13T14:42:46.000Z</time>
</trkpt>
<trkpt lat="42.482292" lon="-1.220818">
<ele>1225</ele>
<time>2013-07-13T14:42:47.000Z</time>
</trkpt>
<trkpt lat="42.482198" lon="-1.220871">
<ele>1221</ele>
<time>2013-07-13T14:42:48.000Z</time>
</trkpt>
<trkpt lat="42.48211" lon="-1.22092">
<ele>1220</ele>
<time>2013-07-13T14:42:49.000Z</time>
</trkpt>
<trkpt lat="42.482017" lon="-1.220973">
<ele>1217</ele>
<time>2013-07-13T14:42:50.000Z</time>
</trkpt>
<trkpt lat="42.481924" lon="-1.221031">
<ele>1215</ele>
<time>2013-07-13T14:42:51.000Z</time>
</trkpt>
<trkpt lat="42.481834" lon="-1.221088">
<ele>1212</ele>
<time>2013-07-13T14:42:52.000Z</time>
</trkpt>
<trkpt lat="42.481748" lon="-1.221142">
<ele>1210</ele>
<time>2013-07-13T14:42:53.000Z</time>
</trkpt>
<trkpt lat="42.481667" lon="-1.221193">
<ele>1209</ele>
<time>2013-07-13T14:42:54.000Z</time>
</trkpt>
<trkpt lat="42.481585" lon="-1.221243">
<ele>1206</ele>
<time>2013-07-13T14:42:55.000Z</time>
</trkpt>
<trkpt lat="42.481502" lon="-1.221295">
<ele>1202</ele>
<time>2013-07-13T14:42:56.000Z</time>
</trkpt>
<trkpt lat="42.48142" lon="-1.221354">
<ele>1198</ele>
<time>2013-07-13T14:42:57.000Z</time>
</trkpt>
<trkpt lat="42.481339" lon="-1.221414">
<ele>1194</ele>
<time>2013-07-13T14:42:58.000Z</time>
</trkpt>
<trkpt lat="42.481261" lon="-1.221474">
<ele>1192</ele>
<time>2013-07-13T14:42:59.000Z</time>
</trkpt>
<trkpt lat="42.481183" lon="-1.221532">
<ele>1190</ele>
<time>2013-07-13T14:43:00.000Z</time>
</trkpt>
<trkpt lat="42.481109" lon="-1.221592">
<ele>1190</ele>
<time>2013-07-13T14:43:01.000Z</time>
</trkpt>
<trkpt lat="42.481033" lon="-1.221652">
<ele>1188</ele>
<time>2013-07-13T14:43:02.000Z</time>
</trkpt>
<trkpt lat="42.480953" lon="-1.22171">
<ele>1186</ele>
<time>2013-07-13T14:43:03.000Z</time>
</trkpt>
<trkpt lat="42.480868" lon="-1.221765">
<ele>1184</ele>
<time>2013-07-13T14:43:04.000Z</time>
</trkpt>
<trkpt lat="42.480781" lon="-1.221814">
<ele>1182</ele>
<time>2013-07-13T14:43:05.000Z</time>
</trkpt>
<trkpt lat="42.480693" lon="-1.221863">
<ele>1180</ele>
<time>2013-07-13T14:43:06.000Z</time>
</trkpt>
<trkpt lat="42.4806" lon="-1.221916">
<ele>1178</ele>
<time>2013-07-13T14:43:07.000Z</time>
</trkpt>
<trkpt lat="42.480505" lon="-1.221975">
<ele>1176</ele>
<time>2013-07-13T14:43:08.000Z</time>
</trkpt>
<trkpt lat="42.480416" lon="-1.222033">
<ele>1173</ele>
<time>2013-07-13T14:43:09.000Z</time>
</trkpt>
<trkpt lat="42.480332" lon="-1.222086">
<ele>1170</ele>
<time>2013-07-13T14:43:10.000Z</time>
</trkpt>
<trkpt lat="42.480256" lon="-1.222133">
<ele>1168</ele>
<time>2013-07-13T14:43:11.000Z</time>
</trkpt>
<trkpt lat="42.480187" lon="-1.222181">
<ele>1163</ele>
<time>2013-07-13T14:43:12.000Z</time>
</trkpt>
<trkpt lat="42.480114" lon="-1.22224">
<ele>1160</ele>
<time>2013-07-13T14:43:13.000Z</time>
</trkpt>
<trkpt lat="42.480038" lon="-1.222311">
<ele>1157</ele>
<time>2013-07-13T14:43:14.000Z</time>
</trkpt>
<trkpt lat="42.479963" lon="-1.222385">
<ele>1154</ele>
<time>2013-07-13T14:43:15.000Z</time>
</trkpt>
<trkpt lat="42.4799" lon="-1.222452">
<ele>1153</ele>
<time>2013-07-13T14:43:16.000Z</time>
</trkpt>
<trkpt lat="42.479843" lon="-1.222515">
<ele>1153</ele>
<time>2013-07-13T14:43:17.000Z</time>
</trkpt>
<trkpt lat="42.479787" lon="-1.222578">
<ele>1152</ele>
<time>2013-07-13T14:43:18.000Z</time>
</trkpt>
<trkpt lat="42.47973" lon="-1.222646">
<ele>1150</ele>
<time>2013-07-13T14:43:19.000Z</time>
</trkpt>
<trkpt lat="42.479668" lon="-1.22272">
<ele>1146</ele>
<time>2013-07-13T14:43:20.000Z</time>
</trkpt>
<trkpt lat="42.479599" lon="-1.222798">
<ele>1144</ele>
<time>2013-07-13T14:43:21.000Z</time>
</trkpt>
<trkpt lat="42.479528" lon="-1.222877">
<ele>1141</ele>
<time>2013-07-13T14:43:22.000Z</time>
</trkpt>
<trkpt lat="42.479461" lon="-1.222948">
<ele>1142</ele>
<time>2013-07-13T14:43:23.000Z</time>
</trkpt>
<trkpt lat="42.479401" lon="-1.223012">
<ele>1143</ele>
<time>2013-07-13T14:43:24.000Z</time>
</trkpt>
<trkpt lat="42.479337" lon="-1.223078">
<ele>1139</ele>
<time>2013-07-13T14:43:25.000Z</time>
</trkpt>
<trkpt lat="42.479265" lon="-1.223157">
<ele>1137</ele>
<time>2013-07-13T14:43:26.000Z</time>
</trkpt>
<trkpt lat="42.479185" lon="-1.223246">
<ele>1134</ele>
<time>2013-07-13T14:43:27.000Z</time>
</trkpt>
<trkpt lat="42.479104" lon="-1.223328">
<ele>1129</ele>
<time>2013-07-13T14:43:28.000Z</time>
</trkpt>
<trkpt lat="42.479028" lon="-1.223407">
<ele>1125</ele>
<time>2013-07-13T14:43:29.000Z</time>
</trkpt>
<trkpt lat="42.478959" lon="-1.223472">
<ele>1124</ele>
<time>2013-07-13T14:43:30.000Z</time>
</trkpt>
<trkpt lat="42.478895" lon="-1.22353">
<ele>1122</ele>
<time>2013-07-13T14:43:31.000Z</time>
</trkpt>
<trkpt lat="42.478832" lon="-1.223588">
<ele>1121</ele>
<time>2013-07-13T14:43:32.000Z</time>
</trkpt>
<trkpt lat="42.478766" lon="-1.22365">
<ele>1118</ele>
<time>2013-07-13T14:43:33.000Z</time>
</trkpt>
<trkpt lat="42.478693" lon="-1.223719">
<ele>1115</ele>
<time>2013-07-13T14:43:34.000Z</time>
</trkpt>
<trkpt lat="42.478616" lon="-1.223796">
<ele>1113</ele>
<time>2013-07-13T14:43:35.000Z</time>
</trkpt>
<trkpt lat="42.478541" lon="-1.223874">
<ele>1107</ele>
<time>2013-07-13T14:43:36.000Z</time>
</trkpt>
<trkpt lat="42.478467" lon="-1.223945">
<ele>1105</ele>
<time>2013-07-13T14:43:37.000Z</time>
</trkpt>
<trkpt lat="42.478395" lon="-1.224007">
<ele>1102</ele>
<time>2013-07-13T14:43:38.000Z</time>
</trkpt>
<trkpt lat="42.478324" lon="-1.224064">
<ele>1099</ele>
<time>2013-07-13T14:43:39.000Z</time>
</trkpt>
<trkpt lat="42.478253" lon="-1.224121">
<ele>1095</ele>
<time>2013-07-13T14:43:40.000Z</time>
</trkpt>
<trkpt lat="42.478181" lon="-1.224185">
<ele>1091</ele>
<time>2013-07-13T14:43:41.000Z</time>
</trkpt>
<trkpt lat="42.478111" lon="-1.224249">
<ele>1088</ele>
<time>2013-07-13T14:43:42.000Z</time>
</trkpt>
<trkpt lat="42.478043" lon="-1.224308">
<ele>1082</ele>
<time>2013-07-13T14:43:43.000Z</time>
</trkpt>
<trkpt lat="42.477972" lon="-1.224373">
<ele>1085</ele>
<time>2013-07-13T14:43:44.000Z</time>
</trkpt>
<trkpt lat="42.477899" lon="-1.224441">
<ele>1082</ele>
<time>2013-07-13T14:43:45.000Z</time>
</trkpt>
<trkpt lat="42.477823" lon="-1.224511">
<ele>1079</ele>
<time>2013-07-13T14:43:46.000Z</time>
</trkpt>
<trkpt lat="42.477748" lon="-1.224578">
<ele>1077</ele>
<time>2013-07-13T14:43:47.000Z</time>
</trkpt>
<trkpt lat="42.477674" lon="-1.224636">
<ele>1072</ele>
<time>2013-07-13T14:43:48.000Z</time>
</trkpt>
<trkpt lat="42.477582" lon="-1.22466">
<ele>1069</ele>
<time>2013-07-13T14:43:49.000Z</time>
</trkpt>
<trkpt lat="42.477481" lon="-1.224673">
<ele>1067</ele>
<time>2013-07-13T14:43:50.000Z</time>
</trkpt>
<trkpt lat="42.477369" lon="-1.224653">
<ele>1066</ele>
<time>2013-07-13T14:43:51.000Z</time>
</trkpt>
<trkpt lat="42.477262" lon="-1.224627">
<ele>1065</ele>
<time>2013-07-13T14:43:52.000Z</time>
</trkpt>
<trkpt lat="42.477155" lon="-1.224593">
<ele>1063</ele>
<time>2013-07-13T14:43:53.000Z</time>
</trkpt>
<trkpt lat="42.477046" lon="-1.224551">
<ele>1060</ele>
<time>2013-07-13T14:43:54.000Z</time>
</trkpt>
<trkpt lat="42.476945" lon="-1.224474">
<ele>1058</ele>
<time>2013-07-13T14:43:55.000Z</time>
</trkpt>
<trkpt lat="42.476847" lon="-1.22439">
<ele>1057</ele>
<time>2013-07-13T14:43:56.000Z</time>
</trkpt>
<trkpt lat="42.47675" lon="-1.224289">
<ele>1055</ele>
<time>2013-07-13T14:43:57.000Z</time>
</trkpt>
<trkpt lat="42.476664" lon="-1.224151">
<ele>1053</ele>
<time>2013-07-13T14:43:58.000Z</time>
</trkpt>
<trkpt lat="42.476577" lon="-1.224014">
<ele>1052</ele>
<time>2013-07-13T14:43:59.000Z</time>
</trkpt>
<trkpt lat="42.476497" lon="-1.223879">
<ele>1050</ele>
<time>2013-07-13T14:44:00.000Z</time>
</trkpt>
<trkpt lat="42.476425" lon="-1.223751">
<ele>1048</ele>
<time>2013-07-13T14:44:01.000Z</time>
</trkpt>
<trkpt lat="42.476356" lon="-1.223628">
<ele>1046</ele>
<time>2013-07-13T14:44:02.000Z</time>
</trkpt>
<trkpt lat="42.476289" lon="-1.223501">
<ele>1044</ele>
<time>2013-07-13T14:44:03.000Z</time>
</trkpt>
<trkpt lat="42.476222" lon="-1.223362">
<ele>1042</ele>
<time>2013-07-13T14:44:04.000Z</time>
</trkpt>
<trkpt lat="42.476159" lon="-1.22321">
<ele>1040</ele>
<time>2013-07-13T14:44:05.000Z</time>
</trkpt>
<trkpt lat="42.476099" lon="-1.22306">
<ele>1038</ele>
<time>2013-07-13T14:44:06.000Z</time>
</trkpt>
<trkpt lat="42.476046" lon="-1.222915">
<ele>1036</ele>
<time>2013-07-13T14:44:07.000Z</time>
</trkpt>
<trkpt lat="42.475999" lon="-1.222775">
<ele>1035</ele>
<time>2013-07-13T14:44:08.000Z</time>
</trkpt>
<trkpt lat="42.475955" lon="-1.222636">
<ele>1033</ele>
<time>2013-07-13T14:44:09.000Z</time>
</trkpt>
<trkpt lat="42.475922" lon="-1.222502">
<ele>1027</ele>
<time>2013-07-13T14:44:10.000Z</time>
</trkpt>
<trkpt lat="42.475895" lon="-1.222366">
<ele>1023</ele>
<time>2013-07-13T14:44:11.000Z</time>
</trkpt>
<trkpt lat="42.475877" lon="-1.222237">
<ele>1018</ele>
<time>2013-07-13T14:44:12.000Z</time>
</trkpt>
<trkpt lat="42.475862" lon="-1.222106">
<ele>1015</ele>
<time>2013-07-13T14:44:13.000Z</time>
</trkpt>
<trkpt lat="42.475871" lon="-1.221962">
<ele>1013</ele>
<time>2013-07-13T14:44:14.000Z</time>
</trkpt>
<trkpt lat="42.475883" lon="-1.221828">
<ele>1014</ele>
<time>2013-07-13T14:44:15.000Z</time>
</trkpt>
<trkpt lat="42.475898" lon="-1.221708">
<ele>1014</ele>
<time>2013-07-13T14:44:16.000Z</time>
</trkpt>
<trkpt lat="42.475915" lon="-1.221595">
<ele>1010</ele>
<time>2013-07-13T14:44:17.000Z</time>
</trkpt>
<trkpt lat="42.475956" lon="-1.221472">
<ele>1004</ele>
<time>2013-07-13T14:44:18.000Z</time>
</trkpt>
<trkpt lat="42.475996" lon="-1.221362">
<ele>1001</ele>
<time>2013-07-13T14:44:19.000Z</time>
</trkpt>
<trkpt lat="42.476037" lon="-1.221261">
<ele>999</ele>
<time>2013-07-13T14:44:20.000Z</time>
</trkpt>
<trkpt lat="42.476081" lon="-1.221166">
<ele>997</ele>
<time>2013-07-13T14:44:21.000Z</time>
</trkpt>
<trkpt lat="42.476125" lon="-1.221079">
<ele>996</ele>
<time>2013-07-13T14:44:22.000Z</time>
</trkpt>
<trkpt lat="42.476171" lon="-1.220991">
<ele>994</ele>
<time>2013-07-13T14:44:23.000Z</time>
</trkpt>
<trkpt lat="42.476221" lon="-1.220901">
<ele>992</ele>
<time>2013-07-13T14:44:24.000Z</time>
</trkpt>
<trkpt lat="42.476272" lon="-1.220814">
<ele>989</ele>
<time>2013-07-13T14:44:25.000Z</time>
</trkpt>
<trkpt lat="42.476328" lon="-1.220724">
<ele>985</ele>
<time>2013-07-13T14:44:26.000Z</time>
</trkpt>
<trkpt lat="42.476378" lon="-1.220638">
<ele>983</ele>
<time>2013-07-13T14:44:27.000Z</time>
</trkpt>
<trkpt lat="42.476423" lon="-1.220547">
<ele>980</ele>
<time>2013-07-13T14:44:28.000Z</time>
</trkpt>
<trkpt lat="42.476469" lon="-1.220444">
<ele>976</ele>
<time>2013-07-13T14:44:29.000Z</time>
</trkpt>
<trkpt lat="42.476519" lon="-1.220334">
<ele>971</ele>
<time>2013-07-13T14:44:30.000Z</time>
</trkpt>
<trkpt lat="42.476574" lon="-1.220229">
<ele>968</ele>
<time>2013-07-13T14:44:31.000Z</time>
</trkpt>
<trkpt lat="42.476627" lon="-1.220133">
<ele>966</ele>
<time>2013-07-13T14:44:32.000Z</time>
</trkpt>
<trkpt lat="42.476675" lon="-1.220039">
<ele>965</ele>
<time>2013-07-13T14:44:33.000Z</time>
</trkpt>
<trkpt lat="42.476718" lon="-1.219939">
<ele>963</ele>
<time>2013-07-13T14:44:34.000Z</time>
</trkpt>
<trkpt lat="42.476758" lon="-1.219834">
<ele>959</ele>
<time>2013-07-13T14:44:35.000Z</time>
</trkpt>
<trkpt lat="42.476797" lon="-1.219732">
<ele>957</ele>
<time>2013-07-13T14:44:36.000Z</time>
</trkpt>
<trkpt lat="42.476843" lon="-1.219629">
<ele>954</ele>
<time>2013-07-13T14:44:37.000Z</time>
</trkpt>
<trkpt lat="42.476893" lon="-1.21953">
<ele>952</ele>
<time>2013-07-13T14:44:38.000Z</time>
</trkpt>
<trkpt lat="42.476935" lon="-1.219436">
<ele>949</ele>
<time>2013-07-13T14:44:39.000Z</time>
</trkpt>
<trkpt lat="42.476973" lon="-1.219351">
<ele>947</ele>
<time>2013-07-13T14:44:40.000Z</time>
</trkpt>
<trkpt lat="42.477013" lon="-1.21927">
<ele>946</ele>
<time>2013-07-13T14:44:41.000Z</time>
</trkpt>
<trkpt lat="42.477057" lon="-1.219184">
<ele>945</ele>
<time>2013-07-13T14:44:42.000Z</time>
</trkpt>
<trkpt lat="42.477106" lon="-1.219098">
<ele>943</ele>
<time>2013-07-13T14:44:43.000Z</time>
</trkpt>
<trkpt lat="42.477157" lon="-1.219007">
<ele>939</ele>
<time>2013-07-13T14:44:44.000Z</time>
</trkpt>
<trkpt lat="42.477203" lon="-1.218923">
<ele>937</ele>
<time>2013-07-13T14:44:45.000Z</time>
</trkpt>
<trkpt lat="42.477246" lon="-1.21884">
<ele>935</ele>
<time>2013-07-13T14:44:46.000Z</time>
</trkpt>
<trkpt lat="42.477288" lon="-1.218754">
<ele>933</ele>
<time>2013-07-13T14:44:47.000Z</time>
</trkpt>
<trkpt lat="42.477335" lon="-1.218661">
<ele>930</ele>
<time>2013-07-13T14:44:48.000Z</time>
</trkpt>
<trkpt lat="42.477391" lon="-1.218563">
<ele>929</ele>
<time>2013-07-13T14:44:49.000Z</time>
</trkpt>
<trkpt lat="42.477448" lon="-1.218471">
<ele>928</ele>
<time>2013-07-13T14:44:50.000Z</time>
</trkpt>
<trkpt lat="42.477495" lon="-1.218387">
<ele>928</ele>
<time>2013-07-13T14:44:51.000Z</time>
</trkpt>
<trkpt lat="42.477535" lon="-1.218314">
<ele>929</ele>
<time>2013-07-13T14:44:52.000Z</time>
</trkpt>
<trkpt lat="42.47757" lon="-1.21825">
<ele>930</ele>
<time>2013-07-13T14:44:53.000Z</time>
</trkpt>
<trkpt lat="42.47761" lon="-1.218189">
<ele>930</ele>
<time>2013-07-13T14:44:54.000Z</time>
</trkpt>
<trkpt lat="42.477655" lon="-1.218124">
<ele>929</ele>
<time>2013-07-13T14:44:55.000Z</time>
</trkpt>
<trkpt lat="42.477702" lon="-1.218058">
<ele>928</ele>
<time>2013-07-13T14:44:56.000Z</time>
</trkpt>
<trkpt lat="42.477751" lon="-1.217991">
<ele>928</ele>
<time>2013-07-13T14:44:57.000Z</time>
</trkpt>
<trkpt lat="42.477798" lon="-1.217927">
<ele>928</ele>
<time>2013-07-13T14:44:58.000Z</time>
</trkpt>
<trkpt lat="42.477846" lon="-1.217861">
<ele>927</ele>
<time>2013-07-13T14:44:59.000Z</time>
</trkpt>
<trkpt lat="42.477896" lon="-1.217794">
<ele>928</ele>
<time>2013-07-13T14:45:00.000Z</time>
</trkpt>
<trkpt lat="42.477946" lon="-1.217719">
<ele>929</ele>
<time>2013-07-13T14:45:01.000Z</time>
</trkpt>
<trkpt lat="42.477984" lon="-1.217627">
<ele>929</ele>
<time>2013-07-13T14:45:02.000Z</time>
</trkpt>
<trkpt lat="42.478015" lon="-1.217531">
<ele>931</ele>
<time>2013-07-13T14:45:03.000Z</time>
</trkpt>
<trkpt lat="42.478046" lon="-1.217423">
<ele>930</ele>
<time>2013-07-13T14:45:04.000Z</time>
</trkpt>
<trkpt lat="42.478082" lon="-1.217302">
<ele>926</ele>
<time>2013-07-13T14:45:05.000Z</time>
</trkpt>
<trkpt lat="42.478117" lon="-1.217186">
<ele>926</ele>
<time>2013-07-13T14:45:06.000Z</time>
</trkpt>
<trkpt lat="42.478154" lon="-1.217069">
<ele>925</ele>
<time>2013-07-13T14:45:07.000Z</time>
</trkpt>
<trkpt lat="42.478186" lon="-1.216953">
<ele>925</ele>
<time>2013-07-13T14:45:08.000Z</time>
</trkpt>
<trkpt lat="42.478206" lon="-1.216848">
<ele>930</ele>
<time>2013-07-13T14:45:09.000Z</time>
</trkpt>
<trkpt lat="42.478222" lon="-1.216729">
<ele>927</ele>
<time>2013-07-13T14:45:10.000Z</time>
</trkpt>
<trkpt lat="42.478232" lon="-1.21661">
<ele>926</ele>
<time>2013-07-13T14:45:11.000Z</time>
</trkpt>
<trkpt lat="42.478239" lon="-1.216486">
<ele>925</ele>
<time>2013-07-13T14:45:12.000Z</time>
</trkpt>
<trkpt lat="42.478249" lon="-1.216352">
<ele>923</ele>
<time>2013-07-13T14:45:13.000Z</time>
</trkpt>
<trkpt lat="42.478262" lon="-1.216207">
<ele>922</ele>
<time>2013-07-13T14:45:14.000Z</time>
</trkpt>
<trkpt lat="42.47828" lon="-1.21606">
<ele>920</ele>
<time>2013-07-13T14:45:15.000Z</time>
</trkpt>
<trkpt lat="42.478301" lon="-1.215924">
<ele>920</ele>
<time>2013-07-13T14:45:16.000Z</time>
</trkpt>
<trkpt lat="42.478323" lon="-1.215799">
<ele>919</ele>
<time>2013-07-13T14:45:17.000Z</time>
</trkpt>
<trkpt lat="42.478343" lon="-1.215686">
<ele>919</ele>
<time>2013-07-13T14:45:18.000Z</time>
</trkpt>
<trkpt lat="42.478367" lon="-1.215575">
<ele>919</ele>
<time>2013-07-13T14:45:19.000Z</time>
</trkpt>
<trkpt lat="42.478394" lon="-1.215462">
<ele>916</ele>
<time>2013-07-13T14:45:20.000Z</time>
</trkpt>
<trkpt lat="42.478427" lon="-1.215342">
<ele>914</ele>
<time>2013-07-13T14:45:21.000Z</time>
</trkpt>
<trkpt lat="42.478465" lon="-1.21522">
<ele>914</ele>
<time>2013-07-13T14:45:22.000Z</time>
</trkpt>
<trkpt lat="42.478505" lon="-1.215108">
<ele>913</ele>
<time>2013-07-13T14:45:23.000Z</time>
</trkpt>
<trkpt lat="42.478546" lon="-1.215004">
<ele>913</ele>
<time>2013-07-13T14:45:24.000Z</time>
</trkpt>
<trkpt lat="42.478583" lon="-1.214907">
<ele>912</ele>
<time>2013-07-13T14:45:25.000Z</time>
</trkpt>
<trkpt lat="42.478618" lon="-1.214808">
<ele>912</ele>
<time>2013-07-13T14:45:26.000Z</time>
</trkpt>
<trkpt lat="42.478654" lon="-1.214702">
<ele>910</ele>
<time>2013-07-13T14:45:27.000Z</time>
</trkpt>
<trkpt lat="42.478697" lon="-1.214578">
<ele>907</ele>
<time>2013-07-13T14:45:28.000Z</time>
</trkpt>
<trkpt lat="42.478752" lon="-1.21444">
<ele>906</ele>
<time>2013-07-13T14:45:29.000Z</time>
</trkpt>
<trkpt lat="42.478806" lon="-1.214321">
<ele>902</ele>
<time>2013-07-13T14:45:30.000Z</time>
</trkpt>
<trkpt lat="42.478872" lon="-1.214237">
<ele>900</ele>
<time>2013-07-13T14:45:31.000Z</time>
</trkpt>
<trkpt lat="42.478934" lon="-1.214167">
<ele>898</ele>
<time>2013-07-13T14:45:32.000Z</time>
</trkpt>
<trkpt lat="42.478994" lon="-1.214096">
<ele>896</ele>
<time>2013-07-13T14:45:33.000Z</time>
</trkpt>
<trkpt lat="42.479066" lon="-1.214007">
<ele>888</ele>
<time>2013-07-13T14:45:34.000Z</time>
</trkpt>
<trkpt lat="42.479137" lon="-1.213906">
<ele>889</ele>
<time>2013-07-13T14:45:35.000Z</time>
</trkpt>
<trkpt lat="42.479205" lon="-1.213807">
<ele>886</ele>
<time>2013-07-13T14:45:36.000Z</time>
</trkpt>
<trkpt lat="42.479274" lon="-1.21372">
<ele>881</ele>
<time>2013-07-13T14:45:37.000Z</time>
</trkpt>
<trkpt lat="42.479346" lon="-1.213663">
<ele>878</ele>
<time>2013-07-13T14:45:38.000Z</time>
</trkpt>
<trkpt lat="42.479416" lon="-1.213609">
<ele>875</ele>
<time>2013-07-13T14:45:39.000Z</time>
</trkpt>
<trkpt lat="42.479488" lon="-1.213544">
<ele>871</ele>
<time>2013-07-13T14:45:40.000Z</time>
</trkpt>
<trkpt lat="42.479564" lon="-1.213464">
<ele>866</ele>
<time>2013-07-13T14:45:41.000Z</time>
</trkpt>
<trkpt lat="42.479631" lon="-1.213381">
<ele>865</ele>
<time>2013-07-13T14:45:42.000Z</time>
</trkpt>
<trkpt lat="42.479695" lon="-1.213303">
<ele>862</ele>
<time>2013-07-13T14:45:43.000Z</time>
</trkpt>
<trkpt lat="42.479762" lon="-1.21323">
<ele>861</ele>
<time>2013-07-13T14:45:44.000Z</time>
</trkpt>
<trkpt lat="42.479836" lon="-1.213149">
<ele>858</ele>
<time>2013-07-13T14:45:45.000Z</time>
</trkpt>
<trkpt lat="42.47991" lon="-1.21307">
<ele>856</ele>
<time>2013-07-13T14:45:46.000Z</time>
</trkpt>
<trkpt lat="42.479972" lon="-1.212994">
<ele>853</ele>
<time>2013-07-13T14:45:47.000Z</time>
</trkpt>
<trkpt lat="42.480017" lon="-1.21293">
<ele>851</ele>
<time>2013-07-13T14:45:48.000Z</time>
</trkpt>
<trkpt lat="42.480062" lon="-1.212867">
<ele>849</ele>
<time>2013-07-13T14:45:49.000Z</time>
</trkpt>
<trkpt lat="42.4801" lon="-1.212812">
<ele>847</ele>
<time>2013-07-13T14:45:50.000Z</time>
</trkpt>
<trkpt lat="42.480148" lon="-1.212747">
<ele>844</ele>
<time>2013-07-13T14:45:51.000Z</time>
</trkpt>
<trkpt lat="42.480217" lon="-1.212673">
<ele>840</ele>
<time>2013-07-13T14:45:52.000Z</time>
</trkpt>
<trkpt lat="42.480288" lon="-1.2126">
<ele>838</ele>
<time>2013-07-13T14:45:53.000Z</time>
</trkpt>
<trkpt lat="42.480351" lon="-1.212534">
<ele>838</ele>
<time>2013-07-13T14:45:54.000Z</time>
</trkpt>
<trkpt lat="42.480404" lon="-1.212466">
<ele>837</ele>
<time>2013-07-13T14:45:55.000Z</time>
</trkpt>
<trkpt lat="42.480457" lon="-1.212397">
<ele>835</ele>
<time>2013-07-13T14:45:56.000Z</time>
</trkpt>
<trkpt lat="42.48051" lon="-1.212329">
<ele>833</ele>
<time>2013-07-13T14:45:57.000Z</time>
</trkpt>
<trkpt lat="42.480568" lon="-1.212257">
<ele>832</ele>
<time>2013-07-13T14:45:58.000Z</time>
</trkpt>
<trkpt lat="42.480635" lon="-1.212181">
<ele>831</ele>
<time>2013-07-13T14:45:59.000Z</time>
</trkpt>
<trkpt lat="42.480694" lon="-1.21211">
<ele>831</ele>
<time>2013-07-13T14:46:00.000Z</time>
</trkpt>
<trkpt lat="42.480746" lon="-1.212046">
<ele>832</ele>
<time>2013-07-13T14:46:01.000Z</time>
</trkpt>
<trkpt lat="42.480796" lon="-1.21199">
<ele>831</ele>
<time>2013-07-13T14:46:02.000Z</time>
</trkpt>
<trkpt lat="42.480864" lon="-1.21192">
<ele>823</ele>
<time>2013-07-13T14:46:03.000Z</time>
</trkpt>
<trkpt lat="42.480935" lon="-1.211848">
<ele>818</ele>
<time>2013-07-13T14:46:04.000Z</time>
</trkpt>
<trkpt lat="42.481009" lon="-1.211779">
<ele>816</ele>
<time>2013-07-13T14:46:05.000Z</time>
</trkpt>
<trkpt lat="42.481088" lon="-1.211708">
<ele>815</ele>
<time>2013-07-13T14:46:06.000Z</time>
</trkpt>
<trkpt lat="42.481157" lon="-1.211642">
<ele>814</ele>
<time>2013-07-13T14:46:07.000Z</time>
</trkpt>
<trkpt lat="42.481202" lon="-1.211592">
<ele>814</ele>
<time>2013-07-13T14:46:08.000Z</time>
</trkpt>
<trkpt lat="42.481234" lon="-1.211552">
<ele>812</ele>
<time>2013-07-13T14:46:09.000Z</time>
</trkpt>
<trkpt lat="42.481259" lon="-1.211519">
<ele>813</ele>
<time>2013-07-13T14:46:10.000Z</time>
</trkpt>
<trkpt lat="42.4813" lon="-1.211479">
<ele>813</ele>
<time>2013-07-13T14:46:11.000Z</time>
</trkpt>
<trkpt lat="42.481355" lon="-1.211436">
<ele>811</ele>
<time>2013-07-13T14:46:12.000Z</time>
</trkpt>
<trkpt lat="42.481417" lon="-1.211397">
<ele>809</ele>
<time>2013-07-13T14:46:13.000Z</time>
</trkpt>
<trkpt lat="42.481474" lon="-1.211369">
<ele>808</ele>
<time>2013-07-13T14:46:14.000Z</time>
</trkpt>
<trkpt lat="42.48152" lon="-1.211362">
<ele>806</ele>
<time>2013-07-13T14:46:15.000Z</time>
</trkpt>
<trkpt lat="42.481564" lon="-1.211352">
<ele>804</ele>
<time>2013-07-13T14:46:16.000Z</time>
</trkpt>
<trkpt lat="42.481609" lon="-1.211327">
<ele>803</ele>
<time>2013-07-13T14:46:17.000Z</time>
</trkpt>
<trkpt lat="42.481668" lon="-1.211298">
<ele>802</ele>
<time>2013-07-13T14:46:18.000Z</time>
</trkpt>
<trkpt lat="42.481737" lon="-1.21127">
<ele>801</ele>
<time>2013-07-13T14:46:19.000Z</time>
</trkpt>
<trkpt lat="42.481802" lon="-1.211249">
<ele>801</ele>
<time>2013-07-13T14:46:20.000Z</time>
</trkpt>
<trkpt lat="42.481864" lon="-1.211234">
<ele>797</ele>
<time>2013-07-13T14:46:21.000Z</time>
</trkpt>
<trkpt lat="42.481915" lon="-1.21122">
<ele>798</ele>
<time>2013-07-13T14:46:22.000Z</time>
</trkpt>
<trkpt lat="42.481964" lon="-1.211206">
<ele>796</ele>
<time>2013-07-13T14:46:23.000Z</time>
</trkpt>
<trkpt lat="42.482017" lon="-1.211197">
<ele>795</ele>
<time>2013-07-13T14:46:24.000Z</time>
</trkpt>
<trkpt lat="42.482079" lon="-1.211233">
<ele>792</ele>
<time>2013-07-13T14:46:25.000Z</time>
</trkpt>
<trkpt lat="42.482131" lon="-1.211269">
<ele>789</ele>
<time>2013-07-13T14:46:26.000Z</time>
</trkpt>
<trkpt lat="42.482175" lon="-1.211304">
<ele>788</ele>
<time>2013-07-13T14:46:27.000Z</time>
</trkpt>
<trkpt lat="42.482213" lon="-1.211331">
<ele>786</ele>
<time>2013-07-13T14:46:28.000Z</time>
</trkpt>
<trkpt lat="42.482249" lon="-1.211355">
<ele>785</ele>
<time>2013-07-13T14:46:29.000Z</time>
</trkpt>
<trkpt lat="42.482277" lon="-1.211395">
<ele>783</ele>
<time>2013-07-13T14:46:30.000Z</time>
</trkpt>
<trkpt lat="42.482309" lon="-1.211442">
<ele>781</ele>
<time>2013-07-13T14:46:31.000Z</time>
</trkpt>
<trkpt lat="42.482354" lon="-1.211496">
<ele>780</ele>
<time>2013-07-13T14:46:32.000Z</time>
</trkpt>
<trkpt lat="42.482412" lon="-1.211528">
<ele>777</ele>
<time>2013-07-13T14:46:33.000Z</time>
</trkpt>
<trkpt lat="42.482468" lon="-1.211558">
<ele>775</ele>
<time>2013-07-13T14:46:34.000Z</time>
</trkpt>
<trkpt lat="42.482511" lon="-1.21158">
<ele>773</ele>
<time>2013-07-13T14:46:35.000Z</time>
</trkpt>
<trkpt lat="42.482538" lon="-1.21161">
<ele>772</ele>
<time>2013-07-13T14:46:36.000Z</time>
</trkpt>
<trkpt lat="42.482565" lon="-1.211662">
<ele>773</ele>
<time>2013-07-13T14:46:37.000Z</time>
</trkpt>
<trkpt lat="42.482597" lon="-1.211698">
<ele>770</ele>
<time>2013-07-13T14:46:38.000Z</time>
</trkpt>
<trkpt lat="42.482641" lon="-1.211709">
<ele>766</ele>
<time>2013-07-13T14:46:39.000Z</time>
</trkpt>
<trkpt lat="42.482692" lon="-1.21168">
<ele>761</ele>
<time>2013-07-13T14:46:40.000Z</time>
</trkpt>
<trkpt lat="42.482758" lon="-1.211647">
<ele>759</ele>
<time>2013-07-13T14:46:41.000Z</time>
</trkpt>
<trkpt lat="42.482822" lon="-1.211612">
<ele>758</ele>
<time>2013-07-13T14:46:42.000Z</time>
</trkpt>
<trkpt lat="42.482877" lon="-1.21157">
<ele>756</ele>
<time>2013-07-13T14:46:43.000Z</time>
</trkpt>
<trkpt lat="42.482928" lon="-1.211518">
<ele>753</ele>
<time>2013-07-13T14:46:44.000Z</time>
</trkpt>
<trkpt lat="42.482981" lon="-1.211438">
<ele>753</ele>
<time>2013-07-13T14:46:45.000Z</time>
</trkpt>
<trkpt lat="42.483042" lon="-1.211353">
<ele>752</ele>
<time>2013-07-13T14:46:46.000Z</time>
</trkpt>
<trkpt lat="42.483104" lon="-1.211275">
<ele>751</ele>
<time>2013-07-13T14:46:47.000Z</time>
</trkpt>
<trkpt lat="42.483173" lon="-1.211221">
<ele>751</ele>
<time>2013-07-13T14:46:48.000Z</time>
</trkpt>
<trkpt lat="42.48324" lon="-1.211176">
<ele>751</ele>
<time>2013-07-13T14:46:49.000Z</time>
</trkpt>
<trkpt lat="42.483306" lon="-1.211137">
<ele>751</ele>
<time>2013-07-13T14:46:50.000Z</time>
</trkpt>
<trkpt lat="42.483372" lon="-1.211101">
<ele>750</ele>
<time>2013-07-13T14:46:51.000Z</time>
</trkpt>
<trkpt lat="42.483433" lon="-1.211068">
<ele>751</ele>
<time>2013-07-13T14:46:52.000Z</time>
</trkpt>
<trkpt lat="42.483489" lon="-1.211042">
<ele>750</ele>
<time>2013-07-13T14:46:53.000Z</time>
</trkpt>
<trkpt lat="42.483545" lon="-1.211035">
<ele>751</ele>
<time>2013-07-13T14:46:54.000Z</time>
</trkpt>
<trkpt lat="42.483609" lon="-1.211032">
<ele>751</ele>
<time>2013-07-13T14:46:55.000Z</time>
</trkpt>
<trkpt lat="42.483682" lon="-1.211032">
<ele>751</ele>
<time>2013-07-13T14:46:56.000Z</time>
</trkpt>
<trkpt lat="42.483764" lon="-1.21103">
<ele>749</ele>
<time>2013-07-13T14:46:57.000Z</time>
</trkpt>
<trkpt lat="42.483818" lon="-1.211033">
<ele>750</ele>
<time>2013-07-13T14:46:58.000Z</time>
</trkpt>
<trkpt lat="42.483857" lon="-1.211053">
<ele>747</ele>
<time>2013-07-13T14:46:59.000Z</time>
</trkpt>
<trkpt lat="42.483892" lon="-1.21107">
<ele>745</ele>
<time>2013-07-13T14:47:00.000Z</time>
</trkpt>
<trkpt lat="42.483941" lon="-1.211083">
<ele>746</ele>
<time>2013-07-13T14:47:01.000Z</time>
</trkpt>
<trkpt lat="42.484002" lon="-1.211077">
<ele>744</ele>
<time>2013-07-13T14:47:02.000Z</time>
</trkpt>
<trkpt lat="42.484069" lon="-1.211066">
<ele>743</ele>
<time>2013-07-13T14:47:03.000Z</time>
</trkpt>
<trkpt lat="42.484136" lon="-1.211048">
<ele>740</ele>
<time>2013-07-13T14:47:04.000Z</time>
</trkpt>
<trkpt lat="42.4842" lon="-1.211024">
<ele>739</ele>
<time>2013-07-13T14:47:05.000Z</time>
</trkpt>
<trkpt lat="42.484259" lon="-1.211001">
<ele>739</ele>
<time>2013-07-13T14:47:06.000Z</time>
</trkpt>
<trkpt lat="42.484323" lon="-1.210995">
<ele>737</ele>
<time>2013-07-13T14:47:07.000Z</time>
</trkpt>
<trkpt lat="42.484392" lon="-1.210993">
<ele>732</ele>
<time>2013-07-13T14:47:08.000Z</time>
</trkpt>
<trkpt lat="42.484472" lon="-1.210997">
<ele>725</ele>
<time>2013-07-13T14:47:09.000Z</time>
</trkpt>
<trkpt lat="42.484527" lon="-1.21099">
<ele>719</ele>
<time>2013-07-13T14:47:10.000Z</time>
</trkpt>
<trkpt lat="42.484569" lon="-1.210983">
<ele>717</ele>
<time>2013-07-13T14:47:11.000Z</time>
</trkpt>
<trkpt lat="42.484604" lon="-1.210976">
<ele>717</ele>
<time>2013-07-13T14:47:12.000Z</time>
</trkpt>
<trkpt lat="42.484651" lon="-1.21097">
<ele>717</ele>
<time>2013-07-13T14:47:13.000Z</time>
</trkpt>
<trkpt lat="42.484713" lon="-1.210967">
<ele>716</ele>
<time>2013-07-13T14:47:14.000Z</time>
</trkpt>
<trkpt lat="42.484774" lon="-1.210984">
<ele>717</ele>
<time>2013-07-13T14:47:15.000Z</time>
</trkpt>
<trkpt lat="42.48484" lon="-1.211003">
<ele>717</ele>
<time>2013-07-13T14:47:16.000Z</time>
</trkpt>
<trkpt lat="42.484898" lon="-1.211022">
<ele>716</ele>
<time>2013-07-13T14:47:17.000Z</time>
</trkpt>
<trkpt lat="42.484949" lon="-1.211033">
<ele>715</ele>
<time>2013-07-13T14:47:18.000Z</time>
</trkpt>
<trkpt lat="42.48501" lon="-1.211025">
<ele>715</ele>
<time>2013-07-13T14:47:19.000Z</time>
</trkpt>
<trkpt lat="42.485077" lon="-1.211015">
<ele>715</ele>
<time>2013-07-13T14:47:20.000Z</time>
</trkpt>
<trkpt lat="42.485145" lon="-1.211003">
<ele>714</ele>
<time>2013-07-13T14:47:21.000Z</time>
</trkpt>
<trkpt lat="42.485212" lon="-1.210993">
<ele>713</ele>
<time>2013-07-13T14:47:22.000Z</time>
</trkpt>
<trkpt lat="42.485275" lon="-1.210984">
<ele>714</ele>
<time>2013-07-13T14:47:23.000Z</time>
</trkpt>
<trkpt lat="42.485329" lon="-1.210975">
<ele>712</ele>
<time>2013-07-13T14:47:24.000Z</time>
</trkpt>
<trkpt lat="42.485384" lon="-1.210972">
<ele>711</ele>
<time>2013-07-13T14:47:25.000Z</time>
</trkpt>
<trkpt lat="42.485444" lon="-1.210974">
<ele>711</ele>
<time>2013-07-13T14:47:26.000Z</time>
</trkpt>
<trkpt lat="42.4855" lon="-1.210999">
<ele>707</ele>
<time>2013-07-13T14:47:27.000Z</time>
</trkpt>
<trkpt lat="42.48556" lon="-1.211026">
<ele>707</ele>
<time>2013-07-13T14:47:28.000Z</time>
</trkpt>
<trkpt lat="42.485607" lon="-1.211048">
<ele>706</ele>
<time>2013-07-13T14:47:29.000Z</time>
</trkpt>
<trkpt lat="42.485646" lon="-1.211062">
<ele>705</ele>
<time>2013-07-13T14:47:30.000Z</time>
</trkpt>
<trkpt lat="42.48569" lon="-1.211076">
<ele>704</ele>
<time>2013-07-13T14:47:31.000Z</time>
</trkpt>
<trkpt lat="42.485744" lon="-1.211075">
<ele>703</ele>
<time>2013-07-13T14:47:32.000Z</time>
</trkpt>
<trkpt lat="42.485811" lon="-1.211074">
<ele>702</ele>
<time>2013-07-13T14:47:33.000Z</time>
</trkpt>
<trkpt lat="42.485885" lon="-1.21107">
<ele>701</ele>
<time>2013-07-13T14:47:34.000Z</time>
</trkpt>
<trkpt lat="42.485955" lon="-1.211059">
<ele>700</ele>
<time>2013-07-13T14:47:35.000Z</time>
</trkpt>
<trkpt lat="42.486016" lon="-1.21103">
<ele>700</ele>
<time>2013-07-13T14:47:36.000Z</time>
</trkpt>
<trkpt lat="42.486078" lon="-1.211004">
<ele>699</ele>
<time>2013-07-13T14:47:37.000Z</time>
</trkpt>
<trkpt lat="42.486147" lon="-1.210984">
<ele>698</ele>
<time>2013-07-13T14:47:38.000Z</time>
</trkpt>
<trkpt lat="42.486218" lon="-1.210997">
<ele>697</ele>
<time>2013-07-13T14:47:39.000Z</time>
</trkpt>
<trkpt lat="42.48628" lon="-1.210987">
<ele>691</ele>
<time>2013-07-13T14:47:40.000Z</time>
</trkpt>
<trkpt lat="42.486327" lon="-1.210963">
<ele>692</ele>
<time>2013-07-13T14:47:41.000Z</time>
</trkpt>
<trkpt lat="42.486385" lon="-1.21095">
<ele>684</ele>
<time>2013-07-13T14:47:42.000Z</time>
</trkpt>
<trkpt lat="42.486443" lon="-1.210964">
<ele>690</ele>
<time>2013-07-13T14:47:43.000Z</time>
</trkpt>
<trkpt lat="42.486512" lon="-1.210988">
<ele>692</ele>
<time>2013-07-13T14:47:44.000Z</time>
</trkpt>
<trkpt lat="42.486582" lon="-1.211013">
<ele>693</ele>
<time>2013-07-13T14:47:45.000Z</time>
</trkpt>
<trkpt lat="42.486636" lon="-1.21103">
<ele>692</ele>
<time>2013-07-13T14:47:46.000Z</time>
</trkpt>
<trkpt lat="42.486682" lon="-1.211042">
<ele>692</ele>
<time>2013-07-13T14:47:47.000Z</time>
</trkpt>
<trkpt lat="42.48673" lon="-1.211055">
<ele>692</ele>
<time>2013-07-13T14:47:48.000Z</time>
</trkpt>
<trkpt lat="42.48678" lon="-1.211072">
<ele>691</ele>
<time>2013-07-13T14:47:49.000Z</time>
</trkpt>
<trkpt lat="42.486833" lon="-1.21109">
<ele>689</ele>
<time>2013-07-13T14:47:50.000Z</time>
</trkpt>
<trkpt lat="42.48689" lon="-1.211106">
<ele>686</ele>
<time>2013-07-13T14:47:51.000Z</time>
</trkpt>
<trkpt lat="42.486959" lon="-1.211121">
<ele>685</ele>
<time>2013-07-13T14:47:52.000Z</time>
</trkpt>
<trkpt lat="42.487031" lon="-1.211131">
<ele>684</ele>
<time>2013-07-13T14:47:53.000Z</time>
</trkpt>
<trkpt lat="42.487096" lon="-1.211107">
<ele>684</ele>
<time>2013-07-13T14:47:54.000Z</time>
</trkpt>
<trkpt lat="42.487153" lon="-1.21107">
<ele>686</ele>
<time>2013-07-13T14:47:55.000Z</time>
</trkpt>
<trkpt lat="42.487208" lon="-1.211032">
<ele>686</ele>
<time>2013-07-13T14:47:56.000Z</time>
</trkpt>
<trkpt lat="42.487273" lon="-1.211011">
<ele>686</ele>
<time>2013-07-13T14:47:57.000Z</time>
</trkpt>
<trkpt lat="42.487341" lon="-1.210995">
<ele>682</ele>
<time>2013-07-13T14:47:58.000Z</time>
</trkpt>
<trkpt lat="42.487407" lon="-1.210989">
<ele>680</ele>
<time>2013-07-13T14:47:59.000Z</time>
</trkpt>
<trkpt lat="42.487468" lon="-1.210988">
<ele>681</ele>
<time>2013-07-13T14:48:00.000Z</time>
</trkpt>
<trkpt lat="42.48753" lon="-1.210983">
<ele>680</ele>
<time>2013-07-13T14:48:01.000Z</time>
</trkpt>
<trkpt lat="42.487582" lon="-1.210974">
<ele>676</ele>
<time>2013-07-13T14:48:02.000Z</time>
</trkpt>
<trkpt lat="42.487627" lon="-1.210957">
<ele>671</ele>
<time>2013-07-13T14:48:03.000Z</time>
</trkpt>
<trkpt lat="42.487673" lon="-1.21093">
<ele>667</ele>
<time>2013-07-13T14:48:04.000Z</time>
</trkpt>
<trkpt lat="42.487728" lon="-1.210899">
<ele>664</ele>
<time>2013-07-13T14:48:05.000Z</time>
</trkpt>
<trkpt lat="42.487789" lon="-1.210859">
<ele>662</ele>
<time>2013-07-13T14:48:06.000Z</time>
</trkpt>
<trkpt lat="42.48785" lon="-1.210815">
<ele>662</ele>
<time>2013-07-13T14:48:07.000Z</time>
</trkpt>
<trkpt lat="42.487907" lon="-1.210772">
<ele>663</ele>
<time>2013-07-13T14:48:08.000Z</time>
</trkpt>
<trkpt lat="42.487951" lon="-1.210742">
<ele>662</ele>
<time>2013-07-13T14:48:09.000Z</time>
</trkpt>
<trkpt lat="42.487978" lon="-1.210726">
<ele>662</ele>
<time>2013-07-13T14:48:10.000Z</time>
</trkpt>
<trkpt lat="42.487999" lon="-1.210715">
<ele>658</ele>
<time>2013-07-13T14:48:11.000Z</time>
</trkpt>
<trkpt lat="42.488042" lon="-1.210708">
<ele>658</ele>
<time>2013-07-13T14:48:47.000Z</time>
</trkpt>
<trkpt lat="42.487996" lon="-1.210637">
<ele>655</ele>
<time>2013-07-13T14:48:48.000Z</time>
</trkpt>
<trkpt lat="42.487988" lon="-1.210582">
<ele>659</ele>
<time>2013-07-13T14:49:08.000Z</time>
</trkpt>
<trkpt lat="42.488086" lon="-1.210567">
<ele>656</ele>
<time>2013-07-13T14:49:09.000Z</time>
</trkpt>
<trkpt lat="42.488086" lon="-1.210567">
<ele>656</ele>
<time>2013-07-13T14:49:19.000Z</time>
</trkpt>
<trkpt lat="42.488174" lon="-1.21053">
<ele>657</ele>
<time>2013-07-13T14:49:20.000Z</time>
</trkpt>
<trkpt lat="42.488174" lon="-1.21053">
<ele>657</ele>
<time>2013-07-13T14:49:28.000Z</time>
</trkpt>
<trkpt lat="42.488264" lon="-1.210501">
<ele>656</ele>
<time>2013-07-13T14:49:29.000Z</time>
</trkpt>
<trkpt lat="42.488264" lon="-1.210501">
<ele>656</ele>
<time>2013-07-13T14:49:34.000Z</time>
</trkpt>
<trkpt lat="42.488351" lon="-1.210427">
<ele>653</ele>
<time>2013-07-13T14:49:35.000Z</time>
</trkpt>
<trkpt lat="42.488351" lon="-1.210427">
<ele>653</ele>
<time>2013-07-13T14:49:45.000Z</time>
</trkpt>
<trkpt lat="42.488448" lon="-1.210396">
<ele>663</ele>
<time>2013-07-13T14:49:46.000Z</time>
</trkpt>
<trkpt lat="42.488472" lon="-1.210378">
<ele>657</ele>
<time>2013-07-13T14:50:34.000Z</time>
</trkpt>
</trkseg>
</trk>
</gpx>
